<?xml version="1.0" encoding="UTF-8" standalone="no" ?>
<gpx xmlns="http://www.topografix.com/GPX/1/1" xmlns:xsi="http://www.w3.org/2001/XMLSchema-instance" xsi:schemaLocation="http://www.topografix.com/GPX/1/1 http://www.topografix.com/GPX/1/1/gpx.xsd" version="1.1" creator="VisuGPX - https://www.visugpx.com">
  <metadata>
    <name>Corniche du DRAC </name>
    <desc><![CDATA[Départ très tôt pour éviter la chaleur mais retour difficile malgré tout !]]></desc>
  </metadata>
  <trk>
    <name><![CDATA[Corniche du DRAC ]]></name>
    <trkseg>
      <trkpt lat="44.90012" lon="5.90792">
        <ele>792</ele>
        <time>2022-07-16T05:02:04Z</time>
      </trkpt>
      <trkpt lat="44.90011" lon="5.90791">
        <ele>792</ele>
        <time>2022-07-16T05:02:05Z</time>
      </trkpt>
      <trkpt lat="44.90012" lon="5.90792">
        <ele>792</ele>
        <time>2022-07-16T05:02:06Z</time>
      </trkpt>
      <trkpt lat="44.90012" lon="5.90792">
        <ele>792</ele>
        <time>2022-07-16T05:02:07Z</time>
      </trkpt>
      <trkpt lat="44.90012" lon="5.90793">
        <ele>792</ele>
        <time>2022-07-16T05:02:08Z</time>
      </trkpt>
      <trkpt lat="44.90012" lon="5.90793">
        <ele>792</ele>
        <time>2022-07-16T05:02:09Z</time>
      </trkpt>
      <trkpt lat="44.90013" lon="5.90793">
        <ele>792</ele>
        <time>2022-07-16T05:02:10Z</time>
      </trkpt>
      <trkpt lat="44.90013" lon="5.90794">
        <ele>792</ele>
        <time>2022-07-16T05:02:11Z</time>
      </trkpt>
      <trkpt lat="44.90013" lon="5.90794">
        <ele>792</ele>
        <time>2022-07-16T05:02:12Z</time>
      </trkpt>
      <trkpt lat="44.90013" lon="5.90795">
        <ele>792</ele>
        <time>2022-07-16T05:02:13Z</time>
      </trkpt>
      <trkpt lat="44.90013" lon="5.90795">
        <ele>792</ele>
        <time>2022-07-16T05:02:14Z</time>
      </trkpt>
      <trkpt lat="44.90014" lon="5.90796">
        <ele>792</ele>
        <time>2022-07-16T05:02:15Z</time>
      </trkpt>
      <trkpt lat="44.90014" lon="5.90796">
        <ele>792</ele>
        <time>2022-07-16T05:02:16Z</time>
      </trkpt>
      <trkpt lat="44.90014" lon="5.90797">
        <ele>792</ele>
        <time>2022-07-16T05:02:17Z</time>
      </trkpt>
      <trkpt lat="44.90014" lon="5.90798">
        <ele>792</ele>
        <time>2022-07-16T05:02:18Z</time>
      </trkpt>
      <trkpt lat="44.90013" lon="5.908">
        <ele>792</ele>
        <time>2022-07-16T05:02:19Z</time>
      </trkpt>
      <trkpt lat="44.90013" lon="5.90798">
        <ele>792</ele>
        <time>2022-07-16T05:02:20Z</time>
      </trkpt>
      <trkpt lat="44.90013" lon="5.90798">
        <ele>792</ele>
        <time>2022-07-16T05:02:23Z</time>
      </trkpt>
      <trkpt lat="44.90013" lon="5.90798">
        <ele>792</ele>
        <time>2022-07-16T05:02:24Z</time>
      </trkpt>
      <trkpt lat="44.90014" lon="5.90797">
        <ele>792</ele>
        <time>2022-07-16T05:02:25Z</time>
      </trkpt>
      <trkpt lat="44.90015" lon="5.90796">
        <ele>792</ele>
        <time>2022-07-16T05:02:27Z</time>
      </trkpt>
      <trkpt lat="44.90015" lon="5.90796">
        <ele>792</ele>
        <time>2022-07-16T05:02:30Z</time>
      </trkpt>
      <trkpt lat="44.90015" lon="5.90795">
        <ele>792</ele>
        <time>2022-07-16T05:02:31Z</time>
      </trkpt>
      <trkpt lat="44.90016" lon="5.90795">
        <ele>792</ele>
        <time>2022-07-16T05:02:32Z</time>
      </trkpt>
      <trkpt lat="44.90016" lon="5.90795">
        <ele>792</ele>
        <time>2022-07-16T05:02:33Z</time>
      </trkpt>
      <trkpt lat="44.90014" lon="5.90785">
        <ele>792.1</ele>
        <time>2022-07-16T05:04:39Z</time>
      </trkpt>
      <trkpt lat="44.90014" lon="5.90782">
        <ele>792.1</ele>
        <time>2022-07-16T05:04:40Z</time>
      </trkpt>
      <trkpt lat="44.90018" lon="5.90779">
        <ele>792.1</ele>
        <time>2022-07-16T05:04:42Z</time>
      </trkpt>
      <trkpt lat="44.90021" lon="5.9078">
        <ele>792.1</ele>
        <time>2022-07-16T05:04:43Z</time>
      </trkpt>
      <trkpt lat="44.90022" lon="5.90778">
        <ele>792.1</ele>
        <time>2022-07-16T05:04:44Z</time>
      </trkpt>
      <trkpt lat="44.90022" lon="5.90777">
        <ele>792.1</ele>
        <time>2022-07-16T05:04:46Z</time>
      </trkpt>
      <trkpt lat="44.90023" lon="5.90769">
        <ele>792.1</ele>
        <time>2022-07-16T05:04:48Z</time>
      </trkpt>
      <trkpt lat="44.90023" lon="5.90756">
        <ele>792.2</ele>
        <time>2022-07-16T05:04:50Z</time>
      </trkpt>
      <trkpt lat="44.90023" lon="5.90747">
        <ele>792.3</ele>
        <time>2022-07-16T05:04:51Z</time>
      </trkpt>
      <trkpt lat="44.90022" lon="5.90739">
        <ele>792.3</ele>
        <time>2022-07-16T05:04:53Z</time>
      </trkpt>
      <trkpt lat="44.90022" lon="5.90735">
        <ele>792.4</ele>
        <time>2022-07-16T05:04:54Z</time>
      </trkpt>
      <trkpt lat="44.90022" lon="5.90729">
        <ele>792.4</ele>
        <time>2022-07-16T05:04:55Z</time>
      </trkpt>
      <trkpt lat="44.90024" lon="5.90721">
        <ele>792.5</ele>
        <time>2022-07-16T05:04:56Z</time>
      </trkpt>
      <trkpt lat="44.90024" lon="5.90716">
        <ele>792.5</ele>
        <time>2022-07-16T05:04:57Z</time>
      </trkpt>
      <trkpt lat="44.90025" lon="5.90709">
        <ele>792.6</ele>
        <time>2022-07-16T05:04:58Z</time>
      </trkpt>
      <trkpt lat="44.90025" lon="5.90703">
        <ele>792.7</ele>
        <time>2022-07-16T05:05:00Z</time>
      </trkpt>
      <trkpt lat="44.90025" lon="5.90698">
        <ele>792.7</ele>
        <time>2022-07-16T05:05:01Z</time>
      </trkpt>
      <trkpt lat="44.90026" lon="5.90693">
        <ele>792.8</ele>
        <time>2022-07-16T05:05:02Z</time>
      </trkpt>
      <trkpt lat="44.90026" lon="5.90687">
        <ele>792.9</ele>
        <time>2022-07-16T05:05:03Z</time>
      </trkpt>
      <trkpt lat="44.90026" lon="5.90677">
        <ele>793.1</ele>
        <time>2022-07-16T05:05:05Z</time>
      </trkpt>
      <trkpt lat="44.90026" lon="5.90672">
        <ele>793.2</ele>
        <time>2022-07-16T05:05:06Z</time>
      </trkpt>
      <trkpt lat="44.90027" lon="5.90668">
        <ele>793.3</ele>
        <time>2022-07-16T05:05:07Z</time>
      </trkpt>
      <trkpt lat="44.90026" lon="5.90661">
        <ele>793.4</ele>
        <time>2022-07-16T05:05:08Z</time>
      </trkpt>
      <trkpt lat="44.90026" lon="5.90658">
        <ele>793.5</ele>
        <time>2022-07-16T05:05:09Z</time>
      </trkpt>
      <trkpt lat="44.90027" lon="5.90649">
        <ele>793.7</ele>
        <time>2022-07-16T05:05:10Z</time>
      </trkpt>
      <trkpt lat="44.90027" lon="5.90644">
        <ele>793.8</ele>
        <time>2022-07-16T05:05:12Z</time>
      </trkpt>
      <trkpt lat="44.90028" lon="5.90639">
        <ele>793.9</ele>
        <time>2022-07-16T05:05:13Z</time>
      </trkpt>
      <trkpt lat="44.90028" lon="5.90635">
        <ele>793.9</ele>
        <time>2022-07-16T05:05:14Z</time>
      </trkpt>
      <trkpt lat="44.90028" lon="5.90629">
        <ele>794</ele>
        <time>2022-07-16T05:05:15Z</time>
      </trkpt>
      <trkpt lat="44.90027" lon="5.90627">
        <ele>794.1</ele>
        <time>2022-07-16T05:05:16Z</time>
      </trkpt>
      <trkpt lat="44.90029" lon="5.90622">
        <ele>794.2</ele>
        <time>2022-07-16T05:05:18Z</time>
      </trkpt>
      <trkpt lat="44.9003" lon="5.90614">
        <ele>794.3</ele>
        <time>2022-07-16T05:05:20Z</time>
      </trkpt>
      <trkpt lat="44.90029" lon="5.9061">
        <ele>794.4</ele>
        <time>2022-07-16T05:05:21Z</time>
      </trkpt>
      <trkpt lat="44.90029" lon="5.90606">
        <ele>794.5</ele>
        <time>2022-07-16T05:05:22Z</time>
      </trkpt>
      <trkpt lat="44.9003" lon="5.90605">
        <ele>794.5</ele>
        <time>2022-07-16T05:05:23Z</time>
      </trkpt>
      <trkpt lat="44.90031" lon="5.90598">
        <ele>794.7</ele>
        <time>2022-07-16T05:05:25Z</time>
      </trkpt>
      <trkpt lat="44.90029" lon="5.90592">
        <ele>794.8</ele>
        <time>2022-07-16T05:05:27Z</time>
      </trkpt>
      <trkpt lat="44.90028" lon="5.90583">
        <ele>795.1</ele>
        <time>2022-07-16T05:05:29Z</time>
      </trkpt>
      <trkpt lat="44.90027" lon="5.90579">
        <ele>795.2</ele>
        <time>2022-07-16T05:05:30Z</time>
      </trkpt>
      <trkpt lat="44.90027" lon="5.90573">
        <ele>795.4</ele>
        <time>2022-07-16T05:05:32Z</time>
      </trkpt>
      <trkpt lat="44.90027" lon="5.90569">
        <ele>795.5</ele>
        <time>2022-07-16T05:05:33Z</time>
      </trkpt>
      <trkpt lat="44.90025" lon="5.90564">
        <ele>795.7</ele>
        <time>2022-07-16T05:05:34Z</time>
      </trkpt>
      <trkpt lat="44.90025" lon="5.90559">
        <ele>795.8</ele>
        <time>2022-07-16T05:05:35Z</time>
      </trkpt>
      <trkpt lat="44.90025" lon="5.90551">
        <ele>796</ele>
        <time>2022-07-16T05:05:37Z</time>
      </trkpt>
      <trkpt lat="44.90024" lon="5.90547">
        <ele>796.1</ele>
        <time>2022-07-16T05:05:38Z</time>
      </trkpt>
      <trkpt lat="44.90024" lon="5.90542">
        <ele>796.2</ele>
        <time>2022-07-16T05:05:39Z</time>
      </trkpt>
      <trkpt lat="44.90023" lon="5.90535">
        <ele>796.3</ele>
        <time>2022-07-16T05:05:41Z</time>
      </trkpt>
      <trkpt lat="44.90021" lon="5.90519">
        <ele>796.5</ele>
        <time>2022-07-16T05:05:44Z</time>
      </trkpt>
      <trkpt lat="44.90018" lon="5.90504">
        <ele>796.8</ele>
        <time>2022-07-16T05:05:46Z</time>
      </trkpt>
      <trkpt lat="44.90016" lon="5.90487">
        <ele>797</ele>
        <time>2022-07-16T05:05:49Z</time>
      </trkpt>
      <trkpt lat="44.90017" lon="5.90481">
        <ele>797.1</ele>
        <time>2022-07-16T05:05:50Z</time>
      </trkpt>
      <trkpt lat="44.90016" lon="5.90474">
        <ele>797.1</ele>
        <time>2022-07-16T05:05:51Z</time>
      </trkpt>
      <trkpt lat="44.90015" lon="5.90467">
        <ele>797.1</ele>
        <time>2022-07-16T05:05:52Z</time>
      </trkpt>
      <trkpt lat="44.90014" lon="5.9046">
        <ele>797</ele>
        <time>2022-07-16T05:05:53Z</time>
      </trkpt>
      <trkpt lat="44.90012" lon="5.90453">
        <ele>796.9</ele>
        <time>2022-07-16T05:05:54Z</time>
      </trkpt>
      <trkpt lat="44.90009" lon="5.90446">
        <ele>796.7</ele>
        <time>2022-07-16T05:05:55Z</time>
      </trkpt>
      <trkpt lat="44.90007" lon="5.90438">
        <ele>796.6</ele>
        <time>2022-07-16T05:05:56Z</time>
      </trkpt>
      <trkpt lat="44.90005" lon="5.9043">
        <ele>796.4</ele>
        <time>2022-07-16T05:05:57Z</time>
      </trkpt>
      <trkpt lat="44.90002" lon="5.90424">
        <ele>796.2</ele>
        <time>2022-07-16T05:05:58Z</time>
      </trkpt>
      <trkpt lat="44.9" lon="5.90417">
        <ele>796</ele>
        <time>2022-07-16T05:05:59Z</time>
      </trkpt>
      <trkpt lat="44.89998" lon="5.9041">
        <ele>795.9</ele>
        <time>2022-07-16T05:06:00Z</time>
      </trkpt>
      <trkpt lat="44.89998" lon="5.90403">
        <ele>795.7</ele>
        <time>2022-07-16T05:06:01Z</time>
      </trkpt>
      <trkpt lat="44.89996" lon="5.90395">
        <ele>795.5</ele>
        <time>2022-07-16T05:06:02Z</time>
      </trkpt>
      <trkpt lat="44.89995" lon="5.90387">
        <ele>795.4</ele>
        <time>2022-07-16T05:06:03Z</time>
      </trkpt>
      <trkpt lat="44.89993" lon="5.90379">
        <ele>795.3</ele>
        <time>2022-07-16T05:06:04Z</time>
      </trkpt>
      <trkpt lat="44.8999" lon="5.90371">
        <ele>795.1</ele>
        <time>2022-07-16T05:06:05Z</time>
      </trkpt>
      <trkpt lat="44.89988" lon="5.90363">
        <ele>795</ele>
        <time>2022-07-16T05:06:06Z</time>
      </trkpt>
      <trkpt lat="44.89985" lon="5.90354">
        <ele>794.8</ele>
        <time>2022-07-16T05:06:07Z</time>
      </trkpt>
      <trkpt lat="44.89981" lon="5.90347">
        <ele>794.7</ele>
        <time>2022-07-16T05:06:08Z</time>
      </trkpt>
      <trkpt lat="44.89978" lon="5.9034">
        <ele>794.5</ele>
        <time>2022-07-16T05:06:09Z</time>
      </trkpt>
      <trkpt lat="44.89976" lon="5.90332">
        <ele>794.3</ele>
        <time>2022-07-16T05:06:10Z</time>
      </trkpt>
      <trkpt lat="44.89973" lon="5.90325">
        <ele>794.2</ele>
        <time>2022-07-16T05:06:11Z</time>
      </trkpt>
      <trkpt lat="44.8997" lon="5.90319">
        <ele>794</ele>
        <time>2022-07-16T05:06:12Z</time>
      </trkpt>
      <trkpt lat="44.89967" lon="5.90312">
        <ele>793.8</ele>
        <time>2022-07-16T05:06:13Z</time>
      </trkpt>
      <trkpt lat="44.89964" lon="5.90306">
        <ele>793.6</ele>
        <time>2022-07-16T05:06:14Z</time>
      </trkpt>
      <trkpt lat="44.8996" lon="5.90299">
        <ele>793.4</ele>
        <time>2022-07-16T05:06:15Z</time>
      </trkpt>
      <trkpt lat="44.89957" lon="5.90291">
        <ele>793.1</ele>
        <time>2022-07-16T05:06:16Z</time>
      </trkpt>
      <trkpt lat="44.89954" lon="5.90282">
        <ele>792.9</ele>
        <time>2022-07-16T05:06:17Z</time>
      </trkpt>
      <trkpt lat="44.89951" lon="5.90272">
        <ele>792.7</ele>
        <time>2022-07-16T05:06:18Z</time>
      </trkpt>
      <trkpt lat="44.89949" lon="5.90262">
        <ele>792.6</ele>
        <time>2022-07-16T05:06:19Z</time>
      </trkpt>
      <trkpt lat="44.89948" lon="5.90253">
        <ele>792.4</ele>
        <time>2022-07-16T05:06:20Z</time>
      </trkpt>
      <trkpt lat="44.89946" lon="5.90244">
        <ele>792.3</ele>
        <time>2022-07-16T05:06:21Z</time>
      </trkpt>
      <trkpt lat="44.89944" lon="5.90236">
        <ele>792.3</ele>
        <time>2022-07-16T05:06:22Z</time>
      </trkpt>
      <trkpt lat="44.89942" lon="5.90227">
        <ele>792.2</ele>
        <time>2022-07-16T05:06:23Z</time>
      </trkpt>
      <trkpt lat="44.89942" lon="5.90217">
        <ele>792.1</ele>
        <time>2022-07-16T05:06:24Z</time>
      </trkpt>
      <trkpt lat="44.89942" lon="5.90208">
        <ele>792.1</ele>
        <time>2022-07-16T05:06:25Z</time>
      </trkpt>
      <trkpt lat="44.89943" lon="5.902">
        <ele>792.1</ele>
        <time>2022-07-16T05:06:26Z</time>
      </trkpt>
      <trkpt lat="44.89943" lon="5.90192">
        <ele>792.1</ele>
        <time>2022-07-16T05:06:27Z</time>
      </trkpt>
      <trkpt lat="44.89943" lon="5.90184">
        <ele>792.1</ele>
        <time>2022-07-16T05:06:28Z</time>
      </trkpt>
      <trkpt lat="44.89943" lon="5.90177">
        <ele>792.1</ele>
        <time>2022-07-16T05:06:29Z</time>
      </trkpt>
      <trkpt lat="44.89942" lon="5.90168">
        <ele>792.2</ele>
        <time>2022-07-16T05:06:30Z</time>
      </trkpt>
      <trkpt lat="44.89942" lon="5.9016">
        <ele>792.3</ele>
        <time>2022-07-16T05:06:31Z</time>
      </trkpt>
      <trkpt lat="44.89942" lon="5.90152">
        <ele>792.3</ele>
        <time>2022-07-16T05:06:32Z</time>
      </trkpt>
      <trkpt lat="44.89943" lon="5.90145">
        <ele>792.4</ele>
        <time>2022-07-16T05:06:33Z</time>
      </trkpt>
      <trkpt lat="44.89944" lon="5.90137">
        <ele>792.5</ele>
        <time>2022-07-16T05:06:34Z</time>
      </trkpt>
      <trkpt lat="44.89944" lon="5.90129">
        <ele>792.7</ele>
        <time>2022-07-16T05:06:35Z</time>
      </trkpt>
      <trkpt lat="44.89945" lon="5.90122">
        <ele>792.8</ele>
        <time>2022-07-16T05:06:36Z</time>
      </trkpt>
      <trkpt lat="44.89944" lon="5.90116">
        <ele>792.9</ele>
        <time>2022-07-16T05:06:37Z</time>
      </trkpt>
      <trkpt lat="44.89944" lon="5.9011">
        <ele>793</ele>
        <time>2022-07-16T05:06:38Z</time>
      </trkpt>
      <trkpt lat="44.89944" lon="5.90102">
        <ele>793.1</ele>
        <time>2022-07-16T05:06:39Z</time>
      </trkpt>
      <trkpt lat="44.89943" lon="5.90097">
        <ele>793.2</ele>
        <time>2022-07-16T05:06:40Z</time>
      </trkpt>
      <trkpt lat="44.89943" lon="5.90092">
        <ele>793.3</ele>
        <time>2022-07-16T05:06:41Z</time>
      </trkpt>
      <trkpt lat="44.89942" lon="5.90086">
        <ele>793.3</ele>
        <time>2022-07-16T05:06:42Z</time>
      </trkpt>
      <trkpt lat="44.89942" lon="5.9008">
        <ele>793.4</ele>
        <time>2022-07-16T05:06:43Z</time>
      </trkpt>
      <trkpt lat="44.89941" lon="5.90075">
        <ele>793.4</ele>
        <time>2022-07-16T05:06:44Z</time>
      </trkpt>
      <trkpt lat="44.89941" lon="5.90069">
        <ele>793.4</ele>
        <time>2022-07-16T05:06:45Z</time>
      </trkpt>
      <trkpt lat="44.89945" lon="5.90065">
        <ele>793.4</ele>
        <time>2022-07-16T05:06:46Z</time>
      </trkpt>
      <trkpt lat="44.8994" lon="5.90056">
        <ele>793.4</ele>
        <time>2022-07-16T05:06:47Z</time>
      </trkpt>
      <trkpt lat="44.89934" lon="5.90041">
        <ele>793.4</ele>
        <time>2022-07-16T05:06:49Z</time>
      </trkpt>
      <trkpt lat="44.89932" lon="5.90036">
        <ele>793.4</ele>
        <time>2022-07-16T05:06:50Z</time>
      </trkpt>
      <trkpt lat="44.8993" lon="5.90031">
        <ele>793.4</ele>
        <time>2022-07-16T05:06:51Z</time>
      </trkpt>
      <trkpt lat="44.89925" lon="5.9002">
        <ele>793.4</ele>
        <time>2022-07-16T05:06:53Z</time>
      </trkpt>
      <trkpt lat="44.8992" lon="5.90004">
        <ele>793.2</ele>
        <time>2022-07-16T05:06:56Z</time>
      </trkpt>
      <trkpt lat="44.89918" lon="5.89998">
        <ele>793.1</ele>
        <time>2022-07-16T05:06:57Z</time>
      </trkpt>
      <trkpt lat="44.89916" lon="5.89992">
        <ele>793.1</ele>
        <time>2022-07-16T05:06:58Z</time>
      </trkpt>
      <trkpt lat="44.89914" lon="5.89985">
        <ele>793</ele>
        <time>2022-07-16T05:06:59Z</time>
      </trkpt>
      <trkpt lat="44.89912" lon="5.89979">
        <ele>792.9</ele>
        <time>2022-07-16T05:07:00Z</time>
      </trkpt>
      <trkpt lat="44.8991" lon="5.89974">
        <ele>792.8</ele>
        <time>2022-07-16T05:07:01Z</time>
      </trkpt>
      <trkpt lat="44.89908" lon="5.89968">
        <ele>792.8</ele>
        <time>2022-07-16T05:07:02Z</time>
      </trkpt>
      <trkpt lat="44.89905" lon="5.89962">
        <ele>792.7</ele>
        <time>2022-07-16T05:07:03Z</time>
      </trkpt>
      <trkpt lat="44.89902" lon="5.89955">
        <ele>792.6</ele>
        <time>2022-07-16T05:07:04Z</time>
      </trkpt>
      <trkpt lat="44.89899" lon="5.89948">
        <ele>792.5</ele>
        <time>2022-07-16T05:07:05Z</time>
      </trkpt>
      <trkpt lat="44.89897" lon="5.8994">
        <ele>792.4</ele>
        <time>2022-07-16T05:07:06Z</time>
      </trkpt>
      <trkpt lat="44.89894" lon="5.89934">
        <ele>792.3</ele>
        <time>2022-07-16T05:07:07Z</time>
      </trkpt>
      <trkpt lat="44.89891" lon="5.89927">
        <ele>792.2</ele>
        <time>2022-07-16T05:07:08Z</time>
      </trkpt>
      <trkpt lat="44.89888" lon="5.8992">
        <ele>792.1</ele>
        <time>2022-07-16T05:07:09Z</time>
      </trkpt>
      <trkpt lat="44.89886" lon="5.89913">
        <ele>792</ele>
        <time>2022-07-16T05:07:10Z</time>
      </trkpt>
      <trkpt lat="44.89884" lon="5.89907">
        <ele>792</ele>
        <time>2022-07-16T05:07:11Z</time>
      </trkpt>
      <trkpt lat="44.89882" lon="5.899">
        <ele>792</ele>
        <time>2022-07-16T05:07:12Z</time>
      </trkpt>
      <trkpt lat="44.89879" lon="5.89892">
        <ele>791.8</ele>
        <time>2022-07-16T05:07:13Z</time>
      </trkpt>
      <trkpt lat="44.89877" lon="5.89885">
        <ele>791.7</ele>
        <time>2022-07-16T05:07:14Z</time>
      </trkpt>
      <trkpt lat="44.89876" lon="5.89877">
        <ele>791.6</ele>
        <time>2022-07-16T05:07:15Z</time>
      </trkpt>
      <trkpt lat="44.89874" lon="5.8987">
        <ele>791.5</ele>
        <time>2022-07-16T05:07:16Z</time>
      </trkpt>
      <trkpt lat="44.89871" lon="5.89863">
        <ele>791.4</ele>
        <time>2022-07-16T05:07:17Z</time>
      </trkpt>
      <trkpt lat="44.89869" lon="5.89855">
        <ele>791.3</ele>
        <time>2022-07-16T05:07:18Z</time>
      </trkpt>
      <trkpt lat="44.89866" lon="5.89848">
        <ele>791.1</ele>
        <time>2022-07-16T05:07:19Z</time>
      </trkpt>
      <trkpt lat="44.89864" lon="5.8984">
        <ele>791</ele>
        <time>2022-07-16T05:07:20Z</time>
      </trkpt>
      <trkpt lat="44.89861" lon="5.89832">
        <ele>790.8</ele>
        <time>2022-07-16T05:07:21Z</time>
      </trkpt>
      <trkpt lat="44.89858" lon="5.89825">
        <ele>790.7</ele>
        <time>2022-07-16T05:07:22Z</time>
      </trkpt>
      <trkpt lat="44.89856" lon="5.89817">
        <ele>790.6</ele>
        <time>2022-07-16T05:07:23Z</time>
      </trkpt>
      <trkpt lat="44.89853" lon="5.89809">
        <ele>790.5</ele>
        <time>2022-07-16T05:07:24Z</time>
      </trkpt>
      <trkpt lat="44.8985" lon="5.89801">
        <ele>790.3</ele>
        <time>2022-07-16T05:07:25Z</time>
      </trkpt>
      <trkpt lat="44.89847" lon="5.89793">
        <ele>790.2</ele>
        <time>2022-07-16T05:07:26Z</time>
      </trkpt>
      <trkpt lat="44.89845" lon="5.89785">
        <ele>790</ele>
        <time>2022-07-16T05:07:27Z</time>
      </trkpt>
      <trkpt lat="44.89842" lon="5.89778">
        <ele>789.9</ele>
        <time>2022-07-16T05:07:28Z</time>
      </trkpt>
      <trkpt lat="44.8984" lon="5.8977">
        <ele>789.7</ele>
        <time>2022-07-16T05:07:29Z</time>
      </trkpt>
      <trkpt lat="44.89837" lon="5.89761">
        <ele>789.5</ele>
        <time>2022-07-16T05:07:30Z</time>
      </trkpt>
      <trkpt lat="44.89834" lon="5.89754">
        <ele>789.4</ele>
        <time>2022-07-16T05:07:31Z</time>
      </trkpt>
      <trkpt lat="44.89831" lon="5.89746">
        <ele>789.2</ele>
        <time>2022-07-16T05:07:32Z</time>
      </trkpt>
      <trkpt lat="44.89827" lon="5.89737">
        <ele>789</ele>
        <time>2022-07-16T05:07:33Z</time>
      </trkpt>
      <trkpt lat="44.89824" lon="5.89728">
        <ele>788.8</ele>
        <time>2022-07-16T05:07:34Z</time>
      </trkpt>
      <trkpt lat="44.89822" lon="5.8972">
        <ele>788.6</ele>
        <time>2022-07-16T05:07:35Z</time>
      </trkpt>
      <trkpt lat="44.89819" lon="5.89712">
        <ele>788.4</ele>
        <time>2022-07-16T05:07:36Z</time>
      </trkpt>
      <trkpt lat="44.89815" lon="5.89704">
        <ele>788.2</ele>
        <time>2022-07-16T05:07:37Z</time>
      </trkpt>
      <trkpt lat="44.89813" lon="5.89696">
        <ele>788</ele>
        <time>2022-07-16T05:07:38Z</time>
      </trkpt>
      <trkpt lat="44.8981" lon="5.89688">
        <ele>787.8</ele>
        <time>2022-07-16T05:07:39Z</time>
      </trkpt>
      <trkpt lat="44.89806" lon="5.8968">
        <ele>787.5</ele>
        <time>2022-07-16T05:07:40Z</time>
      </trkpt>
      <trkpt lat="44.89803" lon="5.89672">
        <ele>787.3</ele>
        <time>2022-07-16T05:07:41Z</time>
      </trkpt>
      <trkpt lat="44.89799" lon="5.89663">
        <ele>787.1</ele>
        <time>2022-07-16T05:07:42Z</time>
      </trkpt>
      <trkpt lat="44.89795" lon="5.89654">
        <ele>787</ele>
        <time>2022-07-16T05:07:43Z</time>
      </trkpt>
      <trkpt lat="44.89791" lon="5.89645">
        <ele>786.7</ele>
        <time>2022-07-16T05:07:44Z</time>
      </trkpt>
      <trkpt lat="44.89786" lon="5.89636">
        <ele>786.6</ele>
        <time>2022-07-16T05:07:45Z</time>
      </trkpt>
      <trkpt lat="44.89782" lon="5.89628">
        <ele>786.4</ele>
        <time>2022-07-16T05:07:46Z</time>
      </trkpt>
      <trkpt lat="44.89776" lon="5.8962">
        <ele>786.1</ele>
        <time>2022-07-16T05:07:47Z</time>
      </trkpt>
      <trkpt lat="44.89771" lon="5.89611">
        <ele>785.9</ele>
        <time>2022-07-16T05:07:48Z</time>
      </trkpt>
      <trkpt lat="44.89765" lon="5.89602">
        <ele>785.4</ele>
        <time>2022-07-16T05:07:49Z</time>
      </trkpt>
      <trkpt lat="44.89759" lon="5.89593">
        <ele>785</ele>
        <time>2022-07-16T05:07:50Z</time>
      </trkpt>
      <trkpt lat="44.89753" lon="5.89585">
        <ele>784.5</ele>
        <time>2022-07-16T05:07:51Z</time>
      </trkpt>
      <trkpt lat="44.89747" lon="5.89577">
        <ele>784.1</ele>
        <time>2022-07-16T05:07:52Z</time>
      </trkpt>
      <trkpt lat="44.89741" lon="5.8957">
        <ele>783.7</ele>
        <time>2022-07-16T05:07:53Z</time>
      </trkpt>
      <trkpt lat="44.89736" lon="5.89562">
        <ele>783.3</ele>
        <time>2022-07-16T05:07:54Z</time>
      </trkpt>
      <trkpt lat="44.89729" lon="5.89554">
        <ele>782.9</ele>
        <time>2022-07-16T05:07:55Z</time>
      </trkpt>
      <trkpt lat="44.89723" lon="5.89547">
        <ele>782.5</ele>
        <time>2022-07-16T05:07:56Z</time>
      </trkpt>
      <trkpt lat="44.89717" lon="5.89539">
        <ele>782.2</ele>
        <time>2022-07-16T05:07:57Z</time>
      </trkpt>
      <trkpt lat="44.89711" lon="5.89532">
        <ele>781.8</ele>
        <time>2022-07-16T05:07:58Z</time>
      </trkpt>
      <trkpt lat="44.89706" lon="5.89524">
        <ele>781.4</ele>
        <time>2022-07-16T05:07:59Z</time>
      </trkpt>
      <trkpt lat="44.89699" lon="5.89515">
        <ele>781</ele>
        <time>2022-07-16T05:08:00Z</time>
      </trkpt>
      <trkpt lat="44.89693" lon="5.89506">
        <ele>780.5</ele>
        <time>2022-07-16T05:08:01Z</time>
      </trkpt>
      <trkpt lat="44.89686" lon="5.89496">
        <ele>779.9</ele>
        <time>2022-07-16T05:08:02Z</time>
      </trkpt>
      <trkpt lat="44.89681" lon="5.89485">
        <ele>779.3</ele>
        <time>2022-07-16T05:08:03Z</time>
      </trkpt>
      <trkpt lat="44.89677" lon="5.89475">
        <ele>778.6</ele>
        <time>2022-07-16T05:08:04Z</time>
      </trkpt>
      <trkpt lat="44.89672" lon="5.89463">
        <ele>777.9</ele>
        <time>2022-07-16T05:08:05Z</time>
      </trkpt>
      <trkpt lat="44.89669" lon="5.89451">
        <ele>777.1</ele>
        <time>2022-07-16T05:08:06Z</time>
      </trkpt>
      <trkpt lat="44.89665" lon="5.89438">
        <ele>776.5</ele>
        <time>2022-07-16T05:08:07Z</time>
      </trkpt>
      <trkpt lat="44.89663" lon="5.89425">
        <ele>775.9</ele>
        <time>2022-07-16T05:08:08Z</time>
      </trkpt>
      <trkpt lat="44.8966" lon="5.89412">
        <ele>775.2</ele>
        <time>2022-07-16T05:08:09Z</time>
      </trkpt>
      <trkpt lat="44.89657" lon="5.89398">
        <ele>774.6</ele>
        <time>2022-07-16T05:08:10Z</time>
      </trkpt>
      <trkpt lat="44.89653" lon="5.89384">
        <ele>773.9</ele>
        <time>2022-07-16T05:08:11Z</time>
      </trkpt>
      <trkpt lat="44.89649" lon="5.8937">
        <ele>773.2</ele>
        <time>2022-07-16T05:08:12Z</time>
      </trkpt>
      <trkpt lat="44.89645" lon="5.89355">
        <ele>772.5</ele>
        <time>2022-07-16T05:08:13Z</time>
      </trkpt>
      <trkpt lat="44.89641" lon="5.89341">
        <ele>771.8</ele>
        <time>2022-07-16T05:08:14Z</time>
      </trkpt>
      <trkpt lat="44.89636" lon="5.89326">
        <ele>771.3</ele>
        <time>2022-07-16T05:08:15Z</time>
      </trkpt>
      <trkpt lat="44.89632" lon="5.89311">
        <ele>770.4</ele>
        <time>2022-07-16T05:08:16Z</time>
      </trkpt>
      <trkpt lat="44.89627" lon="5.89296">
        <ele>769.4</ele>
        <time>2022-07-16T05:08:17Z</time>
      </trkpt>
      <trkpt lat="44.89623" lon="5.8928">
        <ele>768.4</ele>
        <time>2022-07-16T05:08:18Z</time>
      </trkpt>
      <trkpt lat="44.89618" lon="5.89266">
        <ele>767.5</ele>
        <time>2022-07-16T05:08:19Z</time>
      </trkpt>
      <trkpt lat="44.89613" lon="5.8925">
        <ele>766.5</ele>
        <time>2022-07-16T05:08:20Z</time>
      </trkpt>
      <trkpt lat="44.89607" lon="5.89235">
        <ele>765.5</ele>
        <time>2022-07-16T05:08:21Z</time>
      </trkpt>
      <trkpt lat="44.89601" lon="5.89221">
        <ele>764.5</ele>
        <time>2022-07-16T05:08:22Z</time>
      </trkpt>
      <trkpt lat="44.89595" lon="5.89207">
        <ele>763.6</ele>
        <time>2022-07-16T05:08:23Z</time>
      </trkpt>
      <trkpt lat="44.89589" lon="5.89192">
        <ele>762.6</ele>
        <time>2022-07-16T05:08:24Z</time>
      </trkpt>
      <trkpt lat="44.89583" lon="5.89178">
        <ele>761.7</ele>
        <time>2022-07-16T05:08:25Z</time>
      </trkpt>
      <trkpt lat="44.89577" lon="5.89163">
        <ele>760.7</ele>
        <time>2022-07-16T05:08:26Z</time>
      </trkpt>
      <trkpt lat="44.89571" lon="5.89149">
        <ele>759.8</ele>
        <time>2022-07-16T05:08:27Z</time>
      </trkpt>
      <trkpt lat="44.89565" lon="5.89134">
        <ele>758.9</ele>
        <time>2022-07-16T05:08:28Z</time>
      </trkpt>
      <trkpt lat="44.89559" lon="5.89119">
        <ele>758</ele>
        <time>2022-07-16T05:08:29Z</time>
      </trkpt>
      <trkpt lat="44.89553" lon="5.89104">
        <ele>757.2</ele>
        <time>2022-07-16T05:08:30Z</time>
      </trkpt>
      <trkpt lat="44.89547" lon="5.8909">
        <ele>756.3</ele>
        <time>2022-07-16T05:08:31Z</time>
      </trkpt>
      <trkpt lat="44.89541" lon="5.89075">
        <ele>755.5</ele>
        <time>2022-07-16T05:08:32Z</time>
      </trkpt>
      <trkpt lat="44.89535" lon="5.89059">
        <ele>754.6</ele>
        <time>2022-07-16T05:08:33Z</time>
      </trkpt>
      <trkpt lat="44.89529" lon="5.89044">
        <ele>753.7</ele>
        <time>2022-07-16T05:08:34Z</time>
      </trkpt>
      <trkpt lat="44.89523" lon="5.89029">
        <ele>752.8</ele>
        <time>2022-07-16T05:08:35Z</time>
      </trkpt>
      <trkpt lat="44.89516" lon="5.89014">
        <ele>751.8</ele>
        <time>2022-07-16T05:08:36Z</time>
      </trkpt>
      <trkpt lat="44.89511" lon="5.89001">
        <ele>751</ele>
        <time>2022-07-16T05:08:37Z</time>
      </trkpt>
      <trkpt lat="44.89505" lon="5.88986">
        <ele>750.1</ele>
        <time>2022-07-16T05:08:38Z</time>
      </trkpt>
      <trkpt lat="44.89498" lon="5.88971">
        <ele>749.2</ele>
        <time>2022-07-16T05:08:39Z</time>
      </trkpt>
      <trkpt lat="44.89492" lon="5.88956">
        <ele>748.3</ele>
        <time>2022-07-16T05:08:40Z</time>
      </trkpt>
      <trkpt lat="44.89486" lon="5.88941">
        <ele>747.4</ele>
        <time>2022-07-16T05:08:41Z</time>
      </trkpt>
      <trkpt lat="44.8948" lon="5.88926">
        <ele>746.5</ele>
        <time>2022-07-16T05:08:42Z</time>
      </trkpt>
      <trkpt lat="44.89474" lon="5.88912">
        <ele>745.7</ele>
        <time>2022-07-16T05:08:43Z</time>
      </trkpt>
      <trkpt lat="44.89467" lon="5.88897">
        <ele>744.8</ele>
        <time>2022-07-16T05:08:44Z</time>
      </trkpt>
      <trkpt lat="44.89461" lon="5.88883">
        <ele>744</ele>
        <time>2022-07-16T05:08:45Z</time>
      </trkpt>
      <trkpt lat="44.89455" lon="5.88869">
        <ele>743.2</ele>
        <time>2022-07-16T05:08:46Z</time>
      </trkpt>
      <trkpt lat="44.89448" lon="5.88854">
        <ele>742.3</ele>
        <time>2022-07-16T05:08:47Z</time>
      </trkpt>
      <trkpt lat="44.89442" lon="5.8884">
        <ele>741.5</ele>
        <time>2022-07-16T05:08:48Z</time>
      </trkpt>
      <trkpt lat="44.89436" lon="5.88827">
        <ele>740.8</ele>
        <time>2022-07-16T05:08:49Z</time>
      </trkpt>
      <trkpt lat="44.8943" lon="5.88813">
        <ele>740</ele>
        <time>2022-07-16T05:08:50Z</time>
      </trkpt>
      <trkpt lat="44.89425" lon="5.888">
        <ele>739.3</ele>
        <time>2022-07-16T05:08:51Z</time>
      </trkpt>
      <trkpt lat="44.8942" lon="5.88787">
        <ele>738.6</ele>
        <time>2022-07-16T05:08:52Z</time>
      </trkpt>
      <trkpt lat="44.89414" lon="5.88773">
        <ele>737.9</ele>
        <time>2022-07-16T05:08:53Z</time>
      </trkpt>
      <trkpt lat="44.89408" lon="5.8876">
        <ele>737.2</ele>
        <time>2022-07-16T05:08:54Z</time>
      </trkpt>
      <trkpt lat="44.89401" lon="5.88746">
        <ele>736.5</ele>
        <time>2022-07-16T05:08:55Z</time>
      </trkpt>
      <trkpt lat="44.89396" lon="5.88732">
        <ele>735.8</ele>
        <time>2022-07-16T05:08:56Z</time>
      </trkpt>
      <trkpt lat="44.8939" lon="5.88719">
        <ele>735.1</ele>
        <time>2022-07-16T05:08:57Z</time>
      </trkpt>
      <trkpt lat="44.89384" lon="5.88706">
        <ele>734.4</ele>
        <time>2022-07-16T05:08:58Z</time>
      </trkpt>
      <trkpt lat="44.89379" lon="5.88692">
        <ele>733.7</ele>
        <time>2022-07-16T05:08:59Z</time>
      </trkpt>
      <trkpt lat="44.89373" lon="5.88678">
        <ele>733</ele>
        <time>2022-07-16T05:09:00Z</time>
      </trkpt>
      <trkpt lat="44.89367" lon="5.88665">
        <ele>732.3</ele>
        <time>2022-07-16T05:09:01Z</time>
      </trkpt>
      <trkpt lat="44.89362" lon="5.88651">
        <ele>731.5</ele>
        <time>2022-07-16T05:09:02Z</time>
      </trkpt>
      <trkpt lat="44.89356" lon="5.88637">
        <ele>730.7</ele>
        <time>2022-07-16T05:09:03Z</time>
      </trkpt>
      <trkpt lat="44.89351" lon="5.88624">
        <ele>729.9</ele>
        <time>2022-07-16T05:09:04Z</time>
      </trkpt>
      <trkpt lat="44.89345" lon="5.8861">
        <ele>729.1</ele>
        <time>2022-07-16T05:09:05Z</time>
      </trkpt>
      <trkpt lat="44.89339" lon="5.88596">
        <ele>728.3</ele>
        <time>2022-07-16T05:09:06Z</time>
      </trkpt>
      <trkpt lat="44.89334" lon="5.88582">
        <ele>727.4</ele>
        <time>2022-07-16T05:09:07Z</time>
      </trkpt>
      <trkpt lat="44.89328" lon="5.88568">
        <ele>726.7</ele>
        <time>2022-07-16T05:09:08Z</time>
      </trkpt>
      <trkpt lat="44.89323" lon="5.88554">
        <ele>725.9</ele>
        <time>2022-07-16T05:09:09Z</time>
      </trkpt>
      <trkpt lat="44.89317" lon="5.88541">
        <ele>725.1</ele>
        <time>2022-07-16T05:09:10Z</time>
      </trkpt>
      <trkpt lat="44.89311" lon="5.88528">
        <ele>724.4</ele>
        <time>2022-07-16T05:09:11Z</time>
      </trkpt>
      <trkpt lat="44.89306" lon="5.88514">
        <ele>723.7</ele>
        <time>2022-07-16T05:09:12Z</time>
      </trkpt>
      <trkpt lat="44.893" lon="5.885">
        <ele>722.9</ele>
        <time>2022-07-16T05:09:13Z</time>
      </trkpt>
      <trkpt lat="44.89295" lon="5.88486">
        <ele>722.1</ele>
        <time>2022-07-16T05:09:14Z</time>
      </trkpt>
      <trkpt lat="44.8929" lon="5.88471">
        <ele>721.3</ele>
        <time>2022-07-16T05:09:15Z</time>
      </trkpt>
      <trkpt lat="44.89287" lon="5.88455">
        <ele>720.5</ele>
        <time>2022-07-16T05:09:16Z</time>
      </trkpt>
      <trkpt lat="44.89283" lon="5.88439">
        <ele>719.8</ele>
        <time>2022-07-16T05:09:17Z</time>
      </trkpt>
      <trkpt lat="44.8928" lon="5.88423">
        <ele>719</ele>
        <time>2022-07-16T05:09:18Z</time>
      </trkpt>
      <trkpt lat="44.89276" lon="5.88407">
        <ele>718.3</ele>
        <time>2022-07-16T05:09:19Z</time>
      </trkpt>
      <trkpt lat="44.89272" lon="5.88392">
        <ele>717.7</ele>
        <time>2022-07-16T05:09:20Z</time>
      </trkpt>
      <trkpt lat="44.89268" lon="5.88377">
        <ele>717.2</ele>
        <time>2022-07-16T05:09:21Z</time>
      </trkpt>
      <trkpt lat="44.89263" lon="5.88363">
        <ele>716.7</ele>
        <time>2022-07-16T05:09:22Z</time>
      </trkpt>
      <trkpt lat="44.89257" lon="5.8835">
        <ele>716.3</ele>
        <time>2022-07-16T05:09:23Z</time>
      </trkpt>
      <trkpt lat="44.89251" lon="5.88338">
        <ele>715.8</ele>
        <time>2022-07-16T05:09:24Z</time>
      </trkpt>
      <trkpt lat="44.89245" lon="5.88327">
        <ele>715.2</ele>
        <time>2022-07-16T05:09:25Z</time>
      </trkpt>
      <trkpt lat="44.8924" lon="5.88316">
        <ele>714.7</ele>
        <time>2022-07-16T05:09:26Z</time>
      </trkpt>
      <trkpt lat="44.89234" lon="5.88306">
        <ele>714</ele>
        <time>2022-07-16T05:09:27Z</time>
      </trkpt>
      <trkpt lat="44.89228" lon="5.88295">
        <ele>713.4</ele>
        <time>2022-07-16T05:09:28Z</time>
      </trkpt>
      <trkpt lat="44.89221" lon="5.88285">
        <ele>712.6</ele>
        <time>2022-07-16T05:09:29Z</time>
      </trkpt>
      <trkpt lat="44.89212" lon="5.88274">
        <ele>711.7</ele>
        <time>2022-07-16T05:09:30Z</time>
      </trkpt>
      <trkpt lat="44.89204" lon="5.88262">
        <ele>710.8</ele>
        <time>2022-07-16T05:09:31Z</time>
      </trkpt>
      <trkpt lat="44.89196" lon="5.88251">
        <ele>709.8</ele>
        <time>2022-07-16T05:09:32Z</time>
      </trkpt>
      <trkpt lat="44.89189" lon="5.88238">
        <ele>708.9</ele>
        <time>2022-07-16T05:09:33Z</time>
      </trkpt>
      <trkpt lat="44.89184" lon="5.88225">
        <ele>708</ele>
        <time>2022-07-16T05:09:34Z</time>
      </trkpt>
      <trkpt lat="44.8918" lon="5.8821">
        <ele>707.1</ele>
        <time>2022-07-16T05:09:35Z</time>
      </trkpt>
      <trkpt lat="44.89177" lon="5.88194">
        <ele>706.1</ele>
        <time>2022-07-16T05:09:36Z</time>
      </trkpt>
      <trkpt lat="44.89176" lon="5.88177">
        <ele>705.1</ele>
        <time>2022-07-16T05:09:37Z</time>
      </trkpt>
      <trkpt lat="44.89177" lon="5.88162">
        <ele>704.2</ele>
        <time>2022-07-16T05:09:38Z</time>
      </trkpt>
      <trkpt lat="44.89179" lon="5.88146">
        <ele>703.4</ele>
        <time>2022-07-16T05:09:39Z</time>
      </trkpt>
      <trkpt lat="44.8918" lon="5.8813">
        <ele>702.6</ele>
        <time>2022-07-16T05:09:40Z</time>
      </trkpt>
      <trkpt lat="44.89181" lon="5.88114">
        <ele>701.8</ele>
        <time>2022-07-16T05:09:41Z</time>
      </trkpt>
      <trkpt lat="44.89183" lon="5.88098">
        <ele>701.1</ele>
        <time>2022-07-16T05:09:42Z</time>
      </trkpt>
      <trkpt lat="44.89184" lon="5.88083">
        <ele>700.4</ele>
        <time>2022-07-16T05:09:43Z</time>
      </trkpt>
      <trkpt lat="44.89186" lon="5.88067">
        <ele>699.7</ele>
        <time>2022-07-16T05:09:44Z</time>
      </trkpt>
      <trkpt lat="44.89187" lon="5.88052">
        <ele>699.1</ele>
        <time>2022-07-16T05:09:45Z</time>
      </trkpt>
      <trkpt lat="44.89188" lon="5.88036">
        <ele>698.5</ele>
        <time>2022-07-16T05:09:46Z</time>
      </trkpt>
      <trkpt lat="44.89188" lon="5.88021">
        <ele>698.1</ele>
        <time>2022-07-16T05:09:47Z</time>
      </trkpt>
      <trkpt lat="44.89188" lon="5.88007">
        <ele>697.7</ele>
        <time>2022-07-16T05:09:48Z</time>
      </trkpt>
      <trkpt lat="44.89188" lon="5.87991">
        <ele>697.4</ele>
        <time>2022-07-16T05:09:49Z</time>
      </trkpt>
      <trkpt lat="44.89188" lon="5.87976">
        <ele>697.1</ele>
        <time>2022-07-16T05:09:50Z</time>
      </trkpt>
      <trkpt lat="44.89188" lon="5.87962">
        <ele>696.9</ele>
        <time>2022-07-16T05:09:51Z</time>
      </trkpt>
      <trkpt lat="44.89187" lon="5.87947">
        <ele>696.8</ele>
        <time>2022-07-16T05:09:52Z</time>
      </trkpt>
      <trkpt lat="44.89187" lon="5.87933">
        <ele>696.7</ele>
        <time>2022-07-16T05:09:53Z</time>
      </trkpt>
      <trkpt lat="44.89187" lon="5.87919">
        <ele>696.7</ele>
        <time>2022-07-16T05:09:54Z</time>
      </trkpt>
      <trkpt lat="44.89186" lon="5.87908">
        <ele>696.8</ele>
        <time>2022-07-16T05:09:55Z</time>
      </trkpt>
      <trkpt lat="44.89185" lon="5.87896">
        <ele>696.8</ele>
        <time>2022-07-16T05:09:56Z</time>
      </trkpt>
      <trkpt lat="44.89184" lon="5.87882">
        <ele>696.8</ele>
        <time>2022-07-16T05:09:57Z</time>
      </trkpt>
      <trkpt lat="44.89183" lon="5.87869">
        <ele>696.8</ele>
        <time>2022-07-16T05:09:58Z</time>
      </trkpt>
      <trkpt lat="44.89182" lon="5.87857">
        <ele>696.7</ele>
        <time>2022-07-16T05:09:59Z</time>
      </trkpt>
      <trkpt lat="44.89181" lon="5.87845">
        <ele>696.6</ele>
        <time>2022-07-16T05:10:00Z</time>
      </trkpt>
      <trkpt lat="44.8918" lon="5.87833">
        <ele>696.6</ele>
        <time>2022-07-16T05:10:01Z</time>
      </trkpt>
      <trkpt lat="44.89178" lon="5.87821">
        <ele>696.5</ele>
        <time>2022-07-16T05:10:02Z</time>
      </trkpt>
      <trkpt lat="44.89176" lon="5.87809">
        <ele>696.3</ele>
        <time>2022-07-16T05:10:03Z</time>
      </trkpt>
      <trkpt lat="44.89173" lon="5.87798">
        <ele>696.1</ele>
        <time>2022-07-16T05:10:04Z</time>
      </trkpt>
      <trkpt lat="44.8917" lon="5.87786">
        <ele>695.9</ele>
        <time>2022-07-16T05:10:05Z</time>
      </trkpt>
      <trkpt lat="44.89167" lon="5.87774">
        <ele>695.7</ele>
        <time>2022-07-16T05:10:06Z</time>
      </trkpt>
      <trkpt lat="44.89165" lon="5.87762">
        <ele>695.5</ele>
        <time>2022-07-16T05:10:07Z</time>
      </trkpt>
      <trkpt lat="44.89163" lon="5.8775">
        <ele>695.2</ele>
        <time>2022-07-16T05:10:08Z</time>
      </trkpt>
      <trkpt lat="44.8916" lon="5.87739">
        <ele>695</ele>
        <time>2022-07-16T05:10:09Z</time>
      </trkpt>
      <trkpt lat="44.89157" lon="5.87727">
        <ele>694.7</ele>
        <time>2022-07-16T05:10:10Z</time>
      </trkpt>
      <trkpt lat="44.89155" lon="5.87715">
        <ele>694.4</ele>
        <time>2022-07-16T05:10:11Z</time>
      </trkpt>
      <trkpt lat="44.89154" lon="5.87703">
        <ele>694.1</ele>
        <time>2022-07-16T05:10:12Z</time>
      </trkpt>
      <trkpt lat="44.89152" lon="5.87691">
        <ele>693.8</ele>
        <time>2022-07-16T05:10:13Z</time>
      </trkpt>
      <trkpt lat="44.89149" lon="5.8768">
        <ele>693.5</ele>
        <time>2022-07-16T05:10:14Z</time>
      </trkpt>
      <trkpt lat="44.89147" lon="5.87668">
        <ele>693.2</ele>
        <time>2022-07-16T05:10:15Z</time>
      </trkpt>
      <trkpt lat="44.89146" lon="5.87657">
        <ele>693</ele>
        <time>2022-07-16T05:10:16Z</time>
      </trkpt>
      <trkpt lat="44.89145" lon="5.87645">
        <ele>692.7</ele>
        <time>2022-07-16T05:10:17Z</time>
      </trkpt>
      <trkpt lat="44.89145" lon="5.87633">
        <ele>692.5</ele>
        <time>2022-07-16T05:10:18Z</time>
      </trkpt>
      <trkpt lat="44.89144" lon="5.8762">
        <ele>692.2</ele>
        <time>2022-07-16T05:10:19Z</time>
      </trkpt>
      <trkpt lat="44.89144" lon="5.87607">
        <ele>692</ele>
        <time>2022-07-16T05:10:20Z</time>
      </trkpt>
      <trkpt lat="44.89143" lon="5.87595">
        <ele>691.9</ele>
        <time>2022-07-16T05:10:21Z</time>
      </trkpt>
      <trkpt lat="44.89143" lon="5.87583">
        <ele>691.7</ele>
        <time>2022-07-16T05:10:22Z</time>
      </trkpt>
      <trkpt lat="44.89143" lon="5.87571">
        <ele>691.6</ele>
        <time>2022-07-16T05:10:23Z</time>
      </trkpt>
      <trkpt lat="44.89143" lon="5.8756">
        <ele>691.5</ele>
        <time>2022-07-16T05:10:24Z</time>
      </trkpt>
      <trkpt lat="44.89142" lon="5.87548">
        <ele>691.3</ele>
        <time>2022-07-16T05:10:25Z</time>
      </trkpt>
      <trkpt lat="44.89142" lon="5.87536">
        <ele>691.2</ele>
        <time>2022-07-16T05:10:26Z</time>
      </trkpt>
      <trkpt lat="44.89141" lon="5.87525">
        <ele>691.1</ele>
        <time>2022-07-16T05:10:27Z</time>
      </trkpt>
      <trkpt lat="44.89142" lon="5.87513">
        <ele>691</ele>
        <time>2022-07-16T05:10:28Z</time>
      </trkpt>
      <trkpt lat="44.89144" lon="5.87501">
        <ele>690.9</ele>
        <time>2022-07-16T05:10:29Z</time>
      </trkpt>
      <trkpt lat="44.89147" lon="5.8749">
        <ele>690.8</ele>
        <time>2022-07-16T05:10:30Z</time>
      </trkpt>
      <trkpt lat="44.8915" lon="5.87479">
        <ele>690.7</ele>
        <time>2022-07-16T05:10:31Z</time>
      </trkpt>
      <trkpt lat="44.89156" lon="5.87468">
        <ele>690.6</ele>
        <time>2022-07-16T05:10:32Z</time>
      </trkpt>
      <trkpt lat="44.89161" lon="5.87459">
        <ele>690.4</ele>
        <time>2022-07-16T05:10:33Z</time>
      </trkpt>
      <trkpt lat="44.89167" lon="5.8745">
        <ele>690.3</ele>
        <time>2022-07-16T05:10:34Z</time>
      </trkpt>
      <trkpt lat="44.89174" lon="5.87442">
        <ele>690.2</ele>
        <time>2022-07-16T05:10:35Z</time>
      </trkpt>
      <trkpt lat="44.89181" lon="5.87435">
        <ele>690.1</ele>
        <time>2022-07-16T05:10:36Z</time>
      </trkpt>
      <trkpt lat="44.89187" lon="5.87427">
        <ele>690</ele>
        <time>2022-07-16T05:10:37Z</time>
      </trkpt>
      <trkpt lat="44.89194" lon="5.8742">
        <ele>690</ele>
        <time>2022-07-16T05:10:38Z</time>
      </trkpt>
      <trkpt lat="44.89201" lon="5.87413">
        <ele>689.9</ele>
        <time>2022-07-16T05:10:39Z</time>
      </trkpt>
      <trkpt lat="44.89208" lon="5.87406">
        <ele>689.8</ele>
        <time>2022-07-16T05:10:40Z</time>
      </trkpt>
      <trkpt lat="44.89214" lon="5.87399">
        <ele>689.7</ele>
        <time>2022-07-16T05:10:41Z</time>
      </trkpt>
      <trkpt lat="44.89221" lon="5.87392">
        <ele>689.6</ele>
        <time>2022-07-16T05:10:42Z</time>
      </trkpt>
      <trkpt lat="44.89227" lon="5.87385">
        <ele>689.5</ele>
        <time>2022-07-16T05:10:43Z</time>
      </trkpt>
      <trkpt lat="44.89233" lon="5.87378">
        <ele>689.4</ele>
        <time>2022-07-16T05:10:44Z</time>
      </trkpt>
      <trkpt lat="44.89239" lon="5.87371">
        <ele>689.3</ele>
        <time>2022-07-16T05:10:45Z</time>
      </trkpt>
      <trkpt lat="44.89244" lon="5.87363">
        <ele>689.2</ele>
        <time>2022-07-16T05:10:46Z</time>
      </trkpt>
      <trkpt lat="44.89249" lon="5.87355">
        <ele>689.1</ele>
        <time>2022-07-16T05:10:47Z</time>
      </trkpt>
      <trkpt lat="44.89254" lon="5.87347">
        <ele>689</ele>
        <time>2022-07-16T05:10:48Z</time>
      </trkpt>
      <trkpt lat="44.89258" lon="5.87338">
        <ele>688.9</ele>
        <time>2022-07-16T05:10:49Z</time>
      </trkpt>
      <trkpt lat="44.89262" lon="5.87329">
        <ele>688.8</ele>
        <time>2022-07-16T05:10:50Z</time>
      </trkpt>
      <trkpt lat="44.89266" lon="5.8732">
        <ele>688.6</ele>
        <time>2022-07-16T05:10:51Z</time>
      </trkpt>
      <trkpt lat="44.8927" lon="5.8731">
        <ele>688.5</ele>
        <time>2022-07-16T05:10:52Z</time>
      </trkpt>
      <trkpt lat="44.89272" lon="5.873">
        <ele>688.4</ele>
        <time>2022-07-16T05:10:53Z</time>
      </trkpt>
      <trkpt lat="44.89273" lon="5.8729">
        <ele>688.3</ele>
        <time>2022-07-16T05:10:54Z</time>
      </trkpt>
      <trkpt lat="44.89275" lon="5.8728">
        <ele>688.1</ele>
        <time>2022-07-16T05:10:55Z</time>
      </trkpt>
      <trkpt lat="44.89278" lon="5.8727">
        <ele>687.9</ele>
        <time>2022-07-16T05:10:56Z</time>
      </trkpt>
      <trkpt lat="44.89282" lon="5.8726">
        <ele>687.7</ele>
        <time>2022-07-16T05:10:57Z</time>
      </trkpt>
      <trkpt lat="44.89285" lon="5.87249">
        <ele>687.5</ele>
        <time>2022-07-16T05:10:58Z</time>
      </trkpt>
      <trkpt lat="44.89288" lon="5.87238">
        <ele>687.2</ele>
        <time>2022-07-16T05:10:59Z</time>
      </trkpt>
      <trkpt lat="44.89292" lon="5.87228">
        <ele>686.9</ele>
        <time>2022-07-16T05:11:00Z</time>
      </trkpt>
      <trkpt lat="44.89295" lon="5.87217">
        <ele>686.6</ele>
        <time>2022-07-16T05:11:01Z</time>
      </trkpt>
      <trkpt lat="44.89298" lon="5.87206">
        <ele>686.3</ele>
        <time>2022-07-16T05:11:02Z</time>
      </trkpt>
      <trkpt lat="44.89301" lon="5.87196">
        <ele>686</ele>
        <time>2022-07-16T05:11:03Z</time>
      </trkpt>
      <trkpt lat="44.89304" lon="5.87185">
        <ele>685.6</ele>
        <time>2022-07-16T05:11:04Z</time>
      </trkpt>
      <trkpt lat="44.89308" lon="5.87174">
        <ele>685.3</ele>
        <time>2022-07-16T05:11:05Z</time>
      </trkpt>
      <trkpt lat="44.89311" lon="5.87163">
        <ele>684.9</ele>
        <time>2022-07-16T05:11:06Z</time>
      </trkpt>
      <trkpt lat="44.89314" lon="5.87151">
        <ele>684.6</ele>
        <time>2022-07-16T05:11:07Z</time>
      </trkpt>
      <trkpt lat="44.89318" lon="5.8714">
        <ele>684.2</ele>
        <time>2022-07-16T05:11:08Z</time>
      </trkpt>
      <trkpt lat="44.89322" lon="5.87129">
        <ele>683.8</ele>
        <time>2022-07-16T05:11:09Z</time>
      </trkpt>
      <trkpt lat="44.89326" lon="5.87116">
        <ele>683.3</ele>
        <time>2022-07-16T05:11:10Z</time>
      </trkpt>
      <trkpt lat="44.8933" lon="5.87104">
        <ele>682.9</ele>
        <time>2022-07-16T05:11:11Z</time>
      </trkpt>
      <trkpt lat="44.89335" lon="5.87094">
        <ele>682.5</ele>
        <time>2022-07-16T05:11:12Z</time>
      </trkpt>
      <trkpt lat="44.89341" lon="5.87084">
        <ele>682.2</ele>
        <time>2022-07-16T05:11:13Z</time>
      </trkpt>
      <trkpt lat="44.89348" lon="5.87076">
        <ele>681.8</ele>
        <time>2022-07-16T05:11:14Z</time>
      </trkpt>
      <trkpt lat="44.89355" lon="5.87069">
        <ele>681.5</ele>
        <time>2022-07-16T05:11:15Z</time>
      </trkpt>
      <trkpt lat="44.89362" lon="5.87062">
        <ele>681.1</ele>
        <time>2022-07-16T05:11:16Z</time>
      </trkpt>
      <trkpt lat="44.8937" lon="5.87055">
        <ele>680.8</ele>
        <time>2022-07-16T05:11:17Z</time>
      </trkpt>
      <trkpt lat="44.89377" lon="5.87048">
        <ele>680.5</ele>
        <time>2022-07-16T05:11:18Z</time>
      </trkpt>
      <trkpt lat="44.89384" lon="5.87042">
        <ele>680.1</ele>
        <time>2022-07-16T05:11:19Z</time>
      </trkpt>
      <trkpt lat="44.89392" lon="5.87035">
        <ele>679.8</ele>
        <time>2022-07-16T05:11:20Z</time>
      </trkpt>
      <trkpt lat="44.89399" lon="5.87028">
        <ele>679.5</ele>
        <time>2022-07-16T05:11:21Z</time>
      </trkpt>
      <trkpt lat="44.89406" lon="5.8702">
        <ele>679.2</ele>
        <time>2022-07-16T05:11:22Z</time>
      </trkpt>
      <trkpt lat="44.89413" lon="5.87012">
        <ele>679</ele>
        <time>2022-07-16T05:11:23Z</time>
      </trkpt>
      <trkpt lat="44.8942" lon="5.87004">
        <ele>678.7</ele>
        <time>2022-07-16T05:11:24Z</time>
      </trkpt>
      <trkpt lat="44.89426" lon="5.86996">
        <ele>678.5</ele>
        <time>2022-07-16T05:11:25Z</time>
      </trkpt>
      <trkpt lat="44.89431" lon="5.86987">
        <ele>678.3</ele>
        <time>2022-07-16T05:11:26Z</time>
      </trkpt>
      <trkpt lat="44.89436" lon="5.86978">
        <ele>678.1</ele>
        <time>2022-07-16T05:11:27Z</time>
      </trkpt>
      <trkpt lat="44.89441" lon="5.86969">
        <ele>677.9</ele>
        <time>2022-07-16T05:11:28Z</time>
      </trkpt>
      <trkpt lat="44.89446" lon="5.8696">
        <ele>677.8</ele>
        <time>2022-07-16T05:11:29Z</time>
      </trkpt>
      <trkpt lat="44.89451" lon="5.86951">
        <ele>677.7</ele>
        <time>2022-07-16T05:11:30Z</time>
      </trkpt>
      <trkpt lat="44.89455" lon="5.86941">
        <ele>677.6</ele>
        <time>2022-07-16T05:11:31Z</time>
      </trkpt>
      <trkpt lat="44.89459" lon="5.86932">
        <ele>677.5</ele>
        <time>2022-07-16T05:11:32Z</time>
      </trkpt>
      <trkpt lat="44.89465" lon="5.86923">
        <ele>677.5</ele>
        <time>2022-07-16T05:11:33Z</time>
      </trkpt>
      <trkpt lat="44.89471" lon="5.86916">
        <ele>677.5</ele>
        <time>2022-07-16T05:11:34Z</time>
      </trkpt>
      <trkpt lat="44.89478" lon="5.8691">
        <ele>677.3</ele>
        <time>2022-07-16T05:11:35Z</time>
      </trkpt>
      <trkpt lat="44.89485" lon="5.86906">
        <ele>677.1</ele>
        <time>2022-07-16T05:11:36Z</time>
      </trkpt>
      <trkpt lat="44.89492" lon="5.86901">
        <ele>677</ele>
        <time>2022-07-16T05:11:37Z</time>
      </trkpt>
      <trkpt lat="44.89499" lon="5.86898">
        <ele>676.9</ele>
        <time>2022-07-16T05:11:38Z</time>
      </trkpt>
      <trkpt lat="44.89506" lon="5.86894">
        <ele>676.7</ele>
        <time>2022-07-16T05:11:39Z</time>
      </trkpt>
      <trkpt lat="44.89513" lon="5.8689">
        <ele>676.6</ele>
        <time>2022-07-16T05:11:40Z</time>
      </trkpt>
      <trkpt lat="44.8952" lon="5.86887">
        <ele>676.6</ele>
        <time>2022-07-16T05:11:41Z</time>
      </trkpt>
      <trkpt lat="44.89526" lon="5.86884">
        <ele>676.5</ele>
        <time>2022-07-16T05:11:42Z</time>
      </trkpt>
      <trkpt lat="44.89532" lon="5.8688">
        <ele>676.5</ele>
        <time>2022-07-16T05:11:43Z</time>
      </trkpt>
      <trkpt lat="44.89538" lon="5.86877">
        <ele>676.5</ele>
        <time>2022-07-16T05:11:44Z</time>
      </trkpt>
      <trkpt lat="44.89544" lon="5.86873">
        <ele>676.5</ele>
        <time>2022-07-16T05:11:45Z</time>
      </trkpt>
      <trkpt lat="44.8955" lon="5.86869">
        <ele>676.5</ele>
        <time>2022-07-16T05:11:46Z</time>
      </trkpt>
      <trkpt lat="44.89556" lon="5.86865">
        <ele>676.6</ele>
        <time>2022-07-16T05:11:47Z</time>
      </trkpt>
      <trkpt lat="44.89561" lon="5.8686">
        <ele>676.7</ele>
        <time>2022-07-16T05:11:48Z</time>
      </trkpt>
      <trkpt lat="44.89567" lon="5.86856">
        <ele>676.8</ele>
        <time>2022-07-16T05:11:49Z</time>
      </trkpt>
      <trkpt lat="44.89572" lon="5.86852">
        <ele>676.9</ele>
        <time>2022-07-16T05:11:50Z</time>
      </trkpt>
      <trkpt lat="44.89578" lon="5.86848">
        <ele>677</ele>
        <time>2022-07-16T05:11:51Z</time>
      </trkpt>
      <trkpt lat="44.89583" lon="5.86844">
        <ele>677.1</ele>
        <time>2022-07-16T05:11:52Z</time>
      </trkpt>
      <trkpt lat="44.89588" lon="5.8684">
        <ele>677.2</ele>
        <time>2022-07-16T05:11:53Z</time>
      </trkpt>
      <trkpt lat="44.89592" lon="5.86836">
        <ele>677.3</ele>
        <time>2022-07-16T05:11:54Z</time>
      </trkpt>
      <trkpt lat="44.89596" lon="5.86833">
        <ele>677.4</ele>
        <time>2022-07-16T05:11:55Z</time>
      </trkpt>
      <trkpt lat="44.896" lon="5.86829">
        <ele>677.5</ele>
        <time>2022-07-16T05:11:56Z</time>
      </trkpt>
      <trkpt lat="44.89604" lon="5.86824">
        <ele>677.7</ele>
        <time>2022-07-16T05:11:57Z</time>
      </trkpt>
      <trkpt lat="44.89609" lon="5.8682">
        <ele>677.9</ele>
        <time>2022-07-16T05:11:58Z</time>
      </trkpt>
      <trkpt lat="44.89613" lon="5.86815">
        <ele>678.1</ele>
        <time>2022-07-16T05:11:59Z</time>
      </trkpt>
      <trkpt lat="44.89618" lon="5.86811">
        <ele>678.2</ele>
        <time>2022-07-16T05:12:00Z</time>
      </trkpt>
      <trkpt lat="44.89622" lon="5.86807">
        <ele>678.4</ele>
        <time>2022-07-16T05:12:01Z</time>
      </trkpt>
      <trkpt lat="44.89626" lon="5.86803">
        <ele>678.5</ele>
        <time>2022-07-16T05:12:02Z</time>
      </trkpt>
      <trkpt lat="44.8963" lon="5.868">
        <ele>678.7</ele>
        <time>2022-07-16T05:12:03Z</time>
      </trkpt>
      <trkpt lat="44.89634" lon="5.86797">
        <ele>678.8</ele>
        <time>2022-07-16T05:12:04Z</time>
      </trkpt>
      <trkpt lat="44.89637" lon="5.86793">
        <ele>678.9</ele>
        <time>2022-07-16T05:12:05Z</time>
      </trkpt>
      <trkpt lat="44.8964" lon="5.86789">
        <ele>679</ele>
        <time>2022-07-16T05:12:06Z</time>
      </trkpt>
      <trkpt lat="44.89642" lon="5.86786">
        <ele>679.1</ele>
        <time>2022-07-16T05:12:07Z</time>
      </trkpt>
      <trkpt lat="44.89646" lon="5.86781">
        <ele>679.3</ele>
        <time>2022-07-16T05:12:08Z</time>
      </trkpt>
      <trkpt lat="44.89649" lon="5.86777">
        <ele>679.4</ele>
        <time>2022-07-16T05:12:09Z</time>
      </trkpt>
      <trkpt lat="44.89652" lon="5.86773">
        <ele>679.6</ele>
        <time>2022-07-16T05:12:10Z</time>
      </trkpt>
      <trkpt lat="44.89656" lon="5.86769">
        <ele>679.7</ele>
        <time>2022-07-16T05:12:11Z</time>
      </trkpt>
      <trkpt lat="44.89659" lon="5.86765">
        <ele>679.8</ele>
        <time>2022-07-16T05:12:12Z</time>
      </trkpt>
      <trkpt lat="44.89661" lon="5.86763">
        <ele>679.9</ele>
        <time>2022-07-16T05:12:13Z</time>
      </trkpt>
      <trkpt lat="44.89663" lon="5.86759">
        <ele>680</ele>
        <time>2022-07-16T05:12:14Z</time>
      </trkpt>
      <trkpt lat="44.89666" lon="5.86756">
        <ele>680.1</ele>
        <time>2022-07-16T05:12:15Z</time>
      </trkpt>
      <trkpt lat="44.89667" lon="5.86755">
        <ele>680.2</ele>
        <time>2022-07-16T05:12:16Z</time>
      </trkpt>
      <trkpt lat="44.8967" lon="5.86752">
        <ele>680.2</ele>
        <time>2022-07-16T05:12:17Z</time>
      </trkpt>
      <trkpt lat="44.89672" lon="5.8675">
        <ele>680.3</ele>
        <time>2022-07-16T05:12:18Z</time>
      </trkpt>
      <trkpt lat="44.89675" lon="5.86746">
        <ele>680.4</ele>
        <time>2022-07-16T05:12:19Z</time>
      </trkpt>
      <trkpt lat="44.89678" lon="5.86742">
        <ele>680.4</ele>
        <time>2022-07-16T05:12:20Z</time>
      </trkpt>
      <trkpt lat="44.89682" lon="5.86739">
        <ele>680.5</ele>
        <time>2022-07-16T05:12:21Z</time>
      </trkpt>
      <trkpt lat="44.89685" lon="5.86734">
        <ele>680.5</ele>
        <time>2022-07-16T05:12:22Z</time>
      </trkpt>
      <trkpt lat="44.89689" lon="5.86731">
        <ele>680.6</ele>
        <time>2022-07-16T05:12:23Z</time>
      </trkpt>
      <trkpt lat="44.89692" lon="5.86727">
        <ele>680.6</ele>
        <time>2022-07-16T05:12:24Z</time>
      </trkpt>
      <trkpt lat="44.89695" lon="5.86724">
        <ele>680.7</ele>
        <time>2022-07-16T05:12:25Z</time>
      </trkpt>
      <trkpt lat="44.89699" lon="5.8672">
        <ele>680.7</ele>
        <time>2022-07-16T05:12:26Z</time>
      </trkpt>
      <trkpt lat="44.89703" lon="5.86716">
        <ele>680.8</ele>
        <time>2022-07-16T05:12:27Z</time>
      </trkpt>
      <trkpt lat="44.89706" lon="5.86713">
        <ele>680.8</ele>
        <time>2022-07-16T05:12:28Z</time>
      </trkpt>
      <trkpt lat="44.8971" lon="5.8671">
        <ele>680.9</ele>
        <time>2022-07-16T05:12:29Z</time>
      </trkpt>
      <trkpt lat="44.89714" lon="5.86707">
        <ele>680.9</ele>
        <time>2022-07-16T05:12:30Z</time>
      </trkpt>
      <trkpt lat="44.89717" lon="5.86703">
        <ele>681</ele>
        <time>2022-07-16T05:12:31Z</time>
      </trkpt>
      <trkpt lat="44.8972" lon="5.867">
        <ele>681.1</ele>
        <time>2022-07-16T05:12:32Z</time>
      </trkpt>
      <trkpt lat="44.89724" lon="5.86696">
        <ele>681.1</ele>
        <time>2022-07-16T05:12:33Z</time>
      </trkpt>
      <trkpt lat="44.89728" lon="5.86694">
        <ele>681.2</ele>
        <time>2022-07-16T05:12:34Z</time>
      </trkpt>
      <trkpt lat="44.89732" lon="5.8669">
        <ele>681.2</ele>
        <time>2022-07-16T05:12:35Z</time>
      </trkpt>
      <trkpt lat="44.89736" lon="5.86686">
        <ele>681.3</ele>
        <time>2022-07-16T05:12:36Z</time>
      </trkpt>
      <trkpt lat="44.89739" lon="5.86682">
        <ele>681.4</ele>
        <time>2022-07-16T05:12:37Z</time>
      </trkpt>
      <trkpt lat="44.89743" lon="5.86678">
        <ele>681.4</ele>
        <time>2022-07-16T05:12:38Z</time>
      </trkpt>
      <trkpt lat="44.89746" lon="5.86673">
        <ele>681.5</ele>
        <time>2022-07-16T05:12:39Z</time>
      </trkpt>
      <trkpt lat="44.89749" lon="5.8667">
        <ele>681.5</ele>
        <time>2022-07-16T05:12:40Z</time>
      </trkpt>
      <trkpt lat="44.89752" lon="5.86665">
        <ele>681.6</ele>
        <time>2022-07-16T05:12:41Z</time>
      </trkpt>
      <trkpt lat="44.89756" lon="5.86661">
        <ele>681.7</ele>
        <time>2022-07-16T05:12:42Z</time>
      </trkpt>
      <trkpt lat="44.89759" lon="5.86657">
        <ele>681.7</ele>
        <time>2022-07-16T05:12:43Z</time>
      </trkpt>
      <trkpt lat="44.89762" lon="5.86652">
        <ele>681.8</ele>
        <time>2022-07-16T05:12:44Z</time>
      </trkpt>
      <trkpt lat="44.89765" lon="5.86648">
        <ele>681.9</ele>
        <time>2022-07-16T05:12:45Z</time>
      </trkpt>
      <trkpt lat="44.89768" lon="5.86644">
        <ele>682</ele>
        <time>2022-07-16T05:12:46Z</time>
      </trkpt>
      <trkpt lat="44.89772" lon="5.86639">
        <ele>682.1</ele>
        <time>2022-07-16T05:12:47Z</time>
      </trkpt>
      <trkpt lat="44.89775" lon="5.86634">
        <ele>682.2</ele>
        <time>2022-07-16T05:12:48Z</time>
      </trkpt>
      <trkpt lat="44.89778" lon="5.8663">
        <ele>682.3</ele>
        <time>2022-07-16T05:12:49Z</time>
      </trkpt>
      <trkpt lat="44.89781" lon="5.86625">
        <ele>682.4</ele>
        <time>2022-07-16T05:12:50Z</time>
      </trkpt>
      <trkpt lat="44.89783" lon="5.86623">
        <ele>682.4</ele>
        <time>2022-07-16T05:12:51Z</time>
      </trkpt>
      <trkpt lat="44.89788" lon="5.86617">
        <ele>682.5</ele>
        <time>2022-07-16T05:12:52Z</time>
      </trkpt>
      <trkpt lat="44.8979" lon="5.86613">
        <ele>682.6</ele>
        <time>2022-07-16T05:12:53Z</time>
      </trkpt>
      <trkpt lat="44.89792" lon="5.86608">
        <ele>682.7</ele>
        <time>2022-07-16T05:12:54Z</time>
      </trkpt>
      <trkpt lat="44.89796" lon="5.86603">
        <ele>682.8</ele>
        <time>2022-07-16T05:12:55Z</time>
      </trkpt>
      <trkpt lat="44.89799" lon="5.86599">
        <ele>682.9</ele>
        <time>2022-07-16T05:12:56Z</time>
      </trkpt>
      <trkpt lat="44.89802" lon="5.86595">
        <ele>683</ele>
        <time>2022-07-16T05:12:57Z</time>
      </trkpt>
      <trkpt lat="44.89805" lon="5.86588">
        <ele>683.1</ele>
        <time>2022-07-16T05:12:58Z</time>
      </trkpt>
      <trkpt lat="44.89808" lon="5.86583">
        <ele>683.2</ele>
        <time>2022-07-16T05:12:59Z</time>
      </trkpt>
      <trkpt lat="44.8981" lon="5.8658">
        <ele>683.2</ele>
        <time>2022-07-16T05:13:00Z</time>
      </trkpt>
      <trkpt lat="44.89813" lon="5.86573">
        <ele>683.4</ele>
        <time>2022-07-16T05:13:01Z</time>
      </trkpt>
      <trkpt lat="44.89817" lon="5.86568">
        <ele>683.5</ele>
        <time>2022-07-16T05:13:02Z</time>
      </trkpt>
      <trkpt lat="44.8982" lon="5.86563">
        <ele>683.6</ele>
        <time>2022-07-16T05:13:03Z</time>
      </trkpt>
      <trkpt lat="44.89822" lon="5.86559">
        <ele>683.6</ele>
        <time>2022-07-16T05:13:04Z</time>
      </trkpt>
      <trkpt lat="44.89825" lon="5.86554">
        <ele>683.7</ele>
        <time>2022-07-16T05:13:05Z</time>
      </trkpt>
      <trkpt lat="44.89828" lon="5.86548">
        <ele>683.8</ele>
        <time>2022-07-16T05:13:06Z</time>
      </trkpt>
      <trkpt lat="44.89831" lon="5.86543">
        <ele>684</ele>
        <time>2022-07-16T05:13:07Z</time>
      </trkpt>
      <trkpt lat="44.89835" lon="5.86538">
        <ele>684.1</ele>
        <time>2022-07-16T05:13:08Z</time>
      </trkpt>
      <trkpt lat="44.89838" lon="5.86534">
        <ele>684.2</ele>
        <time>2022-07-16T05:13:09Z</time>
      </trkpt>
      <trkpt lat="44.89841" lon="5.86532">
        <ele>684.3</ele>
        <time>2022-07-16T05:13:10Z</time>
      </trkpt>
      <trkpt lat="44.89845" lon="5.86529">
        <ele>684.4</ele>
        <time>2022-07-16T05:13:11Z</time>
      </trkpt>
      <trkpt lat="44.89849" lon="5.86524">
        <ele>684.5</ele>
        <time>2022-07-16T05:13:12Z</time>
      </trkpt>
      <trkpt lat="44.89853" lon="5.8652">
        <ele>684.6</ele>
        <time>2022-07-16T05:13:13Z</time>
      </trkpt>
      <trkpt lat="44.89856" lon="5.86517">
        <ele>684.7</ele>
        <time>2022-07-16T05:13:14Z</time>
      </trkpt>
      <trkpt lat="44.8986" lon="5.86514">
        <ele>684.8</ele>
        <time>2022-07-16T05:13:15Z</time>
      </trkpt>
      <trkpt lat="44.89863" lon="5.86512">
        <ele>684.9</ele>
        <time>2022-07-16T05:13:16Z</time>
      </trkpt>
      <trkpt lat="44.89868" lon="5.86509">
        <ele>685</ele>
        <time>2022-07-16T05:13:17Z</time>
      </trkpt>
      <trkpt lat="44.89871" lon="5.86508">
        <ele>685.1</ele>
        <time>2022-07-16T05:13:18Z</time>
      </trkpt>
      <trkpt lat="44.89876" lon="5.86506">
        <ele>685.2</ele>
        <time>2022-07-16T05:13:19Z</time>
      </trkpt>
      <trkpt lat="44.89881" lon="5.86504">
        <ele>685.4</ele>
        <time>2022-07-16T05:13:20Z</time>
      </trkpt>
      <trkpt lat="44.89886" lon="5.86502">
        <ele>685.5</ele>
        <time>2022-07-16T05:13:21Z</time>
      </trkpt>
      <trkpt lat="44.8989" lon="5.865">
        <ele>685.6</ele>
        <time>2022-07-16T05:13:22Z</time>
      </trkpt>
      <trkpt lat="44.89894" lon="5.86498">
        <ele>685.7</ele>
        <time>2022-07-16T05:13:23Z</time>
      </trkpt>
      <trkpt lat="44.89898" lon="5.86496">
        <ele>685.8</ele>
        <time>2022-07-16T05:13:24Z</time>
      </trkpt>
      <trkpt lat="44.89903" lon="5.86494">
        <ele>685.9</ele>
        <time>2022-07-16T05:13:25Z</time>
      </trkpt>
      <trkpt lat="44.89908" lon="5.86491">
        <ele>686</ele>
        <time>2022-07-16T05:13:26Z</time>
      </trkpt>
      <trkpt lat="44.89912" lon="5.86489">
        <ele>686.1</ele>
        <time>2022-07-16T05:13:27Z</time>
      </trkpt>
      <trkpt lat="44.89915" lon="5.86487">
        <ele>686.2</ele>
        <time>2022-07-16T05:13:28Z</time>
      </trkpt>
      <trkpt lat="44.89919" lon="5.86484">
        <ele>686.3</ele>
        <time>2022-07-16T05:13:29Z</time>
      </trkpt>
      <trkpt lat="44.89923" lon="5.8648">
        <ele>686.4</ele>
        <time>2022-07-16T05:13:30Z</time>
      </trkpt>
      <trkpt lat="44.89926" lon="5.86476">
        <ele>686.6</ele>
        <time>2022-07-16T05:13:31Z</time>
      </trkpt>
      <trkpt lat="44.89929" lon="5.86472">
        <ele>686.6</ele>
        <time>2022-07-16T05:13:32Z</time>
      </trkpt>
      <trkpt lat="44.89932" lon="5.86468">
        <ele>686.7</ele>
        <time>2022-07-16T05:13:33Z</time>
      </trkpt>
      <trkpt lat="44.89934" lon="5.86465">
        <ele>686.8</ele>
        <time>2022-07-16T05:13:34Z</time>
      </trkpt>
      <trkpt lat="44.89937" lon="5.86461">
        <ele>686.9</ele>
        <time>2022-07-16T05:13:35Z</time>
      </trkpt>
      <trkpt lat="44.89941" lon="5.86455">
        <ele>687</ele>
        <time>2022-07-16T05:13:36Z</time>
      </trkpt>
      <trkpt lat="44.89942" lon="5.86451">
        <ele>687</ele>
        <time>2022-07-16T05:13:37Z</time>
      </trkpt>
      <trkpt lat="44.89944" lon="5.86446">
        <ele>687.1</ele>
        <time>2022-07-16T05:13:38Z</time>
      </trkpt>
      <trkpt lat="44.89946" lon="5.8644">
        <ele>687.2</ele>
        <time>2022-07-16T05:13:39Z</time>
      </trkpt>
      <trkpt lat="44.8995" lon="5.86432">
        <ele>687.3</ele>
        <time>2022-07-16T05:13:40Z</time>
      </trkpt>
      <trkpt lat="44.89952" lon="5.86426">
        <ele>687.4</ele>
        <time>2022-07-16T05:13:41Z</time>
      </trkpt>
      <trkpt lat="44.89955" lon="5.86419">
        <ele>687.4</ele>
        <time>2022-07-16T05:13:42Z</time>
      </trkpt>
      <trkpt lat="44.89957" lon="5.86413">
        <ele>687.5</ele>
        <time>2022-07-16T05:13:43Z</time>
      </trkpt>
      <trkpt lat="44.8996" lon="5.86407">
        <ele>687.6</ele>
        <time>2022-07-16T05:13:44Z</time>
      </trkpt>
      <trkpt lat="44.89962" lon="5.86401">
        <ele>687.7</ele>
        <time>2022-07-16T05:13:45Z</time>
      </trkpt>
      <trkpt lat="44.89963" lon="5.86397">
        <ele>687.8</ele>
        <time>2022-07-16T05:13:46Z</time>
      </trkpt>
      <trkpt lat="44.89964" lon="5.8639">
        <ele>688</ele>
        <time>2022-07-16T05:13:47Z</time>
      </trkpt>
      <trkpt lat="44.89965" lon="5.86383">
        <ele>688.1</ele>
        <time>2022-07-16T05:13:48Z</time>
      </trkpt>
      <trkpt lat="44.89967" lon="5.86376">
        <ele>688.2</ele>
        <time>2022-07-16T05:13:49Z</time>
      </trkpt>
      <trkpt lat="44.89967" lon="5.86368">
        <ele>688.4</ele>
        <time>2022-07-16T05:13:50Z</time>
      </trkpt>
      <trkpt lat="44.89967" lon="5.86361">
        <ele>688.5</ele>
        <time>2022-07-16T05:13:51Z</time>
      </trkpt>
      <trkpt lat="44.89966" lon="5.86353">
        <ele>688.6</ele>
        <time>2022-07-16T05:13:52Z</time>
      </trkpt>
      <trkpt lat="44.89966" lon="5.86348">
        <ele>688.7</ele>
        <time>2022-07-16T05:13:53Z</time>
      </trkpt>
      <trkpt lat="44.89966" lon="5.86342">
        <ele>688.8</ele>
        <time>2022-07-16T05:13:54Z</time>
      </trkpt>
      <trkpt lat="44.89966" lon="5.86338">
        <ele>688.9</ele>
        <time>2022-07-16T05:13:55Z</time>
      </trkpt>
      <trkpt lat="44.89966" lon="5.86329">
        <ele>689</ele>
        <time>2022-07-16T05:13:56Z</time>
      </trkpt>
      <trkpt lat="44.89965" lon="5.86323">
        <ele>689.1</ele>
        <time>2022-07-16T05:13:57Z</time>
      </trkpt>
      <trkpt lat="44.89965" lon="5.86317">
        <ele>689.3</ele>
        <time>2022-07-16T05:13:58Z</time>
      </trkpt>
      <trkpt lat="44.89964" lon="5.8631">
        <ele>689.4</ele>
        <time>2022-07-16T05:13:59Z</time>
      </trkpt>
      <trkpt lat="44.89964" lon="5.86304">
        <ele>689.5</ele>
        <time>2022-07-16T05:14:00Z</time>
      </trkpt>
      <trkpt lat="44.89964" lon="5.86297">
        <ele>689.6</ele>
        <time>2022-07-16T05:14:01Z</time>
      </trkpt>
      <trkpt lat="44.89964" lon="5.86292">
        <ele>689.6</ele>
        <time>2022-07-16T05:14:02Z</time>
      </trkpt>
      <trkpt lat="44.89964" lon="5.86287">
        <ele>689.7</ele>
        <time>2022-07-16T05:14:03Z</time>
      </trkpt>
      <trkpt lat="44.89964" lon="5.86278">
        <ele>689.8</ele>
        <time>2022-07-16T05:14:04Z</time>
      </trkpt>
      <trkpt lat="44.89964" lon="5.86272">
        <ele>689.9</ele>
        <time>2022-07-16T05:14:05Z</time>
      </trkpt>
      <trkpt lat="44.89963" lon="5.86265">
        <ele>689.9</ele>
        <time>2022-07-16T05:14:06Z</time>
      </trkpt>
      <trkpt lat="44.89961" lon="5.86261">
        <ele>690</ele>
        <time>2022-07-16T05:14:07Z</time>
      </trkpt>
      <trkpt lat="44.89959" lon="5.86255">
        <ele>690</ele>
        <time>2022-07-16T05:14:08Z</time>
      </trkpt>
      <trkpt lat="44.89956" lon="5.86247">
        <ele>690.1</ele>
        <time>2022-07-16T05:14:09Z</time>
      </trkpt>
      <trkpt lat="44.89953" lon="5.8624">
        <ele>690.2</ele>
        <time>2022-07-16T05:14:10Z</time>
      </trkpt>
      <trkpt lat="44.89949" lon="5.86233">
        <ele>690.3</ele>
        <time>2022-07-16T05:14:11Z</time>
      </trkpt>
      <trkpt lat="44.89946" lon="5.86228">
        <ele>690.4</ele>
        <time>2022-07-16T05:14:12Z</time>
      </trkpt>
      <trkpt lat="44.89944" lon="5.86221">
        <ele>690.5</ele>
        <time>2022-07-16T05:14:13Z</time>
      </trkpt>
      <trkpt lat="44.89942" lon="5.86216">
        <ele>690.6</ele>
        <time>2022-07-16T05:14:14Z</time>
      </trkpt>
      <trkpt lat="44.8994" lon="5.86209">
        <ele>690.7</ele>
        <time>2022-07-16T05:14:15Z</time>
      </trkpt>
      <trkpt lat="44.89938" lon="5.86205">
        <ele>690.8</ele>
        <time>2022-07-16T05:14:16Z</time>
      </trkpt>
      <trkpt lat="44.89935" lon="5.86198">
        <ele>690.9</ele>
        <time>2022-07-16T05:14:17Z</time>
      </trkpt>
      <trkpt lat="44.89932" lon="5.86194">
        <ele>691</ele>
        <time>2022-07-16T05:14:18Z</time>
      </trkpt>
      <trkpt lat="44.89929" lon="5.86187">
        <ele>691.2</ele>
        <time>2022-07-16T05:14:19Z</time>
      </trkpt>
      <trkpt lat="44.89926" lon="5.86181">
        <ele>691.3</ele>
        <time>2022-07-16T05:14:20Z</time>
      </trkpt>
      <trkpt lat="44.89922" lon="5.86175">
        <ele>691.4</ele>
        <time>2022-07-16T05:14:21Z</time>
      </trkpt>
      <trkpt lat="44.89919" lon="5.86169">
        <ele>691.5</ele>
        <time>2022-07-16T05:14:22Z</time>
      </trkpt>
      <trkpt lat="44.89916" lon="5.86162">
        <ele>691.6</ele>
        <time>2022-07-16T05:14:23Z</time>
      </trkpt>
      <trkpt lat="44.89913" lon="5.86156">
        <ele>691.7</ele>
        <time>2022-07-16T05:14:24Z</time>
      </trkpt>
      <trkpt lat="44.8991" lon="5.8615">
        <ele>691.8</ele>
        <time>2022-07-16T05:14:25Z</time>
      </trkpt>
      <trkpt lat="44.89908" lon="5.86146">
        <ele>691.9</ele>
        <time>2022-07-16T05:14:26Z</time>
      </trkpt>
      <trkpt lat="44.89905" lon="5.86142">
        <ele>691.9</ele>
        <time>2022-07-16T05:14:27Z</time>
      </trkpt>
      <trkpt lat="44.89904" lon="5.8614">
        <ele>692</ele>
        <time>2022-07-16T05:14:28Z</time>
      </trkpt>
      <trkpt lat="44.89899" lon="5.86135">
        <ele>692.1</ele>
        <time>2022-07-16T05:14:29Z</time>
      </trkpt>
      <trkpt lat="44.89895" lon="5.86129">
        <ele>692.2</ele>
        <time>2022-07-16T05:14:30Z</time>
      </trkpt>
      <trkpt lat="44.89891" lon="5.86123">
        <ele>692.3</ele>
        <time>2022-07-16T05:14:31Z</time>
      </trkpt>
      <trkpt lat="44.89887" lon="5.86117">
        <ele>692.5</ele>
        <time>2022-07-16T05:14:32Z</time>
      </trkpt>
      <trkpt lat="44.89884" lon="5.86112">
        <ele>692.6</ele>
        <time>2022-07-16T05:14:33Z</time>
      </trkpt>
      <trkpt lat="44.8988" lon="5.86107">
        <ele>692.7</ele>
        <time>2022-07-16T05:14:34Z</time>
      </trkpt>
      <trkpt lat="44.89877" lon="5.86102">
        <ele>692.9</ele>
        <time>2022-07-16T05:14:35Z</time>
      </trkpt>
      <trkpt lat="44.89873" lon="5.86097">
        <ele>693</ele>
        <time>2022-07-16T05:14:36Z</time>
      </trkpt>
      <trkpt lat="44.8987" lon="5.86092">
        <ele>693.1</ele>
        <time>2022-07-16T05:14:37Z</time>
      </trkpt>
      <trkpt lat="44.89867" lon="5.86088">
        <ele>693.2</ele>
        <time>2022-07-16T05:14:38Z</time>
      </trkpt>
      <trkpt lat="44.89863" lon="5.86082">
        <ele>693.3</ele>
        <time>2022-07-16T05:14:39Z</time>
      </trkpt>
      <trkpt lat="44.89861" lon="5.86078">
        <ele>693.4</ele>
        <time>2022-07-16T05:14:40Z</time>
      </trkpt>
      <trkpt lat="44.89859" lon="5.86073">
        <ele>693.5</ele>
        <time>2022-07-16T05:14:41Z</time>
      </trkpt>
      <trkpt lat="44.89856" lon="5.86067">
        <ele>693.6</ele>
        <time>2022-07-16T05:14:42Z</time>
      </trkpt>
      <trkpt lat="44.89853" lon="5.8606">
        <ele>693.7</ele>
        <time>2022-07-16T05:14:43Z</time>
      </trkpt>
      <trkpt lat="44.89851" lon="5.86054">
        <ele>693.8</ele>
        <time>2022-07-16T05:14:44Z</time>
      </trkpt>
      <trkpt lat="44.89849" lon="5.86047">
        <ele>693.9</ele>
        <time>2022-07-16T05:14:45Z</time>
      </trkpt>
      <trkpt lat="44.89847" lon="5.86042">
        <ele>694</ele>
        <time>2022-07-16T05:14:46Z</time>
      </trkpt>
      <trkpt lat="44.89845" lon="5.86036">
        <ele>694</ele>
        <time>2022-07-16T05:14:47Z</time>
      </trkpt>
      <trkpt lat="44.89843" lon="5.86029">
        <ele>694.1</ele>
        <time>2022-07-16T05:14:48Z</time>
      </trkpt>
      <trkpt lat="44.89842" lon="5.86024">
        <ele>694.2</ele>
        <time>2022-07-16T05:14:49Z</time>
      </trkpt>
      <trkpt lat="44.89841" lon="5.86018">
        <ele>694.3</ele>
        <time>2022-07-16T05:14:50Z</time>
      </trkpt>
      <trkpt lat="44.89839" lon="5.86012">
        <ele>694.3</ele>
        <time>2022-07-16T05:14:51Z</time>
      </trkpt>
      <trkpt lat="44.89837" lon="5.86006">
        <ele>694.4</ele>
        <time>2022-07-16T05:14:52Z</time>
      </trkpt>
      <trkpt lat="44.89834" lon="5.86">
        <ele>694.5</ele>
        <time>2022-07-16T05:14:53Z</time>
      </trkpt>
      <trkpt lat="44.89832" lon="5.85995">
        <ele>694.6</ele>
        <time>2022-07-16T05:14:54Z</time>
      </trkpt>
      <trkpt lat="44.8983" lon="5.85988">
        <ele>694.7</ele>
        <time>2022-07-16T05:14:55Z</time>
      </trkpt>
      <trkpt lat="44.89827" lon="5.85982">
        <ele>694.8</ele>
        <time>2022-07-16T05:14:56Z</time>
      </trkpt>
      <trkpt lat="44.89825" lon="5.85976">
        <ele>694.9</ele>
        <time>2022-07-16T05:14:57Z</time>
      </trkpt>
      <trkpt lat="44.89822" lon="5.8597">
        <ele>695.1</ele>
        <time>2022-07-16T05:14:58Z</time>
      </trkpt>
      <trkpt lat="44.8982" lon="5.85963">
        <ele>695.2</ele>
        <time>2022-07-16T05:14:59Z</time>
      </trkpt>
      <trkpt lat="44.89817" lon="5.85956">
        <ele>695.3</ele>
        <time>2022-07-16T05:15:00Z</time>
      </trkpt>
      <trkpt lat="44.89815" lon="5.8595">
        <ele>695.4</ele>
        <time>2022-07-16T05:15:01Z</time>
      </trkpt>
      <trkpt lat="44.89812" lon="5.85943">
        <ele>695.5</ele>
        <time>2022-07-16T05:15:02Z</time>
      </trkpt>
      <trkpt lat="44.89811" lon="5.85939">
        <ele>695.6</ele>
        <time>2022-07-16T05:15:03Z</time>
      </trkpt>
      <trkpt lat="44.89809" lon="5.85934">
        <ele>695.6</ele>
        <time>2022-07-16T05:15:04Z</time>
      </trkpt>
      <trkpt lat="44.89807" lon="5.85929">
        <ele>695.7</ele>
        <time>2022-07-16T05:15:05Z</time>
      </trkpt>
      <trkpt lat="44.89805" lon="5.85923">
        <ele>695.8</ele>
        <time>2022-07-16T05:15:06Z</time>
      </trkpt>
      <trkpt lat="44.89804" lon="5.85917">
        <ele>695.9</ele>
        <time>2022-07-16T05:15:07Z</time>
      </trkpt>
      <trkpt lat="44.89802" lon="5.85911">
        <ele>696</ele>
        <time>2022-07-16T05:15:08Z</time>
      </trkpt>
      <trkpt lat="44.898" lon="5.85905">
        <ele>696.1</ele>
        <time>2022-07-16T05:15:09Z</time>
      </trkpt>
      <trkpt lat="44.89799" lon="5.85898">
        <ele>696.2</ele>
        <time>2022-07-16T05:15:10Z</time>
      </trkpt>
      <trkpt lat="44.89797" lon="5.85893">
        <ele>696.2</ele>
        <time>2022-07-16T05:15:11Z</time>
      </trkpt>
      <trkpt lat="44.89796" lon="5.85886">
        <ele>696.3</ele>
        <time>2022-07-16T05:15:12Z</time>
      </trkpt>
      <trkpt lat="44.89795" lon="5.85883">
        <ele>696.4</ele>
        <time>2022-07-16T05:15:13Z</time>
      </trkpt>
      <trkpt lat="44.89792" lon="5.85875">
        <ele>696.5</ele>
        <time>2022-07-16T05:15:14Z</time>
      </trkpt>
      <trkpt lat="44.89789" lon="5.85868">
        <ele>696.6</ele>
        <time>2022-07-16T05:15:15Z</time>
      </trkpt>
      <trkpt lat="44.89787" lon="5.85861">
        <ele>696.7</ele>
        <time>2022-07-16T05:15:16Z</time>
      </trkpt>
      <trkpt lat="44.89785" lon="5.85855">
        <ele>696.8</ele>
        <time>2022-07-16T05:15:17Z</time>
      </trkpt>
      <trkpt lat="44.89783" lon="5.8585">
        <ele>696.8</ele>
        <time>2022-07-16T05:15:18Z</time>
      </trkpt>
      <trkpt lat="44.89781" lon="5.85844">
        <ele>696.9</ele>
        <time>2022-07-16T05:15:19Z</time>
      </trkpt>
      <trkpt lat="44.89779" lon="5.85839">
        <ele>697.1</ele>
        <time>2022-07-16T05:15:20Z</time>
      </trkpt>
      <trkpt lat="44.89777" lon="5.85832">
        <ele>697.2</ele>
        <time>2022-07-16T05:15:21Z</time>
      </trkpt>
      <trkpt lat="44.89774" lon="5.85827">
        <ele>697.3</ele>
        <time>2022-07-16T05:15:22Z</time>
      </trkpt>
      <trkpt lat="44.89772" lon="5.85822">
        <ele>697.4</ele>
        <time>2022-07-16T05:15:23Z</time>
      </trkpt>
      <trkpt lat="44.8977" lon="5.85818">
        <ele>697.4</ele>
        <time>2022-07-16T05:15:24Z</time>
      </trkpt>
      <trkpt lat="44.89767" lon="5.85811">
        <ele>697.6</ele>
        <time>2022-07-16T05:15:25Z</time>
      </trkpt>
      <trkpt lat="44.89766" lon="5.85807">
        <ele>697.6</ele>
        <time>2022-07-16T05:15:26Z</time>
      </trkpt>
      <trkpt lat="44.89763" lon="5.858">
        <ele>697.7</ele>
        <time>2022-07-16T05:15:27Z</time>
      </trkpt>
      <trkpt lat="44.89759" lon="5.85795">
        <ele>697.8</ele>
        <time>2022-07-16T05:15:28Z</time>
      </trkpt>
      <trkpt lat="44.89756" lon="5.8579">
        <ele>697.9</ele>
        <time>2022-07-16T05:15:29Z</time>
      </trkpt>
      <trkpt lat="44.89752" lon="5.85786">
        <ele>698</ele>
        <time>2022-07-16T05:15:30Z</time>
      </trkpt>
      <trkpt lat="44.89749" lon="5.85781">
        <ele>698.1</ele>
        <time>2022-07-16T05:15:31Z</time>
      </trkpt>
      <trkpt lat="44.89746" lon="5.85776">
        <ele>698.2</ele>
        <time>2022-07-16T05:15:32Z</time>
      </trkpt>
      <trkpt lat="44.89743" lon="5.85771">
        <ele>698.3</ele>
        <time>2022-07-16T05:15:33Z</time>
      </trkpt>
      <trkpt lat="44.8974" lon="5.85765">
        <ele>698.3</ele>
        <time>2022-07-16T05:15:34Z</time>
      </trkpt>
      <trkpt lat="44.89737" lon="5.8576">
        <ele>698.4</ele>
        <time>2022-07-16T05:15:35Z</time>
      </trkpt>
      <trkpt lat="44.89734" lon="5.85756">
        <ele>698.5</ele>
        <time>2022-07-16T05:15:36Z</time>
      </trkpt>
      <trkpt lat="44.89729" lon="5.85751">
        <ele>698.6</ele>
        <time>2022-07-16T05:15:37Z</time>
      </trkpt>
      <trkpt lat="44.89727" lon="5.85749">
        <ele>698.6</ele>
        <time>2022-07-16T05:15:38Z</time>
      </trkpt>
      <trkpt lat="44.89724" lon="5.85746">
        <ele>698.7</ele>
        <time>2022-07-16T05:15:39Z</time>
      </trkpt>
      <trkpt lat="44.8972" lon="5.8574">
        <ele>698.7</ele>
        <time>2022-07-16T05:15:40Z</time>
      </trkpt>
      <trkpt lat="44.89717" lon="5.85738">
        <ele>698.8</ele>
        <time>2022-07-16T05:15:41Z</time>
      </trkpt>
      <trkpt lat="44.89713" lon="5.85736">
        <ele>698.9</ele>
        <time>2022-07-16T05:15:42Z</time>
      </trkpt>
      <trkpt lat="44.89709" lon="5.85733">
        <ele>698.9</ele>
        <time>2022-07-16T05:15:43Z</time>
      </trkpt>
      <trkpt lat="44.89703" lon="5.8573">
        <ele>699</ele>
        <time>2022-07-16T05:15:44Z</time>
      </trkpt>
      <trkpt lat="44.89698" lon="5.85727">
        <ele>699</ele>
        <time>2022-07-16T05:15:45Z</time>
      </trkpt>
      <trkpt lat="44.89693" lon="5.85724">
        <ele>699</ele>
        <time>2022-07-16T05:15:46Z</time>
      </trkpt>
      <trkpt lat="44.89688" lon="5.85721">
        <ele>699</ele>
        <time>2022-07-16T05:15:47Z</time>
      </trkpt>
      <trkpt lat="44.89684" lon="5.85718">
        <ele>699.1</ele>
        <time>2022-07-16T05:15:48Z</time>
      </trkpt>
      <trkpt lat="44.89679" lon="5.85716">
        <ele>699.1</ele>
        <time>2022-07-16T05:15:49Z</time>
      </trkpt>
      <trkpt lat="44.89674" lon="5.85713">
        <ele>699.1</ele>
        <time>2022-07-16T05:15:50Z</time>
      </trkpt>
      <trkpt lat="44.89669" lon="5.8571">
        <ele>699.1</ele>
        <time>2022-07-16T05:15:51Z</time>
      </trkpt>
      <trkpt lat="44.89664" lon="5.85706">
        <ele>699.1</ele>
        <time>2022-07-16T05:15:52Z</time>
      </trkpt>
      <trkpt lat="44.8966" lon="5.85702">
        <ele>699.2</ele>
        <time>2022-07-16T05:15:53Z</time>
      </trkpt>
      <trkpt lat="44.89655" lon="5.85698">
        <ele>699.2</ele>
        <time>2022-07-16T05:15:54Z</time>
      </trkpt>
      <trkpt lat="44.8965" lon="5.85693">
        <ele>699.2</ele>
        <time>2022-07-16T05:15:55Z</time>
      </trkpt>
      <trkpt lat="44.89646" lon="5.85686">
        <ele>699.2</ele>
        <time>2022-07-16T05:15:56Z</time>
      </trkpt>
      <trkpt lat="44.89642" lon="5.8568">
        <ele>699.3</ele>
        <time>2022-07-16T05:15:57Z</time>
      </trkpt>
      <trkpt lat="44.89639" lon="5.85673">
        <ele>699.3</ele>
        <time>2022-07-16T05:15:58Z</time>
      </trkpt>
      <trkpt lat="44.89637" lon="5.85667">
        <ele>699.3</ele>
        <time>2022-07-16T05:15:59Z</time>
      </trkpt>
      <trkpt lat="44.89635" lon="5.85659">
        <ele>699.4</ele>
        <time>2022-07-16T05:16:00Z</time>
      </trkpt>
      <trkpt lat="44.89634" lon="5.85652">
        <ele>699.3</ele>
        <time>2022-07-16T05:16:01Z</time>
      </trkpt>
      <trkpt lat="44.89632" lon="5.85644">
        <ele>699.3</ele>
        <time>2022-07-16T05:16:02Z</time>
      </trkpt>
      <trkpt lat="44.89632" lon="5.85637">
        <ele>699.3</ele>
        <time>2022-07-16T05:16:03Z</time>
      </trkpt>
      <trkpt lat="44.89632" lon="5.85629">
        <ele>699.2</ele>
        <time>2022-07-16T05:16:04Z</time>
      </trkpt>
      <trkpt lat="44.89632" lon="5.85621">
        <ele>699.2</ele>
        <time>2022-07-16T05:16:05Z</time>
      </trkpt>
      <trkpt lat="44.89632" lon="5.85613">
        <ele>699.1</ele>
        <time>2022-07-16T05:16:06Z</time>
      </trkpt>
      <trkpt lat="44.89633" lon="5.85605">
        <ele>699.1</ele>
        <time>2022-07-16T05:16:07Z</time>
      </trkpt>
      <trkpt lat="44.89633" lon="5.85597">
        <ele>699</ele>
        <time>2022-07-16T05:16:08Z</time>
      </trkpt>
      <trkpt lat="44.89633" lon="5.85589">
        <ele>699</ele>
        <time>2022-07-16T05:16:09Z</time>
      </trkpt>
      <trkpt lat="44.89633" lon="5.8558">
        <ele>699</ele>
        <time>2022-07-16T05:16:10Z</time>
      </trkpt>
      <trkpt lat="44.89633" lon="5.85571">
        <ele>698.9</ele>
        <time>2022-07-16T05:16:11Z</time>
      </trkpt>
      <trkpt lat="44.89634" lon="5.85562">
        <ele>698.9</ele>
        <time>2022-07-16T05:16:12Z</time>
      </trkpt>
      <trkpt lat="44.89636" lon="5.85554">
        <ele>698.9</ele>
        <time>2022-07-16T05:16:13Z</time>
      </trkpt>
      <trkpt lat="44.89636" lon="5.85545">
        <ele>698.9</ele>
        <time>2022-07-16T05:16:14Z</time>
      </trkpt>
      <trkpt lat="44.89636" lon="5.85538">
        <ele>698.9</ele>
        <time>2022-07-16T05:16:15Z</time>
      </trkpt>
      <trkpt lat="44.89637" lon="5.8553">
        <ele>698.9</ele>
        <time>2022-07-16T05:16:16Z</time>
      </trkpt>
      <trkpt lat="44.89638" lon="5.85521">
        <ele>699</ele>
        <time>2022-07-16T05:16:17Z</time>
      </trkpt>
      <trkpt lat="44.89638" lon="5.85512">
        <ele>699.1</ele>
        <time>2022-07-16T05:16:18Z</time>
      </trkpt>
      <trkpt lat="44.89638" lon="5.85505">
        <ele>699.2</ele>
        <time>2022-07-16T05:16:19Z</time>
      </trkpt>
      <trkpt lat="44.89637" lon="5.85497">
        <ele>699.4</ele>
        <time>2022-07-16T05:16:20Z</time>
      </trkpt>
      <trkpt lat="44.89636" lon="5.85489">
        <ele>699.6</ele>
        <time>2022-07-16T05:16:21Z</time>
      </trkpt>
      <trkpt lat="44.89634" lon="5.85481">
        <ele>699.8</ele>
        <time>2022-07-16T05:16:22Z</time>
      </trkpt>
      <trkpt lat="44.89632" lon="5.85474">
        <ele>700</ele>
        <time>2022-07-16T05:16:23Z</time>
      </trkpt>
      <trkpt lat="44.89631" lon="5.85466">
        <ele>700.3</ele>
        <time>2022-07-16T05:16:24Z</time>
      </trkpt>
      <trkpt lat="44.89629" lon="5.85458">
        <ele>700.5</ele>
        <time>2022-07-16T05:16:25Z</time>
      </trkpt>
      <trkpt lat="44.89628" lon="5.85452">
        <ele>700.7</ele>
        <time>2022-07-16T05:16:26Z</time>
      </trkpt>
      <trkpt lat="44.89626" lon="5.85445">
        <ele>701</ele>
        <time>2022-07-16T05:16:27Z</time>
      </trkpt>
      <trkpt lat="44.89625" lon="5.85439">
        <ele>701.2</ele>
        <time>2022-07-16T05:16:28Z</time>
      </trkpt>
      <trkpt lat="44.89623" lon="5.85433">
        <ele>701.5</ele>
        <time>2022-07-16T05:16:29Z</time>
      </trkpt>
      <trkpt lat="44.89622" lon="5.85427">
        <ele>701.8</ele>
        <time>2022-07-16T05:16:30Z</time>
      </trkpt>
      <trkpt lat="44.89622" lon="5.85424">
        <ele>701.9</ele>
        <time>2022-07-16T05:16:31Z</time>
      </trkpt>
      <trkpt lat="44.89621" lon="5.85418">
        <ele>702.1</ele>
        <time>2022-07-16T05:16:32Z</time>
      </trkpt>
      <trkpt lat="44.89621" lon="5.85413">
        <ele>702.3</ele>
        <time>2022-07-16T05:16:33Z</time>
      </trkpt>
      <trkpt lat="44.89621" lon="5.85408">
        <ele>702.5</ele>
        <time>2022-07-16T05:16:34Z</time>
      </trkpt>
      <trkpt lat="44.89621" lon="5.85404">
        <ele>702.7</ele>
        <time>2022-07-16T05:16:35Z</time>
      </trkpt>
      <trkpt lat="44.89621" lon="5.85399">
        <ele>702.9</ele>
        <time>2022-07-16T05:16:36Z</time>
      </trkpt>
      <trkpt lat="44.89621" lon="5.85393">
        <ele>703.1</ele>
        <time>2022-07-16T05:16:37Z</time>
      </trkpt>
      <trkpt lat="44.89621" lon="5.85388">
        <ele>703.3</ele>
        <time>2022-07-16T05:16:38Z</time>
      </trkpt>
      <trkpt lat="44.89621" lon="5.85382">
        <ele>703.5</ele>
        <time>2022-07-16T05:16:39Z</time>
      </trkpt>
      <trkpt lat="44.89622" lon="5.85377">
        <ele>703.7</ele>
        <time>2022-07-16T05:16:40Z</time>
      </trkpt>
      <trkpt lat="44.89622" lon="5.85372">
        <ele>703.9</ele>
        <time>2022-07-16T05:16:41Z</time>
      </trkpt>
      <trkpt lat="44.89622" lon="5.85367">
        <ele>704.1</ele>
        <time>2022-07-16T05:16:42Z</time>
      </trkpt>
      <trkpt lat="44.89623" lon="5.85362">
        <ele>704.3</ele>
        <time>2022-07-16T05:16:43Z</time>
      </trkpt>
      <trkpt lat="44.89623" lon="5.85357">
        <ele>704.4</ele>
        <time>2022-07-16T05:16:44Z</time>
      </trkpt>
      <trkpt lat="44.89623" lon="5.85352">
        <ele>704.6</ele>
        <time>2022-07-16T05:16:45Z</time>
      </trkpt>
      <trkpt lat="44.89624" lon="5.85348">
        <ele>704.8</ele>
        <time>2022-07-16T05:16:46Z</time>
      </trkpt>
      <trkpt lat="44.89624" lon="5.85343">
        <ele>705</ele>
        <time>2022-07-16T05:16:47Z</time>
      </trkpt>
      <trkpt lat="44.89625" lon="5.85337">
        <ele>705.1</ele>
        <time>2022-07-16T05:16:48Z</time>
      </trkpt>
      <trkpt lat="44.89626" lon="5.85332">
        <ele>705.3</ele>
        <time>2022-07-16T05:16:49Z</time>
      </trkpt>
      <trkpt lat="44.89626" lon="5.85327">
        <ele>705.5</ele>
        <time>2022-07-16T05:16:50Z</time>
      </trkpt>
      <trkpt lat="44.89626" lon="5.85322">
        <ele>705.7</ele>
        <time>2022-07-16T05:16:51Z</time>
      </trkpt>
      <trkpt lat="44.89626" lon="5.85318">
        <ele>705.8</ele>
        <time>2022-07-16T05:16:52Z</time>
      </trkpt>
      <trkpt lat="44.89627" lon="5.85314">
        <ele>705.9</ele>
        <time>2022-07-16T05:16:53Z</time>
      </trkpt>
      <trkpt lat="44.89627" lon="5.8531">
        <ele>706.1</ele>
        <time>2022-07-16T05:16:54Z</time>
      </trkpt>
      <trkpt lat="44.89627" lon="5.85305">
        <ele>706.2</ele>
        <time>2022-07-16T05:16:55Z</time>
      </trkpt>
      <trkpt lat="44.89627" lon="5.85299">
        <ele>706.4</ele>
        <time>2022-07-16T05:16:56Z</time>
      </trkpt>
      <trkpt lat="44.89628" lon="5.85294">
        <ele>706.6</ele>
        <time>2022-07-16T05:16:57Z</time>
      </trkpt>
      <trkpt lat="44.89628" lon="5.8529">
        <ele>706.8</ele>
        <time>2022-07-16T05:16:58Z</time>
      </trkpt>
      <trkpt lat="44.89628" lon="5.85284">
        <ele>707</ele>
        <time>2022-07-16T05:16:59Z</time>
      </trkpt>
      <trkpt lat="44.89628" lon="5.8528">
        <ele>707.1</ele>
        <time>2022-07-16T05:17:00Z</time>
      </trkpt>
      <trkpt lat="44.89628" lon="5.85276">
        <ele>707.3</ele>
        <time>2022-07-16T05:17:01Z</time>
      </trkpt>
      <trkpt lat="44.89628" lon="5.85271">
        <ele>707.4</ele>
        <time>2022-07-16T05:17:02Z</time>
      </trkpt>
      <trkpt lat="44.89628" lon="5.85267">
        <ele>707.6</ele>
        <time>2022-07-16T05:17:03Z</time>
      </trkpt>
      <trkpt lat="44.89628" lon="5.85261">
        <ele>707.8</ele>
        <time>2022-07-16T05:17:04Z</time>
      </trkpt>
      <trkpt lat="44.89629" lon="5.85256">
        <ele>707.9</ele>
        <time>2022-07-16T05:17:05Z</time>
      </trkpt>
      <trkpt lat="44.8963" lon="5.85251">
        <ele>708.1</ele>
        <time>2022-07-16T05:17:06Z</time>
      </trkpt>
      <trkpt lat="44.8963" lon="5.85246">
        <ele>708.3</ele>
        <time>2022-07-16T05:17:07Z</time>
      </trkpt>
      <trkpt lat="44.8963" lon="5.85241">
        <ele>708.4</ele>
        <time>2022-07-16T05:17:08Z</time>
      </trkpt>
      <trkpt lat="44.89631" lon="5.85236">
        <ele>708.6</ele>
        <time>2022-07-16T05:17:09Z</time>
      </trkpt>
      <trkpt lat="44.89633" lon="5.8523">
        <ele>708.8</ele>
        <time>2022-07-16T05:17:10Z</time>
      </trkpt>
      <trkpt lat="44.89634" lon="5.85224">
        <ele>708.9</ele>
        <time>2022-07-16T05:17:11Z</time>
      </trkpt>
      <trkpt lat="44.89635" lon="5.85222">
        <ele>709</ele>
        <time>2022-07-16T05:17:12Z</time>
      </trkpt>
      <trkpt lat="44.89636" lon="5.85217">
        <ele>709.2</ele>
        <time>2022-07-16T05:17:13Z</time>
      </trkpt>
      <trkpt lat="44.89638" lon="5.85213">
        <ele>709.3</ele>
        <time>2022-07-16T05:17:14Z</time>
      </trkpt>
      <trkpt lat="44.89639" lon="5.85209">
        <ele>709.4</ele>
        <time>2022-07-16T05:17:15Z</time>
      </trkpt>
      <trkpt lat="44.89641" lon="5.85204">
        <ele>709.5</ele>
        <time>2022-07-16T05:17:16Z</time>
      </trkpt>
      <trkpt lat="44.89642" lon="5.85198">
        <ele>709.7</ele>
        <time>2022-07-16T05:17:17Z</time>
      </trkpt>
      <trkpt lat="44.89644" lon="5.85194">
        <ele>709.8</ele>
        <time>2022-07-16T05:17:18Z</time>
      </trkpt>
      <trkpt lat="44.89645" lon="5.85189">
        <ele>709.9</ele>
        <time>2022-07-16T05:17:19Z</time>
      </trkpt>
      <trkpt lat="44.89647" lon="5.85184">
        <ele>710</ele>
        <time>2022-07-16T05:17:20Z</time>
      </trkpt>
      <trkpt lat="44.89649" lon="5.85179">
        <ele>710.1</ele>
        <time>2022-07-16T05:17:21Z</time>
      </trkpt>
      <trkpt lat="44.8965" lon="5.85174">
        <ele>710.1</ele>
        <time>2022-07-16T05:17:22Z</time>
      </trkpt>
      <trkpt lat="44.89652" lon="5.85169">
        <ele>710.2</ele>
        <time>2022-07-16T05:17:23Z</time>
      </trkpt>
      <trkpt lat="44.89654" lon="5.85163">
        <ele>710.3</ele>
        <time>2022-07-16T05:17:24Z</time>
      </trkpt>
      <trkpt lat="44.89655" lon="5.85158">
        <ele>710.4</ele>
        <time>2022-07-16T05:17:25Z</time>
      </trkpt>
      <trkpt lat="44.89658" lon="5.85152">
        <ele>710.5</ele>
        <time>2022-07-16T05:17:26Z</time>
      </trkpt>
      <trkpt lat="44.8966" lon="5.85148">
        <ele>710.5</ele>
        <time>2022-07-16T05:17:27Z</time>
      </trkpt>
      <trkpt lat="44.89662" lon="5.85143">
        <ele>710.6</ele>
        <time>2022-07-16T05:17:28Z</time>
      </trkpt>
      <trkpt lat="44.89664" lon="5.85138">
        <ele>710.7</ele>
        <time>2022-07-16T05:17:29Z</time>
      </trkpt>
      <trkpt lat="44.89666" lon="5.85133">
        <ele>710.7</ele>
        <time>2022-07-16T05:17:30Z</time>
      </trkpt>
      <trkpt lat="44.89668" lon="5.85127">
        <ele>710.8</ele>
        <time>2022-07-16T05:17:31Z</time>
      </trkpt>
      <trkpt lat="44.8967" lon="5.85122">
        <ele>710.9</ele>
        <time>2022-07-16T05:17:32Z</time>
      </trkpt>
      <trkpt lat="44.89672" lon="5.85116">
        <ele>710.9</ele>
        <time>2022-07-16T05:17:33Z</time>
      </trkpt>
      <trkpt lat="44.89673" lon="5.85111">
        <ele>711</ele>
        <time>2022-07-16T05:17:34Z</time>
      </trkpt>
      <trkpt lat="44.89675" lon="5.85106">
        <ele>711.1</ele>
        <time>2022-07-16T05:17:35Z</time>
      </trkpt>
      <trkpt lat="44.89677" lon="5.85101">
        <ele>711.1</ele>
        <time>2022-07-16T05:17:36Z</time>
      </trkpt>
      <trkpt lat="44.89679" lon="5.85096">
        <ele>711.2</ele>
        <time>2022-07-16T05:17:37Z</time>
      </trkpt>
      <trkpt lat="44.89682" lon="5.8509">
        <ele>711.3</ele>
        <time>2022-07-16T05:17:38Z</time>
      </trkpt>
      <trkpt lat="44.89684" lon="5.85085">
        <ele>711.4</ele>
        <time>2022-07-16T05:17:39Z</time>
      </trkpt>
      <trkpt lat="44.89686" lon="5.8508">
        <ele>711.5</ele>
        <time>2022-07-16T05:17:40Z</time>
      </trkpt>
      <trkpt lat="44.89688" lon="5.85074">
        <ele>711.6</ele>
        <time>2022-07-16T05:17:41Z</time>
      </trkpt>
      <trkpt lat="44.8969" lon="5.8507">
        <ele>711.7</ele>
        <time>2022-07-16T05:17:42Z</time>
      </trkpt>
      <trkpt lat="44.89693" lon="5.85065">
        <ele>711.8</ele>
        <time>2022-07-16T05:17:43Z</time>
      </trkpt>
      <trkpt lat="44.89695" lon="5.8506">
        <ele>711.9</ele>
        <time>2022-07-16T05:17:44Z</time>
      </trkpt>
      <trkpt lat="44.89697" lon="5.85055">
        <ele>712.1</ele>
        <time>2022-07-16T05:17:45Z</time>
      </trkpt>
      <trkpt lat="44.897" lon="5.85051">
        <ele>712.1</ele>
        <time>2022-07-16T05:17:46Z</time>
      </trkpt>
      <trkpt lat="44.89703" lon="5.85046">
        <ele>712.2</ele>
        <time>2022-07-16T05:17:47Z</time>
      </trkpt>
      <trkpt lat="44.89705" lon="5.85041">
        <ele>712.3</ele>
        <time>2022-07-16T05:17:48Z</time>
      </trkpt>
      <trkpt lat="44.89708" lon="5.85037">
        <ele>712.4</ele>
        <time>2022-07-16T05:17:49Z</time>
      </trkpt>
      <trkpt lat="44.89711" lon="5.85033">
        <ele>712.4</ele>
        <time>2022-07-16T05:17:50Z</time>
      </trkpt>
      <trkpt lat="44.89715" lon="5.85029">
        <ele>712.5</ele>
        <time>2022-07-16T05:17:51Z</time>
      </trkpt>
      <trkpt lat="44.89718" lon="5.85025">
        <ele>712.5</ele>
        <time>2022-07-16T05:17:52Z</time>
      </trkpt>
      <trkpt lat="44.89722" lon="5.85022">
        <ele>712.6</ele>
        <time>2022-07-16T05:17:53Z</time>
      </trkpt>
      <trkpt lat="44.89726" lon="5.85018">
        <ele>712.7</ele>
        <time>2022-07-16T05:17:54Z</time>
      </trkpt>
      <trkpt lat="44.8973" lon="5.85014">
        <ele>712.7</ele>
        <time>2022-07-16T05:17:55Z</time>
      </trkpt>
      <trkpt lat="44.89734" lon="5.85009">
        <ele>712.8</ele>
        <time>2022-07-16T05:17:56Z</time>
      </trkpt>
      <trkpt lat="44.89736" lon="5.85007">
        <ele>712.9</ele>
        <time>2022-07-16T05:17:57Z</time>
      </trkpt>
      <trkpt lat="44.89742" lon="5.85002">
        <ele>713</ele>
        <time>2022-07-16T05:17:58Z</time>
      </trkpt>
      <trkpt lat="44.89747" lon="5.84998">
        <ele>713.2</ele>
        <time>2022-07-16T05:17:59Z</time>
      </trkpt>
      <trkpt lat="44.89749" lon="5.84996">
        <ele>713.3</ele>
        <time>2022-07-16T05:18:00Z</time>
      </trkpt>
      <trkpt lat="44.89753" lon="5.84992">
        <ele>713.4</ele>
        <time>2022-07-16T05:18:01Z</time>
      </trkpt>
      <trkpt lat="44.89756" lon="5.84989">
        <ele>713.5</ele>
        <time>2022-07-16T05:18:02Z</time>
      </trkpt>
      <trkpt lat="44.89759" lon="5.84984">
        <ele>713.6</ele>
        <time>2022-07-16T05:18:03Z</time>
      </trkpt>
      <trkpt lat="44.89762" lon="5.8498">
        <ele>713.7</ele>
        <time>2022-07-16T05:18:04Z</time>
      </trkpt>
      <trkpt lat="44.89765" lon="5.84975">
        <ele>713.8</ele>
        <time>2022-07-16T05:18:05Z</time>
      </trkpt>
      <trkpt lat="44.89768" lon="5.84971">
        <ele>713.9</ele>
        <time>2022-07-16T05:18:06Z</time>
      </trkpt>
      <trkpt lat="44.8977" lon="5.84966">
        <ele>714</ele>
        <time>2022-07-16T05:18:07Z</time>
      </trkpt>
      <trkpt lat="44.89773" lon="5.84961">
        <ele>714.1</ele>
        <time>2022-07-16T05:18:08Z</time>
      </trkpt>
      <trkpt lat="44.89776" lon="5.84956">
        <ele>714.2</ele>
        <time>2022-07-16T05:18:09Z</time>
      </trkpt>
      <trkpt lat="44.89778" lon="5.84951">
        <ele>714.3</ele>
        <time>2022-07-16T05:18:10Z</time>
      </trkpt>
      <trkpt lat="44.8978" lon="5.84946">
        <ele>714.4</ele>
        <time>2022-07-16T05:18:11Z</time>
      </trkpt>
      <trkpt lat="44.89782" lon="5.8494">
        <ele>714.6</ele>
        <time>2022-07-16T05:18:12Z</time>
      </trkpt>
      <trkpt lat="44.89784" lon="5.84936">
        <ele>714.7</ele>
        <time>2022-07-16T05:18:13Z</time>
      </trkpt>
      <trkpt lat="44.89786" lon="5.84931">
        <ele>714.8</ele>
        <time>2022-07-16T05:18:14Z</time>
      </trkpt>
      <trkpt lat="44.89788" lon="5.84926">
        <ele>714.9</ele>
        <time>2022-07-16T05:18:15Z</time>
      </trkpt>
      <trkpt lat="44.89791" lon="5.84921">
        <ele>715</ele>
        <time>2022-07-16T05:18:16Z</time>
      </trkpt>
      <trkpt lat="44.89794" lon="5.84914">
        <ele>715.2</ele>
        <time>2022-07-16T05:18:17Z</time>
      </trkpt>
      <trkpt lat="44.89796" lon="5.84909">
        <ele>715.3</ele>
        <time>2022-07-16T05:18:18Z</time>
      </trkpt>
      <trkpt lat="44.89798" lon="5.84904">
        <ele>715.4</ele>
        <time>2022-07-16T05:18:19Z</time>
      </trkpt>
      <trkpt lat="44.89801" lon="5.84898">
        <ele>715.5</ele>
        <time>2022-07-16T05:18:20Z</time>
      </trkpt>
      <trkpt lat="44.89803" lon="5.84893">
        <ele>715.6</ele>
        <time>2022-07-16T05:18:21Z</time>
      </trkpt>
      <trkpt lat="44.89804" lon="5.84887">
        <ele>715.7</ele>
        <time>2022-07-16T05:18:22Z</time>
      </trkpt>
      <trkpt lat="44.89806" lon="5.84879">
        <ele>715.8</ele>
        <time>2022-07-16T05:18:23Z</time>
      </trkpt>
      <trkpt lat="44.89809" lon="5.84873">
        <ele>715.9</ele>
        <time>2022-07-16T05:18:24Z</time>
      </trkpt>
      <trkpt lat="44.89811" lon="5.84867">
        <ele>716</ele>
        <time>2022-07-16T05:18:25Z</time>
      </trkpt>
      <trkpt lat="44.89813" lon="5.84861">
        <ele>716.1</ele>
        <time>2022-07-16T05:18:26Z</time>
      </trkpt>
      <trkpt lat="44.89815" lon="5.84854">
        <ele>716.2</ele>
        <time>2022-07-16T05:18:27Z</time>
      </trkpt>
      <trkpt lat="44.89816" lon="5.84847">
        <ele>716.3</ele>
        <time>2022-07-16T05:18:28Z</time>
      </trkpt>
      <trkpt lat="44.89819" lon="5.84841">
        <ele>716.4</ele>
        <time>2022-07-16T05:18:29Z</time>
      </trkpt>
      <trkpt lat="44.89821" lon="5.84834">
        <ele>716.6</ele>
        <time>2022-07-16T05:18:30Z</time>
      </trkpt>
      <trkpt lat="44.89823" lon="5.84828">
        <ele>716.7</ele>
        <time>2022-07-16T05:18:31Z</time>
      </trkpt>
      <trkpt lat="44.89824" lon="5.84822">
        <ele>716.8</ele>
        <time>2022-07-16T05:18:32Z</time>
      </trkpt>
      <trkpt lat="44.89825" lon="5.84815">
        <ele>716.9</ele>
        <time>2022-07-16T05:18:33Z</time>
      </trkpt>
      <trkpt lat="44.89827" lon="5.84809">
        <ele>717</ele>
        <time>2022-07-16T05:18:34Z</time>
      </trkpt>
      <trkpt lat="44.89828" lon="5.84802">
        <ele>717.2</ele>
        <time>2022-07-16T05:18:35Z</time>
      </trkpt>
      <trkpt lat="44.8983" lon="5.84795">
        <ele>717.3</ele>
        <time>2022-07-16T05:18:36Z</time>
      </trkpt>
      <trkpt lat="44.89832" lon="5.84789">
        <ele>717.4</ele>
        <time>2022-07-16T05:18:37Z</time>
      </trkpt>
      <trkpt lat="44.89834" lon="5.84783">
        <ele>717.5</ele>
        <time>2022-07-16T05:18:38Z</time>
      </trkpt>
      <trkpt lat="44.89836" lon="5.84777">
        <ele>717.6</ele>
        <time>2022-07-16T05:18:39Z</time>
      </trkpt>
      <trkpt lat="44.89837" lon="5.8477">
        <ele>717.8</ele>
        <time>2022-07-16T05:18:40Z</time>
      </trkpt>
      <trkpt lat="44.89839" lon="5.84764">
        <ele>717.9</ele>
        <time>2022-07-16T05:18:41Z</time>
      </trkpt>
      <trkpt lat="44.89841" lon="5.84758">
        <ele>718</ele>
        <time>2022-07-16T05:18:42Z</time>
      </trkpt>
      <trkpt lat="44.89843" lon="5.84752">
        <ele>718.2</ele>
        <time>2022-07-16T05:18:43Z</time>
      </trkpt>
      <trkpt lat="44.89845" lon="5.84746">
        <ele>718.3</ele>
        <time>2022-07-16T05:18:44Z</time>
      </trkpt>
      <trkpt lat="44.89846" lon="5.8474">
        <ele>718.4</ele>
        <time>2022-07-16T05:18:45Z</time>
      </trkpt>
      <trkpt lat="44.89849" lon="5.84734">
        <ele>718.5</ele>
        <time>2022-07-16T05:18:46Z</time>
      </trkpt>
      <trkpt lat="44.89851" lon="5.84727">
        <ele>718.7</ele>
        <time>2022-07-16T05:18:47Z</time>
      </trkpt>
      <trkpt lat="44.89853" lon="5.84722">
        <ele>718.8</ele>
        <time>2022-07-16T05:18:48Z</time>
      </trkpt>
      <trkpt lat="44.89856" lon="5.84716">
        <ele>718.9</ele>
        <time>2022-07-16T05:18:49Z</time>
      </trkpt>
      <trkpt lat="44.89859" lon="5.84711">
        <ele>719.1</ele>
        <time>2022-07-16T05:18:50Z</time>
      </trkpt>
      <trkpt lat="44.89862" lon="5.84705">
        <ele>719.2</ele>
        <time>2022-07-16T05:18:51Z</time>
      </trkpt>
      <trkpt lat="44.89865" lon="5.847">
        <ele>719.3</ele>
        <time>2022-07-16T05:18:52Z</time>
      </trkpt>
      <trkpt lat="44.89868" lon="5.84696">
        <ele>719.4</ele>
        <time>2022-07-16T05:18:53Z</time>
      </trkpt>
      <trkpt lat="44.89872" lon="5.84692">
        <ele>719.5</ele>
        <time>2022-07-16T05:18:54Z</time>
      </trkpt>
      <trkpt lat="44.89876" lon="5.84688">
        <ele>719.7</ele>
        <time>2022-07-16T05:18:55Z</time>
      </trkpt>
      <trkpt lat="44.8988" lon="5.84684">
        <ele>719.8</ele>
        <time>2022-07-16T05:18:56Z</time>
      </trkpt>
      <trkpt lat="44.89884" lon="5.8468">
        <ele>719.9</ele>
        <time>2022-07-16T05:18:57Z</time>
      </trkpt>
      <trkpt lat="44.89888" lon="5.84676">
        <ele>720.1</ele>
        <time>2022-07-16T05:18:58Z</time>
      </trkpt>
      <trkpt lat="44.89893" lon="5.84674">
        <ele>720.2</ele>
        <time>2022-07-16T05:18:59Z</time>
      </trkpt>
      <trkpt lat="44.89896" lon="5.84673">
        <ele>720.3</ele>
        <time>2022-07-16T05:19:00Z</time>
      </trkpt>
      <trkpt lat="44.899" lon="5.84671">
        <ele>720.4</ele>
        <time>2022-07-16T05:19:01Z</time>
      </trkpt>
      <trkpt lat="44.89904" lon="5.84669">
        <ele>720.5</ele>
        <time>2022-07-16T05:19:02Z</time>
      </trkpt>
      <trkpt lat="44.89907" lon="5.84668">
        <ele>720.6</ele>
        <time>2022-07-16T05:19:03Z</time>
      </trkpt>
      <trkpt lat="44.89912" lon="5.84666">
        <ele>720.8</ele>
        <time>2022-07-16T05:19:04Z</time>
      </trkpt>
      <trkpt lat="44.89916" lon="5.84664">
        <ele>720.9</ele>
        <time>2022-07-16T05:19:05Z</time>
      </trkpt>
      <trkpt lat="44.89922" lon="5.84664">
        <ele>721</ele>
        <time>2022-07-16T05:19:06Z</time>
      </trkpt>
      <trkpt lat="44.89927" lon="5.84663">
        <ele>721.1</ele>
        <time>2022-07-16T05:19:07Z</time>
      </trkpt>
      <trkpt lat="44.89931" lon="5.84663">
        <ele>721.3</ele>
        <time>2022-07-16T05:19:08Z</time>
      </trkpt>
      <trkpt lat="44.89935" lon="5.84665">
        <ele>721.4</ele>
        <time>2022-07-16T05:19:09Z</time>
      </trkpt>
      <trkpt lat="44.8994" lon="5.84665">
        <ele>721.5</ele>
        <time>2022-07-16T05:19:10Z</time>
      </trkpt>
      <trkpt lat="44.89945" lon="5.84667">
        <ele>721.7</ele>
        <time>2022-07-16T05:19:11Z</time>
      </trkpt>
      <trkpt lat="44.89949" lon="5.84668">
        <ele>721.8</ele>
        <time>2022-07-16T05:19:12Z</time>
      </trkpt>
      <trkpt lat="44.89953" lon="5.84669">
        <ele>722</ele>
        <time>2022-07-16T05:19:13Z</time>
      </trkpt>
      <trkpt lat="44.89958" lon="5.8467">
        <ele>722.1</ele>
        <time>2022-07-16T05:19:14Z</time>
      </trkpt>
      <trkpt lat="44.89963" lon="5.84671">
        <ele>722.3</ele>
        <time>2022-07-16T05:19:15Z</time>
      </trkpt>
      <trkpt lat="44.89967" lon="5.84673">
        <ele>722.4</ele>
        <time>2022-07-16T05:19:16Z</time>
      </trkpt>
      <trkpt lat="44.89972" lon="5.84674">
        <ele>722.5</ele>
        <time>2022-07-16T05:19:17Z</time>
      </trkpt>
      <trkpt lat="44.89976" lon="5.84674">
        <ele>722.7</ele>
        <time>2022-07-16T05:19:18Z</time>
      </trkpt>
      <trkpt lat="44.89981" lon="5.84676">
        <ele>722.8</ele>
        <time>2022-07-16T05:19:19Z</time>
      </trkpt>
      <trkpt lat="44.89985" lon="5.84678">
        <ele>723</ele>
        <time>2022-07-16T05:19:20Z</time>
      </trkpt>
      <trkpt lat="44.89991" lon="5.84679">
        <ele>723.1</ele>
        <time>2022-07-16T05:19:21Z</time>
      </trkpt>
      <trkpt lat="44.89996" lon="5.84679">
        <ele>723.3</ele>
        <time>2022-07-16T05:19:22Z</time>
      </trkpt>
      <trkpt lat="44.9" lon="5.84679">
        <ele>723.4</ele>
        <time>2022-07-16T05:19:23Z</time>
      </trkpt>
      <trkpt lat="44.90005" lon="5.84679">
        <ele>723.6</ele>
        <time>2022-07-16T05:19:24Z</time>
      </trkpt>
      <trkpt lat="44.9001" lon="5.84679">
        <ele>723.7</ele>
        <time>2022-07-16T05:19:25Z</time>
      </trkpt>
      <trkpt lat="44.90014" lon="5.84678">
        <ele>723.8</ele>
        <time>2022-07-16T05:19:26Z</time>
      </trkpt>
      <trkpt lat="44.90018" lon="5.84678">
        <ele>723.9</ele>
        <time>2022-07-16T05:19:27Z</time>
      </trkpt>
      <trkpt lat="44.90023" lon="5.84676">
        <ele>724</ele>
        <time>2022-07-16T05:19:28Z</time>
      </trkpt>
      <trkpt lat="44.90027" lon="5.84675">
        <ele>724.1</ele>
        <time>2022-07-16T05:19:29Z</time>
      </trkpt>
      <trkpt lat="44.90031" lon="5.84673">
        <ele>724.2</ele>
        <time>2022-07-16T05:19:30Z</time>
      </trkpt>
      <trkpt lat="44.90036" lon="5.84671">
        <ele>724.3</ele>
        <time>2022-07-16T05:19:31Z</time>
      </trkpt>
      <trkpt lat="44.90041" lon="5.84668">
        <ele>724.5</ele>
        <time>2022-07-16T05:19:32Z</time>
      </trkpt>
      <trkpt lat="44.90045" lon="5.84665">
        <ele>724.6</ele>
        <time>2022-07-16T05:19:33Z</time>
      </trkpt>
      <trkpt lat="44.90049" lon="5.84662">
        <ele>724.7</ele>
        <time>2022-07-16T05:19:34Z</time>
      </trkpt>
      <trkpt lat="44.90054" lon="5.84658">
        <ele>724.9</ele>
        <time>2022-07-16T05:19:35Z</time>
      </trkpt>
      <trkpt lat="44.90057" lon="5.84654">
        <ele>725</ele>
        <time>2022-07-16T05:19:36Z</time>
      </trkpt>
      <trkpt lat="44.90061" lon="5.8465">
        <ele>725.1</ele>
        <time>2022-07-16T05:19:37Z</time>
      </trkpt>
      <trkpt lat="44.90063" lon="5.84647">
        <ele>725.2</ele>
        <time>2022-07-16T05:19:38Z</time>
      </trkpt>
      <trkpt lat="44.90066" lon="5.84644">
        <ele>725.3</ele>
        <time>2022-07-16T05:19:39Z</time>
      </trkpt>
      <trkpt lat="44.90069" lon="5.84639">
        <ele>725.5</ele>
        <time>2022-07-16T05:19:40Z</time>
      </trkpt>
      <trkpt lat="44.90071" lon="5.84635">
        <ele>725.6</ele>
        <time>2022-07-16T05:19:41Z</time>
      </trkpt>
      <trkpt lat="44.90074" lon="5.8463">
        <ele>725.7</ele>
        <time>2022-07-16T05:19:42Z</time>
      </trkpt>
      <trkpt lat="44.90077" lon="5.84623">
        <ele>725.8</ele>
        <time>2022-07-16T05:19:43Z</time>
      </trkpt>
      <trkpt lat="44.9008" lon="5.84617">
        <ele>726</ele>
        <time>2022-07-16T05:19:44Z</time>
      </trkpt>
      <trkpt lat="44.90083" lon="5.84612">
        <ele>726.1</ele>
        <time>2022-07-16T05:19:45Z</time>
      </trkpt>
      <trkpt lat="44.90087" lon="5.84607">
        <ele>726.3</ele>
        <time>2022-07-16T05:19:46Z</time>
      </trkpt>
      <trkpt lat="44.9009" lon="5.84602">
        <ele>726.4</ele>
        <time>2022-07-16T05:19:47Z</time>
      </trkpt>
      <trkpt lat="44.90093" lon="5.84597">
        <ele>726.5</ele>
        <time>2022-07-16T05:19:48Z</time>
      </trkpt>
      <trkpt lat="44.90097" lon="5.84591">
        <ele>726.7</ele>
        <time>2022-07-16T05:19:49Z</time>
      </trkpt>
      <trkpt lat="44.901" lon="5.84586">
        <ele>726.8</ele>
        <time>2022-07-16T05:19:50Z</time>
      </trkpt>
      <trkpt lat="44.90103" lon="5.84582">
        <ele>727</ele>
        <time>2022-07-16T05:19:51Z</time>
      </trkpt>
      <trkpt lat="44.90106" lon="5.84579">
        <ele>727</ele>
        <time>2022-07-16T05:19:52Z</time>
      </trkpt>
      <trkpt lat="44.9011" lon="5.84575">
        <ele>727.2</ele>
        <time>2022-07-16T05:19:53Z</time>
      </trkpt>
      <trkpt lat="44.90112" lon="5.84574">
        <ele>727.2</ele>
        <time>2022-07-16T05:19:54Z</time>
      </trkpt>
      <trkpt lat="44.90117" lon="5.8457">
        <ele>727.3</ele>
        <time>2022-07-16T05:19:55Z</time>
      </trkpt>
      <trkpt lat="44.9012" lon="5.84567">
        <ele>727.4</ele>
        <time>2022-07-16T05:19:56Z</time>
      </trkpt>
      <trkpt lat="44.90125" lon="5.84565">
        <ele>727.5</ele>
        <time>2022-07-16T05:19:57Z</time>
      </trkpt>
      <trkpt lat="44.90129" lon="5.84565">
        <ele>727.6</ele>
        <time>2022-07-16T05:19:58Z</time>
      </trkpt>
      <trkpt lat="44.90134" lon="5.84562">
        <ele>727.6</ele>
        <time>2022-07-16T05:19:59Z</time>
      </trkpt>
      <trkpt lat="44.90137" lon="5.8456">
        <ele>727.7</ele>
        <time>2022-07-16T05:20:00Z</time>
      </trkpt>
      <trkpt lat="44.90141" lon="5.84558">
        <ele>727.8</ele>
        <time>2022-07-16T05:20:01Z</time>
      </trkpt>
      <trkpt lat="44.90144" lon="5.84556">
        <ele>727.8</ele>
        <time>2022-07-16T05:20:02Z</time>
      </trkpt>
      <trkpt lat="44.90149" lon="5.84552">
        <ele>727.9</ele>
        <time>2022-07-16T05:20:03Z</time>
      </trkpt>
      <trkpt lat="44.90152" lon="5.8455">
        <ele>728</ele>
        <time>2022-07-16T05:20:04Z</time>
      </trkpt>
      <trkpt lat="44.90158" lon="5.84546">
        <ele>728</ele>
        <time>2022-07-16T05:20:05Z</time>
      </trkpt>
      <trkpt lat="44.90163" lon="5.84543">
        <ele>728.1</ele>
        <time>2022-07-16T05:20:06Z</time>
      </trkpt>
      <trkpt lat="44.90167" lon="5.8454">
        <ele>728.2</ele>
        <time>2022-07-16T05:20:07Z</time>
      </trkpt>
      <trkpt lat="44.90172" lon="5.84538">
        <ele>728.3</ele>
        <time>2022-07-16T05:20:08Z</time>
      </trkpt>
      <trkpt lat="44.90177" lon="5.84535">
        <ele>728.5</ele>
        <time>2022-07-16T05:20:09Z</time>
      </trkpt>
      <trkpt lat="44.90182" lon="5.84533">
        <ele>728.6</ele>
        <time>2022-07-16T05:20:10Z</time>
      </trkpt>
      <trkpt lat="44.90186" lon="5.8453">
        <ele>728.7</ele>
        <time>2022-07-16T05:20:11Z</time>
      </trkpt>
      <trkpt lat="44.9019" lon="5.84527">
        <ele>728.8</ele>
        <time>2022-07-16T05:20:12Z</time>
      </trkpt>
      <trkpt lat="44.90193" lon="5.84524">
        <ele>729</ele>
        <time>2022-07-16T05:20:13Z</time>
      </trkpt>
      <trkpt lat="44.90197" lon="5.8452">
        <ele>729.1</ele>
        <time>2022-07-16T05:20:14Z</time>
      </trkpt>
      <trkpt lat="44.90201" lon="5.84516">
        <ele>729.3</ele>
        <time>2022-07-16T05:20:15Z</time>
      </trkpt>
      <trkpt lat="44.90205" lon="5.84511">
        <ele>729.5</ele>
        <time>2022-07-16T05:20:16Z</time>
      </trkpt>
      <trkpt lat="44.90208" lon="5.84506">
        <ele>729.7</ele>
        <time>2022-07-16T05:20:17Z</time>
      </trkpt>
      <trkpt lat="44.9021" lon="5.84503">
        <ele>729.8</ele>
        <time>2022-07-16T05:20:18Z</time>
      </trkpt>
      <trkpt lat="44.90213" lon="5.84496">
        <ele>730</ele>
        <time>2022-07-16T05:20:19Z</time>
      </trkpt>
      <trkpt lat="44.90216" lon="5.84491">
        <ele>730.2</ele>
        <time>2022-07-16T05:20:20Z</time>
      </trkpt>
      <trkpt lat="44.90217" lon="5.84485">
        <ele>730.4</ele>
        <time>2022-07-16T05:20:21Z</time>
      </trkpt>
      <trkpt lat="44.90218" lon="5.84482">
        <ele>730.4</ele>
        <time>2022-07-16T05:20:22Z</time>
      </trkpt>
      <trkpt lat="44.9022" lon="5.84475">
        <ele>730.6</ele>
        <time>2022-07-16T05:20:23Z</time>
      </trkpt>
      <trkpt lat="44.90221" lon="5.84468">
        <ele>730.7</ele>
        <time>2022-07-16T05:20:24Z</time>
      </trkpt>
      <trkpt lat="44.90223" lon="5.84462">
        <ele>730.8</ele>
        <time>2022-07-16T05:20:25Z</time>
      </trkpt>
      <trkpt lat="44.90224" lon="5.84458">
        <ele>730.9</ele>
        <time>2022-07-16T05:20:26Z</time>
      </trkpt>
      <trkpt lat="44.90225" lon="5.84452">
        <ele>731</ele>
        <time>2022-07-16T05:20:27Z</time>
      </trkpt>
      <trkpt lat="44.90226" lon="5.84445">
        <ele>731.2</ele>
        <time>2022-07-16T05:20:28Z</time>
      </trkpt>
      <trkpt lat="44.90227" lon="5.8444">
        <ele>731.3</ele>
        <time>2022-07-16T05:20:29Z</time>
      </trkpt>
      <trkpt lat="44.90227" lon="5.84434">
        <ele>731.4</ele>
        <time>2022-07-16T05:20:30Z</time>
      </trkpt>
      <trkpt lat="44.90227" lon="5.84428">
        <ele>731.5</ele>
        <time>2022-07-16T05:20:31Z</time>
      </trkpt>
      <trkpt lat="44.90227" lon="5.84422">
        <ele>731.6</ele>
        <time>2022-07-16T05:20:32Z</time>
      </trkpt>
      <trkpt lat="44.90226" lon="5.84416">
        <ele>731.8</ele>
        <time>2022-07-16T05:20:33Z</time>
      </trkpt>
      <trkpt lat="44.90226" lon="5.84408">
        <ele>731.9</ele>
        <time>2022-07-16T05:20:34Z</time>
      </trkpt>
      <trkpt lat="44.90225" lon="5.84402">
        <ele>732</ele>
        <time>2022-07-16T05:20:35Z</time>
      </trkpt>
      <trkpt lat="44.90224" lon="5.84394">
        <ele>732.2</ele>
        <time>2022-07-16T05:20:36Z</time>
      </trkpt>
      <trkpt lat="44.90222" lon="5.84387">
        <ele>732.4</ele>
        <time>2022-07-16T05:20:37Z</time>
      </trkpt>
      <trkpt lat="44.90221" lon="5.8438">
        <ele>732.5</ele>
        <time>2022-07-16T05:20:38Z</time>
      </trkpt>
      <trkpt lat="44.9022" lon="5.84374">
        <ele>732.6</ele>
        <time>2022-07-16T05:20:39Z</time>
      </trkpt>
      <trkpt lat="44.90219" lon="5.84367">
        <ele>732.8</ele>
        <time>2022-07-16T05:20:40Z</time>
      </trkpt>
      <trkpt lat="44.90219" lon="5.84361">
        <ele>732.9</ele>
        <time>2022-07-16T05:20:41Z</time>
      </trkpt>
      <trkpt lat="44.90217" lon="5.84354">
        <ele>733</ele>
        <time>2022-07-16T05:20:42Z</time>
      </trkpt>
      <trkpt lat="44.90216" lon="5.84348">
        <ele>733.1</ele>
        <time>2022-07-16T05:20:43Z</time>
      </trkpt>
      <trkpt lat="44.90215" lon="5.84343">
        <ele>733.2</ele>
        <time>2022-07-16T05:20:44Z</time>
      </trkpt>
      <trkpt lat="44.90213" lon="5.84336">
        <ele>733.3</ele>
        <time>2022-07-16T05:20:45Z</time>
      </trkpt>
      <trkpt lat="44.90211" lon="5.8433">
        <ele>733.4</ele>
        <time>2022-07-16T05:20:46Z</time>
      </trkpt>
      <trkpt lat="44.90209" lon="5.84325">
        <ele>733.5</ele>
        <time>2022-07-16T05:20:47Z</time>
      </trkpt>
      <trkpt lat="44.90207" lon="5.84319">
        <ele>733.7</ele>
        <time>2022-07-16T05:20:48Z</time>
      </trkpt>
      <trkpt lat="44.90206" lon="5.84313">
        <ele>733.8</ele>
        <time>2022-07-16T05:20:49Z</time>
      </trkpt>
      <trkpt lat="44.90205" lon="5.84307">
        <ele>733.9</ele>
        <time>2022-07-16T05:20:50Z</time>
      </trkpt>
      <trkpt lat="44.90204" lon="5.84303">
        <ele>734</ele>
        <time>2022-07-16T05:20:51Z</time>
      </trkpt>
      <trkpt lat="44.90203" lon="5.84297">
        <ele>734.1</ele>
        <time>2022-07-16T05:20:52Z</time>
      </trkpt>
      <trkpt lat="44.90202" lon="5.8429">
        <ele>734.2</ele>
        <time>2022-07-16T05:20:53Z</time>
      </trkpt>
      <trkpt lat="44.902" lon="5.84285">
        <ele>734.4</ele>
        <time>2022-07-16T05:20:54Z</time>
      </trkpt>
      <trkpt lat="44.90199" lon="5.8428">
        <ele>734.5</ele>
        <time>2022-07-16T05:20:55Z</time>
      </trkpt>
      <trkpt lat="44.90197" lon="5.84274">
        <ele>734.7</ele>
        <time>2022-07-16T05:20:56Z</time>
      </trkpt>
      <trkpt lat="44.90196" lon="5.84267">
        <ele>734.8</ele>
        <time>2022-07-16T05:20:57Z</time>
      </trkpt>
      <trkpt lat="44.90194" lon="5.84263">
        <ele>735</ele>
        <time>2022-07-16T05:20:58Z</time>
      </trkpt>
      <trkpt lat="44.90194" lon="5.84258">
        <ele>735.1</ele>
        <time>2022-07-16T05:20:59Z</time>
      </trkpt>
      <trkpt lat="44.90194" lon="5.84256">
        <ele>735.1</ele>
        <time>2022-07-16T05:21:00Z</time>
      </trkpt>
      <trkpt lat="44.90194" lon="5.84255">
        <ele>735.2</ele>
        <time>2022-07-16T05:21:01Z</time>
      </trkpt>
      <trkpt lat="44.90194" lon="5.84255">
        <ele>735.2</ele>
        <time>2022-07-16T05:21:02Z</time>
      </trkpt>
      <trkpt lat="44.90194" lon="5.84254">
        <ele>735.2</ele>
        <time>2022-07-16T05:21:03Z</time>
      </trkpt>
      <trkpt lat="44.90194" lon="5.84254">
        <ele>735.2</ele>
        <time>2022-07-16T05:21:04Z</time>
      </trkpt>
      <trkpt lat="44.90193" lon="5.84253">
        <ele>735.2</ele>
        <time>2022-07-16T05:21:05Z</time>
      </trkpt>
      <trkpt lat="44.90193" lon="5.84252">
        <ele>735.3</ele>
        <time>2022-07-16T05:21:06Z</time>
      </trkpt>
      <trkpt lat="44.90193" lon="5.84252">
        <ele>735.3</ele>
        <time>2022-07-16T05:21:07Z</time>
      </trkpt>
      <trkpt lat="44.90193" lon="5.84251">
        <ele>735.3</ele>
        <time>2022-07-16T05:21:08Z</time>
      </trkpt>
      <trkpt lat="44.90193" lon="5.84251">
        <ele>735.3</ele>
        <time>2022-07-16T05:21:09Z</time>
      </trkpt>
      <trkpt lat="44.90193" lon="5.8425">
        <ele>735.3</ele>
        <time>2022-07-16T05:21:10Z</time>
      </trkpt>
      <trkpt lat="44.90193" lon="5.84249">
        <ele>735.3</ele>
        <time>2022-07-16T05:21:11Z</time>
      </trkpt>
      <trkpt lat="44.90192" lon="5.84249">
        <ele>735.4</ele>
        <time>2022-07-16T05:21:12Z</time>
      </trkpt>
      <trkpt lat="44.90192" lon="5.84248">
        <ele>735.4</ele>
        <time>2022-07-16T05:21:13Z</time>
      </trkpt>
      <trkpt lat="44.90192" lon="5.84248">
        <ele>735.4</ele>
        <time>2022-07-16T05:21:14Z</time>
      </trkpt>
      <trkpt lat="44.90192" lon="5.84247">
        <ele>735.4</ele>
        <time>2022-07-16T05:21:15Z</time>
      </trkpt>
      <trkpt lat="44.90192" lon="5.84246">
        <ele>735.4</ele>
        <time>2022-07-16T05:21:16Z</time>
      </trkpt>
      <trkpt lat="44.90192" lon="5.84246">
        <ele>735.5</ele>
        <time>2022-07-16T05:21:36Z</time>
      </trkpt>
      <trkpt lat="44.90192" lon="5.84245">
        <ele>735.5</ele>
        <time>2022-07-16T05:21:37Z</time>
      </trkpt>
      <trkpt lat="44.90192" lon="5.84245">
        <ele>735.5</ele>
        <time>2022-07-16T05:21:38Z</time>
      </trkpt>
      <trkpt lat="44.9019" lon="5.8424">
        <ele>735.6</ele>
        <time>2022-07-16T05:21:39Z</time>
      </trkpt>
      <trkpt lat="44.90189" lon="5.84236">
        <ele>735.8</ele>
        <time>2022-07-16T05:21:40Z</time>
      </trkpt>
      <trkpt lat="44.90187" lon="5.84233">
        <ele>735.9</ele>
        <time>2022-07-16T05:21:41Z</time>
      </trkpt>
      <trkpt lat="44.90184" lon="5.84228">
        <ele>736</ele>
        <time>2022-07-16T05:21:42Z</time>
      </trkpt>
      <trkpt lat="44.90183" lon="5.84223">
        <ele>736.2</ele>
        <time>2022-07-16T05:21:43Z</time>
      </trkpt>
      <trkpt lat="44.90181" lon="5.84219">
        <ele>736.3</ele>
        <time>2022-07-16T05:21:44Z</time>
      </trkpt>
      <trkpt lat="44.9018" lon="5.84213">
        <ele>736.5</ele>
        <time>2022-07-16T05:21:45Z</time>
      </trkpt>
      <trkpt lat="44.90179" lon="5.84208">
        <ele>736.6</ele>
        <time>2022-07-16T05:21:46Z</time>
      </trkpt>
      <trkpt lat="44.90177" lon="5.84202">
        <ele>736.8</ele>
        <time>2022-07-16T05:21:47Z</time>
      </trkpt>
      <trkpt lat="44.90176" lon="5.84197">
        <ele>736.9</ele>
        <time>2022-07-16T05:21:48Z</time>
      </trkpt>
      <trkpt lat="44.90174" lon="5.84192">
        <ele>737.1</ele>
        <time>2022-07-16T05:21:49Z</time>
      </trkpt>
      <trkpt lat="44.90173" lon="5.84187">
        <ele>737.3</ele>
        <time>2022-07-16T05:21:50Z</time>
      </trkpt>
      <trkpt lat="44.90172" lon="5.8418">
        <ele>737.4</ele>
        <time>2022-07-16T05:21:51Z</time>
      </trkpt>
      <trkpt lat="44.90171" lon="5.84175">
        <ele>737.6</ele>
        <time>2022-07-16T05:21:52Z</time>
      </trkpt>
      <trkpt lat="44.9017" lon="5.84169">
        <ele>737.7</ele>
        <time>2022-07-16T05:21:53Z</time>
      </trkpt>
      <trkpt lat="44.9017" lon="5.84162">
        <ele>737.8</ele>
        <time>2022-07-16T05:21:54Z</time>
      </trkpt>
      <trkpt lat="44.90169" lon="5.84155">
        <ele>738</ele>
        <time>2022-07-16T05:21:55Z</time>
      </trkpt>
      <trkpt lat="44.90169" lon="5.84148">
        <ele>738.1</ele>
        <time>2022-07-16T05:21:56Z</time>
      </trkpt>
      <trkpt lat="44.9017" lon="5.84142">
        <ele>738.3</ele>
        <time>2022-07-16T05:21:57Z</time>
      </trkpt>
      <trkpt lat="44.9017" lon="5.84135">
        <ele>738.4</ele>
        <time>2022-07-16T05:21:58Z</time>
      </trkpt>
      <trkpt lat="44.90171" lon="5.84128">
        <ele>738.6</ele>
        <time>2022-07-16T05:21:59Z</time>
      </trkpt>
      <trkpt lat="44.90173" lon="5.84122">
        <ele>738.7</ele>
        <time>2022-07-16T05:22:00Z</time>
      </trkpt>
      <trkpt lat="44.90174" lon="5.84115">
        <ele>738.9</ele>
        <time>2022-07-16T05:22:01Z</time>
      </trkpt>
      <trkpt lat="44.90175" lon="5.84109">
        <ele>739</ele>
        <time>2022-07-16T05:22:02Z</time>
      </trkpt>
      <trkpt lat="44.90177" lon="5.84102">
        <ele>739.2</ele>
        <time>2022-07-16T05:22:03Z</time>
      </trkpt>
      <trkpt lat="44.90178" lon="5.84096">
        <ele>739.3</ele>
        <time>2022-07-16T05:22:04Z</time>
      </trkpt>
      <trkpt lat="44.9018" lon="5.8409">
        <ele>739.5</ele>
        <time>2022-07-16T05:22:05Z</time>
      </trkpt>
      <trkpt lat="44.90182" lon="5.84083">
        <ele>739.6</ele>
        <time>2022-07-16T05:22:06Z</time>
      </trkpt>
      <trkpt lat="44.90184" lon="5.84077">
        <ele>739.7</ele>
        <time>2022-07-16T05:22:07Z</time>
      </trkpt>
      <trkpt lat="44.90186" lon="5.84071">
        <ele>739.9</ele>
        <time>2022-07-16T05:22:08Z</time>
      </trkpt>
      <trkpt lat="44.90188" lon="5.84065">
        <ele>740</ele>
        <time>2022-07-16T05:22:09Z</time>
      </trkpt>
      <trkpt lat="44.90189" lon="5.84058">
        <ele>740.2</ele>
        <time>2022-07-16T05:22:10Z</time>
      </trkpt>
      <trkpt lat="44.90191" lon="5.84052">
        <ele>740.3</ele>
        <time>2022-07-16T05:22:11Z</time>
      </trkpt>
      <trkpt lat="44.90193" lon="5.84046">
        <ele>740.5</ele>
        <time>2022-07-16T05:22:12Z</time>
      </trkpt>
      <trkpt lat="44.90195" lon="5.8404">
        <ele>740.6</ele>
        <time>2022-07-16T05:22:13Z</time>
      </trkpt>
      <trkpt lat="44.90196" lon="5.84034">
        <ele>740.8</ele>
        <time>2022-07-16T05:22:14Z</time>
      </trkpt>
      <trkpt lat="44.90198" lon="5.84027">
        <ele>740.8</ele>
        <time>2022-07-16T05:22:15Z</time>
      </trkpt>
      <trkpt lat="44.902" lon="5.84022">
        <ele>740.8</ele>
        <time>2022-07-16T05:22:16Z</time>
      </trkpt>
      <trkpt lat="44.90201" lon="5.84016">
        <ele>740.8</ele>
        <time>2022-07-16T05:22:17Z</time>
      </trkpt>
      <trkpt lat="44.90203" lon="5.84009">
        <ele>740.9</ele>
        <time>2022-07-16T05:22:18Z</time>
      </trkpt>
      <trkpt lat="44.90205" lon="5.84003">
        <ele>740.9</ele>
        <time>2022-07-16T05:22:19Z</time>
      </trkpt>
      <trkpt lat="44.90207" lon="5.83997">
        <ele>741</ele>
        <time>2022-07-16T05:22:20Z</time>
      </trkpt>
      <trkpt lat="44.90209" lon="5.83991">
        <ele>741</ele>
        <time>2022-07-16T05:22:21Z</time>
      </trkpt>
      <trkpt lat="44.90211" lon="5.83985">
        <ele>741.1</ele>
        <time>2022-07-16T05:22:22Z</time>
      </trkpt>
      <trkpt lat="44.90212" lon="5.83978">
        <ele>741.2</ele>
        <time>2022-07-16T05:22:23Z</time>
      </trkpt>
      <trkpt lat="44.90213" lon="5.83974">
        <ele>741.3</ele>
        <time>2022-07-16T05:22:24Z</time>
      </trkpt>
      <trkpt lat="44.90216" lon="5.83967">
        <ele>741.4</ele>
        <time>2022-07-16T05:22:25Z</time>
      </trkpt>
      <trkpt lat="44.90217" lon="5.83962">
        <ele>741.6</ele>
        <time>2022-07-16T05:22:26Z</time>
      </trkpt>
      <trkpt lat="44.90219" lon="5.83957">
        <ele>741.7</ele>
        <time>2022-07-16T05:22:27Z</time>
      </trkpt>
      <trkpt lat="44.90221" lon="5.83951">
        <ele>741.8</ele>
        <time>2022-07-16T05:22:28Z</time>
      </trkpt>
      <trkpt lat="44.90223" lon="5.83945">
        <ele>742</ele>
        <time>2022-07-16T05:22:29Z</time>
      </trkpt>
      <trkpt lat="44.90225" lon="5.8394">
        <ele>742.1</ele>
        <time>2022-07-16T05:22:30Z</time>
      </trkpt>
      <trkpt lat="44.90227" lon="5.83932">
        <ele>742.4</ele>
        <time>2022-07-16T05:22:31Z</time>
      </trkpt>
      <trkpt lat="44.90229" lon="5.83927">
        <ele>742.5</ele>
        <time>2022-07-16T05:22:32Z</time>
      </trkpt>
      <trkpt lat="44.90231" lon="5.83923">
        <ele>742.6</ele>
        <time>2022-07-16T05:22:33Z</time>
      </trkpt>
      <trkpt lat="44.90233" lon="5.83916">
        <ele>742.8</ele>
        <time>2022-07-16T05:22:34Z</time>
      </trkpt>
      <trkpt lat="44.90234" lon="5.83912">
        <ele>743</ele>
        <time>2022-07-16T05:22:35Z</time>
      </trkpt>
      <trkpt lat="44.90236" lon="5.83906">
        <ele>743.1</ele>
        <time>2022-07-16T05:22:36Z</time>
      </trkpt>
      <trkpt lat="44.90239" lon="5.83902">
        <ele>743.3</ele>
        <time>2022-07-16T05:22:37Z</time>
      </trkpt>
      <trkpt lat="44.90241" lon="5.83896">
        <ele>743.4</ele>
        <time>2022-07-16T05:22:38Z</time>
      </trkpt>
      <trkpt lat="44.90243" lon="5.83889">
        <ele>743.6</ele>
        <time>2022-07-16T05:22:39Z</time>
      </trkpt>
      <trkpt lat="44.90245" lon="5.83881">
        <ele>743.8</ele>
        <time>2022-07-16T05:22:40Z</time>
      </trkpt>
      <trkpt lat="44.90247" lon="5.83874">
        <ele>743.9</ele>
        <time>2022-07-16T05:22:41Z</time>
      </trkpt>
      <trkpt lat="44.90248" lon="5.83868">
        <ele>744.1</ele>
        <time>2022-07-16T05:22:42Z</time>
      </trkpt>
      <trkpt lat="44.9025" lon="5.83862">
        <ele>744.3</ele>
        <time>2022-07-16T05:22:43Z</time>
      </trkpt>
      <trkpt lat="44.90252" lon="5.83856">
        <ele>744.4</ele>
        <time>2022-07-16T05:22:44Z</time>
      </trkpt>
      <trkpt lat="44.90253" lon="5.83851">
        <ele>744.6</ele>
        <time>2022-07-16T05:22:45Z</time>
      </trkpt>
      <trkpt lat="44.90255" lon="5.83845">
        <ele>744.8</ele>
        <time>2022-07-16T05:22:46Z</time>
      </trkpt>
      <trkpt lat="44.90256" lon="5.83842">
        <ele>744.9</ele>
        <time>2022-07-16T05:22:47Z</time>
      </trkpt>
      <trkpt lat="44.90257" lon="5.83836">
        <ele>745</ele>
        <time>2022-07-16T05:22:48Z</time>
      </trkpt>
      <trkpt lat="44.90261" lon="5.83831">
        <ele>745.2</ele>
        <time>2022-07-16T05:22:49Z</time>
      </trkpt>
      <trkpt lat="44.90262" lon="5.83827">
        <ele>745.4</ele>
        <time>2022-07-16T05:22:50Z</time>
      </trkpt>
      <trkpt lat="44.90264" lon="5.83823">
        <ele>745.6</ele>
        <time>2022-07-16T05:22:51Z</time>
      </trkpt>
      <trkpt lat="44.90266" lon="5.83819">
        <ele>745.7</ele>
        <time>2022-07-16T05:22:52Z</time>
      </trkpt>
      <trkpt lat="44.90268" lon="5.83814">
        <ele>745.9</ele>
        <time>2022-07-16T05:22:53Z</time>
      </trkpt>
      <trkpt lat="44.9027" lon="5.83807">
        <ele>746.1</ele>
        <time>2022-07-16T05:22:54Z</time>
      </trkpt>
      <trkpt lat="44.90271" lon="5.83803">
        <ele>746.3</ele>
        <time>2022-07-16T05:22:55Z</time>
      </trkpt>
      <trkpt lat="44.90272" lon="5.83797">
        <ele>746.5</ele>
        <time>2022-07-16T05:22:56Z</time>
      </trkpt>
      <trkpt lat="44.90274" lon="5.83792">
        <ele>746.7</ele>
        <time>2022-07-16T05:22:57Z</time>
      </trkpt>
      <trkpt lat="44.90276" lon="5.83786">
        <ele>746.9</ele>
        <time>2022-07-16T05:22:58Z</time>
      </trkpt>
      <trkpt lat="44.90277" lon="5.83782">
        <ele>747</ele>
        <time>2022-07-16T05:22:59Z</time>
      </trkpt>
      <trkpt lat="44.90282" lon="5.83768">
        <ele>747.6</ele>
        <time>2022-07-16T05:23:00Z</time>
      </trkpt>
      <trkpt lat="44.90283" lon="5.83762">
        <ele>747.8</ele>
        <time>2022-07-16T05:23:01Z</time>
      </trkpt>
      <trkpt lat="44.90286" lon="5.83757">
        <ele>748</ele>
        <time>2022-07-16T05:23:02Z</time>
      </trkpt>
      <trkpt lat="44.90287" lon="5.83752">
        <ele>748.2</ele>
        <time>2022-07-16T05:23:03Z</time>
      </trkpt>
      <trkpt lat="44.90291" lon="5.83734">
        <ele>748.8</ele>
        <time>2022-07-16T05:23:06Z</time>
      </trkpt>
      <trkpt lat="44.90292" lon="5.83729">
        <ele>749</ele>
        <time>2022-07-16T05:23:08Z</time>
      </trkpt>
      <trkpt lat="44.90294" lon="5.83723">
        <ele>749.2</ele>
        <time>2022-07-16T05:23:09Z</time>
      </trkpt>
      <trkpt lat="44.90296" lon="5.83714">
        <ele>749.5</ele>
        <time>2022-07-16T05:23:11Z</time>
      </trkpt>
      <trkpt lat="44.90299" lon="5.83702">
        <ele>749.9</ele>
        <time>2022-07-16T05:23:13Z</time>
      </trkpt>
      <trkpt lat="44.90301" lon="5.83694">
        <ele>750.1</ele>
        <time>2022-07-16T05:23:15Z</time>
      </trkpt>
      <trkpt lat="44.90304" lon="5.83682">
        <ele>750.3</ele>
        <time>2022-07-16T05:23:17Z</time>
      </trkpt>
      <trkpt lat="44.90305" lon="5.83678">
        <ele>750.4</ele>
        <time>2022-07-16T05:23:18Z</time>
      </trkpt>
      <trkpt lat="44.90307" lon="5.83668">
        <ele>750.5</ele>
        <time>2022-07-16T05:23:20Z</time>
      </trkpt>
      <trkpt lat="44.9031" lon="5.83657">
        <ele>750.7</ele>
        <time>2022-07-16T05:23:22Z</time>
      </trkpt>
      <trkpt lat="44.90312" lon="5.83651">
        <ele>750.8</ele>
        <time>2022-07-16T05:23:23Z</time>
      </trkpt>
      <trkpt lat="44.90313" lon="5.83645">
        <ele>750.9</ele>
        <time>2022-07-16T05:23:24Z</time>
      </trkpt>
      <trkpt lat="44.90315" lon="5.83635">
        <ele>750.9</ele>
        <time>2022-07-16T05:23:25Z</time>
      </trkpt>
      <trkpt lat="44.90316" lon="5.83628">
        <ele>750.9</ele>
        <time>2022-07-16T05:23:26Z</time>
      </trkpt>
      <trkpt lat="44.90317" lon="5.83624">
        <ele>750.9</ele>
        <time>2022-07-16T05:23:28Z</time>
      </trkpt>
      <trkpt lat="44.9032" lon="5.8361">
        <ele>750.9</ele>
        <time>2022-07-16T05:23:31Z</time>
      </trkpt>
      <trkpt lat="44.9032" lon="5.83603">
        <ele>750.9</ele>
        <time>2022-07-16T05:23:32Z</time>
      </trkpt>
      <trkpt lat="44.9032" lon="5.83596">
        <ele>750.9</ele>
        <time>2022-07-16T05:23:33Z</time>
      </trkpt>
      <trkpt lat="44.90319" lon="5.83589">
        <ele>750.9</ele>
        <time>2022-07-16T05:23:34Z</time>
      </trkpt>
      <trkpt lat="44.90319" lon="5.83581">
        <ele>750.9</ele>
        <time>2022-07-16T05:23:35Z</time>
      </trkpt>
      <trkpt lat="44.90318" lon="5.83574">
        <ele>750.8</ele>
        <time>2022-07-16T05:23:36Z</time>
      </trkpt>
      <trkpt lat="44.90317" lon="5.83567">
        <ele>750.8</ele>
        <time>2022-07-16T05:23:37Z</time>
      </trkpt>
      <trkpt lat="44.90316" lon="5.8356">
        <ele>750.8</ele>
        <time>2022-07-16T05:23:38Z</time>
      </trkpt>
      <trkpt lat="44.90316" lon="5.83553">
        <ele>750.8</ele>
        <time>2022-07-16T05:23:39Z</time>
      </trkpt>
      <trkpt lat="44.90315" lon="5.83546">
        <ele>750.7</ele>
        <time>2022-07-16T05:23:40Z</time>
      </trkpt>
      <trkpt lat="44.90314" lon="5.83539">
        <ele>750.7</ele>
        <time>2022-07-16T05:23:41Z</time>
      </trkpt>
      <trkpt lat="44.90312" lon="5.83532">
        <ele>750.6</ele>
        <time>2022-07-16T05:23:42Z</time>
      </trkpt>
      <trkpt lat="44.90311" lon="5.83526">
        <ele>750.6</ele>
        <time>2022-07-16T05:23:43Z</time>
      </trkpt>
      <trkpt lat="44.90309" lon="5.83519">
        <ele>750.5</ele>
        <time>2022-07-16T05:23:44Z</time>
      </trkpt>
      <trkpt lat="44.90308" lon="5.83513">
        <ele>750.5</ele>
        <time>2022-07-16T05:23:45Z</time>
      </trkpt>
      <trkpt lat="44.90307" lon="5.83506">
        <ele>750.5</ele>
        <time>2022-07-16T05:23:46Z</time>
      </trkpt>
      <trkpt lat="44.90307" lon="5.83501">
        <ele>750.5</ele>
        <time>2022-07-16T05:23:47Z</time>
      </trkpt>
      <trkpt lat="44.90306" lon="5.83494">
        <ele>750.4</ele>
        <time>2022-07-16T05:23:48Z</time>
      </trkpt>
      <trkpt lat="44.90306" lon="5.83488">
        <ele>750.4</ele>
        <time>2022-07-16T05:23:49Z</time>
      </trkpt>
      <trkpt lat="44.90305" lon="5.83481">
        <ele>750.4</ele>
        <time>2022-07-16T05:23:50Z</time>
      </trkpt>
      <trkpt lat="44.90305" lon="5.83471">
        <ele>750.4</ele>
        <time>2022-07-16T05:23:51Z</time>
      </trkpt>
      <trkpt lat="44.90307" lon="5.83454">
        <ele>750.4</ele>
        <time>2022-07-16T05:23:54Z</time>
      </trkpt>
      <trkpt lat="44.90309" lon="5.83448">
        <ele>750.5</ele>
        <time>2022-07-16T05:23:55Z</time>
      </trkpt>
      <trkpt lat="44.9031" lon="5.83442">
        <ele>750.5</ele>
        <time>2022-07-16T05:23:56Z</time>
      </trkpt>
      <trkpt lat="44.90312" lon="5.83436">
        <ele>750.5</ele>
        <time>2022-07-16T05:23:57Z</time>
      </trkpt>
      <trkpt lat="44.90318" lon="5.83421">
        <ele>750.7</ele>
        <time>2022-07-16T05:23:58Z</time>
      </trkpt>
      <trkpt lat="44.90318" lon="5.83415">
        <ele>750.9</ele>
        <time>2022-07-16T05:23:59Z</time>
      </trkpt>
      <trkpt lat="44.90322" lon="5.83416">
        <ele>751.1</ele>
        <time>2022-07-16T05:24:00Z</time>
      </trkpt>
      <trkpt lat="44.90327" lon="5.83408">
        <ele>751.5</ele>
        <time>2022-07-16T05:24:02Z</time>
      </trkpt>
      <trkpt lat="44.90332" lon="5.83405">
        <ele>751.7</ele>
        <time>2022-07-16T05:24:03Z</time>
      </trkpt>
      <trkpt lat="44.90337" lon="5.83402">
        <ele>751.9</ele>
        <time>2022-07-16T05:24:04Z</time>
      </trkpt>
      <trkpt lat="44.90339" lon="5.83399">
        <ele>752.1</ele>
        <time>2022-07-16T05:24:05Z</time>
      </trkpt>
      <trkpt lat="44.90342" lon="5.83395">
        <ele>752.3</ele>
        <time>2022-07-16T05:24:07Z</time>
      </trkpt>
      <trkpt lat="44.90346" lon="5.83389">
        <ele>752.7</ele>
        <time>2022-07-16T05:24:09Z</time>
      </trkpt>
      <trkpt lat="44.90351" lon="5.83383">
        <ele>753</ele>
        <time>2022-07-16T05:24:10Z</time>
      </trkpt>
      <trkpt lat="44.90355" lon="5.83377">
        <ele>753.4</ele>
        <time>2022-07-16T05:24:13Z</time>
      </trkpt>
      <trkpt lat="44.90357" lon="5.83374">
        <ele>753.6</ele>
        <time>2022-07-16T05:24:14Z</time>
      </trkpt>
      <trkpt lat="44.90359" lon="5.83371">
        <ele>753.7</ele>
        <time>2022-07-16T05:24:15Z</time>
      </trkpt>
      <trkpt lat="44.90363" lon="5.83367">
        <ele>754</ele>
        <time>2022-07-16T05:24:16Z</time>
      </trkpt>
      <trkpt lat="44.90369" lon="5.8336">
        <ele>754.5</ele>
        <time>2022-07-16T05:24:18Z</time>
      </trkpt>
      <trkpt lat="44.90372" lon="5.83356">
        <ele>754.8</ele>
        <time>2022-07-16T05:24:19Z</time>
      </trkpt>
      <trkpt lat="44.90375" lon="5.8335">
        <ele>755.1</ele>
        <time>2022-07-16T05:24:20Z</time>
      </trkpt>
      <trkpt lat="44.90379" lon="5.83345">
        <ele>755.4</ele>
        <time>2022-07-16T05:24:22Z</time>
      </trkpt>
      <trkpt lat="44.90381" lon="5.8334">
        <ele>755.6</ele>
        <time>2022-07-16T05:24:23Z</time>
      </trkpt>
      <trkpt lat="44.90384" lon="5.83334">
        <ele>755.9</ele>
        <time>2022-07-16T05:24:26Z</time>
      </trkpt>
      <trkpt lat="44.90388" lon="5.83328">
        <ele>756.3</ele>
        <time>2022-07-16T05:24:27Z</time>
      </trkpt>
      <trkpt lat="44.9039" lon="5.83321">
        <ele>756.6</ele>
        <time>2022-07-16T05:24:30Z</time>
      </trkpt>
      <trkpt lat="44.90393" lon="5.83315">
        <ele>756.9</ele>
        <time>2022-07-16T05:24:31Z</time>
      </trkpt>
      <trkpt lat="44.90395" lon="5.83309">
        <ele>757.2</ele>
        <time>2022-07-16T05:24:32Z</time>
      </trkpt>
      <trkpt lat="44.90396" lon="5.833">
        <ele>757.6</ele>
        <time>2022-07-16T05:24:34Z</time>
      </trkpt>
      <trkpt lat="44.90399" lon="5.83289">
        <ele>758.1</ele>
        <time>2022-07-16T05:24:37Z</time>
      </trkpt>
      <trkpt lat="44.904" lon="5.83282">
        <ele>758.4</ele>
        <time>2022-07-16T05:24:38Z</time>
      </trkpt>
      <trkpt lat="44.90402" lon="5.83273">
        <ele>758.9</ele>
        <time>2022-07-16T05:24:40Z</time>
      </trkpt>
      <trkpt lat="44.90403" lon="5.8326">
        <ele>759.5</ele>
        <time>2022-07-16T05:24:43Z</time>
      </trkpt>
      <trkpt lat="44.90405" lon="5.83251">
        <ele>759.9</ele>
        <time>2022-07-16T05:24:45Z</time>
      </trkpt>
      <trkpt lat="44.90408" lon="5.83238">
        <ele>760.6</ele>
        <time>2022-07-16T05:24:48Z</time>
      </trkpt>
      <trkpt lat="44.90409" lon="5.83233">
        <ele>760.9</ele>
        <time>2022-07-16T05:24:49Z</time>
      </trkpt>
      <trkpt lat="44.9041" lon="5.83224">
        <ele>761.4</ele>
        <time>2022-07-16T05:24:51Z</time>
      </trkpt>
      <trkpt lat="44.90411" lon="5.83217">
        <ele>761.8</ele>
        <time>2022-07-16T05:24:53Z</time>
      </trkpt>
      <trkpt lat="44.90412" lon="5.83209">
        <ele>762.2</ele>
        <time>2022-07-16T05:24:56Z</time>
      </trkpt>
      <trkpt lat="44.90414" lon="5.83204">
        <ele>762.5</ele>
        <time>2022-07-16T05:24:57Z</time>
      </trkpt>
      <trkpt lat="44.90416" lon="5.83196">
        <ele>763</ele>
        <time>2022-07-16T05:24:59Z</time>
      </trkpt>
      <trkpt lat="44.90417" lon="5.83191">
        <ele>763.2</ele>
        <time>2022-07-16T05:25:00Z</time>
      </trkpt>
      <trkpt lat="44.9042" lon="5.83183">
        <ele>763.7</ele>
        <time>2022-07-16T05:25:02Z</time>
      </trkpt>
      <trkpt lat="44.90424" lon="5.83175">
        <ele>764.3</ele>
        <time>2022-07-16T05:25:04Z</time>
      </trkpt>
      <trkpt lat="44.90427" lon="5.83168">
        <ele>764.8</ele>
        <time>2022-07-16T05:25:06Z</time>
      </trkpt>
      <trkpt lat="44.9043" lon="5.83165">
        <ele>765.1</ele>
        <time>2022-07-16T05:25:07Z</time>
      </trkpt>
      <trkpt lat="44.90433" lon="5.8316">
        <ele>765.5</ele>
        <time>2022-07-16T05:25:08Z</time>
      </trkpt>
      <trkpt lat="44.90435" lon="5.83157">
        <ele>765.7</ele>
        <time>2022-07-16T05:25:10Z</time>
      </trkpt>
      <trkpt lat="44.90439" lon="5.83153">
        <ele>766</ele>
        <time>2022-07-16T05:25:11Z</time>
      </trkpt>
      <trkpt lat="44.90444" lon="5.83145">
        <ele>766.6</ele>
        <time>2022-07-16T05:25:14Z</time>
      </trkpt>
      <trkpt lat="44.90449" lon="5.83142">
        <ele>766.9</ele>
        <time>2022-07-16T05:25:16Z</time>
      </trkpt>
      <trkpt lat="44.90454" lon="5.83137">
        <ele>767.4</ele>
        <time>2022-07-16T05:25:18Z</time>
      </trkpt>
      <trkpt lat="44.90462" lon="5.83134">
        <ele>767.9</ele>
        <time>2022-07-16T05:25:21Z</time>
      </trkpt>
      <trkpt lat="44.90468" lon="5.8313">
        <ele>768.4</ele>
        <time>2022-07-16T05:25:23Z</time>
      </trkpt>
      <trkpt lat="44.90477" lon="5.83124">
        <ele>769</ele>
        <time>2022-07-16T05:25:26Z</time>
      </trkpt>
      <trkpt lat="44.90481" lon="5.8312">
        <ele>769.4</ele>
        <time>2022-07-16T05:25:28Z</time>
      </trkpt>
      <trkpt lat="44.90487" lon="5.83116">
        <ele>769.8</ele>
        <time>2022-07-16T05:25:29Z</time>
      </trkpt>
      <trkpt lat="44.90493" lon="5.83108">
        <ele>770.4</ele>
        <time>2022-07-16T05:25:32Z</time>
      </trkpt>
      <trkpt lat="44.90499" lon="5.83103">
        <ele>770.9</ele>
        <time>2022-07-16T05:25:34Z</time>
      </trkpt>
      <trkpt lat="44.90502" lon="5.83099">
        <ele>771.2</ele>
        <time>2022-07-16T05:25:36Z</time>
      </trkpt>
      <trkpt lat="44.90505" lon="5.83096">
        <ele>771.5</ele>
        <time>2022-07-16T05:25:37Z</time>
      </trkpt>
      <trkpt lat="44.9051" lon="5.83092">
        <ele>771.9</ele>
        <time>2022-07-16T05:25:39Z</time>
      </trkpt>
      <trkpt lat="44.90515" lon="5.83086">
        <ele>772.5</ele>
        <time>2022-07-16T05:25:41Z</time>
      </trkpt>
      <trkpt lat="44.90519" lon="5.83079">
        <ele>773</ele>
        <time>2022-07-16T05:25:44Z</time>
      </trkpt>
      <trkpt lat="44.90524" lon="5.83074">
        <ele>773.4</ele>
        <time>2022-07-16T05:25:45Z</time>
      </trkpt>
      <trkpt lat="44.90529" lon="5.83067">
        <ele>774</ele>
        <time>2022-07-16T05:25:48Z</time>
      </trkpt>
      <trkpt lat="44.90535" lon="5.83058">
        <ele>774.7</ele>
        <time>2022-07-16T05:25:51Z</time>
      </trkpt>
      <trkpt lat="44.90541" lon="5.83053">
        <ele>775.3</ele>
        <time>2022-07-16T05:25:53Z</time>
      </trkpt>
      <trkpt lat="44.90546" lon="5.83045">
        <ele>775.8</ele>
        <time>2022-07-16T05:25:56Z</time>
      </trkpt>
      <trkpt lat="44.90548" lon="5.83042">
        <ele>776</ele>
        <time>2022-07-16T05:25:57Z</time>
      </trkpt>
      <trkpt lat="44.90552" lon="5.83038">
        <ele>776.4</ele>
        <time>2022-07-16T05:25:58Z</time>
      </trkpt>
      <trkpt lat="44.90555" lon="5.83033">
        <ele>776.7</ele>
        <time>2022-07-16T05:26:01Z</time>
      </trkpt>
      <trkpt lat="44.90558" lon="5.83029">
        <ele>777</ele>
        <time>2022-07-16T05:26:02Z</time>
      </trkpt>
      <trkpt lat="44.90564" lon="5.83021">
        <ele>777.6</ele>
        <time>2022-07-16T05:26:05Z</time>
      </trkpt>
      <trkpt lat="44.90569" lon="5.83014">
        <ele>778.2</ele>
        <time>2022-07-16T05:26:07Z</time>
      </trkpt>
      <trkpt lat="44.90571" lon="5.8301">
        <ele>778.5</ele>
        <time>2022-07-16T05:26:08Z</time>
      </trkpt>
      <trkpt lat="44.90574" lon="5.83004">
        <ele>778.9</ele>
        <time>2022-07-16T05:26:10Z</time>
      </trkpt>
      <trkpt lat="44.90582" lon="5.82994">
        <ele>779.8</ele>
        <time>2022-07-16T05:26:13Z</time>
      </trkpt>
      <trkpt lat="44.90585" lon="5.8299">
        <ele>780.1</ele>
        <time>2022-07-16T05:26:15Z</time>
      </trkpt>
      <trkpt lat="44.90588" lon="5.82988">
        <ele>780.3</ele>
        <time>2022-07-16T05:26:16Z</time>
      </trkpt>
      <trkpt lat="44.9059" lon="5.82986">
        <ele>780.5</ele>
        <time>2022-07-16T05:26:17Z</time>
      </trkpt>
      <trkpt lat="44.90598" lon="5.82978">
        <ele>781.3</ele>
        <time>2022-07-16T05:26:20Z</time>
      </trkpt>
      <trkpt lat="44.906" lon="5.82974">
        <ele>781.5</ele>
        <time>2022-07-16T05:26:22Z</time>
      </trkpt>
      <trkpt lat="44.90603" lon="5.82967">
        <ele>782</ele>
        <time>2022-07-16T05:26:24Z</time>
      </trkpt>
      <trkpt lat="44.90607" lon="5.82958">
        <ele>782.5</ele>
        <time>2022-07-16T05:26:27Z</time>
      </trkpt>
      <trkpt lat="44.90609" lon="5.82955">
        <ele>782.7</ele>
        <time>2022-07-16T05:26:28Z</time>
      </trkpt>
      <trkpt lat="44.90613" lon="5.8295">
        <ele>783.1</ele>
        <time>2022-07-16T05:26:29Z</time>
      </trkpt>
      <trkpt lat="44.90618" lon="5.82944">
        <ele>783.6</ele>
        <time>2022-07-16T05:26:32Z</time>
      </trkpt>
      <trkpt lat="44.9062" lon="5.8294">
        <ele>783.8</ele>
        <time>2022-07-16T05:26:33Z</time>
      </trkpt>
      <trkpt lat="44.90624" lon="5.82934">
        <ele>784.2</ele>
        <time>2022-07-16T05:26:34Z</time>
      </trkpt>
      <trkpt lat="44.90626" lon="5.82931">
        <ele>784.4</ele>
        <time>2022-07-16T05:26:35Z</time>
      </trkpt>
      <trkpt lat="44.90631" lon="5.82924">
        <ele>784.8</ele>
        <time>2022-07-16T05:26:37Z</time>
      </trkpt>
      <trkpt lat="44.90636" lon="5.82912">
        <ele>785.4</ele>
        <time>2022-07-16T05:26:40Z</time>
      </trkpt>
      <trkpt lat="44.90639" lon="5.82907">
        <ele>785.7</ele>
        <time>2022-07-16T05:26:41Z</time>
      </trkpt>
      <trkpt lat="44.90641" lon="5.82902">
        <ele>785.9</ele>
        <time>2022-07-16T05:26:42Z</time>
      </trkpt>
      <trkpt lat="44.90643" lon="5.82897">
        <ele>786.1</ele>
        <time>2022-07-16T05:26:44Z</time>
      </trkpt>
      <trkpt lat="44.90645" lon="5.82894">
        <ele>786.3</ele>
        <time>2022-07-16T05:26:45Z</time>
      </trkpt>
      <trkpt lat="44.90648" lon="5.82889">
        <ele>786.6</ele>
        <time>2022-07-16T05:26:46Z</time>
      </trkpt>
      <trkpt lat="44.9065" lon="5.82884">
        <ele>786.8</ele>
        <time>2022-07-16T05:26:47Z</time>
      </trkpt>
      <trkpt lat="44.90651" lon="5.82881">
        <ele>786.9</ele>
        <time>2022-07-16T05:26:48Z</time>
      </trkpt>
      <trkpt lat="44.90656" lon="5.82873">
        <ele>787.2</ele>
        <time>2022-07-16T05:26:50Z</time>
      </trkpt>
      <trkpt lat="44.90659" lon="5.82866">
        <ele>787.5</ele>
        <time>2022-07-16T05:26:51Z</time>
      </trkpt>
      <trkpt lat="44.90662" lon="5.82862">
        <ele>787.6</ele>
        <time>2022-07-16T05:26:52Z</time>
      </trkpt>
      <trkpt lat="44.90665" lon="5.82856">
        <ele>787.8</ele>
        <time>2022-07-16T05:26:54Z</time>
      </trkpt>
      <trkpt lat="44.90667" lon="5.8285">
        <ele>788</ele>
        <time>2022-07-16T05:26:56Z</time>
      </trkpt>
      <trkpt lat="44.9067" lon="5.82845">
        <ele>788.2</ele>
        <time>2022-07-16T05:26:57Z</time>
      </trkpt>
      <trkpt lat="44.90673" lon="5.82838">
        <ele>788.3</ele>
        <time>2022-07-16T05:26:58Z</time>
      </trkpt>
      <trkpt lat="44.90678" lon="5.8283">
        <ele>788.5</ele>
        <time>2022-07-16T05:27:00Z</time>
      </trkpt>
      <trkpt lat="44.90681" lon="5.82822">
        <ele>788.7</ele>
        <time>2022-07-16T05:27:02Z</time>
      </trkpt>
      <trkpt lat="44.90686" lon="5.82813">
        <ele>788.9</ele>
        <time>2022-07-16T05:27:04Z</time>
      </trkpt>
      <trkpt lat="44.90691" lon="5.82805">
        <ele>789</ele>
        <time>2022-07-16T05:27:06Z</time>
      </trkpt>
      <trkpt lat="44.90695" lon="5.82801">
        <ele>789</ele>
        <time>2022-07-16T05:27:07Z</time>
      </trkpt>
      <trkpt lat="44.90698" lon="5.82796">
        <ele>789.1</ele>
        <time>2022-07-16T05:27:08Z</time>
      </trkpt>
      <trkpt lat="44.90707" lon="5.82789">
        <ele>789.1</ele>
        <time>2022-07-16T05:27:11Z</time>
      </trkpt>
      <trkpt lat="44.90712" lon="5.82786">
        <ele>789.2</ele>
        <time>2022-07-16T05:27:12Z</time>
      </trkpt>
      <trkpt lat="44.90716" lon="5.82783">
        <ele>789.2</ele>
        <time>2022-07-16T05:27:13Z</time>
      </trkpt>
      <trkpt lat="44.90721" lon="5.8278">
        <ele>789.2</ele>
        <time>2022-07-16T05:27:14Z</time>
      </trkpt>
      <trkpt lat="44.90726" lon="5.82779">
        <ele>789.2</ele>
        <time>2022-07-16T05:27:15Z</time>
      </trkpt>
      <trkpt lat="44.90732" lon="5.82777">
        <ele>789.2</ele>
        <time>2022-07-16T05:27:16Z</time>
      </trkpt>
      <trkpt lat="44.90737" lon="5.82777">
        <ele>789.1</ele>
        <time>2022-07-16T05:27:17Z</time>
      </trkpt>
      <trkpt lat="44.90742" lon="5.82776">
        <ele>789</ele>
        <time>2022-07-16T05:27:18Z</time>
      </trkpt>
      <trkpt lat="44.90748" lon="5.82777">
        <ele>788.8</ele>
        <time>2022-07-16T05:27:19Z</time>
      </trkpt>
      <trkpt lat="44.90753" lon="5.82778">
        <ele>788.7</ele>
        <time>2022-07-16T05:27:20Z</time>
      </trkpt>
      <trkpt lat="44.90759" lon="5.8278">
        <ele>788.5</ele>
        <time>2022-07-16T05:27:21Z</time>
      </trkpt>
      <trkpt lat="44.90765" lon="5.82783">
        <ele>788.2</ele>
        <time>2022-07-16T05:27:22Z</time>
      </trkpt>
      <trkpt lat="44.90771" lon="5.82787">
        <ele>787.8</ele>
        <time>2022-07-16T05:27:23Z</time>
      </trkpt>
      <trkpt lat="44.90776" lon="5.82791">
        <ele>787.5</ele>
        <time>2022-07-16T05:27:24Z</time>
      </trkpt>
      <trkpt lat="44.90781" lon="5.82798">
        <ele>787.1</ele>
        <time>2022-07-16T05:27:25Z</time>
      </trkpt>
      <trkpt lat="44.90786" lon="5.82806">
        <ele>786.6</ele>
        <time>2022-07-16T05:27:26Z</time>
      </trkpt>
      <trkpt lat="44.90791" lon="5.82815">
        <ele>786.1</ele>
        <time>2022-07-16T05:27:27Z</time>
      </trkpt>
      <trkpt lat="44.90795" lon="5.82825">
        <ele>785.6</ele>
        <time>2022-07-16T05:27:28Z</time>
      </trkpt>
      <trkpt lat="44.90798" lon="5.82836">
        <ele>785.1</ele>
        <time>2022-07-16T05:27:29Z</time>
      </trkpt>
      <trkpt lat="44.908" lon="5.82847">
        <ele>784.6</ele>
        <time>2022-07-16T05:27:30Z</time>
      </trkpt>
      <trkpt lat="44.90802" lon="5.82858">
        <ele>784.1</ele>
        <time>2022-07-16T05:27:31Z</time>
      </trkpt>
      <trkpt lat="44.90804" lon="5.82869">
        <ele>783.6</ele>
        <time>2022-07-16T05:27:32Z</time>
      </trkpt>
      <trkpt lat="44.90807" lon="5.8288">
        <ele>783.1</ele>
        <time>2022-07-16T05:27:33Z</time>
      </trkpt>
      <trkpt lat="44.9081" lon="5.82891">
        <ele>782.5</ele>
        <time>2022-07-16T05:27:34Z</time>
      </trkpt>
      <trkpt lat="44.90813" lon="5.82902">
        <ele>782</ele>
        <time>2022-07-16T05:27:35Z</time>
      </trkpt>
      <trkpt lat="44.90816" lon="5.82914">
        <ele>781.5</ele>
        <time>2022-07-16T05:27:36Z</time>
      </trkpt>
      <trkpt lat="44.90821" lon="5.82924">
        <ele>780.9</ele>
        <time>2022-07-16T05:27:37Z</time>
      </trkpt>
      <trkpt lat="44.90827" lon="5.82934">
        <ele>780.3</ele>
        <time>2022-07-16T05:27:38Z</time>
      </trkpt>
      <trkpt lat="44.90834" lon="5.82945">
        <ele>779.6</ele>
        <time>2022-07-16T05:27:39Z</time>
      </trkpt>
      <trkpt lat="44.90842" lon="5.82954">
        <ele>778.8</ele>
        <time>2022-07-16T05:27:40Z</time>
      </trkpt>
      <trkpt lat="44.9085" lon="5.82962">
        <ele>778</ele>
        <time>2022-07-16T05:27:41Z</time>
      </trkpt>
      <trkpt lat="44.90859" lon="5.8297">
        <ele>777.3</ele>
        <time>2022-07-16T05:27:42Z</time>
      </trkpt>
      <trkpt lat="44.90869" lon="5.82976">
        <ele>776.6</ele>
        <time>2022-07-16T05:27:43Z</time>
      </trkpt>
      <trkpt lat="44.90878" lon="5.82982">
        <ele>776</ele>
        <time>2022-07-16T05:27:44Z</time>
      </trkpt>
      <trkpt lat="44.90886" lon="5.82987">
        <ele>775.4</ele>
        <time>2022-07-16T05:27:45Z</time>
      </trkpt>
      <trkpt lat="44.90894" lon="5.82993">
        <ele>774.8</ele>
        <time>2022-07-16T05:27:46Z</time>
      </trkpt>
      <trkpt lat="44.90903" lon="5.82999">
        <ele>774.3</ele>
        <time>2022-07-16T05:27:47Z</time>
      </trkpt>
      <trkpt lat="44.90912" lon="5.83005">
        <ele>773.7</ele>
        <time>2022-07-16T05:27:48Z</time>
      </trkpt>
      <trkpt lat="44.90922" lon="5.83012">
        <ele>773.1</ele>
        <time>2022-07-16T05:27:49Z</time>
      </trkpt>
      <trkpt lat="44.90931" lon="5.83019">
        <ele>772.5</ele>
        <time>2022-07-16T05:27:50Z</time>
      </trkpt>
      <trkpt lat="44.90941" lon="5.83025">
        <ele>771.9</ele>
        <time>2022-07-16T05:27:51Z</time>
      </trkpt>
      <trkpt lat="44.9095" lon="5.83032">
        <ele>771.4</ele>
        <time>2022-07-16T05:27:52Z</time>
      </trkpt>
      <trkpt lat="44.90959" lon="5.83038">
        <ele>770.8</ele>
        <time>2022-07-16T05:27:53Z</time>
      </trkpt>
      <trkpt lat="44.90968" lon="5.83044">
        <ele>770.2</ele>
        <time>2022-07-16T05:27:54Z</time>
      </trkpt>
      <trkpt lat="44.90979" lon="5.8305">
        <ele>769.5</ele>
        <time>2022-07-16T05:27:55Z</time>
      </trkpt>
      <trkpt lat="44.90989" lon="5.83056">
        <ele>768.9</ele>
        <time>2022-07-16T05:27:56Z</time>
      </trkpt>
      <trkpt lat="44.90998" lon="5.83062">
        <ele>768.2</ele>
        <time>2022-07-16T05:27:57Z</time>
      </trkpt>
      <trkpt lat="44.91009" lon="5.83067">
        <ele>767.5</ele>
        <time>2022-07-16T05:27:58Z</time>
      </trkpt>
      <trkpt lat="44.91019" lon="5.8307">
        <ele>766.8</ele>
        <time>2022-07-16T05:27:59Z</time>
      </trkpt>
      <trkpt lat="44.91029" lon="5.83072">
        <ele>766.2</ele>
        <time>2022-07-16T05:28:00Z</time>
      </trkpt>
      <trkpt lat="44.91039" lon="5.83073">
        <ele>765.5</ele>
        <time>2022-07-16T05:28:01Z</time>
      </trkpt>
      <trkpt lat="44.91049" lon="5.83072">
        <ele>764.8</ele>
        <time>2022-07-16T05:28:02Z</time>
      </trkpt>
      <trkpt lat="44.9106" lon="5.83069">
        <ele>764</ele>
        <time>2022-07-16T05:28:03Z</time>
      </trkpt>
      <trkpt lat="44.9107" lon="5.83065">
        <ele>763.3</ele>
        <time>2022-07-16T05:28:04Z</time>
      </trkpt>
      <trkpt lat="44.91082" lon="5.83062">
        <ele>762.5</ele>
        <time>2022-07-16T05:28:05Z</time>
      </trkpt>
      <trkpt lat="44.91093" lon="5.83058">
        <ele>761.8</ele>
        <time>2022-07-16T05:28:06Z</time>
      </trkpt>
      <trkpt lat="44.91105" lon="5.83055">
        <ele>761.1</ele>
        <time>2022-07-16T05:28:07Z</time>
      </trkpt>
      <trkpt lat="44.91116" lon="5.83052">
        <ele>760.4</ele>
        <time>2022-07-16T05:28:08Z</time>
      </trkpt>
      <trkpt lat="44.91127" lon="5.83049">
        <ele>759.7</ele>
        <time>2022-07-16T05:28:09Z</time>
      </trkpt>
      <trkpt lat="44.91136" lon="5.83047">
        <ele>759.1</ele>
        <time>2022-07-16T05:28:10Z</time>
      </trkpt>
      <trkpt lat="44.91146" lon="5.83044">
        <ele>758.3</ele>
        <time>2022-07-16T05:28:11Z</time>
      </trkpt>
      <trkpt lat="44.91156" lon="5.83041">
        <ele>757.4</ele>
        <time>2022-07-16T05:28:12Z</time>
      </trkpt>
      <trkpt lat="44.91167" lon="5.83037">
        <ele>756.4</ele>
        <time>2022-07-16T05:28:13Z</time>
      </trkpt>
      <trkpt lat="44.91178" lon="5.83033">
        <ele>755.5</ele>
        <time>2022-07-16T05:28:14Z</time>
      </trkpt>
      <trkpt lat="44.91189" lon="5.83029">
        <ele>754.6</ele>
        <time>2022-07-16T05:28:15Z</time>
      </trkpt>
      <trkpt lat="44.912" lon="5.83025">
        <ele>753.8</ele>
        <time>2022-07-16T05:28:16Z</time>
      </trkpt>
      <trkpt lat="44.91209" lon="5.83021">
        <ele>753.1</ele>
        <time>2022-07-16T05:28:17Z</time>
      </trkpt>
      <trkpt lat="44.91219" lon="5.83016">
        <ele>752.6</ele>
        <time>2022-07-16T05:28:18Z</time>
      </trkpt>
      <trkpt lat="44.91229" lon="5.8301">
        <ele>752.4</ele>
        <time>2022-07-16T05:28:19Z</time>
      </trkpt>
      <trkpt lat="44.9124" lon="5.83006">
        <ele>752.2</ele>
        <time>2022-07-16T05:28:20Z</time>
      </trkpt>
      <trkpt lat="44.91251" lon="5.83002">
        <ele>752.1</ele>
        <time>2022-07-16T05:28:21Z</time>
      </trkpt>
      <trkpt lat="44.9126" lon="5.83001">
        <ele>752</ele>
        <time>2022-07-16T05:28:22Z</time>
      </trkpt>
      <trkpt lat="44.91271" lon="5.83">
        <ele>752</ele>
        <time>2022-07-16T05:28:23Z</time>
      </trkpt>
      <trkpt lat="44.91282" lon="5.83">
        <ele>752.1</ele>
        <time>2022-07-16T05:28:24Z</time>
      </trkpt>
      <trkpt lat="44.91292" lon="5.83001">
        <ele>752.1</ele>
        <time>2022-07-16T05:28:25Z</time>
      </trkpt>
      <trkpt lat="44.91302" lon="5.83002">
        <ele>752</ele>
        <time>2022-07-16T05:28:26Z</time>
      </trkpt>
      <trkpt lat="44.91311" lon="5.83002">
        <ele>752</ele>
        <time>2022-07-16T05:28:27Z</time>
      </trkpt>
      <trkpt lat="44.9132" lon="5.83002">
        <ele>752</ele>
        <time>2022-07-16T05:28:28Z</time>
      </trkpt>
      <trkpt lat="44.91329" lon="5.83">
        <ele>751.9</ele>
        <time>2022-07-16T05:28:29Z</time>
      </trkpt>
      <trkpt lat="44.91338" lon="5.82997">
        <ele>751.9</ele>
        <time>2022-07-16T05:28:30Z</time>
      </trkpt>
      <trkpt lat="44.91346" lon="5.82994">
        <ele>751.9</ele>
        <time>2022-07-16T05:28:31Z</time>
      </trkpt>
      <trkpt lat="44.91354" lon="5.82991">
        <ele>751.9</ele>
        <time>2022-07-16T05:28:32Z</time>
      </trkpt>
      <trkpt lat="44.9136" lon="5.82986">
        <ele>751.9</ele>
        <time>2022-07-16T05:28:33Z</time>
      </trkpt>
      <trkpt lat="44.91367" lon="5.8298">
        <ele>751.9</ele>
        <time>2022-07-16T05:28:34Z</time>
      </trkpt>
      <trkpt lat="44.91371" lon="5.82974">
        <ele>751.9</ele>
        <time>2022-07-16T05:28:35Z</time>
      </trkpt>
      <trkpt lat="44.91376" lon="5.82967">
        <ele>751.9</ele>
        <time>2022-07-16T05:28:36Z</time>
      </trkpt>
      <trkpt lat="44.91381" lon="5.8296">
        <ele>752</ele>
        <time>2022-07-16T05:28:37Z</time>
      </trkpt>
      <trkpt lat="44.91386" lon="5.82954">
        <ele>752</ele>
        <time>2022-07-16T05:28:38Z</time>
      </trkpt>
      <trkpt lat="44.91391" lon="5.82947">
        <ele>752.1</ele>
        <time>2022-07-16T05:28:39Z</time>
      </trkpt>
      <trkpt lat="44.91396" lon="5.8294">
        <ele>752.1</ele>
        <time>2022-07-16T05:28:40Z</time>
      </trkpt>
      <trkpt lat="44.91401" lon="5.82932">
        <ele>752.1</ele>
        <time>2022-07-16T05:28:41Z</time>
      </trkpt>
      <trkpt lat="44.91406" lon="5.82925">
        <ele>752.2</ele>
        <time>2022-07-16T05:28:42Z</time>
      </trkpt>
      <trkpt lat="44.91411" lon="5.82918">
        <ele>752.2</ele>
        <time>2022-07-16T05:28:43Z</time>
      </trkpt>
      <trkpt lat="44.91416" lon="5.82913">
        <ele>752.3</ele>
        <time>2022-07-16T05:28:44Z</time>
      </trkpt>
      <trkpt lat="44.9142" lon="5.82907">
        <ele>752.3</ele>
        <time>2022-07-16T05:28:45Z</time>
      </trkpt>
      <trkpt lat="44.91426" lon="5.82902">
        <ele>752.4</ele>
        <time>2022-07-16T05:28:46Z</time>
      </trkpt>
      <trkpt lat="44.91432" lon="5.82898">
        <ele>752.4</ele>
        <time>2022-07-16T05:28:47Z</time>
      </trkpt>
      <trkpt lat="44.91436" lon="5.82894">
        <ele>752.5</ele>
        <time>2022-07-16T05:28:48Z</time>
      </trkpt>
      <trkpt lat="44.9144" lon="5.8289">
        <ele>752.5</ele>
        <time>2022-07-16T05:28:49Z</time>
      </trkpt>
      <trkpt lat="44.91442" lon="5.82885">
        <ele>752.5</ele>
        <time>2022-07-16T05:28:50Z</time>
      </trkpt>
      <trkpt lat="44.91445" lon="5.82881">
        <ele>752.6</ele>
        <time>2022-07-16T05:28:51Z</time>
      </trkpt>
      <trkpt lat="44.91448" lon="5.82876">
        <ele>752.6</ele>
        <time>2022-07-16T05:28:52Z</time>
      </trkpt>
      <trkpt lat="44.91451" lon="5.8287">
        <ele>752.7</ele>
        <time>2022-07-16T05:28:53Z</time>
      </trkpt>
      <trkpt lat="44.91454" lon="5.82866">
        <ele>752.7</ele>
        <time>2022-07-16T05:28:54Z</time>
      </trkpt>
      <trkpt lat="44.91459" lon="5.82858">
        <ele>752.8</ele>
        <time>2022-07-16T05:28:55Z</time>
      </trkpt>
      <trkpt lat="44.91465" lon="5.82829">
        <ele>753.2</ele>
        <time>2022-07-16T05:28:58Z</time>
      </trkpt>
      <trkpt lat="44.91467" lon="5.82822">
        <ele>753.3</ele>
        <time>2022-07-16T05:28:59Z</time>
      </trkpt>
      <trkpt lat="44.91469" lon="5.82815">
        <ele>753.5</ele>
        <time>2022-07-16T05:29:00Z</time>
      </trkpt>
      <trkpt lat="44.9147" lon="5.82808">
        <ele>753.6</ele>
        <time>2022-07-16T05:29:01Z</time>
      </trkpt>
      <trkpt lat="44.91472" lon="5.82792">
        <ele>754</ele>
        <time>2022-07-16T05:29:02Z</time>
      </trkpt>
      <trkpt lat="44.9147" lon="5.82789">
        <ele>754.1</ele>
        <time>2022-07-16T05:29:03Z</time>
      </trkpt>
      <trkpt lat="44.91467" lon="5.82783">
        <ele>754.3</ele>
        <time>2022-07-16T05:29:04Z</time>
      </trkpt>
      <trkpt lat="44.91468" lon="5.82776">
        <ele>754.5</ele>
        <time>2022-07-16T05:29:06Z</time>
      </trkpt>
      <trkpt lat="44.91468" lon="5.82767">
        <ele>754.8</ele>
        <time>2022-07-16T05:29:07Z</time>
      </trkpt>
      <trkpt lat="44.91467" lon="5.82758">
        <ele>755</ele>
        <time>2022-07-16T05:29:08Z</time>
      </trkpt>
      <trkpt lat="44.91466" lon="5.82752">
        <ele>755.2</ele>
        <time>2022-07-16T05:29:09Z</time>
      </trkpt>
      <trkpt lat="44.91465" lon="5.82741">
        <ele>755.5</ele>
        <time>2022-07-16T05:29:11Z</time>
      </trkpt>
      <trkpt lat="44.91463" lon="5.82733">
        <ele>755.7</ele>
        <time>2022-07-16T05:29:13Z</time>
      </trkpt>
      <trkpt lat="44.91461" lon="5.82728">
        <ele>755.8</ele>
        <time>2022-07-16T05:29:14Z</time>
      </trkpt>
      <trkpt lat="44.91457" lon="5.82721">
        <ele>756</ele>
        <time>2022-07-16T05:29:16Z</time>
      </trkpt>
      <trkpt lat="44.91454" lon="5.82716">
        <ele>756.1</ele>
        <time>2022-07-16T05:29:17Z</time>
      </trkpt>
      <trkpt lat="44.91452" lon="5.82712">
        <ele>756.2</ele>
        <time>2022-07-16T05:29:18Z</time>
      </trkpt>
      <trkpt lat="44.91448" lon="5.82703">
        <ele>756.4</ele>
        <time>2022-07-16T05:29:19Z</time>
      </trkpt>
      <trkpt lat="44.91446" lon="5.82697">
        <ele>756.6</ele>
        <time>2022-07-16T05:29:21Z</time>
      </trkpt>
      <trkpt lat="44.91445" lon="5.82693">
        <ele>756.7</ele>
        <time>2022-07-16T05:29:22Z</time>
      </trkpt>
      <trkpt lat="44.91443" lon="5.82682">
        <ele>756.9</ele>
        <time>2022-07-16T05:29:24Z</time>
      </trkpt>
      <trkpt lat="44.91442" lon="5.82676">
        <ele>757</ele>
        <time>2022-07-16T05:29:25Z</time>
      </trkpt>
      <trkpt lat="44.91442" lon="5.82671">
        <ele>757.2</ele>
        <time>2022-07-16T05:29:26Z</time>
      </trkpt>
      <trkpt lat="44.91441" lon="5.82653">
        <ele>757.6</ele>
        <time>2022-07-16T05:29:29Z</time>
      </trkpt>
      <trkpt lat="44.9144" lon="5.82645">
        <ele>757.8</ele>
        <time>2022-07-16T05:29:30Z</time>
      </trkpt>
      <trkpt lat="44.9144" lon="5.82634">
        <ele>758.1</ele>
        <time>2022-07-16T05:29:32Z</time>
      </trkpt>
      <trkpt lat="44.91441" lon="5.82625">
        <ele>758.4</ele>
        <time>2022-07-16T05:29:34Z</time>
      </trkpt>
      <trkpt lat="44.91441" lon="5.82621">
        <ele>758.5</ele>
        <time>2022-07-16T05:29:35Z</time>
      </trkpt>
      <trkpt lat="44.91443" lon="5.82607">
        <ele>758.9</ele>
        <time>2022-07-16T05:29:38Z</time>
      </trkpt>
      <trkpt lat="44.91444" lon="5.82596">
        <ele>759.2</ele>
        <time>2022-07-16T05:29:40Z</time>
      </trkpt>
      <trkpt lat="44.91445" lon="5.82591">
        <ele>759.4</ele>
        <time>2022-07-16T05:29:41Z</time>
      </trkpt>
      <trkpt lat="44.91446" lon="5.82586">
        <ele>759.6</ele>
        <time>2022-07-16T05:29:42Z</time>
      </trkpt>
      <trkpt lat="44.91447" lon="5.82578">
        <ele>759.8</ele>
        <time>2022-07-16T05:29:43Z</time>
      </trkpt>
      <trkpt lat="44.91449" lon="5.82568">
        <ele>760.2</ele>
        <time>2022-07-16T05:29:45Z</time>
      </trkpt>
      <trkpt lat="44.91451" lon="5.82563">
        <ele>760.4</ele>
        <time>2022-07-16T05:29:46Z</time>
      </trkpt>
      <trkpt lat="44.91452" lon="5.82561">
        <ele>760.5</ele>
        <time>2022-07-16T05:29:47Z</time>
      </trkpt>
      <trkpt lat="44.91453" lon="5.82553">
        <ele>760.8</ele>
        <time>2022-07-16T05:29:48Z</time>
      </trkpt>
      <trkpt lat="44.91454" lon="5.8255">
        <ele>761</ele>
        <time>2022-07-16T05:29:50Z</time>
      </trkpt>
      <trkpt lat="44.91456" lon="5.82545">
        <ele>761.2</ele>
        <time>2022-07-16T05:29:51Z</time>
      </trkpt>
      <trkpt lat="44.91457" lon="5.82536">
        <ele>761.6</ele>
        <time>2022-07-16T05:29:53Z</time>
      </trkpt>
      <trkpt lat="44.91459" lon="5.82529">
        <ele>761.9</ele>
        <time>2022-07-16T05:29:54Z</time>
      </trkpt>
      <trkpt lat="44.9146" lon="5.82523">
        <ele>762.2</ele>
        <time>2022-07-16T05:29:56Z</time>
      </trkpt>
      <trkpt lat="44.91462" lon="5.82519">
        <ele>762.4</ele>
        <time>2022-07-16T05:29:57Z</time>
      </trkpt>
      <trkpt lat="44.91463" lon="5.82516">
        <ele>762.6</ele>
        <time>2022-07-16T05:29:58Z</time>
      </trkpt>
      <trkpt lat="44.91466" lon="5.82505">
        <ele>763.1</ele>
        <time>2022-07-16T05:30:01Z</time>
      </trkpt>
      <trkpt lat="44.91466" lon="5.825">
        <ele>763.3</ele>
        <time>2022-07-16T05:30:04Z</time>
      </trkpt>
      <trkpt lat="44.91466" lon="5.82496">
        <ele>763.5</ele>
        <time>2022-07-16T05:30:05Z</time>
      </trkpt>
      <trkpt lat="44.91467" lon="5.82492">
        <ele>763.7</ele>
        <time>2022-07-16T05:30:06Z</time>
      </trkpt>
      <trkpt lat="44.91468" lon="5.82489">
        <ele>763.9</ele>
        <time>2022-07-16T05:30:07Z</time>
      </trkpt>
      <trkpt lat="44.91469" lon="5.82485">
        <ele>764.1</ele>
        <time>2022-07-16T05:30:08Z</time>
      </trkpt>
      <trkpt lat="44.9147" lon="5.82481">
        <ele>764.3</ele>
        <time>2022-07-16T05:30:09Z</time>
      </trkpt>
      <trkpt lat="44.91471" lon="5.82477">
        <ele>764.5</ele>
        <time>2022-07-16T05:30:10Z</time>
      </trkpt>
      <trkpt lat="44.91472" lon="5.82473">
        <ele>764.7</ele>
        <time>2022-07-16T05:30:11Z</time>
      </trkpt>
      <trkpt lat="44.91472" lon="5.82469">
        <ele>764.9</ele>
        <time>2022-07-16T05:30:12Z</time>
      </trkpt>
      <trkpt lat="44.91473" lon="5.82463">
        <ele>765.2</ele>
        <time>2022-07-16T05:30:13Z</time>
      </trkpt>
      <trkpt lat="44.91474" lon="5.82461">
        <ele>765.3</ele>
        <time>2022-07-16T05:30:14Z</time>
      </trkpt>
      <trkpt lat="44.91474" lon="5.82457">
        <ele>765.5</ele>
        <time>2022-07-16T05:30:15Z</time>
      </trkpt>
      <trkpt lat="44.91475" lon="5.82453">
        <ele>765.7</ele>
        <time>2022-07-16T05:30:16Z</time>
      </trkpt>
      <trkpt lat="44.91475" lon="5.82449">
        <ele>765.9</ele>
        <time>2022-07-16T05:30:17Z</time>
      </trkpt>
      <trkpt lat="44.91476" lon="5.82445">
        <ele>766.1</ele>
        <time>2022-07-16T05:30:18Z</time>
      </trkpt>
      <trkpt lat="44.91477" lon="5.8244">
        <ele>766.4</ele>
        <time>2022-07-16T05:30:19Z</time>
      </trkpt>
      <trkpt lat="44.91477" lon="5.82439">
        <ele>766.5</ele>
        <time>2022-07-16T05:30:20Z</time>
      </trkpt>
      <trkpt lat="44.91478" lon="5.82433">
        <ele>766.7</ele>
        <time>2022-07-16T05:30:21Z</time>
      </trkpt>
      <trkpt lat="44.91478" lon="5.82431">
        <ele>766.8</ele>
        <time>2022-07-16T05:30:22Z</time>
      </trkpt>
      <trkpt lat="44.91479" lon="5.82426">
        <ele>767.1</ele>
        <time>2022-07-16T05:30:23Z</time>
      </trkpt>
      <trkpt lat="44.91479" lon="5.82424">
        <ele>767.2</ele>
        <time>2022-07-16T05:30:24Z</time>
      </trkpt>
      <trkpt lat="44.9148" lon="5.82419">
        <ele>767.4</ele>
        <time>2022-07-16T05:30:25Z</time>
      </trkpt>
      <trkpt lat="44.9148" lon="5.82418">
        <ele>767.5</ele>
        <time>2022-07-16T05:30:26Z</time>
      </trkpt>
      <trkpt lat="44.9148" lon="5.82412">
        <ele>767.8</ele>
        <time>2022-07-16T05:30:27Z</time>
      </trkpt>
      <trkpt lat="44.9148" lon="5.8241">
        <ele>767.9</ele>
        <time>2022-07-16T05:30:28Z</time>
      </trkpt>
      <trkpt lat="44.91481" lon="5.82405">
        <ele>768.2</ele>
        <time>2022-07-16T05:30:29Z</time>
      </trkpt>
      <trkpt lat="44.91481" lon="5.82403">
        <ele>768.3</ele>
        <time>2022-07-16T05:30:30Z</time>
      </trkpt>
      <trkpt lat="44.91481" lon="5.82398">
        <ele>768.5</ele>
        <time>2022-07-16T05:30:31Z</time>
      </trkpt>
      <trkpt lat="44.91481" lon="5.82396">
        <ele>768.6</ele>
        <time>2022-07-16T05:30:32Z</time>
      </trkpt>
      <trkpt lat="44.9148" lon="5.82391">
        <ele>768.9</ele>
        <time>2022-07-16T05:30:33Z</time>
      </trkpt>
      <trkpt lat="44.9148" lon="5.82389">
        <ele>769</ele>
        <time>2022-07-16T05:30:34Z</time>
      </trkpt>
      <trkpt lat="44.91479" lon="5.82385">
        <ele>769.1</ele>
        <time>2022-07-16T05:30:35Z</time>
      </trkpt>
      <trkpt lat="44.91478" lon="5.8238">
        <ele>769.4</ele>
        <time>2022-07-16T05:30:36Z</time>
      </trkpt>
      <trkpt lat="44.91477" lon="5.82378">
        <ele>769.5</ele>
        <time>2022-07-16T05:30:37Z</time>
      </trkpt>
      <trkpt lat="44.91477" lon="5.82374">
        <ele>769.7</ele>
        <time>2022-07-16T05:30:38Z</time>
      </trkpt>
      <trkpt lat="44.91476" lon="5.8237">
        <ele>769.9</ele>
        <time>2022-07-16T05:30:39Z</time>
      </trkpt>
      <trkpt lat="44.91475" lon="5.82366">
        <ele>770.1</ele>
        <time>2022-07-16T05:30:40Z</time>
      </trkpt>
      <trkpt lat="44.91474" lon="5.82362">
        <ele>770.3</ele>
        <time>2022-07-16T05:30:41Z</time>
      </trkpt>
      <trkpt lat="44.91472" lon="5.82358">
        <ele>770.5</ele>
        <time>2022-07-16T05:30:42Z</time>
      </trkpt>
      <trkpt lat="44.91471" lon="5.82355">
        <ele>770.7</ele>
        <time>2022-07-16T05:30:43Z</time>
      </trkpt>
      <trkpt lat="44.9147" lon="5.82349">
        <ele>770.9</ele>
        <time>2022-07-16T05:30:44Z</time>
      </trkpt>
      <trkpt lat="44.91469" lon="5.82347">
        <ele>771</ele>
        <time>2022-07-16T05:30:45Z</time>
      </trkpt>
      <trkpt lat="44.91468" lon="5.82344">
        <ele>771.2</ele>
        <time>2022-07-16T05:30:46Z</time>
      </trkpt>
      <trkpt lat="44.91467" lon="5.82339">
        <ele>771.5</ele>
        <time>2022-07-16T05:30:47Z</time>
      </trkpt>
      <trkpt lat="44.91466" lon="5.82337">
        <ele>771.6</ele>
        <time>2022-07-16T05:30:48Z</time>
      </trkpt>
      <trkpt lat="44.91465" lon="5.82332">
        <ele>771.8</ele>
        <time>2022-07-16T05:30:49Z</time>
      </trkpt>
      <trkpt lat="44.91464" lon="5.8233">
        <ele>771.9</ele>
        <time>2022-07-16T05:30:50Z</time>
      </trkpt>
      <trkpt lat="44.91463" lon="5.82324">
        <ele>772.2</ele>
        <time>2022-07-16T05:30:51Z</time>
      </trkpt>
      <trkpt lat="44.91462" lon="5.82322">
        <ele>772.3</ele>
        <time>2022-07-16T05:30:52Z</time>
      </trkpt>
      <trkpt lat="44.91461" lon="5.82317">
        <ele>772.6</ele>
        <time>2022-07-16T05:30:53Z</time>
      </trkpt>
      <trkpt lat="44.91461" lon="5.82315">
        <ele>772.7</ele>
        <time>2022-07-16T05:30:54Z</time>
      </trkpt>
      <trkpt lat="44.9146" lon="5.82311">
        <ele>772.8</ele>
        <time>2022-07-16T05:30:55Z</time>
      </trkpt>
      <trkpt lat="44.91459" lon="5.82306">
        <ele>773.1</ele>
        <time>2022-07-16T05:30:56Z</time>
      </trkpt>
      <trkpt lat="44.91458" lon="5.82302">
        <ele>773.3</ele>
        <time>2022-07-16T05:30:57Z</time>
      </trkpt>
      <trkpt lat="44.91457" lon="5.82298">
        <ele>773.4</ele>
        <time>2022-07-16T05:30:58Z</time>
      </trkpt>
      <trkpt lat="44.91456" lon="5.82293">
        <ele>773.7</ele>
        <time>2022-07-16T05:30:59Z</time>
      </trkpt>
      <trkpt lat="44.91455" lon="5.82291">
        <ele>773.8</ele>
        <time>2022-07-16T05:31:00Z</time>
      </trkpt>
      <trkpt lat="44.91454" lon="5.82288">
        <ele>774</ele>
        <time>2022-07-16T05:31:01Z</time>
      </trkpt>
      <trkpt lat="44.91453" lon="5.82283">
        <ele>774.2</ele>
        <time>2022-07-16T05:31:02Z</time>
      </trkpt>
      <trkpt lat="44.91453" lon="5.82281">
        <ele>774.3</ele>
        <time>2022-07-16T05:31:03Z</time>
      </trkpt>
      <trkpt lat="44.91452" lon="5.82275">
        <ele>774.6</ele>
        <time>2022-07-16T05:31:04Z</time>
      </trkpt>
      <trkpt lat="44.91452" lon="5.82274">
        <ele>774.7</ele>
        <time>2022-07-16T05:31:05Z</time>
      </trkpt>
      <trkpt lat="44.9145" lon="5.8227">
        <ele>774.9</ele>
        <time>2022-07-16T05:31:06Z</time>
      </trkpt>
      <trkpt lat="44.91449" lon="5.82266">
        <ele>775.1</ele>
        <time>2022-07-16T05:31:07Z</time>
      </trkpt>
      <trkpt lat="44.91448" lon="5.82261">
        <ele>775.3</ele>
        <time>2022-07-16T05:31:08Z</time>
      </trkpt>
      <trkpt lat="44.91447" lon="5.8226">
        <ele>775.4</ele>
        <time>2022-07-16T05:31:09Z</time>
      </trkpt>
      <trkpt lat="44.91447" lon="5.82256">
        <ele>775.6</ele>
        <time>2022-07-16T05:31:10Z</time>
      </trkpt>
      <trkpt lat="44.91445" lon="5.8225">
        <ele>775.8</ele>
        <time>2022-07-16T05:31:11Z</time>
      </trkpt>
      <trkpt lat="44.91445" lon="5.82249">
        <ele>775.9</ele>
        <time>2022-07-16T05:31:12Z</time>
      </trkpt>
      <trkpt lat="44.91444" lon="5.82245">
        <ele>776.1</ele>
        <time>2022-07-16T05:31:13Z</time>
      </trkpt>
      <trkpt lat="44.91443" lon="5.82241">
        <ele>776.3</ele>
        <time>2022-07-16T05:31:14Z</time>
      </trkpt>
      <trkpt lat="44.91441" lon="5.82236">
        <ele>776.5</ele>
        <time>2022-07-16T05:31:15Z</time>
      </trkpt>
      <trkpt lat="44.91441" lon="5.82235">
        <ele>776.5</ele>
        <time>2022-07-16T05:31:16Z</time>
      </trkpt>
      <trkpt lat="44.9144" lon="5.8223">
        <ele>776.8</ele>
        <time>2022-07-16T05:31:17Z</time>
      </trkpt>
      <trkpt lat="44.9144" lon="5.82229">
        <ele>776.8</ele>
        <time>2022-07-16T05:31:18Z</time>
      </trkpt>
      <trkpt lat="44.91438" lon="5.82224">
        <ele>777</ele>
        <time>2022-07-16T05:31:19Z</time>
      </trkpt>
      <trkpt lat="44.91438" lon="5.82222">
        <ele>777.1</ele>
        <time>2022-07-16T05:31:20Z</time>
      </trkpt>
      <trkpt lat="44.91436" lon="5.82217">
        <ele>777.7</ele>
        <time>2022-07-16T05:31:21Z</time>
      </trkpt>
      <trkpt lat="44.91436" lon="5.82215">
        <ele>777.8</ele>
        <time>2022-07-16T05:31:22Z</time>
      </trkpt>
      <trkpt lat="44.91434" lon="5.8221">
        <ele>778.3</ele>
        <time>2022-07-16T05:31:23Z</time>
      </trkpt>
      <trkpt lat="44.91433" lon="5.82208">
        <ele>778.5</ele>
        <time>2022-07-16T05:31:24Z</time>
      </trkpt>
      <trkpt lat="44.91432" lon="5.82204">
        <ele>778.9</ele>
        <time>2022-07-16T05:31:25Z</time>
      </trkpt>
      <trkpt lat="44.91431" lon="5.822">
        <ele>779.2</ele>
        <time>2022-07-16T05:31:26Z</time>
      </trkpt>
      <trkpt lat="44.91431" lon="5.82196">
        <ele>779.6</ele>
        <time>2022-07-16T05:31:27Z</time>
      </trkpt>
      <trkpt lat="44.9143" lon="5.82192">
        <ele>780</ele>
        <time>2022-07-16T05:31:28Z</time>
      </trkpt>
      <trkpt lat="44.9143" lon="5.82187">
        <ele>780.4</ele>
        <time>2022-07-16T05:31:29Z</time>
      </trkpt>
      <trkpt lat="44.9143" lon="5.82185">
        <ele>780.6</ele>
        <time>2022-07-16T05:31:30Z</time>
      </trkpt>
      <trkpt lat="44.91429" lon="5.82179">
        <ele>781.1</ele>
        <time>2022-07-16T05:31:31Z</time>
      </trkpt>
      <trkpt lat="44.91429" lon="5.82177">
        <ele>781.3</ele>
        <time>2022-07-16T05:31:32Z</time>
      </trkpt>
      <trkpt lat="44.91428" lon="5.82173">
        <ele>781.6</ele>
        <time>2022-07-16T05:31:33Z</time>
      </trkpt>
      <trkpt lat="44.91427" lon="5.82168">
        <ele>782</ele>
        <time>2022-07-16T05:31:34Z</time>
      </trkpt>
      <trkpt lat="44.91427" lon="5.82167">
        <ele>782.2</ele>
        <time>2022-07-16T05:31:35Z</time>
      </trkpt>
      <trkpt lat="44.91426" lon="5.82161">
        <ele>782.5</ele>
        <time>2022-07-16T05:31:36Z</time>
      </trkpt>
      <trkpt lat="44.91426" lon="5.8216">
        <ele>782.3</ele>
        <time>2022-07-16T05:31:37Z</time>
      </trkpt>
      <trkpt lat="44.91425" lon="5.82156">
        <ele>781.8</ele>
        <time>2022-07-16T05:31:38Z</time>
      </trkpt>
      <trkpt lat="44.91423" lon="5.82152">
        <ele>782.1</ele>
        <time>2022-07-16T05:31:39Z</time>
      </trkpt>
      <trkpt lat="44.91421" lon="5.82147">
        <ele>782.4</ele>
        <time>2022-07-16T05:31:40Z</time>
      </trkpt>
      <trkpt lat="44.9142" lon="5.82145">
        <ele>782.5</ele>
        <time>2022-07-16T05:31:41Z</time>
      </trkpt>
      <trkpt lat="44.91419" lon="5.82141">
        <ele>782.8</ele>
        <time>2022-07-16T05:31:42Z</time>
      </trkpt>
      <trkpt lat="44.91416" lon="5.82136">
        <ele>783.2</ele>
        <time>2022-07-16T05:31:43Z</time>
      </trkpt>
      <trkpt lat="44.91415" lon="5.82133">
        <ele>783.3</ele>
        <time>2022-07-16T05:31:44Z</time>
      </trkpt>
      <trkpt lat="44.91413" lon="5.82129">
        <ele>783.6</ele>
        <time>2022-07-16T05:31:45Z</time>
      </trkpt>
      <trkpt lat="44.91413" lon="5.82128">
        <ele>783.8</ele>
        <time>2022-07-16T05:31:46Z</time>
      </trkpt>
      <trkpt lat="44.91411" lon="5.82125">
        <ele>784</ele>
        <time>2022-07-16T05:31:47Z</time>
      </trkpt>
      <trkpt lat="44.91408" lon="5.82121">
        <ele>784.3</ele>
        <time>2022-07-16T05:31:48Z</time>
      </trkpt>
      <trkpt lat="44.91406" lon="5.82118">
        <ele>784.2</ele>
        <time>2022-07-16T05:31:49Z</time>
      </trkpt>
      <trkpt lat="44.91404" lon="5.82114">
        <ele>784.2</ele>
        <time>2022-07-16T05:31:50Z</time>
      </trkpt>
      <trkpt lat="44.91402" lon="5.8211">
        <ele>784.2</ele>
        <time>2022-07-16T05:31:51Z</time>
      </trkpt>
      <trkpt lat="44.91401" lon="5.82106">
        <ele>784.3</ele>
        <time>2022-07-16T05:31:52Z</time>
      </trkpt>
      <trkpt lat="44.91399" lon="5.82102">
        <ele>784.3</ele>
        <time>2022-07-16T05:31:53Z</time>
      </trkpt>
      <trkpt lat="44.91397" lon="5.82098">
        <ele>784.4</ele>
        <time>2022-07-16T05:31:54Z</time>
      </trkpt>
      <trkpt lat="44.91396" lon="5.82094">
        <ele>784.4</ele>
        <time>2022-07-16T05:31:55Z</time>
      </trkpt>
      <trkpt lat="44.91394" lon="5.82089">
        <ele>784.5</ele>
        <time>2022-07-16T05:31:56Z</time>
      </trkpt>
      <trkpt lat="44.91392" lon="5.82085">
        <ele>784.5</ele>
        <time>2022-07-16T05:31:57Z</time>
      </trkpt>
      <trkpt lat="44.91391" lon="5.82081">
        <ele>784.6</ele>
        <time>2022-07-16T05:31:58Z</time>
      </trkpt>
      <trkpt lat="44.91389" lon="5.82078">
        <ele>784.6</ele>
        <time>2022-07-16T05:31:59Z</time>
      </trkpt>
      <trkpt lat="44.91387" lon="5.82074">
        <ele>784.7</ele>
        <time>2022-07-16T05:32:00Z</time>
      </trkpt>
      <trkpt lat="44.91385" lon="5.8207">
        <ele>784.7</ele>
        <time>2022-07-16T05:32:01Z</time>
      </trkpt>
      <trkpt lat="44.91383" lon="5.82066">
        <ele>784.8</ele>
        <time>2022-07-16T05:32:02Z</time>
      </trkpt>
      <trkpt lat="44.91381" lon="5.82062">
        <ele>784.8</ele>
        <time>2022-07-16T05:32:03Z</time>
      </trkpt>
      <trkpt lat="44.91379" lon="5.82058">
        <ele>784.9</ele>
        <time>2022-07-16T05:32:04Z</time>
      </trkpt>
      <trkpt lat="44.91377" lon="5.82054">
        <ele>784.9</ele>
        <time>2022-07-16T05:32:05Z</time>
      </trkpt>
      <trkpt lat="44.91375" lon="5.8205">
        <ele>785</ele>
        <time>2022-07-16T05:32:06Z</time>
      </trkpt>
      <trkpt lat="44.91373" lon="5.82047">
        <ele>785.1</ele>
        <time>2022-07-16T05:32:07Z</time>
      </trkpt>
      <trkpt lat="44.91371" lon="5.82043">
        <ele>785.1</ele>
        <time>2022-07-16T05:32:08Z</time>
      </trkpt>
      <trkpt lat="44.91369" lon="5.8204">
        <ele>785.2</ele>
        <time>2022-07-16T05:32:09Z</time>
      </trkpt>
      <trkpt lat="44.91367" lon="5.82036">
        <ele>785.3</ele>
        <time>2022-07-16T05:32:10Z</time>
      </trkpt>
      <trkpt lat="44.91364" lon="5.82032">
        <ele>785.3</ele>
        <time>2022-07-16T05:32:11Z</time>
      </trkpt>
      <trkpt lat="44.91362" lon="5.82029">
        <ele>785.4</ele>
        <time>2022-07-16T05:32:12Z</time>
      </trkpt>
      <trkpt lat="44.9136" lon="5.82026">
        <ele>785.6</ele>
        <time>2022-07-16T05:32:13Z</time>
      </trkpt>
      <trkpt lat="44.91358" lon="5.82022">
        <ele>785.9</ele>
        <time>2022-07-16T05:32:14Z</time>
      </trkpt>
      <trkpt lat="44.91356" lon="5.82019">
        <ele>786.1</ele>
        <time>2022-07-16T05:32:15Z</time>
      </trkpt>
      <trkpt lat="44.91353" lon="5.82016">
        <ele>786.3</ele>
        <time>2022-07-16T05:32:16Z</time>
      </trkpt>
      <trkpt lat="44.91351" lon="5.82013">
        <ele>786.5</ele>
        <time>2022-07-16T05:32:17Z</time>
      </trkpt>
      <trkpt lat="44.91349" lon="5.82009">
        <ele>786.8</ele>
        <time>2022-07-16T05:32:18Z</time>
      </trkpt>
      <trkpt lat="44.91347" lon="5.82006">
        <ele>787</ele>
        <time>2022-07-16T05:32:19Z</time>
      </trkpt>
      <trkpt lat="44.91345" lon="5.82003">
        <ele>787.3</ele>
        <time>2022-07-16T05:32:20Z</time>
      </trkpt>
      <trkpt lat="44.91342" lon="5.81999">
        <ele>787.6</ele>
        <time>2022-07-16T05:32:21Z</time>
      </trkpt>
      <trkpt lat="44.91342" lon="5.81998">
        <ele>787.7</ele>
        <time>2022-07-16T05:32:22Z</time>
      </trkpt>
      <trkpt lat="44.9134" lon="5.81995">
        <ele>788</ele>
        <time>2022-07-16T05:32:23Z</time>
      </trkpt>
      <trkpt lat="44.91338" lon="5.81991">
        <ele>788.2</ele>
        <time>2022-07-16T05:32:24Z</time>
      </trkpt>
      <trkpt lat="44.91336" lon="5.81987">
        <ele>788.6</ele>
        <time>2022-07-16T05:32:25Z</time>
      </trkpt>
      <trkpt lat="44.91335" lon="5.81982">
        <ele>789</ele>
        <time>2022-07-16T05:32:26Z</time>
      </trkpt>
      <trkpt lat="44.91335" lon="5.81978">
        <ele>789.6</ele>
        <time>2022-07-16T05:32:27Z</time>
      </trkpt>
      <trkpt lat="44.91335" lon="5.81973">
        <ele>789.8</ele>
        <time>2022-07-16T05:32:28Z</time>
      </trkpt>
      <trkpt lat="44.91337" lon="5.81969">
        <ele>789.9</ele>
        <time>2022-07-16T05:32:29Z</time>
      </trkpt>
      <trkpt lat="44.9134" lon="5.81966">
        <ele>790.1</ele>
        <time>2022-07-16T05:32:30Z</time>
      </trkpt>
      <trkpt lat="44.91343" lon="5.81965">
        <ele>790.2</ele>
        <time>2022-07-16T05:32:31Z</time>
      </trkpt>
      <trkpt lat="44.91346" lon="5.81966">
        <ele>790.2</ele>
        <time>2022-07-16T05:32:32Z</time>
      </trkpt>
      <trkpt lat="44.91348" lon="5.81967">
        <ele>790.3</ele>
        <time>2022-07-16T05:32:33Z</time>
      </trkpt>
      <trkpt lat="44.91351" lon="5.81969">
        <ele>790.4</ele>
        <time>2022-07-16T05:32:34Z</time>
      </trkpt>
      <trkpt lat="44.91358" lon="5.81977">
        <ele>790.5</ele>
        <time>2022-07-16T05:32:36Z</time>
      </trkpt>
      <trkpt lat="44.91361" lon="5.81979">
        <ele>790.5</ele>
        <time>2022-07-16T05:32:37Z</time>
      </trkpt>
      <trkpt lat="44.91366" lon="5.81985">
        <ele>790.6</ele>
        <time>2022-07-16T05:32:39Z</time>
      </trkpt>
      <trkpt lat="44.91371" lon="5.81991">
        <ele>790.8</ele>
        <time>2022-07-16T05:32:41Z</time>
      </trkpt>
      <trkpt lat="44.91374" lon="5.81993">
        <ele>790.9</ele>
        <time>2022-07-16T05:32:42Z</time>
      </trkpt>
      <trkpt lat="44.91379" lon="5.81994">
        <ele>791</ele>
        <time>2022-07-16T05:32:44Z</time>
      </trkpt>
      <trkpt lat="44.91386" lon="5.81999">
        <ele>791.2</ele>
        <time>2022-07-16T05:32:46Z</time>
      </trkpt>
      <trkpt lat="44.9139" lon="5.82">
        <ele>791.4</ele>
        <time>2022-07-16T05:32:47Z</time>
      </trkpt>
      <trkpt lat="44.91393" lon="5.82001">
        <ele>791.5</ele>
        <time>2022-07-16T05:32:48Z</time>
      </trkpt>
      <trkpt lat="44.914" lon="5.82004">
        <ele>791.8</ele>
        <time>2022-07-16T05:32:50Z</time>
      </trkpt>
      <trkpt lat="44.91403" lon="5.82006">
        <ele>791.9</ele>
        <time>2022-07-16T05:32:51Z</time>
      </trkpt>
      <trkpt lat="44.91409" lon="5.82007">
        <ele>792.1</ele>
        <time>2022-07-16T05:32:53Z</time>
      </trkpt>
      <trkpt lat="44.91413" lon="5.82009">
        <ele>792.3</ele>
        <time>2022-07-16T05:32:54Z</time>
      </trkpt>
      <trkpt lat="44.9142" lon="5.82014">
        <ele>792.6</ele>
        <time>2022-07-16T05:32:56Z</time>
      </trkpt>
      <trkpt lat="44.91425" lon="5.82018">
        <ele>792.8</ele>
        <time>2022-07-16T05:32:58Z</time>
      </trkpt>
      <trkpt lat="44.91429" lon="5.8202">
        <ele>793</ele>
        <time>2022-07-16T05:32:59Z</time>
      </trkpt>
      <trkpt lat="44.91435" lon="5.82027">
        <ele>793.3</ele>
        <time>2022-07-16T05:33:01Z</time>
      </trkpt>
      <trkpt lat="44.91439" lon="5.82034">
        <ele>793.6</ele>
        <time>2022-07-16T05:33:03Z</time>
      </trkpt>
      <trkpt lat="44.91442" lon="5.82038">
        <ele>793.7</ele>
        <time>2022-07-16T05:33:04Z</time>
      </trkpt>
      <trkpt lat="44.91446" lon="5.82043">
        <ele>793.9</ele>
        <time>2022-07-16T05:33:05Z</time>
      </trkpt>
      <trkpt lat="44.91449" lon="5.82047">
        <ele>794.1</ele>
        <time>2022-07-16T05:33:06Z</time>
      </trkpt>
      <trkpt lat="44.91453" lon="5.82056">
        <ele>794.4</ele>
        <time>2022-07-16T05:33:08Z</time>
      </trkpt>
      <trkpt lat="44.91457" lon="5.82062">
        <ele>794.6</ele>
        <time>2022-07-16T05:33:10Z</time>
      </trkpt>
      <trkpt lat="44.91462" lon="5.82069">
        <ele>794.9</ele>
        <time>2022-07-16T05:33:12Z</time>
      </trkpt>
      <trkpt lat="44.91464" lon="5.82073">
        <ele>795</ele>
        <time>2022-07-16T05:33:13Z</time>
      </trkpt>
      <trkpt lat="44.91465" lon="5.82076">
        <ele>795.1</ele>
        <time>2022-07-16T05:33:14Z</time>
      </trkpt>
      <trkpt lat="44.91469" lon="5.82085">
        <ele>795.4</ele>
        <time>2022-07-16T05:33:15Z</time>
      </trkpt>
      <trkpt lat="44.91472" lon="5.82091">
        <ele>795.6</ele>
        <time>2022-07-16T05:33:17Z</time>
      </trkpt>
      <trkpt lat="44.91475" lon="5.82093">
        <ele>795.7</ele>
        <time>2022-07-16T05:33:18Z</time>
      </trkpt>
      <trkpt lat="44.9148" lon="5.82102">
        <ele>796</ele>
        <time>2022-07-16T05:33:20Z</time>
      </trkpt>
      <trkpt lat="44.91482" lon="5.82105">
        <ele>796.1</ele>
        <time>2022-07-16T05:33:21Z</time>
      </trkpt>
      <trkpt lat="44.91485" lon="5.82109">
        <ele>796.2</ele>
        <time>2022-07-16T05:33:22Z</time>
      </trkpt>
      <trkpt lat="44.91489" lon="5.82118">
        <ele>796.5</ele>
        <time>2022-07-16T05:33:24Z</time>
      </trkpt>
      <trkpt lat="44.91492" lon="5.82121">
        <ele>796.6</ele>
        <time>2022-07-16T05:33:25Z</time>
      </trkpt>
      <trkpt lat="44.91494" lon="5.82124">
        <ele>796.7</ele>
        <time>2022-07-16T05:33:26Z</time>
      </trkpt>
      <trkpt lat="44.91497" lon="5.82128">
        <ele>796.9</ele>
        <time>2022-07-16T05:33:27Z</time>
      </trkpt>
      <trkpt lat="44.91501" lon="5.82133">
        <ele>797</ele>
        <time>2022-07-16T05:33:28Z</time>
      </trkpt>
      <trkpt lat="44.91502" lon="5.82135">
        <ele>797.1</ele>
        <time>2022-07-16T05:33:29Z</time>
      </trkpt>
      <trkpt lat="44.91506" lon="5.82142">
        <ele>797.3</ele>
        <time>2022-07-16T05:33:31Z</time>
      </trkpt>
      <trkpt lat="44.91508" lon="5.82148">
        <ele>797.5</ele>
        <time>2022-07-16T05:33:32Z</time>
      </trkpt>
      <trkpt lat="44.9151" lon="5.8215">
        <ele>797.6</ele>
        <time>2022-07-16T05:33:33Z</time>
      </trkpt>
      <trkpt lat="44.91513" lon="5.82153">
        <ele>797.7</ele>
        <time>2022-07-16T05:33:35Z</time>
      </trkpt>
      <trkpt lat="44.91516" lon="5.82157">
        <ele>797.9</ele>
        <time>2022-07-16T05:33:36Z</time>
      </trkpt>
      <trkpt lat="44.91522" lon="5.82165">
        <ele>798.2</ele>
        <time>2022-07-16T05:33:38Z</time>
      </trkpt>
      <trkpt lat="44.91527" lon="5.82173">
        <ele>798.5</ele>
        <time>2022-07-16T05:33:40Z</time>
      </trkpt>
      <trkpt lat="44.91531" lon="5.8218">
        <ele>798.9</ele>
        <time>2022-07-16T05:33:42Z</time>
      </trkpt>
      <trkpt lat="44.91533" lon="5.82186">
        <ele>799.2</ele>
        <time>2022-07-16T05:33:43Z</time>
      </trkpt>
      <trkpt lat="44.91538" lon="5.82194">
        <ele>799.6</ele>
        <time>2022-07-16T05:33:45Z</time>
      </trkpt>
      <trkpt lat="44.9154" lon="5.822">
        <ele>799.9</ele>
        <time>2022-07-16T05:33:47Z</time>
      </trkpt>
      <trkpt lat="44.91543" lon="5.82204">
        <ele>800.1</ele>
        <time>2022-07-16T05:33:48Z</time>
      </trkpt>
      <trkpt lat="44.91547" lon="5.82213">
        <ele>800.6</ele>
        <time>2022-07-16T05:33:50Z</time>
      </trkpt>
      <trkpt lat="44.91549" lon="5.82218">
        <ele>800.8</ele>
        <time>2022-07-16T05:33:51Z</time>
      </trkpt>
      <trkpt lat="44.9155" lon="5.8222">
        <ele>800.9</ele>
        <time>2022-07-16T05:33:52Z</time>
      </trkpt>
      <trkpt lat="44.91557" lon="5.82231">
        <ele>801.5</ele>
        <time>2022-07-16T05:33:55Z</time>
      </trkpt>
      <trkpt lat="44.91558" lon="5.82235">
        <ele>801.7</ele>
        <time>2022-07-16T05:33:56Z</time>
      </trkpt>
      <trkpt lat="44.91562" lon="5.82244">
        <ele>802.2</ele>
        <time>2022-07-16T05:33:58Z</time>
      </trkpt>
      <trkpt lat="44.91566" lon="5.82255">
        <ele>802.7</ele>
        <time>2022-07-16T05:34:01Z</time>
      </trkpt>
      <trkpt lat="44.91569" lon="5.82261">
        <ele>803.1</ele>
        <time>2022-07-16T05:34:02Z</time>
      </trkpt>
      <trkpt lat="44.91572" lon="5.82266">
        <ele>803.3</ele>
        <time>2022-07-16T05:34:04Z</time>
      </trkpt>
      <trkpt lat="44.91573" lon="5.82268">
        <ele>803.5</ele>
        <time>2022-07-16T05:34:06Z</time>
      </trkpt>
      <trkpt lat="44.91574" lon="5.82271">
        <ele>803.6</ele>
        <time>2022-07-16T05:34:07Z</time>
      </trkpt>
      <trkpt lat="44.91575" lon="5.82274">
        <ele>803.8</ele>
        <time>2022-07-16T05:34:08Z</time>
      </trkpt>
      <trkpt lat="44.91577" lon="5.82278">
        <ele>804</ele>
        <time>2022-07-16T05:34:09Z</time>
      </trkpt>
      <trkpt lat="44.91579" lon="5.82282">
        <ele>804.2</ele>
        <time>2022-07-16T05:34:10Z</time>
      </trkpt>
      <trkpt lat="44.91579" lon="5.82284">
        <ele>804.3</ele>
        <time>2022-07-16T05:34:11Z</time>
      </trkpt>
      <trkpt lat="44.91581" lon="5.82289">
        <ele>804.6</ele>
        <time>2022-07-16T05:34:12Z</time>
      </trkpt>
      <trkpt lat="44.91582" lon="5.8229">
        <ele>804.7</ele>
        <time>2022-07-16T05:34:13Z</time>
      </trkpt>
      <trkpt lat="44.91584" lon="5.82295">
        <ele>805</ele>
        <time>2022-07-16T05:34:14Z</time>
      </trkpt>
      <trkpt lat="44.91585" lon="5.82297">
        <ele>805.1</ele>
        <time>2022-07-16T05:34:15Z</time>
      </trkpt>
      <trkpt lat="44.91587" lon="5.82301">
        <ele>805.3</ele>
        <time>2022-07-16T05:34:16Z</time>
      </trkpt>
      <trkpt lat="44.91589" lon="5.82304">
        <ele>805.5</ele>
        <time>2022-07-16T05:34:17Z</time>
      </trkpt>
      <trkpt lat="44.91591" lon="5.82308">
        <ele>805.7</ele>
        <time>2022-07-16T05:34:18Z</time>
      </trkpt>
      <trkpt lat="44.91591" lon="5.8231">
        <ele>805.8</ele>
        <time>2022-07-16T05:34:19Z</time>
      </trkpt>
      <trkpt lat="44.91593" lon="5.82314">
        <ele>806</ele>
        <time>2022-07-16T05:34:20Z</time>
      </trkpt>
      <trkpt lat="44.91595" lon="5.82318">
        <ele>806.3</ele>
        <time>2022-07-16T05:34:21Z</time>
      </trkpt>
      <trkpt lat="44.91596" lon="5.82319">
        <ele>806.4</ele>
        <time>2022-07-16T05:34:22Z</time>
      </trkpt>
      <trkpt lat="44.91598" lon="5.82324">
        <ele>806.6</ele>
        <time>2022-07-16T05:34:23Z</time>
      </trkpt>
      <trkpt lat="44.91599" lon="5.82328">
        <ele>806.8</ele>
        <time>2022-07-16T05:34:24Z</time>
      </trkpt>
      <trkpt lat="44.916" lon="5.82331">
        <ele>807</ele>
        <time>2022-07-16T05:34:25Z</time>
      </trkpt>
      <trkpt lat="44.91602" lon="5.82335">
        <ele>807.3</ele>
        <time>2022-07-16T05:34:26Z</time>
      </trkpt>
      <trkpt lat="44.91604" lon="5.82339">
        <ele>807.6</ele>
        <time>2022-07-16T05:34:27Z</time>
      </trkpt>
      <trkpt lat="44.91607" lon="5.82342">
        <ele>807.9</ele>
        <time>2022-07-16T05:34:28Z</time>
      </trkpt>
      <trkpt lat="44.91609" lon="5.82345">
        <ele>808.1</ele>
        <time>2022-07-16T05:34:29Z</time>
      </trkpt>
      <trkpt lat="44.91612" lon="5.82347">
        <ele>808.4</ele>
        <time>2022-07-16T05:34:30Z</time>
      </trkpt>
      <trkpt lat="44.91615" lon="5.82349">
        <ele>808.6</ele>
        <time>2022-07-16T05:34:31Z</time>
      </trkpt>
      <trkpt lat="44.91618" lon="5.8235">
        <ele>808.9</ele>
        <time>2022-07-16T05:34:32Z</time>
      </trkpt>
      <trkpt lat="44.9162" lon="5.8235">
        <ele>809.1</ele>
        <time>2022-07-16T05:34:33Z</time>
      </trkpt>
      <trkpt lat="44.91624" lon="5.82347">
        <ele>809.3</ele>
        <time>2022-07-16T05:34:34Z</time>
      </trkpt>
      <trkpt lat="44.91625" lon="5.82346">
        <ele>809.4</ele>
        <time>2022-07-16T05:34:35Z</time>
      </trkpt>
      <trkpt lat="44.91627" lon="5.82343">
        <ele>809.6</ele>
        <time>2022-07-16T05:34:36Z</time>
      </trkpt>
      <trkpt lat="44.91629" lon="5.82339">
        <ele>809.8</ele>
        <time>2022-07-16T05:34:37Z</time>
      </trkpt>
      <trkpt lat="44.9163" lon="5.82335">
        <ele>809.9</ele>
        <time>2022-07-16T05:34:38Z</time>
      </trkpt>
      <trkpt lat="44.9163" lon="5.82331">
        <ele>810</ele>
        <time>2022-07-16T05:34:39Z</time>
      </trkpt>
      <trkpt lat="44.9163" lon="5.82326">
        <ele>810.1</ele>
        <time>2022-07-16T05:34:40Z</time>
      </trkpt>
      <trkpt lat="44.91628" lon="5.82322">
        <ele>810.1</ele>
        <time>2022-07-16T05:34:41Z</time>
      </trkpt>
      <trkpt lat="44.91627" lon="5.82318">
        <ele>810.1</ele>
        <time>2022-07-16T05:34:42Z</time>
      </trkpt>
      <trkpt lat="44.91624" lon="5.82313">
        <ele>810.1</ele>
        <time>2022-07-16T05:34:43Z</time>
      </trkpt>
      <trkpt lat="44.91622" lon="5.82309">
        <ele>810.1</ele>
        <time>2022-07-16T05:34:44Z</time>
      </trkpt>
      <trkpt lat="44.91619" lon="5.82305">
        <ele>810.1</ele>
        <time>2022-07-16T05:34:45Z</time>
      </trkpt>
      <trkpt lat="44.91616" lon="5.823">
        <ele>810</ele>
        <time>2022-07-16T05:34:46Z</time>
      </trkpt>
      <trkpt lat="44.91613" lon="5.82296">
        <ele>810</ele>
        <time>2022-07-16T05:34:47Z</time>
      </trkpt>
      <trkpt lat="44.91611" lon="5.82291">
        <ele>810</ele>
        <time>2022-07-16T05:34:48Z</time>
      </trkpt>
      <trkpt lat="44.91609" lon="5.82287">
        <ele>810</ele>
        <time>2022-07-16T05:34:49Z</time>
      </trkpt>
      <trkpt lat="44.91607" lon="5.82282">
        <ele>810</ele>
        <time>2022-07-16T05:34:50Z</time>
      </trkpt>
      <trkpt lat="44.91605" lon="5.82278">
        <ele>810</ele>
        <time>2022-07-16T05:34:51Z</time>
      </trkpt>
      <trkpt lat="44.91603" lon="5.82272">
        <ele>810</ele>
        <time>2022-07-16T05:34:52Z</time>
      </trkpt>
      <trkpt lat="44.91602" lon="5.82267">
        <ele>810</ele>
        <time>2022-07-16T05:34:53Z</time>
      </trkpt>
      <trkpt lat="44.916" lon="5.82262">
        <ele>810</ele>
        <time>2022-07-16T05:34:54Z</time>
      </trkpt>
      <trkpt lat="44.91598" lon="5.82257">
        <ele>809.9</ele>
        <time>2022-07-16T05:34:55Z</time>
      </trkpt>
      <trkpt lat="44.91597" lon="5.82252">
        <ele>809.9</ele>
        <time>2022-07-16T05:34:56Z</time>
      </trkpt>
      <trkpt lat="44.91595" lon="5.82246">
        <ele>809.9</ele>
        <time>2022-07-16T05:34:57Z</time>
      </trkpt>
      <trkpt lat="44.91593" lon="5.82241">
        <ele>809.9</ele>
        <time>2022-07-16T05:34:58Z</time>
      </trkpt>
      <trkpt lat="44.91592" lon="5.82236">
        <ele>809.9</ele>
        <time>2022-07-16T05:34:59Z</time>
      </trkpt>
      <trkpt lat="44.9159" lon="5.8223">
        <ele>810</ele>
        <time>2022-07-16T05:35:00Z</time>
      </trkpt>
      <trkpt lat="44.91588" lon="5.82225">
        <ele>810</ele>
        <time>2022-07-16T05:35:01Z</time>
      </trkpt>
      <trkpt lat="44.91586" lon="5.8222">
        <ele>810</ele>
        <time>2022-07-16T05:35:02Z</time>
      </trkpt>
      <trkpt lat="44.91584" lon="5.82214">
        <ele>810</ele>
        <time>2022-07-16T05:35:03Z</time>
      </trkpt>
      <trkpt lat="44.91583" lon="5.82209">
        <ele>810.1</ele>
        <time>2022-07-16T05:35:04Z</time>
      </trkpt>
      <trkpt lat="44.91581" lon="5.82203">
        <ele>810.1</ele>
        <time>2022-07-16T05:35:05Z</time>
      </trkpt>
      <trkpt lat="44.9158" lon="5.82198">
        <ele>810.2</ele>
        <time>2022-07-16T05:35:06Z</time>
      </trkpt>
      <trkpt lat="44.91579" lon="5.82192">
        <ele>810.3</ele>
        <time>2022-07-16T05:35:07Z</time>
      </trkpt>
      <trkpt lat="44.91578" lon="5.82187">
        <ele>810.3</ele>
        <time>2022-07-16T05:35:08Z</time>
      </trkpt>
      <trkpt lat="44.91577" lon="5.8218">
        <ele>810.4</ele>
        <time>2022-07-16T05:35:09Z</time>
      </trkpt>
      <trkpt lat="44.91576" lon="5.82174">
        <ele>810.5</ele>
        <time>2022-07-16T05:35:10Z</time>
      </trkpt>
      <trkpt lat="44.91576" lon="5.82168">
        <ele>810.5</ele>
        <time>2022-07-16T05:35:11Z</time>
      </trkpt>
      <trkpt lat="44.91575" lon="5.82162">
        <ele>810.6</ele>
        <time>2022-07-16T05:35:12Z</time>
      </trkpt>
      <trkpt lat="44.91575" lon="5.82157">
        <ele>810.7</ele>
        <time>2022-07-16T05:35:13Z</time>
      </trkpt>
      <trkpt lat="44.91574" lon="5.82152">
        <ele>810.8</ele>
        <time>2022-07-16T05:35:14Z</time>
      </trkpt>
      <trkpt lat="44.91574" lon="5.82146">
        <ele>810.9</ele>
        <time>2022-07-16T05:35:15Z</time>
      </trkpt>
      <trkpt lat="44.91573" lon="5.8214">
        <ele>811</ele>
        <time>2022-07-16T05:35:16Z</time>
      </trkpt>
      <trkpt lat="44.91573" lon="5.82135">
        <ele>811.1</ele>
        <time>2022-07-16T05:35:17Z</time>
      </trkpt>
      <trkpt lat="44.91572" lon="5.82129">
        <ele>811.3</ele>
        <time>2022-07-16T05:35:18Z</time>
      </trkpt>
      <trkpt lat="44.91571" lon="5.82124">
        <ele>811.4</ele>
        <time>2022-07-16T05:35:19Z</time>
      </trkpt>
      <trkpt lat="44.9157" lon="5.82118">
        <ele>811.5</ele>
        <time>2022-07-16T05:35:20Z</time>
      </trkpt>
      <trkpt lat="44.91569" lon="5.82113">
        <ele>811.6</ele>
        <time>2022-07-16T05:35:21Z</time>
      </trkpt>
      <trkpt lat="44.91567" lon="5.82108">
        <ele>811.8</ele>
        <time>2022-07-16T05:35:22Z</time>
      </trkpt>
      <trkpt lat="44.91566" lon="5.82103">
        <ele>811.9</ele>
        <time>2022-07-16T05:35:23Z</time>
      </trkpt>
      <trkpt lat="44.91564" lon="5.82098">
        <ele>812</ele>
        <time>2022-07-16T05:35:24Z</time>
      </trkpt>
      <trkpt lat="44.91562" lon="5.82093">
        <ele>812.1</ele>
        <time>2022-07-16T05:35:25Z</time>
      </trkpt>
      <trkpt lat="44.91561" lon="5.82088">
        <ele>812.3</ele>
        <time>2022-07-16T05:35:26Z</time>
      </trkpt>
      <trkpt lat="44.91559" lon="5.82082">
        <ele>812.4</ele>
        <time>2022-07-16T05:35:27Z</time>
      </trkpt>
      <trkpt lat="44.91557" lon="5.82077">
        <ele>812.6</ele>
        <time>2022-07-16T05:35:28Z</time>
      </trkpt>
      <trkpt lat="44.91555" lon="5.82072">
        <ele>812.7</ele>
        <time>2022-07-16T05:35:29Z</time>
      </trkpt>
      <trkpt lat="44.91553" lon="5.82067">
        <ele>812.8</ele>
        <time>2022-07-16T05:35:30Z</time>
      </trkpt>
      <trkpt lat="44.91551" lon="5.82062">
        <ele>813</ele>
        <time>2022-07-16T05:35:31Z</time>
      </trkpt>
      <trkpt lat="44.91549" lon="5.82057">
        <ele>813.1</ele>
        <time>2022-07-16T05:35:32Z</time>
      </trkpt>
      <trkpt lat="44.91547" lon="5.82052">
        <ele>813.2</ele>
        <time>2022-07-16T05:35:33Z</time>
      </trkpt>
      <trkpt lat="44.91546" lon="5.82047">
        <ele>813.4</ele>
        <time>2022-07-16T05:35:34Z</time>
      </trkpt>
      <trkpt lat="44.91544" lon="5.82042">
        <ele>813.6</ele>
        <time>2022-07-16T05:35:35Z</time>
      </trkpt>
      <trkpt lat="44.91542" lon="5.82037">
        <ele>813.7</ele>
        <time>2022-07-16T05:35:36Z</time>
      </trkpt>
      <trkpt lat="44.9154" lon="5.82032">
        <ele>813.8</ele>
        <time>2022-07-16T05:35:37Z</time>
      </trkpt>
      <trkpt lat="44.91538" lon="5.82027">
        <ele>814</ele>
        <time>2022-07-16T05:35:38Z</time>
      </trkpt>
      <trkpt lat="44.91536" lon="5.82022">
        <ele>814.1</ele>
        <time>2022-07-16T05:35:39Z</time>
      </trkpt>
      <trkpt lat="44.91534" lon="5.82017">
        <ele>814.3</ele>
        <time>2022-07-16T05:35:40Z</time>
      </trkpt>
      <trkpt lat="44.91532" lon="5.82013">
        <ele>814.4</ele>
        <time>2022-07-16T05:35:41Z</time>
      </trkpt>
      <trkpt lat="44.91531" lon="5.82008">
        <ele>814.5</ele>
        <time>2022-07-16T05:35:42Z</time>
      </trkpt>
      <trkpt lat="44.91529" lon="5.82004">
        <ele>814.6</ele>
        <time>2022-07-16T05:35:43Z</time>
      </trkpt>
      <trkpt lat="44.91528" lon="5.81999">
        <ele>814.7</ele>
        <time>2022-07-16T05:35:44Z</time>
      </trkpt>
      <trkpt lat="44.91526" lon="5.81994">
        <ele>814.9</ele>
        <time>2022-07-16T05:35:45Z</time>
      </trkpt>
      <trkpt lat="44.91524" lon="5.81989">
        <ele>815</ele>
        <time>2022-07-16T05:35:46Z</time>
      </trkpt>
      <trkpt lat="44.91522" lon="5.81985">
        <ele>815.2</ele>
        <time>2022-07-16T05:35:47Z</time>
      </trkpt>
      <trkpt lat="44.9152" lon="5.81981">
        <ele>815.3</ele>
        <time>2022-07-16T05:35:48Z</time>
      </trkpt>
      <trkpt lat="44.91518" lon="5.81977">
        <ele>815.5</ele>
        <time>2022-07-16T05:35:49Z</time>
      </trkpt>
      <trkpt lat="44.91516" lon="5.81973">
        <ele>815.6</ele>
        <time>2022-07-16T05:35:50Z</time>
      </trkpt>
      <trkpt lat="44.91514" lon="5.81968">
        <ele>815.8</ele>
        <time>2022-07-16T05:35:51Z</time>
      </trkpt>
      <trkpt lat="44.91512" lon="5.81964">
        <ele>816</ele>
        <time>2022-07-16T05:35:52Z</time>
      </trkpt>
      <trkpt lat="44.91509" lon="5.81959">
        <ele>816.2</ele>
        <time>2022-07-16T05:35:53Z</time>
      </trkpt>
      <trkpt lat="44.91507" lon="5.81955">
        <ele>816.3</ele>
        <time>2022-07-16T05:35:54Z</time>
      </trkpt>
      <trkpt lat="44.91504" lon="5.81951">
        <ele>816.5</ele>
        <time>2022-07-16T05:35:55Z</time>
      </trkpt>
      <trkpt lat="44.91502" lon="5.81947">
        <ele>816.7</ele>
        <time>2022-07-16T05:35:56Z</time>
      </trkpt>
      <trkpt lat="44.91499" lon="5.81943">
        <ele>816.8</ele>
        <time>2022-07-16T05:35:57Z</time>
      </trkpt>
      <trkpt lat="44.91497" lon="5.81939">
        <ele>817</ele>
        <time>2022-07-16T05:35:58Z</time>
      </trkpt>
      <trkpt lat="44.91494" lon="5.81935">
        <ele>817.1</ele>
        <time>2022-07-16T05:35:59Z</time>
      </trkpt>
      <trkpt lat="44.91492" lon="5.81932">
        <ele>817.2</ele>
        <time>2022-07-16T05:36:00Z</time>
      </trkpt>
      <trkpt lat="44.9149" lon="5.81928">
        <ele>817.4</ele>
        <time>2022-07-16T05:36:01Z</time>
      </trkpt>
      <trkpt lat="44.91487" lon="5.81924">
        <ele>817.5</ele>
        <time>2022-07-16T05:36:02Z</time>
      </trkpt>
      <trkpt lat="44.91485" lon="5.8192">
        <ele>817.7</ele>
        <time>2022-07-16T05:36:03Z</time>
      </trkpt>
      <trkpt lat="44.91483" lon="5.81917">
        <ele>817.8</ele>
        <time>2022-07-16T05:36:04Z</time>
      </trkpt>
      <trkpt lat="44.91481" lon="5.81913">
        <ele>818</ele>
        <time>2022-07-16T05:36:05Z</time>
      </trkpt>
      <trkpt lat="44.91479" lon="5.81909">
        <ele>818.1</ele>
        <time>2022-07-16T05:36:06Z</time>
      </trkpt>
      <trkpt lat="44.91477" lon="5.81906">
        <ele>818.3</ele>
        <time>2022-07-16T05:36:07Z</time>
      </trkpt>
      <trkpt lat="44.91474" lon="5.81902">
        <ele>818.4</ele>
        <time>2022-07-16T05:36:08Z</time>
      </trkpt>
      <trkpt lat="44.91472" lon="5.81899">
        <ele>818.6</ele>
        <time>2022-07-16T05:36:09Z</time>
      </trkpt>
      <trkpt lat="44.9147" lon="5.81896">
        <ele>818.7</ele>
        <time>2022-07-16T05:36:10Z</time>
      </trkpt>
      <trkpt lat="44.91468" lon="5.81892">
        <ele>818.9</ele>
        <time>2022-07-16T05:36:11Z</time>
      </trkpt>
      <trkpt lat="44.91465" lon="5.8189">
        <ele>819</ele>
        <time>2022-07-16T05:36:12Z</time>
      </trkpt>
      <trkpt lat="44.91463" lon="5.81887">
        <ele>819.2</ele>
        <time>2022-07-16T05:36:13Z</time>
      </trkpt>
      <trkpt lat="44.91461" lon="5.81885">
        <ele>819.4</ele>
        <time>2022-07-16T05:36:14Z</time>
      </trkpt>
      <trkpt lat="44.91457" lon="5.81882">
        <ele>819.6</ele>
        <time>2022-07-16T05:36:15Z</time>
      </trkpt>
      <trkpt lat="44.91455" lon="5.81881">
        <ele>819.7</ele>
        <time>2022-07-16T05:36:16Z</time>
      </trkpt>
      <trkpt lat="44.91452" lon="5.81879">
        <ele>819.8</ele>
        <time>2022-07-16T05:36:17Z</time>
      </trkpt>
      <trkpt lat="44.91449" lon="5.81877">
        <ele>820</ele>
        <time>2022-07-16T05:36:18Z</time>
      </trkpt>
      <trkpt lat="44.91446" lon="5.81875">
        <ele>820.2</ele>
        <time>2022-07-16T05:36:19Z</time>
      </trkpt>
      <trkpt lat="44.91443" lon="5.81873">
        <ele>820.4</ele>
        <time>2022-07-16T05:36:20Z</time>
      </trkpt>
      <trkpt lat="44.91439" lon="5.81871">
        <ele>820.5</ele>
        <time>2022-07-16T05:36:21Z</time>
      </trkpt>
      <trkpt lat="44.91436" lon="5.8187">
        <ele>820.7</ele>
        <time>2022-07-16T05:36:22Z</time>
      </trkpt>
      <trkpt lat="44.91433" lon="5.81868">
        <ele>820.9</ele>
        <time>2022-07-16T05:36:23Z</time>
      </trkpt>
      <trkpt lat="44.9143" lon="5.81866">
        <ele>821</ele>
        <time>2022-07-16T05:36:24Z</time>
      </trkpt>
      <trkpt lat="44.91427" lon="5.81865">
        <ele>821.2</ele>
        <time>2022-07-16T05:36:25Z</time>
      </trkpt>
      <trkpt lat="44.91424" lon="5.81863">
        <ele>821.4</ele>
        <time>2022-07-16T05:36:26Z</time>
      </trkpt>
      <trkpt lat="44.91421" lon="5.81862">
        <ele>821.6</ele>
        <time>2022-07-16T05:36:27Z</time>
      </trkpt>
      <trkpt lat="44.91418" lon="5.8186">
        <ele>821.7</ele>
        <time>2022-07-16T05:36:28Z</time>
      </trkpt>
      <trkpt lat="44.91415" lon="5.81859">
        <ele>821.9</ele>
        <time>2022-07-16T05:36:29Z</time>
      </trkpt>
      <trkpt lat="44.91412" lon="5.81858">
        <ele>822.1</ele>
        <time>2022-07-16T05:36:30Z</time>
      </trkpt>
      <trkpt lat="44.91408" lon="5.81857">
        <ele>822.3</ele>
        <time>2022-07-16T05:36:31Z</time>
      </trkpt>
      <trkpt lat="44.91406" lon="5.81856">
        <ele>822.4</ele>
        <time>2022-07-16T05:36:32Z</time>
      </trkpt>
      <trkpt lat="44.91403" lon="5.81856">
        <ele>822.6</ele>
        <time>2022-07-16T05:36:33Z</time>
      </trkpt>
      <trkpt lat="44.914" lon="5.81856">
        <ele>822.8</ele>
        <time>2022-07-16T05:36:34Z</time>
      </trkpt>
      <trkpt lat="44.91396" lon="5.81856">
        <ele>823</ele>
        <time>2022-07-16T05:36:35Z</time>
      </trkpt>
      <trkpt lat="44.91395" lon="5.81855">
        <ele>823.1</ele>
        <time>2022-07-16T05:36:36Z</time>
      </trkpt>
      <trkpt lat="44.91392" lon="5.81855">
        <ele>823.3</ele>
        <time>2022-07-16T05:36:37Z</time>
      </trkpt>
      <trkpt lat="44.91389" lon="5.81855">
        <ele>823.5</ele>
        <time>2022-07-16T05:36:38Z</time>
      </trkpt>
      <trkpt lat="44.91386" lon="5.81854">
        <ele>823.7</ele>
        <time>2022-07-16T05:36:39Z</time>
      </trkpt>
      <trkpt lat="44.91383" lon="5.81854">
        <ele>823.8</ele>
        <time>2022-07-16T05:36:40Z</time>
      </trkpt>
      <trkpt lat="44.9138" lon="5.81853">
        <ele>824</ele>
        <time>2022-07-16T05:36:41Z</time>
      </trkpt>
      <trkpt lat="44.91376" lon="5.81853">
        <ele>824.3</ele>
        <time>2022-07-16T05:36:42Z</time>
      </trkpt>
      <trkpt lat="44.91374" lon="5.81852">
        <ele>824.3</ele>
        <time>2022-07-16T05:36:43Z</time>
      </trkpt>
      <trkpt lat="44.91372" lon="5.81852">
        <ele>824.5</ele>
        <time>2022-07-16T05:36:44Z</time>
      </trkpt>
      <trkpt lat="44.91368" lon="5.81852">
        <ele>824.8</ele>
        <time>2022-07-16T05:36:45Z</time>
      </trkpt>
      <trkpt lat="44.91366" lon="5.81853">
        <ele>824.8</ele>
        <time>2022-07-16T05:36:46Z</time>
      </trkpt>
      <trkpt lat="44.91363" lon="5.81853">
        <ele>825.1</ele>
        <time>2022-07-16T05:36:47Z</time>
      </trkpt>
      <trkpt lat="44.9136" lon="5.81853">
        <ele>825.3</ele>
        <time>2022-07-16T05:36:48Z</time>
      </trkpt>
      <trkpt lat="44.91357" lon="5.81853">
        <ele>825.5</ele>
        <time>2022-07-16T05:36:49Z</time>
      </trkpt>
      <trkpt lat="44.91354" lon="5.81853">
        <ele>825.7</ele>
        <time>2022-07-16T05:36:50Z</time>
      </trkpt>
      <trkpt lat="44.9135" lon="5.81853">
        <ele>825.9</ele>
        <time>2022-07-16T05:36:51Z</time>
      </trkpt>
      <trkpt lat="44.91348" lon="5.81852">
        <ele>826</ele>
        <time>2022-07-16T05:36:52Z</time>
      </trkpt>
      <trkpt lat="44.91345" lon="5.81851">
        <ele>826.2</ele>
        <time>2022-07-16T05:36:53Z</time>
      </trkpt>
      <trkpt lat="44.91342" lon="5.81851">
        <ele>826.4</ele>
        <time>2022-07-16T05:36:54Z</time>
      </trkpt>
      <trkpt lat="44.91339" lon="5.8185">
        <ele>826.6</ele>
        <time>2022-07-16T05:36:55Z</time>
      </trkpt>
      <trkpt lat="44.91336" lon="5.8185">
        <ele>826.8</ele>
        <time>2022-07-16T05:36:56Z</time>
      </trkpt>
      <trkpt lat="44.91333" lon="5.81848">
        <ele>827</ele>
        <time>2022-07-16T05:36:57Z</time>
      </trkpt>
      <trkpt lat="44.9133" lon="5.81846">
        <ele>827.2</ele>
        <time>2022-07-16T05:36:58Z</time>
      </trkpt>
      <trkpt lat="44.91327" lon="5.81844">
        <ele>827.4</ele>
        <time>2022-07-16T05:36:59Z</time>
      </trkpt>
      <trkpt lat="44.91324" lon="5.81842">
        <ele>827.7</ele>
        <time>2022-07-16T05:37:00Z</time>
      </trkpt>
      <trkpt lat="44.91321" lon="5.8184">
        <ele>828</ele>
        <time>2022-07-16T05:37:01Z</time>
      </trkpt>
      <trkpt lat="44.91319" lon="5.81837">
        <ele>828.3</ele>
        <time>2022-07-16T05:37:02Z</time>
      </trkpt>
      <trkpt lat="44.91317" lon="5.81834">
        <ele>828.5</ele>
        <time>2022-07-16T05:37:03Z</time>
      </trkpt>
      <trkpt lat="44.91315" lon="5.81831">
        <ele>828.8</ele>
        <time>2022-07-16T05:37:04Z</time>
      </trkpt>
      <trkpt lat="44.91313" lon="5.81827">
        <ele>829.1</ele>
        <time>2022-07-16T05:37:05Z</time>
      </trkpt>
      <trkpt lat="44.91311" lon="5.81823">
        <ele>829.4</ele>
        <time>2022-07-16T05:37:06Z</time>
      </trkpt>
      <trkpt lat="44.9131" lon="5.8182">
        <ele>829.7</ele>
        <time>2022-07-16T05:37:07Z</time>
      </trkpt>
      <trkpt lat="44.91308" lon="5.81816">
        <ele>830</ele>
        <time>2022-07-16T05:37:08Z</time>
      </trkpt>
      <trkpt lat="44.91307" lon="5.81812">
        <ele>830.3</ele>
        <time>2022-07-16T05:37:09Z</time>
      </trkpt>
      <trkpt lat="44.91306" lon="5.81808">
        <ele>830.6</ele>
        <time>2022-07-16T05:37:10Z</time>
      </trkpt>
      <trkpt lat="44.91305" lon="5.81803">
        <ele>830.9</ele>
        <time>2022-07-16T05:37:11Z</time>
      </trkpt>
      <trkpt lat="44.91305" lon="5.81799">
        <ele>831.1</ele>
        <time>2022-07-16T05:37:12Z</time>
      </trkpt>
      <trkpt lat="44.91304" lon="5.81795">
        <ele>831.4</ele>
        <time>2022-07-16T05:37:13Z</time>
      </trkpt>
      <trkpt lat="44.91304" lon="5.8179">
        <ele>831.7</ele>
        <time>2022-07-16T05:37:14Z</time>
      </trkpt>
      <trkpt lat="44.91305" lon="5.81786">
        <ele>832</ele>
        <time>2022-07-16T05:37:15Z</time>
      </trkpt>
      <trkpt lat="44.91305" lon="5.81782">
        <ele>832.3</ele>
        <time>2022-07-16T05:37:16Z</time>
      </trkpt>
      <trkpt lat="44.91307" lon="5.81777">
        <ele>832.6</ele>
        <time>2022-07-16T05:37:17Z</time>
      </trkpt>
      <trkpt lat="44.91308" lon="5.81773">
        <ele>832.8</ele>
        <time>2022-07-16T05:37:18Z</time>
      </trkpt>
      <trkpt lat="44.9131" lon="5.81769">
        <ele>832.9</ele>
        <time>2022-07-16T05:37:19Z</time>
      </trkpt>
      <trkpt lat="44.91312" lon="5.81766">
        <ele>833.1</ele>
        <time>2022-07-16T05:37:20Z</time>
      </trkpt>
      <trkpt lat="44.91314" lon="5.81762">
        <ele>833.3</ele>
        <time>2022-07-16T05:37:21Z</time>
      </trkpt>
      <trkpt lat="44.91316" lon="5.81759">
        <ele>833.5</ele>
        <time>2022-07-16T05:37:22Z</time>
      </trkpt>
      <trkpt lat="44.91319" lon="5.81757">
        <ele>833.7</ele>
        <time>2022-07-16T05:37:23Z</time>
      </trkpt>
      <trkpt lat="44.91322" lon="5.81754">
        <ele>833.9</ele>
        <time>2022-07-16T05:37:24Z</time>
      </trkpt>
      <trkpt lat="44.91325" lon="5.81752">
        <ele>834</ele>
        <time>2022-07-16T05:37:25Z</time>
      </trkpt>
      <trkpt lat="44.91327" lon="5.81749">
        <ele>834.2</ele>
        <time>2022-07-16T05:37:26Z</time>
      </trkpt>
      <trkpt lat="44.9133" lon="5.81746">
        <ele>834.4</ele>
        <time>2022-07-16T05:37:27Z</time>
      </trkpt>
      <trkpt lat="44.91333" lon="5.81744">
        <ele>834.5</ele>
        <time>2022-07-16T05:37:28Z</time>
      </trkpt>
      <trkpt lat="44.91335" lon="5.81742">
        <ele>834.7</ele>
        <time>2022-07-16T05:37:29Z</time>
      </trkpt>
      <trkpt lat="44.91338" lon="5.81739">
        <ele>834.8</ele>
        <time>2022-07-16T05:37:30Z</time>
      </trkpt>
      <trkpt lat="44.9134" lon="5.81737">
        <ele>835</ele>
        <time>2022-07-16T05:37:31Z</time>
      </trkpt>
      <trkpt lat="44.91343" lon="5.81734">
        <ele>835.1</ele>
        <time>2022-07-16T05:37:32Z</time>
      </trkpt>
      <trkpt lat="44.91346" lon="5.81732">
        <ele>835.2</ele>
        <time>2022-07-16T05:37:33Z</time>
      </trkpt>
      <trkpt lat="44.91349" lon="5.81729">
        <ele>835.4</ele>
        <time>2022-07-16T05:37:34Z</time>
      </trkpt>
      <trkpt lat="44.91352" lon="5.81726">
        <ele>835.5</ele>
        <time>2022-07-16T05:37:35Z</time>
      </trkpt>
      <trkpt lat="44.91361" lon="5.81719">
        <ele>835.9</ele>
        <time>2022-07-16T05:37:37Z</time>
      </trkpt>
      <trkpt lat="44.91363" lon="5.81717">
        <ele>835.9</ele>
        <time>2022-07-16T05:37:38Z</time>
      </trkpt>
      <trkpt lat="44.9137" lon="5.81712">
        <ele>836.1</ele>
        <time>2022-07-16T05:37:40Z</time>
      </trkpt>
      <trkpt lat="44.91374" lon="5.81709">
        <ele>836.3</ele>
        <time>2022-07-16T05:37:41Z</time>
      </trkpt>
      <trkpt lat="44.91377" lon="5.81706">
        <ele>836.4</ele>
        <time>2022-07-16T05:37:42Z</time>
      </trkpt>
      <trkpt lat="44.91384" lon="5.81701">
        <ele>836.5</ele>
        <time>2022-07-16T05:37:44Z</time>
      </trkpt>
      <trkpt lat="44.91389" lon="5.81698">
        <ele>836.7</ele>
        <time>2022-07-16T05:37:45Z</time>
      </trkpt>
      <trkpt lat="44.91393" lon="5.81695">
        <ele>836.7</ele>
        <time>2022-07-16T05:37:46Z</time>
      </trkpt>
      <trkpt lat="44.91396" lon="5.81691">
        <ele>836.8</ele>
        <time>2022-07-16T05:37:47Z</time>
      </trkpt>
      <trkpt lat="44.91403" lon="5.81685">
        <ele>836.9</ele>
        <time>2022-07-16T05:37:49Z</time>
      </trkpt>
      <trkpt lat="44.91406" lon="5.81679">
        <ele>836.9</ele>
        <time>2022-07-16T05:37:50Z</time>
      </trkpt>
      <trkpt lat="44.91411" lon="5.8167">
        <ele>836.9</ele>
        <time>2022-07-16T05:37:51Z</time>
      </trkpt>
      <trkpt lat="44.91415" lon="5.81662">
        <ele>837</ele>
        <time>2022-07-16T05:37:54Z</time>
      </trkpt>
      <trkpt lat="44.91418" lon="5.81656">
        <ele>837</ele>
        <time>2022-07-16T05:37:55Z</time>
      </trkpt>
      <trkpt lat="44.9142" lon="5.8165">
        <ele>837</ele>
        <time>2022-07-16T05:37:56Z</time>
      </trkpt>
      <trkpt lat="44.91422" lon="5.81644">
        <ele>837</ele>
        <time>2022-07-16T05:37:57Z</time>
      </trkpt>
      <trkpt lat="44.91425" lon="5.81637">
        <ele>837</ele>
        <time>2022-07-16T05:37:58Z</time>
      </trkpt>
      <trkpt lat="44.91427" lon="5.81631">
        <ele>837</ele>
        <time>2022-07-16T05:37:59Z</time>
      </trkpt>
      <trkpt lat="44.9143" lon="5.81625">
        <ele>837</ele>
        <time>2022-07-16T05:38:00Z</time>
      </trkpt>
      <trkpt lat="44.91432" lon="5.8162">
        <ele>837</ele>
        <time>2022-07-16T05:38:01Z</time>
      </trkpt>
      <trkpt lat="44.91435" lon="5.81614">
        <ele>837</ele>
        <time>2022-07-16T05:38:02Z</time>
      </trkpt>
      <trkpt lat="44.91438" lon="5.81608">
        <ele>837</ele>
        <time>2022-07-16T05:38:03Z</time>
      </trkpt>
      <trkpt lat="44.91442" lon="5.81602">
        <ele>837</ele>
        <time>2022-07-16T05:38:04Z</time>
      </trkpt>
      <trkpt lat="44.91446" lon="5.81597">
        <ele>837</ele>
        <time>2022-07-16T05:38:05Z</time>
      </trkpt>
      <trkpt lat="44.91449" lon="5.81591">
        <ele>837</ele>
        <time>2022-07-16T05:38:06Z</time>
      </trkpt>
      <trkpt lat="44.91452" lon="5.81585">
        <ele>837</ele>
        <time>2022-07-16T05:38:07Z</time>
      </trkpt>
      <trkpt lat="44.91456" lon="5.81579">
        <ele>837</ele>
        <time>2022-07-16T05:38:08Z</time>
      </trkpt>
      <trkpt lat="44.9146" lon="5.81573">
        <ele>837</ele>
        <time>2022-07-16T05:38:09Z</time>
      </trkpt>
      <trkpt lat="44.91463" lon="5.81568">
        <ele>837</ele>
        <time>2022-07-16T05:38:10Z</time>
      </trkpt>
      <trkpt lat="44.91467" lon="5.81562">
        <ele>837</ele>
        <time>2022-07-16T05:38:11Z</time>
      </trkpt>
      <trkpt lat="44.9147" lon="5.81556">
        <ele>837</ele>
        <time>2022-07-16T05:38:12Z</time>
      </trkpt>
      <trkpt lat="44.91473" lon="5.81551">
        <ele>837</ele>
        <time>2022-07-16T05:38:13Z</time>
      </trkpt>
      <trkpt lat="44.91476" lon="5.81545">
        <ele>837</ele>
        <time>2022-07-16T05:38:14Z</time>
      </trkpt>
      <trkpt lat="44.91479" lon="5.81538">
        <ele>837</ele>
        <time>2022-07-16T05:38:15Z</time>
      </trkpt>
      <trkpt lat="44.91482" lon="5.81532">
        <ele>837</ele>
        <time>2022-07-16T05:38:16Z</time>
      </trkpt>
      <trkpt lat="44.91485" lon="5.81525">
        <ele>837</ele>
        <time>2022-07-16T05:38:17Z</time>
      </trkpt>
      <trkpt lat="44.91489" lon="5.81519">
        <ele>837</ele>
        <time>2022-07-16T05:38:18Z</time>
      </trkpt>
      <trkpt lat="44.91491" lon="5.81512">
        <ele>837</ele>
        <time>2022-07-16T05:38:19Z</time>
      </trkpt>
      <trkpt lat="44.91494" lon="5.81505">
        <ele>837.1</ele>
        <time>2022-07-16T05:38:20Z</time>
      </trkpt>
      <trkpt lat="44.91497" lon="5.81498">
        <ele>837.1</ele>
        <time>2022-07-16T05:38:21Z</time>
      </trkpt>
      <trkpt lat="44.915" lon="5.81492">
        <ele>837.1</ele>
        <time>2022-07-16T05:38:22Z</time>
      </trkpt>
      <trkpt lat="44.91504" lon="5.81485">
        <ele>837.2</ele>
        <time>2022-07-16T05:38:23Z</time>
      </trkpt>
      <trkpt lat="44.91506" lon="5.81478">
        <ele>837.3</ele>
        <time>2022-07-16T05:38:24Z</time>
      </trkpt>
      <trkpt lat="44.91509" lon="5.81471">
        <ele>837.3</ele>
        <time>2022-07-16T05:38:25Z</time>
      </trkpt>
      <trkpt lat="44.91512" lon="5.81465">
        <ele>837.4</ele>
        <time>2022-07-16T05:38:26Z</time>
      </trkpt>
      <trkpt lat="44.91514" lon="5.81458">
        <ele>837.5</ele>
        <time>2022-07-16T05:38:27Z</time>
      </trkpt>
      <trkpt lat="44.91517" lon="5.81452">
        <ele>837.5</ele>
        <time>2022-07-16T05:38:28Z</time>
      </trkpt>
      <trkpt lat="44.91519" lon="5.81446">
        <ele>837.6</ele>
        <time>2022-07-16T05:38:29Z</time>
      </trkpt>
      <trkpt lat="44.91522" lon="5.81439">
        <ele>837.6</ele>
        <time>2022-07-16T05:38:30Z</time>
      </trkpt>
      <trkpt lat="44.91525" lon="5.81433">
        <ele>837.7</ele>
        <time>2022-07-16T05:38:31Z</time>
      </trkpt>
      <trkpt lat="44.91528" lon="5.81427">
        <ele>837.7</ele>
        <time>2022-07-16T05:38:32Z</time>
      </trkpt>
      <trkpt lat="44.91532" lon="5.81421">
        <ele>837.8</ele>
        <time>2022-07-16T05:38:33Z</time>
      </trkpt>
      <trkpt lat="44.91535" lon="5.81415">
        <ele>837.8</ele>
        <time>2022-07-16T05:38:34Z</time>
      </trkpt>
      <trkpt lat="44.91538" lon="5.81409">
        <ele>837.8</ele>
        <time>2022-07-16T05:38:35Z</time>
      </trkpt>
      <trkpt lat="44.91542" lon="5.81403">
        <ele>837.9</ele>
        <time>2022-07-16T05:38:36Z</time>
      </trkpt>
      <trkpt lat="44.91546" lon="5.81397">
        <ele>837.9</ele>
        <time>2022-07-16T05:38:37Z</time>
      </trkpt>
      <trkpt lat="44.91549" lon="5.81393">
        <ele>838</ele>
        <time>2022-07-16T05:38:38Z</time>
      </trkpt>
      <trkpt lat="44.91553" lon="5.81387">
        <ele>838</ele>
        <time>2022-07-16T05:38:39Z</time>
      </trkpt>
      <trkpt lat="44.91557" lon="5.81382">
        <ele>838</ele>
        <time>2022-07-16T05:38:40Z</time>
      </trkpt>
      <trkpt lat="44.91562" lon="5.81377">
        <ele>838.1</ele>
        <time>2022-07-16T05:38:41Z</time>
      </trkpt>
      <trkpt lat="44.91566" lon="5.81372">
        <ele>838.1</ele>
        <time>2022-07-16T05:38:42Z</time>
      </trkpt>
      <trkpt lat="44.9157" lon="5.81368">
        <ele>838.2</ele>
        <time>2022-07-16T05:38:43Z</time>
      </trkpt>
      <trkpt lat="44.91574" lon="5.81364">
        <ele>838.3</ele>
        <time>2022-07-16T05:38:44Z</time>
      </trkpt>
      <trkpt lat="44.91578" lon="5.8136">
        <ele>838.3</ele>
        <time>2022-07-16T05:38:45Z</time>
      </trkpt>
      <trkpt lat="44.91583" lon="5.81356">
        <ele>838.4</ele>
        <time>2022-07-16T05:38:46Z</time>
      </trkpt>
      <trkpt lat="44.91588" lon="5.81351">
        <ele>838.4</ele>
        <time>2022-07-16T05:38:47Z</time>
      </trkpt>
      <trkpt lat="44.91592" lon="5.81346">
        <ele>838.5</ele>
        <time>2022-07-16T05:38:48Z</time>
      </trkpt>
      <trkpt lat="44.91597" lon="5.81341">
        <ele>838.5</ele>
        <time>2022-07-16T05:38:49Z</time>
      </trkpt>
      <trkpt lat="44.91601" lon="5.81335">
        <ele>838.6</ele>
        <time>2022-07-16T05:38:50Z</time>
      </trkpt>
      <trkpt lat="44.91605" lon="5.8133">
        <ele>838.7</ele>
        <time>2022-07-16T05:38:51Z</time>
      </trkpt>
      <trkpt lat="44.91609" lon="5.81325">
        <ele>838.7</ele>
        <time>2022-07-16T05:38:52Z</time>
      </trkpt>
      <trkpt lat="44.91613" lon="5.8132">
        <ele>838.7</ele>
        <time>2022-07-16T05:38:53Z</time>
      </trkpt>
      <trkpt lat="44.91617" lon="5.81314">
        <ele>838.7</ele>
        <time>2022-07-16T05:38:54Z</time>
      </trkpt>
      <trkpt lat="44.9162" lon="5.81309">
        <ele>838.8</ele>
        <time>2022-07-16T05:38:55Z</time>
      </trkpt>
      <trkpt lat="44.91624" lon="5.81304">
        <ele>838.8</ele>
        <time>2022-07-16T05:38:56Z</time>
      </trkpt>
      <trkpt lat="44.91627" lon="5.81299">
        <ele>838.9</ele>
        <time>2022-07-16T05:38:57Z</time>
      </trkpt>
      <trkpt lat="44.9163" lon="5.81293">
        <ele>838.9</ele>
        <time>2022-07-16T05:38:58Z</time>
      </trkpt>
      <trkpt lat="44.91634" lon="5.81288">
        <ele>839</ele>
        <time>2022-07-16T05:38:59Z</time>
      </trkpt>
      <trkpt lat="44.91637" lon="5.81283">
        <ele>839.1</ele>
        <time>2022-07-16T05:39:00Z</time>
      </trkpt>
      <trkpt lat="44.9164" lon="5.81278">
        <ele>839.1</ele>
        <time>2022-07-16T05:39:01Z</time>
      </trkpt>
      <trkpt lat="44.91643" lon="5.81273">
        <ele>839.2</ele>
        <time>2022-07-16T05:39:02Z</time>
      </trkpt>
      <trkpt lat="44.91646" lon="5.81268">
        <ele>839.3</ele>
        <time>2022-07-16T05:39:03Z</time>
      </trkpt>
      <trkpt lat="44.9165" lon="5.81263">
        <ele>839.3</ele>
        <time>2022-07-16T05:39:04Z</time>
      </trkpt>
      <trkpt lat="44.91653" lon="5.81257">
        <ele>839.4</ele>
        <time>2022-07-16T05:39:05Z</time>
      </trkpt>
      <trkpt lat="44.91657" lon="5.81252">
        <ele>839.5</ele>
        <time>2022-07-16T05:39:06Z</time>
      </trkpt>
      <trkpt lat="44.91662" lon="5.81248">
        <ele>839.6</ele>
        <time>2022-07-16T05:39:07Z</time>
      </trkpt>
      <trkpt lat="44.91666" lon="5.81243">
        <ele>839.7</ele>
        <time>2022-07-16T05:39:08Z</time>
      </trkpt>
      <trkpt lat="44.91669" lon="5.81238">
        <ele>839.9</ele>
        <time>2022-07-16T05:39:09Z</time>
      </trkpt>
      <trkpt lat="44.91672" lon="5.81234">
        <ele>840</ele>
        <time>2022-07-16T05:39:10Z</time>
      </trkpt>
      <trkpt lat="44.91675" lon="5.8123">
        <ele>840</ele>
        <time>2022-07-16T05:39:11Z</time>
      </trkpt>
      <trkpt lat="44.91679" lon="5.81226">
        <ele>840.1</ele>
        <time>2022-07-16T05:39:12Z</time>
      </trkpt>
      <trkpt lat="44.91682" lon="5.81221">
        <ele>840.2</ele>
        <time>2022-07-16T05:39:13Z</time>
      </trkpt>
      <trkpt lat="44.91685" lon="5.81217">
        <ele>840.3</ele>
        <time>2022-07-16T05:39:14Z</time>
      </trkpt>
      <trkpt lat="44.91688" lon="5.81213">
        <ele>840.4</ele>
        <time>2022-07-16T05:39:15Z</time>
      </trkpt>
      <trkpt lat="44.91691" lon="5.8121">
        <ele>840.5</ele>
        <time>2022-07-16T05:39:16Z</time>
      </trkpt>
      <trkpt lat="44.91694" lon="5.81206">
        <ele>840.6</ele>
        <time>2022-07-16T05:39:17Z</time>
      </trkpt>
      <trkpt lat="44.91697" lon="5.81201">
        <ele>840.7</ele>
        <time>2022-07-16T05:39:18Z</time>
      </trkpt>
      <trkpt lat="44.91701" lon="5.81196">
        <ele>840.8</ele>
        <time>2022-07-16T05:39:19Z</time>
      </trkpt>
      <trkpt lat="44.91704" lon="5.81193">
        <ele>840.9</ele>
        <time>2022-07-16T05:39:20Z</time>
      </trkpt>
      <trkpt lat="44.91707" lon="5.81188">
        <ele>841</ele>
        <time>2022-07-16T05:39:21Z</time>
      </trkpt>
      <trkpt lat="44.91709" lon="5.81184">
        <ele>841</ele>
        <time>2022-07-16T05:39:22Z</time>
      </trkpt>
      <trkpt lat="44.91712" lon="5.81179">
        <ele>841.1</ele>
        <time>2022-07-16T05:39:23Z</time>
      </trkpt>
      <trkpt lat="44.91715" lon="5.81176">
        <ele>841.2</ele>
        <time>2022-07-16T05:39:24Z</time>
      </trkpt>
      <trkpt lat="44.91719" lon="5.81171">
        <ele>841.2</ele>
        <time>2022-07-16T05:39:25Z</time>
      </trkpt>
      <trkpt lat="44.91723" lon="5.81167">
        <ele>841.3</ele>
        <time>2022-07-16T05:39:26Z</time>
      </trkpt>
      <trkpt lat="44.91727" lon="5.81163">
        <ele>841.3</ele>
        <time>2022-07-16T05:39:27Z</time>
      </trkpt>
      <trkpt lat="44.91731" lon="5.81159">
        <ele>841.4</ele>
        <time>2022-07-16T05:39:28Z</time>
      </trkpt>
      <trkpt lat="44.91734" lon="5.81153">
        <ele>841.5</ele>
        <time>2022-07-16T05:39:29Z</time>
      </trkpt>
      <trkpt lat="44.91736" lon="5.8115">
        <ele>841.5</ele>
        <time>2022-07-16T05:39:30Z</time>
      </trkpt>
      <trkpt lat="44.91739" lon="5.81147">
        <ele>841.6</ele>
        <time>2022-07-16T05:39:31Z</time>
      </trkpt>
      <trkpt lat="44.91744" lon="5.81143">
        <ele>841.6</ele>
        <time>2022-07-16T05:39:32Z</time>
      </trkpt>
      <trkpt lat="44.91748" lon="5.8114">
        <ele>841.7</ele>
        <time>2022-07-16T05:39:33Z</time>
      </trkpt>
      <trkpt lat="44.91753" lon="5.81138">
        <ele>841.7</ele>
        <time>2022-07-16T05:39:34Z</time>
      </trkpt>
      <trkpt lat="44.91757" lon="5.81136">
        <ele>841.8</ele>
        <time>2022-07-16T05:39:35Z</time>
      </trkpt>
      <trkpt lat="44.91761" lon="5.81135">
        <ele>841.8</ele>
        <time>2022-07-16T05:39:36Z</time>
      </trkpt>
      <trkpt lat="44.91768" lon="5.81135">
        <ele>841.8</ele>
        <time>2022-07-16T05:39:37Z</time>
      </trkpt>
      <trkpt lat="44.91773" lon="5.81135">
        <ele>841.8</ele>
        <time>2022-07-16T05:39:38Z</time>
      </trkpt>
      <trkpt lat="44.91777" lon="5.81134">
        <ele>841.7</ele>
        <time>2022-07-16T05:39:39Z</time>
      </trkpt>
      <trkpt lat="44.91779" lon="5.81132">
        <ele>841.7</ele>
        <time>2022-07-16T05:39:40Z</time>
      </trkpt>
      <trkpt lat="44.91784" lon="5.81129">
        <ele>841.6</ele>
        <time>2022-07-16T05:39:41Z</time>
      </trkpt>
      <trkpt lat="44.91789" lon="5.81126">
        <ele>841.6</ele>
        <time>2022-07-16T05:39:42Z</time>
      </trkpt>
      <trkpt lat="44.91795" lon="5.81123">
        <ele>841.4</ele>
        <time>2022-07-16T05:39:43Z</time>
      </trkpt>
      <trkpt lat="44.91803" lon="5.81121">
        <ele>841.3</ele>
        <time>2022-07-16T05:39:44Z</time>
      </trkpt>
      <trkpt lat="44.9181" lon="5.81119">
        <ele>841.2</ele>
        <time>2022-07-16T05:39:45Z</time>
      </trkpt>
      <trkpt lat="44.91818" lon="5.81118">
        <ele>841</ele>
        <time>2022-07-16T05:39:46Z</time>
      </trkpt>
      <trkpt lat="44.91825" lon="5.81117">
        <ele>840.9</ele>
        <time>2022-07-16T05:39:47Z</time>
      </trkpt>
      <trkpt lat="44.91832" lon="5.81118">
        <ele>840.8</ele>
        <time>2022-07-16T05:39:48Z</time>
      </trkpt>
      <trkpt lat="44.91839" lon="5.81119">
        <ele>840.8</ele>
        <time>2022-07-16T05:39:49Z</time>
      </trkpt>
      <trkpt lat="44.91845" lon="5.81119">
        <ele>840.7</ele>
        <time>2022-07-16T05:39:50Z</time>
      </trkpt>
      <trkpt lat="44.91852" lon="5.81118">
        <ele>840.6</ele>
        <time>2022-07-16T05:39:51Z</time>
      </trkpt>
      <trkpt lat="44.91858" lon="5.81117">
        <ele>840.5</ele>
        <time>2022-07-16T05:39:52Z</time>
      </trkpt>
      <trkpt lat="44.91864" lon="5.81117">
        <ele>840.5</ele>
        <time>2022-07-16T05:39:53Z</time>
      </trkpt>
      <trkpt lat="44.9187" lon="5.81115">
        <ele>840.4</ele>
        <time>2022-07-16T05:39:54Z</time>
      </trkpt>
      <trkpt lat="44.91877" lon="5.81114">
        <ele>840.3</ele>
        <time>2022-07-16T05:39:55Z</time>
      </trkpt>
      <trkpt lat="44.91883" lon="5.81113">
        <ele>840.3</ele>
        <time>2022-07-16T05:39:56Z</time>
      </trkpt>
      <trkpt lat="44.9189" lon="5.81112">
        <ele>840.2</ele>
        <time>2022-07-16T05:39:57Z</time>
      </trkpt>
      <trkpt lat="44.91896" lon="5.81111">
        <ele>840.2</ele>
        <time>2022-07-16T05:39:58Z</time>
      </trkpt>
      <trkpt lat="44.91903" lon="5.81109">
        <ele>840.1</ele>
        <time>2022-07-16T05:39:59Z</time>
      </trkpt>
      <trkpt lat="44.9191" lon="5.81108">
        <ele>840</ele>
        <time>2022-07-16T05:40:00Z</time>
      </trkpt>
      <trkpt lat="44.91917" lon="5.81108">
        <ele>839.9</ele>
        <time>2022-07-16T05:40:01Z</time>
      </trkpt>
      <trkpt lat="44.91923" lon="5.81107">
        <ele>839.9</ele>
        <time>2022-07-16T05:40:02Z</time>
      </trkpt>
      <trkpt lat="44.9193" lon="5.81106">
        <ele>839.8</ele>
        <time>2022-07-16T05:40:03Z</time>
      </trkpt>
      <trkpt lat="44.91938" lon="5.81104">
        <ele>839.7</ele>
        <time>2022-07-16T05:40:04Z</time>
      </trkpt>
      <trkpt lat="44.91944" lon="5.81104">
        <ele>839.7</ele>
        <time>2022-07-16T05:40:05Z</time>
      </trkpt>
      <trkpt lat="44.91951" lon="5.81102">
        <ele>839.6</ele>
        <time>2022-07-16T05:40:06Z</time>
      </trkpt>
      <trkpt lat="44.91958" lon="5.81101">
        <ele>839.6</ele>
        <time>2022-07-16T05:40:07Z</time>
      </trkpt>
      <trkpt lat="44.91965" lon="5.81098">
        <ele>839.5</ele>
        <time>2022-07-16T05:40:08Z</time>
      </trkpt>
      <trkpt lat="44.91971" lon="5.81096">
        <ele>839.5</ele>
        <time>2022-07-16T05:40:09Z</time>
      </trkpt>
      <trkpt lat="44.91978" lon="5.81093">
        <ele>839.4</ele>
        <time>2022-07-16T05:40:10Z</time>
      </trkpt>
      <trkpt lat="44.91985" lon="5.81089">
        <ele>839.4</ele>
        <time>2022-07-16T05:40:11Z</time>
      </trkpt>
      <trkpt lat="44.91991" lon="5.81085">
        <ele>839.3</ele>
        <time>2022-07-16T05:40:12Z</time>
      </trkpt>
      <trkpt lat="44.91998" lon="5.8108">
        <ele>839.3</ele>
        <time>2022-07-16T05:40:13Z</time>
      </trkpt>
      <trkpt lat="44.92005" lon="5.81076">
        <ele>839.2</ele>
        <time>2022-07-16T05:40:14Z</time>
      </trkpt>
      <trkpt lat="44.92011" lon="5.81071">
        <ele>839.2</ele>
        <time>2022-07-16T05:40:15Z</time>
      </trkpt>
      <trkpt lat="44.92018" lon="5.81067">
        <ele>839.1</ele>
        <time>2022-07-16T05:40:16Z</time>
      </trkpt>
      <trkpt lat="44.92025" lon="5.81063">
        <ele>839</ele>
        <time>2022-07-16T05:40:17Z</time>
      </trkpt>
      <trkpt lat="44.92032" lon="5.81059">
        <ele>838.9</ele>
        <time>2022-07-16T05:40:18Z</time>
      </trkpt>
      <trkpt lat="44.92038" lon="5.81055">
        <ele>838.9</ele>
        <time>2022-07-16T05:40:19Z</time>
      </trkpt>
      <trkpt lat="44.92045" lon="5.81051">
        <ele>838.8</ele>
        <time>2022-07-16T05:40:20Z</time>
      </trkpt>
      <trkpt lat="44.92051" lon="5.81047">
        <ele>838.7</ele>
        <time>2022-07-16T05:40:21Z</time>
      </trkpt>
      <trkpt lat="44.92058" lon="5.81043">
        <ele>838.6</ele>
        <time>2022-07-16T05:40:22Z</time>
      </trkpt>
      <trkpt lat="44.92065" lon="5.81038">
        <ele>838.5</ele>
        <time>2022-07-16T05:40:23Z</time>
      </trkpt>
      <trkpt lat="44.92072" lon="5.81033">
        <ele>838.4</ele>
        <time>2022-07-16T05:40:24Z</time>
      </trkpt>
      <trkpt lat="44.92078" lon="5.81029">
        <ele>838.3</ele>
        <time>2022-07-16T05:40:25Z</time>
      </trkpt>
      <trkpt lat="44.92085" lon="5.81025">
        <ele>838.3</ele>
        <time>2022-07-16T05:40:26Z</time>
      </trkpt>
      <trkpt lat="44.92091" lon="5.8102">
        <ele>838.2</ele>
        <time>2022-07-16T05:40:27Z</time>
      </trkpt>
      <trkpt lat="44.92097" lon="5.81015">
        <ele>838.2</ele>
        <time>2022-07-16T05:40:28Z</time>
      </trkpt>
      <trkpt lat="44.92104" lon="5.81011">
        <ele>838.1</ele>
        <time>2022-07-16T05:40:29Z</time>
      </trkpt>
      <trkpt lat="44.9211" lon="5.81007">
        <ele>838.1</ele>
        <time>2022-07-16T05:40:30Z</time>
      </trkpt>
      <trkpt lat="44.92117" lon="5.81003">
        <ele>838.1</ele>
        <time>2022-07-16T05:40:31Z</time>
      </trkpt>
      <trkpt lat="44.92122" lon="5.80999">
        <ele>838.1</ele>
        <time>2022-07-16T05:40:32Z</time>
      </trkpt>
      <trkpt lat="44.92127" lon="5.80994">
        <ele>838.1</ele>
        <time>2022-07-16T05:40:33Z</time>
      </trkpt>
      <trkpt lat="44.92132" lon="5.80991">
        <ele>838.2</ele>
        <time>2022-07-16T05:40:34Z</time>
      </trkpt>
      <trkpt lat="44.92137" lon="5.80987">
        <ele>838.2</ele>
        <time>2022-07-16T05:40:35Z</time>
      </trkpt>
      <trkpt lat="44.92142" lon="5.80983">
        <ele>838.2</ele>
        <time>2022-07-16T05:40:36Z</time>
      </trkpt>
      <trkpt lat="44.92148" lon="5.8098">
        <ele>838.2</ele>
        <time>2022-07-16T05:40:37Z</time>
      </trkpt>
      <trkpt lat="44.92153" lon="5.80978">
        <ele>838.2</ele>
        <time>2022-07-16T05:40:38Z</time>
      </trkpt>
      <trkpt lat="44.92158" lon="5.80973">
        <ele>838.1</ele>
        <time>2022-07-16T05:40:39Z</time>
      </trkpt>
      <trkpt lat="44.92164" lon="5.80968">
        <ele>838.1</ele>
        <time>2022-07-16T05:40:40Z</time>
      </trkpt>
      <trkpt lat="44.92169" lon="5.80964">
        <ele>838.1</ele>
        <time>2022-07-16T05:40:41Z</time>
      </trkpt>
      <trkpt lat="44.92174" lon="5.80961">
        <ele>838.2</ele>
        <time>2022-07-16T05:40:42Z</time>
      </trkpt>
      <trkpt lat="44.92179" lon="5.80958">
        <ele>838.2</ele>
        <time>2022-07-16T05:40:43Z</time>
      </trkpt>
      <trkpt lat="44.92184" lon="5.80954">
        <ele>838.3</ele>
        <time>2022-07-16T05:40:44Z</time>
      </trkpt>
      <trkpt lat="44.92189" lon="5.80951">
        <ele>838.4</ele>
        <time>2022-07-16T05:40:45Z</time>
      </trkpt>
      <trkpt lat="44.92194" lon="5.80948">
        <ele>838.4</ele>
        <time>2022-07-16T05:40:46Z</time>
      </trkpt>
      <trkpt lat="44.92199" lon="5.80945">
        <ele>838.5</ele>
        <time>2022-07-16T05:40:47Z</time>
      </trkpt>
      <trkpt lat="44.92204" lon="5.80942">
        <ele>838.6</ele>
        <time>2022-07-16T05:40:48Z</time>
      </trkpt>
      <trkpt lat="44.92209" lon="5.80938">
        <ele>838.7</ele>
        <time>2022-07-16T05:40:49Z</time>
      </trkpt>
      <trkpt lat="44.92213" lon="5.80935">
        <ele>838.8</ele>
        <time>2022-07-16T05:40:50Z</time>
      </trkpt>
      <trkpt lat="44.92218" lon="5.80932">
        <ele>839</ele>
        <time>2022-07-16T05:40:51Z</time>
      </trkpt>
      <trkpt lat="44.92223" lon="5.8093">
        <ele>839.1</ele>
        <time>2022-07-16T05:40:52Z</time>
      </trkpt>
      <trkpt lat="44.92227" lon="5.80928">
        <ele>839.3</ele>
        <time>2022-07-16T05:40:53Z</time>
      </trkpt>
      <trkpt lat="44.92229" lon="5.80926">
        <ele>839.3</ele>
        <time>2022-07-16T05:40:54Z</time>
      </trkpt>
      <trkpt lat="44.9223" lon="5.80925">
        <ele>839.3</ele>
        <time>2022-07-16T05:40:55Z</time>
      </trkpt>
      <trkpt lat="44.9223" lon="5.80925">
        <ele>839.3</ele>
        <time>2022-07-16T05:40:56Z</time>
      </trkpt>
      <trkpt lat="44.9223" lon="5.80925">
        <ele>839.4</ele>
        <time>2022-07-16T05:40:57Z</time>
      </trkpt>
      <trkpt lat="44.9223" lon="5.80925">
        <ele>839.4</ele>
        <time>2022-07-16T05:40:58Z</time>
      </trkpt>
      <trkpt lat="44.9223" lon="5.80925">
        <ele>839.4</ele>
        <time>2022-07-16T05:40:59Z</time>
      </trkpt>
      <trkpt lat="44.92229" lon="5.80925">
        <ele>839.4</ele>
        <time>2022-07-16T05:41:00Z</time>
      </trkpt>
      <trkpt lat="44.92229" lon="5.80925">
        <ele>839.4</ele>
        <time>2022-07-16T05:41:01Z</time>
      </trkpt>
      <trkpt lat="44.92229" lon="5.80925">
        <ele>839.4</ele>
        <time>2022-07-16T05:41:02Z</time>
      </trkpt>
      <trkpt lat="44.92229" lon="5.80925">
        <ele>839.4</ele>
        <time>2022-07-16T05:41:03Z</time>
      </trkpt>
      <trkpt lat="44.9223" lon="5.80925">
        <ele>839.4</ele>
        <time>2022-07-16T05:41:04Z</time>
      </trkpt>
      <trkpt lat="44.9223" lon="5.80925">
        <ele>839.4</ele>
        <time>2022-07-16T05:41:05Z</time>
      </trkpt>
      <trkpt lat="44.9223" lon="5.80925">
        <ele>839.4</ele>
        <time>2022-07-16T05:41:06Z</time>
      </trkpt>
      <trkpt lat="44.9223" lon="5.80925">
        <ele>839.4</ele>
        <time>2022-07-16T05:41:07Z</time>
      </trkpt>
      <trkpt lat="44.9223" lon="5.80925">
        <ele>839.4</ele>
        <time>2022-07-16T05:41:08Z</time>
      </trkpt>
      <trkpt lat="44.9223" lon="5.80925">
        <ele>839.4</ele>
        <time>2022-07-16T05:41:09Z</time>
      </trkpt>
      <trkpt lat="44.92232" lon="5.80923">
        <ele>839.5</ele>
        <time>2022-07-16T05:41:18Z</time>
      </trkpt>
      <trkpt lat="44.92233" lon="5.80921">
        <ele>839.6</ele>
        <time>2022-07-16T05:41:19Z</time>
      </trkpt>
      <trkpt lat="44.92234" lon="5.80919">
        <ele>839.6</ele>
        <time>2022-07-16T05:41:20Z</time>
      </trkpt>
      <trkpt lat="44.92235" lon="5.80916">
        <ele>839.7</ele>
        <time>2022-07-16T05:41:21Z</time>
      </trkpt>
      <trkpt lat="44.92237" lon="5.80912">
        <ele>839.8</ele>
        <time>2022-07-16T05:41:22Z</time>
      </trkpt>
      <trkpt lat="44.92239" lon="5.80908">
        <ele>839.9</ele>
        <time>2022-07-16T05:41:23Z</time>
      </trkpt>
      <trkpt lat="44.9224" lon="5.80905">
        <ele>840</ele>
        <time>2022-07-16T05:41:24Z</time>
      </trkpt>
      <trkpt lat="44.92241" lon="5.809">
        <ele>840.1</ele>
        <time>2022-07-16T05:41:25Z</time>
      </trkpt>
      <trkpt lat="44.92241" lon="5.80896">
        <ele>840.1</ele>
        <time>2022-07-16T05:41:26Z</time>
      </trkpt>
      <trkpt lat="44.92241" lon="5.8089">
        <ele>840.3</ele>
        <time>2022-07-16T05:41:27Z</time>
      </trkpt>
      <trkpt lat="44.92241" lon="5.80885">
        <ele>840.4</ele>
        <time>2022-07-16T05:41:28Z</time>
      </trkpt>
      <trkpt lat="44.92241" lon="5.80879">
        <ele>840.5</ele>
        <time>2022-07-16T05:41:29Z</time>
      </trkpt>
      <trkpt lat="44.9224" lon="5.80874">
        <ele>840.5</ele>
        <time>2022-07-16T05:41:30Z</time>
      </trkpt>
      <trkpt lat="44.92239" lon="5.80869">
        <ele>840.6</ele>
        <time>2022-07-16T05:41:31Z</time>
      </trkpt>
      <trkpt lat="44.92237" lon="5.80864">
        <ele>840.7</ele>
        <time>2022-07-16T05:41:32Z</time>
      </trkpt>
      <trkpt lat="44.92234" lon="5.80858">
        <ele>840.7</ele>
        <time>2022-07-16T05:41:33Z</time>
      </trkpt>
      <trkpt lat="44.9223" lon="5.80853">
        <ele>840.8</ele>
        <time>2022-07-16T05:41:34Z</time>
      </trkpt>
      <trkpt lat="44.92225" lon="5.80847">
        <ele>840.9</ele>
        <time>2022-07-16T05:41:35Z</time>
      </trkpt>
      <trkpt lat="44.92221" lon="5.80844">
        <ele>841</ele>
        <time>2022-07-16T05:41:36Z</time>
      </trkpt>
      <trkpt lat="44.92216" lon="5.80842">
        <ele>841</ele>
        <time>2022-07-16T05:41:37Z</time>
      </trkpt>
      <trkpt lat="44.92213" lon="5.80841">
        <ele>841.1</ele>
        <time>2022-07-16T05:41:38Z</time>
      </trkpt>
      <trkpt lat="44.92209" lon="5.80838">
        <ele>841.2</ele>
        <time>2022-07-16T05:41:39Z</time>
      </trkpt>
      <trkpt lat="44.92203" lon="5.80838">
        <ele>841.3</ele>
        <time>2022-07-16T05:41:40Z</time>
      </trkpt>
      <trkpt lat="44.92197" lon="5.80836">
        <ele>841.4</ele>
        <time>2022-07-16T05:41:41Z</time>
      </trkpt>
      <trkpt lat="44.92191" lon="5.80835">
        <ele>841.5</ele>
        <time>2022-07-16T05:41:42Z</time>
      </trkpt>
      <trkpt lat="44.92186" lon="5.80834">
        <ele>841.6</ele>
        <time>2022-07-16T05:41:43Z</time>
      </trkpt>
      <trkpt lat="44.9218" lon="5.80832">
        <ele>841.8</ele>
        <time>2022-07-16T05:41:44Z</time>
      </trkpt>
      <trkpt lat="44.92175" lon="5.80832">
        <ele>841.9</ele>
        <time>2022-07-16T05:41:45Z</time>
      </trkpt>
      <trkpt lat="44.9217" lon="5.80833">
        <ele>842</ele>
        <time>2022-07-16T05:41:46Z</time>
      </trkpt>
      <trkpt lat="44.92164" lon="5.80833">
        <ele>842.2</ele>
        <time>2022-07-16T05:41:47Z</time>
      </trkpt>
      <trkpt lat="44.92159" lon="5.80833">
        <ele>842.3</ele>
        <time>2022-07-16T05:41:48Z</time>
      </trkpt>
      <trkpt lat="44.92153" lon="5.80832">
        <ele>842.5</ele>
        <time>2022-07-16T05:41:49Z</time>
      </trkpt>
      <trkpt lat="44.92148" lon="5.80832">
        <ele>842.6</ele>
        <time>2022-07-16T05:41:50Z</time>
      </trkpt>
      <trkpt lat="44.92143" lon="5.80831">
        <ele>842.7</ele>
        <time>2022-07-16T05:41:51Z</time>
      </trkpt>
      <trkpt lat="44.92138" lon="5.8083">
        <ele>842.9</ele>
        <time>2022-07-16T05:41:52Z</time>
      </trkpt>
      <trkpt lat="44.92133" lon="5.80829">
        <ele>843</ele>
        <time>2022-07-16T05:41:53Z</time>
      </trkpt>
      <trkpt lat="44.92128" lon="5.80827">
        <ele>843.1</ele>
        <time>2022-07-16T05:41:54Z</time>
      </trkpt>
      <trkpt lat="44.92123" lon="5.80826">
        <ele>843.2</ele>
        <time>2022-07-16T05:41:55Z</time>
      </trkpt>
      <trkpt lat="44.92118" lon="5.80823">
        <ele>843.3</ele>
        <time>2022-07-16T05:41:56Z</time>
      </trkpt>
      <trkpt lat="44.92113" lon="5.80821">
        <ele>843.5</ele>
        <time>2022-07-16T05:41:57Z</time>
      </trkpt>
      <trkpt lat="44.92108" lon="5.80819">
        <ele>843.6</ele>
        <time>2022-07-16T05:41:58Z</time>
      </trkpt>
      <trkpt lat="44.92104" lon="5.80816">
        <ele>843.7</ele>
        <time>2022-07-16T05:41:59Z</time>
      </trkpt>
      <trkpt lat="44.92099" lon="5.80815">
        <ele>843.8</ele>
        <time>2022-07-16T05:42:00Z</time>
      </trkpt>
      <trkpt lat="44.92094" lon="5.80813">
        <ele>843.9</ele>
        <time>2022-07-16T05:42:01Z</time>
      </trkpt>
      <trkpt lat="44.92089" lon="5.80812">
        <ele>844</ele>
        <time>2022-07-16T05:42:02Z</time>
      </trkpt>
      <trkpt lat="44.92084" lon="5.8081">
        <ele>844.1</ele>
        <time>2022-07-16T05:42:03Z</time>
      </trkpt>
      <trkpt lat="44.92079" lon="5.80809">
        <ele>844.2</ele>
        <time>2022-07-16T05:42:04Z</time>
      </trkpt>
      <trkpt lat="44.92074" lon="5.80807">
        <ele>844.3</ele>
        <time>2022-07-16T05:42:05Z</time>
      </trkpt>
      <trkpt lat="44.92069" lon="5.80807">
        <ele>844.4</ele>
        <time>2022-07-16T05:42:06Z</time>
      </trkpt>
      <trkpt lat="44.92064" lon="5.80806">
        <ele>844.6</ele>
        <time>2022-07-16T05:42:07Z</time>
      </trkpt>
      <trkpt lat="44.92059" lon="5.80805">
        <ele>844.7</ele>
        <time>2022-07-16T05:42:08Z</time>
      </trkpt>
      <trkpt lat="44.92053" lon="5.80804">
        <ele>844.9</ele>
        <time>2022-07-16T05:42:09Z</time>
      </trkpt>
      <trkpt lat="44.92048" lon="5.80803">
        <ele>845.1</ele>
        <time>2022-07-16T05:42:10Z</time>
      </trkpt>
      <trkpt lat="44.92043" lon="5.80803">
        <ele>845.3</ele>
        <time>2022-07-16T05:42:11Z</time>
      </trkpt>
      <trkpt lat="44.92038" lon="5.80802">
        <ele>845.5</ele>
        <time>2022-07-16T05:42:12Z</time>
      </trkpt>
      <trkpt lat="44.92033" lon="5.80802">
        <ele>845.7</ele>
        <time>2022-07-16T05:42:13Z</time>
      </trkpt>
      <trkpt lat="44.92028" lon="5.80801">
        <ele>845.9</ele>
        <time>2022-07-16T05:42:14Z</time>
      </trkpt>
      <trkpt lat="44.92023" lon="5.808">
        <ele>846.1</ele>
        <time>2022-07-16T05:42:15Z</time>
      </trkpt>
      <trkpt lat="44.92019" lon="5.808">
        <ele>846.3</ele>
        <time>2022-07-16T05:42:16Z</time>
      </trkpt>
      <trkpt lat="44.92014" lon="5.80799">
        <ele>846.5</ele>
        <time>2022-07-16T05:42:17Z</time>
      </trkpt>
      <trkpt lat="44.92009" lon="5.80797">
        <ele>846.7</ele>
        <time>2022-07-16T05:42:18Z</time>
      </trkpt>
      <trkpt lat="44.92004" lon="5.80796">
        <ele>846.9</ele>
        <time>2022-07-16T05:42:19Z</time>
      </trkpt>
      <trkpt lat="44.91999" lon="5.80796">
        <ele>847.1</ele>
        <time>2022-07-16T05:42:20Z</time>
      </trkpt>
      <trkpt lat="44.91994" lon="5.80795">
        <ele>847.3</ele>
        <time>2022-07-16T05:42:21Z</time>
      </trkpt>
      <trkpt lat="44.91989" lon="5.80793">
        <ele>847.5</ele>
        <time>2022-07-16T05:42:22Z</time>
      </trkpt>
      <trkpt lat="44.91984" lon="5.80791">
        <ele>847.7</ele>
        <time>2022-07-16T05:42:23Z</time>
      </trkpt>
      <trkpt lat="44.91979" lon="5.80788">
        <ele>847.9</ele>
        <time>2022-07-16T05:42:24Z</time>
      </trkpt>
      <trkpt lat="44.91973" lon="5.80786">
        <ele>848.1</ele>
        <time>2022-07-16T05:42:25Z</time>
      </trkpt>
      <trkpt lat="44.91969" lon="5.80783">
        <ele>848.1</ele>
        <time>2022-07-16T05:42:26Z</time>
      </trkpt>
      <trkpt lat="44.91963" lon="5.80781">
        <ele>848.1</ele>
        <time>2022-07-16T05:42:27Z</time>
      </trkpt>
      <trkpt lat="44.91958" lon="5.80779">
        <ele>848.2</ele>
        <time>2022-07-16T05:42:28Z</time>
      </trkpt>
      <trkpt lat="44.91954" lon="5.80776">
        <ele>848.2</ele>
        <time>2022-07-16T05:42:29Z</time>
      </trkpt>
      <trkpt lat="44.9195" lon="5.80774">
        <ele>848.2</ele>
        <time>2022-07-16T05:42:30Z</time>
      </trkpt>
      <trkpt lat="44.91946" lon="5.80772">
        <ele>848.3</ele>
        <time>2022-07-16T05:42:31Z</time>
      </trkpt>
      <trkpt lat="44.91942" lon="5.80769">
        <ele>848.3</ele>
        <time>2022-07-16T05:42:32Z</time>
      </trkpt>
      <trkpt lat="44.91939" lon="5.80768">
        <ele>848.3</ele>
        <time>2022-07-16T05:42:33Z</time>
      </trkpt>
      <trkpt lat="44.91935" lon="5.80765">
        <ele>848.4</ele>
        <time>2022-07-16T05:42:34Z</time>
      </trkpt>
      <trkpt lat="44.91931" lon="5.80761">
        <ele>848.4</ele>
        <time>2022-07-16T05:42:35Z</time>
      </trkpt>
      <trkpt lat="44.91927" lon="5.80757">
        <ele>848.5</ele>
        <time>2022-07-16T05:42:36Z</time>
      </trkpt>
      <trkpt lat="44.91923" lon="5.80754">
        <ele>848.5</ele>
        <time>2022-07-16T05:42:37Z</time>
      </trkpt>
      <trkpt lat="44.91918" lon="5.8075">
        <ele>848.6</ele>
        <time>2022-07-16T05:42:38Z</time>
      </trkpt>
      <trkpt lat="44.91923" lon="5.80747">
        <ele>848.7</ele>
        <time>2022-07-16T05:42:39Z</time>
      </trkpt>
      <trkpt lat="44.91906" lon="5.80741">
        <ele>848.9</ele>
        <time>2022-07-16T05:42:41Z</time>
      </trkpt>
      <trkpt lat="44.919" lon="5.80738">
        <ele>849</ele>
        <time>2022-07-16T05:42:42Z</time>
      </trkpt>
      <trkpt lat="44.9189" lon="5.80733">
        <ele>849.2</ele>
        <time>2022-07-16T05:42:43Z</time>
      </trkpt>
      <trkpt lat="44.91885" lon="5.80729">
        <ele>849.2</ele>
        <time>2022-07-16T05:42:44Z</time>
      </trkpt>
      <trkpt lat="44.9188" lon="5.80725">
        <ele>849.3</ele>
        <time>2022-07-16T05:42:46Z</time>
      </trkpt>
      <trkpt lat="44.91876" lon="5.80723">
        <ele>849.4</ele>
        <time>2022-07-16T05:42:47Z</time>
      </trkpt>
      <trkpt lat="44.91871" lon="5.8072">
        <ele>849.5</ele>
        <time>2022-07-16T05:42:48Z</time>
      </trkpt>
      <trkpt lat="44.91868" lon="5.80719">
        <ele>849.5</ele>
        <time>2022-07-16T05:42:49Z</time>
      </trkpt>
      <trkpt lat="44.9186" lon="5.80715">
        <ele>849.6</ele>
        <time>2022-07-16T05:42:50Z</time>
      </trkpt>
      <trkpt lat="44.91855" lon="5.80711">
        <ele>849.7</ele>
        <time>2022-07-16T05:42:52Z</time>
      </trkpt>
      <trkpt lat="44.9185" lon="5.80709">
        <ele>849.8</ele>
        <time>2022-07-16T05:42:53Z</time>
      </trkpt>
      <trkpt lat="44.91847" lon="5.80707">
        <ele>849.8</ele>
        <time>2022-07-16T05:42:54Z</time>
      </trkpt>
      <trkpt lat="44.91841" lon="5.80705">
        <ele>849.9</ele>
        <time>2022-07-16T05:42:55Z</time>
      </trkpt>
      <trkpt lat="44.91836" lon="5.80712">
        <ele>850</ele>
        <time>2022-07-16T05:42:57Z</time>
      </trkpt>
      <trkpt lat="44.91832" lon="5.80705">
        <ele>850.1</ele>
        <time>2022-07-16T05:42:58Z</time>
      </trkpt>
      <trkpt lat="44.91824" lon="5.80696">
        <ele>850.5</ele>
        <time>2022-07-16T05:43:00Z</time>
      </trkpt>
      <trkpt lat="44.91822" lon="5.80694">
        <ele>850.5</ele>
        <time>2022-07-16T05:43:01Z</time>
      </trkpt>
      <trkpt lat="44.91813" lon="5.80691">
        <ele>850.9</ele>
        <time>2022-07-16T05:43:03Z</time>
      </trkpt>
      <trkpt lat="44.91807" lon="5.8069">
        <ele>851.1</ele>
        <time>2022-07-16T05:43:04Z</time>
      </trkpt>
      <trkpt lat="44.91804" lon="5.8069">
        <ele>851.2</ele>
        <time>2022-07-16T05:43:05Z</time>
      </trkpt>
      <trkpt lat="44.918" lon="5.8069">
        <ele>851.3</ele>
        <time>2022-07-16T05:43:06Z</time>
      </trkpt>
      <trkpt lat="44.91796" lon="5.80689">
        <ele>851.5</ele>
        <time>2022-07-16T05:43:07Z</time>
      </trkpt>
      <trkpt lat="44.91788" lon="5.80687">
        <ele>851.7</ele>
        <time>2022-07-16T05:43:09Z</time>
      </trkpt>
      <trkpt lat="44.91784" lon="5.80687">
        <ele>851.9</ele>
        <time>2022-07-16T05:43:10Z</time>
      </trkpt>
      <trkpt lat="44.91779" lon="5.80685">
        <ele>852</ele>
        <time>2022-07-16T05:43:11Z</time>
      </trkpt>
      <trkpt lat="44.9177" lon="5.80685">
        <ele>852.3</ele>
        <time>2022-07-16T05:43:13Z</time>
      </trkpt>
      <trkpt lat="44.91766" lon="5.80683">
        <ele>852.5</ele>
        <time>2022-07-16T05:43:14Z</time>
      </trkpt>
      <trkpt lat="44.91758" lon="5.80683">
        <ele>852.8</ele>
        <time>2022-07-16T05:43:16Z</time>
      </trkpt>
      <trkpt lat="44.91746" lon="5.8068">
        <ele>853.2</ele>
        <time>2022-07-16T05:43:19Z</time>
      </trkpt>
      <trkpt lat="44.91735" lon="5.80678">
        <ele>853.7</ele>
        <time>2022-07-16T05:43:22Z</time>
      </trkpt>
      <trkpt lat="44.91726" lon="5.80677">
        <ele>854</ele>
        <time>2022-07-16T05:43:24Z</time>
      </trkpt>
      <trkpt lat="44.91718" lon="5.80674">
        <ele>854.3</ele>
        <time>2022-07-16T05:43:26Z</time>
      </trkpt>
      <trkpt lat="44.9171" lon="5.80671">
        <ele>854.6</ele>
        <time>2022-07-16T05:43:28Z</time>
      </trkpt>
      <trkpt lat="44.91694" lon="5.80666">
        <ele>855.2</ele>
        <time>2022-07-16T05:43:31Z</time>
      </trkpt>
      <trkpt lat="44.91687" lon="5.8066">
        <ele>855.6</ele>
        <time>2022-07-16T05:43:34Z</time>
      </trkpt>
      <trkpt lat="44.91679" lon="5.80656">
        <ele>856</ele>
        <time>2022-07-16T05:43:36Z</time>
      </trkpt>
      <trkpt lat="44.91672" lon="5.80652">
        <ele>856.3</ele>
        <time>2022-07-16T05:43:37Z</time>
      </trkpt>
      <trkpt lat="44.91666" lon="5.80648">
        <ele>856.6</ele>
        <time>2022-07-16T05:43:39Z</time>
      </trkpt>
      <trkpt lat="44.91664" lon="5.80644">
        <ele>856.8</ele>
        <time>2022-07-16T05:43:40Z</time>
      </trkpt>
      <trkpt lat="44.91661" lon="5.80641">
        <ele>856.9</ele>
        <time>2022-07-16T05:43:41Z</time>
      </trkpt>
      <trkpt lat="44.91655" lon="5.80634">
        <ele>857.2</ele>
        <time>2022-07-16T05:43:42Z</time>
      </trkpt>
      <trkpt lat="44.9165" lon="5.80626">
        <ele>857.5</ele>
        <time>2022-07-16T05:43:44Z</time>
      </trkpt>
      <trkpt lat="44.91645" lon="5.80619">
        <ele>857.7</ele>
        <time>2022-07-16T05:43:45Z</time>
      </trkpt>
      <trkpt lat="44.91642" lon="5.80612">
        <ele>857.9</ele>
        <time>2022-07-16T05:43:47Z</time>
      </trkpt>
      <trkpt lat="44.9164" lon="5.80608">
        <ele>858</ele>
        <time>2022-07-16T05:43:48Z</time>
      </trkpt>
      <trkpt lat="44.91636" lon="5.80598">
        <ele>858.1</ele>
        <time>2022-07-16T05:43:50Z</time>
      </trkpt>
      <trkpt lat="44.91632" lon="5.80589">
        <ele>858.4</ele>
        <time>2022-07-16T05:43:51Z</time>
      </trkpt>
      <trkpt lat="44.91629" lon="5.80582">
        <ele>858.5</ele>
        <time>2022-07-16T05:43:53Z</time>
      </trkpt>
      <trkpt lat="44.91627" lon="5.80577">
        <ele>858.6</ele>
        <time>2022-07-16T05:43:54Z</time>
      </trkpt>
      <trkpt lat="44.91623" lon="5.80567">
        <ele>858.8</ele>
        <time>2022-07-16T05:43:55Z</time>
      </trkpt>
      <trkpt lat="44.91621" lon="5.80561">
        <ele>859</ele>
        <time>2022-07-16T05:43:56Z</time>
      </trkpt>
      <trkpt lat="44.91618" lon="5.80555">
        <ele>859.1</ele>
        <time>2022-07-16T05:43:58Z</time>
      </trkpt>
      <trkpt lat="44.91616" lon="5.8055">
        <ele>859.2</ele>
        <time>2022-07-16T05:43:59Z</time>
      </trkpt>
      <trkpt lat="44.91613" lon="5.80543">
        <ele>859.3</ele>
        <time>2022-07-16T05:44:00Z</time>
      </trkpt>
      <trkpt lat="44.91609" lon="5.80536">
        <ele>859.4</ele>
        <time>2022-07-16T05:44:02Z</time>
      </trkpt>
      <trkpt lat="44.91607" lon="5.8053">
        <ele>859.5</ele>
        <time>2022-07-16T05:44:03Z</time>
      </trkpt>
      <trkpt lat="44.91603" lon="5.8052">
        <ele>859.7</ele>
        <time>2022-07-16T05:44:05Z</time>
      </trkpt>
      <trkpt lat="44.91599" lon="5.80508">
        <ele>859.8</ele>
        <time>2022-07-16T05:44:08Z</time>
      </trkpt>
      <trkpt lat="44.91597" lon="5.80503">
        <ele>859.9</ele>
        <time>2022-07-16T05:44:09Z</time>
      </trkpt>
      <trkpt lat="44.91596" lon="5.80497">
        <ele>859.9</ele>
        <time>2022-07-16T05:44:10Z</time>
      </trkpt>
      <trkpt lat="44.91594" lon="5.8049">
        <ele>859.9</ele>
        <time>2022-07-16T05:44:11Z</time>
      </trkpt>
      <trkpt lat="44.91592" lon="5.80484">
        <ele>860</ele>
        <time>2022-07-16T05:44:12Z</time>
      </trkpt>
      <trkpt lat="44.91591" lon="5.80478">
        <ele>860</ele>
        <time>2022-07-16T05:44:13Z</time>
      </trkpt>
      <trkpt lat="44.91589" lon="5.80471">
        <ele>860.1</ele>
        <time>2022-07-16T05:44:14Z</time>
      </trkpt>
      <trkpt lat="44.91587" lon="5.80464">
        <ele>860.1</ele>
        <time>2022-07-16T05:44:15Z</time>
      </trkpt>
      <trkpt lat="44.91586" lon="5.80457">
        <ele>860.1</ele>
        <time>2022-07-16T05:44:16Z</time>
      </trkpt>
      <trkpt lat="44.91584" lon="5.8045">
        <ele>860.1</ele>
        <time>2022-07-16T05:44:17Z</time>
      </trkpt>
      <trkpt lat="44.91582" lon="5.80442">
        <ele>860.2</ele>
        <time>2022-07-16T05:44:18Z</time>
      </trkpt>
      <trkpt lat="44.9158" lon="5.80435">
        <ele>860.2</ele>
        <time>2022-07-16T05:44:19Z</time>
      </trkpt>
      <trkpt lat="44.91578" lon="5.80428">
        <ele>860.2</ele>
        <time>2022-07-16T05:44:20Z</time>
      </trkpt>
      <trkpt lat="44.91577" lon="5.80421">
        <ele>860.2</ele>
        <time>2022-07-16T05:44:21Z</time>
      </trkpt>
      <trkpt lat="44.91574" lon="5.80415">
        <ele>860.2</ele>
        <time>2022-07-16T05:44:22Z</time>
      </trkpt>
      <trkpt lat="44.91573" lon="5.80408">
        <ele>860.2</ele>
        <time>2022-07-16T05:44:23Z</time>
      </trkpt>
      <trkpt lat="44.91572" lon="5.80401">
        <ele>860.2</ele>
        <time>2022-07-16T05:44:24Z</time>
      </trkpt>
      <trkpt lat="44.91571" lon="5.80393">
        <ele>860.2</ele>
        <time>2022-07-16T05:44:25Z</time>
      </trkpt>
      <trkpt lat="44.9157" lon="5.80386">
        <ele>860.2</ele>
        <time>2022-07-16T05:44:26Z</time>
      </trkpt>
      <trkpt lat="44.91569" lon="5.80379">
        <ele>860.2</ele>
        <time>2022-07-16T05:44:27Z</time>
      </trkpt>
      <trkpt lat="44.91567" lon="5.80372">
        <ele>860.3</ele>
        <time>2022-07-16T05:44:28Z</time>
      </trkpt>
      <trkpt lat="44.91566" lon="5.80365">
        <ele>860.3</ele>
        <time>2022-07-16T05:44:29Z</time>
      </trkpt>
      <trkpt lat="44.91565" lon="5.80357">
        <ele>860.3</ele>
        <time>2022-07-16T05:44:30Z</time>
      </trkpt>
      <trkpt lat="44.91564" lon="5.8035">
        <ele>860.3</ele>
        <time>2022-07-16T05:44:31Z</time>
      </trkpt>
      <trkpt lat="44.91563" lon="5.80342">
        <ele>860.3</ele>
        <time>2022-07-16T05:44:32Z</time>
      </trkpt>
      <trkpt lat="44.91562" lon="5.80333">
        <ele>860.3</ele>
        <time>2022-07-16T05:44:33Z</time>
      </trkpt>
      <trkpt lat="44.91561" lon="5.80326">
        <ele>860.3</ele>
        <time>2022-07-16T05:44:34Z</time>
      </trkpt>
      <trkpt lat="44.9156" lon="5.80318">
        <ele>860.3</ele>
        <time>2022-07-16T05:44:35Z</time>
      </trkpt>
      <trkpt lat="44.91559" lon="5.80309">
        <ele>860.3</ele>
        <time>2022-07-16T05:44:36Z</time>
      </trkpt>
      <trkpt lat="44.91558" lon="5.80301">
        <ele>860.3</ele>
        <time>2022-07-16T05:44:37Z</time>
      </trkpt>
      <trkpt lat="44.91557" lon="5.80294">
        <ele>860.3</ele>
        <time>2022-07-16T05:44:38Z</time>
      </trkpt>
      <trkpt lat="44.91555" lon="5.80286">
        <ele>860.4</ele>
        <time>2022-07-16T05:44:39Z</time>
      </trkpt>
      <trkpt lat="44.91554" lon="5.80278">
        <ele>860.4</ele>
        <time>2022-07-16T05:44:40Z</time>
      </trkpt>
      <trkpt lat="44.91552" lon="5.80271">
        <ele>860.5</ele>
        <time>2022-07-16T05:44:41Z</time>
      </trkpt>
      <trkpt lat="44.9155" lon="5.80264">
        <ele>860.5</ele>
        <time>2022-07-16T05:44:42Z</time>
      </trkpt>
      <trkpt lat="44.91549" lon="5.80256">
        <ele>860.5</ele>
        <time>2022-07-16T05:44:43Z</time>
      </trkpt>
      <trkpt lat="44.91548" lon="5.80249">
        <ele>860.6</ele>
        <time>2022-07-16T05:44:44Z</time>
      </trkpt>
      <trkpt lat="44.91546" lon="5.80241">
        <ele>860.6</ele>
        <time>2022-07-16T05:44:45Z</time>
      </trkpt>
      <trkpt lat="44.91545" lon="5.80234">
        <ele>860.6</ele>
        <time>2022-07-16T05:44:46Z</time>
      </trkpt>
      <trkpt lat="44.91543" lon="5.80226">
        <ele>860.6</ele>
        <time>2022-07-16T05:44:47Z</time>
      </trkpt>
      <trkpt lat="44.91542" lon="5.80218">
        <ele>860.6</ele>
        <time>2022-07-16T05:44:48Z</time>
      </trkpt>
      <trkpt lat="44.9154" lon="5.8021">
        <ele>860.6</ele>
        <time>2022-07-16T05:44:49Z</time>
      </trkpt>
      <trkpt lat="44.91539" lon="5.80202">
        <ele>860.6</ele>
        <time>2022-07-16T05:44:50Z</time>
      </trkpt>
      <trkpt lat="44.91538" lon="5.80195">
        <ele>860.6</ele>
        <time>2022-07-16T05:44:51Z</time>
      </trkpt>
      <trkpt lat="44.91536" lon="5.80187">
        <ele>860.6</ele>
        <time>2022-07-16T05:44:52Z</time>
      </trkpt>
      <trkpt lat="44.91535" lon="5.8018">
        <ele>860.7</ele>
        <time>2022-07-16T05:44:53Z</time>
      </trkpt>
      <trkpt lat="44.91532" lon="5.80173">
        <ele>860.7</ele>
        <time>2022-07-16T05:44:54Z</time>
      </trkpt>
      <trkpt lat="44.9153" lon="5.80166">
        <ele>860.7</ele>
        <time>2022-07-16T05:44:55Z</time>
      </trkpt>
      <trkpt lat="44.91527" lon="5.80159">
        <ele>860.8</ele>
        <time>2022-07-16T05:44:56Z</time>
      </trkpt>
      <trkpt lat="44.91524" lon="5.80152">
        <ele>860.8</ele>
        <time>2022-07-16T05:44:57Z</time>
      </trkpt>
      <trkpt lat="44.91521" lon="5.80146">
        <ele>860.9</ele>
        <time>2022-07-16T05:44:58Z</time>
      </trkpt>
      <trkpt lat="44.91519" lon="5.80139">
        <ele>860.9</ele>
        <time>2022-07-16T05:44:59Z</time>
      </trkpt>
      <trkpt lat="44.91516" lon="5.80134">
        <ele>861</ele>
        <time>2022-07-16T05:45:00Z</time>
      </trkpt>
      <trkpt lat="44.91513" lon="5.80128">
        <ele>861.1</ele>
        <time>2022-07-16T05:45:01Z</time>
      </trkpt>
      <trkpt lat="44.91509" lon="5.80122">
        <ele>861.1</ele>
        <time>2022-07-16T05:45:02Z</time>
      </trkpt>
      <trkpt lat="44.91505" lon="5.80117">
        <ele>861.2</ele>
        <time>2022-07-16T05:45:03Z</time>
      </trkpt>
      <trkpt lat="44.91501" lon="5.80112">
        <ele>861.3</ele>
        <time>2022-07-16T05:45:04Z</time>
      </trkpt>
      <trkpt lat="44.91497" lon="5.80108">
        <ele>861.3</ele>
        <time>2022-07-16T05:45:05Z</time>
      </trkpt>
      <trkpt lat="44.91493" lon="5.80103">
        <ele>861.4</ele>
        <time>2022-07-16T05:45:06Z</time>
      </trkpt>
      <trkpt lat="44.91489" lon="5.80097">
        <ele>861.5</ele>
        <time>2022-07-16T05:45:07Z</time>
      </trkpt>
      <trkpt lat="44.91485" lon="5.80092">
        <ele>861.6</ele>
        <time>2022-07-16T05:45:08Z</time>
      </trkpt>
      <trkpt lat="44.91481" lon="5.80087">
        <ele>861.7</ele>
        <time>2022-07-16T05:45:09Z</time>
      </trkpt>
      <trkpt lat="44.91477" lon="5.80082">
        <ele>861.9</ele>
        <time>2022-07-16T05:45:10Z</time>
      </trkpt>
      <trkpt lat="44.91473" lon="5.80077">
        <ele>862</ele>
        <time>2022-07-16T05:45:11Z</time>
      </trkpt>
      <trkpt lat="44.91468" lon="5.80072">
        <ele>862.1</ele>
        <time>2022-07-16T05:45:12Z</time>
      </trkpt>
      <trkpt lat="44.91465" lon="5.80068">
        <ele>862.1</ele>
        <time>2022-07-16T05:45:13Z</time>
      </trkpt>
      <trkpt lat="44.91461" lon="5.80063">
        <ele>862.2</ele>
        <time>2022-07-16T05:45:14Z</time>
      </trkpt>
      <trkpt lat="44.91458" lon="5.80059">
        <ele>862.3</ele>
        <time>2022-07-16T05:45:15Z</time>
      </trkpt>
      <trkpt lat="44.91456" lon="5.80056">
        <ele>862.4</ele>
        <time>2022-07-16T05:45:16Z</time>
      </trkpt>
      <trkpt lat="44.91452" lon="5.80052">
        <ele>862.5</ele>
        <time>2022-07-16T05:45:17Z</time>
      </trkpt>
      <trkpt lat="44.91446" lon="5.80047">
        <ele>862.6</ele>
        <time>2022-07-16T05:45:18Z</time>
      </trkpt>
      <trkpt lat="44.91441" lon="5.80043">
        <ele>862.7</ele>
        <time>2022-07-16T05:45:19Z</time>
      </trkpt>
      <trkpt lat="44.91437" lon="5.80039">
        <ele>862.9</ele>
        <time>2022-07-16T05:45:20Z</time>
      </trkpt>
      <trkpt lat="44.91434" lon="5.80036">
        <ele>863</ele>
        <time>2022-07-16T05:45:21Z</time>
      </trkpt>
      <trkpt lat="44.91422" lon="5.80023">
        <ele>863.3</ele>
        <time>2022-07-16T05:45:24Z</time>
      </trkpt>
      <trkpt lat="44.91415" lon="5.80015">
        <ele>863.6</ele>
        <time>2022-07-16T05:45:25Z</time>
      </trkpt>
      <trkpt lat="44.91417" lon="5.80008">
        <ele>863.9</ele>
        <time>2022-07-16T05:45:27Z</time>
      </trkpt>
      <trkpt lat="44.9141" lon="5.80007">
        <ele>864.1</ele>
        <time>2022-07-16T05:45:28Z</time>
      </trkpt>
      <trkpt lat="44.91403" lon="5.8">
        <ele>864.5</ele>
        <time>2022-07-16T05:45:29Z</time>
      </trkpt>
      <trkpt lat="44.91402" lon="5.79995">
        <ele>864.7</ele>
        <time>2022-07-16T05:45:31Z</time>
      </trkpt>
      <trkpt lat="44.91402" lon="5.79988">
        <ele>865</ele>
        <time>2022-07-16T05:45:32Z</time>
      </trkpt>
      <trkpt lat="44.91405" lon="5.79982">
        <ele>865.6</ele>
        <time>2022-07-16T05:45:33Z</time>
      </trkpt>
      <trkpt lat="44.9141" lon="5.79978">
        <ele>865.1</ele>
        <time>2022-07-16T05:45:34Z</time>
      </trkpt>
      <trkpt lat="44.91416" lon="5.79984">
        <ele>864.9</ele>
        <time>2022-07-16T05:45:35Z</time>
      </trkpt>
      <trkpt lat="44.9142" lon="5.79992">
        <ele>864.8</ele>
        <time>2022-07-16T05:45:37Z</time>
      </trkpt>
      <trkpt lat="44.91425" lon="5.79995">
        <ele>864.7</ele>
        <time>2022-07-16T05:45:38Z</time>
      </trkpt>
      <trkpt lat="44.91432" lon="5.79999">
        <ele>864.5</ele>
        <time>2022-07-16T05:45:40Z</time>
      </trkpt>
      <trkpt lat="44.91438" lon="5.80007">
        <ele>864.4</ele>
        <time>2022-07-16T05:45:42Z</time>
      </trkpt>
      <trkpt lat="44.91445" lon="5.80015">
        <ele>864.4</ele>
        <time>2022-07-16T05:45:44Z</time>
      </trkpt>
      <trkpt lat="44.91449" lon="5.80019">
        <ele>864.4</ele>
        <time>2022-07-16T05:45:45Z</time>
      </trkpt>
      <trkpt lat="44.91452" lon="5.80023">
        <ele>864.4</ele>
        <time>2022-07-16T05:45:46Z</time>
      </trkpt>
      <trkpt lat="44.91456" lon="5.80027">
        <ele>864.5</ele>
        <time>2022-07-16T05:45:47Z</time>
      </trkpt>
      <trkpt lat="44.9146" lon="5.8003">
        <ele>864.5</ele>
        <time>2022-07-16T05:45:48Z</time>
      </trkpt>
      <trkpt lat="44.91471" lon="5.80037">
        <ele>864.6</ele>
        <time>2022-07-16T05:45:49Z</time>
      </trkpt>
      <trkpt lat="44.91469" lon="5.80037">
        <ele>864.6</ele>
        <time>2022-07-16T05:45:51Z</time>
      </trkpt>
      <trkpt lat="44.91471" lon="5.80038">
        <ele>864.7</ele>
        <time>2022-07-16T05:45:52Z</time>
      </trkpt>
      <trkpt lat="44.91476" lon="5.80042">
        <ele>864.8</ele>
        <time>2022-07-16T05:45:53Z</time>
      </trkpt>
      <trkpt lat="44.91475" lon="5.80041">
        <ele>864.8</ele>
        <time>2022-07-16T05:45:56Z</time>
      </trkpt>
      <trkpt lat="44.91474" lon="5.8004">
        <ele>864.8</ele>
        <time>2022-07-16T05:45:57Z</time>
      </trkpt>
      <trkpt lat="44.91474" lon="5.8004">
        <ele>864.8</ele>
        <time>2022-07-16T05:45:58Z</time>
      </trkpt>
      <trkpt lat="44.91474" lon="5.8004">
        <ele>864.8</ele>
        <time>2022-07-16T05:45:59Z</time>
      </trkpt>
      <trkpt lat="44.91474" lon="5.8004">
        <ele>864.8</ele>
        <time>2022-07-16T05:46:00Z</time>
      </trkpt>
      <trkpt lat="44.91473" lon="5.8004">
        <ele>864.8</ele>
        <time>2022-07-16T05:46:01Z</time>
      </trkpt>
      <trkpt lat="44.91473" lon="5.8004">
        <ele>864.8</ele>
        <time>2022-07-16T05:46:02Z</time>
      </trkpt>
      <trkpt lat="44.91473" lon="5.8004">
        <ele>864.8</ele>
        <time>2022-07-16T05:46:03Z</time>
      </trkpt>
      <trkpt lat="44.91475" lon="5.80046">
        <ele>864.9</ele>
        <time>2022-07-16T05:46:30Z</time>
      </trkpt>
      <trkpt lat="44.91478" lon="5.80049">
        <ele>865</ele>
        <time>2022-07-16T05:46:31Z</time>
      </trkpt>
      <trkpt lat="44.91482" lon="5.80053">
        <ele>865.1</ele>
        <time>2022-07-16T05:46:32Z</time>
      </trkpt>
      <trkpt lat="44.91486" lon="5.80057">
        <ele>865.2</ele>
        <time>2022-07-16T05:46:33Z</time>
      </trkpt>
      <trkpt lat="44.91493" lon="5.80063">
        <ele>865.5</ele>
        <time>2022-07-16T05:46:35Z</time>
      </trkpt>
      <trkpt lat="44.91496" lon="5.80064">
        <ele>865.6</ele>
        <time>2022-07-16T05:46:36Z</time>
      </trkpt>
      <trkpt lat="44.91499" lon="5.80066">
        <ele>865.7</ele>
        <time>2022-07-16T05:46:38Z</time>
      </trkpt>
      <trkpt lat="44.91501" lon="5.80069">
        <ele>865.8</ele>
        <time>2022-07-16T05:46:39Z</time>
      </trkpt>
      <trkpt lat="44.91508" lon="5.80074">
        <ele>866</ele>
        <time>2022-07-16T05:46:41Z</time>
      </trkpt>
      <trkpt lat="44.91512" lon="5.80079">
        <ele>866.1</ele>
        <time>2022-07-16T05:46:42Z</time>
      </trkpt>
      <trkpt lat="44.91518" lon="5.80084">
        <ele>866.3</ele>
        <time>2022-07-16T05:46:44Z</time>
      </trkpt>
      <trkpt lat="44.91525" lon="5.80088">
        <ele>866.5</ele>
        <time>2022-07-16T05:46:46Z</time>
      </trkpt>
      <trkpt lat="44.91531" lon="5.80096">
        <ele>866.8</ele>
        <time>2022-07-16T05:46:48Z</time>
      </trkpt>
      <trkpt lat="44.91535" lon="5.80099">
        <ele>866.9</ele>
        <time>2022-07-16T05:46:49Z</time>
      </trkpt>
      <trkpt lat="44.91543" lon="5.80106">
        <ele>867.2</ele>
        <time>2022-07-16T05:46:51Z</time>
      </trkpt>
      <trkpt lat="44.91547" lon="5.80109">
        <ele>867.3</ele>
        <time>2022-07-16T05:46:52Z</time>
      </trkpt>
      <trkpt lat="44.91551" lon="5.80112">
        <ele>867.4</ele>
        <time>2022-07-16T05:46:53Z</time>
      </trkpt>
      <trkpt lat="44.91555" lon="5.80116">
        <ele>867.6</ele>
        <time>2022-07-16T05:46:54Z</time>
      </trkpt>
      <trkpt lat="44.9156" lon="5.80121">
        <ele>867.9</ele>
        <time>2022-07-16T05:46:56Z</time>
      </trkpt>
      <trkpt lat="44.91565" lon="5.80125">
        <ele>868</ele>
        <time>2022-07-16T05:46:57Z</time>
      </trkpt>
      <trkpt lat="44.91574" lon="5.80133">
        <ele>868.4</ele>
        <time>2022-07-16T05:47:00Z</time>
      </trkpt>
      <trkpt lat="44.91584" lon="5.80142">
        <ele>868.8</ele>
        <time>2022-07-16T05:47:01Z</time>
      </trkpt>
      <trkpt lat="44.91582" lon="5.80145">
        <ele>868.9</ele>
        <time>2022-07-16T05:47:02Z</time>
      </trkpt>
      <trkpt lat="44.91593" lon="5.8015">
        <ele>869.3</ele>
        <time>2022-07-16T05:47:05Z</time>
      </trkpt>
      <trkpt lat="44.91598" lon="5.80154">
        <ele>869.4</ele>
        <time>2022-07-16T05:47:06Z</time>
      </trkpt>
      <trkpt lat="44.91601" lon="5.80157">
        <ele>869.5</ele>
        <time>2022-07-16T05:47:07Z</time>
      </trkpt>
      <trkpt lat="44.91605" lon="5.80162">
        <ele>869.6</ele>
        <time>2022-07-16T05:47:08Z</time>
      </trkpt>
      <trkpt lat="44.91609" lon="5.80166">
        <ele>869.7</ele>
        <time>2022-07-16T05:47:09Z</time>
      </trkpt>
      <trkpt lat="44.91614" lon="5.8017">
        <ele>869.9</ele>
        <time>2022-07-16T05:47:10Z</time>
      </trkpt>
      <trkpt lat="44.91618" lon="5.80174">
        <ele>870</ele>
        <time>2022-07-16T05:47:11Z</time>
      </trkpt>
      <trkpt lat="44.91622" lon="5.80177">
        <ele>870.1</ele>
        <time>2022-07-16T05:47:12Z</time>
      </trkpt>
      <trkpt lat="44.91626" lon="5.80181">
        <ele>870.2</ele>
        <time>2022-07-16T05:47:13Z</time>
      </trkpt>
      <trkpt lat="44.91629" lon="5.80184">
        <ele>870.4</ele>
        <time>2022-07-16T05:47:14Z</time>
      </trkpt>
      <trkpt lat="44.91634" lon="5.80188">
        <ele>870.5</ele>
        <time>2022-07-16T05:47:15Z</time>
      </trkpt>
      <trkpt lat="44.91638" lon="5.80192">
        <ele>870.7</ele>
        <time>2022-07-16T05:47:16Z</time>
      </trkpt>
      <trkpt lat="44.91642" lon="5.80195">
        <ele>870.8</ele>
        <time>2022-07-16T05:47:17Z</time>
      </trkpt>
      <trkpt lat="44.91645" lon="5.80198">
        <ele>870.9</ele>
        <time>2022-07-16T05:47:18Z</time>
      </trkpt>
      <trkpt lat="44.91649" lon="5.80202">
        <ele>871</ele>
        <time>2022-07-16T05:47:19Z</time>
      </trkpt>
      <trkpt lat="44.91651" lon="5.80204">
        <ele>871.1</ele>
        <time>2022-07-16T05:47:20Z</time>
      </trkpt>
      <trkpt lat="44.91655" lon="5.80209">
        <ele>871.3</ele>
        <time>2022-07-16T05:47:21Z</time>
      </trkpt>
      <trkpt lat="44.91659" lon="5.80213">
        <ele>871.4</ele>
        <time>2022-07-16T05:47:22Z</time>
      </trkpt>
      <trkpt lat="44.91663" lon="5.80218">
        <ele>871.5</ele>
        <time>2022-07-16T05:47:23Z</time>
      </trkpt>
      <trkpt lat="44.91667" lon="5.80222">
        <ele>871.7</ele>
        <time>2022-07-16T05:47:24Z</time>
      </trkpt>
      <trkpt lat="44.91671" lon="5.80225">
        <ele>871.8</ele>
        <time>2022-07-16T05:47:25Z</time>
      </trkpt>
      <trkpt lat="44.91679" lon="5.80233">
        <ele>872.1</ele>
        <time>2022-07-16T05:47:26Z</time>
      </trkpt>
      <trkpt lat="44.91682" lon="5.80232">
        <ele>872.2</ele>
        <time>2022-07-16T05:47:28Z</time>
      </trkpt>
      <trkpt lat="44.91693" lon="5.80248">
        <ele>872.7</ele>
        <time>2022-07-16T05:47:31Z</time>
      </trkpt>
      <trkpt lat="44.91697" lon="5.80253">
        <ele>872.8</ele>
        <time>2022-07-16T05:47:32Z</time>
      </trkpt>
      <trkpt lat="44.91701" lon="5.80257">
        <ele>873</ele>
        <time>2022-07-16T05:47:33Z</time>
      </trkpt>
      <trkpt lat="44.91705" lon="5.8026">
        <ele>873.1</ele>
        <time>2022-07-16T05:47:34Z</time>
      </trkpt>
      <trkpt lat="44.91709" lon="5.80264">
        <ele>873.2</ele>
        <time>2022-07-16T05:47:35Z</time>
      </trkpt>
      <trkpt lat="44.91717" lon="5.80271">
        <ele>873.5</ele>
        <time>2022-07-16T05:47:36Z</time>
      </trkpt>
      <trkpt lat="44.91725" lon="5.80277">
        <ele>873.8</ele>
        <time>2022-07-16T05:47:39Z</time>
      </trkpt>
      <trkpt lat="44.91729" lon="5.80281">
        <ele>873.9</ele>
        <time>2022-07-16T05:47:40Z</time>
      </trkpt>
      <trkpt lat="44.91732" lon="5.80284">
        <ele>874</ele>
        <time>2022-07-16T05:47:41Z</time>
      </trkpt>
      <trkpt lat="44.91736" lon="5.80288">
        <ele>874.2</ele>
        <time>2022-07-16T05:47:42Z</time>
      </trkpt>
      <trkpt lat="44.9174" lon="5.80292">
        <ele>874.3</ele>
        <time>2022-07-16T05:47:43Z</time>
      </trkpt>
      <trkpt lat="44.91747" lon="5.803">
        <ele>874.6</ele>
        <time>2022-07-16T05:47:44Z</time>
      </trkpt>
      <trkpt lat="44.91753" lon="5.80308">
        <ele>874.8</ele>
        <time>2022-07-16T05:47:47Z</time>
      </trkpt>
      <trkpt lat="44.91758" lon="5.80311">
        <ele>875</ele>
        <time>2022-07-16T05:47:48Z</time>
      </trkpt>
      <trkpt lat="44.91761" lon="5.80315">
        <ele>875.1</ele>
        <time>2022-07-16T05:47:49Z</time>
      </trkpt>
      <trkpt lat="44.91765" lon="5.80319">
        <ele>875.2</ele>
        <time>2022-07-16T05:47:50Z</time>
      </trkpt>
      <trkpt lat="44.91769" lon="5.80323">
        <ele>875.4</ele>
        <time>2022-07-16T05:47:51Z</time>
      </trkpt>
      <trkpt lat="44.91773" lon="5.80325">
        <ele>875.5</ele>
        <time>2022-07-16T05:47:52Z</time>
      </trkpt>
      <trkpt lat="44.91777" lon="5.80327">
        <ele>875.6</ele>
        <time>2022-07-16T05:47:53Z</time>
      </trkpt>
      <trkpt lat="44.9179" lon="5.80337">
        <ele>876</ele>
        <time>2022-07-16T05:47:56Z</time>
      </trkpt>
      <trkpt lat="44.91793" lon="5.80341">
        <ele>876.1</ele>
        <time>2022-07-16T05:47:57Z</time>
      </trkpt>
      <trkpt lat="44.91797" lon="5.80345">
        <ele>876.2</ele>
        <time>2022-07-16T05:47:58Z</time>
      </trkpt>
      <trkpt lat="44.91806" lon="5.80352">
        <ele>876.5</ele>
        <time>2022-07-16T05:47:59Z</time>
      </trkpt>
      <trkpt lat="44.9181" lon="5.80354">
        <ele>876.6</ele>
        <time>2022-07-16T05:48:00Z</time>
      </trkpt>
      <trkpt lat="44.91816" lon="5.80363">
        <ele>876.8</ele>
        <time>2022-07-16T05:48:03Z</time>
      </trkpt>
      <trkpt lat="44.91819" lon="5.80367">
        <ele>876.9</ele>
        <time>2022-07-16T05:48:04Z</time>
      </trkpt>
      <trkpt lat="44.91824" lon="5.80371">
        <ele>877</ele>
        <time>2022-07-16T05:48:05Z</time>
      </trkpt>
      <trkpt lat="44.91828" lon="5.80374">
        <ele>877.1</ele>
        <time>2022-07-16T05:48:06Z</time>
      </trkpt>
      <trkpt lat="44.91832" lon="5.80378">
        <ele>877.2</ele>
        <time>2022-07-16T05:48:07Z</time>
      </trkpt>
      <trkpt lat="44.91836" lon="5.80381">
        <ele>877.3</ele>
        <time>2022-07-16T05:48:08Z</time>
      </trkpt>
      <trkpt lat="44.91841" lon="5.80385">
        <ele>877.4</ele>
        <time>2022-07-16T05:48:09Z</time>
      </trkpt>
      <trkpt lat="44.91851" lon="5.80396">
        <ele>877.7</ele>
        <time>2022-07-16T05:48:10Z</time>
      </trkpt>
      <trkpt lat="44.91857" lon="5.804">
        <ele>877.8</ele>
        <time>2022-07-16T05:48:13Z</time>
      </trkpt>
      <trkpt lat="44.91861" lon="5.80404">
        <ele>877.9</ele>
        <time>2022-07-16T05:48:14Z</time>
      </trkpt>
      <trkpt lat="44.91872" lon="5.80413">
        <ele>878.1</ele>
        <time>2022-07-16T05:48:15Z</time>
      </trkpt>
      <trkpt lat="44.91874" lon="5.80413">
        <ele>878.1</ele>
        <time>2022-07-16T05:48:16Z</time>
      </trkpt>
      <trkpt lat="44.9188" lon="5.80423">
        <ele>878.3</ele>
        <time>2022-07-16T05:48:19Z</time>
      </trkpt>
      <trkpt lat="44.91884" lon="5.80426">
        <ele>878.3</ele>
        <time>2022-07-16T05:48:20Z</time>
      </trkpt>
      <trkpt lat="44.91894" lon="5.80437">
        <ele>878.5</ele>
        <time>2022-07-16T05:48:21Z</time>
      </trkpt>
      <trkpt lat="44.919" lon="5.80443">
        <ele>878.6</ele>
        <time>2022-07-16T05:48:24Z</time>
      </trkpt>
      <trkpt lat="44.91905" lon="5.80447">
        <ele>878.7</ele>
        <time>2022-07-16T05:48:25Z</time>
      </trkpt>
      <trkpt lat="44.91909" lon="5.80452">
        <ele>878.8</ele>
        <time>2022-07-16T05:48:26Z</time>
      </trkpt>
      <trkpt lat="44.91913" lon="5.80456">
        <ele>878.8</ele>
        <time>2022-07-16T05:48:27Z</time>
      </trkpt>
      <trkpt lat="44.91917" lon="5.8046">
        <ele>878.9</ele>
        <time>2022-07-16T05:48:28Z</time>
      </trkpt>
      <trkpt lat="44.91922" lon="5.80464">
        <ele>879</ele>
        <time>2022-07-16T05:48:29Z</time>
      </trkpt>
      <trkpt lat="44.91926" lon="5.80468">
        <ele>879.1</ele>
        <time>2022-07-16T05:48:30Z</time>
      </trkpt>
      <trkpt lat="44.9193" lon="5.80471">
        <ele>879.2</ele>
        <time>2022-07-16T05:48:31Z</time>
      </trkpt>
      <trkpt lat="44.91934" lon="5.80475">
        <ele>879.2</ele>
        <time>2022-07-16T05:48:32Z</time>
      </trkpt>
      <trkpt lat="44.91938" lon="5.8048">
        <ele>879.3</ele>
        <time>2022-07-16T05:48:33Z</time>
      </trkpt>
      <trkpt lat="44.91943" lon="5.80484">
        <ele>879.4</ele>
        <time>2022-07-16T05:48:34Z</time>
      </trkpt>
      <trkpt lat="44.91947" lon="5.80488">
        <ele>879.5</ele>
        <time>2022-07-16T05:48:35Z</time>
      </trkpt>
      <trkpt lat="44.91952" lon="5.80491">
        <ele>879.5</ele>
        <time>2022-07-16T05:48:36Z</time>
      </trkpt>
      <trkpt lat="44.91957" lon="5.80495">
        <ele>879.6</ele>
        <time>2022-07-16T05:48:37Z</time>
      </trkpt>
      <trkpt lat="44.91961" lon="5.80498">
        <ele>879.7</ele>
        <time>2022-07-16T05:48:38Z</time>
      </trkpt>
      <trkpt lat="44.91965" lon="5.80502">
        <ele>879.8</ele>
        <time>2022-07-16T05:48:39Z</time>
      </trkpt>
      <trkpt lat="44.91969" lon="5.80506">
        <ele>879.8</ele>
        <time>2022-07-16T05:48:40Z</time>
      </trkpt>
      <trkpt lat="44.91974" lon="5.8051">
        <ele>879.9</ele>
        <time>2022-07-16T05:48:41Z</time>
      </trkpt>
      <trkpt lat="44.91979" lon="5.80515">
        <ele>880</ele>
        <time>2022-07-16T05:48:42Z</time>
      </trkpt>
      <trkpt lat="44.91984" lon="5.80519">
        <ele>880.1</ele>
        <time>2022-07-16T05:48:43Z</time>
      </trkpt>
      <trkpt lat="44.91988" lon="5.80524">
        <ele>880.2</ele>
        <time>2022-07-16T05:48:44Z</time>
      </trkpt>
      <trkpt lat="44.91993" lon="5.80529">
        <ele>880.4</ele>
        <time>2022-07-16T05:48:45Z</time>
      </trkpt>
      <trkpt lat="44.91998" lon="5.80533">
        <ele>880.5</ele>
        <time>2022-07-16T05:48:46Z</time>
      </trkpt>
      <trkpt lat="44.92003" lon="5.80538">
        <ele>880.6</ele>
        <time>2022-07-16T05:48:47Z</time>
      </trkpt>
      <trkpt lat="44.92007" lon="5.80543">
        <ele>880.7</ele>
        <time>2022-07-16T05:48:48Z</time>
      </trkpt>
      <trkpt lat="44.92011" lon="5.80548">
        <ele>880.8</ele>
        <time>2022-07-16T05:48:49Z</time>
      </trkpt>
      <trkpt lat="44.92016" lon="5.80552">
        <ele>881</ele>
        <time>2022-07-16T05:48:50Z</time>
      </trkpt>
      <trkpt lat="44.9202" lon="5.80557">
        <ele>881.1</ele>
        <time>2022-07-16T05:48:51Z</time>
      </trkpt>
      <trkpt lat="44.92025" lon="5.80561">
        <ele>881.3</ele>
        <time>2022-07-16T05:48:52Z</time>
      </trkpt>
      <trkpt lat="44.92029" lon="5.80565">
        <ele>881.5</ele>
        <time>2022-07-16T05:48:53Z</time>
      </trkpt>
      <trkpt lat="44.92033" lon="5.80569">
        <ele>881.6</ele>
        <time>2022-07-16T05:48:54Z</time>
      </trkpt>
      <trkpt lat="44.92038" lon="5.80574">
        <ele>881.5</ele>
        <time>2022-07-16T05:48:55Z</time>
      </trkpt>
      <trkpt lat="44.92042" lon="5.80578">
        <ele>881.6</ele>
        <time>2022-07-16T05:48:56Z</time>
      </trkpt>
      <trkpt lat="44.92046" lon="5.80581">
        <ele>881.6</ele>
        <time>2022-07-16T05:48:57Z</time>
      </trkpt>
      <trkpt lat="44.92051" lon="5.80585">
        <ele>881.7</ele>
        <time>2022-07-16T05:48:58Z</time>
      </trkpt>
      <trkpt lat="44.92055" lon="5.80588">
        <ele>881.8</ele>
        <time>2022-07-16T05:48:59Z</time>
      </trkpt>
      <trkpt lat="44.92059" lon="5.80592">
        <ele>881.9</ele>
        <time>2022-07-16T05:49:00Z</time>
      </trkpt>
      <trkpt lat="44.92063" lon="5.80596">
        <ele>882</ele>
        <time>2022-07-16T05:49:01Z</time>
      </trkpt>
      <trkpt lat="44.92068" lon="5.806">
        <ele>882.1</ele>
        <time>2022-07-16T05:49:02Z</time>
      </trkpt>
      <trkpt lat="44.92072" lon="5.80603">
        <ele>882.3</ele>
        <time>2022-07-16T05:49:03Z</time>
      </trkpt>
      <trkpt lat="44.92076" lon="5.80607">
        <ele>882.4</ele>
        <time>2022-07-16T05:49:04Z</time>
      </trkpt>
      <trkpt lat="44.92079" lon="5.80611">
        <ele>882.5</ele>
        <time>2022-07-16T05:49:05Z</time>
      </trkpt>
      <trkpt lat="44.92083" lon="5.80616">
        <ele>882.6</ele>
        <time>2022-07-16T05:49:06Z</time>
      </trkpt>
      <trkpt lat="44.92086" lon="5.80621">
        <ele>882.7</ele>
        <time>2022-07-16T05:49:07Z</time>
      </trkpt>
      <trkpt lat="44.9209" lon="5.80625">
        <ele>882.8</ele>
        <time>2022-07-16T05:49:08Z</time>
      </trkpt>
      <trkpt lat="44.92093" lon="5.80629">
        <ele>883</ele>
        <time>2022-07-16T05:49:09Z</time>
      </trkpt>
      <trkpt lat="44.92097" lon="5.80632">
        <ele>883.1</ele>
        <time>2022-07-16T05:49:10Z</time>
      </trkpt>
      <trkpt lat="44.92101" lon="5.80637">
        <ele>883.2</ele>
        <time>2022-07-16T05:49:11Z</time>
      </trkpt>
      <trkpt lat="44.92105" lon="5.8064">
        <ele>883.4</ele>
        <time>2022-07-16T05:49:12Z</time>
      </trkpt>
      <trkpt lat="44.92109" lon="5.80643">
        <ele>883.5</ele>
        <time>2022-07-16T05:49:13Z</time>
      </trkpt>
      <trkpt lat="44.92113" lon="5.80647">
        <ele>883.7</ele>
        <time>2022-07-16T05:49:14Z</time>
      </trkpt>
      <trkpt lat="44.92116" lon="5.80648">
        <ele>883.8</ele>
        <time>2022-07-16T05:49:15Z</time>
      </trkpt>
      <trkpt lat="44.92121" lon="5.80653">
        <ele>883.9</ele>
        <time>2022-07-16T05:49:16Z</time>
      </trkpt>
      <trkpt lat="44.92124" lon="5.80657">
        <ele>884.1</ele>
        <time>2022-07-16T05:49:17Z</time>
      </trkpt>
      <trkpt lat="44.92128" lon="5.80661">
        <ele>884.3</ele>
        <time>2022-07-16T05:49:18Z</time>
      </trkpt>
      <trkpt lat="44.92129" lon="5.80663">
        <ele>884.3</ele>
        <time>2022-07-16T05:49:19Z</time>
      </trkpt>
      <trkpt lat="44.92133" lon="5.80667">
        <ele>884.4</ele>
        <time>2022-07-16T05:49:20Z</time>
      </trkpt>
      <trkpt lat="44.92136" lon="5.8067">
        <ele>884.6</ele>
        <time>2022-07-16T05:49:21Z</time>
      </trkpt>
      <trkpt lat="44.92143" lon="5.80677">
        <ele>884.8</ele>
        <time>2022-07-16T05:49:22Z</time>
      </trkpt>
      <trkpt lat="44.92154" lon="5.80685">
        <ele>885.2</ele>
        <time>2022-07-16T05:49:25Z</time>
      </trkpt>
      <trkpt lat="44.92162" lon="5.80688">
        <ele>885.6</ele>
        <time>2022-07-16T05:49:27Z</time>
      </trkpt>
      <trkpt lat="44.92166" lon="5.8069">
        <ele>885.8</ele>
        <time>2022-07-16T05:49:28Z</time>
      </trkpt>
      <trkpt lat="44.9217" lon="5.80692">
        <ele>886</ele>
        <time>2022-07-16T05:49:29Z</time>
      </trkpt>
      <trkpt lat="44.92183" lon="5.80697">
        <ele>886.6</ele>
        <time>2022-07-16T05:49:32Z</time>
      </trkpt>
      <trkpt lat="44.92188" lon="5.80697">
        <ele>886.8</ele>
        <time>2022-07-16T05:49:33Z</time>
      </trkpt>
      <trkpt lat="44.92195" lon="5.80697">
        <ele>887.2</ele>
        <time>2022-07-16T05:49:34Z</time>
      </trkpt>
      <trkpt lat="44.92198" lon="5.80695">
        <ele>887.3</ele>
        <time>2022-07-16T05:49:36Z</time>
      </trkpt>
      <trkpt lat="44.92208" lon="5.80694">
        <ele>887.7</ele>
        <time>2022-07-16T05:49:38Z</time>
      </trkpt>
      <trkpt lat="44.92215" lon="5.80692">
        <ele>888</ele>
        <time>2022-07-16T05:49:39Z</time>
      </trkpt>
      <trkpt lat="44.92219" lon="5.80689">
        <ele>888.1</ele>
        <time>2022-07-16T05:49:41Z</time>
      </trkpt>
      <trkpt lat="44.92222" lon="5.80688">
        <ele>888.3</ele>
        <time>2022-07-16T05:49:42Z</time>
      </trkpt>
      <trkpt lat="44.92226" lon="5.80686">
        <ele>888.4</ele>
        <time>2022-07-16T05:49:43Z</time>
      </trkpt>
      <trkpt lat="44.92233" lon="5.80682">
        <ele>888.7</ele>
        <time>2022-07-16T05:49:44Z</time>
      </trkpt>
      <trkpt lat="44.92238" lon="5.8068">
        <ele>888.9</ele>
        <time>2022-07-16T05:49:46Z</time>
      </trkpt>
      <trkpt lat="44.92244" lon="5.80678">
        <ele>889.1</ele>
        <time>2022-07-16T05:49:47Z</time>
      </trkpt>
      <trkpt lat="44.92251" lon="5.80675">
        <ele>889.4</ele>
        <time>2022-07-16T05:49:48Z</time>
      </trkpt>
      <trkpt lat="44.92255" lon="5.80672">
        <ele>889.6</ele>
        <time>2022-07-16T05:49:50Z</time>
      </trkpt>
      <trkpt lat="44.92257" lon="5.80671">
        <ele>889.7</ele>
        <time>2022-07-16T05:49:51Z</time>
      </trkpt>
      <trkpt lat="44.92266" lon="5.80665">
        <ele>890.1</ele>
        <time>2022-07-16T05:49:53Z</time>
      </trkpt>
      <trkpt lat="44.92269" lon="5.80662">
        <ele>890.3</ele>
        <time>2022-07-16T05:49:54Z</time>
      </trkpt>
      <trkpt lat="44.92272" lon="5.8066">
        <ele>890.4</ele>
        <time>2022-07-16T05:49:55Z</time>
      </trkpt>
      <trkpt lat="44.92276" lon="5.80652">
        <ele>890.7</ele>
        <time>2022-07-16T05:49:57Z</time>
      </trkpt>
      <trkpt lat="44.92277" lon="5.80647">
        <ele>890.9</ele>
        <time>2022-07-16T05:49:59Z</time>
      </trkpt>
      <trkpt lat="44.92279" lon="5.80643">
        <ele>891</ele>
        <time>2022-07-16T05:50:00Z</time>
      </trkpt>
      <trkpt lat="44.92281" lon="5.80638">
        <ele>891.2</ele>
        <time>2022-07-16T05:50:01Z</time>
      </trkpt>
      <trkpt lat="44.92288" lon="5.80628">
        <ele>891.6</ele>
        <time>2022-07-16T05:50:03Z</time>
      </trkpt>
      <trkpt lat="44.92289" lon="5.80624">
        <ele>891.7</ele>
        <time>2022-07-16T05:50:04Z</time>
      </trkpt>
      <trkpt lat="44.92293" lon="5.8062">
        <ele>891.9</ele>
        <time>2022-07-16T05:50:05Z</time>
      </trkpt>
      <trkpt lat="44.92299" lon="5.80611">
        <ele>892.2</ele>
        <time>2022-07-16T05:50:07Z</time>
      </trkpt>
      <trkpt lat="44.92302" lon="5.80606">
        <ele>892.4</ele>
        <time>2022-07-16T05:50:08Z</time>
      </trkpt>
      <trkpt lat="44.92306" lon="5.80601">
        <ele>892.6</ele>
        <time>2022-07-16T05:50:10Z</time>
      </trkpt>
      <trkpt lat="44.92309" lon="5.80596">
        <ele>892.8</ele>
        <time>2022-07-16T05:50:11Z</time>
      </trkpt>
      <trkpt lat="44.92312" lon="5.80594">
        <ele>893</ele>
        <time>2022-07-16T05:50:12Z</time>
      </trkpt>
      <trkpt lat="44.92315" lon="5.80589">
        <ele>893.2</ele>
        <time>2022-07-16T05:50:13Z</time>
      </trkpt>
      <trkpt lat="44.92321" lon="5.80582">
        <ele>893.5</ele>
        <time>2022-07-16T05:50:15Z</time>
      </trkpt>
      <trkpt lat="44.92322" lon="5.80579">
        <ele>893.6</ele>
        <time>2022-07-16T05:50:16Z</time>
      </trkpt>
      <trkpt lat="44.92325" lon="5.80574">
        <ele>893.8</ele>
        <time>2022-07-16T05:50:17Z</time>
      </trkpt>
      <trkpt lat="44.92328" lon="5.80569">
        <ele>894</ele>
        <time>2022-07-16T05:50:18Z</time>
      </trkpt>
      <trkpt lat="44.92331" lon="5.80562">
        <ele>894.2</ele>
        <time>2022-07-16T05:50:19Z</time>
      </trkpt>
      <trkpt lat="44.92334" lon="5.80555">
        <ele>894.4</ele>
        <time>2022-07-16T05:50:20Z</time>
      </trkpt>
      <trkpt lat="44.9234" lon="5.80542">
        <ele>894.7</ele>
        <time>2022-07-16T05:50:22Z</time>
      </trkpt>
      <trkpt lat="44.92345" lon="5.80535">
        <ele>894.9</ele>
        <time>2022-07-16T05:50:23Z</time>
      </trkpt>
      <trkpt lat="44.92347" lon="5.8053">
        <ele>895</ele>
        <time>2022-07-16T05:50:25Z</time>
      </trkpt>
      <trkpt lat="44.92354" lon="5.80526">
        <ele>895.3</ele>
        <time>2022-07-16T05:50:26Z</time>
      </trkpt>
      <trkpt lat="44.92363" lon="5.80522">
        <ele>895.5</ele>
        <time>2022-07-16T05:50:29Z</time>
      </trkpt>
      <trkpt lat="44.92374" lon="5.80513">
        <ele>895.9</ele>
        <time>2022-07-16T05:50:30Z</time>
      </trkpt>
      <trkpt lat="44.92371" lon="5.80517">
        <ele>896.1</ele>
        <time>2022-07-16T05:50:32Z</time>
      </trkpt>
      <trkpt lat="44.92379" lon="5.80511">
        <ele>896.4</ele>
        <time>2022-07-16T05:50:33Z</time>
      </trkpt>
      <trkpt lat="44.92387" lon="5.80507">
        <ele>896.7</ele>
        <time>2022-07-16T05:50:34Z</time>
      </trkpt>
      <trkpt lat="44.92391" lon="5.80504">
        <ele>896.9</ele>
        <time>2022-07-16T05:50:35Z</time>
      </trkpt>
      <trkpt lat="44.92397" lon="5.80501">
        <ele>897.2</ele>
        <time>2022-07-16T05:50:37Z</time>
      </trkpt>
      <trkpt lat="44.92401" lon="5.80499">
        <ele>897.3</ele>
        <time>2022-07-16T05:50:39Z</time>
      </trkpt>
      <trkpt lat="44.92405" lon="5.80497">
        <ele>897.5</ele>
        <time>2022-07-16T05:50:40Z</time>
      </trkpt>
      <trkpt lat="44.92408" lon="5.80496">
        <ele>897.6</ele>
        <time>2022-07-16T05:50:41Z</time>
      </trkpt>
      <trkpt lat="44.92415" lon="5.80496">
        <ele>897.8</ele>
        <time>2022-07-16T05:50:42Z</time>
      </trkpt>
      <trkpt lat="44.92423" lon="5.80496">
        <ele>898.1</ele>
        <time>2022-07-16T05:50:44Z</time>
      </trkpt>
      <trkpt lat="44.92431" lon="5.805">
        <ele>898.4</ele>
        <time>2022-07-16T05:50:46Z</time>
      </trkpt>
      <trkpt lat="44.92439" lon="5.80505">
        <ele>898.7</ele>
        <time>2022-07-16T05:50:48Z</time>
      </trkpt>
      <trkpt lat="44.92447" lon="5.80508">
        <ele>899.1</ele>
        <time>2022-07-16T05:50:50Z</time>
      </trkpt>
      <trkpt lat="44.92452" lon="5.8051">
        <ele>899.3</ele>
        <time>2022-07-16T05:50:51Z</time>
      </trkpt>
      <trkpt lat="44.9246" lon="5.80515">
        <ele>899.6</ele>
        <time>2022-07-16T05:50:53Z</time>
      </trkpt>
      <trkpt lat="44.92465" lon="5.80518">
        <ele>899.9</ele>
        <time>2022-07-16T05:50:54Z</time>
      </trkpt>
      <trkpt lat="44.92473" lon="5.80522">
        <ele>900.2</ele>
        <time>2022-07-16T05:50:56Z</time>
      </trkpt>
      <trkpt lat="44.92477" lon="5.80524">
        <ele>900.4</ele>
        <time>2022-07-16T05:50:57Z</time>
      </trkpt>
      <trkpt lat="44.92481" lon="5.80526">
        <ele>900.6</ele>
        <time>2022-07-16T05:50:58Z</time>
      </trkpt>
      <trkpt lat="44.92486" lon="5.80527">
        <ele>900.8</ele>
        <time>2022-07-16T05:50:59Z</time>
      </trkpt>
      <trkpt lat="44.9249" lon="5.80529">
        <ele>901</ele>
        <time>2022-07-16T05:51:00Z</time>
      </trkpt>
      <trkpt lat="44.92495" lon="5.80532">
        <ele>901.2</ele>
        <time>2022-07-16T05:51:01Z</time>
      </trkpt>
      <trkpt lat="44.925" lon="5.80534">
        <ele>901.4</ele>
        <time>2022-07-16T05:51:03Z</time>
      </trkpt>
      <trkpt lat="44.92504" lon="5.80537">
        <ele>901.6</ele>
        <time>2022-07-16T05:51:04Z</time>
      </trkpt>
      <trkpt lat="44.92516" lon="5.80545">
        <ele>902.1</ele>
        <time>2022-07-16T05:51:07Z</time>
      </trkpt>
      <trkpt lat="44.92522" lon="5.80548">
        <ele>902.3</ele>
        <time>2022-07-16T05:51:08Z</time>
      </trkpt>
      <trkpt lat="44.92526" lon="5.80552">
        <ele>902.6</ele>
        <time>2022-07-16T05:51:09Z</time>
      </trkpt>
      <trkpt lat="44.92536" lon="5.80557">
        <ele>903</ele>
        <time>2022-07-16T05:51:11Z</time>
      </trkpt>
      <trkpt lat="44.92542" lon="5.80559">
        <ele>903.2</ele>
        <time>2022-07-16T05:51:12Z</time>
      </trkpt>
      <trkpt lat="44.92547" lon="5.80563">
        <ele>903.5</ele>
        <time>2022-07-16T05:51:14Z</time>
      </trkpt>
      <trkpt lat="44.92549" lon="5.80567">
        <ele>903.6</ele>
        <time>2022-07-16T05:51:15Z</time>
      </trkpt>
      <trkpt lat="44.92556" lon="5.80573">
        <ele>904</ele>
        <time>2022-07-16T05:51:16Z</time>
      </trkpt>
      <trkpt lat="44.9256" lon="5.80577">
        <ele>904.2</ele>
        <time>2022-07-16T05:51:18Z</time>
      </trkpt>
      <trkpt lat="44.92563" lon="5.80578">
        <ele>904.3</ele>
        <time>2022-07-16T05:51:19Z</time>
      </trkpt>
      <trkpt lat="44.92568" lon="5.80584">
        <ele>904.6</ele>
        <time>2022-07-16T05:51:21Z</time>
      </trkpt>
      <trkpt lat="44.92574" lon="5.80591">
        <ele>904.9</ele>
        <time>2022-07-16T05:51:23Z</time>
      </trkpt>
      <trkpt lat="44.92578" lon="5.80596">
        <ele>905.2</ele>
        <time>2022-07-16T05:51:24Z</time>
      </trkpt>
      <trkpt lat="44.92583" lon="5.80601">
        <ele>905.5</ele>
        <time>2022-07-16T05:51:26Z</time>
      </trkpt>
      <trkpt lat="44.92586" lon="5.80605">
        <ele>905.6</ele>
        <time>2022-07-16T05:51:27Z</time>
      </trkpt>
      <trkpt lat="44.92591" lon="5.8061">
        <ele>905.9</ele>
        <time>2022-07-16T05:51:28Z</time>
      </trkpt>
      <trkpt lat="44.92595" lon="5.80615">
        <ele>906.1</ele>
        <time>2022-07-16T05:51:29Z</time>
      </trkpt>
      <trkpt lat="44.92602" lon="5.8062">
        <ele>906.5</ele>
        <time>2022-07-16T05:51:30Z</time>
      </trkpt>
      <trkpt lat="44.92606" lon="5.80622">
        <ele>906.7</ele>
        <time>2022-07-16T05:51:32Z</time>
      </trkpt>
      <trkpt lat="44.92608" lon="5.80626">
        <ele>906.8</ele>
        <time>2022-07-16T05:51:33Z</time>
      </trkpt>
      <trkpt lat="44.92614" lon="5.80631">
        <ele>907.1</ele>
        <time>2022-07-16T05:51:34Z</time>
      </trkpt>
      <trkpt lat="44.92618" lon="5.80634">
        <ele>907.2</ele>
        <time>2022-07-16T05:51:36Z</time>
      </trkpt>
      <trkpt lat="44.92622" lon="5.80636">
        <ele>907.4</ele>
        <time>2022-07-16T05:51:37Z</time>
      </trkpt>
      <trkpt lat="44.92627" lon="5.80641">
        <ele>907.7</ele>
        <time>2022-07-16T05:51:39Z</time>
      </trkpt>
      <trkpt lat="44.92636" lon="5.8065">
        <ele>908.2</ele>
        <time>2022-07-16T05:51:42Z</time>
      </trkpt>
      <trkpt lat="44.9264" lon="5.80655">
        <ele>908.4</ele>
        <time>2022-07-16T05:51:43Z</time>
      </trkpt>
      <trkpt lat="44.92646" lon="5.80668">
        <ele>908.9</ele>
        <time>2022-07-16T05:51:46Z</time>
      </trkpt>
      <trkpt lat="44.92648" lon="5.80677">
        <ele>909.2</ele>
        <time>2022-07-16T05:51:47Z</time>
      </trkpt>
      <trkpt lat="44.9265" lon="5.80682">
        <ele>909.4</ele>
        <time>2022-07-16T05:51:49Z</time>
      </trkpt>
      <trkpt lat="44.92652" lon="5.80687">
        <ele>909.5</ele>
        <time>2022-07-16T05:51:50Z</time>
      </trkpt>
      <trkpt lat="44.92652" lon="5.80693">
        <ele>909.6</ele>
        <time>2022-07-16T05:51:51Z</time>
      </trkpt>
      <trkpt lat="44.92653" lon="5.80702">
        <ele>909.8</ele>
        <time>2022-07-16T05:51:52Z</time>
      </trkpt>
      <trkpt lat="44.92655" lon="5.80708">
        <ele>910</ele>
        <time>2022-07-16T05:51:54Z</time>
      </trkpt>
      <trkpt lat="44.92654" lon="5.80713">
        <ele>910.2</ele>
        <time>2022-07-16T05:51:55Z</time>
      </trkpt>
      <trkpt lat="44.92655" lon="5.80718">
        <ele>910.3</ele>
        <time>2022-07-16T05:51:56Z</time>
      </trkpt>
      <trkpt lat="44.92656" lon="5.80724">
        <ele>910.5</ele>
        <time>2022-07-16T05:51:57Z</time>
      </trkpt>
      <trkpt lat="44.92659" lon="5.80733">
        <ele>910.7</ele>
        <time>2022-07-16T05:51:58Z</time>
      </trkpt>
      <trkpt lat="44.9266" lon="5.80739">
        <ele>910.9</ele>
        <time>2022-07-16T05:51:59Z</time>
      </trkpt>
      <trkpt lat="44.92661" lon="5.80745">
        <ele>911.1</ele>
        <time>2022-07-16T05:52:00Z</time>
      </trkpt>
      <trkpt lat="44.92662" lon="5.80752">
        <ele>911.2</ele>
        <time>2022-07-16T05:52:02Z</time>
      </trkpt>
      <trkpt lat="44.92663" lon="5.80757">
        <ele>911.3</ele>
        <time>2022-07-16T05:52:03Z</time>
      </trkpt>
      <trkpt lat="44.92666" lon="5.80767">
        <ele>911.6</ele>
        <time>2022-07-16T05:52:04Z</time>
      </trkpt>
      <trkpt lat="44.92667" lon="5.80776">
        <ele>911.8</ele>
        <time>2022-07-16T05:52:06Z</time>
      </trkpt>
      <trkpt lat="44.92668" lon="5.80785">
        <ele>912</ele>
        <time>2022-07-16T05:52:08Z</time>
      </trkpt>
      <trkpt lat="44.92672" lon="5.80796">
        <ele>912.2</ele>
        <time>2022-07-16T05:52:09Z</time>
      </trkpt>
      <trkpt lat="44.92679" lon="5.80805">
        <ele>912.4</ele>
        <time>2022-07-16T05:52:11Z</time>
      </trkpt>
      <trkpt lat="44.92683" lon="5.80808">
        <ele>912.5</ele>
        <time>2022-07-16T05:52:13Z</time>
      </trkpt>
      <trkpt lat="44.92683" lon="5.80824">
        <ele>912.7</ele>
        <time>2022-07-16T05:52:14Z</time>
      </trkpt>
      <trkpt lat="44.92682" lon="5.80826">
        <ele>912.7</ele>
        <time>2022-07-16T05:52:15Z</time>
      </trkpt>
      <trkpt lat="44.9269" lon="5.80836">
        <ele>913</ele>
        <time>2022-07-16T05:52:18Z</time>
      </trkpt>
      <trkpt lat="44.92694" lon="5.80839">
        <ele>913.1</ele>
        <time>2022-07-16T05:52:19Z</time>
      </trkpt>
      <trkpt lat="44.92699" lon="5.80843">
        <ele>913.2</ele>
        <time>2022-07-16T05:52:20Z</time>
      </trkpt>
      <trkpt lat="44.92703" lon="5.80846">
        <ele>913.2</ele>
        <time>2022-07-16T05:52:21Z</time>
      </trkpt>
      <trkpt lat="44.92707" lon="5.8085">
        <ele>913.2</ele>
        <time>2022-07-16T05:52:22Z</time>
      </trkpt>
      <trkpt lat="44.92719" lon="5.80859">
        <ele>913.3</ele>
        <time>2022-07-16T05:52:23Z</time>
      </trkpt>
      <trkpt lat="44.92723" lon="5.80857">
        <ele>913.3</ele>
        <time>2022-07-16T05:52:25Z</time>
      </trkpt>
      <trkpt lat="44.9274" lon="5.80871">
        <ele>913.5</ele>
        <time>2022-07-16T05:52:28Z</time>
      </trkpt>
      <trkpt lat="44.92745" lon="5.80877">
        <ele>913.6</ele>
        <time>2022-07-16T05:52:31Z</time>
      </trkpt>
      <trkpt lat="44.9275" lon="5.80882">
        <ele>913.7</ele>
        <time>2022-07-16T05:52:32Z</time>
      </trkpt>
      <trkpt lat="44.92755" lon="5.80886">
        <ele>913.7</ele>
        <time>2022-07-16T05:52:33Z</time>
      </trkpt>
      <trkpt lat="44.9276" lon="5.80891">
        <ele>913.8</ele>
        <time>2022-07-16T05:52:34Z</time>
      </trkpt>
      <trkpt lat="44.92764" lon="5.80896">
        <ele>913.9</ele>
        <time>2022-07-16T05:52:35Z</time>
      </trkpt>
      <trkpt lat="44.92768" lon="5.80901">
        <ele>914</ele>
        <time>2022-07-16T05:52:36Z</time>
      </trkpt>
      <trkpt lat="44.92772" lon="5.80906">
        <ele>914.1</ele>
        <time>2022-07-16T05:52:37Z</time>
      </trkpt>
      <trkpt lat="44.92776" lon="5.80911">
        <ele>914.1</ele>
        <time>2022-07-16T05:52:38Z</time>
      </trkpt>
      <trkpt lat="44.92779" lon="5.80916">
        <ele>914.2</ele>
        <time>2022-07-16T05:52:39Z</time>
      </trkpt>
      <trkpt lat="44.92783" lon="5.80921">
        <ele>914.3</ele>
        <time>2022-07-16T05:52:40Z</time>
      </trkpt>
      <trkpt lat="44.92787" lon="5.80926">
        <ele>914.3</ele>
        <time>2022-07-16T05:52:41Z</time>
      </trkpt>
      <trkpt lat="44.92791" lon="5.80931">
        <ele>914.4</ele>
        <time>2022-07-16T05:52:42Z</time>
      </trkpt>
      <trkpt lat="44.92795" lon="5.80936">
        <ele>914.4</ele>
        <time>2022-07-16T05:52:43Z</time>
      </trkpt>
      <trkpt lat="44.92799" lon="5.80941">
        <ele>914.5</ele>
        <time>2022-07-16T05:52:44Z</time>
      </trkpt>
      <trkpt lat="44.92804" lon="5.80945">
        <ele>914.6</ele>
        <time>2022-07-16T05:52:45Z</time>
      </trkpt>
      <trkpt lat="44.92807" lon="5.8095">
        <ele>914.6</ele>
        <time>2022-07-16T05:52:46Z</time>
      </trkpt>
      <trkpt lat="44.92811" lon="5.80956">
        <ele>914.7</ele>
        <time>2022-07-16T05:52:47Z</time>
      </trkpt>
      <trkpt lat="44.92815" lon="5.80961">
        <ele>914.7</ele>
        <time>2022-07-16T05:52:48Z</time>
      </trkpt>
      <trkpt lat="44.92819" lon="5.80968">
        <ele>914.8</ele>
        <time>2022-07-16T05:52:49Z</time>
      </trkpt>
      <trkpt lat="44.92821" lon="5.80973">
        <ele>914.9</ele>
        <time>2022-07-16T05:52:50Z</time>
      </trkpt>
      <trkpt lat="44.92823" lon="5.80979">
        <ele>915</ele>
        <time>2022-07-16T05:52:51Z</time>
      </trkpt>
      <trkpt lat="44.92826" lon="5.80986">
        <ele>915.1</ele>
        <time>2022-07-16T05:52:52Z</time>
      </trkpt>
      <trkpt lat="44.9283" lon="5.80992">
        <ele>915.1</ele>
        <time>2022-07-16T05:52:53Z</time>
      </trkpt>
      <trkpt lat="44.92832" lon="5.80998">
        <ele>915.2</ele>
        <time>2022-07-16T05:52:54Z</time>
      </trkpt>
      <trkpt lat="44.92836" lon="5.81006">
        <ele>915.2</ele>
        <time>2022-07-16T05:52:55Z</time>
      </trkpt>
      <trkpt lat="44.9284" lon="5.81012">
        <ele>915.2</ele>
        <time>2022-07-16T05:52:56Z</time>
      </trkpt>
      <trkpt lat="44.92842" lon="5.81019">
        <ele>915.4</ele>
        <time>2022-07-16T05:52:57Z</time>
      </trkpt>
      <trkpt lat="44.92844" lon="5.81026">
        <ele>915.6</ele>
        <time>2022-07-16T05:52:58Z</time>
      </trkpt>
      <trkpt lat="44.92846" lon="5.81032">
        <ele>915.7</ele>
        <time>2022-07-16T05:52:59Z</time>
      </trkpt>
      <trkpt lat="44.92848" lon="5.81039">
        <ele>915.9</ele>
        <time>2022-07-16T05:53:00Z</time>
      </trkpt>
      <trkpt lat="44.9285" lon="5.81042">
        <ele>916</ele>
        <time>2022-07-16T05:53:01Z</time>
      </trkpt>
      <trkpt lat="44.92853" lon="5.81048">
        <ele>916.2</ele>
        <time>2022-07-16T05:53:02Z</time>
      </trkpt>
      <trkpt lat="44.92855" lon="5.81054">
        <ele>916.4</ele>
        <time>2022-07-16T05:53:03Z</time>
      </trkpt>
      <trkpt lat="44.92856" lon="5.81058">
        <ele>916.5</ele>
        <time>2022-07-16T05:53:04Z</time>
      </trkpt>
      <trkpt lat="44.92858" lon="5.81062">
        <ele>916.6</ele>
        <time>2022-07-16T05:53:05Z</time>
      </trkpt>
      <trkpt lat="44.92864" lon="5.81071">
        <ele>916.9</ele>
        <time>2022-07-16T05:53:06Z</time>
      </trkpt>
      <trkpt lat="44.92867" lon="5.81072">
        <ele>917</ele>
        <time>2022-07-16T05:53:07Z</time>
      </trkpt>
      <trkpt lat="44.92869" lon="5.81086">
        <ele>917.3</ele>
        <time>2022-07-16T05:53:09Z</time>
      </trkpt>
      <trkpt lat="44.92869" lon="5.81092">
        <ele>917.4</ele>
        <time>2022-07-16T05:53:10Z</time>
      </trkpt>
      <trkpt lat="44.92872" lon="5.81105">
        <ele>917.7</ele>
        <time>2022-07-16T05:53:12Z</time>
      </trkpt>
      <trkpt lat="44.92874" lon="5.81112">
        <ele>917.8</ele>
        <time>2022-07-16T05:53:13Z</time>
      </trkpt>
      <trkpt lat="44.9288" lon="5.81129">
        <ele>918.1</ele>
        <time>2022-07-16T05:53:16Z</time>
      </trkpt>
      <trkpt lat="44.92882" lon="5.81134">
        <ele>918.2</ele>
        <time>2022-07-16T05:53:17Z</time>
      </trkpt>
      <trkpt lat="44.92876" lon="5.81144">
        <ele>918.4</ele>
        <time>2022-07-16T05:53:18Z</time>
      </trkpt>
      <trkpt lat="44.92886" lon="5.81162">
        <ele>918.6</ele>
        <time>2022-07-16T05:53:21Z</time>
      </trkpt>
      <trkpt lat="44.92888" lon="5.8117">
        <ele>918.7</ele>
        <time>2022-07-16T05:53:22Z</time>
      </trkpt>
      <trkpt lat="44.9289" lon="5.81177">
        <ele>918.8</ele>
        <time>2022-07-16T05:53:23Z</time>
      </trkpt>
      <trkpt lat="44.92892" lon="5.81185">
        <ele>918.8</ele>
        <time>2022-07-16T05:53:24Z</time>
      </trkpt>
      <trkpt lat="44.92894" lon="5.81192">
        <ele>918.9</ele>
        <time>2022-07-16T05:53:25Z</time>
      </trkpt>
      <trkpt lat="44.92896" lon="5.812">
        <ele>918.9</ele>
        <time>2022-07-16T05:53:26Z</time>
      </trkpt>
      <trkpt lat="44.92899" lon="5.81207">
        <ele>918.9</ele>
        <time>2022-07-16T05:53:27Z</time>
      </trkpt>
      <trkpt lat="44.92901" lon="5.81215">
        <ele>918.9</ele>
        <time>2022-07-16T05:53:28Z</time>
      </trkpt>
      <trkpt lat="44.92903" lon="5.81222">
        <ele>918.9</ele>
        <time>2022-07-16T05:53:29Z</time>
      </trkpt>
      <trkpt lat="44.92905" lon="5.8123">
        <ele>918.9</ele>
        <time>2022-07-16T05:53:30Z</time>
      </trkpt>
      <trkpt lat="44.92907" lon="5.81238">
        <ele>918.9</ele>
        <time>2022-07-16T05:53:31Z</time>
      </trkpt>
      <trkpt lat="44.92909" lon="5.81247">
        <ele>918.9</ele>
        <time>2022-07-16T05:53:32Z</time>
      </trkpt>
      <trkpt lat="44.92911" lon="5.81255">
        <ele>918.9</ele>
        <time>2022-07-16T05:53:33Z</time>
      </trkpt>
      <trkpt lat="44.92913" lon="5.81263">
        <ele>918.9</ele>
        <time>2022-07-16T05:53:34Z</time>
      </trkpt>
      <trkpt lat="44.92915" lon="5.8127">
        <ele>918.8</ele>
        <time>2022-07-16T05:53:35Z</time>
      </trkpt>
      <trkpt lat="44.92916" lon="5.81279">
        <ele>918.8</ele>
        <time>2022-07-16T05:53:36Z</time>
      </trkpt>
      <trkpt lat="44.92918" lon="5.81287">
        <ele>918.8</ele>
        <time>2022-07-16T05:53:37Z</time>
      </trkpt>
      <trkpt lat="44.92919" lon="5.81295">
        <ele>918.8</ele>
        <time>2022-07-16T05:53:38Z</time>
      </trkpt>
      <trkpt lat="44.9292" lon="5.81304">
        <ele>918.7</ele>
        <time>2022-07-16T05:53:39Z</time>
      </trkpt>
      <trkpt lat="44.92922" lon="5.81312">
        <ele>918.7</ele>
        <time>2022-07-16T05:53:40Z</time>
      </trkpt>
      <trkpt lat="44.92924" lon="5.8132">
        <ele>918.7</ele>
        <time>2022-07-16T05:53:41Z</time>
      </trkpt>
      <trkpt lat="44.92927" lon="5.81328">
        <ele>918.7</ele>
        <time>2022-07-16T05:53:42Z</time>
      </trkpt>
      <trkpt lat="44.92929" lon="5.81335">
        <ele>918.7</ele>
        <time>2022-07-16T05:53:43Z</time>
      </trkpt>
      <trkpt lat="44.92931" lon="5.81343">
        <ele>918.7</ele>
        <time>2022-07-16T05:53:44Z</time>
      </trkpt>
      <trkpt lat="44.92933" lon="5.8135">
        <ele>918.7</ele>
        <time>2022-07-16T05:53:45Z</time>
      </trkpt>
      <trkpt lat="44.92935" lon="5.81358">
        <ele>918.7</ele>
        <time>2022-07-16T05:53:46Z</time>
      </trkpt>
      <trkpt lat="44.92937" lon="5.81366">
        <ele>918.7</ele>
        <time>2022-07-16T05:53:47Z</time>
      </trkpt>
      <trkpt lat="44.9294" lon="5.81372">
        <ele>918.7</ele>
        <time>2022-07-16T05:53:48Z</time>
      </trkpt>
      <trkpt lat="44.92942" lon="5.8138">
        <ele>918.6</ele>
        <time>2022-07-16T05:53:49Z</time>
      </trkpt>
      <trkpt lat="44.92944" lon="5.81389">
        <ele>918.6</ele>
        <time>2022-07-16T05:53:50Z</time>
      </trkpt>
      <trkpt lat="44.92946" lon="5.81397">
        <ele>918.6</ele>
        <time>2022-07-16T05:53:51Z</time>
      </trkpt>
      <trkpt lat="44.92949" lon="5.81406">
        <ele>918.6</ele>
        <time>2022-07-16T05:53:52Z</time>
      </trkpt>
      <trkpt lat="44.92951" lon="5.81414">
        <ele>918.5</ele>
        <time>2022-07-16T05:53:53Z</time>
      </trkpt>
      <trkpt lat="44.92953" lon="5.81422">
        <ele>918.5</ele>
        <time>2022-07-16T05:53:54Z</time>
      </trkpt>
      <trkpt lat="44.92955" lon="5.8143">
        <ele>918.5</ele>
        <time>2022-07-16T05:53:55Z</time>
      </trkpt>
      <trkpt lat="44.92958" lon="5.81438">
        <ele>918.4</ele>
        <time>2022-07-16T05:53:56Z</time>
      </trkpt>
      <trkpt lat="44.92961" lon="5.81446">
        <ele>918.4</ele>
        <time>2022-07-16T05:53:57Z</time>
      </trkpt>
      <trkpt lat="44.92963" lon="5.81454">
        <ele>918.4</ele>
        <time>2022-07-16T05:53:58Z</time>
      </trkpt>
      <trkpt lat="44.92965" lon="5.81462">
        <ele>918.4</ele>
        <time>2022-07-16T05:53:59Z</time>
      </trkpt>
      <trkpt lat="44.92968" lon="5.8147">
        <ele>918.4</ele>
        <time>2022-07-16T05:54:00Z</time>
      </trkpt>
      <trkpt lat="44.92971" lon="5.81479">
        <ele>918.4</ele>
        <time>2022-07-16T05:54:01Z</time>
      </trkpt>
      <trkpt lat="44.92974" lon="5.81486">
        <ele>918.4</ele>
        <time>2022-07-16T05:54:02Z</time>
      </trkpt>
      <trkpt lat="44.92977" lon="5.81494">
        <ele>918.4</ele>
        <time>2022-07-16T05:54:03Z</time>
      </trkpt>
      <trkpt lat="44.92981" lon="5.81501">
        <ele>918.4</ele>
        <time>2022-07-16T05:54:04Z</time>
      </trkpt>
      <trkpt lat="44.92984" lon="5.81509">
        <ele>918.5</ele>
        <time>2022-07-16T05:54:05Z</time>
      </trkpt>
      <trkpt lat="44.92987" lon="5.81516">
        <ele>918.5</ele>
        <time>2022-07-16T05:54:06Z</time>
      </trkpt>
      <trkpt lat="44.9299" lon="5.81524">
        <ele>918.6</ele>
        <time>2022-07-16T05:54:07Z</time>
      </trkpt>
      <trkpt lat="44.92994" lon="5.81531">
        <ele>918.6</ele>
        <time>2022-07-16T05:54:08Z</time>
      </trkpt>
      <trkpt lat="44.92998" lon="5.81538">
        <ele>918.7</ele>
        <time>2022-07-16T05:54:09Z</time>
      </trkpt>
      <trkpt lat="44.93001" lon="5.81546">
        <ele>918.7</ele>
        <time>2022-07-16T05:54:10Z</time>
      </trkpt>
      <trkpt lat="44.93004" lon="5.81553">
        <ele>918.8</ele>
        <time>2022-07-16T05:54:11Z</time>
      </trkpt>
      <trkpt lat="44.93007" lon="5.81561">
        <ele>918.8</ele>
        <time>2022-07-16T05:54:12Z</time>
      </trkpt>
      <trkpt lat="44.93011" lon="5.81567">
        <ele>918.8</ele>
        <time>2022-07-16T05:54:13Z</time>
      </trkpt>
      <trkpt lat="44.93014" lon="5.81575">
        <ele>918.9</ele>
        <time>2022-07-16T05:54:14Z</time>
      </trkpt>
      <trkpt lat="44.93017" lon="5.81583">
        <ele>918.9</ele>
        <time>2022-07-16T05:54:15Z</time>
      </trkpt>
      <trkpt lat="44.9302" lon="5.8159">
        <ele>918.9</ele>
        <time>2022-07-16T05:54:16Z</time>
      </trkpt>
      <trkpt lat="44.93023" lon="5.81598">
        <ele>919</ele>
        <time>2022-07-16T05:54:17Z</time>
      </trkpt>
      <trkpt lat="44.93026" lon="5.81606">
        <ele>919.1</ele>
        <time>2022-07-16T05:54:18Z</time>
      </trkpt>
      <trkpt lat="44.93029" lon="5.81613">
        <ele>919.1</ele>
        <time>2022-07-16T05:54:19Z</time>
      </trkpt>
      <trkpt lat="44.93032" lon="5.81621">
        <ele>919.2</ele>
        <time>2022-07-16T05:54:20Z</time>
      </trkpt>
      <trkpt lat="44.93035" lon="5.81629">
        <ele>919.2</ele>
        <time>2022-07-16T05:54:21Z</time>
      </trkpt>
      <trkpt lat="44.93038" lon="5.81635">
        <ele>919.3</ele>
        <time>2022-07-16T05:54:22Z</time>
      </trkpt>
      <trkpt lat="44.93042" lon="5.81643">
        <ele>919.3</ele>
        <time>2022-07-16T05:54:23Z</time>
      </trkpt>
      <trkpt lat="44.93045" lon="5.8165">
        <ele>919.3</ele>
        <time>2022-07-16T05:54:24Z</time>
      </trkpt>
      <trkpt lat="44.93048" lon="5.81658">
        <ele>919.3</ele>
        <time>2022-07-16T05:54:25Z</time>
      </trkpt>
      <trkpt lat="44.93052" lon="5.81665">
        <ele>919.3</ele>
        <time>2022-07-16T05:54:26Z</time>
      </trkpt>
      <trkpt lat="44.93056" lon="5.81672">
        <ele>919.3</ele>
        <time>2022-07-16T05:54:27Z</time>
      </trkpt>
      <trkpt lat="44.9306" lon="5.81679">
        <ele>919.3</ele>
        <time>2022-07-16T05:54:28Z</time>
      </trkpt>
      <trkpt lat="44.93063" lon="5.81687">
        <ele>919.3</ele>
        <time>2022-07-16T05:54:29Z</time>
      </trkpt>
      <trkpt lat="44.93067" lon="5.81693">
        <ele>919.3</ele>
        <time>2022-07-16T05:54:30Z</time>
      </trkpt>
      <trkpt lat="44.93071" lon="5.817">
        <ele>919.3</ele>
        <time>2022-07-16T05:54:31Z</time>
      </trkpt>
      <trkpt lat="44.93075" lon="5.81706">
        <ele>919.3</ele>
        <time>2022-07-16T05:54:32Z</time>
      </trkpt>
      <trkpt lat="44.9308" lon="5.81713">
        <ele>919.3</ele>
        <time>2022-07-16T05:54:33Z</time>
      </trkpt>
      <trkpt lat="44.93083" lon="5.8172">
        <ele>919.4</ele>
        <time>2022-07-16T05:54:34Z</time>
      </trkpt>
      <trkpt lat="44.93087" lon="5.81728">
        <ele>919.4</ele>
        <time>2022-07-16T05:54:35Z</time>
      </trkpt>
      <trkpt lat="44.9309" lon="5.81735">
        <ele>919.4</ele>
        <time>2022-07-16T05:54:36Z</time>
      </trkpt>
      <trkpt lat="44.93093" lon="5.81742">
        <ele>919.4</ele>
        <time>2022-07-16T05:54:37Z</time>
      </trkpt>
      <trkpt lat="44.93096" lon="5.8175">
        <ele>919.4</ele>
        <time>2022-07-16T05:54:38Z</time>
      </trkpt>
      <trkpt lat="44.93099" lon="5.81757">
        <ele>919.4</ele>
        <time>2022-07-16T05:54:39Z</time>
      </trkpt>
      <trkpt lat="44.93102" lon="5.81765">
        <ele>919.4</ele>
        <time>2022-07-16T05:54:40Z</time>
      </trkpt>
      <trkpt lat="44.93105" lon="5.81773">
        <ele>919.4</ele>
        <time>2022-07-16T05:54:41Z</time>
      </trkpt>
      <trkpt lat="44.93108" lon="5.8178">
        <ele>919.4</ele>
        <time>2022-07-16T05:54:42Z</time>
      </trkpt>
      <trkpt lat="44.93111" lon="5.81788">
        <ele>919.4</ele>
        <time>2022-07-16T05:54:43Z</time>
      </trkpt>
      <trkpt lat="44.93114" lon="5.81796">
        <ele>919.5</ele>
        <time>2022-07-16T05:54:44Z</time>
      </trkpt>
      <trkpt lat="44.93116" lon="5.81801">
        <ele>919.5</ele>
        <time>2022-07-16T05:54:45Z</time>
      </trkpt>
      <trkpt lat="44.93119" lon="5.81808">
        <ele>919.5</ele>
        <time>2022-07-16T05:54:46Z</time>
      </trkpt>
      <trkpt lat="44.93123" lon="5.81816">
        <ele>919.6</ele>
        <time>2022-07-16T05:54:47Z</time>
      </trkpt>
      <trkpt lat="44.93126" lon="5.81823">
        <ele>919.6</ele>
        <time>2022-07-16T05:54:48Z</time>
      </trkpt>
      <trkpt lat="44.9313" lon="5.8183">
        <ele>919.6</ele>
        <time>2022-07-16T05:54:49Z</time>
      </trkpt>
      <trkpt lat="44.93134" lon="5.81837">
        <ele>919.7</ele>
        <time>2022-07-16T05:54:50Z</time>
      </trkpt>
      <trkpt lat="44.93136" lon="5.81844">
        <ele>919.7</ele>
        <time>2022-07-16T05:54:51Z</time>
      </trkpt>
      <trkpt lat="44.9314" lon="5.81852">
        <ele>919.8</ele>
        <time>2022-07-16T05:54:52Z</time>
      </trkpt>
      <trkpt lat="44.93143" lon="5.8186">
        <ele>919.8</ele>
        <time>2022-07-16T05:54:53Z</time>
      </trkpt>
      <trkpt lat="44.93147" lon="5.81868">
        <ele>919.9</ele>
        <time>2022-07-16T05:54:54Z</time>
      </trkpt>
      <trkpt lat="44.9315" lon="5.81875">
        <ele>919.9</ele>
        <time>2022-07-16T05:54:55Z</time>
      </trkpt>
      <trkpt lat="44.93154" lon="5.81881">
        <ele>920</ele>
        <time>2022-07-16T05:54:56Z</time>
      </trkpt>
      <trkpt lat="44.93158" lon="5.81886">
        <ele>920</ele>
        <time>2022-07-16T05:54:57Z</time>
      </trkpt>
      <trkpt lat="44.93162" lon="5.81893">
        <ele>920.1</ele>
        <time>2022-07-16T05:54:58Z</time>
      </trkpt>
      <trkpt lat="44.93165" lon="5.819">
        <ele>920.2</ele>
        <time>2022-07-16T05:54:59Z</time>
      </trkpt>
      <trkpt lat="44.93168" lon="5.81909">
        <ele>920.3</ele>
        <time>2022-07-16T05:55:00Z</time>
      </trkpt>
      <trkpt lat="44.93171" lon="5.81916">
        <ele>920.4</ele>
        <time>2022-07-16T05:55:01Z</time>
      </trkpt>
      <trkpt lat="44.93174" lon="5.81923">
        <ele>920.4</ele>
        <time>2022-07-16T05:55:02Z</time>
      </trkpt>
      <trkpt lat="44.93178" lon="5.8193">
        <ele>920.6</ele>
        <time>2022-07-16T05:55:03Z</time>
      </trkpt>
      <trkpt lat="44.93181" lon="5.81937">
        <ele>920.7</ele>
        <time>2022-07-16T05:55:04Z</time>
      </trkpt>
      <trkpt lat="44.93184" lon="5.81943">
        <ele>920.8</ele>
        <time>2022-07-16T05:55:05Z</time>
      </trkpt>
      <trkpt lat="44.93187" lon="5.81949">
        <ele>920.9</ele>
        <time>2022-07-16T05:55:06Z</time>
      </trkpt>
      <trkpt lat="44.93189" lon="5.81956">
        <ele>921</ele>
        <time>2022-07-16T05:55:07Z</time>
      </trkpt>
      <trkpt lat="44.93192" lon="5.81963">
        <ele>921.1</ele>
        <time>2022-07-16T05:55:08Z</time>
      </trkpt>
      <trkpt lat="44.93195" lon="5.81969">
        <ele>921.2</ele>
        <time>2022-07-16T05:55:09Z</time>
      </trkpt>
      <trkpt lat="44.93198" lon="5.81976">
        <ele>921.3</ele>
        <time>2022-07-16T05:55:10Z</time>
      </trkpt>
      <trkpt lat="44.93201" lon="5.81982">
        <ele>921.4</ele>
        <time>2022-07-16T05:55:11Z</time>
      </trkpt>
      <trkpt lat="44.93204" lon="5.81989">
        <ele>921.5</ele>
        <time>2022-07-16T05:55:12Z</time>
      </trkpt>
      <trkpt lat="44.93207" lon="5.81995">
        <ele>921.6</ele>
        <time>2022-07-16T05:55:13Z</time>
      </trkpt>
      <trkpt lat="44.93209" lon="5.82001">
        <ele>921.8</ele>
        <time>2022-07-16T05:55:14Z</time>
      </trkpt>
      <trkpt lat="44.93212" lon="5.82007">
        <ele>921.9</ele>
        <time>2022-07-16T05:55:15Z</time>
      </trkpt>
      <trkpt lat="44.93215" lon="5.82013">
        <ele>922.1</ele>
        <time>2022-07-16T05:55:16Z</time>
      </trkpt>
      <trkpt lat="44.93217" lon="5.8202">
        <ele>922.3</ele>
        <time>2022-07-16T05:55:17Z</time>
      </trkpt>
      <trkpt lat="44.93221" lon="5.82025">
        <ele>922.5</ele>
        <time>2022-07-16T05:55:18Z</time>
      </trkpt>
      <trkpt lat="44.93223" lon="5.82031">
        <ele>922.6</ele>
        <time>2022-07-16T05:55:19Z</time>
      </trkpt>
      <trkpt lat="44.93225" lon="5.82037">
        <ele>922.8</ele>
        <time>2022-07-16T05:55:20Z</time>
      </trkpt>
      <trkpt lat="44.93227" lon="5.82043">
        <ele>923</ele>
        <time>2022-07-16T05:55:21Z</time>
      </trkpt>
      <trkpt lat="44.9323" lon="5.82049">
        <ele>923.1</ele>
        <time>2022-07-16T05:55:22Z</time>
      </trkpt>
      <trkpt lat="44.93233" lon="5.82055">
        <ele>923.3</ele>
        <time>2022-07-16T05:55:23Z</time>
      </trkpt>
      <trkpt lat="44.93235" lon="5.8206">
        <ele>923.4</ele>
        <time>2022-07-16T05:55:24Z</time>
      </trkpt>
      <trkpt lat="44.93238" lon="5.82066">
        <ele>923.6</ele>
        <time>2022-07-16T05:55:25Z</time>
      </trkpt>
      <trkpt lat="44.9324" lon="5.8207">
        <ele>923.7</ele>
        <time>2022-07-16T05:55:26Z</time>
      </trkpt>
      <trkpt lat="44.93243" lon="5.82077">
        <ele>923.9</ele>
        <time>2022-07-16T05:55:27Z</time>
      </trkpt>
      <trkpt lat="44.93245" lon="5.8208">
        <ele>924</ele>
        <time>2022-07-16T05:55:28Z</time>
      </trkpt>
      <trkpt lat="44.93247" lon="5.82085">
        <ele>924.2</ele>
        <time>2022-07-16T05:55:29Z</time>
      </trkpt>
      <trkpt lat="44.9325" lon="5.8209">
        <ele>924.4</ele>
        <time>2022-07-16T05:55:30Z</time>
      </trkpt>
      <trkpt lat="44.93252" lon="5.82096">
        <ele>924.6</ele>
        <time>2022-07-16T05:55:31Z</time>
      </trkpt>
      <trkpt lat="44.93256" lon="5.82103">
        <ele>924.8</ele>
        <time>2022-07-16T05:55:32Z</time>
      </trkpt>
      <trkpt lat="44.93258" lon="5.8211">
        <ele>925</ele>
        <time>2022-07-16T05:55:33Z</time>
      </trkpt>
      <trkpt lat="44.9326" lon="5.82117">
        <ele>925.2</ele>
        <time>2022-07-16T05:55:34Z</time>
      </trkpt>
      <trkpt lat="44.93263" lon="5.82123">
        <ele>925.4</ele>
        <time>2022-07-16T05:55:35Z</time>
      </trkpt>
      <trkpt lat="44.93265" lon="5.82128">
        <ele>925.6</ele>
        <time>2022-07-16T05:55:36Z</time>
      </trkpt>
      <trkpt lat="44.93267" lon="5.82134">
        <ele>925.8</ele>
        <time>2022-07-16T05:55:37Z</time>
      </trkpt>
      <trkpt lat="44.93269" lon="5.82133">
        <ele>925.9</ele>
        <time>2022-07-16T05:55:38Z</time>
      </trkpt>
      <trkpt lat="44.93263" lon="5.82134">
        <ele>926.1</ele>
        <time>2022-07-16T05:55:40Z</time>
      </trkpt>
      <trkpt lat="44.93271" lon="5.82153">
        <ele>926.8</ele>
        <time>2022-07-16T05:55:41Z</time>
      </trkpt>
      <trkpt lat="44.93276" lon="5.82164">
        <ele>927.3</ele>
        <time>2022-07-16T05:55:42Z</time>
      </trkpt>
      <trkpt lat="44.93281" lon="5.82177">
        <ele>927.9</ele>
        <time>2022-07-16T05:55:44Z</time>
      </trkpt>
      <trkpt lat="44.93282" lon="5.82183">
        <ele>928.1</ele>
        <time>2022-07-16T05:55:45Z</time>
      </trkpt>
      <trkpt lat="44.93283" lon="5.82187">
        <ele>928.3</ele>
        <time>2022-07-16T05:55:46Z</time>
      </trkpt>
      <trkpt lat="44.93284" lon="5.82192">
        <ele>928.5</ele>
        <time>2022-07-16T05:55:47Z</time>
      </trkpt>
      <trkpt lat="44.93285" lon="5.82199">
        <ele>928.9</ele>
        <time>2022-07-16T05:55:48Z</time>
      </trkpt>
      <trkpt lat="44.93287" lon="5.82205">
        <ele>929.2</ele>
        <time>2022-07-16T05:55:49Z</time>
      </trkpt>
      <trkpt lat="44.9329" lon="5.82213">
        <ele>929.6</ele>
        <time>2022-07-16T05:55:50Z</time>
      </trkpt>
      <trkpt lat="44.93291" lon="5.82217">
        <ele>929.8</ele>
        <time>2022-07-16T05:55:52Z</time>
      </trkpt>
      <trkpt lat="44.93293" lon="5.82222">
        <ele>930</ele>
        <time>2022-07-16T05:55:53Z</time>
      </trkpt>
      <trkpt lat="44.93294" lon="5.82228">
        <ele>930.3</ele>
        <time>2022-07-16T05:55:54Z</time>
      </trkpt>
      <trkpt lat="44.93295" lon="5.82231">
        <ele>930.5</ele>
        <time>2022-07-16T05:55:55Z</time>
      </trkpt>
      <trkpt lat="44.93297" lon="5.82238">
        <ele>930.8</ele>
        <time>2022-07-16T05:55:57Z</time>
      </trkpt>
      <trkpt lat="44.93301" lon="5.82248">
        <ele>931.1</ele>
        <time>2022-07-16T05:55:59Z</time>
      </trkpt>
      <trkpt lat="44.93306" lon="5.82254">
        <ele>931.2</ele>
        <time>2022-07-16T05:56:01Z</time>
      </trkpt>
      <trkpt lat="44.93308" lon="5.82261">
        <ele>931.3</ele>
        <time>2022-07-16T05:56:03Z</time>
      </trkpt>
      <trkpt lat="44.93314" lon="5.82269">
        <ele>931.5</ele>
        <time>2022-07-16T05:56:05Z</time>
      </trkpt>
      <trkpt lat="44.93315" lon="5.82273">
        <ele>931.7</ele>
        <time>2022-07-16T05:56:06Z</time>
      </trkpt>
      <trkpt lat="44.93318" lon="5.82283">
        <ele>932.2</ele>
        <time>2022-07-16T05:56:08Z</time>
      </trkpt>
      <trkpt lat="44.9332" lon="5.82288">
        <ele>932.5</ele>
        <time>2022-07-16T05:56:09Z</time>
      </trkpt>
      <trkpt lat="44.93325" lon="5.82296">
        <ele>933.1</ele>
        <time>2022-07-16T05:56:11Z</time>
      </trkpt>
      <trkpt lat="44.93328" lon="5.82298">
        <ele>933.3</ele>
        <time>2022-07-16T05:56:12Z</time>
      </trkpt>
      <trkpt lat="44.93333" lon="5.82308">
        <ele>933.9</ele>
        <time>2022-07-16T05:56:14Z</time>
      </trkpt>
      <trkpt lat="44.93337" lon="5.82315">
        <ele>934.3</ele>
        <time>2022-07-16T05:56:16Z</time>
      </trkpt>
      <trkpt lat="44.9334" lon="5.82318">
        <ele>934.5</ele>
        <time>2022-07-16T05:56:17Z</time>
      </trkpt>
      <trkpt lat="44.93343" lon="5.82322">
        <ele>934.8</ele>
        <time>2022-07-16T05:56:18Z</time>
      </trkpt>
      <trkpt lat="44.93345" lon="5.82324">
        <ele>935</ele>
        <time>2022-07-16T05:56:20Z</time>
      </trkpt>
      <trkpt lat="44.93347" lon="5.82327">
        <ele>935.2</ele>
        <time>2022-07-16T05:56:21Z</time>
      </trkpt>
      <trkpt lat="44.93349" lon="5.82331">
        <ele>935.4</ele>
        <time>2022-07-16T05:56:22Z</time>
      </trkpt>
      <trkpt lat="44.93352" lon="5.82335">
        <ele>935.7</ele>
        <time>2022-07-16T05:56:23Z</time>
      </trkpt>
      <trkpt lat="44.93354" lon="5.82339">
        <ele>935.9</ele>
        <time>2022-07-16T05:56:25Z</time>
      </trkpt>
      <trkpt lat="44.93359" lon="5.82342">
        <ele>936.3</ele>
        <time>2022-07-16T05:56:27Z</time>
      </trkpt>
      <trkpt lat="44.93366" lon="5.82351">
        <ele>937</ele>
        <time>2022-07-16T05:56:30Z</time>
      </trkpt>
      <trkpt lat="44.9337" lon="5.82356">
        <ele>937.4</ele>
        <time>2022-07-16T05:56:31Z</time>
      </trkpt>
      <trkpt lat="44.93374" lon="5.82359">
        <ele>937.8</ele>
        <time>2022-07-16T05:56:33Z</time>
      </trkpt>
      <trkpt lat="44.93375" lon="5.8236">
        <ele>937.9</ele>
        <time>2022-07-16T05:56:34Z</time>
      </trkpt>
      <trkpt lat="44.93376" lon="5.82361">
        <ele>938</ele>
        <time>2022-07-16T05:56:35Z</time>
      </trkpt>
      <trkpt lat="44.93383" lon="5.82368">
        <ele>938.7</ele>
        <time>2022-07-16T05:56:38Z</time>
      </trkpt>
      <trkpt lat="44.93387" lon="5.82373">
        <ele>939.1</ele>
        <time>2022-07-16T05:56:40Z</time>
      </trkpt>
      <trkpt lat="44.9339" lon="5.82375">
        <ele>939.4</ele>
        <time>2022-07-16T05:56:41Z</time>
      </trkpt>
      <trkpt lat="44.93393" lon="5.82383">
        <ele>939.9</ele>
        <time>2022-07-16T05:56:43Z</time>
      </trkpt>
      <trkpt lat="44.93397" lon="5.82388">
        <ele>940.4</ele>
        <time>2022-07-16T05:56:45Z</time>
      </trkpt>
      <trkpt lat="44.93399" lon="5.8239">
        <ele>940.6</ele>
        <time>2022-07-16T05:56:46Z</time>
      </trkpt>
      <trkpt lat="44.93404" lon="5.82395">
        <ele>941.1</ele>
        <time>2022-07-16T05:56:49Z</time>
      </trkpt>
      <trkpt lat="44.93406" lon="5.82397">
        <ele>941.3</ele>
        <time>2022-07-16T05:56:50Z</time>
      </trkpt>
      <trkpt lat="44.93409" lon="5.82401">
        <ele>941.6</ele>
        <time>2022-07-16T05:56:51Z</time>
      </trkpt>
      <trkpt lat="44.93413" lon="5.82406">
        <ele>942.1</ele>
        <time>2022-07-16T05:56:54Z</time>
      </trkpt>
      <trkpt lat="44.93417" lon="5.8241">
        <ele>942.5</ele>
        <time>2022-07-16T05:56:55Z</time>
      </trkpt>
      <trkpt lat="44.93422" lon="5.82416">
        <ele>943</ele>
        <time>2022-07-16T05:56:57Z</time>
      </trkpt>
      <trkpt lat="44.93427" lon="5.82421">
        <ele>943.5</ele>
        <time>2022-07-16T05:56:59Z</time>
      </trkpt>
      <trkpt lat="44.93428" lon="5.82428">
        <ele>944</ele>
        <time>2022-07-16T05:57:01Z</time>
      </trkpt>
      <trkpt lat="44.9343" lon="5.82432">
        <ele>944.3</ele>
        <time>2022-07-16T05:57:02Z</time>
      </trkpt>
      <trkpt lat="44.93435" lon="5.8244">
        <ele>944.9</ele>
        <time>2022-07-16T05:57:04Z</time>
      </trkpt>
      <trkpt lat="44.93434" lon="5.82447">
        <ele>945.4</ele>
        <time>2022-07-16T05:57:05Z</time>
      </trkpt>
      <trkpt lat="44.93434" lon="5.82451">
        <ele>945.6</ele>
        <time>2022-07-16T05:57:06Z</time>
      </trkpt>
      <trkpt lat="44.93434" lon="5.82456">
        <ele>946</ele>
        <time>2022-07-16T05:57:07Z</time>
      </trkpt>
      <trkpt lat="44.93439" lon="5.82465">
        <ele>946.7</ele>
        <time>2022-07-16T05:57:10Z</time>
      </trkpt>
      <trkpt lat="44.93441" lon="5.82468">
        <ele>947</ele>
        <time>2022-07-16T05:57:11Z</time>
      </trkpt>
      <trkpt lat="44.93443" lon="5.82472">
        <ele>947.2</ele>
        <time>2022-07-16T05:57:13Z</time>
      </trkpt>
      <trkpt lat="44.93444" lon="5.82476">
        <ele>947.5</ele>
        <time>2022-07-16T05:57:14Z</time>
      </trkpt>
      <trkpt lat="44.93448" lon="5.82481">
        <ele>948.1</ele>
        <time>2022-07-16T05:57:16Z</time>
      </trkpt>
      <trkpt lat="44.93451" lon="5.82485">
        <ele>948.5</ele>
        <time>2022-07-16T05:57:17Z</time>
      </trkpt>
      <trkpt lat="44.93453" lon="5.82488">
        <ele>948.7</ele>
        <time>2022-07-16T05:57:19Z</time>
      </trkpt>
      <trkpt lat="44.93455" lon="5.82493">
        <ele>949</ele>
        <time>2022-07-16T05:57:20Z</time>
      </trkpt>
      <trkpt lat="44.93455" lon="5.82499">
        <ele>949.4</ele>
        <time>2022-07-16T05:57:21Z</time>
      </trkpt>
      <trkpt lat="44.93453" lon="5.82506">
        <ele>949.8</ele>
        <time>2022-07-16T05:57:23Z</time>
      </trkpt>
      <trkpt lat="44.93454" lon="5.82512">
        <ele>949.9</ele>
        <time>2022-07-16T05:57:24Z</time>
      </trkpt>
      <trkpt lat="44.93454" lon="5.82514">
        <ele>949.9</ele>
        <time>2022-07-16T05:57:25Z</time>
      </trkpt>
      <trkpt lat="44.93459" lon="5.82517">
        <ele>950</ele>
        <time>2022-07-16T05:57:26Z</time>
      </trkpt>
      <trkpt lat="44.9346" lon="5.82516">
        <ele>950</ele>
        <time>2022-07-16T05:57:27Z</time>
      </trkpt>
      <trkpt lat="44.93466" lon="5.82508">
        <ele>950.2</ele>
        <time>2022-07-16T05:57:29Z</time>
      </trkpt>
      <trkpt lat="44.93467" lon="5.82503">
        <ele>950.3</ele>
        <time>2022-07-16T05:57:30Z</time>
      </trkpt>
      <trkpt lat="44.93468" lon="5.82498">
        <ele>950.3</ele>
        <time>2022-07-16T05:57:32Z</time>
      </trkpt>
      <trkpt lat="44.9347" lon="5.82496">
        <ele>950.4</ele>
        <time>2022-07-16T05:57:33Z</time>
      </trkpt>
      <trkpt lat="44.93471" lon="5.82498">
        <ele>950.4</ele>
        <time>2022-07-16T05:57:36Z</time>
      </trkpt>
      <trkpt lat="44.9347" lon="5.82498">
        <ele>950.4</ele>
        <time>2022-07-16T05:57:37Z</time>
      </trkpt>
      <trkpt lat="44.9347" lon="5.82497">
        <ele>950.4</ele>
        <time>2022-07-16T05:57:38Z</time>
      </trkpt>
      <trkpt lat="44.9347" lon="5.82497">
        <ele>950.4</ele>
        <time>2022-07-16T05:57:39Z</time>
      </trkpt>
      <trkpt lat="44.9347" lon="5.82497">
        <ele>950.4</ele>
        <time>2022-07-16T05:57:40Z</time>
      </trkpt>
      <trkpt lat="44.9347" lon="5.82497">
        <ele>950.4</ele>
        <time>2022-07-16T05:57:41Z</time>
      </trkpt>
      <trkpt lat="44.9347" lon="5.82497">
        <ele>950.4</ele>
        <time>2022-07-16T05:57:42Z</time>
      </trkpt>
      <trkpt lat="44.9347" lon="5.82497">
        <ele>950.4</ele>
        <time>2022-07-16T05:57:43Z</time>
      </trkpt>
      <trkpt lat="44.93473" lon="5.82494">
        <ele>950.5</ele>
        <time>2022-07-16T05:59:40Z</time>
      </trkpt>
      <trkpt lat="44.93474" lon="5.82491">
        <ele>950.5</ele>
        <time>2022-07-16T05:59:42Z</time>
      </trkpt>
      <trkpt lat="44.93476" lon="5.82486">
        <ele>950.5</ele>
        <time>2022-07-16T05:59:43Z</time>
      </trkpt>
      <trkpt lat="44.93476" lon="5.82481">
        <ele>950.6</ele>
        <time>2022-07-16T05:59:44Z</time>
      </trkpt>
      <trkpt lat="44.93478" lon="5.82472">
        <ele>950.6</ele>
        <time>2022-07-16T05:59:45Z</time>
      </trkpt>
      <trkpt lat="44.9348" lon="5.82466">
        <ele>950.7</ele>
        <time>2022-07-16T05:59:47Z</time>
      </trkpt>
      <trkpt lat="44.93482" lon="5.82462">
        <ele>950.8</ele>
        <time>2022-07-16T05:59:48Z</time>
      </trkpt>
      <trkpt lat="44.93483" lon="5.82458">
        <ele>950.8</ele>
        <time>2022-07-16T05:59:49Z</time>
      </trkpt>
      <trkpt lat="44.93487" lon="5.82451">
        <ele>950.9</ele>
        <time>2022-07-16T05:59:51Z</time>
      </trkpt>
      <trkpt lat="44.93489" lon="5.82447">
        <ele>951</ele>
        <time>2022-07-16T05:59:52Z</time>
      </trkpt>
      <trkpt lat="44.9349" lon="5.82443">
        <ele>951.1</ele>
        <time>2022-07-16T05:59:53Z</time>
      </trkpt>
      <trkpt lat="44.93492" lon="5.82438">
        <ele>951.1</ele>
        <time>2022-07-16T05:59:54Z</time>
      </trkpt>
      <trkpt lat="44.93494" lon="5.82433">
        <ele>951.2</ele>
        <time>2022-07-16T05:59:55Z</time>
      </trkpt>
      <trkpt lat="44.93498" lon="5.82426">
        <ele>951.4</ele>
        <time>2022-07-16T05:59:57Z</time>
      </trkpt>
      <trkpt lat="44.93501" lon="5.82419">
        <ele>951.5</ele>
        <time>2022-07-16T05:59:58Z</time>
      </trkpt>
      <trkpt lat="44.93504" lon="5.82412">
        <ele>951.6</ele>
        <time>2022-07-16T05:59:59Z</time>
      </trkpt>
      <trkpt lat="44.93507" lon="5.82405">
        <ele>951.7</ele>
        <time>2022-07-16T06:00:01Z</time>
      </trkpt>
      <trkpt lat="44.93511" lon="5.82398">
        <ele>951.8</ele>
        <time>2022-07-16T06:00:02Z</time>
      </trkpt>
      <trkpt lat="44.93516" lon="5.82388">
        <ele>952</ele>
        <time>2022-07-16T06:00:04Z</time>
      </trkpt>
      <trkpt lat="44.93517" lon="5.82383">
        <ele>952.1</ele>
        <time>2022-07-16T06:00:05Z</time>
      </trkpt>
      <trkpt lat="44.9352" lon="5.82377">
        <ele>952.2</ele>
        <time>2022-07-16T06:00:06Z</time>
      </trkpt>
      <trkpt lat="44.93522" lon="5.82371">
        <ele>952.3</ele>
        <time>2022-07-16T06:00:07Z</time>
      </trkpt>
      <trkpt lat="44.93523" lon="5.82366">
        <ele>952.4</ele>
        <time>2022-07-16T06:00:08Z</time>
      </trkpt>
      <trkpt lat="44.93523" lon="5.82355">
        <ele>952.6</ele>
        <time>2022-07-16T06:00:10Z</time>
      </trkpt>
      <trkpt lat="44.93522" lon="5.82349">
        <ele>952.8</ele>
        <time>2022-07-16T06:00:11Z</time>
      </trkpt>
      <trkpt lat="44.93523" lon="5.82341">
        <ele>953</ele>
        <time>2022-07-16T06:00:12Z</time>
      </trkpt>
      <trkpt lat="44.93523" lon="5.82334">
        <ele>953.2</ele>
        <time>2022-07-16T06:00:13Z</time>
      </trkpt>
      <trkpt lat="44.93523" lon="5.82323">
        <ele>953.5</ele>
        <time>2022-07-16T06:00:15Z</time>
      </trkpt>
      <trkpt lat="44.93524" lon="5.82318">
        <ele>953.7</ele>
        <time>2022-07-16T06:00:16Z</time>
      </trkpt>
      <trkpt lat="44.93527" lon="5.82309">
        <ele>954.1</ele>
        <time>2022-07-16T06:00:18Z</time>
      </trkpt>
      <trkpt lat="44.93529" lon="5.82304">
        <ele>954.3</ele>
        <time>2022-07-16T06:00:19Z</time>
      </trkpt>
      <trkpt lat="44.93533" lon="5.82297">
        <ele>954.8</ele>
        <time>2022-07-16T06:00:21Z</time>
      </trkpt>
      <trkpt lat="44.93538" lon="5.82287">
        <ele>955.3</ele>
        <time>2022-07-16T06:00:23Z</time>
      </trkpt>
      <trkpt lat="44.93539" lon="5.82285">
        <ele>955.4</ele>
        <time>2022-07-16T06:00:24Z</time>
      </trkpt>
      <trkpt lat="44.93544" lon="5.8228">
        <ele>955.8</ele>
        <time>2022-07-16T06:00:26Z</time>
      </trkpt>
      <trkpt lat="44.93547" lon="5.82277">
        <ele>956.1</ele>
        <time>2022-07-16T06:00:27Z</time>
      </trkpt>
      <trkpt lat="44.93549" lon="5.82274">
        <ele>956.3</ele>
        <time>2022-07-16T06:00:28Z</time>
      </trkpt>
      <trkpt lat="44.93554" lon="5.82269">
        <ele>956.7</ele>
        <time>2022-07-16T06:00:29Z</time>
      </trkpt>
      <trkpt lat="44.93557" lon="5.82266">
        <ele>957</ele>
        <time>2022-07-16T06:00:31Z</time>
      </trkpt>
      <trkpt lat="44.93559" lon="5.82261">
        <ele>957.2</ele>
        <time>2022-07-16T06:00:32Z</time>
      </trkpt>
      <trkpt lat="44.93561" lon="5.82258">
        <ele>957.5</ele>
        <time>2022-07-16T06:00:33Z</time>
      </trkpt>
      <trkpt lat="44.93562" lon="5.82256">
        <ele>957.6</ele>
        <time>2022-07-16T06:00:34Z</time>
      </trkpt>
      <trkpt lat="44.93564" lon="5.82252">
        <ele>957.8</ele>
        <time>2022-07-16T06:00:35Z</time>
      </trkpt>
      <trkpt lat="44.93568" lon="5.82248">
        <ele>958.2</ele>
        <time>2022-07-16T06:00:36Z</time>
      </trkpt>
      <trkpt lat="44.93571" lon="5.82245">
        <ele>958.5</ele>
        <time>2022-07-16T06:00:37Z</time>
      </trkpt>
      <trkpt lat="44.93574" lon="5.82241">
        <ele>958.7</ele>
        <time>2022-07-16T06:00:39Z</time>
      </trkpt>
      <trkpt lat="44.93576" lon="5.82236">
        <ele>959</ele>
        <time>2022-07-16T06:00:40Z</time>
      </trkpt>
      <trkpt lat="44.93579" lon="5.82233">
        <ele>959.2</ele>
        <time>2022-07-16T06:00:41Z</time>
      </trkpt>
      <trkpt lat="44.9358" lon="5.82231">
        <ele>959.4</ele>
        <time>2022-07-16T06:00:42Z</time>
      </trkpt>
      <trkpt lat="44.93582" lon="5.82228">
        <ele>959.6</ele>
        <time>2022-07-16T06:00:43Z</time>
      </trkpt>
      <trkpt lat="44.93586" lon="5.82221">
        <ele>960</ele>
        <time>2022-07-16T06:00:45Z</time>
      </trkpt>
      <trkpt lat="44.93588" lon="5.82218">
        <ele>960.3</ele>
        <time>2022-07-16T06:00:46Z</time>
      </trkpt>
      <trkpt lat="44.9359" lon="5.82216">
        <ele>960.4</ele>
        <time>2022-07-16T06:00:47Z</time>
      </trkpt>
      <trkpt lat="44.93594" lon="5.82208">
        <ele>960.9</ele>
        <time>2022-07-16T06:00:49Z</time>
      </trkpt>
      <trkpt lat="44.93598" lon="5.82203">
        <ele>961.3</ele>
        <time>2022-07-16T06:00:51Z</time>
      </trkpt>
      <trkpt lat="44.936" lon="5.82199">
        <ele>961.6</ele>
        <time>2022-07-16T06:00:52Z</time>
      </trkpt>
      <trkpt lat="44.93602" lon="5.82195">
        <ele>961.9</ele>
        <time>2022-07-16T06:00:53Z</time>
      </trkpt>
      <trkpt lat="44.93605" lon="5.82188">
        <ele>962.3</ele>
        <time>2022-07-16T06:00:55Z</time>
      </trkpt>
      <trkpt lat="44.93606" lon="5.82183">
        <ele>962.5</ele>
        <time>2022-07-16T06:00:56Z</time>
      </trkpt>
      <trkpt lat="44.93607" lon="5.8218">
        <ele>962.7</ele>
        <time>2022-07-16T06:00:57Z</time>
      </trkpt>
      <trkpt lat="44.93609" lon="5.82173">
        <ele>963.1</ele>
        <time>2022-07-16T06:00:59Z</time>
      </trkpt>
      <trkpt lat="44.93611" lon="5.82169">
        <ele>963.4</ele>
        <time>2022-07-16T06:01:00Z</time>
      </trkpt>
      <trkpt lat="44.93613" lon="5.82162">
        <ele>963.7</ele>
        <time>2022-07-16T06:01:02Z</time>
      </trkpt>
      <trkpt lat="44.93616" lon="5.82157">
        <ele>964.1</ele>
        <time>2022-07-16T06:01:04Z</time>
      </trkpt>
      <trkpt lat="44.93616" lon="5.82152">
        <ele>964.3</ele>
        <time>2022-07-16T06:01:05Z</time>
      </trkpt>
      <trkpt lat="44.93621" lon="5.82141">
        <ele>965</ele>
        <time>2022-07-16T06:01:08Z</time>
      </trkpt>
      <trkpt lat="44.93623" lon="5.82133">
        <ele>965.4</ele>
        <time>2022-07-16T06:01:10Z</time>
      </trkpt>
      <trkpt lat="44.93624" lon="5.82127">
        <ele>965.7</ele>
        <time>2022-07-16T06:01:12Z</time>
      </trkpt>
      <trkpt lat="44.93626" lon="5.82122">
        <ele>966</ele>
        <time>2022-07-16T06:01:13Z</time>
      </trkpt>
      <trkpt lat="44.93627" lon="5.82117">
        <ele>966.3</ele>
        <time>2022-07-16T06:01:14Z</time>
      </trkpt>
      <trkpt lat="44.93628" lon="5.82115">
        <ele>966.4</ele>
        <time>2022-07-16T06:01:15Z</time>
      </trkpt>
      <trkpt lat="44.93629" lon="5.82108">
        <ele>966.8</ele>
        <time>2022-07-16T06:01:17Z</time>
      </trkpt>
      <trkpt lat="44.9363" lon="5.82104">
        <ele>967</ele>
        <time>2022-07-16T06:01:18Z</time>
      </trkpt>
      <trkpt lat="44.93631" lon="5.821">
        <ele>967.2</ele>
        <time>2022-07-16T06:01:19Z</time>
      </trkpt>
      <trkpt lat="44.93632" lon="5.82092">
        <ele>967.6</ele>
        <time>2022-07-16T06:01:21Z</time>
      </trkpt>
      <trkpt lat="44.93633" lon="5.82083">
        <ele>968.1</ele>
        <time>2022-07-16T06:01:22Z</time>
      </trkpt>
      <trkpt lat="44.93633" lon="5.82078">
        <ele>968.3</ele>
        <time>2022-07-16T06:01:24Z</time>
      </trkpt>
      <trkpt lat="44.93632" lon="5.82074">
        <ele>968.5</ele>
        <time>2022-07-16T06:01:25Z</time>
      </trkpt>
      <trkpt lat="44.93632" lon="5.82071">
        <ele>968.7</ele>
        <time>2022-07-16T06:01:26Z</time>
      </trkpt>
      <trkpt lat="44.93633" lon="5.82064">
        <ele>969</ele>
        <time>2022-07-16T06:01:28Z</time>
      </trkpt>
      <trkpt lat="44.93633" lon="5.82058">
        <ele>969.4</ele>
        <time>2022-07-16T06:01:29Z</time>
      </trkpt>
      <trkpt lat="44.93633" lon="5.82055">
        <ele>969.5</ele>
        <time>2022-07-16T06:01:30Z</time>
      </trkpt>
      <trkpt lat="44.93635" lon="5.82048">
        <ele>969.9</ele>
        <time>2022-07-16T06:01:31Z</time>
      </trkpt>
      <trkpt lat="44.93636" lon="5.82043">
        <ele>970.2</ele>
        <time>2022-07-16T06:01:33Z</time>
      </trkpt>
      <trkpt lat="44.93637" lon="5.82041">
        <ele>970.3</ele>
        <time>2022-07-16T06:01:34Z</time>
      </trkpt>
      <trkpt lat="44.93638" lon="5.82032">
        <ele>970.8</ele>
        <time>2022-07-16T06:01:36Z</time>
      </trkpt>
      <trkpt lat="44.9364" lon="5.82025">
        <ele>971.2</ele>
        <time>2022-07-16T06:01:38Z</time>
      </trkpt>
      <trkpt lat="44.93643" lon="5.82017">
        <ele>971.6</ele>
        <time>2022-07-16T06:01:40Z</time>
      </trkpt>
      <trkpt lat="44.93646" lon="5.82009">
        <ele>972.1</ele>
        <time>2022-07-16T06:01:42Z</time>
      </trkpt>
      <trkpt lat="44.9365" lon="5.82001">
        <ele>972.6</ele>
        <time>2022-07-16T06:01:44Z</time>
      </trkpt>
      <trkpt lat="44.93654" lon="5.81996">
        <ele>973</ele>
        <time>2022-07-16T06:01:46Z</time>
      </trkpt>
      <trkpt lat="44.93657" lon="5.81991">
        <ele>973.3</ele>
        <time>2022-07-16T06:01:47Z</time>
      </trkpt>
      <trkpt lat="44.93659" lon="5.81987">
        <ele>973.6</ele>
        <time>2022-07-16T06:01:48Z</time>
      </trkpt>
      <trkpt lat="44.9366" lon="5.81986">
        <ele>973.7</ele>
        <time>2022-07-16T06:01:49Z</time>
      </trkpt>
      <trkpt lat="44.93663" lon="5.81982">
        <ele>974</ele>
        <time>2022-07-16T06:01:50Z</time>
      </trkpt>
      <trkpt lat="44.93668" lon="5.81979">
        <ele>974.4</ele>
        <time>2022-07-16T06:01:51Z</time>
      </trkpt>
      <trkpt lat="44.9367" lon="5.81976">
        <ele>974.6</ele>
        <time>2022-07-16T06:01:53Z</time>
      </trkpt>
      <trkpt lat="44.93672" lon="5.81974">
        <ele>974.9</ele>
        <time>2022-07-16T06:01:54Z</time>
      </trkpt>
      <trkpt lat="44.93675" lon="5.81972">
        <ele>975.1</ele>
        <time>2022-07-16T06:01:55Z</time>
      </trkpt>
      <trkpt lat="44.93679" lon="5.8197">
        <ele>975.3</ele>
        <time>2022-07-16T06:01:56Z</time>
      </trkpt>
      <trkpt lat="44.9368" lon="5.81968">
        <ele>975.5</ele>
        <time>2022-07-16T06:01:57Z</time>
      </trkpt>
      <trkpt lat="44.93683" lon="5.81966">
        <ele>975.7</ele>
        <time>2022-07-16T06:01:58Z</time>
      </trkpt>
      <trkpt lat="44.93686" lon="5.81964">
        <ele>976</ele>
        <time>2022-07-16T06:01:59Z</time>
      </trkpt>
      <trkpt lat="44.93692" lon="5.81962">
        <ele>976.4</ele>
        <time>2022-07-16T06:02:01Z</time>
      </trkpt>
      <trkpt lat="44.93695" lon="5.81959">
        <ele>976.7</ele>
        <time>2022-07-16T06:02:02Z</time>
      </trkpt>
      <trkpt lat="44.93697" lon="5.81958">
        <ele>976.8</ele>
        <time>2022-07-16T06:02:03Z</time>
      </trkpt>
      <trkpt lat="44.937" lon="5.81956">
        <ele>977.1</ele>
        <time>2022-07-16T06:02:04Z</time>
      </trkpt>
      <trkpt lat="44.93703" lon="5.81955">
        <ele>977.3</ele>
        <time>2022-07-16T06:02:05Z</time>
      </trkpt>
      <trkpt lat="44.93708" lon="5.81953">
        <ele>977.6</ele>
        <time>2022-07-16T06:02:06Z</time>
      </trkpt>
      <trkpt lat="44.93712" lon="5.81951">
        <ele>977.9</ele>
        <time>2022-07-16T06:02:08Z</time>
      </trkpt>
      <trkpt lat="44.93714" lon="5.81949">
        <ele>978.1</ele>
        <time>2022-07-16T06:02:09Z</time>
      </trkpt>
      <trkpt lat="44.93718" lon="5.81947">
        <ele>978.4</ele>
        <time>2022-07-16T06:02:10Z</time>
      </trkpt>
      <trkpt lat="44.9372" lon="5.81947">
        <ele>978.5</ele>
        <time>2022-07-16T06:02:11Z</time>
      </trkpt>
      <trkpt lat="44.93725" lon="5.81944">
        <ele>978.9</ele>
        <time>2022-07-16T06:02:13Z</time>
      </trkpt>
      <trkpt lat="44.93731" lon="5.81944">
        <ele>979.3</ele>
        <time>2022-07-16T06:02:15Z</time>
      </trkpt>
      <trkpt lat="44.93734" lon="5.81942">
        <ele>979.6</ele>
        <time>2022-07-16T06:02:16Z</time>
      </trkpt>
      <trkpt lat="44.93738" lon="5.8194">
        <ele>979.8</ele>
        <time>2022-07-16T06:02:17Z</time>
      </trkpt>
      <trkpt lat="44.93743" lon="5.81936">
        <ele>980.3</ele>
        <time>2022-07-16T06:02:19Z</time>
      </trkpt>
      <trkpt lat="44.93746" lon="5.81935">
        <ele>980.5</ele>
        <time>2022-07-16T06:02:20Z</time>
      </trkpt>
      <trkpt lat="44.93752" lon="5.81933">
        <ele>980.9</ele>
        <time>2022-07-16T06:02:22Z</time>
      </trkpt>
      <trkpt lat="44.93757" lon="5.81931">
        <ele>981.3</ele>
        <time>2022-07-16T06:02:24Z</time>
      </trkpt>
      <trkpt lat="44.93761" lon="5.81929">
        <ele>981.6</ele>
        <time>2022-07-16T06:02:25Z</time>
      </trkpt>
      <trkpt lat="44.93766" lon="5.81928">
        <ele>981.9</ele>
        <time>2022-07-16T06:02:27Z</time>
      </trkpt>
      <trkpt lat="44.93769" lon="5.81927">
        <ele>982.1</ele>
        <time>2022-07-16T06:02:28Z</time>
      </trkpt>
      <trkpt lat="44.93772" lon="5.81926">
        <ele>982.3</ele>
        <time>2022-07-16T06:02:29Z</time>
      </trkpt>
      <trkpt lat="44.93775" lon="5.81925">
        <ele>982.5</ele>
        <time>2022-07-16T06:02:30Z</time>
      </trkpt>
      <trkpt lat="44.93778" lon="5.81924">
        <ele>982.7</ele>
        <time>2022-07-16T06:02:31Z</time>
      </trkpt>
      <trkpt lat="44.93782" lon="5.81922">
        <ele>983</ele>
        <time>2022-07-16T06:02:32Z</time>
      </trkpt>
      <trkpt lat="44.93787" lon="5.8192">
        <ele>983.3</ele>
        <time>2022-07-16T06:02:34Z</time>
      </trkpt>
      <trkpt lat="44.9379" lon="5.81918">
        <ele>983.5</ele>
        <time>2022-07-16T06:02:35Z</time>
      </trkpt>
      <trkpt lat="44.93792" lon="5.81918">
        <ele>983.7</ele>
        <time>2022-07-16T06:02:36Z</time>
      </trkpt>
      <trkpt lat="44.93796" lon="5.81918">
        <ele>983.9</ele>
        <time>2022-07-16T06:02:37Z</time>
      </trkpt>
      <trkpt lat="44.938" lon="5.81917">
        <ele>984.1</ele>
        <time>2022-07-16T06:02:38Z</time>
      </trkpt>
      <trkpt lat="44.93802" lon="5.81916">
        <ele>984.3</ele>
        <time>2022-07-16T06:02:39Z</time>
      </trkpt>
      <trkpt lat="44.93808" lon="5.81915">
        <ele>984.6</ele>
        <time>2022-07-16T06:02:40Z</time>
      </trkpt>
      <trkpt lat="44.93811" lon="5.81914">
        <ele>984.8</ele>
        <time>2022-07-16T06:02:42Z</time>
      </trkpt>
      <trkpt lat="44.93815" lon="5.81913">
        <ele>985</ele>
        <time>2022-07-16T06:02:43Z</time>
      </trkpt>
      <trkpt lat="44.93821" lon="5.81911">
        <ele>985.5</ele>
        <time>2022-07-16T06:02:45Z</time>
      </trkpt>
      <trkpt lat="44.93827" lon="5.81909">
        <ele>985.8</ele>
        <time>2022-07-16T06:02:47Z</time>
      </trkpt>
      <trkpt lat="44.9383" lon="5.81909">
        <ele>986</ele>
        <time>2022-07-16T06:02:48Z</time>
      </trkpt>
      <trkpt lat="44.93833" lon="5.81908">
        <ele>986.2</ele>
        <time>2022-07-16T06:02:49Z</time>
      </trkpt>
      <trkpt lat="44.93838" lon="5.81907">
        <ele>986.5</ele>
        <time>2022-07-16T06:02:51Z</time>
      </trkpt>
      <trkpt lat="44.93841" lon="5.81905">
        <ele>986.7</ele>
        <time>2022-07-16T06:02:52Z</time>
      </trkpt>
      <trkpt lat="44.93845" lon="5.81903">
        <ele>987</ele>
        <time>2022-07-16T06:02:53Z</time>
      </trkpt>
      <trkpt lat="44.93852" lon="5.81902">
        <ele>987.4</ele>
        <time>2022-07-16T06:02:55Z</time>
      </trkpt>
      <trkpt lat="44.93855" lon="5.81901">
        <ele>987.6</ele>
        <time>2022-07-16T06:02:56Z</time>
      </trkpt>
      <trkpt lat="44.93857" lon="5.819">
        <ele>987.7</ele>
        <time>2022-07-16T06:02:57Z</time>
      </trkpt>
      <trkpt lat="44.93864" lon="5.81897">
        <ele>988.2</ele>
        <time>2022-07-16T06:02:59Z</time>
      </trkpt>
      <trkpt lat="44.93869" lon="5.81896">
        <ele>988.6</ele>
        <time>2022-07-16T06:03:01Z</time>
      </trkpt>
      <trkpt lat="44.93873" lon="5.81895">
        <ele>988.8</ele>
        <time>2022-07-16T06:03:02Z</time>
      </trkpt>
      <trkpt lat="44.93878" lon="5.81892">
        <ele>989.1</ele>
        <time>2022-07-16T06:03:04Z</time>
      </trkpt>
      <trkpt lat="44.93881" lon="5.8189">
        <ele>989.3</ele>
        <time>2022-07-16T06:03:05Z</time>
      </trkpt>
      <trkpt lat="44.93886" lon="5.81886">
        <ele>989.7</ele>
        <time>2022-07-16T06:03:07Z</time>
      </trkpt>
      <trkpt lat="44.9389" lon="5.81884">
        <ele>990</ele>
        <time>2022-07-16T06:03:08Z</time>
      </trkpt>
      <trkpt lat="44.93895" lon="5.81882">
        <ele>990.3</ele>
        <time>2022-07-16T06:03:10Z</time>
      </trkpt>
      <trkpt lat="44.93899" lon="5.8188">
        <ele>990.6</ele>
        <time>2022-07-16T06:03:11Z</time>
      </trkpt>
      <trkpt lat="44.93904" lon="5.81879">
        <ele>990.8</ele>
        <time>2022-07-16T06:03:13Z</time>
      </trkpt>
      <trkpt lat="44.93908" lon="5.81876">
        <ele>991.1</ele>
        <time>2022-07-16T06:03:14Z</time>
      </trkpt>
      <trkpt lat="44.93911" lon="5.81873">
        <ele>991.3</ele>
        <time>2022-07-16T06:03:15Z</time>
      </trkpt>
      <trkpt lat="44.93912" lon="5.81872">
        <ele>991.4</ele>
        <time>2022-07-16T06:03:16Z</time>
      </trkpt>
      <trkpt lat="44.93915" lon="5.81871">
        <ele>991.6</ele>
        <time>2022-07-16T06:03:17Z</time>
      </trkpt>
      <trkpt lat="44.93921" lon="5.81868">
        <ele>992</ele>
        <time>2022-07-16T06:03:18Z</time>
      </trkpt>
      <trkpt lat="44.93925" lon="5.81866">
        <ele>992.2</ele>
        <time>2022-07-16T06:03:20Z</time>
      </trkpt>
      <trkpt lat="44.93928" lon="5.81865">
        <ele>992.4</ele>
        <time>2022-07-16T06:03:22Z</time>
      </trkpt>
      <trkpt lat="44.93931" lon="5.81863">
        <ele>992.6</ele>
        <time>2022-07-16T06:03:23Z</time>
      </trkpt>
      <trkpt lat="44.93935" lon="5.8186">
        <ele>992.8</ele>
        <time>2022-07-16T06:03:24Z</time>
      </trkpt>
      <trkpt lat="44.93938" lon="5.81859">
        <ele>993.1</ele>
        <time>2022-07-16T06:03:25Z</time>
      </trkpt>
      <trkpt lat="44.93941" lon="5.81856">
        <ele>993.3</ele>
        <time>2022-07-16T06:03:26Z</time>
      </trkpt>
      <trkpt lat="44.93944" lon="5.81854">
        <ele>993.5</ele>
        <time>2022-07-16T06:03:27Z</time>
      </trkpt>
      <trkpt lat="44.93949" lon="5.81851">
        <ele>993.9</ele>
        <time>2022-07-16T06:03:28Z</time>
      </trkpt>
      <trkpt lat="44.93952" lon="5.81847">
        <ele>994.1</ele>
        <time>2022-07-16T06:03:30Z</time>
      </trkpt>
      <trkpt lat="44.93955" lon="5.81845">
        <ele>994.3</ele>
        <time>2022-07-16T06:03:31Z</time>
      </trkpt>
      <trkpt lat="44.93959" lon="5.81843">
        <ele>994.5</ele>
        <time>2022-07-16T06:03:32Z</time>
      </trkpt>
      <trkpt lat="44.93964" lon="5.8184">
        <ele>994.8</ele>
        <time>2022-07-16T06:03:34Z</time>
      </trkpt>
      <trkpt lat="44.93967" lon="5.81837">
        <ele>995</ele>
        <time>2022-07-16T06:03:35Z</time>
      </trkpt>
      <trkpt lat="44.93972" lon="5.81836">
        <ele>995.3</ele>
        <time>2022-07-16T06:03:36Z</time>
      </trkpt>
      <trkpt lat="44.93977" lon="5.81832">
        <ele>995.5</ele>
        <time>2022-07-16T06:03:38Z</time>
      </trkpt>
      <trkpt lat="44.93981" lon="5.81829">
        <ele>995.7</ele>
        <time>2022-07-16T06:03:40Z</time>
      </trkpt>
      <trkpt lat="44.93986" lon="5.81827">
        <ele>996</ele>
        <time>2022-07-16T06:03:41Z</time>
      </trkpt>
      <trkpt lat="44.9399" lon="5.81823">
        <ele>996.2</ele>
        <time>2022-07-16T06:03:42Z</time>
      </trkpt>
      <trkpt lat="44.93996" lon="5.8182">
        <ele>996.5</ele>
        <time>2022-07-16T06:03:44Z</time>
      </trkpt>
      <trkpt lat="44.93999" lon="5.81819">
        <ele>996.6</ele>
        <time>2022-07-16T06:03:45Z</time>
      </trkpt>
      <trkpt lat="44.94004" lon="5.81817">
        <ele>996.8</ele>
        <time>2022-07-16T06:03:46Z</time>
      </trkpt>
      <trkpt lat="44.94008" lon="5.81816">
        <ele>997</ele>
        <time>2022-07-16T06:03:47Z</time>
      </trkpt>
      <trkpt lat="44.9401" lon="5.81815">
        <ele>997.1</ele>
        <time>2022-07-16T06:03:48Z</time>
      </trkpt>
      <trkpt lat="44.94015" lon="5.81811">
        <ele>997.3</ele>
        <time>2022-07-16T06:03:50Z</time>
      </trkpt>
      <trkpt lat="44.94021" lon="5.81807">
        <ele>997.5</ele>
        <time>2022-07-16T06:03:52Z</time>
      </trkpt>
      <trkpt lat="44.94025" lon="5.81804">
        <ele>997.7</ele>
        <time>2022-07-16T06:03:53Z</time>
      </trkpt>
      <trkpt lat="44.94028" lon="5.818">
        <ele>997.9</ele>
        <time>2022-07-16T06:03:54Z</time>
      </trkpt>
      <trkpt lat="44.94035" lon="5.81794">
        <ele>998.2</ele>
        <time>2022-07-16T06:03:56Z</time>
      </trkpt>
      <trkpt lat="44.94041" lon="5.81787">
        <ele>998.5</ele>
        <time>2022-07-16T06:03:58Z</time>
      </trkpt>
      <trkpt lat="44.94043" lon="5.81783">
        <ele>998.6</ele>
        <time>2022-07-16T06:03:59Z</time>
      </trkpt>
      <trkpt lat="44.94047" lon="5.81779">
        <ele>998.8</ele>
        <time>2022-07-16T06:04:00Z</time>
      </trkpt>
      <trkpt lat="44.94051" lon="5.81776">
        <ele>999</ele>
        <time>2022-07-16T06:04:01Z</time>
      </trkpt>
      <trkpt lat="44.94057" lon="5.8177">
        <ele>999.2</ele>
        <time>2022-07-16T06:04:03Z</time>
      </trkpt>
      <trkpt lat="44.94062" lon="5.81766">
        <ele>999.4</ele>
        <time>2022-07-16T06:04:04Z</time>
      </trkpt>
      <trkpt lat="44.94068" lon="5.81759">
        <ele>999.7</ele>
        <time>2022-07-16T06:04:05Z</time>
      </trkpt>
      <trkpt lat="44.9407" lon="5.81755">
        <ele>999.9</ele>
        <time>2022-07-16T06:04:06Z</time>
      </trkpt>
      <trkpt lat="44.94073" lon="5.81751">
        <ele>1000</ele>
        <time>2022-07-16T06:04:08Z</time>
      </trkpt>
      <trkpt lat="44.94077" lon="5.81746">
        <ele>1000.2</ele>
        <time>2022-07-16T06:04:09Z</time>
      </trkpt>
      <trkpt lat="44.94081" lon="5.81742">
        <ele>1000.4</ele>
        <time>2022-07-16T06:04:10Z</time>
      </trkpt>
      <trkpt lat="44.94082" lon="5.81741">
        <ele>1000.5</ele>
        <time>2022-07-16T06:04:11Z</time>
      </trkpt>
      <trkpt lat="44.94088" lon="5.81733">
        <ele>1000.8</ele>
        <time>2022-07-16T06:04:12Z</time>
      </trkpt>
      <trkpt lat="44.94091" lon="5.81729">
        <ele>1001</ele>
        <time>2022-07-16T06:04:14Z</time>
      </trkpt>
      <trkpt lat="44.94095" lon="5.81725">
        <ele>1001.1</ele>
        <time>2022-07-16T06:04:15Z</time>
      </trkpt>
      <trkpt lat="44.94099" lon="5.81719">
        <ele>1001.4</ele>
        <time>2022-07-16T06:04:17Z</time>
      </trkpt>
      <trkpt lat="44.94103" lon="5.81715">
        <ele>1001.6</ele>
        <time>2022-07-16T06:04:18Z</time>
      </trkpt>
      <trkpt lat="44.94108" lon="5.81709">
        <ele>1001.8</ele>
        <time>2022-07-16T06:04:19Z</time>
      </trkpt>
      <trkpt lat="44.94114" lon="5.81703">
        <ele>1002.1</ele>
        <time>2022-07-16T06:04:21Z</time>
      </trkpt>
      <trkpt lat="44.94116" lon="5.81699">
        <ele>1002.2</ele>
        <time>2022-07-16T06:04:22Z</time>
      </trkpt>
      <trkpt lat="44.9412" lon="5.81695">
        <ele>1002.4</ele>
        <time>2022-07-16T06:04:23Z</time>
      </trkpt>
      <trkpt lat="44.94125" lon="5.81688">
        <ele>1002.7</ele>
        <time>2022-07-16T06:04:25Z</time>
      </trkpt>
      <trkpt lat="44.94129" lon="5.81682">
        <ele>1002.9</ele>
        <time>2022-07-16T06:04:26Z</time>
      </trkpt>
      <trkpt lat="44.94136" lon="5.81675">
        <ele>1003.2</ele>
        <time>2022-07-16T06:04:28Z</time>
      </trkpt>
      <trkpt lat="44.9414" lon="5.8167">
        <ele>1003.4</ele>
        <time>2022-07-16T06:04:29Z</time>
      </trkpt>
      <trkpt lat="44.94142" lon="5.81666">
        <ele>1003.5</ele>
        <time>2022-07-16T06:04:30Z</time>
      </trkpt>
      <trkpt lat="44.9415" lon="5.81657">
        <ele>1003.9</ele>
        <time>2022-07-16T06:04:32Z</time>
      </trkpt>
      <trkpt lat="44.94153" lon="5.81653">
        <ele>1004</ele>
        <time>2022-07-16T06:04:33Z</time>
      </trkpt>
      <trkpt lat="44.94156" lon="5.8165">
        <ele>1004.2</ele>
        <time>2022-07-16T06:04:34Z</time>
      </trkpt>
      <trkpt lat="44.94168" lon="5.8164">
        <ele>1004.7</ele>
        <time>2022-07-16T06:04:36Z</time>
      </trkpt>
      <trkpt lat="44.94166" lon="5.81644">
        <ele>1004.8</ele>
        <time>2022-07-16T06:04:37Z</time>
      </trkpt>
      <trkpt lat="44.94173" lon="5.8163">
        <ele>1005.2</ele>
        <time>2022-07-16T06:04:39Z</time>
      </trkpt>
      <trkpt lat="44.9418" lon="5.81614">
        <ele>1005.4</ele>
        <time>2022-07-16T06:04:42Z</time>
      </trkpt>
      <trkpt lat="44.94182" lon="5.81609">
        <ele>1005.4</ele>
        <time>2022-07-16T06:04:43Z</time>
      </trkpt>
      <trkpt lat="44.94184" lon="5.81603">
        <ele>1005.5</ele>
        <time>2022-07-16T06:04:44Z</time>
      </trkpt>
      <trkpt lat="44.94186" lon="5.81598">
        <ele>1005.5</ele>
        <time>2022-07-16T06:04:45Z</time>
      </trkpt>
      <trkpt lat="44.94189" lon="5.81592">
        <ele>1005.6</ele>
        <time>2022-07-16T06:04:46Z</time>
      </trkpt>
      <trkpt lat="44.94192" lon="5.81588">
        <ele>1005.6</ele>
        <time>2022-07-16T06:04:47Z</time>
      </trkpt>
      <trkpt lat="44.94196" lon="5.81583">
        <ele>1005.7</ele>
        <time>2022-07-16T06:04:48Z</time>
      </trkpt>
      <trkpt lat="44.94199" lon="5.81577">
        <ele>1005.7</ele>
        <time>2022-07-16T06:04:49Z</time>
      </trkpt>
      <trkpt lat="44.94202" lon="5.81571">
        <ele>1005.8</ele>
        <time>2022-07-16T06:04:50Z</time>
      </trkpt>
      <trkpt lat="44.94205" lon="5.81567">
        <ele>1005.8</ele>
        <time>2022-07-16T06:04:51Z</time>
      </trkpt>
      <trkpt lat="44.94209" lon="5.81562">
        <ele>1005.9</ele>
        <time>2022-07-16T06:04:52Z</time>
      </trkpt>
      <trkpt lat="44.94212" lon="5.81557">
        <ele>1005.9</ele>
        <time>2022-07-16T06:04:53Z</time>
      </trkpt>
      <trkpt lat="44.94216" lon="5.81551">
        <ele>1005.9</ele>
        <time>2022-07-16T06:04:54Z</time>
      </trkpt>
      <trkpt lat="44.94219" lon="5.81546">
        <ele>1006</ele>
        <time>2022-07-16T06:04:55Z</time>
      </trkpt>
      <trkpt lat="44.94223" lon="5.81541">
        <ele>1006.1</ele>
        <time>2022-07-16T06:04:56Z</time>
      </trkpt>
      <trkpt lat="44.94227" lon="5.81536">
        <ele>1006.1</ele>
        <time>2022-07-16T06:04:57Z</time>
      </trkpt>
      <trkpt lat="44.94232" lon="5.81532">
        <ele>1006.2</ele>
        <time>2022-07-16T06:04:58Z</time>
      </trkpt>
      <trkpt lat="44.94236" lon="5.81527">
        <ele>1006.4</ele>
        <time>2022-07-16T06:04:59Z</time>
      </trkpt>
      <trkpt lat="44.94239" lon="5.81522">
        <ele>1006.5</ele>
        <time>2022-07-16T06:05:00Z</time>
      </trkpt>
      <trkpt lat="44.94242" lon="5.81517">
        <ele>1006.6</ele>
        <time>2022-07-16T06:05:01Z</time>
      </trkpt>
      <trkpt lat="44.94246" lon="5.81512">
        <ele>1006.8</ele>
        <time>2022-07-16T06:05:02Z</time>
      </trkpt>
      <trkpt lat="44.94249" lon="5.81508">
        <ele>1007</ele>
        <time>2022-07-16T06:05:03Z</time>
      </trkpt>
      <trkpt lat="44.94253" lon="5.81505">
        <ele>1007.1</ele>
        <time>2022-07-16T06:05:04Z</time>
      </trkpt>
      <trkpt lat="44.94255" lon="5.81502">
        <ele>1007.2</ele>
        <time>2022-07-16T06:05:05Z</time>
      </trkpt>
      <trkpt lat="44.94259" lon="5.81496">
        <ele>1007.4</ele>
        <time>2022-07-16T06:05:06Z</time>
      </trkpt>
      <trkpt lat="44.94261" lon="5.81493">
        <ele>1007.5</ele>
        <time>2022-07-16T06:05:07Z</time>
      </trkpt>
      <trkpt lat="44.94265" lon="5.81489">
        <ele>1007.5</ele>
        <time>2022-07-16T06:05:08Z</time>
      </trkpt>
      <trkpt lat="44.94268" lon="5.81484">
        <ele>1007.6</ele>
        <time>2022-07-16T06:05:09Z</time>
      </trkpt>
      <trkpt lat="44.94271" lon="5.81478">
        <ele>1007.6</ele>
        <time>2022-07-16T06:05:10Z</time>
      </trkpt>
      <trkpt lat="44.94275" lon="5.81472">
        <ele>1007.6</ele>
        <time>2022-07-16T06:05:11Z</time>
      </trkpt>
      <trkpt lat="44.94278" lon="5.81466">
        <ele>1007.6</ele>
        <time>2022-07-16T06:05:12Z</time>
      </trkpt>
      <trkpt lat="44.94281" lon="5.81461">
        <ele>1007.5</ele>
        <time>2022-07-16T06:05:13Z</time>
      </trkpt>
      <trkpt lat="44.94284" lon="5.81455">
        <ele>1007.5</ele>
        <time>2022-07-16T06:05:14Z</time>
      </trkpt>
      <trkpt lat="44.94287" lon="5.81448">
        <ele>1007.4</ele>
        <time>2022-07-16T06:05:15Z</time>
      </trkpt>
      <trkpt lat="44.94291" lon="5.81441">
        <ele>1007.3</ele>
        <time>2022-07-16T06:05:16Z</time>
      </trkpt>
      <trkpt lat="44.94294" lon="5.81435">
        <ele>1007.2</ele>
        <time>2022-07-16T06:05:17Z</time>
      </trkpt>
      <trkpt lat="44.94297" lon="5.81428">
        <ele>1007.1</ele>
        <time>2022-07-16T06:05:18Z</time>
      </trkpt>
      <trkpt lat="44.94301" lon="5.81421">
        <ele>1007</ele>
        <time>2022-07-16T06:05:19Z</time>
      </trkpt>
      <trkpt lat="44.94304" lon="5.81414">
        <ele>1006.9</ele>
        <time>2022-07-16T06:05:20Z</time>
      </trkpt>
      <trkpt lat="44.94308" lon="5.81407">
        <ele>1006.8</ele>
        <time>2022-07-16T06:05:21Z</time>
      </trkpt>
      <trkpt lat="44.94312" lon="5.814">
        <ele>1006.7</ele>
        <time>2022-07-16T06:05:22Z</time>
      </trkpt>
      <trkpt lat="44.94315" lon="5.81393">
        <ele>1006.6</ele>
        <time>2022-07-16T06:05:23Z</time>
      </trkpt>
      <trkpt lat="44.94319" lon="5.81387">
        <ele>1006.6</ele>
        <time>2022-07-16T06:05:24Z</time>
      </trkpt>
      <trkpt lat="44.94323" lon="5.81381">
        <ele>1006.6</ele>
        <time>2022-07-16T06:05:25Z</time>
      </trkpt>
      <trkpt lat="44.94327" lon="5.81375">
        <ele>1006.6</ele>
        <time>2022-07-16T06:05:26Z</time>
      </trkpt>
      <trkpt lat="44.94331" lon="5.81367">
        <ele>1006.4</ele>
        <time>2022-07-16T06:05:27Z</time>
      </trkpt>
      <trkpt lat="44.94335" lon="5.8136">
        <ele>1006.3</ele>
        <time>2022-07-16T06:05:28Z</time>
      </trkpt>
      <trkpt lat="44.9434" lon="5.81352">
        <ele>1006.1</ele>
        <time>2022-07-16T06:05:29Z</time>
      </trkpt>
      <trkpt lat="44.94344" lon="5.81345">
        <ele>1005.9</ele>
        <time>2022-07-16T06:05:30Z</time>
      </trkpt>
      <trkpt lat="44.94349" lon="5.81337">
        <ele>1005.8</ele>
        <time>2022-07-16T06:05:31Z</time>
      </trkpt>
      <trkpt lat="44.94353" lon="5.8133">
        <ele>1005.6</ele>
        <time>2022-07-16T06:05:32Z</time>
      </trkpt>
      <trkpt lat="44.94358" lon="5.81323">
        <ele>1005.4</ele>
        <time>2022-07-16T06:05:33Z</time>
      </trkpt>
      <trkpt lat="44.94363" lon="5.81316">
        <ele>1005.2</ele>
        <time>2022-07-16T06:05:34Z</time>
      </trkpt>
      <trkpt lat="44.94369" lon="5.81309">
        <ele>1005.1</ele>
        <time>2022-07-16T06:05:35Z</time>
      </trkpt>
      <trkpt lat="44.94375" lon="5.81302">
        <ele>1004.9</ele>
        <time>2022-07-16T06:05:36Z</time>
      </trkpt>
      <trkpt lat="44.94381" lon="5.81296">
        <ele>1004.8</ele>
        <time>2022-07-16T06:05:37Z</time>
      </trkpt>
      <trkpt lat="44.94388" lon="5.8129">
        <ele>1004.7</ele>
        <time>2022-07-16T06:05:38Z</time>
      </trkpt>
      <trkpt lat="44.94394" lon="5.81284">
        <ele>1004.6</ele>
        <time>2022-07-16T06:05:39Z</time>
      </trkpt>
      <trkpt lat="44.94401" lon="5.81279">
        <ele>1004.5</ele>
        <time>2022-07-16T06:05:40Z</time>
      </trkpt>
      <trkpt lat="44.94408" lon="5.81275">
        <ele>1004.4</ele>
        <time>2022-07-16T06:05:41Z</time>
      </trkpt>
      <trkpt lat="44.94415" lon="5.81271">
        <ele>1004.3</ele>
        <time>2022-07-16T06:05:42Z</time>
      </trkpt>
      <trkpt lat="44.94422" lon="5.81268">
        <ele>1004.3</ele>
        <time>2022-07-16T06:05:43Z</time>
      </trkpt>
      <trkpt lat="44.94429" lon="5.81265">
        <ele>1004.3</ele>
        <time>2022-07-16T06:05:44Z</time>
      </trkpt>
      <trkpt lat="44.94437" lon="5.81262">
        <ele>1004.2</ele>
        <time>2022-07-16T06:05:45Z</time>
      </trkpt>
      <trkpt lat="44.94444" lon="5.8126">
        <ele>1004.3</ele>
        <time>2022-07-16T06:05:46Z</time>
      </trkpt>
      <trkpt lat="44.94451" lon="5.81258">
        <ele>1004.3</ele>
        <time>2022-07-16T06:05:47Z</time>
      </trkpt>
      <trkpt lat="44.94458" lon="5.81255">
        <ele>1004.4</ele>
        <time>2022-07-16T06:05:48Z</time>
      </trkpt>
      <trkpt lat="44.94465" lon="5.81253">
        <ele>1004.5</ele>
        <time>2022-07-16T06:05:49Z</time>
      </trkpt>
      <trkpt lat="44.94472" lon="5.8125">
        <ele>1004.6</ele>
        <time>2022-07-16T06:05:50Z</time>
      </trkpt>
      <trkpt lat="44.94479" lon="5.81248">
        <ele>1004.6</ele>
        <time>2022-07-16T06:05:51Z</time>
      </trkpt>
      <trkpt lat="44.94486" lon="5.81245">
        <ele>1004.7</ele>
        <time>2022-07-16T06:05:52Z</time>
      </trkpt>
      <trkpt lat="44.94492" lon="5.81243">
        <ele>1004.7</ele>
        <time>2022-07-16T06:05:53Z</time>
      </trkpt>
      <trkpt lat="44.94499" lon="5.8124">
        <ele>1004.8</ele>
        <time>2022-07-16T06:05:54Z</time>
      </trkpt>
      <trkpt lat="44.94505" lon="5.81237">
        <ele>1004.8</ele>
        <time>2022-07-16T06:05:55Z</time>
      </trkpt>
      <trkpt lat="44.94512" lon="5.81234">
        <ele>1004.9</ele>
        <time>2022-07-16T06:05:56Z</time>
      </trkpt>
      <trkpt lat="44.94518" lon="5.81231">
        <ele>1005</ele>
        <time>2022-07-16T06:05:57Z</time>
      </trkpt>
      <trkpt lat="44.94524" lon="5.81228">
        <ele>1005.2</ele>
        <time>2022-07-16T06:05:58Z</time>
      </trkpt>
      <trkpt lat="44.9453" lon="5.81226">
        <ele>1005.3</ele>
        <time>2022-07-16T06:05:59Z</time>
      </trkpt>
      <trkpt lat="44.94536" lon="5.81223">
        <ele>1005.5</ele>
        <time>2022-07-16T06:06:00Z</time>
      </trkpt>
      <trkpt lat="44.94542" lon="5.81221">
        <ele>1005.6</ele>
        <time>2022-07-16T06:06:01Z</time>
      </trkpt>
      <trkpt lat="44.94548" lon="5.81219">
        <ele>1005.8</ele>
        <time>2022-07-16T06:06:02Z</time>
      </trkpt>
      <trkpt lat="44.94554" lon="5.81217">
        <ele>1005.9</ele>
        <time>2022-07-16T06:06:03Z</time>
      </trkpt>
      <trkpt lat="44.9456" lon="5.81216">
        <ele>1006.1</ele>
        <time>2022-07-16T06:06:04Z</time>
      </trkpt>
      <trkpt lat="44.94566" lon="5.81213">
        <ele>1006.2</ele>
        <time>2022-07-16T06:06:05Z</time>
      </trkpt>
      <trkpt lat="44.94572" lon="5.81211">
        <ele>1006.4</ele>
        <time>2022-07-16T06:06:06Z</time>
      </trkpt>
      <trkpt lat="44.94577" lon="5.81208">
        <ele>1006.5</ele>
        <time>2022-07-16T06:06:07Z</time>
      </trkpt>
      <trkpt lat="44.94583" lon="5.81205">
        <ele>1006.7</ele>
        <time>2022-07-16T06:06:08Z</time>
      </trkpt>
      <trkpt lat="44.94589" lon="5.81203">
        <ele>1006.8</ele>
        <time>2022-07-16T06:06:09Z</time>
      </trkpt>
      <trkpt lat="44.94594" lon="5.812">
        <ele>1007</ele>
        <time>2022-07-16T06:06:10Z</time>
      </trkpt>
      <trkpt lat="44.94599" lon="5.81197">
        <ele>1007.1</ele>
        <time>2022-07-16T06:06:11Z</time>
      </trkpt>
      <trkpt lat="44.94604" lon="5.81194">
        <ele>1007.2</ele>
        <time>2022-07-16T06:06:12Z</time>
      </trkpt>
      <trkpt lat="44.9461" lon="5.81191">
        <ele>1007.4</ele>
        <time>2022-07-16T06:06:13Z</time>
      </trkpt>
      <trkpt lat="44.94615" lon="5.81188">
        <ele>1007.5</ele>
        <time>2022-07-16T06:06:14Z</time>
      </trkpt>
      <trkpt lat="44.94621" lon="5.81185">
        <ele>1007.7</ele>
        <time>2022-07-16T06:06:15Z</time>
      </trkpt>
      <trkpt lat="44.94625" lon="5.81183">
        <ele>1007.8</ele>
        <time>2022-07-16T06:06:16Z</time>
      </trkpt>
      <trkpt lat="44.94631" lon="5.8118">
        <ele>1008</ele>
        <time>2022-07-16T06:06:17Z</time>
      </trkpt>
      <trkpt lat="44.94636" lon="5.81178">
        <ele>1008.1</ele>
        <time>2022-07-16T06:06:18Z</time>
      </trkpt>
      <trkpt lat="44.94641" lon="5.81175">
        <ele>1008.3</ele>
        <time>2022-07-16T06:06:19Z</time>
      </trkpt>
      <trkpt lat="44.94646" lon="5.81173">
        <ele>1008.4</ele>
        <time>2022-07-16T06:06:20Z</time>
      </trkpt>
      <trkpt lat="44.94651" lon="5.8117">
        <ele>1008.6</ele>
        <time>2022-07-16T06:06:21Z</time>
      </trkpt>
      <trkpt lat="44.94656" lon="5.81168">
        <ele>1008.7</ele>
        <time>2022-07-16T06:06:22Z</time>
      </trkpt>
      <trkpt lat="44.9466" lon="5.81166">
        <ele>1008.9</ele>
        <time>2022-07-16T06:06:23Z</time>
      </trkpt>
      <trkpt lat="44.94665" lon="5.81164">
        <ele>1009</ele>
        <time>2022-07-16T06:06:24Z</time>
      </trkpt>
      <trkpt lat="44.9467" lon="5.81161">
        <ele>1009.2</ele>
        <time>2022-07-16T06:06:25Z</time>
      </trkpt>
      <trkpt lat="44.94675" lon="5.81159">
        <ele>1009.4</ele>
        <time>2022-07-16T06:06:26Z</time>
      </trkpt>
      <trkpt lat="44.9468" lon="5.81157">
        <ele>1009.5</ele>
        <time>2022-07-16T06:06:27Z</time>
      </trkpt>
      <trkpt lat="44.94685" lon="5.81155">
        <ele>1009.7</ele>
        <time>2022-07-16T06:06:28Z</time>
      </trkpt>
      <trkpt lat="44.9469" lon="5.81153">
        <ele>1009.9</ele>
        <time>2022-07-16T06:06:29Z</time>
      </trkpt>
      <trkpt lat="44.94695" lon="5.8115">
        <ele>1010</ele>
        <time>2022-07-16T06:06:30Z</time>
      </trkpt>
      <trkpt lat="44.94699" lon="5.81148">
        <ele>1010.2</ele>
        <time>2022-07-16T06:06:31Z</time>
      </trkpt>
      <trkpt lat="44.94704" lon="5.81145">
        <ele>1010.3</ele>
        <time>2022-07-16T06:06:32Z</time>
      </trkpt>
      <trkpt lat="44.94709" lon="5.81143">
        <ele>1010.5</ele>
        <time>2022-07-16T06:06:33Z</time>
      </trkpt>
      <trkpt lat="44.94713" lon="5.8114">
        <ele>1010.7</ele>
        <time>2022-07-16T06:06:34Z</time>
      </trkpt>
      <trkpt lat="44.94717" lon="5.81137">
        <ele>1010.8</ele>
        <time>2022-07-16T06:06:35Z</time>
      </trkpt>
      <trkpt lat="44.94722" lon="5.81134">
        <ele>1011</ele>
        <time>2022-07-16T06:06:36Z</time>
      </trkpt>
      <trkpt lat="44.94726" lon="5.81131">
        <ele>1011.1</ele>
        <time>2022-07-16T06:06:37Z</time>
      </trkpt>
      <trkpt lat="44.94731" lon="5.81129">
        <ele>1011.3</ele>
        <time>2022-07-16T06:06:38Z</time>
      </trkpt>
      <trkpt lat="44.94735" lon="5.81126">
        <ele>1011.5</ele>
        <time>2022-07-16T06:06:39Z</time>
      </trkpt>
      <trkpt lat="44.9474" lon="5.81124">
        <ele>1011.6</ele>
        <time>2022-07-16T06:06:40Z</time>
      </trkpt>
      <trkpt lat="44.94745" lon="5.81121">
        <ele>1011.8</ele>
        <time>2022-07-16T06:06:41Z</time>
      </trkpt>
      <trkpt lat="44.9475" lon="5.81119">
        <ele>1012</ele>
        <time>2022-07-16T06:06:42Z</time>
      </trkpt>
      <trkpt lat="44.94755" lon="5.81116">
        <ele>1012.1</ele>
        <time>2022-07-16T06:06:43Z</time>
      </trkpt>
      <trkpt lat="44.94759" lon="5.81113">
        <ele>1012.3</ele>
        <time>2022-07-16T06:06:44Z</time>
      </trkpt>
      <trkpt lat="44.94763" lon="5.81111">
        <ele>1012.4</ele>
        <time>2022-07-16T06:06:45Z</time>
      </trkpt>
      <trkpt lat="44.94767" lon="5.81108">
        <ele>1012.6</ele>
        <time>2022-07-16T06:06:46Z</time>
      </trkpt>
      <trkpt lat="44.94772" lon="5.81106">
        <ele>1012.7</ele>
        <time>2022-07-16T06:06:47Z</time>
      </trkpt>
      <trkpt lat="44.94777" lon="5.81104">
        <ele>1012.8</ele>
        <time>2022-07-16T06:06:48Z</time>
      </trkpt>
      <trkpt lat="44.94782" lon="5.81102">
        <ele>1013</ele>
        <time>2022-07-16T06:06:49Z</time>
      </trkpt>
      <trkpt lat="44.94787" lon="5.81099">
        <ele>1013.1</ele>
        <time>2022-07-16T06:06:50Z</time>
      </trkpt>
      <trkpt lat="44.94791" lon="5.81097">
        <ele>1013.2</ele>
        <time>2022-07-16T06:06:51Z</time>
      </trkpt>
      <trkpt lat="44.94796" lon="5.81094">
        <ele>1013.3</ele>
        <time>2022-07-16T06:06:52Z</time>
      </trkpt>
      <trkpt lat="44.94801" lon="5.81092">
        <ele>1013.4</ele>
        <time>2022-07-16T06:06:53Z</time>
      </trkpt>
      <trkpt lat="44.94806" lon="5.8109">
        <ele>1013.4</ele>
        <time>2022-07-16T06:06:54Z</time>
      </trkpt>
      <trkpt lat="44.9481" lon="5.81088">
        <ele>1013.5</ele>
        <time>2022-07-16T06:06:55Z</time>
      </trkpt>
      <trkpt lat="44.94815" lon="5.81086">
        <ele>1013.6</ele>
        <time>2022-07-16T06:06:56Z</time>
      </trkpt>
      <trkpt lat="44.9482" lon="5.81084">
        <ele>1013.6</ele>
        <time>2022-07-16T06:06:57Z</time>
      </trkpt>
      <trkpt lat="44.94825" lon="5.81081">
        <ele>1013.7</ele>
        <time>2022-07-16T06:06:58Z</time>
      </trkpt>
      <trkpt lat="44.9483" lon="5.81079">
        <ele>1013.7</ele>
        <time>2022-07-16T06:06:59Z</time>
      </trkpt>
      <trkpt lat="44.94836" lon="5.81077">
        <ele>1013.8</ele>
        <time>2022-07-16T06:07:00Z</time>
      </trkpt>
      <trkpt lat="44.94841" lon="5.81074">
        <ele>1013.8</ele>
        <time>2022-07-16T06:07:01Z</time>
      </trkpt>
      <trkpt lat="44.94847" lon="5.81072">
        <ele>1013.8</ele>
        <time>2022-07-16T06:07:02Z</time>
      </trkpt>
      <trkpt lat="44.94852" lon="5.8107">
        <ele>1013.9</ele>
        <time>2022-07-16T06:07:03Z</time>
      </trkpt>
      <trkpt lat="44.94857" lon="5.81068">
        <ele>1013.9</ele>
        <time>2022-07-16T06:07:04Z</time>
      </trkpt>
      <trkpt lat="44.94863" lon="5.81066">
        <ele>1013.9</ele>
        <time>2022-07-16T06:07:05Z</time>
      </trkpt>
      <trkpt lat="44.94868" lon="5.81064">
        <ele>1013.9</ele>
        <time>2022-07-16T06:07:06Z</time>
      </trkpt>
      <trkpt lat="44.94873" lon="5.81062">
        <ele>1014</ele>
        <time>2022-07-16T06:07:07Z</time>
      </trkpt>
      <trkpt lat="44.94878" lon="5.8106">
        <ele>1014</ele>
        <time>2022-07-16T06:07:08Z</time>
      </trkpt>
      <trkpt lat="44.94883" lon="5.81058">
        <ele>1014</ele>
        <time>2022-07-16T06:07:09Z</time>
      </trkpt>
      <trkpt lat="44.94889" lon="5.81056">
        <ele>1014</ele>
        <time>2022-07-16T06:07:10Z</time>
      </trkpt>
      <trkpt lat="44.94894" lon="5.81055">
        <ele>1014</ele>
        <time>2022-07-16T06:07:11Z</time>
      </trkpt>
      <trkpt lat="44.94899" lon="5.81053">
        <ele>1014.1</ele>
        <time>2022-07-16T06:07:12Z</time>
      </trkpt>
      <trkpt lat="44.94905" lon="5.81051">
        <ele>1014.1</ele>
        <time>2022-07-16T06:07:13Z</time>
      </trkpt>
      <trkpt lat="44.9491" lon="5.8105">
        <ele>1014.2</ele>
        <time>2022-07-16T06:07:14Z</time>
      </trkpt>
      <trkpt lat="44.94916" lon="5.81049">
        <ele>1014.3</ele>
        <time>2022-07-16T06:07:15Z</time>
      </trkpt>
      <trkpt lat="44.94921" lon="5.81048">
        <ele>1014.3</ele>
        <time>2022-07-16T06:07:16Z</time>
      </trkpt>
      <trkpt lat="44.94927" lon="5.81047">
        <ele>1014.4</ele>
        <time>2022-07-16T06:07:17Z</time>
      </trkpt>
      <trkpt lat="44.94932" lon="5.81046">
        <ele>1014.4</ele>
        <time>2022-07-16T06:07:18Z</time>
      </trkpt>
      <trkpt lat="44.94937" lon="5.81045">
        <ele>1014.5</ele>
        <time>2022-07-16T06:07:19Z</time>
      </trkpt>
      <trkpt lat="44.94942" lon="5.81044">
        <ele>1014.6</ele>
        <time>2022-07-16T06:07:20Z</time>
      </trkpt>
      <trkpt lat="44.94947" lon="5.81043">
        <ele>1014.6</ele>
        <time>2022-07-16T06:07:21Z</time>
      </trkpt>
      <trkpt lat="44.94952" lon="5.81042">
        <ele>1014.7</ele>
        <time>2022-07-16T06:07:22Z</time>
      </trkpt>
      <trkpt lat="44.94957" lon="5.81041">
        <ele>1014.8</ele>
        <time>2022-07-16T06:07:23Z</time>
      </trkpt>
      <trkpt lat="44.94961" lon="5.81041">
        <ele>1014.8</ele>
        <time>2022-07-16T06:07:24Z</time>
      </trkpt>
      <trkpt lat="44.94966" lon="5.8104">
        <ele>1014.9</ele>
        <time>2022-07-16T06:07:25Z</time>
      </trkpt>
      <trkpt lat="44.94971" lon="5.8104">
        <ele>1015</ele>
        <time>2022-07-16T06:07:26Z</time>
      </trkpt>
      <trkpt lat="44.94976" lon="5.81039">
        <ele>1015.1</ele>
        <time>2022-07-16T06:07:27Z</time>
      </trkpt>
      <trkpt lat="44.94981" lon="5.81039">
        <ele>1015.2</ele>
        <time>2022-07-16T06:07:28Z</time>
      </trkpt>
      <trkpt lat="44.94987" lon="5.81038">
        <ele>1015.3</ele>
        <time>2022-07-16T06:07:29Z</time>
      </trkpt>
      <trkpt lat="44.94991" lon="5.81038">
        <ele>1015.4</ele>
        <time>2022-07-16T06:07:30Z</time>
      </trkpt>
      <trkpt lat="44.94996" lon="5.81037">
        <ele>1015.5</ele>
        <time>2022-07-16T06:07:31Z</time>
      </trkpt>
      <trkpt lat="44.95001" lon="5.81037">
        <ele>1015.6</ele>
        <time>2022-07-16T06:07:32Z</time>
      </trkpt>
      <trkpt lat="44.95006" lon="5.81037">
        <ele>1015.8</ele>
        <time>2022-07-16T06:07:33Z</time>
      </trkpt>
      <trkpt lat="44.95011" lon="5.81037">
        <ele>1015.9</ele>
        <time>2022-07-16T06:07:34Z</time>
      </trkpt>
      <trkpt lat="44.95015" lon="5.81038">
        <ele>1016</ele>
        <time>2022-07-16T06:07:35Z</time>
      </trkpt>
      <trkpt lat="44.9502" lon="5.81038">
        <ele>1016.1</ele>
        <time>2022-07-16T06:07:36Z</time>
      </trkpt>
      <trkpt lat="44.95025" lon="5.81039">
        <ele>1016.3</ele>
        <time>2022-07-16T06:07:37Z</time>
      </trkpt>
      <trkpt lat="44.9503" lon="5.81039">
        <ele>1016.4</ele>
        <time>2022-07-16T06:07:38Z</time>
      </trkpt>
      <trkpt lat="44.95034" lon="5.8104">
        <ele>1016.6</ele>
        <time>2022-07-16T06:07:39Z</time>
      </trkpt>
      <trkpt lat="44.95039" lon="5.8104">
        <ele>1016.7</ele>
        <time>2022-07-16T06:07:40Z</time>
      </trkpt>
      <trkpt lat="44.95044" lon="5.81041">
        <ele>1016.9</ele>
        <time>2022-07-16T06:07:41Z</time>
      </trkpt>
      <trkpt lat="44.95048" lon="5.81041">
        <ele>1017</ele>
        <time>2022-07-16T06:07:42Z</time>
      </trkpt>
      <trkpt lat="44.95052" lon="5.81041">
        <ele>1017.1</ele>
        <time>2022-07-16T06:07:43Z</time>
      </trkpt>
      <trkpt lat="44.95057" lon="5.81041">
        <ele>1017.3</ele>
        <time>2022-07-16T06:07:44Z</time>
      </trkpt>
      <trkpt lat="44.95059" lon="5.81041">
        <ele>1017.4</ele>
        <time>2022-07-16T06:07:45Z</time>
      </trkpt>
      <trkpt lat="44.95063" lon="5.81041">
        <ele>1017.5</ele>
        <time>2022-07-16T06:07:46Z</time>
      </trkpt>
      <trkpt lat="44.95068" lon="5.81041">
        <ele>1017.7</ele>
        <time>2022-07-16T06:07:47Z</time>
      </trkpt>
      <trkpt lat="44.95072" lon="5.81041">
        <ele>1017.8</ele>
        <time>2022-07-16T06:07:48Z</time>
      </trkpt>
      <trkpt lat="44.95078" lon="5.8104">
        <ele>1018</ele>
        <time>2022-07-16T06:07:49Z</time>
      </trkpt>
      <trkpt lat="44.95078" lon="5.81041">
        <ele>1018.1</ele>
        <time>2022-07-16T06:07:50Z</time>
      </trkpt>
      <trkpt lat="44.95096" lon="5.81034">
        <ele>1018.6</ele>
        <time>2022-07-16T06:07:53Z</time>
      </trkpt>
      <trkpt lat="44.951" lon="5.81032">
        <ele>1018.7</ele>
        <time>2022-07-16T06:07:54Z</time>
      </trkpt>
      <trkpt lat="44.95105" lon="5.8103">
        <ele>1018.9</ele>
        <time>2022-07-16T06:07:55Z</time>
      </trkpt>
      <trkpt lat="44.95109" lon="5.81026">
        <ele>1019</ele>
        <time>2022-07-16T06:07:56Z</time>
      </trkpt>
      <trkpt lat="44.95118" lon="5.8102">
        <ele>1019.3</ele>
        <time>2022-07-16T06:07:57Z</time>
      </trkpt>
      <trkpt lat="44.95121" lon="5.81015">
        <ele>1019.5</ele>
        <time>2022-07-16T06:07:59Z</time>
      </trkpt>
      <trkpt lat="44.95125" lon="5.81013">
        <ele>1019.6</ele>
        <time>2022-07-16T06:08:00Z</time>
      </trkpt>
      <trkpt lat="44.9513" lon="5.8101">
        <ele>1019.7</ele>
        <time>2022-07-16T06:08:01Z</time>
      </trkpt>
      <trkpt lat="44.95149" lon="5.81001">
        <ele>1020.3</ele>
        <time>2022-07-16T06:08:04Z</time>
      </trkpt>
      <trkpt lat="44.95148" lon="5.8101">
        <ele>1020.4</ele>
        <time>2022-07-16T06:08:06Z</time>
      </trkpt>
      <trkpt lat="44.95156" lon="5.81002">
        <ele>1020.7</ele>
        <time>2022-07-16T06:08:07Z</time>
      </trkpt>
      <trkpt lat="44.95171" lon="5.80994">
        <ele>1021.1</ele>
        <time>2022-07-16T06:08:09Z</time>
      </trkpt>
      <trkpt lat="44.95167" lon="5.8099">
        <ele>1021.2</ele>
        <time>2022-07-16T06:08:11Z</time>
      </trkpt>
      <trkpt lat="44.95177" lon="5.8099">
        <ele>1021.6</ele>
        <time>2022-07-16T06:08:12Z</time>
      </trkpt>
      <trkpt lat="44.95188" lon="5.80989">
        <ele>1022</ele>
        <time>2022-07-16T06:08:13Z</time>
      </trkpt>
      <trkpt lat="44.95192" lon="5.80988">
        <ele>1022.2</ele>
        <time>2022-07-16T06:08:15Z</time>
      </trkpt>
      <trkpt lat="44.952" lon="5.80986">
        <ele>1022.6</ele>
        <time>2022-07-16T06:08:16Z</time>
      </trkpt>
      <trkpt lat="44.95206" lon="5.80984">
        <ele>1022.8</ele>
        <time>2022-07-16T06:08:18Z</time>
      </trkpt>
      <trkpt lat="44.95211" lon="5.80983">
        <ele>1023.1</ele>
        <time>2022-07-16T06:08:19Z</time>
      </trkpt>
      <trkpt lat="44.95218" lon="5.80983">
        <ele>1023.3</ele>
        <time>2022-07-16T06:08:20Z</time>
      </trkpt>
      <trkpt lat="44.95225" lon="5.80981">
        <ele>1023.6</ele>
        <time>2022-07-16T06:08:22Z</time>
      </trkpt>
      <trkpt lat="44.95229" lon="5.80983">
        <ele>1023.7</ele>
        <time>2022-07-16T06:08:23Z</time>
      </trkpt>
      <trkpt lat="44.95236" lon="5.80983">
        <ele>1024</ele>
        <time>2022-07-16T06:08:24Z</time>
      </trkpt>
      <trkpt lat="44.9524" lon="5.80984">
        <ele>1024.2</ele>
        <time>2022-07-16T06:08:26Z</time>
      </trkpt>
      <trkpt lat="44.95246" lon="5.80984">
        <ele>1024.4</ele>
        <time>2022-07-16T06:08:27Z</time>
      </trkpt>
      <trkpt lat="44.95249" lon="5.80983">
        <ele>1024.5</ele>
        <time>2022-07-16T06:08:28Z</time>
      </trkpt>
      <trkpt lat="44.95253" lon="5.80982">
        <ele>1024.6</ele>
        <time>2022-07-16T06:08:29Z</time>
      </trkpt>
      <trkpt lat="44.9526" lon="5.80981">
        <ele>1024.9</ele>
        <time>2022-07-16T06:08:31Z</time>
      </trkpt>
      <trkpt lat="44.95265" lon="5.8098">
        <ele>1025.1</ele>
        <time>2022-07-16T06:08:32Z</time>
      </trkpt>
      <trkpt lat="44.9527" lon="5.8098">
        <ele>1025.2</ele>
        <time>2022-07-16T06:08:33Z</time>
      </trkpt>
      <trkpt lat="44.95274" lon="5.80981">
        <ele>1025.3</ele>
        <time>2022-07-16T06:08:34Z</time>
      </trkpt>
      <trkpt lat="44.95285" lon="5.80978">
        <ele>1025.7</ele>
        <time>2022-07-16T06:08:36Z</time>
      </trkpt>
      <trkpt lat="44.95291" lon="5.80976">
        <ele>1025.9</ele>
        <time>2022-07-16T06:08:37Z</time>
      </trkpt>
      <trkpt lat="44.95295" lon="5.80975">
        <ele>1026.1</ele>
        <time>2022-07-16T06:08:39Z</time>
      </trkpt>
      <trkpt lat="44.953" lon="5.80974">
        <ele>1026.2</ele>
        <time>2022-07-16T06:08:40Z</time>
      </trkpt>
      <trkpt lat="44.95305" lon="5.80974">
        <ele>1026.3</ele>
        <time>2022-07-16T06:08:41Z</time>
      </trkpt>
      <trkpt lat="44.95309" lon="5.80973">
        <ele>1026.4</ele>
        <time>2022-07-16T06:08:42Z</time>
      </trkpt>
      <trkpt lat="44.95317" lon="5.80973">
        <ele>1026.5</ele>
        <time>2022-07-16T06:08:43Z</time>
      </trkpt>
      <trkpt lat="44.95332" lon="5.8097">
        <ele>1026.6</ele>
        <time>2022-07-16T06:08:46Z</time>
      </trkpt>
      <trkpt lat="44.95336" lon="5.80976">
        <ele>1026.6</ele>
        <time>2022-07-16T06:08:48Z</time>
      </trkpt>
      <trkpt lat="44.95343" lon="5.80972">
        <ele>1026.6</ele>
        <time>2022-07-16T06:08:50Z</time>
      </trkpt>
      <trkpt lat="44.95348" lon="5.80972">
        <ele>1026.6</ele>
        <time>2022-07-16T06:08:51Z</time>
      </trkpt>
      <trkpt lat="44.95353" lon="5.80972">
        <ele>1026.6</ele>
        <time>2022-07-16T06:08:52Z</time>
      </trkpt>
      <trkpt lat="44.95359" lon="5.80972">
        <ele>1026.6</ele>
        <time>2022-07-16T06:08:53Z</time>
      </trkpt>
      <trkpt lat="44.95365" lon="5.80973">
        <ele>1026.6</ele>
        <time>2022-07-16T06:08:54Z</time>
      </trkpt>
      <trkpt lat="44.9537" lon="5.80974">
        <ele>1026.6</ele>
        <time>2022-07-16T06:08:55Z</time>
      </trkpt>
      <trkpt lat="44.95375" lon="5.80975">
        <ele>1026.6</ele>
        <time>2022-07-16T06:08:56Z</time>
      </trkpt>
      <trkpt lat="44.9538" lon="5.80978">
        <ele>1026.6</ele>
        <time>2022-07-16T06:08:57Z</time>
      </trkpt>
      <trkpt lat="44.95385" lon="5.8098">
        <ele>1026.6</ele>
        <time>2022-07-16T06:08:58Z</time>
      </trkpt>
      <trkpt lat="44.9539" lon="5.80982">
        <ele>1026.6</ele>
        <time>2022-07-16T06:08:59Z</time>
      </trkpt>
      <trkpt lat="44.95395" lon="5.80985">
        <ele>1026.6</ele>
        <time>2022-07-16T06:09:00Z</time>
      </trkpt>
      <trkpt lat="44.954" lon="5.80988">
        <ele>1026.6</ele>
        <time>2022-07-16T06:09:01Z</time>
      </trkpt>
      <trkpt lat="44.95405" lon="5.8099">
        <ele>1026.6</ele>
        <time>2022-07-16T06:09:02Z</time>
      </trkpt>
      <trkpt lat="44.9541" lon="5.80992">
        <ele>1026.5</ele>
        <time>2022-07-16T06:09:03Z</time>
      </trkpt>
      <trkpt lat="44.95415" lon="5.80993">
        <ele>1026.5</ele>
        <time>2022-07-16T06:09:04Z</time>
      </trkpt>
      <trkpt lat="44.95421" lon="5.80992">
        <ele>1026.4</ele>
        <time>2022-07-16T06:09:05Z</time>
      </trkpt>
      <trkpt lat="44.95426" lon="5.80987">
        <ele>1026.3</ele>
        <time>2022-07-16T06:09:06Z</time>
      </trkpt>
      <trkpt lat="44.9543" lon="5.80981">
        <ele>1026.3</ele>
        <time>2022-07-16T06:09:07Z</time>
      </trkpt>
      <trkpt lat="44.95434" lon="5.80974">
        <ele>1026.3</ele>
        <time>2022-07-16T06:09:08Z</time>
      </trkpt>
      <trkpt lat="44.95436" lon="5.80965">
        <ele>1026.3</ele>
        <time>2022-07-16T06:09:09Z</time>
      </trkpt>
      <trkpt lat="44.95436" lon="5.80957">
        <ele>1026.3</ele>
        <time>2022-07-16T06:09:10Z</time>
      </trkpt>
      <trkpt lat="44.95436" lon="5.80949">
        <ele>1026.3</ele>
        <time>2022-07-16T06:09:11Z</time>
      </trkpt>
      <trkpt lat="44.95435" lon="5.80941">
        <ele>1026.4</ele>
        <time>2022-07-16T06:09:12Z</time>
      </trkpt>
      <trkpt lat="44.95432" lon="5.80933">
        <ele>1026.4</ele>
        <time>2022-07-16T06:09:13Z</time>
      </trkpt>
      <trkpt lat="44.95429" lon="5.80927">
        <ele>1026.4</ele>
        <time>2022-07-16T06:09:14Z</time>
      </trkpt>
      <trkpt lat="44.95426" lon="5.80921">
        <ele>1026.4</ele>
        <time>2022-07-16T06:09:15Z</time>
      </trkpt>
      <trkpt lat="44.95422" lon="5.80916">
        <ele>1026.5</ele>
        <time>2022-07-16T06:09:16Z</time>
      </trkpt>
      <trkpt lat="44.95419" lon="5.8091">
        <ele>1026.5</ele>
        <time>2022-07-16T06:09:17Z</time>
      </trkpt>
      <trkpt lat="44.95415" lon="5.80904">
        <ele>1026.5</ele>
        <time>2022-07-16T06:09:18Z</time>
      </trkpt>
      <trkpt lat="44.95411" lon="5.80898">
        <ele>1026.5</ele>
        <time>2022-07-16T06:09:19Z</time>
      </trkpt>
      <trkpt lat="44.95408" lon="5.80893">
        <ele>1026.5</ele>
        <time>2022-07-16T06:09:20Z</time>
      </trkpt>
      <trkpt lat="44.95404" lon="5.80887">
        <ele>1026.5</ele>
        <time>2022-07-16T06:09:21Z</time>
      </trkpt>
      <trkpt lat="44.95401" lon="5.8088">
        <ele>1026.5</ele>
        <time>2022-07-16T06:09:22Z</time>
      </trkpt>
      <trkpt lat="44.95398" lon="5.80874">
        <ele>1026.5</ele>
        <time>2022-07-16T06:09:23Z</time>
      </trkpt>
      <trkpt lat="44.95395" lon="5.80867">
        <ele>1026.5</ele>
        <time>2022-07-16T06:09:24Z</time>
      </trkpt>
      <trkpt lat="44.95394" lon="5.8086">
        <ele>1026.6</ele>
        <time>2022-07-16T06:09:25Z</time>
      </trkpt>
      <trkpt lat="44.95392" lon="5.80852">
        <ele>1026.6</ele>
        <time>2022-07-16T06:09:26Z</time>
      </trkpt>
      <trkpt lat="44.9539" lon="5.80845">
        <ele>1026.7</ele>
        <time>2022-07-16T06:09:27Z</time>
      </trkpt>
      <trkpt lat="44.95389" lon="5.80838">
        <ele>1026.7</ele>
        <time>2022-07-16T06:09:28Z</time>
      </trkpt>
      <trkpt lat="44.95388" lon="5.8083">
        <ele>1026.8</ele>
        <time>2022-07-16T06:09:29Z</time>
      </trkpt>
      <trkpt lat="44.95386" lon="5.80822">
        <ele>1026.9</ele>
        <time>2022-07-16T06:09:30Z</time>
      </trkpt>
      <trkpt lat="44.95385" lon="5.80814">
        <ele>1026.9</ele>
        <time>2022-07-16T06:09:31Z</time>
      </trkpt>
      <trkpt lat="44.95384" lon="5.80806">
        <ele>1027</ele>
        <time>2022-07-16T06:09:32Z</time>
      </trkpt>
      <trkpt lat="44.95383" lon="5.80799">
        <ele>1027.2</ele>
        <time>2022-07-16T06:09:33Z</time>
      </trkpt>
      <trkpt lat="44.95383" lon="5.80791">
        <ele>1027.3</ele>
        <time>2022-07-16T06:09:34Z</time>
      </trkpt>
      <trkpt lat="44.95383" lon="5.80784">
        <ele>1027.5</ele>
        <time>2022-07-16T06:09:35Z</time>
      </trkpt>
      <trkpt lat="44.95385" lon="5.80777">
        <ele>1027.6</ele>
        <time>2022-07-16T06:09:36Z</time>
      </trkpt>
      <trkpt lat="44.95387" lon="5.8077">
        <ele>1027.8</ele>
        <time>2022-07-16T06:09:37Z</time>
      </trkpt>
      <trkpt lat="44.95389" lon="5.80764">
        <ele>1028</ele>
        <time>2022-07-16T06:09:38Z</time>
      </trkpt>
      <trkpt lat="44.95392" lon="5.80759">
        <ele>1028.2</ele>
        <time>2022-07-16T06:09:39Z</time>
      </trkpt>
      <trkpt lat="44.95395" lon="5.80754">
        <ele>1028.4</ele>
        <time>2022-07-16T06:09:40Z</time>
      </trkpt>
      <trkpt lat="44.95399" lon="5.80751">
        <ele>1028.6</ele>
        <time>2022-07-16T06:09:41Z</time>
      </trkpt>
      <trkpt lat="44.95402" lon="5.80748">
        <ele>1028.8</ele>
        <time>2022-07-16T06:09:42Z</time>
      </trkpt>
      <trkpt lat="44.95405" lon="5.80745">
        <ele>1029</ele>
        <time>2022-07-16T06:09:43Z</time>
      </trkpt>
      <trkpt lat="44.95409" lon="5.8074">
        <ele>1029.3</ele>
        <time>2022-07-16T06:09:44Z</time>
      </trkpt>
      <trkpt lat="44.95412" lon="5.80736">
        <ele>1029.5</ele>
        <time>2022-07-16T06:09:45Z</time>
      </trkpt>
      <trkpt lat="44.95415" lon="5.80733">
        <ele>1029.8</ele>
        <time>2022-07-16T06:09:46Z</time>
      </trkpt>
      <trkpt lat="44.95425" lon="5.80723">
        <ele>1030.6</ele>
        <time>2022-07-16T06:09:47Z</time>
      </trkpt>
      <trkpt lat="44.95429" lon="5.8072">
        <ele>1030.9</ele>
        <time>2022-07-16T06:09:49Z</time>
      </trkpt>
      <trkpt lat="44.95439" lon="5.80711">
        <ele>1031.7</ele>
        <time>2022-07-16T06:09:52Z</time>
      </trkpt>
      <trkpt lat="44.95444" lon="5.80708">
        <ele>1032.1</ele>
        <time>2022-07-16T06:09:53Z</time>
      </trkpt>
      <trkpt lat="44.95446" lon="5.80707">
        <ele>1032.2</ele>
        <time>2022-07-16T06:09:54Z</time>
      </trkpt>
      <trkpt lat="44.9545" lon="5.80702">
        <ele>1032.2</ele>
        <time>2022-07-16T06:09:56Z</time>
      </trkpt>
      <trkpt lat="44.95451" lon="5.80698">
        <ele>1032.2</ele>
        <time>2022-07-16T06:09:57Z</time>
      </trkpt>
      <trkpt lat="44.95454" lon="5.80693">
        <ele>1032.1</ele>
        <time>2022-07-16T06:09:59Z</time>
      </trkpt>
      <trkpt lat="44.95456" lon="5.80688">
        <ele>1031.9</ele>
        <time>2022-07-16T06:10:00Z</time>
      </trkpt>
      <trkpt lat="44.95458" lon="5.80685">
        <ele>1031.7</ele>
        <time>2022-07-16T06:10:01Z</time>
      </trkpt>
      <trkpt lat="44.95464" lon="5.8068">
        <ele>1031.4</ele>
        <time>2022-07-16T06:10:03Z</time>
      </trkpt>
      <trkpt lat="44.95469" lon="5.80675">
        <ele>1031.2</ele>
        <time>2022-07-16T06:10:04Z</time>
      </trkpt>
      <trkpt lat="44.95475" lon="5.80669">
        <ele>1030.8</ele>
        <time>2022-07-16T06:10:06Z</time>
      </trkpt>
      <trkpt lat="44.95477" lon="5.80663">
        <ele>1030.6</ele>
        <time>2022-07-16T06:10:07Z</time>
      </trkpt>
      <trkpt lat="44.95486" lon="5.80644">
        <ele>1029.8</ele>
        <time>2022-07-16T06:10:10Z</time>
      </trkpt>
      <trkpt lat="44.95488" lon="5.80636">
        <ele>1029.4</ele>
        <time>2022-07-16T06:10:11Z</time>
      </trkpt>
      <trkpt lat="44.95489" lon="5.80627">
        <ele>1029.1</ele>
        <time>2022-07-16T06:10:12Z</time>
      </trkpt>
      <trkpt lat="44.9549" lon="5.80618">
        <ele>1028.7</ele>
        <time>2022-07-16T06:10:13Z</time>
      </trkpt>
      <trkpt lat="44.95491" lon="5.80608">
        <ele>1028.2</ele>
        <time>2022-07-16T06:10:14Z</time>
      </trkpt>
      <trkpt lat="44.95491" lon="5.80599">
        <ele>1027.8</ele>
        <time>2022-07-16T06:10:15Z</time>
      </trkpt>
      <trkpt lat="44.95489" lon="5.80589">
        <ele>1027.3</ele>
        <time>2022-07-16T06:10:16Z</time>
      </trkpt>
      <trkpt lat="44.95487" lon="5.80579">
        <ele>1026.8</ele>
        <time>2022-07-16T06:10:17Z</time>
      </trkpt>
      <trkpt lat="44.95484" lon="5.8057">
        <ele>1026.3</ele>
        <time>2022-07-16T06:10:18Z</time>
      </trkpt>
      <trkpt lat="44.9548" lon="5.8056">
        <ele>1025.9</ele>
        <time>2022-07-16T06:10:19Z</time>
      </trkpt>
      <trkpt lat="44.95476" lon="5.80551">
        <ele>1025.4</ele>
        <time>2022-07-16T06:10:20Z</time>
      </trkpt>
      <trkpt lat="44.9547" lon="5.80542">
        <ele>1024.9</ele>
        <time>2022-07-16T06:10:21Z</time>
      </trkpt>
      <trkpt lat="44.95465" lon="5.80532">
        <ele>1024.4</ele>
        <time>2022-07-16T06:10:22Z</time>
      </trkpt>
      <trkpt lat="44.95461" lon="5.80522">
        <ele>1024.1</ele>
        <time>2022-07-16T06:10:23Z</time>
      </trkpt>
      <trkpt lat="44.95459" lon="5.80511">
        <ele>1024</ele>
        <time>2022-07-16T06:10:24Z</time>
      </trkpt>
      <trkpt lat="44.95458" lon="5.80499">
        <ele>1023.8</ele>
        <time>2022-07-16T06:10:25Z</time>
      </trkpt>
      <trkpt lat="44.95459" lon="5.80487">
        <ele>1023.7</ele>
        <time>2022-07-16T06:10:26Z</time>
      </trkpt>
      <trkpt lat="44.95462" lon="5.80475">
        <ele>1023.5</ele>
        <time>2022-07-16T06:10:27Z</time>
      </trkpt>
      <trkpt lat="44.95465" lon="5.80464">
        <ele>1023.3</ele>
        <time>2022-07-16T06:10:28Z</time>
      </trkpt>
      <trkpt lat="44.9547" lon="5.80454">
        <ele>1023.1</ele>
        <time>2022-07-16T06:10:29Z</time>
      </trkpt>
      <trkpt lat="44.95476" lon="5.80444">
        <ele>1023</ele>
        <time>2022-07-16T06:10:30Z</time>
      </trkpt>
      <trkpt lat="44.95481" lon="5.80436">
        <ele>1022.9</ele>
        <time>2022-07-16T06:10:31Z</time>
      </trkpt>
      <trkpt lat="44.95488" lon="5.80428">
        <ele>1022.7</ele>
        <time>2022-07-16T06:10:32Z</time>
      </trkpt>
      <trkpt lat="44.95495" lon="5.80422">
        <ele>1022.7</ele>
        <time>2022-07-16T06:10:33Z</time>
      </trkpt>
      <trkpt lat="44.95503" lon="5.80418">
        <ele>1022.6</ele>
        <time>2022-07-16T06:10:34Z</time>
      </trkpt>
      <trkpt lat="44.9551" lon="5.80415">
        <ele>1022.6</ele>
        <time>2022-07-16T06:10:35Z</time>
      </trkpt>
      <trkpt lat="44.95518" lon="5.80412">
        <ele>1022.6</ele>
        <time>2022-07-16T06:10:36Z</time>
      </trkpt>
      <trkpt lat="44.95525" lon="5.80408">
        <ele>1022.7</ele>
        <time>2022-07-16T06:10:37Z</time>
      </trkpt>
      <trkpt lat="44.95532" lon="5.80405">
        <ele>1022.8</ele>
        <time>2022-07-16T06:10:38Z</time>
      </trkpt>
      <trkpt lat="44.95539" lon="5.80403">
        <ele>1022.9</ele>
        <time>2022-07-16T06:10:39Z</time>
      </trkpt>
      <trkpt lat="44.95546" lon="5.80401">
        <ele>1023</ele>
        <time>2022-07-16T06:10:40Z</time>
      </trkpt>
      <trkpt lat="44.95553" lon="5.804">
        <ele>1023.1</ele>
        <time>2022-07-16T06:10:41Z</time>
      </trkpt>
      <trkpt lat="44.95559" lon="5.80399">
        <ele>1023.2</ele>
        <time>2022-07-16T06:10:42Z</time>
      </trkpt>
      <trkpt lat="44.95566" lon="5.80397">
        <ele>1023.3</ele>
        <time>2022-07-16T06:10:43Z</time>
      </trkpt>
      <trkpt lat="44.95572" lon="5.80396">
        <ele>1023.4</ele>
        <time>2022-07-16T06:10:44Z</time>
      </trkpt>
      <trkpt lat="44.95579" lon="5.80395">
        <ele>1023.5</ele>
        <time>2022-07-16T06:10:45Z</time>
      </trkpt>
      <trkpt lat="44.95585" lon="5.80393">
        <ele>1023.6</ele>
        <time>2022-07-16T06:10:46Z</time>
      </trkpt>
      <trkpt lat="44.95591" lon="5.80392">
        <ele>1023.7</ele>
        <time>2022-07-16T06:10:47Z</time>
      </trkpt>
      <trkpt lat="44.95597" lon="5.80391">
        <ele>1023.8</ele>
        <time>2022-07-16T06:10:48Z</time>
      </trkpt>
      <trkpt lat="44.95603" lon="5.8039">
        <ele>1023.9</ele>
        <time>2022-07-16T06:10:49Z</time>
      </trkpt>
      <trkpt lat="44.95609" lon="5.80389">
        <ele>1024</ele>
        <time>2022-07-16T06:10:50Z</time>
      </trkpt>
      <trkpt lat="44.95615" lon="5.80387">
        <ele>1024.2</ele>
        <time>2022-07-16T06:10:51Z</time>
      </trkpt>
      <trkpt lat="44.95621" lon="5.80386">
        <ele>1024.3</ele>
        <time>2022-07-16T06:10:52Z</time>
      </trkpt>
      <trkpt lat="44.95627" lon="5.80385">
        <ele>1024.4</ele>
        <time>2022-07-16T06:10:53Z</time>
      </trkpt>
      <trkpt lat="44.95632" lon="5.80383">
        <ele>1024.5</ele>
        <time>2022-07-16T06:10:54Z</time>
      </trkpt>
      <trkpt lat="44.95638" lon="5.80382">
        <ele>1024.7</ele>
        <time>2022-07-16T06:10:55Z</time>
      </trkpt>
      <trkpt lat="44.95644" lon="5.80381">
        <ele>1024.8</ele>
        <time>2022-07-16T06:10:56Z</time>
      </trkpt>
      <trkpt lat="44.95649" lon="5.8038">
        <ele>1024.9</ele>
        <time>2022-07-16T06:10:57Z</time>
      </trkpt>
      <trkpt lat="44.95654" lon="5.80378">
        <ele>1025.1</ele>
        <time>2022-07-16T06:10:58Z</time>
      </trkpt>
      <trkpt lat="44.9566" lon="5.80376">
        <ele>1025.2</ele>
        <time>2022-07-16T06:10:59Z</time>
      </trkpt>
      <trkpt lat="44.95665" lon="5.80374">
        <ele>1025.3</ele>
        <time>2022-07-16T06:11:00Z</time>
      </trkpt>
      <trkpt lat="44.9567" lon="5.80372">
        <ele>1025.4</ele>
        <time>2022-07-16T06:11:01Z</time>
      </trkpt>
      <trkpt lat="44.95675" lon="5.80369">
        <ele>1025.6</ele>
        <time>2022-07-16T06:11:02Z</time>
      </trkpt>
      <trkpt lat="44.95679" lon="5.80366">
        <ele>1025.7</ele>
        <time>2022-07-16T06:11:03Z</time>
      </trkpt>
      <trkpt lat="44.95684" lon="5.80362">
        <ele>1025.8</ele>
        <time>2022-07-16T06:11:04Z</time>
      </trkpt>
      <trkpt lat="44.95688" lon="5.80357">
        <ele>1025.9</ele>
        <time>2022-07-16T06:11:05Z</time>
      </trkpt>
      <trkpt lat="44.95692" lon="5.80352">
        <ele>1025.9</ele>
        <time>2022-07-16T06:11:06Z</time>
      </trkpt>
      <trkpt lat="44.95695" lon="5.80346">
        <ele>1026</ele>
        <time>2022-07-16T06:11:07Z</time>
      </trkpt>
      <trkpt lat="44.95698" lon="5.80339">
        <ele>1025.9</ele>
        <time>2022-07-16T06:11:08Z</time>
      </trkpt>
      <trkpt lat="44.957" lon="5.80331">
        <ele>1025.9</ele>
        <time>2022-07-16T06:11:09Z</time>
      </trkpt>
      <trkpt lat="44.95701" lon="5.80324">
        <ele>1025.8</ele>
        <time>2022-07-16T06:11:10Z</time>
      </trkpt>
      <trkpt lat="44.95702" lon="5.80315">
        <ele>1025.7</ele>
        <time>2022-07-16T06:11:11Z</time>
      </trkpt>
      <trkpt lat="44.95702" lon="5.80307">
        <ele>1025.6</ele>
        <time>2022-07-16T06:11:12Z</time>
      </trkpt>
      <trkpt lat="44.95701" lon="5.80299">
        <ele>1025.6</ele>
        <time>2022-07-16T06:11:13Z</time>
      </trkpt>
      <trkpt lat="44.957" lon="5.80292">
        <ele>1025.5</ele>
        <time>2022-07-16T06:11:14Z</time>
      </trkpt>
      <trkpt lat="44.95699" lon="5.80283">
        <ele>1025.4</ele>
        <time>2022-07-16T06:11:15Z</time>
      </trkpt>
      <trkpt lat="44.95697" lon="5.80274">
        <ele>1025.3</ele>
        <time>2022-07-16T06:11:16Z</time>
      </trkpt>
      <trkpt lat="44.95696" lon="5.80266">
        <ele>1025.3</ele>
        <time>2022-07-16T06:11:17Z</time>
      </trkpt>
      <trkpt lat="44.95695" lon="5.80257">
        <ele>1025.2</ele>
        <time>2022-07-16T06:11:18Z</time>
      </trkpt>
      <trkpt lat="44.95694" lon="5.80248">
        <ele>1025.1</ele>
        <time>2022-07-16T06:11:19Z</time>
      </trkpt>
      <trkpt lat="44.95694" lon="5.80239">
        <ele>1025</ele>
        <time>2022-07-16T06:11:20Z</time>
      </trkpt>
      <trkpt lat="44.95694" lon="5.8023">
        <ele>1024.9</ele>
        <time>2022-07-16T06:11:21Z</time>
      </trkpt>
      <trkpt lat="44.95696" lon="5.80222">
        <ele>1024.8</ele>
        <time>2022-07-16T06:11:22Z</time>
      </trkpt>
      <trkpt lat="44.95699" lon="5.80213">
        <ele>1024.7</ele>
        <time>2022-07-16T06:11:23Z</time>
      </trkpt>
      <trkpt lat="44.95702" lon="5.80206">
        <ele>1024.6</ele>
        <time>2022-07-16T06:11:24Z</time>
      </trkpt>
      <trkpt lat="44.95707" lon="5.80199">
        <ele>1024.6</ele>
        <time>2022-07-16T06:11:25Z</time>
      </trkpt>
      <trkpt lat="44.95711" lon="5.80193">
        <ele>1024.5</ele>
        <time>2022-07-16T06:11:26Z</time>
      </trkpt>
      <trkpt lat="44.95716" lon="5.80187">
        <ele>1024.5</ele>
        <time>2022-07-16T06:11:27Z</time>
      </trkpt>
      <trkpt lat="44.95721" lon="5.80183">
        <ele>1024.4</ele>
        <time>2022-07-16T06:11:28Z</time>
      </trkpt>
      <trkpt lat="44.95727" lon="5.80178">
        <ele>1024.3</ele>
        <time>2022-07-16T06:11:29Z</time>
      </trkpt>
      <trkpt lat="44.95732" lon="5.80174">
        <ele>1024.3</ele>
        <time>2022-07-16T06:11:30Z</time>
      </trkpt>
      <trkpt lat="44.95738" lon="5.8017">
        <ele>1024.2</ele>
        <time>2022-07-16T06:11:31Z</time>
      </trkpt>
      <trkpt lat="44.95743" lon="5.80166">
        <ele>1024.2</ele>
        <time>2022-07-16T06:11:32Z</time>
      </trkpt>
      <trkpt lat="44.95749" lon="5.80162">
        <ele>1024.1</ele>
        <time>2022-07-16T06:11:33Z</time>
      </trkpt>
      <trkpt lat="44.95754" lon="5.80157">
        <ele>1024.1</ele>
        <time>2022-07-16T06:11:34Z</time>
      </trkpt>
      <trkpt lat="44.9576" lon="5.80153">
        <ele>1024</ele>
        <time>2022-07-16T06:11:35Z</time>
      </trkpt>
      <trkpt lat="44.95766" lon="5.80149">
        <ele>1024</ele>
        <time>2022-07-16T06:11:36Z</time>
      </trkpt>
      <trkpt lat="44.95772" lon="5.80144">
        <ele>1023.9</ele>
        <time>2022-07-16T06:11:37Z</time>
      </trkpt>
      <trkpt lat="44.95777" lon="5.80139">
        <ele>1023.8</ele>
        <time>2022-07-16T06:11:38Z</time>
      </trkpt>
      <trkpt lat="44.95783" lon="5.80135">
        <ele>1023.7</ele>
        <time>2022-07-16T06:11:39Z</time>
      </trkpt>
      <trkpt lat="44.95789" lon="5.8013">
        <ele>1023.6</ele>
        <time>2022-07-16T06:11:40Z</time>
      </trkpt>
      <trkpt lat="44.95794" lon="5.80126">
        <ele>1023.6</ele>
        <time>2022-07-16T06:11:41Z</time>
      </trkpt>
      <trkpt lat="44.958" lon="5.80122">
        <ele>1023.6</ele>
        <time>2022-07-16T06:11:42Z</time>
      </trkpt>
      <trkpt lat="44.95806" lon="5.80118">
        <ele>1023.6</ele>
        <time>2022-07-16T06:11:43Z</time>
      </trkpt>
      <trkpt lat="44.95811" lon="5.80114">
        <ele>1023.6</ele>
        <time>2022-07-16T06:11:44Z</time>
      </trkpt>
      <trkpt lat="44.95817" lon="5.80109">
        <ele>1023.6</ele>
        <time>2022-07-16T06:11:45Z</time>
      </trkpt>
      <trkpt lat="44.95823" lon="5.80105">
        <ele>1023.6</ele>
        <time>2022-07-16T06:11:46Z</time>
      </trkpt>
      <trkpt lat="44.95828" lon="5.801">
        <ele>1023.7</ele>
        <time>2022-07-16T06:11:47Z</time>
      </trkpt>
      <trkpt lat="44.95834" lon="5.80096">
        <ele>1023.7</ele>
        <time>2022-07-16T06:11:48Z</time>
      </trkpt>
      <trkpt lat="44.9584" lon="5.80092">
        <ele>1023.8</ele>
        <time>2022-07-16T06:11:49Z</time>
      </trkpt>
      <trkpt lat="44.95846" lon="5.80087">
        <ele>1023.8</ele>
        <time>2022-07-16T06:11:50Z</time>
      </trkpt>
      <trkpt lat="44.95851" lon="5.80083">
        <ele>1023.9</ele>
        <time>2022-07-16T06:11:51Z</time>
      </trkpt>
      <trkpt lat="44.95857" lon="5.80079">
        <ele>1024</ele>
        <time>2022-07-16T06:11:52Z</time>
      </trkpt>
      <trkpt lat="44.95862" lon="5.80075">
        <ele>1024.1</ele>
        <time>2022-07-16T06:11:53Z</time>
      </trkpt>
      <trkpt lat="44.95868" lon="5.80071">
        <ele>1024.2</ele>
        <time>2022-07-16T06:11:54Z</time>
      </trkpt>
      <trkpt lat="44.95873" lon="5.80067">
        <ele>1024.3</ele>
        <time>2022-07-16T06:11:55Z</time>
      </trkpt>
      <trkpt lat="44.95878" lon="5.80063">
        <ele>1024.4</ele>
        <time>2022-07-16T06:11:56Z</time>
      </trkpt>
      <trkpt lat="44.95883" lon="5.80059">
        <ele>1024.5</ele>
        <time>2022-07-16T06:11:57Z</time>
      </trkpt>
      <trkpt lat="44.95889" lon="5.80055">
        <ele>1024.7</ele>
        <time>2022-07-16T06:11:58Z</time>
      </trkpt>
      <trkpt lat="44.95893" lon="5.80052">
        <ele>1024.8</ele>
        <time>2022-07-16T06:11:59Z</time>
      </trkpt>
      <trkpt lat="44.95898" lon="5.80049">
        <ele>1025</ele>
        <time>2022-07-16T06:12:00Z</time>
      </trkpt>
      <trkpt lat="44.95903" lon="5.80045">
        <ele>1025.1</ele>
        <time>2022-07-16T06:12:01Z</time>
      </trkpt>
      <trkpt lat="44.95908" lon="5.80041">
        <ele>1025.3</ele>
        <time>2022-07-16T06:12:02Z</time>
      </trkpt>
      <trkpt lat="44.95913" lon="5.80037">
        <ele>1025.5</ele>
        <time>2022-07-16T06:12:03Z</time>
      </trkpt>
      <trkpt lat="44.95918" lon="5.80034">
        <ele>1025.6</ele>
        <time>2022-07-16T06:12:04Z</time>
      </trkpt>
      <trkpt lat="44.95922" lon="5.8003">
        <ele>1025.8</ele>
        <time>2022-07-16T06:12:05Z</time>
      </trkpt>
      <trkpt lat="44.95927" lon="5.80026">
        <ele>1026</ele>
        <time>2022-07-16T06:12:06Z</time>
      </trkpt>
      <trkpt lat="44.95932" lon="5.80023">
        <ele>1026.1</ele>
        <time>2022-07-16T06:12:07Z</time>
      </trkpt>
      <trkpt lat="44.95936" lon="5.80019">
        <ele>1026.3</ele>
        <time>2022-07-16T06:12:08Z</time>
      </trkpt>
      <trkpt lat="44.95941" lon="5.80015">
        <ele>1026.4</ele>
        <time>2022-07-16T06:12:09Z</time>
      </trkpt>
      <trkpt lat="44.95945" lon="5.80012">
        <ele>1026.6</ele>
        <time>2022-07-16T06:12:10Z</time>
      </trkpt>
      <trkpt lat="44.9595" lon="5.80008">
        <ele>1026.7</ele>
        <time>2022-07-16T06:12:11Z</time>
      </trkpt>
      <trkpt lat="44.95954" lon="5.80005">
        <ele>1026.8</ele>
        <time>2022-07-16T06:12:12Z</time>
      </trkpt>
      <trkpt lat="44.95959" lon="5.80001">
        <ele>1026.9</ele>
        <time>2022-07-16T06:12:13Z</time>
      </trkpt>
      <trkpt lat="44.95963" lon="5.79998">
        <ele>1027</ele>
        <time>2022-07-16T06:12:14Z</time>
      </trkpt>
      <trkpt lat="44.95968" lon="5.79995">
        <ele>1027.2</ele>
        <time>2022-07-16T06:12:15Z</time>
      </trkpt>
      <trkpt lat="44.95972" lon="5.79991">
        <ele>1027.2</ele>
        <time>2022-07-16T06:12:16Z</time>
      </trkpt>
      <trkpt lat="44.95977" lon="5.79988">
        <ele>1027.3</ele>
        <time>2022-07-16T06:12:17Z</time>
      </trkpt>
      <trkpt lat="44.95982" lon="5.79985">
        <ele>1027.4</ele>
        <time>2022-07-16T06:12:18Z</time>
      </trkpt>
      <trkpt lat="44.95986" lon="5.79982">
        <ele>1027.4</ele>
        <time>2022-07-16T06:12:19Z</time>
      </trkpt>
      <trkpt lat="44.95991" lon="5.79979">
        <ele>1027.5</ele>
        <time>2022-07-16T06:12:20Z</time>
      </trkpt>
      <trkpt lat="44.95996" lon="5.79975">
        <ele>1027.5</ele>
        <time>2022-07-16T06:12:21Z</time>
      </trkpt>
      <trkpt lat="44.96001" lon="5.79972">
        <ele>1027.5</ele>
        <time>2022-07-16T06:12:22Z</time>
      </trkpt>
      <trkpt lat="44.96006" lon="5.79968">
        <ele>1027.5</ele>
        <time>2022-07-16T06:12:23Z</time>
      </trkpt>
      <trkpt lat="44.96011" lon="5.79964">
        <ele>1027.6</ele>
        <time>2022-07-16T06:12:24Z</time>
      </trkpt>
      <trkpt lat="44.96016" lon="5.79961">
        <ele>1027.6</ele>
        <time>2022-07-16T06:12:25Z</time>
      </trkpt>
      <trkpt lat="44.9602" lon="5.79957">
        <ele>1027.6</ele>
        <time>2022-07-16T06:12:26Z</time>
      </trkpt>
      <trkpt lat="44.96026" lon="5.79953">
        <ele>1027.7</ele>
        <time>2022-07-16T06:12:27Z</time>
      </trkpt>
      <trkpt lat="44.96031" lon="5.79949">
        <ele>1027.7</ele>
        <time>2022-07-16T06:12:28Z</time>
      </trkpt>
      <trkpt lat="44.96036" lon="5.79945">
        <ele>1027.8</ele>
        <time>2022-07-16T06:12:29Z</time>
      </trkpt>
      <trkpt lat="44.96041" lon="5.79941">
        <ele>1027.9</ele>
        <time>2022-07-16T06:12:30Z</time>
      </trkpt>
      <trkpt lat="44.96046" lon="5.79937">
        <ele>1027.9</ele>
        <time>2022-07-16T06:12:31Z</time>
      </trkpt>
      <trkpt lat="44.96051" lon="5.79933">
        <ele>1028</ele>
        <time>2022-07-16T06:12:32Z</time>
      </trkpt>
      <trkpt lat="44.96055" lon="5.7993">
        <ele>1028</ele>
        <time>2022-07-16T06:12:33Z</time>
      </trkpt>
      <trkpt lat="44.9606" lon="5.79926">
        <ele>1028</ele>
        <time>2022-07-16T06:12:34Z</time>
      </trkpt>
      <trkpt lat="44.96065" lon="5.79922">
        <ele>1028.1</ele>
        <time>2022-07-16T06:12:35Z</time>
      </trkpt>
      <trkpt lat="44.9607" lon="5.79918">
        <ele>1028.1</ele>
        <time>2022-07-16T06:12:36Z</time>
      </trkpt>
      <trkpt lat="44.96075" lon="5.79914">
        <ele>1028.2</ele>
        <time>2022-07-16T06:12:37Z</time>
      </trkpt>
      <trkpt lat="44.9608" lon="5.7991">
        <ele>1028.3</ele>
        <time>2022-07-16T06:12:38Z</time>
      </trkpt>
      <trkpt lat="44.96085" lon="5.79906">
        <ele>1028.4</ele>
        <time>2022-07-16T06:12:39Z</time>
      </trkpt>
      <trkpt lat="44.9609" lon="5.79903">
        <ele>1028.4</ele>
        <time>2022-07-16T06:12:40Z</time>
      </trkpt>
      <trkpt lat="44.96095" lon="5.79898">
        <ele>1028.5</ele>
        <time>2022-07-16T06:12:41Z</time>
      </trkpt>
      <trkpt lat="44.961" lon="5.79895">
        <ele>1028.6</ele>
        <time>2022-07-16T06:12:42Z</time>
      </trkpt>
      <trkpt lat="44.96105" lon="5.79892">
        <ele>1028.7</ele>
        <time>2022-07-16T06:12:43Z</time>
      </trkpt>
      <trkpt lat="44.9611" lon="5.79888">
        <ele>1028.8</ele>
        <time>2022-07-16T06:12:44Z</time>
      </trkpt>
      <trkpt lat="44.96114" lon="5.79884">
        <ele>1029</ele>
        <time>2022-07-16T06:12:45Z</time>
      </trkpt>
      <trkpt lat="44.96119" lon="5.7988">
        <ele>1029.1</ele>
        <time>2022-07-16T06:12:46Z</time>
      </trkpt>
      <trkpt lat="44.96124" lon="5.79876">
        <ele>1029.2</ele>
        <time>2022-07-16T06:12:47Z</time>
      </trkpt>
      <trkpt lat="44.96128" lon="5.79872">
        <ele>1029.3</ele>
        <time>2022-07-16T06:12:48Z</time>
      </trkpt>
      <trkpt lat="44.96133" lon="5.79869">
        <ele>1029.4</ele>
        <time>2022-07-16T06:12:49Z</time>
      </trkpt>
      <trkpt lat="44.96137" lon="5.79866">
        <ele>1029.5</ele>
        <time>2022-07-16T06:12:50Z</time>
      </trkpt>
      <trkpt lat="44.96142" lon="5.79862">
        <ele>1029.7</ele>
        <time>2022-07-16T06:12:51Z</time>
      </trkpt>
      <trkpt lat="44.96146" lon="5.79858">
        <ele>1029.9</ele>
        <time>2022-07-16T06:12:52Z</time>
      </trkpt>
      <trkpt lat="44.96151" lon="5.79855">
        <ele>1030</ele>
        <time>2022-07-16T06:12:53Z</time>
      </trkpt>
      <trkpt lat="44.96155" lon="5.79852">
        <ele>1030.2</ele>
        <time>2022-07-16T06:12:54Z</time>
      </trkpt>
      <trkpt lat="44.96159" lon="5.79849">
        <ele>1030.4</ele>
        <time>2022-07-16T06:12:55Z</time>
      </trkpt>
      <trkpt lat="44.96163" lon="5.79846">
        <ele>1030.6</ele>
        <time>2022-07-16T06:12:56Z</time>
      </trkpt>
      <trkpt lat="44.96167" lon="5.79843">
        <ele>1030.7</ele>
        <time>2022-07-16T06:12:57Z</time>
      </trkpt>
      <trkpt lat="44.96172" lon="5.7984">
        <ele>1030.9</ele>
        <time>2022-07-16T06:12:58Z</time>
      </trkpt>
      <trkpt lat="44.96176" lon="5.79837">
        <ele>1031.2</ele>
        <time>2022-07-16T06:12:59Z</time>
      </trkpt>
      <trkpt lat="44.96181" lon="5.79835">
        <ele>1031.4</ele>
        <time>2022-07-16T06:13:00Z</time>
      </trkpt>
      <trkpt lat="44.96185" lon="5.79834">
        <ele>1031.6</ele>
        <time>2022-07-16T06:13:01Z</time>
      </trkpt>
      <trkpt lat="44.9619" lon="5.79833">
        <ele>1031.8</ele>
        <time>2022-07-16T06:13:02Z</time>
      </trkpt>
      <trkpt lat="44.96192" lon="5.79832">
        <ele>1032</ele>
        <time>2022-07-16T06:13:03Z</time>
      </trkpt>
      <trkpt lat="44.96197" lon="5.79832">
        <ele>1032.2</ele>
        <time>2022-07-16T06:13:04Z</time>
      </trkpt>
      <trkpt lat="44.96201" lon="5.79831">
        <ele>1032.4</ele>
        <time>2022-07-16T06:13:05Z</time>
      </trkpt>
      <trkpt lat="44.96206" lon="5.79831">
        <ele>1032.6</ele>
        <time>2022-07-16T06:13:06Z</time>
      </trkpt>
      <trkpt lat="44.96209" lon="5.79832">
        <ele>1032.8</ele>
        <time>2022-07-16T06:13:07Z</time>
      </trkpt>
      <trkpt lat="44.96217" lon="5.79827">
        <ele>1033.3</ele>
        <time>2022-07-16T06:13:08Z</time>
      </trkpt>
      <trkpt lat="44.96217" lon="5.79822">
        <ele>1033.4</ele>
        <time>2022-07-16T06:13:09Z</time>
      </trkpt>
      <trkpt lat="44.96226" lon="5.79831">
        <ele>1034</ele>
        <time>2022-07-16T06:13:10Z</time>
      </trkpt>
      <trkpt lat="44.96232" lon="5.79834">
        <ele>1034.3</ele>
        <time>2022-07-16T06:13:11Z</time>
      </trkpt>
      <trkpt lat="44.96239" lon="5.79836">
        <ele>1034.6</ele>
        <time>2022-07-16T06:13:13Z</time>
      </trkpt>
      <trkpt lat="44.96247" lon="5.79838">
        <ele>1035.1</ele>
        <time>2022-07-16T06:13:15Z</time>
      </trkpt>
      <trkpt lat="44.96255" lon="5.79839">
        <ele>1035.5</ele>
        <time>2022-07-16T06:13:17Z</time>
      </trkpt>
      <trkpt lat="44.96259" lon="5.7984">
        <ele>1035.7</ele>
        <time>2022-07-16T06:13:18Z</time>
      </trkpt>
      <trkpt lat="44.96267" lon="5.79842">
        <ele>1036.1</ele>
        <time>2022-07-16T06:13:19Z</time>
      </trkpt>
      <trkpt lat="44.96272" lon="5.79844">
        <ele>1036.3</ele>
        <time>2022-07-16T06:13:21Z</time>
      </trkpt>
      <trkpt lat="44.96276" lon="5.79845">
        <ele>1036.5</ele>
        <time>2022-07-16T06:13:22Z</time>
      </trkpt>
      <trkpt lat="44.9628" lon="5.79847">
        <ele>1036.8</ele>
        <time>2022-07-16T06:13:23Z</time>
      </trkpt>
      <trkpt lat="44.96287" lon="5.7985">
        <ele>1037.1</ele>
        <time>2022-07-16T06:13:25Z</time>
      </trkpt>
      <trkpt lat="44.96291" lon="5.7985">
        <ele>1037.4</ele>
        <time>2022-07-16T06:13:26Z</time>
      </trkpt>
      <trkpt lat="44.96297" lon="5.79852">
        <ele>1037.7</ele>
        <time>2022-07-16T06:13:28Z</time>
      </trkpt>
      <trkpt lat="44.96301" lon="5.79854">
        <ele>1037.9</ele>
        <time>2022-07-16T06:13:29Z</time>
      </trkpt>
      <trkpt lat="44.96309" lon="5.79855">
        <ele>1038.2</ele>
        <time>2022-07-16T06:13:31Z</time>
      </trkpt>
      <trkpt lat="44.96314" lon="5.79856">
        <ele>1038.4</ele>
        <time>2022-07-16T06:13:32Z</time>
      </trkpt>
      <trkpt lat="44.96317" lon="5.79857">
        <ele>1038.4</ele>
        <time>2022-07-16T06:13:33Z</time>
      </trkpt>
      <trkpt lat="44.96322" lon="5.7986">
        <ele>1038.5</ele>
        <time>2022-07-16T06:13:34Z</time>
      </trkpt>
      <trkpt lat="44.9633" lon="5.79863">
        <ele>1038.7</ele>
        <time>2022-07-16T06:13:36Z</time>
      </trkpt>
      <trkpt lat="44.96335" lon="5.79866">
        <ele>1038.8</ele>
        <time>2022-07-16T06:13:37Z</time>
      </trkpt>
      <trkpt lat="44.96343" lon="5.79871">
        <ele>1039.1</ele>
        <time>2022-07-16T06:13:39Z</time>
      </trkpt>
      <trkpt lat="44.96347" lon="5.79875">
        <ele>1039.2</ele>
        <time>2022-07-16T06:13:40Z</time>
      </trkpt>
      <trkpt lat="44.96358" lon="5.79887">
        <ele>1039.5</ele>
        <time>2022-07-16T06:13:42Z</time>
      </trkpt>
      <trkpt lat="44.96357" lon="5.79893">
        <ele>1039.6</ele>
        <time>2022-07-16T06:13:43Z</time>
      </trkpt>
      <trkpt lat="44.96364" lon="5.79896">
        <ele>1039.8</ele>
        <time>2022-07-16T06:13:46Z</time>
      </trkpt>
      <trkpt lat="44.96368" lon="5.799">
        <ele>1039.9</ele>
        <time>2022-07-16T06:13:47Z</time>
      </trkpt>
      <trkpt lat="44.96372" lon="5.79903">
        <ele>1040</ele>
        <time>2022-07-16T06:13:48Z</time>
      </trkpt>
      <trkpt lat="44.96376" lon="5.79907">
        <ele>1040.1</ele>
        <time>2022-07-16T06:13:49Z</time>
      </trkpt>
      <trkpt lat="44.96381" lon="5.7991">
        <ele>1040.2</ele>
        <time>2022-07-16T06:13:50Z</time>
      </trkpt>
      <trkpt lat="44.96385" lon="5.79914">
        <ele>1040.3</ele>
        <time>2022-07-16T06:13:51Z</time>
      </trkpt>
      <trkpt lat="44.96389" lon="5.79917">
        <ele>1040.3</ele>
        <time>2022-07-16T06:13:52Z</time>
      </trkpt>
      <trkpt lat="44.96393" lon="5.79921">
        <ele>1040.4</ele>
        <time>2022-07-16T06:13:53Z</time>
      </trkpt>
      <trkpt lat="44.96397" lon="5.79925">
        <ele>1040.4</ele>
        <time>2022-07-16T06:13:54Z</time>
      </trkpt>
      <trkpt lat="44.96401" lon="5.79929">
        <ele>1040.5</ele>
        <time>2022-07-16T06:13:55Z</time>
      </trkpt>
      <trkpt lat="44.96404" lon="5.79934">
        <ele>1040.5</ele>
        <time>2022-07-16T06:13:56Z</time>
      </trkpt>
      <trkpt lat="44.96408" lon="5.79937">
        <ele>1040.6</ele>
        <time>2022-07-16T06:13:57Z</time>
      </trkpt>
      <trkpt lat="44.96412" lon="5.79941">
        <ele>1040.6</ele>
        <time>2022-07-16T06:13:58Z</time>
      </trkpt>
      <trkpt lat="44.96417" lon="5.79944">
        <ele>1040.7</ele>
        <time>2022-07-16T06:13:59Z</time>
      </trkpt>
      <trkpt lat="44.96421" lon="5.79948">
        <ele>1040.7</ele>
        <time>2022-07-16T06:14:00Z</time>
      </trkpt>
      <trkpt lat="44.96426" lon="5.79952">
        <ele>1040.8</ele>
        <time>2022-07-16T06:14:01Z</time>
      </trkpt>
      <trkpt lat="44.96431" lon="5.79956">
        <ele>1040.9</ele>
        <time>2022-07-16T06:14:02Z</time>
      </trkpt>
      <trkpt lat="44.96435" lon="5.79961">
        <ele>1040.9</ele>
        <time>2022-07-16T06:14:03Z</time>
      </trkpt>
      <trkpt lat="44.96439" lon="5.79965">
        <ele>1041</ele>
        <time>2022-07-16T06:14:04Z</time>
      </trkpt>
      <trkpt lat="44.96443" lon="5.79969">
        <ele>1041.1</ele>
        <time>2022-07-16T06:14:05Z</time>
      </trkpt>
      <trkpt lat="44.96447" lon="5.79973">
        <ele>1041.2</ele>
        <time>2022-07-16T06:14:06Z</time>
      </trkpt>
      <trkpt lat="44.96451" lon="5.79977">
        <ele>1041.3</ele>
        <time>2022-07-16T06:14:07Z</time>
      </trkpt>
      <trkpt lat="44.96455" lon="5.79982">
        <ele>1041.4</ele>
        <time>2022-07-16T06:14:08Z</time>
      </trkpt>
      <trkpt lat="44.96459" lon="5.79986">
        <ele>1041.4</ele>
        <time>2022-07-16T06:14:09Z</time>
      </trkpt>
      <trkpt lat="44.96464" lon="5.7999">
        <ele>1041.5</ele>
        <time>2022-07-16T06:14:10Z</time>
      </trkpt>
      <trkpt lat="44.96468" lon="5.79995">
        <ele>1041.6</ele>
        <time>2022-07-16T06:14:11Z</time>
      </trkpt>
      <trkpt lat="44.96473" lon="5.79999">
        <ele>1041.7</ele>
        <time>2022-07-16T06:14:12Z</time>
      </trkpt>
      <trkpt lat="44.96477" lon="5.80003">
        <ele>1041.8</ele>
        <time>2022-07-16T06:14:13Z</time>
      </trkpt>
      <trkpt lat="44.96482" lon="5.80007">
        <ele>1041.9</ele>
        <time>2022-07-16T06:14:14Z</time>
      </trkpt>
      <trkpt lat="44.96486" lon="5.80011">
        <ele>1042</ele>
        <time>2022-07-16T06:14:15Z</time>
      </trkpt>
      <trkpt lat="44.9649" lon="5.80015">
        <ele>1042.1</ele>
        <time>2022-07-16T06:14:16Z</time>
      </trkpt>
      <trkpt lat="44.96494" lon="5.80019">
        <ele>1042.2</ele>
        <time>2022-07-16T06:14:17Z</time>
      </trkpt>
      <trkpt lat="44.96499" lon="5.80023">
        <ele>1042.3</ele>
        <time>2022-07-16T06:14:18Z</time>
      </trkpt>
      <trkpt lat="44.96503" lon="5.80027">
        <ele>1042.4</ele>
        <time>2022-07-16T06:14:19Z</time>
      </trkpt>
      <trkpt lat="44.96507" lon="5.80031">
        <ele>1042.5</ele>
        <time>2022-07-16T06:14:20Z</time>
      </trkpt>
      <trkpt lat="44.96512" lon="5.80036">
        <ele>1042.6</ele>
        <time>2022-07-16T06:14:21Z</time>
      </trkpt>
      <trkpt lat="44.96516" lon="5.8004">
        <ele>1042.6</ele>
        <time>2022-07-16T06:14:22Z</time>
      </trkpt>
      <trkpt lat="44.9652" lon="5.80045">
        <ele>1042.7</ele>
        <time>2022-07-16T06:14:23Z</time>
      </trkpt>
      <trkpt lat="44.96525" lon="5.80049">
        <ele>1042.8</ele>
        <time>2022-07-16T06:14:24Z</time>
      </trkpt>
      <trkpt lat="44.96529" lon="5.80053">
        <ele>1042.9</ele>
        <time>2022-07-16T06:14:25Z</time>
      </trkpt>
      <trkpt lat="44.96533" lon="5.80057">
        <ele>1042.9</ele>
        <time>2022-07-16T06:14:26Z</time>
      </trkpt>
      <trkpt lat="44.96538" lon="5.80062">
        <ele>1043</ele>
        <time>2022-07-16T06:14:27Z</time>
      </trkpt>
      <trkpt lat="44.96542" lon="5.80067">
        <ele>1043</ele>
        <time>2022-07-16T06:14:28Z</time>
      </trkpt>
      <trkpt lat="44.96547" lon="5.80072">
        <ele>1043.1</ele>
        <time>2022-07-16T06:14:29Z</time>
      </trkpt>
      <trkpt lat="44.96551" lon="5.80077">
        <ele>1043.1</ele>
        <time>2022-07-16T06:14:30Z</time>
      </trkpt>
      <trkpt lat="44.96555" lon="5.80082">
        <ele>1043.2</ele>
        <time>2022-07-16T06:14:31Z</time>
      </trkpt>
      <trkpt lat="44.96559" lon="5.80088">
        <ele>1043.2</ele>
        <time>2022-07-16T06:14:32Z</time>
      </trkpt>
      <trkpt lat="44.96563" lon="5.80094">
        <ele>1043.2</ele>
        <time>2022-07-16T06:14:33Z</time>
      </trkpt>
      <trkpt lat="44.96566" lon="5.801">
        <ele>1043.3</ele>
        <time>2022-07-16T06:14:34Z</time>
      </trkpt>
      <trkpt lat="44.9657" lon="5.80106">
        <ele>1043.4</ele>
        <time>2022-07-16T06:14:35Z</time>
      </trkpt>
      <trkpt lat="44.96574" lon="5.80112">
        <ele>1043.4</ele>
        <time>2022-07-16T06:14:36Z</time>
      </trkpt>
      <trkpt lat="44.96578" lon="5.80118">
        <ele>1043.5</ele>
        <time>2022-07-16T06:14:37Z</time>
      </trkpt>
      <trkpt lat="44.96581" lon="5.80125">
        <ele>1043.6</ele>
        <time>2022-07-16T06:14:38Z</time>
      </trkpt>
      <trkpt lat="44.96585" lon="5.8013">
        <ele>1043.6</ele>
        <time>2022-07-16T06:14:39Z</time>
      </trkpt>
      <trkpt lat="44.96589" lon="5.80137">
        <ele>1043.7</ele>
        <time>2022-07-16T06:14:40Z</time>
      </trkpt>
      <trkpt lat="44.96592" lon="5.80143">
        <ele>1043.7</ele>
        <time>2022-07-16T06:14:41Z</time>
      </trkpt>
      <trkpt lat="44.96596" lon="5.80149">
        <ele>1043.8</ele>
        <time>2022-07-16T06:14:42Z</time>
      </trkpt>
      <trkpt lat="44.966" lon="5.80155">
        <ele>1043.8</ele>
        <time>2022-07-16T06:14:43Z</time>
      </trkpt>
      <trkpt lat="44.96604" lon="5.80161">
        <ele>1043.9</ele>
        <time>2022-07-16T06:14:44Z</time>
      </trkpt>
      <trkpt lat="44.96608" lon="5.80167">
        <ele>1044</ele>
        <time>2022-07-16T06:14:45Z</time>
      </trkpt>
      <trkpt lat="44.96612" lon="5.80173">
        <ele>1044.1</ele>
        <time>2022-07-16T06:14:46Z</time>
      </trkpt>
      <trkpt lat="44.96616" lon="5.80179">
        <ele>1044.2</ele>
        <time>2022-07-16T06:14:47Z</time>
      </trkpt>
      <trkpt lat="44.96619" lon="5.80186">
        <ele>1044.3</ele>
        <time>2022-07-16T06:14:48Z</time>
      </trkpt>
      <trkpt lat="44.96623" lon="5.80192">
        <ele>1044.4</ele>
        <time>2022-07-16T06:14:49Z</time>
      </trkpt>
      <trkpt lat="44.96626" lon="5.80198">
        <ele>1044.4</ele>
        <time>2022-07-16T06:14:50Z</time>
      </trkpt>
      <trkpt lat="44.9663" lon="5.80205">
        <ele>1044.5</ele>
        <time>2022-07-16T06:14:51Z</time>
      </trkpt>
      <trkpt lat="44.96633" lon="5.80211">
        <ele>1044.6</ele>
        <time>2022-07-16T06:14:52Z</time>
      </trkpt>
      <trkpt lat="44.96637" lon="5.80217">
        <ele>1044.6</ele>
        <time>2022-07-16T06:14:53Z</time>
      </trkpt>
      <trkpt lat="44.96641" lon="5.80222">
        <ele>1044.7</ele>
        <time>2022-07-16T06:14:54Z</time>
      </trkpt>
      <trkpt lat="44.96645" lon="5.80227">
        <ele>1044.7</ele>
        <time>2022-07-16T06:14:55Z</time>
      </trkpt>
      <trkpt lat="44.9665" lon="5.80231">
        <ele>1044.7</ele>
        <time>2022-07-16T06:14:56Z</time>
      </trkpt>
      <trkpt lat="44.96655" lon="5.80236">
        <ele>1044.8</ele>
        <time>2022-07-16T06:14:57Z</time>
      </trkpt>
      <trkpt lat="44.9666" lon="5.8024">
        <ele>1044.8</ele>
        <time>2022-07-16T06:14:58Z</time>
      </trkpt>
      <trkpt lat="44.96665" lon="5.80243">
        <ele>1044.8</ele>
        <time>2022-07-16T06:14:59Z</time>
      </trkpt>
      <trkpt lat="44.9667" lon="5.80246">
        <ele>1044.8</ele>
        <time>2022-07-16T06:15:00Z</time>
      </trkpt>
      <trkpt lat="44.96676" lon="5.80249">
        <ele>1044.8</ele>
        <time>2022-07-16T06:15:01Z</time>
      </trkpt>
      <trkpt lat="44.96681" lon="5.80251">
        <ele>1044.8</ele>
        <time>2022-07-16T06:15:02Z</time>
      </trkpt>
      <trkpt lat="44.96687" lon="5.80253">
        <ele>1044.7</ele>
        <time>2022-07-16T06:15:03Z</time>
      </trkpt>
      <trkpt lat="44.96693" lon="5.80255">
        <ele>1044.7</ele>
        <time>2022-07-16T06:15:04Z</time>
      </trkpt>
      <trkpt lat="44.96699" lon="5.80256">
        <ele>1044.7</ele>
        <time>2022-07-16T06:15:05Z</time>
      </trkpt>
      <trkpt lat="44.96704" lon="5.80257">
        <ele>1044.7</ele>
        <time>2022-07-16T06:15:06Z</time>
      </trkpt>
      <trkpt lat="44.9671" lon="5.80259">
        <ele>1044.7</ele>
        <time>2022-07-16T06:15:07Z</time>
      </trkpt>
      <trkpt lat="44.96716" lon="5.80259">
        <ele>1044.7</ele>
        <time>2022-07-16T06:15:08Z</time>
      </trkpt>
      <trkpt lat="44.96721" lon="5.8026">
        <ele>1044.7</ele>
        <time>2022-07-16T06:15:09Z</time>
      </trkpt>
      <trkpt lat="44.96728" lon="5.80261">
        <ele>1044.7</ele>
        <time>2022-07-16T06:15:10Z</time>
      </trkpt>
      <trkpt lat="44.96735" lon="5.80263">
        <ele>1044.8</ele>
        <time>2022-07-16T06:15:11Z</time>
      </trkpt>
      <trkpt lat="44.9674" lon="5.80264">
        <ele>1044.8</ele>
        <time>2022-07-16T06:15:12Z</time>
      </trkpt>
      <trkpt lat="44.96745" lon="5.80264">
        <ele>1044.8</ele>
        <time>2022-07-16T06:15:13Z</time>
      </trkpt>
      <trkpt lat="44.96751" lon="5.80265">
        <ele>1044.8</ele>
        <time>2022-07-16T06:15:14Z</time>
      </trkpt>
      <trkpt lat="44.96757" lon="5.80266">
        <ele>1044.8</ele>
        <time>2022-07-16T06:15:15Z</time>
      </trkpt>
      <trkpt lat="44.96763" lon="5.80267">
        <ele>1044.7</ele>
        <time>2022-07-16T06:15:16Z</time>
      </trkpt>
      <trkpt lat="44.96769" lon="5.80267">
        <ele>1044.7</ele>
        <time>2022-07-16T06:15:17Z</time>
      </trkpt>
      <trkpt lat="44.96775" lon="5.80266">
        <ele>1044.7</ele>
        <time>2022-07-16T06:15:18Z</time>
      </trkpt>
      <trkpt lat="44.96781" lon="5.80264">
        <ele>1044.6</ele>
        <time>2022-07-16T06:15:19Z</time>
      </trkpt>
      <trkpt lat="44.96788" lon="5.80262">
        <ele>1044.6</ele>
        <time>2022-07-16T06:15:20Z</time>
      </trkpt>
      <trkpt lat="44.96794" lon="5.80258">
        <ele>1044.6</ele>
        <time>2022-07-16T06:15:21Z</time>
      </trkpt>
      <trkpt lat="44.968" lon="5.80255">
        <ele>1044.6</ele>
        <time>2022-07-16T06:15:22Z</time>
      </trkpt>
      <trkpt lat="44.96805" lon="5.80252">
        <ele>1044.6</ele>
        <time>2022-07-16T06:15:23Z</time>
      </trkpt>
      <trkpt lat="44.96808" lon="5.80249">
        <ele>1044.6</ele>
        <time>2022-07-16T06:15:24Z</time>
      </trkpt>
      <trkpt lat="44.96811" lon="5.80247">
        <ele>1044.6</ele>
        <time>2022-07-16T06:15:25Z</time>
      </trkpt>
      <trkpt lat="44.96812" lon="5.80246">
        <ele>1044.7</ele>
        <time>2022-07-16T06:15:26Z</time>
      </trkpt>
      <trkpt lat="44.96814" lon="5.80245">
        <ele>1044.7</ele>
        <time>2022-07-16T06:15:27Z</time>
      </trkpt>
      <trkpt lat="44.96813" lon="5.80243">
        <ele>1044.7</ele>
        <time>2022-07-16T06:15:28Z</time>
      </trkpt>
      <trkpt lat="44.96812" lon="5.80242">
        <ele>1044.7</ele>
        <time>2022-07-16T06:15:29Z</time>
      </trkpt>
      <trkpt lat="44.96808" lon="5.80242">
        <ele>1044.7</ele>
        <time>2022-07-16T06:15:30Z</time>
      </trkpt>
      <trkpt lat="44.96806" lon="5.80244">
        <ele>1044.8</ele>
        <time>2022-07-16T06:15:32Z</time>
      </trkpt>
      <trkpt lat="44.96801" lon="5.80245">
        <ele>1044.9</ele>
        <time>2022-07-16T06:15:33Z</time>
      </trkpt>
      <trkpt lat="44.96798" lon="5.80247">
        <ele>1044.9</ele>
        <time>2022-07-16T06:15:34Z</time>
      </trkpt>
      <trkpt lat="44.96794" lon="5.80248">
        <ele>1045.1</ele>
        <time>2022-07-16T06:15:35Z</time>
      </trkpt>
      <trkpt lat="44.96791" lon="5.80251">
        <ele>1045.1</ele>
        <time>2022-07-16T06:15:36Z</time>
      </trkpt>
      <trkpt lat="44.96786" lon="5.80253">
        <ele>1045.3</ele>
        <time>2022-07-16T06:15:37Z</time>
      </trkpt>
      <trkpt lat="44.96785" lon="5.80263">
        <ele>1045.5</ele>
        <time>2022-07-16T06:15:39Z</time>
      </trkpt>
      <trkpt lat="44.9679" lon="5.80274">
        <ele>1045.8</ele>
        <time>2022-07-16T06:15:41Z</time>
      </trkpt>
      <trkpt lat="44.96795" lon="5.80276">
        <ele>1046</ele>
        <time>2022-07-16T06:15:42Z</time>
      </trkpt>
      <trkpt lat="44.96805" lon="5.80276">
        <ele>1046.3</ele>
        <time>2022-07-16T06:15:44Z</time>
      </trkpt>
      <trkpt lat="44.96812" lon="5.80275">
        <ele>1046.5</ele>
        <time>2022-07-16T06:15:45Z</time>
      </trkpt>
      <trkpt lat="44.96816" lon="5.80275">
        <ele>1046.6</ele>
        <time>2022-07-16T06:15:46Z</time>
      </trkpt>
      <trkpt lat="44.96821" lon="5.80276">
        <ele>1046.8</ele>
        <time>2022-07-16T06:15:47Z</time>
      </trkpt>
      <trkpt lat="44.96833" lon="5.80278">
        <ele>1047.2</ele>
        <time>2022-07-16T06:15:50Z</time>
      </trkpt>
      <trkpt lat="44.96838" lon="5.80279">
        <ele>1047.3</ele>
        <time>2022-07-16T06:15:51Z</time>
      </trkpt>
      <trkpt lat="44.96842" lon="5.80279">
        <ele>1047.5</ele>
        <time>2022-07-16T06:15:52Z</time>
      </trkpt>
      <trkpt lat="44.96847" lon="5.8028">
        <ele>1047.6</ele>
        <time>2022-07-16T06:15:53Z</time>
      </trkpt>
      <trkpt lat="44.96852" lon="5.80281">
        <ele>1047.8</ele>
        <time>2022-07-16T06:15:54Z</time>
      </trkpt>
      <trkpt lat="44.96857" lon="5.80282">
        <ele>1047.9</ele>
        <time>2022-07-16T06:15:55Z</time>
      </trkpt>
      <trkpt lat="44.96862" lon="5.80284">
        <ele>1048.1</ele>
        <time>2022-07-16T06:15:56Z</time>
      </trkpt>
      <trkpt lat="44.96867" lon="5.80286">
        <ele>1048.3</ele>
        <time>2022-07-16T06:15:57Z</time>
      </trkpt>
      <trkpt lat="44.96872" lon="5.80287">
        <ele>1048.4</ele>
        <time>2022-07-16T06:15:58Z</time>
      </trkpt>
      <trkpt lat="44.96877" lon="5.80287">
        <ele>1048.6</ele>
        <time>2022-07-16T06:15:59Z</time>
      </trkpt>
      <trkpt lat="44.96882" lon="5.80288">
        <ele>1048.7</ele>
        <time>2022-07-16T06:16:00Z</time>
      </trkpt>
      <trkpt lat="44.96887" lon="5.80289">
        <ele>1048.9</ele>
        <time>2022-07-16T06:16:01Z</time>
      </trkpt>
      <trkpt lat="44.96892" lon="5.8029">
        <ele>1049</ele>
        <time>2022-07-16T06:16:02Z</time>
      </trkpt>
      <trkpt lat="44.96897" lon="5.80291">
        <ele>1049.2</ele>
        <time>2022-07-16T06:16:03Z</time>
      </trkpt>
      <trkpt lat="44.96901" lon="5.80292">
        <ele>1049.3</ele>
        <time>2022-07-16T06:16:04Z</time>
      </trkpt>
      <trkpt lat="44.96906" lon="5.80293">
        <ele>1049.4</ele>
        <time>2022-07-16T06:16:05Z</time>
      </trkpt>
      <trkpt lat="44.9691" lon="5.80294">
        <ele>1049.4</ele>
        <time>2022-07-16T06:16:06Z</time>
      </trkpt>
      <trkpt lat="44.96915" lon="5.80295">
        <ele>1049.5</ele>
        <time>2022-07-16T06:16:07Z</time>
      </trkpt>
      <trkpt lat="44.9692" lon="5.80296">
        <ele>1049.5</ele>
        <time>2022-07-16T06:16:08Z</time>
      </trkpt>
      <trkpt lat="44.96924" lon="5.80299">
        <ele>1049.5</ele>
        <time>2022-07-16T06:16:09Z</time>
      </trkpt>
      <trkpt lat="44.96928" lon="5.80299">
        <ele>1049.5</ele>
        <time>2022-07-16T06:16:10Z</time>
      </trkpt>
      <trkpt lat="44.96933" lon="5.80301">
        <ele>1049.5</ele>
        <time>2022-07-16T06:16:11Z</time>
      </trkpt>
      <trkpt lat="44.96936" lon="5.80301">
        <ele>1049.5</ele>
        <time>2022-07-16T06:16:12Z</time>
      </trkpt>
      <trkpt lat="44.96939" lon="5.80302">
        <ele>1049.5</ele>
        <time>2022-07-16T06:16:13Z</time>
      </trkpt>
      <trkpt lat="44.96945" lon="5.80301">
        <ele>1049.5</ele>
        <time>2022-07-16T06:16:14Z</time>
      </trkpt>
      <trkpt lat="44.96951" lon="5.80302">
        <ele>1049.5</ele>
        <time>2022-07-16T06:16:15Z</time>
      </trkpt>
      <trkpt lat="44.96957" lon="5.80303">
        <ele>1049.4</ele>
        <time>2022-07-16T06:16:16Z</time>
      </trkpt>
      <trkpt lat="44.96967" lon="5.80306">
        <ele>1049.3</ele>
        <time>2022-07-16T06:16:17Z</time>
      </trkpt>
      <trkpt lat="44.96966" lon="5.8031">
        <ele>1049.3</ele>
        <time>2022-07-16T06:16:18Z</time>
      </trkpt>
      <trkpt lat="44.96972" lon="5.80312">
        <ele>1049.2</ele>
        <time>2022-07-16T06:16:19Z</time>
      </trkpt>
      <trkpt lat="44.96977" lon="5.80303">
        <ele>1049.1</ele>
        <time>2022-07-16T06:16:21Z</time>
      </trkpt>
      <trkpt lat="44.96987" lon="5.80309">
        <ele>1049</ele>
        <time>2022-07-16T06:16:22Z</time>
      </trkpt>
      <trkpt lat="44.96997" lon="5.8031">
        <ele>1049</ele>
        <time>2022-07-16T06:16:24Z</time>
      </trkpt>
      <trkpt lat="44.97003" lon="5.80311">
        <ele>1049</ele>
        <time>2022-07-16T06:16:26Z</time>
      </trkpt>
      <trkpt lat="44.97011" lon="5.80311">
        <ele>1049</ele>
        <time>2022-07-16T06:16:27Z</time>
      </trkpt>
      <trkpt lat="44.97025" lon="5.80308">
        <ele>1049</ele>
        <time>2022-07-16T06:16:30Z</time>
      </trkpt>
      <trkpt lat="44.97032" lon="5.80309">
        <ele>1049.1</ele>
        <time>2022-07-16T06:16:31Z</time>
      </trkpt>
      <trkpt lat="44.9704" lon="5.80311">
        <ele>1049.1</ele>
        <time>2022-07-16T06:16:32Z</time>
      </trkpt>
      <trkpt lat="44.97047" lon="5.80311">
        <ele>1049.1</ele>
        <time>2022-07-16T06:16:33Z</time>
      </trkpt>
      <trkpt lat="44.97054" lon="5.80312">
        <ele>1049.2</ele>
        <time>2022-07-16T06:16:34Z</time>
      </trkpt>
      <trkpt lat="44.9706" lon="5.80314">
        <ele>1049.2</ele>
        <time>2022-07-16T06:16:35Z</time>
      </trkpt>
      <trkpt lat="44.97067" lon="5.80317">
        <ele>1049.3</ele>
        <time>2022-07-16T06:16:36Z</time>
      </trkpt>
      <trkpt lat="44.97072" lon="5.80319">
        <ele>1049.3</ele>
        <time>2022-07-16T06:16:37Z</time>
      </trkpt>
      <trkpt lat="44.97078" lon="5.80321">
        <ele>1049.3</ele>
        <time>2022-07-16T06:16:38Z</time>
      </trkpt>
      <trkpt lat="44.97083" lon="5.80325">
        <ele>1049.4</ele>
        <time>2022-07-16T06:16:39Z</time>
      </trkpt>
      <trkpt lat="44.97089" lon="5.80328">
        <ele>1049.4</ele>
        <time>2022-07-16T06:16:40Z</time>
      </trkpt>
      <trkpt lat="44.97095" lon="5.8033">
        <ele>1049.4</ele>
        <time>2022-07-16T06:16:41Z</time>
      </trkpt>
      <trkpt lat="44.97102" lon="5.80333">
        <ele>1049.3</ele>
        <time>2022-07-16T06:16:42Z</time>
      </trkpt>
      <trkpt lat="44.97106" lon="5.80336">
        <ele>1049.3</ele>
        <time>2022-07-16T06:16:43Z</time>
      </trkpt>
      <trkpt lat="44.97112" lon="5.80339">
        <ele>1049.2</ele>
        <time>2022-07-16T06:16:44Z</time>
      </trkpt>
      <trkpt lat="44.97117" lon="5.80341">
        <ele>1049.2</ele>
        <time>2022-07-16T06:16:45Z</time>
      </trkpt>
      <trkpt lat="44.97123" lon="5.80342">
        <ele>1049.1</ele>
        <time>2022-07-16T06:16:46Z</time>
      </trkpt>
      <trkpt lat="44.97129" lon="5.80344">
        <ele>1049</ele>
        <time>2022-07-16T06:16:47Z</time>
      </trkpt>
      <trkpt lat="44.97135" lon="5.80346">
        <ele>1048.9</ele>
        <time>2022-07-16T06:16:48Z</time>
      </trkpt>
      <trkpt lat="44.9714" lon="5.80347">
        <ele>1048.8</ele>
        <time>2022-07-16T06:16:49Z</time>
      </trkpt>
      <trkpt lat="44.97146" lon="5.80349">
        <ele>1048.7</ele>
        <time>2022-07-16T06:16:50Z</time>
      </trkpt>
      <trkpt lat="44.9715" lon="5.80351">
        <ele>1048.6</ele>
        <time>2022-07-16T06:16:51Z</time>
      </trkpt>
      <trkpt lat="44.97155" lon="5.80354">
        <ele>1048.5</ele>
        <time>2022-07-16T06:16:52Z</time>
      </trkpt>
      <trkpt lat="44.97161" lon="5.80356">
        <ele>1048.4</ele>
        <time>2022-07-16T06:16:53Z</time>
      </trkpt>
      <trkpt lat="44.97168" lon="5.80358">
        <ele>1048.3</ele>
        <time>2022-07-16T06:16:54Z</time>
      </trkpt>
      <trkpt lat="44.97176" lon="5.80359">
        <ele>1048.2</ele>
        <time>2022-07-16T06:16:55Z</time>
      </trkpt>
      <trkpt lat="44.97183" lon="5.80362">
        <ele>1048.1</ele>
        <time>2022-07-16T06:16:56Z</time>
      </trkpt>
      <trkpt lat="44.9719" lon="5.80364">
        <ele>1048</ele>
        <time>2022-07-16T06:16:57Z</time>
      </trkpt>
      <trkpt lat="44.97197" lon="5.80367">
        <ele>1047.9</ele>
        <time>2022-07-16T06:16:58Z</time>
      </trkpt>
      <trkpt lat="44.97203" lon="5.8037">
        <ele>1047.9</ele>
        <time>2022-07-16T06:16:59Z</time>
      </trkpt>
      <trkpt lat="44.9721" lon="5.80372">
        <ele>1047.9</ele>
        <time>2022-07-16T06:17:00Z</time>
      </trkpt>
      <trkpt lat="44.97216" lon="5.80373">
        <ele>1047.8</ele>
        <time>2022-07-16T06:17:01Z</time>
      </trkpt>
      <trkpt lat="44.97222" lon="5.80375">
        <ele>1047.8</ele>
        <time>2022-07-16T06:17:02Z</time>
      </trkpt>
      <trkpt lat="44.97229" lon="5.80377">
        <ele>1047.8</ele>
        <time>2022-07-16T06:17:03Z</time>
      </trkpt>
      <trkpt lat="44.97235" lon="5.80378">
        <ele>1047.9</ele>
        <time>2022-07-16T06:17:04Z</time>
      </trkpt>
      <trkpt lat="44.97242" lon="5.8038">
        <ele>1047.9</ele>
        <time>2022-07-16T06:17:05Z</time>
      </trkpt>
      <trkpt lat="44.97248" lon="5.80381">
        <ele>1048</ele>
        <time>2022-07-16T06:17:06Z</time>
      </trkpt>
      <trkpt lat="44.97254" lon="5.80382">
        <ele>1048</ele>
        <time>2022-07-16T06:17:07Z</time>
      </trkpt>
      <trkpt lat="44.97261" lon="5.80385">
        <ele>1048.1</ele>
        <time>2022-07-16T06:17:08Z</time>
      </trkpt>
      <trkpt lat="44.97268" lon="5.80387">
        <ele>1048.2</ele>
        <time>2022-07-16T06:17:09Z</time>
      </trkpt>
      <trkpt lat="44.97275" lon="5.80389">
        <ele>1048.2</ele>
        <time>2022-07-16T06:17:10Z</time>
      </trkpt>
      <trkpt lat="44.97281" lon="5.80391">
        <ele>1048.3</ele>
        <time>2022-07-16T06:17:11Z</time>
      </trkpt>
      <trkpt lat="44.97287" lon="5.80394">
        <ele>1048.3</ele>
        <time>2022-07-16T06:17:12Z</time>
      </trkpt>
      <trkpt lat="44.97294" lon="5.80396">
        <ele>1048.3</ele>
        <time>2022-07-16T06:17:13Z</time>
      </trkpt>
      <trkpt lat="44.973" lon="5.80396">
        <ele>1048.2</ele>
        <time>2022-07-16T06:17:14Z</time>
      </trkpt>
      <trkpt lat="44.97307" lon="5.80395">
        <ele>1048.2</ele>
        <time>2022-07-16T06:17:15Z</time>
      </trkpt>
      <trkpt lat="44.97313" lon="5.80394">
        <ele>1048</ele>
        <time>2022-07-16T06:17:16Z</time>
      </trkpt>
      <trkpt lat="44.9732" lon="5.80394">
        <ele>1047.9</ele>
        <time>2022-07-16T06:17:17Z</time>
      </trkpt>
      <trkpt lat="44.97327" lon="5.80392">
        <ele>1047.8</ele>
        <time>2022-07-16T06:17:18Z</time>
      </trkpt>
      <trkpt lat="44.97333" lon="5.8039">
        <ele>1047.7</ele>
        <time>2022-07-16T06:17:19Z</time>
      </trkpt>
      <trkpt lat="44.9734" lon="5.80388">
        <ele>1047.5</ele>
        <time>2022-07-16T06:17:20Z</time>
      </trkpt>
      <trkpt lat="44.97347" lon="5.80386">
        <ele>1047.3</ele>
        <time>2022-07-16T06:17:21Z</time>
      </trkpt>
      <trkpt lat="44.97354" lon="5.80383">
        <ele>1047.1</ele>
        <time>2022-07-16T06:17:22Z</time>
      </trkpt>
      <trkpt lat="44.97361" lon="5.80381">
        <ele>1046.8</ele>
        <time>2022-07-16T06:17:23Z</time>
      </trkpt>
      <trkpt lat="44.97369" lon="5.80379">
        <ele>1046.6</ele>
        <time>2022-07-16T06:17:24Z</time>
      </trkpt>
      <trkpt lat="44.97376" lon="5.80379">
        <ele>1046.3</ele>
        <time>2022-07-16T06:17:25Z</time>
      </trkpt>
      <trkpt lat="44.97383" lon="5.80377">
        <ele>1046.1</ele>
        <time>2022-07-16T06:17:26Z</time>
      </trkpt>
      <trkpt lat="44.97389" lon="5.80373">
        <ele>1045.8</ele>
        <time>2022-07-16T06:17:27Z</time>
      </trkpt>
      <trkpt lat="44.97396" lon="5.80369">
        <ele>1045.5</ele>
        <time>2022-07-16T06:17:28Z</time>
      </trkpt>
      <trkpt lat="44.97403" lon="5.80366">
        <ele>1045.1</ele>
        <time>2022-07-16T06:17:29Z</time>
      </trkpt>
      <trkpt lat="44.97411" lon="5.80364">
        <ele>1044.7</ele>
        <time>2022-07-16T06:17:30Z</time>
      </trkpt>
      <trkpt lat="44.9742" lon="5.80363">
        <ele>1044.2</ele>
        <time>2022-07-16T06:17:31Z</time>
      </trkpt>
      <trkpt lat="44.97428" lon="5.80361">
        <ele>1043.7</ele>
        <time>2022-07-16T06:17:32Z</time>
      </trkpt>
      <trkpt lat="44.97437" lon="5.8036">
        <ele>1043.2</ele>
        <time>2022-07-16T06:17:33Z</time>
      </trkpt>
      <trkpt lat="44.97446" lon="5.80359">
        <ele>1042.7</ele>
        <time>2022-07-16T06:17:34Z</time>
      </trkpt>
      <trkpt lat="44.97455" lon="5.80357">
        <ele>1042.3</ele>
        <time>2022-07-16T06:17:35Z</time>
      </trkpt>
      <trkpt lat="44.97464" lon="5.80356">
        <ele>1041.8</ele>
        <time>2022-07-16T06:17:36Z</time>
      </trkpt>
      <trkpt lat="44.97473" lon="5.80354">
        <ele>1041.4</ele>
        <time>2022-07-16T06:17:37Z</time>
      </trkpt>
      <trkpt lat="44.97482" lon="5.80352">
        <ele>1041.1</ele>
        <time>2022-07-16T06:17:38Z</time>
      </trkpt>
      <trkpt lat="44.97491" lon="5.80353">
        <ele>1040.9</ele>
        <time>2022-07-16T06:17:39Z</time>
      </trkpt>
      <trkpt lat="44.975" lon="5.80354">
        <ele>1040.8</ele>
        <time>2022-07-16T06:17:40Z</time>
      </trkpt>
      <trkpt lat="44.97509" lon="5.80356">
        <ele>1040.8</ele>
        <time>2022-07-16T06:17:41Z</time>
      </trkpt>
      <trkpt lat="44.97518" lon="5.80358">
        <ele>1040.9</ele>
        <time>2022-07-16T06:17:42Z</time>
      </trkpt>
      <trkpt lat="44.97526" lon="5.80362">
        <ele>1040.9</ele>
        <time>2022-07-16T06:17:43Z</time>
      </trkpt>
      <trkpt lat="44.97534" lon="5.80365">
        <ele>1041.1</ele>
        <time>2022-07-16T06:17:44Z</time>
      </trkpt>
      <trkpt lat="44.97543" lon="5.80367">
        <ele>1041.2</ele>
        <time>2022-07-16T06:17:45Z</time>
      </trkpt>
      <trkpt lat="44.97551" lon="5.80369">
        <ele>1041.5</ele>
        <time>2022-07-16T06:17:46Z</time>
      </trkpt>
      <trkpt lat="44.97559" lon="5.80371">
        <ele>1041.8</ele>
        <time>2022-07-16T06:17:47Z</time>
      </trkpt>
      <trkpt lat="44.97566" lon="5.80373">
        <ele>1042</ele>
        <time>2022-07-16T06:17:48Z</time>
      </trkpt>
      <trkpt lat="44.97572" lon="5.80376">
        <ele>1042.3</ele>
        <time>2022-07-16T06:17:49Z</time>
      </trkpt>
      <trkpt lat="44.97579" lon="5.80378">
        <ele>1042.5</ele>
        <time>2022-07-16T06:17:50Z</time>
      </trkpt>
      <trkpt lat="44.97585" lon="5.80381">
        <ele>1042.8</ele>
        <time>2022-07-16T06:17:51Z</time>
      </trkpt>
      <trkpt lat="44.97591" lon="5.80384">
        <ele>1043.1</ele>
        <time>2022-07-16T06:17:52Z</time>
      </trkpt>
      <trkpt lat="44.97596" lon="5.80387">
        <ele>1043.3</ele>
        <time>2022-07-16T06:17:53Z</time>
      </trkpt>
      <trkpt lat="44.97602" lon="5.80389">
        <ele>1043.6</ele>
        <time>2022-07-16T06:17:54Z</time>
      </trkpt>
      <trkpt lat="44.97607" lon="5.80392">
        <ele>1043.9</ele>
        <time>2022-07-16T06:17:55Z</time>
      </trkpt>
      <trkpt lat="44.97612" lon="5.80394">
        <ele>1044.2</ele>
        <time>2022-07-16T06:17:56Z</time>
      </trkpt>
      <trkpt lat="44.97617" lon="5.80396">
        <ele>1044.5</ele>
        <time>2022-07-16T06:17:57Z</time>
      </trkpt>
      <trkpt lat="44.97622" lon="5.80399">
        <ele>1044.8</ele>
        <time>2022-07-16T06:17:58Z</time>
      </trkpt>
      <trkpt lat="44.97627" lon="5.80401">
        <ele>1045.1</ele>
        <time>2022-07-16T06:17:59Z</time>
      </trkpt>
      <trkpt lat="44.97632" lon="5.80403">
        <ele>1045.4</ele>
        <time>2022-07-16T06:18:00Z</time>
      </trkpt>
      <trkpt lat="44.97636" lon="5.80404">
        <ele>1045.5</ele>
        <time>2022-07-16T06:18:01Z</time>
      </trkpt>
      <trkpt lat="44.97641" lon="5.80404">
        <ele>1045.5</ele>
        <time>2022-07-16T06:18:02Z</time>
      </trkpt>
      <trkpt lat="44.97646" lon="5.80403">
        <ele>1045.5</ele>
        <time>2022-07-16T06:18:03Z</time>
      </trkpt>
      <trkpt lat="44.97651" lon="5.80402">
        <ele>1045.5</ele>
        <time>2022-07-16T06:18:04Z</time>
      </trkpt>
      <trkpt lat="44.97656" lon="5.80401">
        <ele>1045.6</ele>
        <time>2022-07-16T06:18:05Z</time>
      </trkpt>
      <trkpt lat="44.97661" lon="5.804">
        <ele>1045.6</ele>
        <time>2022-07-16T06:18:06Z</time>
      </trkpt>
      <trkpt lat="44.97667" lon="5.80399">
        <ele>1045.6</ele>
        <time>2022-07-16T06:18:07Z</time>
      </trkpt>
      <trkpt lat="44.97673" lon="5.80398">
        <ele>1045.7</ele>
        <time>2022-07-16T06:18:08Z</time>
      </trkpt>
      <trkpt lat="44.97678" lon="5.80396">
        <ele>1045.8</ele>
        <time>2022-07-16T06:18:09Z</time>
      </trkpt>
      <trkpt lat="44.97684" lon="5.80395">
        <ele>1045.9</ele>
        <time>2022-07-16T06:18:10Z</time>
      </trkpt>
      <trkpt lat="44.97689" lon="5.80393">
        <ele>1046</ele>
        <time>2022-07-16T06:18:11Z</time>
      </trkpt>
      <trkpt lat="44.97695" lon="5.80393">
        <ele>1046.1</ele>
        <time>2022-07-16T06:18:12Z</time>
      </trkpt>
      <trkpt lat="44.977" lon="5.80392">
        <ele>1046.2</ele>
        <time>2022-07-16T06:18:13Z</time>
      </trkpt>
      <trkpt lat="44.97705" lon="5.8039">
        <ele>1046.4</ele>
        <time>2022-07-16T06:18:14Z</time>
      </trkpt>
      <trkpt lat="44.9771" lon="5.8039">
        <ele>1046.5</ele>
        <time>2022-07-16T06:18:15Z</time>
      </trkpt>
      <trkpt lat="44.97715" lon="5.80389">
        <ele>1046.7</ele>
        <time>2022-07-16T06:18:16Z</time>
      </trkpt>
      <trkpt lat="44.9772" lon="5.80388">
        <ele>1046.8</ele>
        <time>2022-07-16T06:18:17Z</time>
      </trkpt>
      <trkpt lat="44.97725" lon="5.80388">
        <ele>1047</ele>
        <time>2022-07-16T06:18:18Z</time>
      </trkpt>
      <trkpt lat="44.9773" lon="5.80388">
        <ele>1047.2</ele>
        <time>2022-07-16T06:18:19Z</time>
      </trkpt>
      <trkpt lat="44.97734" lon="5.80388">
        <ele>1047.4</ele>
        <time>2022-07-16T06:18:20Z</time>
      </trkpt>
      <trkpt lat="44.97739" lon="5.80388">
        <ele>1047.7</ele>
        <time>2022-07-16T06:18:21Z</time>
      </trkpt>
      <trkpt lat="44.97742" lon="5.80389">
        <ele>1047.9</ele>
        <time>2022-07-16T06:18:22Z</time>
      </trkpt>
      <trkpt lat="44.97746" lon="5.80391">
        <ele>1048.1</ele>
        <time>2022-07-16T06:18:23Z</time>
      </trkpt>
      <trkpt lat="44.9775" lon="5.80393">
        <ele>1048.3</ele>
        <time>2022-07-16T06:18:24Z</time>
      </trkpt>
      <trkpt lat="44.97754" lon="5.80395">
        <ele>1048.5</ele>
        <time>2022-07-16T06:18:25Z</time>
      </trkpt>
      <trkpt lat="44.97757" lon="5.80399">
        <ele>1048.7</ele>
        <time>2022-07-16T06:18:26Z</time>
      </trkpt>
      <trkpt lat="44.9776" lon="5.80403">
        <ele>1048.9</ele>
        <time>2022-07-16T06:18:27Z</time>
      </trkpt>
      <trkpt lat="44.97757" lon="5.80409">
        <ele>1049.1</ele>
        <time>2022-07-16T06:18:28Z</time>
      </trkpt>
      <trkpt lat="44.97768" lon="5.80417">
        <ele>1049.7</ele>
        <time>2022-07-16T06:18:30Z</time>
      </trkpt>
      <trkpt lat="44.97774" lon="5.80427">
        <ele>1050.2</ele>
        <time>2022-07-16T06:18:32Z</time>
      </trkpt>
      <trkpt lat="44.97776" lon="5.80433">
        <ele>1050.4</ele>
        <time>2022-07-16T06:18:33Z</time>
      </trkpt>
      <trkpt lat="44.97777" lon="5.80436">
        <ele>1050.5</ele>
        <time>2022-07-16T06:18:34Z</time>
      </trkpt>
      <trkpt lat="44.9778" lon="5.80441">
        <ele>1050.8</ele>
        <time>2022-07-16T06:18:35Z</time>
      </trkpt>
      <trkpt lat="44.97782" lon="5.80445">
        <ele>1051</ele>
        <time>2022-07-16T06:18:36Z</time>
      </trkpt>
      <trkpt lat="44.97783" lon="5.80449">
        <ele>1051.1</ele>
        <time>2022-07-16T06:18:37Z</time>
      </trkpt>
      <trkpt lat="44.97785" lon="5.80454">
        <ele>1051.3</ele>
        <time>2022-07-16T06:18:38Z</time>
      </trkpt>
      <trkpt lat="44.97785" lon="5.80462">
        <ele>1051.6</ele>
        <time>2022-07-16T06:18:39Z</time>
      </trkpt>
      <trkpt lat="44.97787" lon="5.80466">
        <ele>1051.8</ele>
        <time>2022-07-16T06:18:41Z</time>
      </trkpt>
      <trkpt lat="44.97788" lon="5.80472">
        <ele>1052.1</ele>
        <time>2022-07-16T06:18:42Z</time>
      </trkpt>
      <trkpt lat="44.97789" lon="5.80476">
        <ele>1052.3</ele>
        <time>2022-07-16T06:18:43Z</time>
      </trkpt>
      <trkpt lat="44.97791" lon="5.80481">
        <ele>1052.5</ele>
        <time>2022-07-16T06:18:45Z</time>
      </trkpt>
      <trkpt lat="44.97792" lon="5.80484">
        <ele>1052.5</ele>
        <time>2022-07-16T06:18:46Z</time>
      </trkpt>
      <trkpt lat="44.97798" lon="5.80486">
        <ele>1052.5</ele>
        <time>2022-07-16T06:18:48Z</time>
      </trkpt>
      <trkpt lat="44.97803" lon="5.80485">
        <ele>1052.6</ele>
        <time>2022-07-16T06:18:49Z</time>
      </trkpt>
      <trkpt lat="44.97806" lon="5.80484">
        <ele>1052.6</ele>
        <time>2022-07-16T06:18:50Z</time>
      </trkpt>
      <trkpt lat="44.97815" lon="5.80484">
        <ele>1052.6</ele>
        <time>2022-07-16T06:18:52Z</time>
      </trkpt>
      <trkpt lat="44.9782" lon="5.80484">
        <ele>1052.6</ele>
        <time>2022-07-16T06:18:53Z</time>
      </trkpt>
      <trkpt lat="44.97826" lon="5.80485">
        <ele>1052.6</ele>
        <time>2022-07-16T06:18:54Z</time>
      </trkpt>
      <trkpt lat="44.97831" lon="5.80484">
        <ele>1052.6</ele>
        <time>2022-07-16T06:18:55Z</time>
      </trkpt>
      <trkpt lat="44.9784" lon="5.80483">
        <ele>1052.7</ele>
        <time>2022-07-16T06:18:57Z</time>
      </trkpt>
      <trkpt lat="44.97843" lon="5.80482">
        <ele>1052.7</ele>
        <time>2022-07-16T06:18:58Z</time>
      </trkpt>
      <trkpt lat="44.97847" lon="5.80482">
        <ele>1052.7</ele>
        <time>2022-07-16T06:18:59Z</time>
      </trkpt>
      <trkpt lat="44.9785" lon="5.8048">
        <ele>1052.7</ele>
        <time>2022-07-16T06:19:00Z</time>
      </trkpt>
      <trkpt lat="44.97855" lon="5.80475">
        <ele>1052.7</ele>
        <time>2022-07-16T06:19:02Z</time>
      </trkpt>
      <trkpt lat="44.97865" lon="5.80457">
        <ele>1052.6</ele>
        <time>2022-07-16T06:19:05Z</time>
      </trkpt>
      <trkpt lat="44.97869" lon="5.80453">
        <ele>1052.6</ele>
        <time>2022-07-16T06:19:06Z</time>
      </trkpt>
      <trkpt lat="44.97873" lon="5.80449">
        <ele>1052.6</ele>
        <time>2022-07-16T06:19:07Z</time>
      </trkpt>
      <trkpt lat="44.97878" lon="5.80447">
        <ele>1052.6</ele>
        <time>2022-07-16T06:19:08Z</time>
      </trkpt>
      <trkpt lat="44.97884" lon="5.80445">
        <ele>1052.6</ele>
        <time>2022-07-16T06:19:09Z</time>
      </trkpt>
      <trkpt lat="44.97889" lon="5.80443">
        <ele>1052.7</ele>
        <time>2022-07-16T06:19:10Z</time>
      </trkpt>
      <trkpt lat="44.97895" lon="5.80442">
        <ele>1052.7</ele>
        <time>2022-07-16T06:19:11Z</time>
      </trkpt>
      <trkpt lat="44.979" lon="5.80441">
        <ele>1052.8</ele>
        <time>2022-07-16T06:19:12Z</time>
      </trkpt>
      <trkpt lat="44.97905" lon="5.80442">
        <ele>1052.9</ele>
        <time>2022-07-16T06:19:13Z</time>
      </trkpt>
      <trkpt lat="44.9791" lon="5.80444">
        <ele>1053</ele>
        <time>2022-07-16T06:19:14Z</time>
      </trkpt>
      <trkpt lat="44.97915" lon="5.80443">
        <ele>1053.2</ele>
        <time>2022-07-16T06:19:15Z</time>
      </trkpt>
      <trkpt lat="44.9792" lon="5.80444">
        <ele>1053.3</ele>
        <time>2022-07-16T06:19:16Z</time>
      </trkpt>
      <trkpt lat="44.97922" lon="5.80444">
        <ele>1053.4</ele>
        <time>2022-07-16T06:19:17Z</time>
      </trkpt>
      <trkpt lat="44.97927" lon="5.80444">
        <ele>1053.5</ele>
        <time>2022-07-16T06:19:18Z</time>
      </trkpt>
      <trkpt lat="44.9793" lon="5.80442">
        <ele>1053.6</ele>
        <time>2022-07-16T06:19:19Z</time>
      </trkpt>
      <trkpt lat="44.97935" lon="5.80439">
        <ele>1053.6</ele>
        <time>2022-07-16T06:19:20Z</time>
      </trkpt>
      <trkpt lat="44.97938" lon="5.80426">
        <ele>1053.7</ele>
        <time>2022-07-16T06:19:22Z</time>
      </trkpt>
      <trkpt lat="44.97953" lon="5.80415">
        <ele>1053.9</ele>
        <time>2022-07-16T06:19:25Z</time>
      </trkpt>
      <trkpt lat="44.97957" lon="5.80411">
        <ele>1054</ele>
        <time>2022-07-16T06:19:26Z</time>
      </trkpt>
      <trkpt lat="44.97961" lon="5.80407">
        <ele>1054</ele>
        <time>2022-07-16T06:19:27Z</time>
      </trkpt>
      <trkpt lat="44.97965" lon="5.80402">
        <ele>1054</ele>
        <time>2022-07-16T06:19:28Z</time>
      </trkpt>
      <trkpt lat="44.97969" lon="5.80398">
        <ele>1054</ele>
        <time>2022-07-16T06:19:29Z</time>
      </trkpt>
      <trkpt lat="44.97973" lon="5.80393">
        <ele>1054.1</ele>
        <time>2022-07-16T06:19:30Z</time>
      </trkpt>
      <trkpt lat="44.97976" lon="5.80388">
        <ele>1054.1</ele>
        <time>2022-07-16T06:19:31Z</time>
      </trkpt>
      <trkpt lat="44.9798" lon="5.80383">
        <ele>1054.2</ele>
        <time>2022-07-16T06:19:32Z</time>
      </trkpt>
      <trkpt lat="44.97984" lon="5.80378">
        <ele>1054.2</ele>
        <time>2022-07-16T06:19:33Z</time>
      </trkpt>
      <trkpt lat="44.97989" lon="5.80374">
        <ele>1054.3</ele>
        <time>2022-07-16T06:19:34Z</time>
      </trkpt>
      <trkpt lat="44.97993" lon="5.8037">
        <ele>1054.4</ele>
        <time>2022-07-16T06:19:35Z</time>
      </trkpt>
      <trkpt lat="44.97997" lon="5.80365">
        <ele>1054.5</ele>
        <time>2022-07-16T06:19:36Z</time>
      </trkpt>
      <trkpt lat="44.98002" lon="5.80361">
        <ele>1054.7</ele>
        <time>2022-07-16T06:19:37Z</time>
      </trkpt>
      <trkpt lat="44.98006" lon="5.80358">
        <ele>1054.8</ele>
        <time>2022-07-16T06:19:38Z</time>
      </trkpt>
      <trkpt lat="44.9801" lon="5.80355">
        <ele>1055</ele>
        <time>2022-07-16T06:19:39Z</time>
      </trkpt>
      <trkpt lat="44.98015" lon="5.80353">
        <ele>1055.1</ele>
        <time>2022-07-16T06:19:40Z</time>
      </trkpt>
      <trkpt lat="44.9802" lon="5.80351">
        <ele>1055.2</ele>
        <time>2022-07-16T06:19:41Z</time>
      </trkpt>
      <trkpt lat="44.98025" lon="5.80349">
        <ele>1055.4</ele>
        <time>2022-07-16T06:19:42Z</time>
      </trkpt>
      <trkpt lat="44.9803" lon="5.80346">
        <ele>1055.6</ele>
        <time>2022-07-16T06:19:43Z</time>
      </trkpt>
      <trkpt lat="44.98035" lon="5.80344">
        <ele>1055.8</ele>
        <time>2022-07-16T06:19:44Z</time>
      </trkpt>
      <trkpt lat="44.98037" lon="5.80343">
        <ele>1055.9</ele>
        <time>2022-07-16T06:19:45Z</time>
      </trkpt>
      <trkpt lat="44.98042" lon="5.80341">
        <ele>1056.2</ele>
        <time>2022-07-16T06:19:46Z</time>
      </trkpt>
      <trkpt lat="44.98046" lon="5.8034">
        <ele>1056.5</ele>
        <time>2022-07-16T06:19:47Z</time>
      </trkpt>
      <trkpt lat="44.98049" lon="5.80338">
        <ele>1056.7</ele>
        <time>2022-07-16T06:19:48Z</time>
      </trkpt>
      <trkpt lat="44.98053" lon="5.80336">
        <ele>1057</ele>
        <time>2022-07-16T06:19:49Z</time>
      </trkpt>
      <trkpt lat="44.98061" lon="5.80333">
        <ele>1057.6</ele>
        <time>2022-07-16T06:19:51Z</time>
      </trkpt>
      <trkpt lat="44.98066" lon="5.80332">
        <ele>1057.9</ele>
        <time>2022-07-16T06:19:52Z</time>
      </trkpt>
      <trkpt lat="44.98074" lon="5.8033">
        <ele>1058.5</ele>
        <time>2022-07-16T06:19:54Z</time>
      </trkpt>
      <trkpt lat="44.98082" lon="5.8033">
        <ele>1059.1</ele>
        <time>2022-07-16T06:19:56Z</time>
      </trkpt>
      <trkpt lat="44.9809" lon="5.80329">
        <ele>1059.6</ele>
        <time>2022-07-16T06:19:58Z</time>
      </trkpt>
      <trkpt lat="44.98093" lon="5.80327">
        <ele>1059.9</ele>
        <time>2022-07-16T06:19:59Z</time>
      </trkpt>
      <trkpt lat="44.981" lon="5.80326">
        <ele>1060.3</ele>
        <time>2022-07-16T06:20:00Z</time>
      </trkpt>
      <trkpt lat="44.98103" lon="5.80325">
        <ele>1060.6</ele>
        <time>2022-07-16T06:20:02Z</time>
      </trkpt>
      <trkpt lat="44.98107" lon="5.80324">
        <ele>1060.8</ele>
        <time>2022-07-16T06:20:03Z</time>
      </trkpt>
      <trkpt lat="44.9811" lon="5.80322">
        <ele>1061</ele>
        <time>2022-07-16T06:20:04Z</time>
      </trkpt>
      <trkpt lat="44.98115" lon="5.80318">
        <ele>1061.3</ele>
        <time>2022-07-16T06:20:05Z</time>
      </trkpt>
      <trkpt lat="44.98126" lon="5.80314">
        <ele>1061.6</ele>
        <time>2022-07-16T06:20:07Z</time>
      </trkpt>
      <trkpt lat="44.9813" lon="5.80321">
        <ele>1061.8</ele>
        <time>2022-07-16T06:20:09Z</time>
      </trkpt>
      <trkpt lat="44.98138" lon="5.80312">
        <ele>1062</ele>
        <time>2022-07-16T06:20:10Z</time>
      </trkpt>
      <trkpt lat="44.9815" lon="5.80307">
        <ele>1062.3</ele>
        <time>2022-07-16T06:20:13Z</time>
      </trkpt>
      <trkpt lat="44.98162" lon="5.80302">
        <ele>1062.6</ele>
        <time>2022-07-16T06:20:14Z</time>
      </trkpt>
      <trkpt lat="44.98163" lon="5.80302">
        <ele>1062.6</ele>
        <time>2022-07-16T06:20:15Z</time>
      </trkpt>
      <trkpt lat="44.9817" lon="5.80299">
        <ele>1062.7</ele>
        <time>2022-07-16T06:20:17Z</time>
      </trkpt>
      <trkpt lat="44.98173" lon="5.80296">
        <ele>1062.8</ele>
        <time>2022-07-16T06:20:18Z</time>
      </trkpt>
      <trkpt lat="44.98187" lon="5.8029">
        <ele>1063</ele>
        <time>2022-07-16T06:20:20Z</time>
      </trkpt>
      <trkpt lat="44.98193" lon="5.80287">
        <ele>1063</ele>
        <time>2022-07-16T06:20:23Z</time>
      </trkpt>
      <trkpt lat="44.98197" lon="5.80286">
        <ele>1063</ele>
        <time>2022-07-16T06:20:24Z</time>
      </trkpt>
      <trkpt lat="44.98202" lon="5.80283">
        <ele>1063</ele>
        <time>2022-07-16T06:20:25Z</time>
      </trkpt>
      <trkpt lat="44.98207" lon="5.80281">
        <ele>1063</ele>
        <time>2022-07-16T06:20:26Z</time>
      </trkpt>
      <trkpt lat="44.98212" lon="5.80278">
        <ele>1063</ele>
        <time>2022-07-16T06:20:27Z</time>
      </trkpt>
      <trkpt lat="44.98217" lon="5.80276">
        <ele>1063</ele>
        <time>2022-07-16T06:20:28Z</time>
      </trkpt>
      <trkpt lat="44.98222" lon="5.80274">
        <ele>1063</ele>
        <time>2022-07-16T06:20:29Z</time>
      </trkpt>
      <trkpt lat="44.98227" lon="5.80271">
        <ele>1063</ele>
        <time>2022-07-16T06:20:30Z</time>
      </trkpt>
      <trkpt lat="44.98232" lon="5.80268">
        <ele>1062.9</ele>
        <time>2022-07-16T06:20:31Z</time>
      </trkpt>
      <trkpt lat="44.98237" lon="5.80264">
        <ele>1062.9</ele>
        <time>2022-07-16T06:20:32Z</time>
      </trkpt>
      <trkpt lat="44.98241" lon="5.8026">
        <ele>1062.9</ele>
        <time>2022-07-16T06:20:33Z</time>
      </trkpt>
      <trkpt lat="44.98247" lon="5.80256">
        <ele>1062.8</ele>
        <time>2022-07-16T06:20:34Z</time>
      </trkpt>
      <trkpt lat="44.98251" lon="5.80252">
        <ele>1062.8</ele>
        <time>2022-07-16T06:20:35Z</time>
      </trkpt>
      <trkpt lat="44.98257" lon="5.80249">
        <ele>1062.8</ele>
        <time>2022-07-16T06:20:36Z</time>
      </trkpt>
      <trkpt lat="44.98262" lon="5.80246">
        <ele>1062.8</ele>
        <time>2022-07-16T06:20:37Z</time>
      </trkpt>
      <trkpt lat="44.98268" lon="5.80243">
        <ele>1062.8</ele>
        <time>2022-07-16T06:20:38Z</time>
      </trkpt>
      <trkpt lat="44.98273" lon="5.8024">
        <ele>1062.8</ele>
        <time>2022-07-16T06:20:39Z</time>
      </trkpt>
      <trkpt lat="44.98278" lon="5.80237">
        <ele>1062.8</ele>
        <time>2022-07-16T06:20:40Z</time>
      </trkpt>
      <trkpt lat="44.98283" lon="5.80234">
        <ele>1062.8</ele>
        <time>2022-07-16T06:20:41Z</time>
      </trkpt>
      <trkpt lat="44.98288" lon="5.80231">
        <ele>1062.7</ele>
        <time>2022-07-16T06:20:42Z</time>
      </trkpt>
      <trkpt lat="44.98294" lon="5.80228">
        <ele>1062.7</ele>
        <time>2022-07-16T06:20:43Z</time>
      </trkpt>
      <trkpt lat="44.983" lon="5.80224">
        <ele>1062.6</ele>
        <time>2022-07-16T06:20:44Z</time>
      </trkpt>
      <trkpt lat="44.98305" lon="5.8022">
        <ele>1062.5</ele>
        <time>2022-07-16T06:20:45Z</time>
      </trkpt>
      <trkpt lat="44.98312" lon="5.80217">
        <ele>1062.4</ele>
        <time>2022-07-16T06:20:46Z</time>
      </trkpt>
      <trkpt lat="44.98318" lon="5.80214">
        <ele>1062.3</ele>
        <time>2022-07-16T06:20:47Z</time>
      </trkpt>
      <trkpt lat="44.98324" lon="5.8021">
        <ele>1062.3</ele>
        <time>2022-07-16T06:20:48Z</time>
      </trkpt>
      <trkpt lat="44.98329" lon="5.80207">
        <ele>1062.2</ele>
        <time>2022-07-16T06:20:49Z</time>
      </trkpt>
      <trkpt lat="44.98336" lon="5.80204">
        <ele>1062.2</ele>
        <time>2022-07-16T06:20:50Z</time>
      </trkpt>
      <trkpt lat="44.98341" lon="5.80202">
        <ele>1062.2</ele>
        <time>2022-07-16T06:20:51Z</time>
      </trkpt>
      <trkpt lat="44.98347" lon="5.802">
        <ele>1062.2</ele>
        <time>2022-07-16T06:20:52Z</time>
      </trkpt>
      <trkpt lat="44.98353" lon="5.80198">
        <ele>1062.2</ele>
        <time>2022-07-16T06:20:53Z</time>
      </trkpt>
      <trkpt lat="44.98359" lon="5.80196">
        <ele>1062.2</ele>
        <time>2022-07-16T06:20:54Z</time>
      </trkpt>
      <trkpt lat="44.98366" lon="5.80194">
        <ele>1062.2</ele>
        <time>2022-07-16T06:20:55Z</time>
      </trkpt>
      <trkpt lat="44.98372" lon="5.80192">
        <ele>1062.2</ele>
        <time>2022-07-16T06:20:56Z</time>
      </trkpt>
      <trkpt lat="44.98379" lon="5.80191">
        <ele>1062.1</ele>
        <time>2022-07-16T06:20:57Z</time>
      </trkpt>
      <trkpt lat="44.98385" lon="5.80189">
        <ele>1062.1</ele>
        <time>2022-07-16T06:20:58Z</time>
      </trkpt>
      <trkpt lat="44.98391" lon="5.80188">
        <ele>1062.1</ele>
        <time>2022-07-16T06:20:59Z</time>
      </trkpt>
      <trkpt lat="44.98397" lon="5.80187">
        <ele>1062.2</ele>
        <time>2022-07-16T06:21:00Z</time>
      </trkpt>
      <trkpt lat="44.98404" lon="5.80187">
        <ele>1062.3</ele>
        <time>2022-07-16T06:21:01Z</time>
      </trkpt>
      <trkpt lat="44.9841" lon="5.80188">
        <ele>1062.4</ele>
        <time>2022-07-16T06:21:02Z</time>
      </trkpt>
      <trkpt lat="44.98416" lon="5.80188">
        <ele>1062.5</ele>
        <time>2022-07-16T06:21:03Z</time>
      </trkpt>
      <trkpt lat="44.98422" lon="5.80188">
        <ele>1062.6</ele>
        <time>2022-07-16T06:21:04Z</time>
      </trkpt>
      <trkpt lat="44.98428" lon="5.80188">
        <ele>1062.7</ele>
        <time>2022-07-16T06:21:05Z</time>
      </trkpt>
      <trkpt lat="44.98433" lon="5.80188">
        <ele>1062.8</ele>
        <time>2022-07-16T06:21:06Z</time>
      </trkpt>
      <trkpt lat="44.98439" lon="5.80188">
        <ele>1062.9</ele>
        <time>2022-07-16T06:21:07Z</time>
      </trkpt>
      <trkpt lat="44.98444" lon="5.80187">
        <ele>1063</ele>
        <time>2022-07-16T06:21:08Z</time>
      </trkpt>
      <trkpt lat="44.9845" lon="5.80187">
        <ele>1063</ele>
        <time>2022-07-16T06:21:09Z</time>
      </trkpt>
      <trkpt lat="44.98455" lon="5.80186">
        <ele>1063.1</ele>
        <time>2022-07-16T06:21:10Z</time>
      </trkpt>
      <trkpt lat="44.98461" lon="5.80185">
        <ele>1063.2</ele>
        <time>2022-07-16T06:21:11Z</time>
      </trkpt>
      <trkpt lat="44.98467" lon="5.80184">
        <ele>1063.3</ele>
        <time>2022-07-16T06:21:12Z</time>
      </trkpt>
      <trkpt lat="44.98472" lon="5.80183">
        <ele>1063.4</ele>
        <time>2022-07-16T06:21:13Z</time>
      </trkpt>
      <trkpt lat="44.98478" lon="5.80181">
        <ele>1063.5</ele>
        <time>2022-07-16T06:21:14Z</time>
      </trkpt>
      <trkpt lat="44.98483" lon="5.8018">
        <ele>1063.5</ele>
        <time>2022-07-16T06:21:15Z</time>
      </trkpt>
      <trkpt lat="44.98489" lon="5.80179">
        <ele>1063.7</ele>
        <time>2022-07-16T06:21:16Z</time>
      </trkpt>
      <trkpt lat="44.98494" lon="5.80178">
        <ele>1063.8</ele>
        <time>2022-07-16T06:21:17Z</time>
      </trkpt>
      <trkpt lat="44.985" lon="5.80176">
        <ele>1063.9</ele>
        <time>2022-07-16T06:21:18Z</time>
      </trkpt>
      <trkpt lat="44.98505" lon="5.80175">
        <ele>1064</ele>
        <time>2022-07-16T06:21:19Z</time>
      </trkpt>
      <trkpt lat="44.9851" lon="5.80174">
        <ele>1064.2</ele>
        <time>2022-07-16T06:21:20Z</time>
      </trkpt>
      <trkpt lat="44.98516" lon="5.80173">
        <ele>1064.3</ele>
        <time>2022-07-16T06:21:21Z</time>
      </trkpt>
      <trkpt lat="44.98522" lon="5.80172">
        <ele>1064.4</ele>
        <time>2022-07-16T06:21:22Z</time>
      </trkpt>
      <trkpt lat="44.98527" lon="5.80172">
        <ele>1064.5</ele>
        <time>2022-07-16T06:21:23Z</time>
      </trkpt>
      <trkpt lat="44.98532" lon="5.80172">
        <ele>1064.6</ele>
        <time>2022-07-16T06:21:24Z</time>
      </trkpt>
      <trkpt lat="44.98536" lon="5.80172">
        <ele>1064.8</ele>
        <time>2022-07-16T06:21:25Z</time>
      </trkpt>
      <trkpt lat="44.98541" lon="5.80171">
        <ele>1064.9</ele>
        <time>2022-07-16T06:21:26Z</time>
      </trkpt>
      <trkpt lat="44.98546" lon="5.80171">
        <ele>1065.1</ele>
        <time>2022-07-16T06:21:27Z</time>
      </trkpt>
      <trkpt lat="44.98551" lon="5.8017">
        <ele>1065.2</ele>
        <time>2022-07-16T06:21:28Z</time>
      </trkpt>
      <trkpt lat="44.98555" lon="5.8017">
        <ele>1065.4</ele>
        <time>2022-07-16T06:21:29Z</time>
      </trkpt>
      <trkpt lat="44.9856" lon="5.8017">
        <ele>1065.6</ele>
        <time>2022-07-16T06:21:30Z</time>
      </trkpt>
      <trkpt lat="44.98565" lon="5.8017">
        <ele>1065.8</ele>
        <time>2022-07-16T06:21:31Z</time>
      </trkpt>
      <trkpt lat="44.98569" lon="5.80169">
        <ele>1066</ele>
        <time>2022-07-16T06:21:32Z</time>
      </trkpt>
      <trkpt lat="44.98574" lon="5.80169">
        <ele>1066.2</ele>
        <time>2022-07-16T06:21:33Z</time>
      </trkpt>
      <trkpt lat="44.98579" lon="5.80168">
        <ele>1066.3</ele>
        <time>2022-07-16T06:21:34Z</time>
      </trkpt>
      <trkpt lat="44.98583" lon="5.80167">
        <ele>1066.5</ele>
        <time>2022-07-16T06:21:35Z</time>
      </trkpt>
      <trkpt lat="44.98588" lon="5.80167">
        <ele>1066.7</ele>
        <time>2022-07-16T06:21:36Z</time>
      </trkpt>
      <trkpt lat="44.98593" lon="5.80166">
        <ele>1066.8</ele>
        <time>2022-07-16T06:21:37Z</time>
      </trkpt>
      <trkpt lat="44.98597" lon="5.80165">
        <ele>1067</ele>
        <time>2022-07-16T06:21:38Z</time>
      </trkpt>
      <trkpt lat="44.98602" lon="5.80164">
        <ele>1067.1</ele>
        <time>2022-07-16T06:21:39Z</time>
      </trkpt>
      <trkpt lat="44.98607" lon="5.80164">
        <ele>1067.3</ele>
        <time>2022-07-16T06:21:40Z</time>
      </trkpt>
      <trkpt lat="44.98612" lon="5.80163">
        <ele>1067.5</ele>
        <time>2022-07-16T06:21:41Z</time>
      </trkpt>
      <trkpt lat="44.98616" lon="5.80163">
        <ele>1067.7</ele>
        <time>2022-07-16T06:21:42Z</time>
      </trkpt>
      <trkpt lat="44.98621" lon="5.80163">
        <ele>1067.9</ele>
        <time>2022-07-16T06:21:43Z</time>
      </trkpt>
      <trkpt lat="44.98626" lon="5.80163">
        <ele>1068.1</ele>
        <time>2022-07-16T06:21:44Z</time>
      </trkpt>
      <trkpt lat="44.98631" lon="5.80162">
        <ele>1068.3</ele>
        <time>2022-07-16T06:21:45Z</time>
      </trkpt>
      <trkpt lat="44.98636" lon="5.80162">
        <ele>1068.6</ele>
        <time>2022-07-16T06:21:46Z</time>
      </trkpt>
      <trkpt lat="44.9864" lon="5.80162">
        <ele>1068.8</ele>
        <time>2022-07-16T06:21:47Z</time>
      </trkpt>
      <trkpt lat="44.98645" lon="5.80162">
        <ele>1069</ele>
        <time>2022-07-16T06:21:48Z</time>
      </trkpt>
      <trkpt lat="44.98649" lon="5.80161">
        <ele>1069.3</ele>
        <time>2022-07-16T06:21:49Z</time>
      </trkpt>
      <trkpt lat="44.98654" lon="5.8016">
        <ele>1069.5</ele>
        <time>2022-07-16T06:21:50Z</time>
      </trkpt>
      <trkpt lat="44.98658" lon="5.80159">
        <ele>1069.7</ele>
        <time>2022-07-16T06:21:51Z</time>
      </trkpt>
      <trkpt lat="44.98663" lon="5.80159">
        <ele>1070</ele>
        <time>2022-07-16T06:21:52Z</time>
      </trkpt>
      <trkpt lat="44.98668" lon="5.80157">
        <ele>1070.3</ele>
        <time>2022-07-16T06:21:53Z</time>
      </trkpt>
      <trkpt lat="44.98671" lon="5.80157">
        <ele>1070.4</ele>
        <time>2022-07-16T06:21:54Z</time>
      </trkpt>
      <trkpt lat="44.98675" lon="5.80156">
        <ele>1070.6</ele>
        <time>2022-07-16T06:21:55Z</time>
      </trkpt>
      <trkpt lat="44.9868" lon="5.80155">
        <ele>1071</ele>
        <time>2022-07-16T06:21:56Z</time>
      </trkpt>
      <trkpt lat="44.98684" lon="5.80154">
        <ele>1071.2</ele>
        <time>2022-07-16T06:21:57Z</time>
      </trkpt>
      <trkpt lat="44.9869" lon="5.80152">
        <ele>1071.5</ele>
        <time>2022-07-16T06:21:58Z</time>
      </trkpt>
      <trkpt lat="44.98701" lon="5.80147">
        <ele>1072.2</ele>
        <time>2022-07-16T06:21:59Z</time>
      </trkpt>
      <trkpt lat="44.98704" lon="5.8014">
        <ele>1072.5</ele>
        <time>2022-07-16T06:22:01Z</time>
      </trkpt>
      <trkpt lat="44.9871" lon="5.80139">
        <ele>1072.8</ele>
        <time>2022-07-16T06:22:02Z</time>
      </trkpt>
      <trkpt lat="44.98718" lon="5.80139">
        <ele>1073.3</ele>
        <time>2022-07-16T06:22:04Z</time>
      </trkpt>
      <trkpt lat="44.98726" lon="5.80137">
        <ele>1073.7</ele>
        <time>2022-07-16T06:22:05Z</time>
      </trkpt>
      <trkpt lat="44.98727" lon="5.80129">
        <ele>1073.9</ele>
        <time>2022-07-16T06:22:06Z</time>
      </trkpt>
      <trkpt lat="44.98738" lon="5.8013">
        <ele>1074.3</ele>
        <time>2022-07-16T06:22:08Z</time>
      </trkpt>
      <trkpt lat="44.98741" lon="5.80121">
        <ele>1074.6</ele>
        <time>2022-07-16T06:22:10Z</time>
      </trkpt>
      <trkpt lat="44.98749" lon="5.80118">
        <ele>1074.9</ele>
        <time>2022-07-16T06:22:12Z</time>
      </trkpt>
      <trkpt lat="44.98754" lon="5.80115">
        <ele>1075.1</ele>
        <time>2022-07-16T06:22:13Z</time>
      </trkpt>
      <trkpt lat="44.98758" lon="5.80111">
        <ele>1075.3</ele>
        <time>2022-07-16T06:22:14Z</time>
      </trkpt>
      <trkpt lat="44.98762" lon="5.80108">
        <ele>1075.4</ele>
        <time>2022-07-16T06:22:15Z</time>
      </trkpt>
      <trkpt lat="44.98768" lon="5.801">
        <ele>1075.6</ele>
        <time>2022-07-16T06:22:16Z</time>
      </trkpt>
      <trkpt lat="44.98775" lon="5.80093">
        <ele>1075.7</ele>
        <time>2022-07-16T06:22:19Z</time>
      </trkpt>
      <trkpt lat="44.98779" lon="5.80089">
        <ele>1075.8</ele>
        <time>2022-07-16T06:22:20Z</time>
      </trkpt>
      <trkpt lat="44.98782" lon="5.80085">
        <ele>1075.8</ele>
        <time>2022-07-16T06:22:21Z</time>
      </trkpt>
      <trkpt lat="44.98786" lon="5.80082">
        <ele>1075.8</ele>
        <time>2022-07-16T06:22:22Z</time>
      </trkpt>
      <trkpt lat="44.9879" lon="5.80078">
        <ele>1075.8</ele>
        <time>2022-07-16T06:22:23Z</time>
      </trkpt>
      <trkpt lat="44.98793" lon="5.80074">
        <ele>1075.9</ele>
        <time>2022-07-16T06:22:24Z</time>
      </trkpt>
      <trkpt lat="44.98797" lon="5.80071">
        <ele>1075.9</ele>
        <time>2022-07-16T06:22:25Z</time>
      </trkpt>
      <trkpt lat="44.988" lon="5.80067">
        <ele>1075.8</ele>
        <time>2022-07-16T06:22:26Z</time>
      </trkpt>
      <trkpt lat="44.98805" lon="5.80063">
        <ele>1075.8</ele>
        <time>2022-07-16T06:22:27Z</time>
      </trkpt>
      <trkpt lat="44.98808" lon="5.80059">
        <ele>1075.8</ele>
        <time>2022-07-16T06:22:28Z</time>
      </trkpt>
      <trkpt lat="44.98812" lon="5.80056">
        <ele>1075.7</ele>
        <time>2022-07-16T06:22:29Z</time>
      </trkpt>
      <trkpt lat="44.98816" lon="5.80051">
        <ele>1075.5</ele>
        <time>2022-07-16T06:22:30Z</time>
      </trkpt>
      <trkpt lat="44.98821" lon="5.80048">
        <ele>1075.4</ele>
        <time>2022-07-16T06:22:31Z</time>
      </trkpt>
      <trkpt lat="44.98825" lon="5.80044">
        <ele>1075.1</ele>
        <time>2022-07-16T06:22:32Z</time>
      </trkpt>
      <trkpt lat="44.98831" lon="5.80039">
        <ele>1074.8</ele>
        <time>2022-07-16T06:22:33Z</time>
      </trkpt>
      <trkpt lat="44.98836" lon="5.80035">
        <ele>1074.5</ele>
        <time>2022-07-16T06:22:34Z</time>
      </trkpt>
      <trkpt lat="44.98841" lon="5.80029">
        <ele>1074.1</ele>
        <time>2022-07-16T06:22:35Z</time>
      </trkpt>
      <trkpt lat="44.98847" lon="5.80024">
        <ele>1073.7</ele>
        <time>2022-07-16T06:22:36Z</time>
      </trkpt>
      <trkpt lat="44.98854" lon="5.80019">
        <ele>1073.3</ele>
        <time>2022-07-16T06:22:37Z</time>
      </trkpt>
      <trkpt lat="44.9886" lon="5.80014">
        <ele>1072.9</ele>
        <time>2022-07-16T06:22:38Z</time>
      </trkpt>
      <trkpt lat="44.98867" lon="5.8001">
        <ele>1072.5</ele>
        <time>2022-07-16T06:22:39Z</time>
      </trkpt>
      <trkpt lat="44.98874" lon="5.80006">
        <ele>1072.3</ele>
        <time>2022-07-16T06:22:40Z</time>
      </trkpt>
      <trkpt lat="44.98882" lon="5.80003">
        <ele>1072.2</ele>
        <time>2022-07-16T06:22:41Z</time>
      </trkpt>
      <trkpt lat="44.9889" lon="5.8">
        <ele>1072.1</ele>
        <time>2022-07-16T06:22:42Z</time>
      </trkpt>
      <trkpt lat="44.98898" lon="5.79998">
        <ele>1072</ele>
        <time>2022-07-16T06:22:43Z</time>
      </trkpt>
      <trkpt lat="44.98906" lon="5.79995">
        <ele>1072</ele>
        <time>2022-07-16T06:22:44Z</time>
      </trkpt>
      <trkpt lat="44.98913" lon="5.79992">
        <ele>1072</ele>
        <time>2022-07-16T06:22:45Z</time>
      </trkpt>
      <trkpt lat="44.9892" lon="5.79988">
        <ele>1072</ele>
        <time>2022-07-16T06:22:46Z</time>
      </trkpt>
      <trkpt lat="44.98928" lon="5.79984">
        <ele>1072.1</ele>
        <time>2022-07-16T06:22:47Z</time>
      </trkpt>
      <trkpt lat="44.98935" lon="5.7998">
        <ele>1072.1</ele>
        <time>2022-07-16T06:22:48Z</time>
      </trkpt>
      <trkpt lat="44.98942" lon="5.79977">
        <ele>1072.1</ele>
        <time>2022-07-16T06:22:49Z</time>
      </trkpt>
      <trkpt lat="44.98948" lon="5.79973">
        <ele>1072.2</ele>
        <time>2022-07-16T06:22:50Z</time>
      </trkpt>
      <trkpt lat="44.98955" lon="5.7997">
        <ele>1072.2</ele>
        <time>2022-07-16T06:22:51Z</time>
      </trkpt>
      <trkpt lat="44.98962" lon="5.79966">
        <ele>1072.3</ele>
        <time>2022-07-16T06:22:52Z</time>
      </trkpt>
      <trkpt lat="44.98968" lon="5.79963">
        <ele>1072.4</ele>
        <time>2022-07-16T06:22:53Z</time>
      </trkpt>
      <trkpt lat="44.98975" lon="5.79958">
        <ele>1072.5</ele>
        <time>2022-07-16T06:22:54Z</time>
      </trkpt>
      <trkpt lat="44.98981" lon="5.79954">
        <ele>1072.7</ele>
        <time>2022-07-16T06:22:55Z</time>
      </trkpt>
      <trkpt lat="44.98988" lon="5.79949">
        <ele>1072.9</ele>
        <time>2022-07-16T06:22:56Z</time>
      </trkpt>
      <trkpt lat="44.98994" lon="5.79945">
        <ele>1073</ele>
        <time>2022-07-16T06:22:57Z</time>
      </trkpt>
      <trkpt lat="44.99" lon="5.79941">
        <ele>1073.2</ele>
        <time>2022-07-16T06:22:58Z</time>
      </trkpt>
      <trkpt lat="44.99006" lon="5.79937">
        <ele>1073.3</ele>
        <time>2022-07-16T06:22:59Z</time>
      </trkpt>
      <trkpt lat="44.99012" lon="5.79933">
        <ele>1073.5</ele>
        <time>2022-07-16T06:23:00Z</time>
      </trkpt>
      <trkpt lat="44.99018" lon="5.7993">
        <ele>1073.6</ele>
        <time>2022-07-16T06:23:01Z</time>
      </trkpt>
      <trkpt lat="44.99023" lon="5.79926">
        <ele>1073.7</ele>
        <time>2022-07-16T06:23:02Z</time>
      </trkpt>
      <trkpt lat="44.99029" lon="5.79923">
        <ele>1073.8</ele>
        <time>2022-07-16T06:23:03Z</time>
      </trkpt>
      <trkpt lat="44.99034" lon="5.79919">
        <ele>1073.8</ele>
        <time>2022-07-16T06:23:04Z</time>
      </trkpt>
      <trkpt lat="44.99039" lon="5.79916">
        <ele>1073.9</ele>
        <time>2022-07-16T06:23:05Z</time>
      </trkpt>
      <trkpt lat="44.99044" lon="5.79913">
        <ele>1074</ele>
        <time>2022-07-16T06:23:06Z</time>
      </trkpt>
      <trkpt lat="44.9905" lon="5.79909">
        <ele>1074.1</ele>
        <time>2022-07-16T06:23:07Z</time>
      </trkpt>
      <trkpt lat="44.99055" lon="5.79905">
        <ele>1074.2</ele>
        <time>2022-07-16T06:23:08Z</time>
      </trkpt>
      <trkpt lat="44.99059" lon="5.79901">
        <ele>1074.3</ele>
        <time>2022-07-16T06:23:09Z</time>
      </trkpt>
      <trkpt lat="44.99064" lon="5.79896">
        <ele>1074.4</ele>
        <time>2022-07-16T06:23:10Z</time>
      </trkpt>
      <trkpt lat="44.99068" lon="5.79891">
        <ele>1074.5</ele>
        <time>2022-07-16T06:23:11Z</time>
      </trkpt>
      <trkpt lat="44.99072" lon="5.79884">
        <ele>1074.6</ele>
        <time>2022-07-16T06:23:12Z</time>
      </trkpt>
      <trkpt lat="44.99076" lon="5.79878">
        <ele>1074.8</ele>
        <time>2022-07-16T06:23:13Z</time>
      </trkpt>
      <trkpt lat="44.99079" lon="5.79871">
        <ele>1074.9</ele>
        <time>2022-07-16T06:23:14Z</time>
      </trkpt>
      <trkpt lat="44.99082" lon="5.79864">
        <ele>1075</ele>
        <time>2022-07-16T06:23:15Z</time>
      </trkpt>
      <trkpt lat="44.99085" lon="5.79858">
        <ele>1075.1</ele>
        <time>2022-07-16T06:23:16Z</time>
      </trkpt>
      <trkpt lat="44.99089" lon="5.79852">
        <ele>1075.2</ele>
        <time>2022-07-16T06:23:17Z</time>
      </trkpt>
      <trkpt lat="44.99094" lon="5.79847">
        <ele>1075.3</ele>
        <time>2022-07-16T06:23:18Z</time>
      </trkpt>
      <trkpt lat="44.99098" lon="5.79842">
        <ele>1075.3</ele>
        <time>2022-07-16T06:23:19Z</time>
      </trkpt>
      <trkpt lat="44.99104" lon="5.79838">
        <ele>1075.4</ele>
        <time>2022-07-16T06:23:20Z</time>
      </trkpt>
      <trkpt lat="44.9911" lon="5.79835">
        <ele>1075.4</ele>
        <time>2022-07-16T06:23:21Z</time>
      </trkpt>
      <trkpt lat="44.99115" lon="5.79831">
        <ele>1075.5</ele>
        <time>2022-07-16T06:23:22Z</time>
      </trkpt>
      <trkpt lat="44.99121" lon="5.79827">
        <ele>1075.6</ele>
        <time>2022-07-16T06:23:23Z</time>
      </trkpt>
      <trkpt lat="44.99126" lon="5.79824">
        <ele>1075.8</ele>
        <time>2022-07-16T06:23:24Z</time>
      </trkpt>
      <trkpt lat="44.99132" lon="5.79822">
        <ele>1075.9</ele>
        <time>2022-07-16T06:23:25Z</time>
      </trkpt>
      <trkpt lat="44.99137" lon="5.79818">
        <ele>1076.1</ele>
        <time>2022-07-16T06:23:26Z</time>
      </trkpt>
      <trkpt lat="44.99142" lon="5.79815">
        <ele>1076.2</ele>
        <time>2022-07-16T06:23:27Z</time>
      </trkpt>
      <trkpt lat="44.99147" lon="5.79812">
        <ele>1076.3</ele>
        <time>2022-07-16T06:23:28Z</time>
      </trkpt>
      <trkpt lat="44.99153" lon="5.79809">
        <ele>1076.4</ele>
        <time>2022-07-16T06:23:29Z</time>
      </trkpt>
      <trkpt lat="44.99158" lon="5.79806">
        <ele>1076.6</ele>
        <time>2022-07-16T06:23:30Z</time>
      </trkpt>
      <trkpt lat="44.99163" lon="5.79803">
        <ele>1076.7</ele>
        <time>2022-07-16T06:23:31Z</time>
      </trkpt>
      <trkpt lat="44.99168" lon="5.798">
        <ele>1076.8</ele>
        <time>2022-07-16T06:23:32Z</time>
      </trkpt>
      <trkpt lat="44.99174" lon="5.79797">
        <ele>1077</ele>
        <time>2022-07-16T06:23:33Z</time>
      </trkpt>
      <trkpt lat="44.99179" lon="5.79794">
        <ele>1077.1</ele>
        <time>2022-07-16T06:23:34Z</time>
      </trkpt>
      <trkpt lat="44.99185" lon="5.79791">
        <ele>1077.3</ele>
        <time>2022-07-16T06:23:35Z</time>
      </trkpt>
      <trkpt lat="44.9919" lon="5.79789">
        <ele>1077.4</ele>
        <time>2022-07-16T06:23:36Z</time>
      </trkpt>
      <trkpt lat="44.99195" lon="5.79787">
        <ele>1077.5</ele>
        <time>2022-07-16T06:23:37Z</time>
      </trkpt>
      <trkpt lat="44.992" lon="5.79785">
        <ele>1077.6</ele>
        <time>2022-07-16T06:23:38Z</time>
      </trkpt>
      <trkpt lat="44.99205" lon="5.79784">
        <ele>1077.7</ele>
        <time>2022-07-16T06:23:39Z</time>
      </trkpt>
      <trkpt lat="44.99209" lon="5.79782">
        <ele>1077.8</ele>
        <time>2022-07-16T06:23:40Z</time>
      </trkpt>
      <trkpt lat="44.99214" lon="5.7978">
        <ele>1077.9</ele>
        <time>2022-07-16T06:23:41Z</time>
      </trkpt>
      <trkpt lat="44.99219" lon="5.79778">
        <ele>1078</ele>
        <time>2022-07-16T06:23:42Z</time>
      </trkpt>
      <trkpt lat="44.99224" lon="5.79775">
        <ele>1078</ele>
        <time>2022-07-16T06:23:43Z</time>
      </trkpt>
      <trkpt lat="44.99229" lon="5.79771">
        <ele>1078.1</ele>
        <time>2022-07-16T06:23:44Z</time>
      </trkpt>
      <trkpt lat="44.99234" lon="5.79769">
        <ele>1078.2</ele>
        <time>2022-07-16T06:23:45Z</time>
      </trkpt>
      <trkpt lat="44.99238" lon="5.79766">
        <ele>1078.3</ele>
        <time>2022-07-16T06:23:46Z</time>
      </trkpt>
      <trkpt lat="44.99243" lon="5.79763">
        <ele>1078.4</ele>
        <time>2022-07-16T06:23:47Z</time>
      </trkpt>
      <trkpt lat="44.99248" lon="5.7976">
        <ele>1078.5</ele>
        <time>2022-07-16T06:23:48Z</time>
      </trkpt>
      <trkpt lat="44.99252" lon="5.79757">
        <ele>1078.6</ele>
        <time>2022-07-16T06:23:49Z</time>
      </trkpt>
      <trkpt lat="44.99258" lon="5.79753">
        <ele>1078.7</ele>
        <time>2022-07-16T06:23:50Z</time>
      </trkpt>
      <trkpt lat="44.99263" lon="5.7975">
        <ele>1078.7</ele>
        <time>2022-07-16T06:23:51Z</time>
      </trkpt>
      <trkpt lat="44.99267" lon="5.79746">
        <ele>1078.8</ele>
        <time>2022-07-16T06:23:52Z</time>
      </trkpt>
      <trkpt lat="44.99272" lon="5.79743">
        <ele>1078.9</ele>
        <time>2022-07-16T06:23:53Z</time>
      </trkpt>
      <trkpt lat="44.99277" lon="5.7974">
        <ele>1079</ele>
        <time>2022-07-16T06:23:54Z</time>
      </trkpt>
      <trkpt lat="44.99281" lon="5.79736">
        <ele>1079.1</ele>
        <time>2022-07-16T06:23:55Z</time>
      </trkpt>
      <trkpt lat="44.99286" lon="5.79733">
        <ele>1079.1</ele>
        <time>2022-07-16T06:23:56Z</time>
      </trkpt>
      <trkpt lat="44.99291" lon="5.7973">
        <ele>1079.2</ele>
        <time>2022-07-16T06:23:57Z</time>
      </trkpt>
      <trkpt lat="44.99296" lon="5.79726">
        <ele>1079.2</ele>
        <time>2022-07-16T06:23:58Z</time>
      </trkpt>
      <trkpt lat="44.99301" lon="5.79724">
        <ele>1079.3</ele>
        <time>2022-07-16T06:23:59Z</time>
      </trkpt>
      <trkpt lat="44.99306" lon="5.79721">
        <ele>1079.4</ele>
        <time>2022-07-16T06:24:00Z</time>
      </trkpt>
      <trkpt lat="44.99311" lon="5.79718">
        <ele>1079.4</ele>
        <time>2022-07-16T06:24:01Z</time>
      </trkpt>
      <trkpt lat="44.99316" lon="5.79716">
        <ele>1079.5</ele>
        <time>2022-07-16T06:24:02Z</time>
      </trkpt>
      <trkpt lat="44.99321" lon="5.79714">
        <ele>1079.6</ele>
        <time>2022-07-16T06:24:03Z</time>
      </trkpt>
      <trkpt lat="44.99326" lon="5.79713">
        <ele>1079.6</ele>
        <time>2022-07-16T06:24:04Z</time>
      </trkpt>
      <trkpt lat="44.99331" lon="5.79713">
        <ele>1079.7</ele>
        <time>2022-07-16T06:24:05Z</time>
      </trkpt>
      <trkpt lat="44.99336" lon="5.79713">
        <ele>1079.8</ele>
        <time>2022-07-16T06:24:06Z</time>
      </trkpt>
      <trkpt lat="44.99342" lon="5.79713">
        <ele>1079.8</ele>
        <time>2022-07-16T06:24:07Z</time>
      </trkpt>
      <trkpt lat="44.99346" lon="5.79714">
        <ele>1079.8</ele>
        <time>2022-07-16T06:24:08Z</time>
      </trkpt>
      <trkpt lat="44.99351" lon="5.79716">
        <ele>1079.8</ele>
        <time>2022-07-16T06:24:09Z</time>
      </trkpt>
      <trkpt lat="44.99355" lon="5.79718">
        <ele>1079.7</ele>
        <time>2022-07-16T06:24:10Z</time>
      </trkpt>
      <trkpt lat="44.99359" lon="5.79721">
        <ele>1079.6</ele>
        <time>2022-07-16T06:24:11Z</time>
      </trkpt>
      <trkpt lat="44.99364" lon="5.79725">
        <ele>1079.4</ele>
        <time>2022-07-16T06:24:12Z</time>
      </trkpt>
      <trkpt lat="44.99369" lon="5.79729">
        <ele>1079.2</ele>
        <time>2022-07-16T06:24:13Z</time>
      </trkpt>
      <trkpt lat="44.99375" lon="5.79733">
        <ele>1079</ele>
        <time>2022-07-16T06:24:14Z</time>
      </trkpt>
      <trkpt lat="44.99381" lon="5.79737">
        <ele>1078.7</ele>
        <time>2022-07-16T06:24:15Z</time>
      </trkpt>
      <trkpt lat="44.99386" lon="5.79741">
        <ele>1078.4</ele>
        <time>2022-07-16T06:24:16Z</time>
      </trkpt>
      <trkpt lat="44.99393" lon="5.79744">
        <ele>1078.1</ele>
        <time>2022-07-16T06:24:17Z</time>
      </trkpt>
      <trkpt lat="44.99399" lon="5.79744">
        <ele>1077.8</ele>
        <time>2022-07-16T06:24:18Z</time>
      </trkpt>
      <trkpt lat="44.99406" lon="5.79743">
        <ele>1077.6</ele>
        <time>2022-07-16T06:24:19Z</time>
      </trkpt>
      <trkpt lat="44.99413" lon="5.79741">
        <ele>1077.3</ele>
        <time>2022-07-16T06:24:20Z</time>
      </trkpt>
      <trkpt lat="44.9942" lon="5.79739">
        <ele>1077</ele>
        <time>2022-07-16T06:24:21Z</time>
      </trkpt>
      <trkpt lat="44.99427" lon="5.79735">
        <ele>1076.8</ele>
        <time>2022-07-16T06:24:22Z</time>
      </trkpt>
      <trkpt lat="44.99434" lon="5.79731">
        <ele>1076.5</ele>
        <time>2022-07-16T06:24:23Z</time>
      </trkpt>
      <trkpt lat="44.9944" lon="5.79726">
        <ele>1076.3</ele>
        <time>2022-07-16T06:24:24Z</time>
      </trkpt>
      <trkpt lat="44.99446" lon="5.79721">
        <ele>1076.1</ele>
        <time>2022-07-16T06:24:25Z</time>
      </trkpt>
      <trkpt lat="44.99452" lon="5.79715">
        <ele>1075.9</ele>
        <time>2022-07-16T06:24:26Z</time>
      </trkpt>
      <trkpt lat="44.99459" lon="5.7971">
        <ele>1075.7</ele>
        <time>2022-07-16T06:24:27Z</time>
      </trkpt>
      <trkpt lat="44.99466" lon="5.79704">
        <ele>1075.5</ele>
        <time>2022-07-16T06:24:28Z</time>
      </trkpt>
      <trkpt lat="44.99473" lon="5.79699">
        <ele>1075.3</ele>
        <time>2022-07-16T06:24:29Z</time>
      </trkpt>
      <trkpt lat="44.99479" lon="5.79693">
        <ele>1075.1</ele>
        <time>2022-07-16T06:24:30Z</time>
      </trkpt>
      <trkpt lat="44.99487" lon="5.79687">
        <ele>1074.9</ele>
        <time>2022-07-16T06:24:31Z</time>
      </trkpt>
      <trkpt lat="44.99493" lon="5.79682">
        <ele>1074.8</ele>
        <time>2022-07-16T06:24:32Z</time>
      </trkpt>
      <trkpt lat="44.995" lon="5.79677">
        <ele>1074.6</ele>
        <time>2022-07-16T06:24:33Z</time>
      </trkpt>
      <trkpt lat="44.99507" lon="5.79673">
        <ele>1074.5</ele>
        <time>2022-07-16T06:24:34Z</time>
      </trkpt>
      <trkpt lat="44.99514" lon="5.79669">
        <ele>1074.4</ele>
        <time>2022-07-16T06:24:35Z</time>
      </trkpt>
      <trkpt lat="44.99522" lon="5.79665">
        <ele>1074.3</ele>
        <time>2022-07-16T06:24:36Z</time>
      </trkpt>
      <trkpt lat="44.99529" lon="5.79662">
        <ele>1074.2</ele>
        <time>2022-07-16T06:24:37Z</time>
      </trkpt>
      <trkpt lat="44.99536" lon="5.79659">
        <ele>1074.2</ele>
        <time>2022-07-16T06:24:38Z</time>
      </trkpt>
      <trkpt lat="44.99544" lon="5.79657">
        <ele>1074.1</ele>
        <time>2022-07-16T06:24:39Z</time>
      </trkpt>
      <trkpt lat="44.99551" lon="5.79656">
        <ele>1074.1</ele>
        <time>2022-07-16T06:24:40Z</time>
      </trkpt>
      <trkpt lat="44.99558" lon="5.79654">
        <ele>1074</ele>
        <time>2022-07-16T06:24:41Z</time>
      </trkpt>
      <trkpt lat="44.99566" lon="5.79654">
        <ele>1073.9</ele>
        <time>2022-07-16T06:24:42Z</time>
      </trkpt>
      <trkpt lat="44.99573" lon="5.79654">
        <ele>1073.7</ele>
        <time>2022-07-16T06:24:43Z</time>
      </trkpt>
      <trkpt lat="44.9958" lon="5.79655">
        <ele>1073.6</ele>
        <time>2022-07-16T06:24:44Z</time>
      </trkpt>
      <trkpt lat="44.99588" lon="5.79655">
        <ele>1073.4</ele>
        <time>2022-07-16T06:24:45Z</time>
      </trkpt>
      <trkpt lat="44.99596" lon="5.79654">
        <ele>1073.2</ele>
        <time>2022-07-16T06:24:46Z</time>
      </trkpt>
      <trkpt lat="44.99604" lon="5.79654">
        <ele>1073.1</ele>
        <time>2022-07-16T06:24:47Z</time>
      </trkpt>
      <trkpt lat="44.99612" lon="5.79654">
        <ele>1073</ele>
        <time>2022-07-16T06:24:48Z</time>
      </trkpt>
      <trkpt lat="44.9962" lon="5.79653">
        <ele>1072.9</ele>
        <time>2022-07-16T06:24:49Z</time>
      </trkpt>
      <trkpt lat="44.99627" lon="5.79652">
        <ele>1072.8</ele>
        <time>2022-07-16T06:24:50Z</time>
      </trkpt>
      <trkpt lat="44.99635" lon="5.79649">
        <ele>1072.8</ele>
        <time>2022-07-16T06:24:51Z</time>
      </trkpt>
      <trkpt lat="44.99642" lon="5.79645">
        <ele>1072.7</ele>
        <time>2022-07-16T06:24:52Z</time>
      </trkpt>
      <trkpt lat="44.9965" lon="5.79641">
        <ele>1072.7</ele>
        <time>2022-07-16T06:24:53Z</time>
      </trkpt>
      <trkpt lat="44.99657" lon="5.79638">
        <ele>1072.7</ele>
        <time>2022-07-16T06:24:54Z</time>
      </trkpt>
      <trkpt lat="44.99665" lon="5.79635">
        <ele>1072.7</ele>
        <time>2022-07-16T06:24:55Z</time>
      </trkpt>
      <trkpt lat="44.99673" lon="5.79632">
        <ele>1072.6</ele>
        <time>2022-07-16T06:24:56Z</time>
      </trkpt>
      <trkpt lat="44.99681" lon="5.79629">
        <ele>1072.4</ele>
        <time>2022-07-16T06:24:57Z</time>
      </trkpt>
      <trkpt lat="44.99688" lon="5.79625">
        <ele>1072.3</ele>
        <time>2022-07-16T06:24:58Z</time>
      </trkpt>
      <trkpt lat="44.99696" lon="5.79622">
        <ele>1072.2</ele>
        <time>2022-07-16T06:24:59Z</time>
      </trkpt>
      <trkpt lat="44.99704" lon="5.79619">
        <ele>1072.1</ele>
        <time>2022-07-16T06:25:00Z</time>
      </trkpt>
      <trkpt lat="44.99711" lon="5.79616">
        <ele>1072</ele>
        <time>2022-07-16T06:25:01Z</time>
      </trkpt>
      <trkpt lat="44.99719" lon="5.79613">
        <ele>1071.9</ele>
        <time>2022-07-16T06:25:02Z</time>
      </trkpt>
      <trkpt lat="44.99727" lon="5.7961">
        <ele>1071.8</ele>
        <time>2022-07-16T06:25:03Z</time>
      </trkpt>
      <trkpt lat="44.99734" lon="5.79608">
        <ele>1071.7</ele>
        <time>2022-07-16T06:25:04Z</time>
      </trkpt>
      <trkpt lat="44.99742" lon="5.79607">
        <ele>1071.6</ele>
        <time>2022-07-16T06:25:05Z</time>
      </trkpt>
      <trkpt lat="44.9975" lon="5.79606">
        <ele>1071.4</ele>
        <time>2022-07-16T06:25:06Z</time>
      </trkpt>
      <trkpt lat="44.99758" lon="5.79606">
        <ele>1071.3</ele>
        <time>2022-07-16T06:25:07Z</time>
      </trkpt>
      <trkpt lat="44.99767" lon="5.79607">
        <ele>1071</ele>
        <time>2022-07-16T06:25:08Z</time>
      </trkpt>
      <trkpt lat="44.99775" lon="5.79609">
        <ele>1070.7</ele>
        <time>2022-07-16T06:25:09Z</time>
      </trkpt>
      <trkpt lat="44.99784" lon="5.79611">
        <ele>1070.4</ele>
        <time>2022-07-16T06:25:10Z</time>
      </trkpt>
      <trkpt lat="44.99793" lon="5.79613">
        <ele>1070.1</ele>
        <time>2022-07-16T06:25:11Z</time>
      </trkpt>
      <trkpt lat="44.99801" lon="5.79613">
        <ele>1069.7</ele>
        <time>2022-07-16T06:25:12Z</time>
      </trkpt>
      <trkpt lat="44.9981" lon="5.79615">
        <ele>1069.4</ele>
        <time>2022-07-16T06:25:13Z</time>
      </trkpt>
      <trkpt lat="44.99818" lon="5.79617">
        <ele>1069</ele>
        <time>2022-07-16T06:25:14Z</time>
      </trkpt>
      <trkpt lat="44.99827" lon="5.79618">
        <ele>1068.5</ele>
        <time>2022-07-16T06:25:15Z</time>
      </trkpt>
      <trkpt lat="44.99836" lon="5.79618">
        <ele>1068.1</ele>
        <time>2022-07-16T06:25:16Z</time>
      </trkpt>
      <trkpt lat="44.99844" lon="5.79617">
        <ele>1067.6</ele>
        <time>2022-07-16T06:25:17Z</time>
      </trkpt>
      <trkpt lat="44.99853" lon="5.79616">
        <ele>1067.1</ele>
        <time>2022-07-16T06:25:18Z</time>
      </trkpt>
      <trkpt lat="44.99862" lon="5.79614">
        <ele>1066.5</ele>
        <time>2022-07-16T06:25:19Z</time>
      </trkpt>
      <trkpt lat="44.99872" lon="5.79611">
        <ele>1066</ele>
        <time>2022-07-16T06:25:20Z</time>
      </trkpt>
      <trkpt lat="44.99881" lon="5.79608">
        <ele>1065.5</ele>
        <time>2022-07-16T06:25:21Z</time>
      </trkpt>
      <trkpt lat="44.99891" lon="5.79605">
        <ele>1065.1</ele>
        <time>2022-07-16T06:25:22Z</time>
      </trkpt>
      <trkpt lat="44.99902" lon="5.79603">
        <ele>1064.7</ele>
        <time>2022-07-16T06:25:23Z</time>
      </trkpt>
      <trkpt lat="44.99911" lon="5.79602">
        <ele>1064.3</ele>
        <time>2022-07-16T06:25:24Z</time>
      </trkpt>
      <trkpt lat="44.9992" lon="5.79601">
        <ele>1063.9</ele>
        <time>2022-07-16T06:25:25Z</time>
      </trkpt>
      <trkpt lat="44.99929" lon="5.79601">
        <ele>1063.6</ele>
        <time>2022-07-16T06:25:26Z</time>
      </trkpt>
      <trkpt lat="44.99938" lon="5.796">
        <ele>1063.2</ele>
        <time>2022-07-16T06:25:27Z</time>
      </trkpt>
      <trkpt lat="44.99947" lon="5.796">
        <ele>1062.8</ele>
        <time>2022-07-16T06:25:28Z</time>
      </trkpt>
      <trkpt lat="44.99956" lon="5.79601">
        <ele>1062.4</ele>
        <time>2022-07-16T06:25:29Z</time>
      </trkpt>
      <trkpt lat="44.99965" lon="5.79603">
        <ele>1062</ele>
        <time>2022-07-16T06:25:30Z</time>
      </trkpt>
      <trkpt lat="44.99974" lon="5.79604">
        <ele>1061.6</ele>
        <time>2022-07-16T06:25:31Z</time>
      </trkpt>
      <trkpt lat="44.99983" lon="5.79606">
        <ele>1061.2</ele>
        <time>2022-07-16T06:25:32Z</time>
      </trkpt>
      <trkpt lat="44.99992" lon="5.79608">
        <ele>1060.8</ele>
        <time>2022-07-16T06:25:33Z</time>
      </trkpt>
      <trkpt lat="45.00001" lon="5.79609">
        <ele>1060.4</ele>
        <time>2022-07-16T06:25:34Z</time>
      </trkpt>
      <trkpt lat="45.0001" lon="5.79611">
        <ele>1060</ele>
        <time>2022-07-16T06:25:35Z</time>
      </trkpt>
      <trkpt lat="45.00018" lon="5.79614">
        <ele>1059.6</ele>
        <time>2022-07-16T06:25:36Z</time>
      </trkpt>
      <trkpt lat="45.00027" lon="5.79617">
        <ele>1059.1</ele>
        <time>2022-07-16T06:25:37Z</time>
      </trkpt>
      <trkpt lat="45.00036" lon="5.7962">
        <ele>1058.7</ele>
        <time>2022-07-16T06:25:38Z</time>
      </trkpt>
      <trkpt lat="45.00045" lon="5.79623">
        <ele>1058.3</ele>
        <time>2022-07-16T06:25:39Z</time>
      </trkpt>
      <trkpt lat="45.00053" lon="5.79627">
        <ele>1058</ele>
        <time>2022-07-16T06:25:40Z</time>
      </trkpt>
      <trkpt lat="45.00062" lon="5.79632">
        <ele>1057.7</ele>
        <time>2022-07-16T06:25:41Z</time>
      </trkpt>
      <trkpt lat="45.0007" lon="5.79636">
        <ele>1057.4</ele>
        <time>2022-07-16T06:25:42Z</time>
      </trkpt>
      <trkpt lat="45.00079" lon="5.79641">
        <ele>1057.2</ele>
        <time>2022-07-16T06:25:43Z</time>
      </trkpt>
      <trkpt lat="45.00088" lon="5.79644">
        <ele>1057</ele>
        <time>2022-07-16T06:25:44Z</time>
      </trkpt>
      <trkpt lat="45.00096" lon="5.79647">
        <ele>1056.8</ele>
        <time>2022-07-16T06:25:45Z</time>
      </trkpt>
      <trkpt lat="45.00104" lon="5.79649">
        <ele>1056.6</ele>
        <time>2022-07-16T06:25:46Z</time>
      </trkpt>
      <trkpt lat="45.00113" lon="5.7965">
        <ele>1056.4</ele>
        <time>2022-07-16T06:25:47Z</time>
      </trkpt>
      <trkpt lat="45.00121" lon="5.7965">
        <ele>1056.2</ele>
        <time>2022-07-16T06:25:48Z</time>
      </trkpt>
      <trkpt lat="45.00129" lon="5.79649">
        <ele>1055.9</ele>
        <time>2022-07-16T06:25:49Z</time>
      </trkpt>
      <trkpt lat="45.00136" lon="5.79648">
        <ele>1055.6</ele>
        <time>2022-07-16T06:25:50Z</time>
      </trkpt>
      <trkpt lat="45.00144" lon="5.79646">
        <ele>1055.2</ele>
        <time>2022-07-16T06:25:51Z</time>
      </trkpt>
      <trkpt lat="45.00152" lon="5.79644">
        <ele>1054.9</ele>
        <time>2022-07-16T06:25:52Z</time>
      </trkpt>
      <trkpt lat="45.0016" lon="5.79642">
        <ele>1054.5</ele>
        <time>2022-07-16T06:25:53Z</time>
      </trkpt>
      <trkpt lat="45.00168" lon="5.79639">
        <ele>1054.1</ele>
        <time>2022-07-16T06:25:54Z</time>
      </trkpt>
      <trkpt lat="45.00177" lon="5.79637">
        <ele>1053.8</ele>
        <time>2022-07-16T06:25:55Z</time>
      </trkpt>
      <trkpt lat="45.00185" lon="5.79635">
        <ele>1053.5</ele>
        <time>2022-07-16T06:25:56Z</time>
      </trkpt>
      <trkpt lat="45.00193" lon="5.79631">
        <ele>1053.2</ele>
        <time>2022-07-16T06:25:57Z</time>
      </trkpt>
      <trkpt lat="45.00201" lon="5.79629">
        <ele>1053</ele>
        <time>2022-07-16T06:25:58Z</time>
      </trkpt>
      <trkpt lat="45.00209" lon="5.79626">
        <ele>1052.8</ele>
        <time>2022-07-16T06:25:59Z</time>
      </trkpt>
      <trkpt lat="45.00217" lon="5.79623">
        <ele>1052.7</ele>
        <time>2022-07-16T06:26:00Z</time>
      </trkpt>
      <trkpt lat="45.00225" lon="5.79617">
        <ele>1052.7</ele>
        <time>2022-07-16T06:26:01Z</time>
      </trkpt>
      <trkpt lat="45.00231" lon="5.79613">
        <ele>1052.8</ele>
        <time>2022-07-16T06:26:02Z</time>
      </trkpt>
      <trkpt lat="45.00237" lon="5.7961">
        <ele>1052.9</ele>
        <time>2022-07-16T06:26:03Z</time>
      </trkpt>
      <trkpt lat="45.00243" lon="5.79609">
        <ele>1053</ele>
        <time>2022-07-16T06:26:04Z</time>
      </trkpt>
      <trkpt lat="45.00248" lon="5.79611">
        <ele>1053.1</ele>
        <time>2022-07-16T06:26:05Z</time>
      </trkpt>
      <trkpt lat="45.00252" lon="5.79614">
        <ele>1053.2</ele>
        <time>2022-07-16T06:26:06Z</time>
      </trkpt>
      <trkpt lat="45.00257" lon="5.79617">
        <ele>1053.3</ele>
        <time>2022-07-16T06:26:07Z</time>
      </trkpt>
      <trkpt lat="45.00261" lon="5.79619">
        <ele>1053.4</ele>
        <time>2022-07-16T06:26:08Z</time>
      </trkpt>
      <trkpt lat="45.00266" lon="5.79618">
        <ele>1053.4</ele>
        <time>2022-07-16T06:26:09Z</time>
      </trkpt>
      <trkpt lat="45.00268" lon="5.79618">
        <ele>1053.4</ele>
        <time>2022-07-16T06:26:10Z</time>
      </trkpt>
      <trkpt lat="45.00271" lon="5.79614">
        <ele>1053.4</ele>
        <time>2022-07-16T06:26:11Z</time>
      </trkpt>
      <trkpt lat="45.00274" lon="5.79609">
        <ele>1053.3</ele>
        <time>2022-07-16T06:26:12Z</time>
      </trkpt>
      <trkpt lat="45.00275" lon="5.79604">
        <ele>1053.2</ele>
        <time>2022-07-16T06:26:13Z</time>
      </trkpt>
      <trkpt lat="45.00276" lon="5.79595">
        <ele>1053</ele>
        <time>2022-07-16T06:26:14Z</time>
      </trkpt>
      <trkpt lat="45.00276" lon="5.79587">
        <ele>1052.8</ele>
        <time>2022-07-16T06:26:15Z</time>
      </trkpt>
      <trkpt lat="45.00275" lon="5.79579">
        <ele>1052.5</ele>
        <time>2022-07-16T06:26:16Z</time>
      </trkpt>
      <trkpt lat="45.00276" lon="5.7957">
        <ele>1052.3</ele>
        <time>2022-07-16T06:26:17Z</time>
      </trkpt>
      <trkpt lat="45.00276" lon="5.7956">
        <ele>1052</ele>
        <time>2022-07-16T06:26:18Z</time>
      </trkpt>
      <trkpt lat="45.00276" lon="5.79551">
        <ele>1051.7</ele>
        <time>2022-07-16T06:26:19Z</time>
      </trkpt>
      <trkpt lat="45.00276" lon="5.79541">
        <ele>1051.4</ele>
        <time>2022-07-16T06:26:20Z</time>
      </trkpt>
      <trkpt lat="45.00276" lon="5.79531">
        <ele>1051.2</ele>
        <time>2022-07-16T06:26:21Z</time>
      </trkpt>
      <trkpt lat="45.00275" lon="5.7952">
        <ele>1050.9</ele>
        <time>2022-07-16T06:26:22Z</time>
      </trkpt>
      <trkpt lat="45.00275" lon="5.79509">
        <ele>1050.8</ele>
        <time>2022-07-16T06:26:23Z</time>
      </trkpt>
      <trkpt lat="45.00274" lon="5.79498">
        <ele>1050.6</ele>
        <time>2022-07-16T06:26:24Z</time>
      </trkpt>
      <trkpt lat="45.00272" lon="5.79489">
        <ele>1050.5</ele>
        <time>2022-07-16T06:26:25Z</time>
      </trkpt>
      <trkpt lat="45.00269" lon="5.79479">
        <ele>1050.5</ele>
        <time>2022-07-16T06:26:26Z</time>
      </trkpt>
      <trkpt lat="45.00265" lon="5.79469">
        <ele>1050.5</ele>
        <time>2022-07-16T06:26:27Z</time>
      </trkpt>
      <trkpt lat="45.00259" lon="5.79462">
        <ele>1050.6</ele>
        <time>2022-07-16T06:26:28Z</time>
      </trkpt>
      <trkpt lat="45.00253" lon="5.79456">
        <ele>1050.7</ele>
        <time>2022-07-16T06:26:29Z</time>
      </trkpt>
      <trkpt lat="45.00247" lon="5.7945">
        <ele>1050.8</ele>
        <time>2022-07-16T06:26:30Z</time>
      </trkpt>
      <trkpt lat="45.0024" lon="5.79446">
        <ele>1051</ele>
        <time>2022-07-16T06:26:31Z</time>
      </trkpt>
      <trkpt lat="45.00234" lon="5.79443">
        <ele>1051.1</ele>
        <time>2022-07-16T06:26:32Z</time>
      </trkpt>
      <trkpt lat="45.00228" lon="5.7944">
        <ele>1051.3</ele>
        <time>2022-07-16T06:26:33Z</time>
      </trkpt>
      <trkpt lat="45.00222" lon="5.79437">
        <ele>1051.4</ele>
        <time>2022-07-16T06:26:34Z</time>
      </trkpt>
      <trkpt lat="45.00216" lon="5.79436">
        <ele>1051.6</ele>
        <time>2022-07-16T06:26:35Z</time>
      </trkpt>
      <trkpt lat="45.00211" lon="5.79434">
        <ele>1051.8</ele>
        <time>2022-07-16T06:26:36Z</time>
      </trkpt>
      <trkpt lat="45.00206" lon="5.79432">
        <ele>1051.9</ele>
        <time>2022-07-16T06:26:37Z</time>
      </trkpt>
      <trkpt lat="45.00201" lon="5.7943">
        <ele>1052</ele>
        <time>2022-07-16T06:26:38Z</time>
      </trkpt>
      <trkpt lat="45.00196" lon="5.79428">
        <ele>1052.1</ele>
        <time>2022-07-16T06:26:39Z</time>
      </trkpt>
      <trkpt lat="45.00191" lon="5.79426">
        <ele>1052.2</ele>
        <time>2022-07-16T06:26:40Z</time>
      </trkpt>
      <trkpt lat="45.00185" lon="5.79423">
        <ele>1052.2</ele>
        <time>2022-07-16T06:26:41Z</time>
      </trkpt>
      <trkpt lat="45.00181" lon="5.7942">
        <ele>1052.2</ele>
        <time>2022-07-16T06:26:42Z</time>
      </trkpt>
      <trkpt lat="45.00176" lon="5.79415">
        <ele>1052.2</ele>
        <time>2022-07-16T06:26:43Z</time>
      </trkpt>
      <trkpt lat="45.00172" lon="5.79408">
        <ele>1052.1</ele>
        <time>2022-07-16T06:26:44Z</time>
      </trkpt>
      <trkpt lat="45.0017" lon="5.79401">
        <ele>1052.1</ele>
        <time>2022-07-16T06:26:45Z</time>
      </trkpt>
      <trkpt lat="45.00169" lon="5.79393">
        <ele>1052</ele>
        <time>2022-07-16T06:26:46Z</time>
      </trkpt>
      <trkpt lat="45.0017" lon="5.79384">
        <ele>1052</ele>
        <time>2022-07-16T06:26:47Z</time>
      </trkpt>
      <trkpt lat="45.00172" lon="5.79375">
        <ele>1051.9</ele>
        <time>2022-07-16T06:26:48Z</time>
      </trkpt>
      <trkpt lat="45.00174" lon="5.79366">
        <ele>1051.8</ele>
        <time>2022-07-16T06:26:49Z</time>
      </trkpt>
      <trkpt lat="45.00178" lon="5.79356">
        <ele>1051.5</ele>
        <time>2022-07-16T06:26:50Z</time>
      </trkpt>
      <trkpt lat="45.00182" lon="5.79347">
        <ele>1051.1</ele>
        <time>2022-07-16T06:26:51Z</time>
      </trkpt>
      <trkpt lat="45.00185" lon="5.79338">
        <ele>1050.7</ele>
        <time>2022-07-16T06:26:52Z</time>
      </trkpt>
      <trkpt lat="45.00189" lon="5.79328">
        <ele>1050.3</ele>
        <time>2022-07-16T06:26:53Z</time>
      </trkpt>
      <trkpt lat="45.00193" lon="5.79318">
        <ele>1049.9</ele>
        <time>2022-07-16T06:26:54Z</time>
      </trkpt>
      <trkpt lat="45.00196" lon="5.79309">
        <ele>1049.5</ele>
        <time>2022-07-16T06:26:55Z</time>
      </trkpt>
      <trkpt lat="45.00199" lon="5.79298">
        <ele>1049</ele>
        <time>2022-07-16T06:26:56Z</time>
      </trkpt>
      <trkpt lat="45.00201" lon="5.79287">
        <ele>1048.5</ele>
        <time>2022-07-16T06:26:57Z</time>
      </trkpt>
      <trkpt lat="45.00204" lon="5.79276">
        <ele>1048</ele>
        <time>2022-07-16T06:26:58Z</time>
      </trkpt>
      <trkpt lat="45.00208" lon="5.79264">
        <ele>1047.5</ele>
        <time>2022-07-16T06:26:59Z</time>
      </trkpt>
      <trkpt lat="45.00213" lon="5.79253">
        <ele>1046.9</ele>
        <time>2022-07-16T06:27:00Z</time>
      </trkpt>
      <trkpt lat="45.00217" lon="5.79243">
        <ele>1046.4</ele>
        <time>2022-07-16T06:27:01Z</time>
      </trkpt>
      <trkpt lat="45.00222" lon="5.79232">
        <ele>1045.9</ele>
        <time>2022-07-16T06:27:02Z</time>
      </trkpt>
      <trkpt lat="45.00227" lon="5.79221">
        <ele>1045.3</ele>
        <time>2022-07-16T06:27:03Z</time>
      </trkpt>
      <trkpt lat="45.00232" lon="5.79209">
        <ele>1044.8</ele>
        <time>2022-07-16T06:27:04Z</time>
      </trkpt>
      <trkpt lat="45.00236" lon="5.79197">
        <ele>1044.2</ele>
        <time>2022-07-16T06:27:05Z</time>
      </trkpt>
      <trkpt lat="45.0024" lon="5.79184">
        <ele>1043.7</ele>
        <time>2022-07-16T06:27:06Z</time>
      </trkpt>
      <trkpt lat="45.00242" lon="5.79171">
        <ele>1043.2</ele>
        <time>2022-07-16T06:27:07Z</time>
      </trkpt>
      <trkpt lat="45.00244" lon="5.79158">
        <ele>1042.7</ele>
        <time>2022-07-16T06:27:08Z</time>
      </trkpt>
      <trkpt lat="45.00247" lon="5.79146">
        <ele>1042.2</ele>
        <time>2022-07-16T06:27:09Z</time>
      </trkpt>
      <trkpt lat="45.0025" lon="5.79133">
        <ele>1041.7</ele>
        <time>2022-07-16T06:27:10Z</time>
      </trkpt>
      <trkpt lat="45.00254" lon="5.7912">
        <ele>1041.1</ele>
        <time>2022-07-16T06:27:11Z</time>
      </trkpt>
      <trkpt lat="45.00258" lon="5.79107">
        <ele>1040.5</ele>
        <time>2022-07-16T06:27:12Z</time>
      </trkpt>
      <trkpt lat="45.00262" lon="5.79094">
        <ele>1039.9</ele>
        <time>2022-07-16T06:27:13Z</time>
      </trkpt>
      <trkpt lat="45.00267" lon="5.79081">
        <ele>1039.3</ele>
        <time>2022-07-16T06:27:14Z</time>
      </trkpt>
      <trkpt lat="45.00274" lon="5.7907">
        <ele>1038.7</ele>
        <time>2022-07-16T06:27:15Z</time>
      </trkpt>
      <trkpt lat="45.00281" lon="5.79059">
        <ele>1038.1</ele>
        <time>2022-07-16T06:27:16Z</time>
      </trkpt>
      <trkpt lat="45.00288" lon="5.79048">
        <ele>1037.6</ele>
        <time>2022-07-16T06:27:17Z</time>
      </trkpt>
      <trkpt lat="45.00295" lon="5.79037">
        <ele>1037.1</ele>
        <time>2022-07-16T06:27:18Z</time>
      </trkpt>
      <trkpt lat="45.00303" lon="5.79026">
        <ele>1036.5</ele>
        <time>2022-07-16T06:27:19Z</time>
      </trkpt>
      <trkpt lat="45.0031" lon="5.79016">
        <ele>1035.9</ele>
        <time>2022-07-16T06:27:20Z</time>
      </trkpt>
      <trkpt lat="45.00318" lon="5.79005">
        <ele>1035.3</ele>
        <time>2022-07-16T06:27:21Z</time>
      </trkpt>
      <trkpt lat="45.00326" lon="5.78995">
        <ele>1034.6</ele>
        <time>2022-07-16T06:27:22Z</time>
      </trkpt>
      <trkpt lat="45.00335" lon="5.78984">
        <ele>1034</ele>
        <time>2022-07-16T06:27:23Z</time>
      </trkpt>
      <trkpt lat="45.00344" lon="5.78974">
        <ele>1033.3</ele>
        <time>2022-07-16T06:27:24Z</time>
      </trkpt>
      <trkpt lat="45.00353" lon="5.78963">
        <ele>1032.6</ele>
        <time>2022-07-16T06:27:25Z</time>
      </trkpt>
      <trkpt lat="45.00361" lon="5.78953">
        <ele>1032</ele>
        <time>2022-07-16T06:27:26Z</time>
      </trkpt>
      <trkpt lat="45.00369" lon="5.78943">
        <ele>1031.4</ele>
        <time>2022-07-16T06:27:27Z</time>
      </trkpt>
      <trkpt lat="45.00377" lon="5.78933">
        <ele>1030.8</ele>
        <time>2022-07-16T06:27:28Z</time>
      </trkpt>
      <trkpt lat="45.00385" lon="5.78924">
        <ele>1030.1</ele>
        <time>2022-07-16T06:27:29Z</time>
      </trkpt>
      <trkpt lat="45.00395" lon="5.78915">
        <ele>1029.5</ele>
        <time>2022-07-16T06:27:30Z</time>
      </trkpt>
      <trkpt lat="45.00405" lon="5.78906">
        <ele>1028.9</ele>
        <time>2022-07-16T06:27:31Z</time>
      </trkpt>
      <trkpt lat="45.00415" lon="5.78898">
        <ele>1028.3</ele>
        <time>2022-07-16T06:27:32Z</time>
      </trkpt>
      <trkpt lat="45.00425" lon="5.78891">
        <ele>1027.6</ele>
        <time>2022-07-16T06:27:33Z</time>
      </trkpt>
      <trkpt lat="45.00435" lon="5.78884">
        <ele>1026.9</ele>
        <time>2022-07-16T06:27:34Z</time>
      </trkpt>
      <trkpt lat="45.00445" lon="5.78878">
        <ele>1026.3</ele>
        <time>2022-07-16T06:27:35Z</time>
      </trkpt>
      <trkpt lat="45.00455" lon="5.78873">
        <ele>1025.6</ele>
        <time>2022-07-16T06:27:36Z</time>
      </trkpt>
      <trkpt lat="45.00466" lon="5.78869">
        <ele>1025</ele>
        <time>2022-07-16T06:27:37Z</time>
      </trkpt>
      <trkpt lat="45.00477" lon="5.78864">
        <ele>1024.3</ele>
        <time>2022-07-16T06:27:38Z</time>
      </trkpt>
      <trkpt lat="45.00488" lon="5.78859">
        <ele>1023.7</ele>
        <time>2022-07-16T06:27:39Z</time>
      </trkpt>
      <trkpt lat="45.00498" lon="5.7885">
        <ele>1023.1</ele>
        <time>2022-07-16T06:27:40Z</time>
      </trkpt>
      <trkpt lat="45.00507" lon="5.7884">
        <ele>1022.7</ele>
        <time>2022-07-16T06:27:41Z</time>
      </trkpt>
      <trkpt lat="45.00515" lon="5.78829">
        <ele>1022.2</ele>
        <time>2022-07-16T06:27:42Z</time>
      </trkpt>
      <trkpt lat="45.00523" lon="5.78818">
        <ele>1021.7</ele>
        <time>2022-07-16T06:27:43Z</time>
      </trkpt>
      <trkpt lat="45.0053" lon="5.78805">
        <ele>1021.1</ele>
        <time>2022-07-16T06:27:44Z</time>
      </trkpt>
      <trkpt lat="45.00538" lon="5.78793">
        <ele>1020.6</ele>
        <time>2022-07-16T06:27:45Z</time>
      </trkpt>
      <trkpt lat="45.00545" lon="5.78781">
        <ele>1020</ele>
        <time>2022-07-16T06:27:46Z</time>
      </trkpt>
      <trkpt lat="45.00552" lon="5.7877">
        <ele>1019.4</ele>
        <time>2022-07-16T06:27:47Z</time>
      </trkpt>
      <trkpt lat="45.00559" lon="5.78758">
        <ele>1018.9</ele>
        <time>2022-07-16T06:27:48Z</time>
      </trkpt>
      <trkpt lat="45.00566" lon="5.78746">
        <ele>1018.3</ele>
        <time>2022-07-16T06:27:49Z</time>
      </trkpt>
      <trkpt lat="45.00574" lon="5.78735">
        <ele>1017.8</ele>
        <time>2022-07-16T06:27:50Z</time>
      </trkpt>
      <trkpt lat="45.00583" lon="5.78725">
        <ele>1017.3</ele>
        <time>2022-07-16T06:27:51Z</time>
      </trkpt>
      <trkpt lat="45.00592" lon="5.78716">
        <ele>1016.7</ele>
        <time>2022-07-16T06:27:52Z</time>
      </trkpt>
      <trkpt lat="45.00603" lon="5.78709">
        <ele>1016.2</ele>
        <time>2022-07-16T06:27:53Z</time>
      </trkpt>
      <trkpt lat="45.00614" lon="5.78704">
        <ele>1015.6</ele>
        <time>2022-07-16T06:27:54Z</time>
      </trkpt>
      <trkpt lat="45.00625" lon="5.787">
        <ele>1015.1</ele>
        <time>2022-07-16T06:27:55Z</time>
      </trkpt>
      <trkpt lat="45.00635" lon="5.78694">
        <ele>1014.6</ele>
        <time>2022-07-16T06:27:56Z</time>
      </trkpt>
      <trkpt lat="45.00646" lon="5.78689">
        <ele>1014</ele>
        <time>2022-07-16T06:27:57Z</time>
      </trkpt>
      <trkpt lat="45.00656" lon="5.78684">
        <ele>1013.5</ele>
        <time>2022-07-16T06:27:58Z</time>
      </trkpt>
      <trkpt lat="45.00666" lon="5.7868">
        <ele>1013</ele>
        <time>2022-07-16T06:27:59Z</time>
      </trkpt>
      <trkpt lat="45.00677" lon="5.78677">
        <ele>1012.5</ele>
        <time>2022-07-16T06:28:00Z</time>
      </trkpt>
      <trkpt lat="45.00687" lon="5.78676">
        <ele>1012</ele>
        <time>2022-07-16T06:28:01Z</time>
      </trkpt>
      <trkpt lat="45.00697" lon="5.78677">
        <ele>1011.4</ele>
        <time>2022-07-16T06:28:02Z</time>
      </trkpt>
      <trkpt lat="45.00707" lon="5.7868">
        <ele>1011</ele>
        <time>2022-07-16T06:28:03Z</time>
      </trkpt>
      <trkpt lat="45.00718" lon="5.78684">
        <ele>1010.5</ele>
        <time>2022-07-16T06:28:04Z</time>
      </trkpt>
      <trkpt lat="45.00728" lon="5.78688">
        <ele>1010</ele>
        <time>2022-07-16T06:28:05Z</time>
      </trkpt>
      <trkpt lat="45.00738" lon="5.78693">
        <ele>1009.5</ele>
        <time>2022-07-16T06:28:06Z</time>
      </trkpt>
      <trkpt lat="45.00747" lon="5.78697">
        <ele>1009</ele>
        <time>2022-07-16T06:28:07Z</time>
      </trkpt>
      <trkpt lat="45.00757" lon="5.78698">
        <ele>1008.6</ele>
        <time>2022-07-16T06:28:08Z</time>
      </trkpt>
      <trkpt lat="45.00768" lon="5.78697">
        <ele>1008</ele>
        <time>2022-07-16T06:28:09Z</time>
      </trkpt>
      <trkpt lat="45.00779" lon="5.78694">
        <ele>1007.5</ele>
        <time>2022-07-16T06:28:10Z</time>
      </trkpt>
      <trkpt lat="45.00789" lon="5.78691">
        <ele>1007.1</ele>
        <time>2022-07-16T06:28:11Z</time>
      </trkpt>
      <trkpt lat="45.00799" lon="5.78689">
        <ele>1006.6</ele>
        <time>2022-07-16T06:28:12Z</time>
      </trkpt>
      <trkpt lat="45.00809" lon="5.7869">
        <ele>1006.1</ele>
        <time>2022-07-16T06:28:13Z</time>
      </trkpt>
      <trkpt lat="45.00821" lon="5.78692">
        <ele>1005.5</ele>
        <time>2022-07-16T06:28:14Z</time>
      </trkpt>
      <trkpt lat="45.0083" lon="5.78696">
        <ele>1005</ele>
        <time>2022-07-16T06:28:15Z</time>
      </trkpt>
      <trkpt lat="45.00838" lon="5.78702">
        <ele>1004.4</ele>
        <time>2022-07-16T06:28:16Z</time>
      </trkpt>
      <trkpt lat="45.00846" lon="5.78705">
        <ele>1003.9</ele>
        <time>2022-07-16T06:28:17Z</time>
      </trkpt>
      <trkpt lat="45.00855" lon="5.78706">
        <ele>1003.4</ele>
        <time>2022-07-16T06:28:18Z</time>
      </trkpt>
      <trkpt lat="45.00867" lon="5.78705">
        <ele>1002.8</ele>
        <time>2022-07-16T06:28:19Z</time>
      </trkpt>
      <trkpt lat="45.00879" lon="5.78702">
        <ele>1002.2</ele>
        <time>2022-07-16T06:28:20Z</time>
      </trkpt>
      <trkpt lat="45.00889" lon="5.78699">
        <ele>1001.7</ele>
        <time>2022-07-16T06:28:21Z</time>
      </trkpt>
      <trkpt lat="45.00899" lon="5.78696">
        <ele>1001.1</ele>
        <time>2022-07-16T06:28:22Z</time>
      </trkpt>
      <trkpt lat="45.0091" lon="5.78693">
        <ele>1000.5</ele>
        <time>2022-07-16T06:28:23Z</time>
      </trkpt>
      <trkpt lat="45.0092" lon="5.78691">
        <ele>999.9</ele>
        <time>2022-07-16T06:28:24Z</time>
      </trkpt>
      <trkpt lat="45.00931" lon="5.78688">
        <ele>999.3</ele>
        <time>2022-07-16T06:28:25Z</time>
      </trkpt>
      <trkpt lat="45.00942" lon="5.78685">
        <ele>998.7</ele>
        <time>2022-07-16T06:28:26Z</time>
      </trkpt>
      <trkpt lat="45.00953" lon="5.78683">
        <ele>998.1</ele>
        <time>2022-07-16T06:28:27Z</time>
      </trkpt>
      <trkpt lat="45.00964" lon="5.78681">
        <ele>997.6</ele>
        <time>2022-07-16T06:28:28Z</time>
      </trkpt>
      <trkpt lat="45.00975" lon="5.78679">
        <ele>997.1</ele>
        <time>2022-07-16T06:28:29Z</time>
      </trkpt>
      <trkpt lat="45.00985" lon="5.78678">
        <ele>996.6</ele>
        <time>2022-07-16T06:28:30Z</time>
      </trkpt>
      <trkpt lat="45.00996" lon="5.78676">
        <ele>996.1</ele>
        <time>2022-07-16T06:28:31Z</time>
      </trkpt>
      <trkpt lat="45.01006" lon="5.78675">
        <ele>995.6</ele>
        <time>2022-07-16T06:28:32Z</time>
      </trkpt>
      <trkpt lat="45.01016" lon="5.78673">
        <ele>995</ele>
        <time>2022-07-16T06:28:33Z</time>
      </trkpt>
      <trkpt lat="45.01026" lon="5.78672">
        <ele>994.5</ele>
        <time>2022-07-16T06:28:34Z</time>
      </trkpt>
      <trkpt lat="45.01036" lon="5.7867">
        <ele>994</ele>
        <time>2022-07-16T06:28:35Z</time>
      </trkpt>
      <trkpt lat="45.01046" lon="5.7867">
        <ele>993.4</ele>
        <time>2022-07-16T06:28:36Z</time>
      </trkpt>
      <trkpt lat="45.01057" lon="5.78671">
        <ele>992.8</ele>
        <time>2022-07-16T06:28:37Z</time>
      </trkpt>
      <trkpt lat="45.01069" lon="5.78672">
        <ele>992.2</ele>
        <time>2022-07-16T06:28:38Z</time>
      </trkpt>
      <trkpt lat="45.01079" lon="5.78675">
        <ele>991.5</ele>
        <time>2022-07-16T06:28:39Z</time>
      </trkpt>
      <trkpt lat="45.0109" lon="5.78677">
        <ele>990.9</ele>
        <time>2022-07-16T06:28:40Z</time>
      </trkpt>
      <trkpt lat="45.011" lon="5.7868">
        <ele>990.3</ele>
        <time>2022-07-16T06:28:41Z</time>
      </trkpt>
      <trkpt lat="45.01111" lon="5.78682">
        <ele>989.6</ele>
        <time>2022-07-16T06:28:42Z</time>
      </trkpt>
      <trkpt lat="45.01122" lon="5.78684">
        <ele>989</ele>
        <time>2022-07-16T06:28:43Z</time>
      </trkpt>
      <trkpt lat="45.01132" lon="5.78686">
        <ele>988.4</ele>
        <time>2022-07-16T06:28:44Z</time>
      </trkpt>
      <trkpt lat="45.01142" lon="5.78688">
        <ele>987.8</ele>
        <time>2022-07-16T06:28:45Z</time>
      </trkpt>
      <trkpt lat="45.01153" lon="5.7869">
        <ele>987.2</ele>
        <time>2022-07-16T06:28:46Z</time>
      </trkpt>
      <trkpt lat="45.01164" lon="5.78692">
        <ele>986.9</ele>
        <time>2022-07-16T06:28:47Z</time>
      </trkpt>
      <trkpt lat="45.01174" lon="5.7869">
        <ele>986.6</ele>
        <time>2022-07-16T06:28:48Z</time>
      </trkpt>
      <trkpt lat="45.01185" lon="5.78684">
        <ele>986</ele>
        <time>2022-07-16T06:28:49Z</time>
      </trkpt>
      <trkpt lat="45.01195" lon="5.78676">
        <ele>985.3</ele>
        <time>2022-07-16T06:28:50Z</time>
      </trkpt>
      <trkpt lat="45.01202" lon="5.78666">
        <ele>984.7</ele>
        <time>2022-07-16T06:28:51Z</time>
      </trkpt>
      <trkpt lat="45.0121" lon="5.78657">
        <ele>984.1</ele>
        <time>2022-07-16T06:28:52Z</time>
      </trkpt>
      <trkpt lat="45.01219" lon="5.78649">
        <ele>983.5</ele>
        <time>2022-07-16T06:28:53Z</time>
      </trkpt>
      <trkpt lat="45.01228" lon="5.78645">
        <ele>982.9</ele>
        <time>2022-07-16T06:28:54Z</time>
      </trkpt>
      <trkpt lat="45.01239" lon="5.78642">
        <ele>982.2</ele>
        <time>2022-07-16T06:28:55Z</time>
      </trkpt>
      <trkpt lat="45.0125" lon="5.78642">
        <ele>981.6</ele>
        <time>2022-07-16T06:28:56Z</time>
      </trkpt>
      <trkpt lat="45.01261" lon="5.78643">
        <ele>980.9</ele>
        <time>2022-07-16T06:28:57Z</time>
      </trkpt>
      <trkpt lat="45.01272" lon="5.78645">
        <ele>980.2</ele>
        <time>2022-07-16T06:28:58Z</time>
      </trkpt>
      <trkpt lat="45.01283" lon="5.78648">
        <ele>979.6</ele>
        <time>2022-07-16T06:28:59Z</time>
      </trkpt>
      <trkpt lat="45.01294" lon="5.78651">
        <ele>979</ele>
        <time>2022-07-16T06:29:00Z</time>
      </trkpt>
      <trkpt lat="45.01305" lon="5.78653">
        <ele>978.3</ele>
        <time>2022-07-16T06:29:01Z</time>
      </trkpt>
      <trkpt lat="45.01315" lon="5.78655">
        <ele>977.7</ele>
        <time>2022-07-16T06:29:02Z</time>
      </trkpt>
      <trkpt lat="45.01326" lon="5.78654">
        <ele>977.1</ele>
        <time>2022-07-16T06:29:03Z</time>
      </trkpt>
      <trkpt lat="45.01337" lon="5.78653">
        <ele>976.6</ele>
        <time>2022-07-16T06:29:04Z</time>
      </trkpt>
      <trkpt lat="45.01347" lon="5.78649">
        <ele>976</ele>
        <time>2022-07-16T06:29:05Z</time>
      </trkpt>
      <trkpt lat="45.01358" lon="5.78645">
        <ele>975.5</ele>
        <time>2022-07-16T06:29:06Z</time>
      </trkpt>
      <trkpt lat="45.01368" lon="5.78641">
        <ele>975</ele>
        <time>2022-07-16T06:29:07Z</time>
      </trkpt>
      <trkpt lat="45.01378" lon="5.78636">
        <ele>974.5</ele>
        <time>2022-07-16T06:29:08Z</time>
      </trkpt>
      <trkpt lat="45.01389" lon="5.78632">
        <ele>974</ele>
        <time>2022-07-16T06:29:09Z</time>
      </trkpt>
      <trkpt lat="45.01399" lon="5.78628">
        <ele>973.5</ele>
        <time>2022-07-16T06:29:10Z</time>
      </trkpt>
      <trkpt lat="45.01411" lon="5.78625">
        <ele>972.9</ele>
        <time>2022-07-16T06:29:11Z</time>
      </trkpt>
      <trkpt lat="45.01421" lon="5.78623">
        <ele>972.4</ele>
        <time>2022-07-16T06:29:12Z</time>
      </trkpt>
      <trkpt lat="45.01432" lon="5.78622">
        <ele>971.9</ele>
        <time>2022-07-16T06:29:13Z</time>
      </trkpt>
      <trkpt lat="45.01443" lon="5.78622">
        <ele>971.4</ele>
        <time>2022-07-16T06:29:14Z</time>
      </trkpt>
      <trkpt lat="45.01454" lon="5.78622">
        <ele>971</ele>
        <time>2022-07-16T06:29:15Z</time>
      </trkpt>
      <trkpt lat="45.01465" lon="5.7862">
        <ele>970.5</ele>
        <time>2022-07-16T06:29:16Z</time>
      </trkpt>
      <trkpt lat="45.01475" lon="5.78617">
        <ele>970</ele>
        <time>2022-07-16T06:29:17Z</time>
      </trkpt>
      <trkpt lat="45.01486" lon="5.78614">
        <ele>969.4</ele>
        <time>2022-07-16T06:29:18Z</time>
      </trkpt>
      <trkpt lat="45.01496" lon="5.78611">
        <ele>968.9</ele>
        <time>2022-07-16T06:29:19Z</time>
      </trkpt>
      <trkpt lat="45.01506" lon="5.78608">
        <ele>968.4</ele>
        <time>2022-07-16T06:29:20Z</time>
      </trkpt>
      <trkpt lat="45.01517" lon="5.78606">
        <ele>967.9</ele>
        <time>2022-07-16T06:29:21Z</time>
      </trkpt>
      <trkpt lat="45.01527" lon="5.78608">
        <ele>967.4</ele>
        <time>2022-07-16T06:29:22Z</time>
      </trkpt>
      <trkpt lat="45.01538" lon="5.78612">
        <ele>966.8</ele>
        <time>2022-07-16T06:29:23Z</time>
      </trkpt>
      <trkpt lat="45.01548" lon="5.78616">
        <ele>966.4</ele>
        <time>2022-07-16T06:29:24Z</time>
      </trkpt>
      <trkpt lat="45.01558" lon="5.78621">
        <ele>966.3</ele>
        <time>2022-07-16T06:29:25Z</time>
      </trkpt>
      <trkpt lat="45.01568" lon="5.78626">
        <ele>966</ele>
        <time>2022-07-16T06:29:26Z</time>
      </trkpt>
      <trkpt lat="45.01577" lon="5.78632">
        <ele>965.5</ele>
        <time>2022-07-16T06:29:27Z</time>
      </trkpt>
      <trkpt lat="45.01586" lon="5.78638">
        <ele>965</ele>
        <time>2022-07-16T06:29:28Z</time>
      </trkpt>
      <trkpt lat="45.01594" lon="5.78643">
        <ele>964.6</ele>
        <time>2022-07-16T06:29:29Z</time>
      </trkpt>
      <trkpt lat="45.01602" lon="5.78648">
        <ele>964.2</ele>
        <time>2022-07-16T06:29:30Z</time>
      </trkpt>
      <trkpt lat="45.01611" lon="5.78653">
        <ele>963.7</ele>
        <time>2022-07-16T06:29:31Z</time>
      </trkpt>
      <trkpt lat="45.0162" lon="5.78658">
        <ele>963.3</ele>
        <time>2022-07-16T06:29:32Z</time>
      </trkpt>
      <trkpt lat="45.01629" lon="5.78662">
        <ele>962.8</ele>
        <time>2022-07-16T06:29:33Z</time>
      </trkpt>
      <trkpt lat="45.01638" lon="5.78666">
        <ele>962.4</ele>
        <time>2022-07-16T06:29:34Z</time>
      </trkpt>
      <trkpt lat="45.01647" lon="5.78669">
        <ele>961.9</ele>
        <time>2022-07-16T06:29:35Z</time>
      </trkpt>
      <trkpt lat="45.01657" lon="5.78672">
        <ele>961.4</ele>
        <time>2022-07-16T06:29:36Z</time>
      </trkpt>
      <trkpt lat="45.01667" lon="5.78674">
        <ele>960.9</ele>
        <time>2022-07-16T06:29:37Z</time>
      </trkpt>
      <trkpt lat="45.01677" lon="5.78677">
        <ele>960.4</ele>
        <time>2022-07-16T06:29:38Z</time>
      </trkpt>
      <trkpt lat="45.01687" lon="5.78677">
        <ele>959.9</ele>
        <time>2022-07-16T06:29:39Z</time>
      </trkpt>
      <trkpt lat="45.01697" lon="5.78675">
        <ele>959.4</ele>
        <time>2022-07-16T06:29:40Z</time>
      </trkpt>
      <trkpt lat="45.01707" lon="5.78671">
        <ele>958.9</ele>
        <time>2022-07-16T06:29:41Z</time>
      </trkpt>
      <trkpt lat="45.01716" lon="5.78666">
        <ele>958.5</ele>
        <time>2022-07-16T06:29:42Z</time>
      </trkpt>
      <trkpt lat="45.01725" lon="5.7866">
        <ele>958.1</ele>
        <time>2022-07-16T06:29:43Z</time>
      </trkpt>
      <trkpt lat="45.01734" lon="5.78654">
        <ele>957.8</ele>
        <time>2022-07-16T06:29:44Z</time>
      </trkpt>
      <trkpt lat="45.01743" lon="5.78649">
        <ele>957.5</ele>
        <time>2022-07-16T06:29:45Z</time>
      </trkpt>
      <trkpt lat="45.01753" lon="5.78644">
        <ele>957.2</ele>
        <time>2022-07-16T06:29:46Z</time>
      </trkpt>
      <trkpt lat="45.01762" lon="5.78639">
        <ele>956.9</ele>
        <time>2022-07-16T06:29:47Z</time>
      </trkpt>
      <trkpt lat="45.01772" lon="5.78635">
        <ele>956.6</ele>
        <time>2022-07-16T06:29:48Z</time>
      </trkpt>
      <trkpt lat="45.01781" lon="5.7863">
        <ele>956.4</ele>
        <time>2022-07-16T06:29:49Z</time>
      </trkpt>
      <trkpt lat="45.0179" lon="5.78625">
        <ele>956.1</ele>
        <time>2022-07-16T06:29:50Z</time>
      </trkpt>
      <trkpt lat="45.01798" lon="5.78618">
        <ele>955.9</ele>
        <time>2022-07-16T06:29:51Z</time>
      </trkpt>
      <trkpt lat="45.01806" lon="5.7861">
        <ele>955.7</ele>
        <time>2022-07-16T06:29:52Z</time>
      </trkpt>
      <trkpt lat="45.01812" lon="5.78599">
        <ele>955.4</ele>
        <time>2022-07-16T06:29:53Z</time>
      </trkpt>
      <trkpt lat="45.01815" lon="5.78586">
        <ele>955.1</ele>
        <time>2022-07-16T06:29:54Z</time>
      </trkpt>
      <trkpt lat="45.01816" lon="5.78572">
        <ele>954.6</ele>
        <time>2022-07-16T06:29:55Z</time>
      </trkpt>
      <trkpt lat="45.01814" lon="5.78559">
        <ele>954.3</ele>
        <time>2022-07-16T06:29:56Z</time>
      </trkpt>
      <trkpt lat="45.01811" lon="5.78547">
        <ele>953.9</ele>
        <time>2022-07-16T06:29:57Z</time>
      </trkpt>
      <trkpt lat="45.01805" lon="5.78536">
        <ele>953.7</ele>
        <time>2022-07-16T06:29:58Z</time>
      </trkpt>
      <trkpt lat="45.01797" lon="5.78528">
        <ele>953.4</ele>
        <time>2022-07-16T06:29:59Z</time>
      </trkpt>
      <trkpt lat="45.01788" lon="5.78523">
        <ele>953.2</ele>
        <time>2022-07-16T06:30:00Z</time>
      </trkpt>
      <trkpt lat="45.0178" lon="5.78519">
        <ele>953</ele>
        <time>2022-07-16T06:30:01Z</time>
      </trkpt>
      <trkpt lat="45.01772" lon="5.78515">
        <ele>952.8</ele>
        <time>2022-07-16T06:30:02Z</time>
      </trkpt>
      <trkpt lat="45.01764" lon="5.78509">
        <ele>952.6</ele>
        <time>2022-07-16T06:30:03Z</time>
      </trkpt>
      <trkpt lat="45.01756" lon="5.78502">
        <ele>952.4</ele>
        <time>2022-07-16T06:30:04Z</time>
      </trkpt>
      <trkpt lat="45.01751" lon="5.78491">
        <ele>952.1</ele>
        <time>2022-07-16T06:30:05Z</time>
      </trkpt>
      <trkpt lat="45.01747" lon="5.7848">
        <ele>951.8</ele>
        <time>2022-07-16T06:30:06Z</time>
      </trkpt>
      <trkpt lat="45.01745" lon="5.78472">
        <ele>951.7</ele>
        <time>2022-07-16T06:30:07Z</time>
      </trkpt>
      <trkpt lat="45.01748" lon="5.78468">
        <ele>951.6</ele>
        <time>2022-07-16T06:30:08Z</time>
      </trkpt>
      <trkpt lat="45.01753" lon="5.78467">
        <ele>951.6</ele>
        <time>2022-07-16T06:30:09Z</time>
      </trkpt>
      <trkpt lat="45.01764" lon="5.78467">
        <ele>951.5</ele>
        <time>2022-07-16T06:30:10Z</time>
      </trkpt>
      <trkpt lat="45.01778" lon="5.78473">
        <ele>950.8</ele>
        <time>2022-07-16T06:30:11Z</time>
      </trkpt>
      <trkpt lat="45.01791" lon="5.78478">
        <ele>950</ele>
        <time>2022-07-16T06:30:12Z</time>
      </trkpt>
      <trkpt lat="45.01803" lon="5.78484">
        <ele>949.2</ele>
        <time>2022-07-16T06:30:13Z</time>
      </trkpt>
      <trkpt lat="45.01814" lon="5.78489">
        <ele>948.5</ele>
        <time>2022-07-16T06:30:14Z</time>
      </trkpt>
      <trkpt lat="45.01824" lon="5.78496">
        <ele>947.9</ele>
        <time>2022-07-16T06:30:15Z</time>
      </trkpt>
      <trkpt lat="45.01834" lon="5.78503">
        <ele>947.2</ele>
        <time>2022-07-16T06:30:16Z</time>
      </trkpt>
      <trkpt lat="45.01844" lon="5.7851">
        <ele>946.6</ele>
        <time>2022-07-16T06:30:17Z</time>
      </trkpt>
      <trkpt lat="45.01854" lon="5.78517">
        <ele>946</ele>
        <time>2022-07-16T06:30:18Z</time>
      </trkpt>
      <trkpt lat="45.01863" lon="5.78525">
        <ele>945.5</ele>
        <time>2022-07-16T06:30:19Z</time>
      </trkpt>
      <trkpt lat="45.01873" lon="5.7853">
        <ele>944.9</ele>
        <time>2022-07-16T06:30:20Z</time>
      </trkpt>
      <trkpt lat="45.01883" lon="5.78535">
        <ele>944.3</ele>
        <time>2022-07-16T06:30:21Z</time>
      </trkpt>
      <trkpt lat="45.01893" lon="5.78538">
        <ele>943.7</ele>
        <time>2022-07-16T06:30:22Z</time>
      </trkpt>
      <trkpt lat="45.01904" lon="5.78541">
        <ele>942.9</ele>
        <time>2022-07-16T06:30:23Z</time>
      </trkpt>
      <trkpt lat="45.01915" lon="5.78543">
        <ele>942.2</ele>
        <time>2022-07-16T06:30:24Z</time>
      </trkpt>
      <trkpt lat="45.01926" lon="5.78545">
        <ele>941.5</ele>
        <time>2022-07-16T06:30:25Z</time>
      </trkpt>
      <trkpt lat="45.01937" lon="5.78546">
        <ele>940.8</ele>
        <time>2022-07-16T06:30:26Z</time>
      </trkpt>
      <trkpt lat="45.01948" lon="5.78545">
        <ele>940.1</ele>
        <time>2022-07-16T06:30:27Z</time>
      </trkpt>
      <trkpt lat="45.01959" lon="5.78542">
        <ele>939.5</ele>
        <time>2022-07-16T06:30:28Z</time>
      </trkpt>
      <trkpt lat="45.0197" lon="5.78537">
        <ele>938.8</ele>
        <time>2022-07-16T06:30:29Z</time>
      </trkpt>
      <trkpt lat="45.0198" lon="5.78531">
        <ele>938.2</ele>
        <time>2022-07-16T06:30:30Z</time>
      </trkpt>
      <trkpt lat="45.01991" lon="5.78525">
        <ele>937.5</ele>
        <time>2022-07-16T06:30:31Z</time>
      </trkpt>
      <trkpt lat="45.02001" lon="5.7852">
        <ele>936.9</ele>
        <time>2022-07-16T06:30:32Z</time>
      </trkpt>
      <trkpt lat="45.02013" lon="5.78515">
        <ele>936.2</ele>
        <time>2022-07-16T06:30:33Z</time>
      </trkpt>
      <trkpt lat="45.02023" lon="5.7851">
        <ele>935.5</ele>
        <time>2022-07-16T06:30:34Z</time>
      </trkpt>
      <trkpt lat="45.02033" lon="5.78505">
        <ele>934.8</ele>
        <time>2022-07-16T06:30:35Z</time>
      </trkpt>
      <trkpt lat="45.02044" lon="5.785">
        <ele>934.1</ele>
        <time>2022-07-16T06:30:36Z</time>
      </trkpt>
      <trkpt lat="45.02055" lon="5.78495">
        <ele>933.5</ele>
        <time>2022-07-16T06:30:37Z</time>
      </trkpt>
      <trkpt lat="45.02065" lon="5.78489">
        <ele>932.8</ele>
        <time>2022-07-16T06:30:38Z</time>
      </trkpt>
      <trkpt lat="45.02074" lon="5.7848">
        <ele>932.2</ele>
        <time>2022-07-16T06:30:39Z</time>
      </trkpt>
      <trkpt lat="45.02083" lon="5.7847">
        <ele>931.6</ele>
        <time>2022-07-16T06:30:40Z</time>
      </trkpt>
      <trkpt lat="45.02092" lon="5.78459">
        <ele>930.9</ele>
        <time>2022-07-16T06:30:41Z</time>
      </trkpt>
      <trkpt lat="45.02099" lon="5.78447">
        <ele>930.3</ele>
        <time>2022-07-16T06:30:42Z</time>
      </trkpt>
      <trkpt lat="45.02107" lon="5.78435">
        <ele>929.7</ele>
        <time>2022-07-16T06:30:43Z</time>
      </trkpt>
      <trkpt lat="45.02116" lon="5.78424">
        <ele>929.1</ele>
        <time>2022-07-16T06:30:44Z</time>
      </trkpt>
      <trkpt lat="45.02125" lon="5.78414">
        <ele>928.4</ele>
        <time>2022-07-16T06:30:45Z</time>
      </trkpt>
      <trkpt lat="45.02135" lon="5.78407">
        <ele>927.8</ele>
        <time>2022-07-16T06:30:46Z</time>
      </trkpt>
      <trkpt lat="45.02146" lon="5.78401">
        <ele>927.2</ele>
        <time>2022-07-16T06:30:47Z</time>
      </trkpt>
      <trkpt lat="45.02156" lon="5.78397">
        <ele>926.6</ele>
        <time>2022-07-16T06:30:48Z</time>
      </trkpt>
      <trkpt lat="45.02167" lon="5.78393">
        <ele>926.1</ele>
        <time>2022-07-16T06:30:49Z</time>
      </trkpt>
      <trkpt lat="45.02177" lon="5.7839">
        <ele>925.5</ele>
        <time>2022-07-16T06:30:50Z</time>
      </trkpt>
      <trkpt lat="45.02188" lon="5.78387">
        <ele>925</ele>
        <time>2022-07-16T06:30:51Z</time>
      </trkpt>
      <trkpt lat="45.02199" lon="5.78383">
        <ele>924.5</ele>
        <time>2022-07-16T06:30:52Z</time>
      </trkpt>
      <trkpt lat="45.02209" lon="5.78378">
        <ele>923.9</ele>
        <time>2022-07-16T06:30:53Z</time>
      </trkpt>
      <trkpt lat="45.02219" lon="5.78372">
        <ele>923.4</ele>
        <time>2022-07-16T06:30:54Z</time>
      </trkpt>
      <trkpt lat="45.02229" lon="5.78365">
        <ele>922.9</ele>
        <time>2022-07-16T06:30:55Z</time>
      </trkpt>
      <trkpt lat="45.02239" lon="5.78357">
        <ele>922.7</ele>
        <time>2022-07-16T06:30:56Z</time>
      </trkpt>
      <trkpt lat="45.02249" lon="5.78351">
        <ele>922.2</ele>
        <time>2022-07-16T06:30:57Z</time>
      </trkpt>
      <trkpt lat="45.02259" lon="5.78344">
        <ele>921.6</ele>
        <time>2022-07-16T06:30:58Z</time>
      </trkpt>
      <trkpt lat="45.02269" lon="5.78338">
        <ele>921.1</ele>
        <time>2022-07-16T06:30:59Z</time>
      </trkpt>
      <trkpt lat="45.02279" lon="5.78332">
        <ele>920.5</ele>
        <time>2022-07-16T06:31:00Z</time>
      </trkpt>
      <trkpt lat="45.02289" lon="5.78326">
        <ele>919.9</ele>
        <time>2022-07-16T06:31:01Z</time>
      </trkpt>
      <trkpt lat="45.02299" lon="5.78322">
        <ele>919.3</ele>
        <time>2022-07-16T06:31:02Z</time>
      </trkpt>
      <trkpt lat="45.02309" lon="5.78319">
        <ele>918.6</ele>
        <time>2022-07-16T06:31:03Z</time>
      </trkpt>
      <trkpt lat="45.02319" lon="5.78316">
        <ele>917.9</ele>
        <time>2022-07-16T06:31:04Z</time>
      </trkpt>
      <trkpt lat="45.0233" lon="5.78316">
        <ele>917.3</ele>
        <time>2022-07-16T06:31:05Z</time>
      </trkpt>
      <trkpt lat="45.0234" lon="5.78314">
        <ele>916.7</ele>
        <time>2022-07-16T06:31:06Z</time>
      </trkpt>
      <trkpt lat="45.02349" lon="5.78309">
        <ele>916.1</ele>
        <time>2022-07-16T06:31:07Z</time>
      </trkpt>
      <trkpt lat="45.02359" lon="5.78301">
        <ele>915.6</ele>
        <time>2022-07-16T06:31:08Z</time>
      </trkpt>
      <trkpt lat="45.02368" lon="5.78292">
        <ele>915.3</ele>
        <time>2022-07-16T06:31:09Z</time>
      </trkpt>
      <trkpt lat="45.02375" lon="5.78281">
        <ele>915</ele>
        <time>2022-07-16T06:31:10Z</time>
      </trkpt>
      <trkpt lat="45.0238" lon="5.78269">
        <ele>914.8</ele>
        <time>2022-07-16T06:31:11Z</time>
      </trkpt>
      <trkpt lat="45.02385" lon="5.78257">
        <ele>914.5</ele>
        <time>2022-07-16T06:31:12Z</time>
      </trkpt>
      <trkpt lat="45.02391" lon="5.78245">
        <ele>914.4</ele>
        <time>2022-07-16T06:31:13Z</time>
      </trkpt>
      <trkpt lat="45.02396" lon="5.78233">
        <ele>914.2</ele>
        <time>2022-07-16T06:31:14Z</time>
      </trkpt>
      <trkpt lat="45.02402" lon="5.78221">
        <ele>914.1</ele>
        <time>2022-07-16T06:31:15Z</time>
      </trkpt>
      <trkpt lat="45.02407" lon="5.78209">
        <ele>914</ele>
        <time>2022-07-16T06:31:16Z</time>
      </trkpt>
      <trkpt lat="45.02411" lon="5.78197">
        <ele>913.9</ele>
        <time>2022-07-16T06:31:17Z</time>
      </trkpt>
      <trkpt lat="45.02414" lon="5.78186">
        <ele>913.8</ele>
        <time>2022-07-16T06:31:18Z</time>
      </trkpt>
      <trkpt lat="45.02415" lon="5.78174">
        <ele>913.8</ele>
        <time>2022-07-16T06:31:19Z</time>
      </trkpt>
      <trkpt lat="45.02415" lon="5.78162">
        <ele>913.7</ele>
        <time>2022-07-16T06:31:20Z</time>
      </trkpt>
      <trkpt lat="45.02415" lon="5.78151">
        <ele>913.6</ele>
        <time>2022-07-16T06:31:21Z</time>
      </trkpt>
      <trkpt lat="45.02413" lon="5.7814">
        <ele>913.6</ele>
        <time>2022-07-16T06:31:22Z</time>
      </trkpt>
      <trkpt lat="45.02408" lon="5.7813">
        <ele>913.4</ele>
        <time>2022-07-16T06:31:23Z</time>
      </trkpt>
      <trkpt lat="45.02403" lon="5.7812">
        <ele>913.1</ele>
        <time>2022-07-16T06:31:24Z</time>
      </trkpt>
      <trkpt lat="45.02397" lon="5.78111">
        <ele>912.8</ele>
        <time>2022-07-16T06:31:25Z</time>
      </trkpt>
      <trkpt lat="45.02391" lon="5.78102">
        <ele>912.6</ele>
        <time>2022-07-16T06:31:26Z</time>
      </trkpt>
      <trkpt lat="45.02385" lon="5.78094">
        <ele>912.5</ele>
        <time>2022-07-16T06:31:27Z</time>
      </trkpt>
      <trkpt lat="45.02378" lon="5.78086">
        <ele>912.4</ele>
        <time>2022-07-16T06:31:28Z</time>
      </trkpt>
      <trkpt lat="45.02372" lon="5.78079">
        <ele>912.3</ele>
        <time>2022-07-16T06:31:29Z</time>
      </trkpt>
      <trkpt lat="45.02366" lon="5.78072">
        <ele>912.2</ele>
        <time>2022-07-16T06:31:30Z</time>
      </trkpt>
      <trkpt lat="45.0236" lon="5.78064">
        <ele>912.2</ele>
        <time>2022-07-16T06:31:31Z</time>
      </trkpt>
      <trkpt lat="45.02354" lon="5.78056">
        <ele>912.3</ele>
        <time>2022-07-16T06:31:32Z</time>
      </trkpt>
      <trkpt lat="45.02349" lon="5.78049">
        <ele>912.3</ele>
        <time>2022-07-16T06:31:33Z</time>
      </trkpt>
      <trkpt lat="45.02344" lon="5.78041">
        <ele>912.3</ele>
        <time>2022-07-16T06:31:34Z</time>
      </trkpt>
      <trkpt lat="45.02339" lon="5.78034">
        <ele>912.3</ele>
        <time>2022-07-16T06:31:35Z</time>
      </trkpt>
      <trkpt lat="45.02334" lon="5.78028">
        <ele>912.3</ele>
        <time>2022-07-16T06:31:36Z</time>
      </trkpt>
      <trkpt lat="45.0233" lon="5.7802">
        <ele>912.4</ele>
        <time>2022-07-16T06:31:37Z</time>
      </trkpt>
      <trkpt lat="45.02327" lon="5.78014">
        <ele>912.4</ele>
        <time>2022-07-16T06:31:38Z</time>
      </trkpt>
      <trkpt lat="45.02322" lon="5.78007">
        <ele>912.4</ele>
        <time>2022-07-16T06:31:39Z</time>
      </trkpt>
      <trkpt lat="45.02318" lon="5.78">
        <ele>912.4</ele>
        <time>2022-07-16T06:31:40Z</time>
      </trkpt>
      <trkpt lat="45.02313" lon="5.77993">
        <ele>912.4</ele>
        <time>2022-07-16T06:31:41Z</time>
      </trkpt>
      <trkpt lat="45.02308" lon="5.77987">
        <ele>912.4</ele>
        <time>2022-07-16T06:31:42Z</time>
      </trkpt>
      <trkpt lat="45.02304" lon="5.77981">
        <ele>912.4</ele>
        <time>2022-07-16T06:31:43Z</time>
      </trkpt>
      <trkpt lat="45.023" lon="5.77975">
        <ele>912.4</ele>
        <time>2022-07-16T06:31:44Z</time>
      </trkpt>
      <trkpt lat="45.02294" lon="5.77968">
        <ele>912.4</ele>
        <time>2022-07-16T06:31:45Z</time>
      </trkpt>
      <trkpt lat="45.0229" lon="5.77962">
        <ele>912.4</ele>
        <time>2022-07-16T06:31:46Z</time>
      </trkpt>
      <trkpt lat="45.02285" lon="5.77955">
        <ele>912.5</ele>
        <time>2022-07-16T06:31:47Z</time>
      </trkpt>
      <trkpt lat="45.0228" lon="5.77948">
        <ele>912.5</ele>
        <time>2022-07-16T06:31:48Z</time>
      </trkpt>
      <trkpt lat="45.02275" lon="5.77941">
        <ele>912.5</ele>
        <time>2022-07-16T06:31:49Z</time>
      </trkpt>
      <trkpt lat="45.0227" lon="5.77935">
        <ele>912.5</ele>
        <time>2022-07-16T06:31:50Z</time>
      </trkpt>
      <trkpt lat="45.02266" lon="5.77928">
        <ele>912.6</ele>
        <time>2022-07-16T06:31:51Z</time>
      </trkpt>
      <trkpt lat="45.02261" lon="5.77921">
        <ele>912.6</ele>
        <time>2022-07-16T06:31:52Z</time>
      </trkpt>
      <trkpt lat="45.02257" lon="5.77914">
        <ele>912.6</ele>
        <time>2022-07-16T06:31:53Z</time>
      </trkpt>
      <trkpt lat="45.02252" lon="5.77907">
        <ele>912.7</ele>
        <time>2022-07-16T06:31:54Z</time>
      </trkpt>
      <trkpt lat="45.02248" lon="5.779">
        <ele>912.7</ele>
        <time>2022-07-16T06:31:55Z</time>
      </trkpt>
      <trkpt lat="45.02243" lon="5.77893">
        <ele>912.7</ele>
        <time>2022-07-16T06:31:56Z</time>
      </trkpt>
      <trkpt lat="45.02239" lon="5.77886">
        <ele>912.8</ele>
        <time>2022-07-16T06:31:57Z</time>
      </trkpt>
      <trkpt lat="45.02234" lon="5.7788">
        <ele>912.8</ele>
        <time>2022-07-16T06:31:58Z</time>
      </trkpt>
      <trkpt lat="45.0223" lon="5.77873">
        <ele>912.9</ele>
        <time>2022-07-16T06:31:59Z</time>
      </trkpt>
      <trkpt lat="45.02225" lon="5.77867">
        <ele>912.9</ele>
        <time>2022-07-16T06:32:00Z</time>
      </trkpt>
      <trkpt lat="45.0222" lon="5.77861">
        <ele>913</ele>
        <time>2022-07-16T06:32:01Z</time>
      </trkpt>
      <trkpt lat="45.02215" lon="5.77856">
        <ele>913.1</ele>
        <time>2022-07-16T06:32:02Z</time>
      </trkpt>
      <trkpt lat="45.02209" lon="5.77851">
        <ele>913.1</ele>
        <time>2022-07-16T06:32:03Z</time>
      </trkpt>
      <trkpt lat="45.02204" lon="5.77846">
        <ele>913.2</ele>
        <time>2022-07-16T06:32:04Z</time>
      </trkpt>
      <trkpt lat="45.02198" lon="5.77841">
        <ele>913.3</ele>
        <time>2022-07-16T06:32:05Z</time>
      </trkpt>
      <trkpt lat="45.02192" lon="5.77836">
        <ele>913.4</ele>
        <time>2022-07-16T06:32:06Z</time>
      </trkpt>
      <trkpt lat="45.02188" lon="5.77829">
        <ele>913.5</ele>
        <time>2022-07-16T06:32:07Z</time>
      </trkpt>
      <trkpt lat="45.02185" lon="5.77822">
        <ele>913.6</ele>
        <time>2022-07-16T06:32:08Z</time>
      </trkpt>
      <trkpt lat="45.02183" lon="5.77814">
        <ele>913.7</ele>
        <time>2022-07-16T06:32:09Z</time>
      </trkpt>
      <trkpt lat="45.02183" lon="5.77806">
        <ele>913.7</ele>
        <time>2022-07-16T06:32:10Z</time>
      </trkpt>
      <trkpt lat="45.02184" lon="5.77798">
        <ele>913.8</ele>
        <time>2022-07-16T06:32:11Z</time>
      </trkpt>
      <trkpt lat="45.02186" lon="5.7779">
        <ele>913.9</ele>
        <time>2022-07-16T06:32:12Z</time>
      </trkpt>
      <trkpt lat="45.02188" lon="5.77783">
        <ele>913.9</ele>
        <time>2022-07-16T06:32:13Z</time>
      </trkpt>
      <trkpt lat="45.0219" lon="5.77775">
        <ele>913.9</ele>
        <time>2022-07-16T06:32:14Z</time>
      </trkpt>
      <trkpt lat="45.02193" lon="5.77767">
        <ele>914</ele>
        <time>2022-07-16T06:32:15Z</time>
      </trkpt>
      <trkpt lat="45.02196" lon="5.7776">
        <ele>914</ele>
        <time>2022-07-16T06:32:16Z</time>
      </trkpt>
      <trkpt lat="45.02198" lon="5.77752">
        <ele>914</ele>
        <time>2022-07-16T06:32:17Z</time>
      </trkpt>
      <trkpt lat="45.022" lon="5.77744">
        <ele>914</ele>
        <time>2022-07-16T06:32:18Z</time>
      </trkpt>
      <trkpt lat="45.02202" lon="5.77737">
        <ele>914</ele>
        <time>2022-07-16T06:32:19Z</time>
      </trkpt>
      <trkpt lat="45.02205" lon="5.7773">
        <ele>914</ele>
        <time>2022-07-16T06:32:20Z</time>
      </trkpt>
      <trkpt lat="45.02207" lon="5.77723">
        <ele>914</ele>
        <time>2022-07-16T06:32:21Z</time>
      </trkpt>
      <trkpt lat="45.0221" lon="5.77716">
        <ele>914</ele>
        <time>2022-07-16T06:32:22Z</time>
      </trkpt>
      <trkpt lat="45.02212" lon="5.77708">
        <ele>914</ele>
        <time>2022-07-16T06:32:23Z</time>
      </trkpt>
      <trkpt lat="45.02214" lon="5.777">
        <ele>913.9</ele>
        <time>2022-07-16T06:32:24Z</time>
      </trkpt>
      <trkpt lat="45.02217" lon="5.77691">
        <ele>913.8</ele>
        <time>2022-07-16T06:32:25Z</time>
      </trkpt>
      <trkpt lat="45.0222" lon="5.77683">
        <ele>913.7</ele>
        <time>2022-07-16T06:32:26Z</time>
      </trkpt>
      <trkpt lat="45.02223" lon="5.77675">
        <ele>913.6</ele>
        <time>2022-07-16T06:32:27Z</time>
      </trkpt>
      <trkpt lat="45.02226" lon="5.77666">
        <ele>913.5</ele>
        <time>2022-07-16T06:32:28Z</time>
      </trkpt>
      <trkpt lat="45.02229" lon="5.77657">
        <ele>913.4</ele>
        <time>2022-07-16T06:32:29Z</time>
      </trkpt>
      <trkpt lat="45.02232" lon="5.7765">
        <ele>913.3</ele>
        <time>2022-07-16T06:32:30Z</time>
      </trkpt>
      <trkpt lat="45.02235" lon="5.77642">
        <ele>913.2</ele>
        <time>2022-07-16T06:32:31Z</time>
      </trkpt>
      <trkpt lat="45.02238" lon="5.77633">
        <ele>913.1</ele>
        <time>2022-07-16T06:32:32Z</time>
      </trkpt>
      <trkpt lat="45.02241" lon="5.77624">
        <ele>913</ele>
        <time>2022-07-16T06:32:33Z</time>
      </trkpt>
      <trkpt lat="45.02244" lon="5.77615">
        <ele>912.8</ele>
        <time>2022-07-16T06:32:34Z</time>
      </trkpt>
      <trkpt lat="45.02247" lon="5.77606">
        <ele>912.7</ele>
        <time>2022-07-16T06:32:35Z</time>
      </trkpt>
      <trkpt lat="45.02249" lon="5.77596">
        <ele>912.6</ele>
        <time>2022-07-16T06:32:36Z</time>
      </trkpt>
      <trkpt lat="45.02252" lon="5.77587">
        <ele>912.4</ele>
        <time>2022-07-16T06:32:37Z</time>
      </trkpt>
      <trkpt lat="45.02255" lon="5.77578">
        <ele>912.3</ele>
        <time>2022-07-16T06:32:38Z</time>
      </trkpt>
      <trkpt lat="45.02258" lon="5.77568">
        <ele>912.1</ele>
        <time>2022-07-16T06:32:39Z</time>
      </trkpt>
      <trkpt lat="45.0226" lon="5.77558">
        <ele>911.9</ele>
        <time>2022-07-16T06:32:40Z</time>
      </trkpt>
      <trkpt lat="45.02263" lon="5.77549">
        <ele>911.8</ele>
        <time>2022-07-16T06:32:41Z</time>
      </trkpt>
      <trkpt lat="45.02266" lon="5.77541">
        <ele>911.7</ele>
        <time>2022-07-16T06:32:42Z</time>
      </trkpt>
      <trkpt lat="45.02269" lon="5.77531">
        <ele>911.6</ele>
        <time>2022-07-16T06:32:43Z</time>
      </trkpt>
      <trkpt lat="45.02272" lon="5.77521">
        <ele>911.6</ele>
        <time>2022-07-16T06:32:44Z</time>
      </trkpt>
      <trkpt lat="45.02275" lon="5.77512">
        <ele>911.5</ele>
        <time>2022-07-16T06:32:45Z</time>
      </trkpt>
      <trkpt lat="45.02279" lon="5.77502">
        <ele>911.5</ele>
        <time>2022-07-16T06:32:46Z</time>
      </trkpt>
      <trkpt lat="45.02282" lon="5.77493">
        <ele>911.5</ele>
        <time>2022-07-16T06:32:47Z</time>
      </trkpt>
      <trkpt lat="45.02285" lon="5.77484">
        <ele>911.4</ele>
        <time>2022-07-16T06:32:48Z</time>
      </trkpt>
      <trkpt lat="45.02288" lon="5.77475">
        <ele>911.4</ele>
        <time>2022-07-16T06:32:49Z</time>
      </trkpt>
      <trkpt lat="45.02291" lon="5.77466">
        <ele>911.5</ele>
        <time>2022-07-16T06:32:50Z</time>
      </trkpt>
      <trkpt lat="45.02293" lon="5.77457">
        <ele>911.5</ele>
        <time>2022-07-16T06:32:51Z</time>
      </trkpt>
      <trkpt lat="45.02295" lon="5.77449">
        <ele>911.5</ele>
        <time>2022-07-16T06:32:52Z</time>
      </trkpt>
      <trkpt lat="45.02298" lon="5.77441">
        <ele>911.5</ele>
        <time>2022-07-16T06:32:53Z</time>
      </trkpt>
      <trkpt lat="45.02299" lon="5.77434">
        <ele>911.5</ele>
        <time>2022-07-16T06:32:54Z</time>
      </trkpt>
      <trkpt lat="45.02301" lon="5.77428">
        <ele>911.6</ele>
        <time>2022-07-16T06:32:55Z</time>
      </trkpt>
      <trkpt lat="45.02303" lon="5.77422">
        <ele>911.6</ele>
        <time>2022-07-16T06:32:56Z</time>
      </trkpt>
      <trkpt lat="45.02304" lon="5.77417">
        <ele>911.6</ele>
        <time>2022-07-16T06:32:57Z</time>
      </trkpt>
      <trkpt lat="45.02305" lon="5.77414">
        <ele>911.6</ele>
        <time>2022-07-16T06:32:58Z</time>
      </trkpt>
      <trkpt lat="45.02306" lon="5.77411">
        <ele>911.6</ele>
        <time>2022-07-16T06:32:59Z</time>
      </trkpt>
      <trkpt lat="45.02306" lon="5.77405">
        <ele>911.7</ele>
        <time>2022-07-16T06:33:00Z</time>
      </trkpt>
      <trkpt lat="45.02307" lon="5.77403">
        <ele>911.7</ele>
        <time>2022-07-16T06:33:01Z</time>
      </trkpt>
      <trkpt lat="45.02308" lon="5.77396">
        <ele>911.7</ele>
        <time>2022-07-16T06:33:02Z</time>
      </trkpt>
      <trkpt lat="45.02308" lon="5.77391">
        <ele>911.8</ele>
        <time>2022-07-16T06:33:04Z</time>
      </trkpt>
      <trkpt lat="45.02308" lon="5.77392">
        <ele>911.8</ele>
        <time>2022-07-16T06:33:07Z</time>
      </trkpt>
      <trkpt lat="45.02308" lon="5.77393">
        <ele>911.8</ele>
        <time>2022-07-16T06:33:10Z</time>
      </trkpt>
      <trkpt lat="45.02309" lon="5.77392">
        <ele>911.8</ele>
        <time>2022-07-16T06:33:12Z</time>
      </trkpt>
      <trkpt lat="45.02309" lon="5.77392">
        <ele>911.8</ele>
        <time>2022-07-16T06:33:14Z</time>
      </trkpt>
      <trkpt lat="45.02309" lon="5.77386">
        <ele>911.9</ele>
        <time>2022-07-16T06:33:54Z</time>
      </trkpt>
      <trkpt lat="45.02309" lon="5.77385">
        <ele>911.9</ele>
        <time>2022-07-16T06:33:55Z</time>
      </trkpt>
      <trkpt lat="45.02311" lon="5.77382">
        <ele>911.9</ele>
        <time>2022-07-16T06:33:57Z</time>
      </trkpt>
      <trkpt lat="45.02312" lon="5.77382">
        <ele>911.9</ele>
        <time>2022-07-16T06:33:58Z</time>
      </trkpt>
      <trkpt lat="45.02312" lon="5.77382">
        <ele>911.9</ele>
        <time>2022-07-16T06:34:00Z</time>
      </trkpt>
      <trkpt lat="45.02312" lon="5.77382">
        <ele>911.9</ele>
        <time>2022-07-16T06:34:01Z</time>
      </trkpt>
      <trkpt lat="45.02312" lon="5.77382">
        <ele>911.9</ele>
        <time>2022-07-16T06:34:02Z</time>
      </trkpt>
      <trkpt lat="45.02312" lon="5.77382">
        <ele>911.9</ele>
        <time>2022-07-16T06:34:03Z</time>
      </trkpt>
      <trkpt lat="45.02312" lon="5.77382">
        <ele>911.9</ele>
        <time>2022-07-16T06:34:04Z</time>
      </trkpt>
      <trkpt lat="45.02312" lon="5.77382">
        <ele>911.9</ele>
        <time>2022-07-16T06:34:05Z</time>
      </trkpt>
      <trkpt lat="45.02312" lon="5.77382">
        <ele>911.9</ele>
        <time>2022-07-16T06:34:06Z</time>
      </trkpt>
      <trkpt lat="45.02313" lon="5.77382">
        <ele>911.9</ele>
        <time>2022-07-16T06:34:07Z</time>
      </trkpt>
      <trkpt lat="45.02313" lon="5.77382">
        <ele>911.9</ele>
        <time>2022-07-16T06:34:08Z</time>
      </trkpt>
      <trkpt lat="45.02311" lon="5.7739">
        <ele>912</ele>
        <time>2022-07-16T06:34:11Z</time>
      </trkpt>
      <trkpt lat="45.02313" lon="5.77395">
        <ele>912.1</ele>
        <time>2022-07-16T06:34:13Z</time>
      </trkpt>
      <trkpt lat="45.02314" lon="5.77402">
        <ele>912.1</ele>
        <time>2022-07-16T06:34:14Z</time>
      </trkpt>
      <trkpt lat="45.02313" lon="5.77407">
        <ele>912.2</ele>
        <time>2022-07-16T06:34:15Z</time>
      </trkpt>
      <trkpt lat="45.02312" lon="5.77414">
        <ele>912.3</ele>
        <time>2022-07-16T06:34:17Z</time>
      </trkpt>
      <trkpt lat="45.02308" lon="5.77413">
        <ele>912.4</ele>
        <time>2022-07-16T06:34:20Z</time>
      </trkpt>
      <trkpt lat="45.02308" lon="5.77413">
        <ele>912.4</ele>
        <time>2022-07-16T06:34:21Z</time>
      </trkpt>
      <trkpt lat="45.02306" lon="5.77413">
        <ele>912.4</ele>
        <time>2022-07-16T06:34:22Z</time>
      </trkpt>
      <trkpt lat="45.02301" lon="5.77419">
        <ele>912.5</ele>
        <time>2022-07-16T06:34:24Z</time>
      </trkpt>
      <trkpt lat="45.02298" lon="5.77423">
        <ele>912.6</ele>
        <time>2022-07-16T06:34:25Z</time>
      </trkpt>
      <trkpt lat="45.02295" lon="5.77433">
        <ele>912.8</ele>
        <time>2022-07-16T06:34:27Z</time>
      </trkpt>
      <trkpt lat="45.02298" lon="5.77428">
        <ele>912.9</ele>
        <time>2022-07-16T06:34:29Z</time>
      </trkpt>
      <trkpt lat="45.02302" lon="5.7742">
        <ele>913.1</ele>
        <time>2022-07-16T06:34:30Z</time>
      </trkpt>
      <trkpt lat="45.02305" lon="5.77412">
        <ele>913.2</ele>
        <time>2022-07-16T06:34:32Z</time>
      </trkpt>
      <trkpt lat="45.02308" lon="5.77408">
        <ele>913.3</ele>
        <time>2022-07-16T06:34:34Z</time>
      </trkpt>
      <trkpt lat="45.02311" lon="5.77412">
        <ele>913.4</ele>
        <time>2022-07-16T06:34:36Z</time>
      </trkpt>
      <trkpt lat="45.02313" lon="5.77409">
        <ele>913.4</ele>
        <time>2022-07-16T06:34:38Z</time>
      </trkpt>
      <trkpt lat="45.02309" lon="5.77408">
        <ele>913.5</ele>
        <time>2022-07-16T06:34:41Z</time>
      </trkpt>
      <trkpt lat="45.02309" lon="5.77408">
        <ele>913.5</ele>
        <time>2022-07-16T06:34:42Z</time>
      </trkpt>
      <trkpt lat="45.02309" lon="5.77408">
        <ele>913.5</ele>
        <time>2022-07-16T06:34:43Z</time>
      </trkpt>
      <trkpt lat="45.02309" lon="5.77407">
        <ele>913.5</ele>
        <time>2022-07-16T06:34:44Z</time>
      </trkpt>
      <trkpt lat="45.02308" lon="5.77407">
        <ele>913.6</ele>
        <time>2022-07-16T06:34:45Z</time>
      </trkpt>
      <trkpt lat="45.02308" lon="5.77407">
        <ele>913.6</ele>
        <time>2022-07-16T06:34:46Z</time>
      </trkpt>
      <trkpt lat="45.02309" lon="5.77406">
        <ele>913.6</ele>
        <time>2022-07-16T06:34:48Z</time>
      </trkpt>
      <trkpt lat="45.0231" lon="5.77404">
        <ele>913.6</ele>
        <time>2022-07-16T06:34:49Z</time>
      </trkpt>
      <trkpt lat="45.02311" lon="5.77399">
        <ele>913.7</ele>
        <time>2022-07-16T06:34:50Z</time>
      </trkpt>
      <trkpt lat="45.02309" lon="5.77392">
        <ele>913.8</ele>
        <time>2022-07-16T06:34:51Z</time>
      </trkpt>
      <trkpt lat="45.02309" lon="5.77386">
        <ele>913.9</ele>
        <time>2022-07-16T06:34:52Z</time>
      </trkpt>
      <trkpt lat="45.02315" lon="5.77369">
        <ele>913.9</ele>
        <time>2022-07-16T06:34:55Z</time>
      </trkpt>
      <trkpt lat="45.02317" lon="5.77364">
        <ele>914</ele>
        <time>2022-07-16T06:34:56Z</time>
      </trkpt>
      <trkpt lat="45.0232" lon="5.77357">
        <ele>914.1</ele>
        <time>2022-07-16T06:34:58Z</time>
      </trkpt>
      <trkpt lat="45.02321" lon="5.77353">
        <ele>914.2</ele>
        <time>2022-07-16T06:34:59Z</time>
      </trkpt>
      <trkpt lat="45.02326" lon="5.77348">
        <ele>914.4</ele>
        <time>2022-07-16T06:35:00Z</time>
      </trkpt>
      <trkpt lat="45.02336" lon="5.77345">
        <ele>914.7</ele>
        <time>2022-07-16T06:35:02Z</time>
      </trkpt>
      <trkpt lat="45.02339" lon="5.77342">
        <ele>914.8</ele>
        <time>2022-07-16T06:35:04Z</time>
      </trkpt>
      <trkpt lat="45.02342" lon="5.7734">
        <ele>915</ele>
        <time>2022-07-16T06:35:05Z</time>
      </trkpt>
      <trkpt lat="45.02346" lon="5.77337">
        <ele>915.1</ele>
        <time>2022-07-16T06:35:06Z</time>
      </trkpt>
      <trkpt lat="45.02348" lon="5.77333">
        <ele>915.3</ele>
        <time>2022-07-16T06:35:07Z</time>
      </trkpt>
      <trkpt lat="45.02354" lon="5.77328">
        <ele>915.6</ele>
        <time>2022-07-16T06:35:08Z</time>
      </trkpt>
      <trkpt lat="45.02357" lon="5.77326">
        <ele>915.8</ele>
        <time>2022-07-16T06:35:09Z</time>
      </trkpt>
      <trkpt lat="45.02359" lon="5.77322">
        <ele>916</ele>
        <time>2022-07-16T06:35:10Z</time>
      </trkpt>
      <trkpt lat="45.02362" lon="5.77317">
        <ele>916.2</ele>
        <time>2022-07-16T06:35:12Z</time>
      </trkpt>
      <trkpt lat="45.02364" lon="5.77316">
        <ele>916.4</ele>
        <time>2022-07-16T06:35:13Z</time>
      </trkpt>
      <trkpt lat="45.02369" lon="5.77309">
        <ele>916.8</ele>
        <time>2022-07-16T06:35:15Z</time>
      </trkpt>
      <trkpt lat="45.02372" lon="5.77302">
        <ele>917</ele>
        <time>2022-07-16T06:35:16Z</time>
      </trkpt>
      <trkpt lat="45.02374" lon="5.77299">
        <ele>917.2</ele>
        <time>2022-07-16T06:35:17Z</time>
      </trkpt>
      <trkpt lat="45.02376" lon="5.77294">
        <ele>917.5</ele>
        <time>2022-07-16T06:35:19Z</time>
      </trkpt>
      <trkpt lat="45.02378" lon="5.77291">
        <ele>917.6</ele>
        <time>2022-07-16T06:35:20Z</time>
      </trkpt>
      <trkpt lat="45.0238" lon="5.77286">
        <ele>917.9</ele>
        <time>2022-07-16T06:35:21Z</time>
      </trkpt>
      <trkpt lat="45.02382" lon="5.77283">
        <ele>918</ele>
        <time>2022-07-16T06:35:22Z</time>
      </trkpt>
      <trkpt lat="45.02385" lon="5.77275">
        <ele>918.4</ele>
        <time>2022-07-16T06:35:24Z</time>
      </trkpt>
      <trkpt lat="45.02386" lon="5.77271">
        <ele>918.6</ele>
        <time>2022-07-16T06:35:25Z</time>
      </trkpt>
      <trkpt lat="45.02388" lon="5.77266">
        <ele>918.9</ele>
        <time>2022-07-16T06:35:26Z</time>
      </trkpt>
      <trkpt lat="45.02391" lon="5.7726">
        <ele>919.2</ele>
        <time>2022-07-16T06:35:28Z</time>
      </trkpt>
      <trkpt lat="45.02392" lon="5.77256">
        <ele>919.4</ele>
        <time>2022-07-16T06:35:29Z</time>
      </trkpt>
      <trkpt lat="45.02396" lon="5.7725">
        <ele>919.8</ele>
        <time>2022-07-16T06:35:30Z</time>
      </trkpt>
      <trkpt lat="45.02399" lon="5.77245">
        <ele>920.1</ele>
        <time>2022-07-16T06:35:32Z</time>
      </trkpt>
      <trkpt lat="45.02401" lon="5.77243">
        <ele>920.2</ele>
        <time>2022-07-16T06:35:33Z</time>
      </trkpt>
      <trkpt lat="45.02405" lon="5.77236">
        <ele>920.7</ele>
        <time>2022-07-16T06:35:35Z</time>
      </trkpt>
      <trkpt lat="45.02408" lon="5.77233">
        <ele>921</ele>
        <time>2022-07-16T06:35:36Z</time>
      </trkpt>
      <trkpt lat="45.02414" lon="5.77227">
        <ele>921.5</ele>
        <time>2022-07-16T06:35:37Z</time>
      </trkpt>
      <trkpt lat="45.02417" lon="5.77226">
        <ele>921.7</ele>
        <time>2022-07-16T06:35:39Z</time>
      </trkpt>
      <trkpt lat="45.02422" lon="5.77224">
        <ele>922.1</ele>
        <time>2022-07-16T06:35:40Z</time>
      </trkpt>
      <trkpt lat="45.02426" lon="5.77222">
        <ele>922.4</ele>
        <time>2022-07-16T06:35:41Z</time>
      </trkpt>
      <trkpt lat="45.02431" lon="5.77222">
        <ele>922.8</ele>
        <time>2022-07-16T06:35:43Z</time>
      </trkpt>
      <trkpt lat="45.02435" lon="5.77222">
        <ele>923.1</ele>
        <time>2022-07-16T06:35:44Z</time>
      </trkpt>
      <trkpt lat="45.02439" lon="5.77222">
        <ele>923.4</ele>
        <time>2022-07-16T06:35:45Z</time>
      </trkpt>
      <trkpt lat="45.02443" lon="5.77222">
        <ele>923.7</ele>
        <time>2022-07-16T06:35:46Z</time>
      </trkpt>
      <trkpt lat="45.02445" lon="5.77222">
        <ele>923.9</ele>
        <time>2022-07-16T06:35:47Z</time>
      </trkpt>
      <trkpt lat="45.02452" lon="5.77222">
        <ele>924.4</ele>
        <time>2022-07-16T06:35:49Z</time>
      </trkpt>
      <trkpt lat="45.02456" lon="5.77223">
        <ele>924.8</ele>
        <time>2022-07-16T06:35:51Z</time>
      </trkpt>
      <trkpt lat="45.0246" lon="5.77222">
        <ele>925.1</ele>
        <time>2022-07-16T06:35:53Z</time>
      </trkpt>
      <trkpt lat="45.02466" lon="5.77221">
        <ele>925.5</ele>
        <time>2022-07-16T06:35:55Z</time>
      </trkpt>
      <trkpt lat="45.02472" lon="5.77221">
        <ele>925.9</ele>
        <time>2022-07-16T06:35:57Z</time>
      </trkpt>
      <trkpt lat="45.02475" lon="5.7722">
        <ele>926.1</ele>
        <time>2022-07-16T06:35:58Z</time>
      </trkpt>
      <trkpt lat="45.02481" lon="5.77218">
        <ele>926.6</ele>
        <time>2022-07-16T06:36:01Z</time>
      </trkpt>
      <trkpt lat="45.02485" lon="5.77218">
        <ele>926.9</ele>
        <time>2022-07-16T06:36:02Z</time>
      </trkpt>
      <trkpt lat="45.02491" lon="5.77218">
        <ele>927.4</ele>
        <time>2022-07-16T06:36:04Z</time>
      </trkpt>
      <trkpt lat="45.02495" lon="5.77218">
        <ele>927.7</ele>
        <time>2022-07-16T06:36:06Z</time>
      </trkpt>
      <trkpt lat="45.02499" lon="5.77218">
        <ele>928</ele>
        <time>2022-07-16T06:36:08Z</time>
      </trkpt>
      <trkpt lat="45.02504" lon="5.77217">
        <ele>928.3</ele>
        <time>2022-07-16T06:36:09Z</time>
      </trkpt>
      <trkpt lat="45.02507" lon="5.77216">
        <ele>928.6</ele>
        <time>2022-07-16T06:36:10Z</time>
      </trkpt>
      <trkpt lat="45.02511" lon="5.77213">
        <ele>929</ele>
        <time>2022-07-16T06:36:12Z</time>
      </trkpt>
      <trkpt lat="45.02514" lon="5.77209">
        <ele>929.3</ele>
        <time>2022-07-16T06:36:13Z</time>
      </trkpt>
      <trkpt lat="45.02515" lon="5.77207">
        <ele>929.5</ele>
        <time>2022-07-16T06:36:14Z</time>
      </trkpt>
      <trkpt lat="45.02515" lon="5.77202">
        <ele>929.8</ele>
        <time>2022-07-16T06:36:15Z</time>
      </trkpt>
      <trkpt lat="45.02515" lon="5.77195">
        <ele>930.2</ele>
        <time>2022-07-16T06:36:17Z</time>
      </trkpt>
      <trkpt lat="45.02513" lon="5.77192">
        <ele>930.5</ele>
        <time>2022-07-16T06:36:18Z</time>
      </trkpt>
      <trkpt lat="45.0251" lon="5.77184">
        <ele>931.3</ele>
        <time>2022-07-16T06:36:20Z</time>
      </trkpt>
      <trkpt lat="45.02507" lon="5.77184">
        <ele>931.5</ele>
        <time>2022-07-16T06:36:21Z</time>
      </trkpt>
      <trkpt lat="45.02505" lon="5.77184">
        <ele>931.6</ele>
        <time>2022-07-16T06:36:22Z</time>
      </trkpt>
      <trkpt lat="45.02502" lon="5.77182">
        <ele>931.7</ele>
        <time>2022-07-16T06:36:23Z</time>
      </trkpt>
      <trkpt lat="45.02496" lon="5.7718">
        <ele>932</ele>
        <time>2022-07-16T06:36:24Z</time>
      </trkpt>
      <trkpt lat="45.02492" lon="5.77178">
        <ele>932.2</ele>
        <time>2022-07-16T06:36:26Z</time>
      </trkpt>
      <trkpt lat="45.0249" lon="5.77179">
        <ele>932.4</ele>
        <time>2022-07-16T06:36:27Z</time>
      </trkpt>
      <trkpt lat="45.02487" lon="5.77178">
        <ele>932.5</ele>
        <time>2022-07-16T06:36:28Z</time>
      </trkpt>
      <trkpt lat="45.02483" lon="5.77177">
        <ele>932.7</ele>
        <time>2022-07-16T06:36:29Z</time>
      </trkpt>
      <trkpt lat="45.0248" lon="5.77176">
        <ele>932.8</ele>
        <time>2022-07-16T06:36:30Z</time>
      </trkpt>
      <trkpt lat="45.02476" lon="5.77174">
        <ele>933.1</ele>
        <time>2022-07-16T06:36:32Z</time>
      </trkpt>
      <trkpt lat="45.02473" lon="5.77173">
        <ele>933.2</ele>
        <time>2022-07-16T06:36:33Z</time>
      </trkpt>
      <trkpt lat="45.02471" lon="5.77172">
        <ele>933.3</ele>
        <time>2022-07-16T06:36:34Z</time>
      </trkpt>
      <trkpt lat="45.02467" lon="5.77171">
        <ele>933.5</ele>
        <time>2022-07-16T06:36:35Z</time>
      </trkpt>
      <trkpt lat="45.02462" lon="5.77169">
        <ele>933.8</ele>
        <time>2022-07-16T06:36:37Z</time>
      </trkpt>
      <trkpt lat="45.0246" lon="5.77168">
        <ele>933.9</ele>
        <time>2022-07-16T06:36:38Z</time>
      </trkpt>
      <trkpt lat="45.02455" lon="5.77167">
        <ele>934.1</ele>
        <time>2022-07-16T06:36:40Z</time>
      </trkpt>
      <trkpt lat="45.02451" lon="5.77166">
        <ele>934.4</ele>
        <time>2022-07-16T06:36:41Z</time>
      </trkpt>
      <trkpt lat="45.02444" lon="5.77165">
        <ele>934.7</ele>
        <time>2022-07-16T06:36:43Z</time>
      </trkpt>
      <trkpt lat="45.02441" lon="5.77164">
        <ele>934.8</ele>
        <time>2022-07-16T06:36:44Z</time>
      </trkpt>
      <trkpt lat="45.02438" lon="5.77164">
        <ele>935</ele>
        <time>2022-07-16T06:36:45Z</time>
      </trkpt>
      <trkpt lat="45.02434" lon="5.77163">
        <ele>935.2</ele>
        <time>2022-07-16T06:36:46Z</time>
      </trkpt>
      <trkpt lat="45.02429" lon="5.77162">
        <ele>935.4</ele>
        <time>2022-07-16T06:36:47Z</time>
      </trkpt>
      <trkpt lat="45.02426" lon="5.77162">
        <ele>935.6</ele>
        <time>2022-07-16T06:36:48Z</time>
      </trkpt>
      <trkpt lat="45.0242" lon="5.77157">
        <ele>935.8</ele>
        <time>2022-07-16T06:36:50Z</time>
      </trkpt>
      <trkpt lat="45.02417" lon="5.77156">
        <ele>936</ele>
        <time>2022-07-16T06:36:51Z</time>
      </trkpt>
      <trkpt lat="45.02413" lon="5.77156">
        <ele>936.1</ele>
        <time>2022-07-16T06:36:52Z</time>
      </trkpt>
      <trkpt lat="45.02409" lon="5.77154">
        <ele>936.3</ele>
        <time>2022-07-16T06:36:53Z</time>
      </trkpt>
      <trkpt lat="45.02405" lon="5.77152">
        <ele>936.5</ele>
        <time>2022-07-16T06:36:54Z</time>
      </trkpt>
      <trkpt lat="45.02398" lon="5.7715">
        <ele>936.6</ele>
        <time>2022-07-16T06:36:55Z</time>
      </trkpt>
      <trkpt lat="45.02396" lon="5.7715">
        <ele>936.7</ele>
        <time>2022-07-16T06:36:56Z</time>
      </trkpt>
      <trkpt lat="45.0239" lon="5.77147">
        <ele>936.8</ele>
        <time>2022-07-16T06:36:58Z</time>
      </trkpt>
      <trkpt lat="45.0238" lon="5.77144">
        <ele>937</ele>
        <time>2022-07-16T06:36:59Z</time>
      </trkpt>
      <trkpt lat="45.02375" lon="5.77144">
        <ele>937.1</ele>
        <time>2022-07-16T06:37:01Z</time>
      </trkpt>
      <trkpt lat="45.0237" lon="5.77144">
        <ele>937.1</ele>
        <time>2022-07-16T06:37:02Z</time>
      </trkpt>
      <trkpt lat="45.02364" lon="5.7714">
        <ele>937.1</ele>
        <time>2022-07-16T06:37:04Z</time>
      </trkpt>
      <trkpt lat="45.02353" lon="5.77133">
        <ele>937.2</ele>
        <time>2022-07-16T06:37:05Z</time>
      </trkpt>
      <trkpt lat="45.02344" lon="5.7713">
        <ele>937.2</ele>
        <time>2022-07-16T06:37:08Z</time>
      </trkpt>
      <trkpt lat="45.02339" lon="5.77129">
        <ele>937.3</ele>
        <time>2022-07-16T06:37:09Z</time>
      </trkpt>
      <trkpt lat="45.02334" lon="5.77128">
        <ele>937.3</ele>
        <time>2022-07-16T06:37:10Z</time>
      </trkpt>
      <trkpt lat="45.02328" lon="5.77126">
        <ele>937.4</ele>
        <time>2022-07-16T06:37:11Z</time>
      </trkpt>
      <trkpt lat="45.02323" lon="5.77123">
        <ele>937.5</ele>
        <time>2022-07-16T06:37:12Z</time>
      </trkpt>
      <trkpt lat="45.02319" lon="5.7712">
        <ele>937.7</ele>
        <time>2022-07-16T06:37:13Z</time>
      </trkpt>
      <trkpt lat="45.02315" lon="5.77116">
        <ele>937.8</ele>
        <time>2022-07-16T06:37:14Z</time>
      </trkpt>
      <trkpt lat="45.02311" lon="5.77111">
        <ele>938</ele>
        <time>2022-07-16T06:37:15Z</time>
      </trkpt>
      <trkpt lat="45.02302" lon="5.77098">
        <ele>938.5</ele>
        <time>2022-07-16T06:37:16Z</time>
      </trkpt>
      <trkpt lat="45.02298" lon="5.77093">
        <ele>938.7</ele>
        <time>2022-07-16T06:37:18Z</time>
      </trkpt>
      <trkpt lat="45.02296" lon="5.77087">
        <ele>939</ele>
        <time>2022-07-16T06:37:19Z</time>
      </trkpt>
      <trkpt lat="45.02294" lon="5.77085">
        <ele>939.1</ele>
        <time>2022-07-16T06:37:20Z</time>
      </trkpt>
      <trkpt lat="45.02292" lon="5.7708">
        <ele>939.3</ele>
        <time>2022-07-16T06:37:21Z</time>
      </trkpt>
      <trkpt lat="45.02287" lon="5.77072">
        <ele>939.7</ele>
        <time>2022-07-16T06:37:23Z</time>
      </trkpt>
      <trkpt lat="45.02283" lon="5.77065">
        <ele>940.2</ele>
        <time>2022-07-16T06:37:25Z</time>
      </trkpt>
      <trkpt lat="45.0228" lon="5.77062">
        <ele>940.3</ele>
        <time>2022-07-16T06:37:26Z</time>
      </trkpt>
      <trkpt lat="45.02276" lon="5.77054">
        <ele>940.8</ele>
        <time>2022-07-16T06:37:28Z</time>
      </trkpt>
      <trkpt lat="45.02273" lon="5.77049">
        <ele>941.2</ele>
        <time>2022-07-16T06:37:29Z</time>
      </trkpt>
      <trkpt lat="45.0227" lon="5.77042">
        <ele>941.6</ele>
        <time>2022-07-16T06:37:31Z</time>
      </trkpt>
      <trkpt lat="45.02267" lon="5.77034">
        <ele>942.1</ele>
        <time>2022-07-16T06:37:33Z</time>
      </trkpt>
      <trkpt lat="45.02265" lon="5.7703">
        <ele>942.3</ele>
        <time>2022-07-16T06:37:34Z</time>
      </trkpt>
      <trkpt lat="45.02263" lon="5.77022">
        <ele>942.8</ele>
        <time>2022-07-16T06:37:36Z</time>
      </trkpt>
      <trkpt lat="45.02259" lon="5.77013">
        <ele>943.4</ele>
        <time>2022-07-16T06:37:38Z</time>
      </trkpt>
      <trkpt lat="45.02257" lon="5.7701">
        <ele>943.7</ele>
        <time>2022-07-16T06:37:39Z</time>
      </trkpt>
      <trkpt lat="45.02253" lon="5.77001">
        <ele>944.5</ele>
        <time>2022-07-16T06:37:41Z</time>
      </trkpt>
      <trkpt lat="45.02252" lon="5.76996">
        <ele>944.9</ele>
        <time>2022-07-16T06:37:43Z</time>
      </trkpt>
      <trkpt lat="45.0225" lon="5.76992">
        <ele>945.3</ele>
        <time>2022-07-16T06:37:44Z</time>
      </trkpt>
      <trkpt lat="45.02249" lon="5.76988">
        <ele>945.6</ele>
        <time>2022-07-16T06:37:45Z</time>
      </trkpt>
      <trkpt lat="45.02246" lon="5.76981">
        <ele>946.2</ele>
        <time>2022-07-16T06:37:46Z</time>
      </trkpt>
      <trkpt lat="45.02244" lon="5.76973">
        <ele>946.9</ele>
        <time>2022-07-16T06:37:47Z</time>
      </trkpt>
      <trkpt lat="45.02243" lon="5.76969">
        <ele>947.3</ele>
        <time>2022-07-16T06:37:48Z</time>
      </trkpt>
      <trkpt lat="45.0224" lon="5.76962">
        <ele>947.9</ele>
        <time>2022-07-16T06:37:50Z</time>
      </trkpt>
      <trkpt lat="45.02239" lon="5.76955">
        <ele>948.4</ele>
        <time>2022-07-16T06:37:51Z</time>
      </trkpt>
      <trkpt lat="45.02237" lon="5.7695">
        <ele>948.8</ele>
        <time>2022-07-16T06:37:53Z</time>
      </trkpt>
      <trkpt lat="45.02234" lon="5.76942">
        <ele>949.5</ele>
        <time>2022-07-16T06:37:54Z</time>
      </trkpt>
      <trkpt lat="45.02232" lon="5.76937">
        <ele>950</ele>
        <time>2022-07-16T06:37:56Z</time>
      </trkpt>
      <trkpt lat="45.02229" lon="5.76932">
        <ele>950.4</ele>
        <time>2022-07-16T06:37:57Z</time>
      </trkpt>
      <trkpt lat="45.02228" lon="5.7693">
        <ele>950.6</ele>
        <time>2022-07-16T06:37:58Z</time>
      </trkpt>
      <trkpt lat="45.02224" lon="5.76922">
        <ele>951.3</ele>
        <time>2022-07-16T06:37:59Z</time>
      </trkpt>
      <trkpt lat="45.02222" lon="5.76917">
        <ele>951.7</ele>
        <time>2022-07-16T06:38:00Z</time>
      </trkpt>
      <trkpt lat="45.02219" lon="5.76913">
        <ele>952.1</ele>
        <time>2022-07-16T06:38:02Z</time>
      </trkpt>
      <trkpt lat="45.02217" lon="5.76908">
        <ele>952.5</ele>
        <time>2022-07-16T06:38:03Z</time>
      </trkpt>
      <trkpt lat="45.02216" lon="5.76906">
        <ele>952.7</ele>
        <time>2022-07-16T06:38:04Z</time>
      </trkpt>
      <trkpt lat="45.02214" lon="5.76901">
        <ele>953.1</ele>
        <time>2022-07-16T06:38:05Z</time>
      </trkpt>
      <trkpt lat="45.02212" lon="5.76898">
        <ele>953.4</ele>
        <time>2022-07-16T06:38:06Z</time>
      </trkpt>
      <trkpt lat="45.0221" lon="5.76894">
        <ele>953.8</ele>
        <time>2022-07-16T06:38:07Z</time>
      </trkpt>
      <trkpt lat="45.02207" lon="5.76888">
        <ele>954.3</ele>
        <time>2022-07-16T06:38:09Z</time>
      </trkpt>
      <trkpt lat="45.02204" lon="5.76884">
        <ele>954.7</ele>
        <time>2022-07-16T06:38:10Z</time>
      </trkpt>
      <trkpt lat="45.02203" lon="5.7688">
        <ele>955</ele>
        <time>2022-07-16T06:38:11Z</time>
      </trkpt>
      <trkpt lat="45.02199" lon="5.76874">
        <ele>955.6</ele>
        <time>2022-07-16T06:38:13Z</time>
      </trkpt>
      <trkpt lat="45.02197" lon="5.7687">
        <ele>955.9</ele>
        <time>2022-07-16T06:38:14Z</time>
      </trkpt>
      <trkpt lat="45.02196" lon="5.76869">
        <ele>956</ele>
        <time>2022-07-16T06:38:15Z</time>
      </trkpt>
      <trkpt lat="45.02194" lon="5.76864">
        <ele>956.5</ele>
        <time>2022-07-16T06:38:17Z</time>
      </trkpt>
      <trkpt lat="45.02192" lon="5.7686">
        <ele>956.9</ele>
        <time>2022-07-16T06:38:18Z</time>
      </trkpt>
      <trkpt lat="45.02191" lon="5.76856">
        <ele>957.1</ele>
        <time>2022-07-16T06:38:19Z</time>
      </trkpt>
      <trkpt lat="45.02188" lon="5.76851">
        <ele>957.6</ele>
        <time>2022-07-16T06:38:21Z</time>
      </trkpt>
      <trkpt lat="45.02185" lon="5.76847">
        <ele>958</ele>
        <time>2022-07-16T06:38:22Z</time>
      </trkpt>
      <trkpt lat="45.02185" lon="5.76845">
        <ele>958.2</ele>
        <time>2022-07-16T06:38:23Z</time>
      </trkpt>
      <trkpt lat="45.02182" lon="5.76838">
        <ele>958.7</ele>
        <time>2022-07-16T06:38:24Z</time>
      </trkpt>
      <trkpt lat="45.02179" lon="5.76835">
        <ele>959</ele>
        <time>2022-07-16T06:38:26Z</time>
      </trkpt>
      <trkpt lat="45.02178" lon="5.76833">
        <ele>959.2</ele>
        <time>2022-07-16T06:38:27Z</time>
      </trkpt>
      <trkpt lat="45.02176" lon="5.76827">
        <ele>959.7</ele>
        <time>2022-07-16T06:38:28Z</time>
      </trkpt>
      <trkpt lat="45.02173" lon="5.76822">
        <ele>959.5</ele>
        <time>2022-07-16T06:38:30Z</time>
      </trkpt>
      <trkpt lat="45.02172" lon="5.7682">
        <ele>959.3</ele>
        <time>2022-07-16T06:38:31Z</time>
      </trkpt>
      <trkpt lat="45.0217" lon="5.76816">
        <ele>959.4</ele>
        <time>2022-07-16T06:38:32Z</time>
      </trkpt>
      <trkpt lat="45.0217" lon="5.76814">
        <ele>959.5</ele>
        <time>2022-07-16T06:38:33Z</time>
      </trkpt>
      <trkpt lat="45.02168" lon="5.7681">
        <ele>959.8</ele>
        <time>2022-07-16T06:38:34Z</time>
      </trkpt>
      <trkpt lat="45.02164" lon="5.76805">
        <ele>960.3</ele>
        <time>2022-07-16T06:38:36Z</time>
      </trkpt>
      <trkpt lat="45.02162" lon="5.76802">
        <ele>960.6</ele>
        <time>2022-07-16T06:38:37Z</time>
      </trkpt>
      <trkpt lat="45.0216" lon="5.76795">
        <ele>961.1</ele>
        <time>2022-07-16T06:38:39Z</time>
      </trkpt>
      <trkpt lat="45.02158" lon="5.76791">
        <ele>961.5</ele>
        <time>2022-07-16T06:38:40Z</time>
      </trkpt>
      <trkpt lat="45.02155" lon="5.76789">
        <ele>961.8</ele>
        <time>2022-07-16T06:38:41Z</time>
      </trkpt>
      <trkpt lat="45.02152" lon="5.76784">
        <ele>962.2</ele>
        <time>2022-07-16T06:38:43Z</time>
      </trkpt>
      <trkpt lat="45.0215" lon="5.76781">
        <ele>962.6</ele>
        <time>2022-07-16T06:38:44Z</time>
      </trkpt>
      <trkpt lat="45.02148" lon="5.76777">
        <ele>962.9</ele>
        <time>2022-07-16T06:38:46Z</time>
      </trkpt>
      <trkpt lat="45.02146" lon="5.76773">
        <ele>963.2</ele>
        <time>2022-07-16T06:38:47Z</time>
      </trkpt>
      <trkpt lat="45.02143" lon="5.76767">
        <ele>963.8</ele>
        <time>2022-07-16T06:38:49Z</time>
      </trkpt>
      <trkpt lat="45.02141" lon="5.76761">
        <ele>964.3</ele>
        <time>2022-07-16T06:38:50Z</time>
      </trkpt>
      <trkpt lat="45.0214" lon="5.76758">
        <ele>964.4</ele>
        <time>2022-07-16T06:38:51Z</time>
      </trkpt>
      <trkpt lat="45.02139" lon="5.76755">
        <ele>964.7</ele>
        <time>2022-07-16T06:38:53Z</time>
      </trkpt>
      <trkpt lat="45.02137" lon="5.76752">
        <ele>965</ele>
        <time>2022-07-16T06:38:54Z</time>
      </trkpt>
      <trkpt lat="45.02135" lon="5.76745">
        <ele>965.6</ele>
        <time>2022-07-16T06:38:56Z</time>
      </trkpt>
      <trkpt lat="45.02133" lon="5.76741">
        <ele>965.9</ele>
        <time>2022-07-16T06:38:57Z</time>
      </trkpt>
      <trkpt lat="45.02131" lon="5.76736">
        <ele>966.3</ele>
        <time>2022-07-16T06:38:58Z</time>
      </trkpt>
      <trkpt lat="45.0213" lon="5.76732">
        <ele>966.6</ele>
        <time>2022-07-16T06:38:59Z</time>
      </trkpt>
      <trkpt lat="45.02125" lon="5.76727">
        <ele>967.2</ele>
        <time>2022-07-16T06:39:01Z</time>
      </trkpt>
      <trkpt lat="45.02124" lon="5.76724">
        <ele>967.4</ele>
        <time>2022-07-16T06:39:02Z</time>
      </trkpt>
      <trkpt lat="45.0212" lon="5.76721">
        <ele>967.8</ele>
        <time>2022-07-16T06:39:04Z</time>
      </trkpt>
      <trkpt lat="45.02118" lon="5.76718">
        <ele>967.8</ele>
        <time>2022-07-16T06:39:05Z</time>
      </trkpt>
      <trkpt lat="45.02113" lon="5.76713">
        <ele>967.6</ele>
        <time>2022-07-16T06:39:06Z</time>
      </trkpt>
      <trkpt lat="45.02111" lon="5.7671">
        <ele>967.6</ele>
        <time>2022-07-16T06:39:07Z</time>
      </trkpt>
      <trkpt lat="45.02109" lon="5.76709">
        <ele>967.8</ele>
        <time>2022-07-16T06:39:09Z</time>
      </trkpt>
      <trkpt lat="45.02106" lon="5.76707">
        <ele>968</ele>
        <time>2022-07-16T06:39:10Z</time>
      </trkpt>
      <trkpt lat="45.02103" lon="5.76705">
        <ele>968.2</ele>
        <time>2022-07-16T06:39:11Z</time>
      </trkpt>
      <trkpt lat="45.02098" lon="5.76702">
        <ele>968.6</ele>
        <time>2022-07-16T06:39:12Z</time>
      </trkpt>
      <trkpt lat="45.02096" lon="5.76701">
        <ele>968.7</ele>
        <time>2022-07-16T06:39:13Z</time>
      </trkpt>
      <trkpt lat="45.02093" lon="5.76699">
        <ele>969</ele>
        <time>2022-07-16T06:39:15Z</time>
      </trkpt>
      <trkpt lat="45.02089" lon="5.76698">
        <ele>969.3</ele>
        <time>2022-07-16T06:39:16Z</time>
      </trkpt>
      <trkpt lat="45.02086" lon="5.76698">
        <ele>969.5</ele>
        <time>2022-07-16T06:39:17Z</time>
      </trkpt>
      <trkpt lat="45.0208" lon="5.76695">
        <ele>970</ele>
        <time>2022-07-16T06:39:19Z</time>
      </trkpt>
      <trkpt lat="45.02077" lon="5.76694">
        <ele>970.2</ele>
        <time>2022-07-16T06:39:21Z</time>
      </trkpt>
      <trkpt lat="45.02074" lon="5.76693">
        <ele>970.5</ele>
        <time>2022-07-16T06:39:22Z</time>
      </trkpt>
      <trkpt lat="45.02071" lon="5.76693">
        <ele>970.7</ele>
        <time>2022-07-16T06:39:23Z</time>
      </trkpt>
      <trkpt lat="45.02066" lon="5.76692">
        <ele>971.1</ele>
        <time>2022-07-16T06:39:25Z</time>
      </trkpt>
      <trkpt lat="45.02063" lon="5.76691">
        <ele>971.3</ele>
        <time>2022-07-16T06:39:26Z</time>
      </trkpt>
      <trkpt lat="45.02058" lon="5.76686">
        <ele>971.8</ele>
        <time>2022-07-16T06:39:28Z</time>
      </trkpt>
      <trkpt lat="45.02054" lon="5.76684">
        <ele>972.1</ele>
        <time>2022-07-16T06:39:29Z</time>
      </trkpt>
      <trkpt lat="45.02049" lon="5.76681">
        <ele>972.5</ele>
        <time>2022-07-16T06:39:31Z</time>
      </trkpt>
      <trkpt lat="45.02046" lon="5.76679">
        <ele>972.8</ele>
        <time>2022-07-16T06:39:32Z</time>
      </trkpt>
      <trkpt lat="45.02043" lon="5.76677">
        <ele>973.1</ele>
        <time>2022-07-16T06:39:33Z</time>
      </trkpt>
      <trkpt lat="45.02039" lon="5.76674">
        <ele>973.5</ele>
        <time>2022-07-16T06:39:35Z</time>
      </trkpt>
      <trkpt lat="45.02036" lon="5.76673">
        <ele>973.8</ele>
        <time>2022-07-16T06:39:36Z</time>
      </trkpt>
      <trkpt lat="45.02031" lon="5.76669">
        <ele>974.3</ele>
        <time>2022-07-16T06:39:38Z</time>
      </trkpt>
      <trkpt lat="45.02029" lon="5.76668">
        <ele>974.5</ele>
        <time>2022-07-16T06:39:39Z</time>
      </trkpt>
      <trkpt lat="45.02025" lon="5.76666">
        <ele>974.9</ele>
        <time>2022-07-16T06:39:40Z</time>
      </trkpt>
      <trkpt lat="45.0202" lon="5.76664">
        <ele>975.4</ele>
        <time>2022-07-16T06:39:42Z</time>
      </trkpt>
      <trkpt lat="45.02017" lon="5.76662">
        <ele>975.7</ele>
        <time>2022-07-16T06:39:43Z</time>
      </trkpt>
      <trkpt lat="45.02016" lon="5.76661">
        <ele>975.8</ele>
        <time>2022-07-16T06:39:44Z</time>
      </trkpt>
      <trkpt lat="45.02012" lon="5.76658">
        <ele>976.2</ele>
        <time>2022-07-16T06:39:46Z</time>
      </trkpt>
      <trkpt lat="45.02008" lon="5.76657">
        <ele>976.5</ele>
        <time>2022-07-16T06:39:47Z</time>
      </trkpt>
      <trkpt lat="45.02007" lon="5.76656">
        <ele>976.6</ele>
        <time>2022-07-16T06:39:48Z</time>
      </trkpt>
      <trkpt lat="45.02002" lon="5.76653">
        <ele>977</ele>
        <time>2022-07-16T06:39:50Z</time>
      </trkpt>
      <trkpt lat="45.01998" lon="5.76653">
        <ele>977.4</ele>
        <time>2022-07-16T06:39:52Z</time>
      </trkpt>
      <trkpt lat="45.01993" lon="5.7665">
        <ele>977.8</ele>
        <time>2022-07-16T06:39:53Z</time>
      </trkpt>
      <trkpt lat="45.01991" lon="5.76649">
        <ele>978</ele>
        <time>2022-07-16T06:39:54Z</time>
      </trkpt>
      <trkpt lat="45.01986" lon="5.76646">
        <ele>978.4</ele>
        <time>2022-07-16T06:39:56Z</time>
      </trkpt>
      <trkpt lat="45.01982" lon="5.76646">
        <ele>978.8</ele>
        <time>2022-07-16T06:39:57Z</time>
      </trkpt>
      <trkpt lat="45.01978" lon="5.76645">
        <ele>979.1</ele>
        <time>2022-07-16T06:39:59Z</time>
      </trkpt>
      <trkpt lat="45.01973" lon="5.76644">
        <ele>979.6</ele>
        <time>2022-07-16T06:40:01Z</time>
      </trkpt>
      <trkpt lat="45.0197" lon="5.76643">
        <ele>979.8</ele>
        <time>2022-07-16T06:40:02Z</time>
      </trkpt>
      <trkpt lat="45.01965" lon="5.76642">
        <ele>980.3</ele>
        <time>2022-07-16T06:40:04Z</time>
      </trkpt>
      <trkpt lat="45.01961" lon="5.76641">
        <ele>980.6</ele>
        <time>2022-07-16T06:40:05Z</time>
      </trkpt>
      <trkpt lat="45.0196" lon="5.7664">
        <ele>980.8</ele>
        <time>2022-07-16T06:40:06Z</time>
      </trkpt>
      <trkpt lat="45.01958" lon="5.76639">
        <ele>981</ele>
        <time>2022-07-16T06:40:07Z</time>
      </trkpt>
      <trkpt lat="45.01952" lon="5.76637">
        <ele>981.5</ele>
        <time>2022-07-16T06:40:09Z</time>
      </trkpt>
      <trkpt lat="45.01947" lon="5.76635">
        <ele>982</ele>
        <time>2022-07-16T06:40:11Z</time>
      </trkpt>
      <trkpt lat="45.01945" lon="5.76634">
        <ele>982.2</ele>
        <time>2022-07-16T06:40:12Z</time>
      </trkpt>
      <trkpt lat="45.01939" lon="5.76632">
        <ele>982.8</ele>
        <time>2022-07-16T06:40:14Z</time>
      </trkpt>
      <trkpt lat="45.01936" lon="5.76631">
        <ele>983.1</ele>
        <time>2022-07-16T06:40:15Z</time>
      </trkpt>
      <trkpt lat="45.0193" lon="5.7663">
        <ele>983.6</ele>
        <time>2022-07-16T06:40:17Z</time>
      </trkpt>
      <trkpt lat="45.01926" lon="5.76628">
        <ele>984</ele>
        <time>2022-07-16T06:40:18Z</time>
      </trkpt>
      <trkpt lat="45.01925" lon="5.76627">
        <ele>984.1</ele>
        <time>2022-07-16T06:40:19Z</time>
      </trkpt>
      <trkpt lat="45.01922" lon="5.76626">
        <ele>984.4</ele>
        <time>2022-07-16T06:40:21Z</time>
      </trkpt>
      <trkpt lat="45.01919" lon="5.76625">
        <ele>984.7</ele>
        <time>2022-07-16T06:40:22Z</time>
      </trkpt>
      <trkpt lat="45.01914" lon="5.76624">
        <ele>985.1</ele>
        <time>2022-07-16T06:40:23Z</time>
      </trkpt>
      <trkpt lat="45.01908" lon="5.76619">
        <ele>985.7</ele>
        <time>2022-07-16T06:40:26Z</time>
      </trkpt>
      <trkpt lat="45.01903" lon="5.76617">
        <ele>986.2</ele>
        <time>2022-07-16T06:40:28Z</time>
      </trkpt>
      <trkpt lat="45.01898" lon="5.76614">
        <ele>986.7</ele>
        <time>2022-07-16T06:40:29Z</time>
      </trkpt>
      <trkpt lat="45.01895" lon="5.76613">
        <ele>986.9</ele>
        <time>2022-07-16T06:40:30Z</time>
      </trkpt>
      <trkpt lat="45.01893" lon="5.76611">
        <ele>987.2</ele>
        <time>2022-07-16T06:40:31Z</time>
      </trkpt>
      <trkpt lat="45.01891" lon="5.7661">
        <ele>987.4</ele>
        <time>2022-07-16T06:40:33Z</time>
      </trkpt>
      <trkpt lat="45.01888" lon="5.76608">
        <ele>987.7</ele>
        <time>2022-07-16T06:40:34Z</time>
      </trkpt>
      <trkpt lat="45.01885" lon="5.76605">
        <ele>988</ele>
        <time>2022-07-16T06:40:35Z</time>
      </trkpt>
      <trkpt lat="45.01881" lon="5.76603">
        <ele>988.4</ele>
        <time>2022-07-16T06:40:37Z</time>
      </trkpt>
      <trkpt lat="45.01878" lon="5.766">
        <ele>988.7</ele>
        <time>2022-07-16T06:40:39Z</time>
      </trkpt>
      <trkpt lat="45.01875" lon="5.76597">
        <ele>989.1</ele>
        <time>2022-07-16T06:40:40Z</time>
      </trkpt>
      <trkpt lat="45.01872" lon="5.76595">
        <ele>989.4</ele>
        <time>2022-07-16T06:40:41Z</time>
      </trkpt>
      <trkpt lat="45.01871" lon="5.76595">
        <ele>989.5</ele>
        <time>2022-07-16T06:40:42Z</time>
      </trkpt>
      <trkpt lat="45.01865" lon="5.76591">
        <ele>990.1</ele>
        <time>2022-07-16T06:40:44Z</time>
      </trkpt>
      <trkpt lat="45.01863" lon="5.76589">
        <ele>990.4</ele>
        <time>2022-07-16T06:40:45Z</time>
      </trkpt>
      <trkpt lat="45.01857" lon="5.76584">
        <ele>991</ele>
        <time>2022-07-16T06:40:48Z</time>
      </trkpt>
      <trkpt lat="45.01853" lon="5.76581">
        <ele>991.5</ele>
        <time>2022-07-16T06:40:49Z</time>
      </trkpt>
      <trkpt lat="45.01851" lon="5.7658">
        <ele>991.6</ele>
        <time>2022-07-16T06:40:50Z</time>
      </trkpt>
      <trkpt lat="45.01849" lon="5.76578">
        <ele>991.9</ele>
        <time>2022-07-16T06:40:51Z</time>
      </trkpt>
      <trkpt lat="45.01844" lon="5.76573">
        <ele>992.5</ele>
        <time>2022-07-16T06:40:53Z</time>
      </trkpt>
      <trkpt lat="45.01839" lon="5.7657">
        <ele>993</ele>
        <time>2022-07-16T06:40:55Z</time>
      </trkpt>
      <trkpt lat="45.01835" lon="5.76567">
        <ele>993.5</ele>
        <time>2022-07-16T06:40:57Z</time>
      </trkpt>
      <trkpt lat="45.01828" lon="5.76561">
        <ele>994.2</ele>
        <time>2022-07-16T06:41:00Z</time>
      </trkpt>
      <trkpt lat="45.01824" lon="5.76557">
        <ele>994.7</ele>
        <time>2022-07-16T06:41:02Z</time>
      </trkpt>
      <trkpt lat="45.01817" lon="5.76551">
        <ele>995.4</ele>
        <time>2022-07-16T06:41:05Z</time>
      </trkpt>
      <trkpt lat="45.01814" lon="5.76549">
        <ele>995.8</ele>
        <time>2022-07-16T06:41:07Z</time>
      </trkpt>
      <trkpt lat="45.01807" lon="5.76543">
        <ele>996.4</ele>
        <time>2022-07-16T06:41:10Z</time>
      </trkpt>
      <trkpt lat="45.01801" lon="5.76538">
        <ele>997</ele>
        <time>2022-07-16T06:41:12Z</time>
      </trkpt>
      <trkpt lat="45.01797" lon="5.76535">
        <ele>997.3</ele>
        <time>2022-07-16T06:41:14Z</time>
      </trkpt>
      <trkpt lat="45.01795" lon="5.76532">
        <ele>997.5</ele>
        <time>2022-07-16T06:41:15Z</time>
      </trkpt>
      <trkpt lat="45.0179" lon="5.76528">
        <ele>997.9</ele>
        <time>2022-07-16T06:41:17Z</time>
      </trkpt>
      <trkpt lat="45.01787" lon="5.76526">
        <ele>998.1</ele>
        <time>2022-07-16T06:41:18Z</time>
      </trkpt>
      <trkpt lat="45.01782" lon="5.76523">
        <ele>998.5</ele>
        <time>2022-07-16T06:41:19Z</time>
      </trkpt>
      <trkpt lat="45.01779" lon="5.76519">
        <ele>998.8</ele>
        <time>2022-07-16T06:41:21Z</time>
      </trkpt>
      <trkpt lat="45.01776" lon="5.76516">
        <ele>999</ele>
        <time>2022-07-16T06:41:22Z</time>
      </trkpt>
      <trkpt lat="45.01773" lon="5.76513">
        <ele>999.3</ele>
        <time>2022-07-16T06:41:23Z</time>
      </trkpt>
      <trkpt lat="45.0177" lon="5.76511">
        <ele>999.4</ele>
        <time>2022-07-16T06:41:24Z</time>
      </trkpt>
      <trkpt lat="45.01765" lon="5.76507">
        <ele>999.9</ele>
        <time>2022-07-16T06:41:26Z</time>
      </trkpt>
      <trkpt lat="45.01761" lon="5.76504">
        <ele>1000.1</ele>
        <time>2022-07-16T06:41:27Z</time>
      </trkpt>
      <trkpt lat="45.01756" lon="5.76499">
        <ele>1000.5</ele>
        <time>2022-07-16T06:41:29Z</time>
      </trkpt>
      <trkpt lat="45.01754" lon="5.76497">
        <ele>1000.7</ele>
        <time>2022-07-16T06:41:30Z</time>
      </trkpt>
      <trkpt lat="45.01747" lon="5.76491">
        <ele>1001.2</ele>
        <time>2022-07-16T06:41:33Z</time>
      </trkpt>
      <trkpt lat="45.01744" lon="5.76487">
        <ele>1001.4</ele>
        <time>2022-07-16T06:41:34Z</time>
      </trkpt>
      <trkpt lat="45.0174" lon="5.76484">
        <ele>1001.6</ele>
        <time>2022-07-16T06:41:35Z</time>
      </trkpt>
      <trkpt lat="45.01734" lon="5.76479">
        <ele>1002</ele>
        <time>2022-07-16T06:41:37Z</time>
      </trkpt>
      <trkpt lat="45.01731" lon="5.76476">
        <ele>1002.2</ele>
        <time>2022-07-16T06:41:38Z</time>
      </trkpt>
      <trkpt lat="45.01725" lon="5.7647">
        <ele>1002.4</ele>
        <time>2022-07-16T06:41:40Z</time>
      </trkpt>
      <trkpt lat="45.0172" lon="5.76466">
        <ele>1002.5</ele>
        <time>2022-07-16T06:41:42Z</time>
      </trkpt>
      <trkpt lat="45.01715" lon="5.76461">
        <ele>1002.6</ele>
        <time>2022-07-16T06:41:43Z</time>
      </trkpt>
      <trkpt lat="45.01708" lon="5.76457">
        <ele>1002.6</ele>
        <time>2022-07-16T06:41:45Z</time>
      </trkpt>
      <trkpt lat="45.01697" lon="5.76447">
        <ele>1002.5</ele>
        <time>2022-07-16T06:41:48Z</time>
      </trkpt>
      <trkpt lat="45.01692" lon="5.76443">
        <ele>1002.5</ele>
        <time>2022-07-16T06:41:49Z</time>
      </trkpt>
      <trkpt lat="45.01688" lon="5.76439">
        <ele>1002.4</ele>
        <time>2022-07-16T06:41:50Z</time>
      </trkpt>
      <trkpt lat="45.01683" lon="5.76434">
        <ele>1002.3</ele>
        <time>2022-07-16T06:41:51Z</time>
      </trkpt>
      <trkpt lat="45.01678" lon="5.7643">
        <ele>1002.3</ele>
        <time>2022-07-16T06:41:52Z</time>
      </trkpt>
      <trkpt lat="45.01672" lon="5.76425">
        <ele>1002.2</ele>
        <time>2022-07-16T06:41:53Z</time>
      </trkpt>
      <trkpt lat="45.01667" lon="5.7642">
        <ele>1002.2</ele>
        <time>2022-07-16T06:41:54Z</time>
      </trkpt>
      <trkpt lat="45.01662" lon="5.76416">
        <ele>1002.1</ele>
        <time>2022-07-16T06:41:55Z</time>
      </trkpt>
      <trkpt lat="45.01656" lon="5.76412">
        <ele>1002.1</ele>
        <time>2022-07-16T06:41:56Z</time>
      </trkpt>
      <trkpt lat="45.01651" lon="5.76407">
        <ele>1002.1</ele>
        <time>2022-07-16T06:41:57Z</time>
      </trkpt>
      <trkpt lat="45.01646" lon="5.76402">
        <ele>1002.1</ele>
        <time>2022-07-16T06:41:58Z</time>
      </trkpt>
      <trkpt lat="45.0164" lon="5.76397">
        <ele>1002.1</ele>
        <time>2022-07-16T06:41:59Z</time>
      </trkpt>
      <trkpt lat="45.01635" lon="5.76392">
        <ele>1002</ele>
        <time>2022-07-16T06:42:00Z</time>
      </trkpt>
      <trkpt lat="45.01629" lon="5.76387">
        <ele>1002</ele>
        <time>2022-07-16T06:42:01Z</time>
      </trkpt>
      <trkpt lat="45.01623" lon="5.76382">
        <ele>1002</ele>
        <time>2022-07-16T06:42:02Z</time>
      </trkpt>
      <trkpt lat="45.01617" lon="5.76376">
        <ele>1002</ele>
        <time>2022-07-16T06:42:03Z</time>
      </trkpt>
      <trkpt lat="45.01612" lon="5.76371">
        <ele>1002</ele>
        <time>2022-07-16T06:42:04Z</time>
      </trkpt>
      <trkpt lat="45.01606" lon="5.76366">
        <ele>1002</ele>
        <time>2022-07-16T06:42:05Z</time>
      </trkpt>
      <trkpt lat="45.016" lon="5.76361">
        <ele>1002.1</ele>
        <time>2022-07-16T06:42:06Z</time>
      </trkpt>
      <trkpt lat="45.01594" lon="5.76356">
        <ele>1002.1</ele>
        <time>2022-07-16T06:42:07Z</time>
      </trkpt>
      <trkpt lat="45.01588" lon="5.76351">
        <ele>1002.2</ele>
        <time>2022-07-16T06:42:08Z</time>
      </trkpt>
      <trkpt lat="45.01583" lon="5.76347">
        <ele>1002.3</ele>
        <time>2022-07-16T06:42:09Z</time>
      </trkpt>
      <trkpt lat="45.01577" lon="5.76341">
        <ele>1002.3</ele>
        <time>2022-07-16T06:42:10Z</time>
      </trkpt>
      <trkpt lat="45.01571" lon="5.76337">
        <ele>1002.4</ele>
        <time>2022-07-16T06:42:11Z</time>
      </trkpt>
      <trkpt lat="45.01566" lon="5.76332">
        <ele>1002.6</ele>
        <time>2022-07-16T06:42:12Z</time>
      </trkpt>
      <trkpt lat="45.01561" lon="5.76327">
        <ele>1002.6</ele>
        <time>2022-07-16T06:42:13Z</time>
      </trkpt>
      <trkpt lat="45.01555" lon="5.76323">
        <ele>1002.7</ele>
        <time>2022-07-16T06:42:14Z</time>
      </trkpt>
      <trkpt lat="45.0155" lon="5.76318">
        <ele>1002.7</ele>
        <time>2022-07-16T06:42:15Z</time>
      </trkpt>
      <trkpt lat="45.01545" lon="5.76314">
        <ele>1002.8</ele>
        <time>2022-07-16T06:42:16Z</time>
      </trkpt>
      <trkpt lat="45.0154" lon="5.76309">
        <ele>1002.8</ele>
        <time>2022-07-16T06:42:17Z</time>
      </trkpt>
      <trkpt lat="45.01535" lon="5.76304">
        <ele>1002.9</ele>
        <time>2022-07-16T06:42:18Z</time>
      </trkpt>
      <trkpt lat="45.01529" lon="5.763">
        <ele>1002.9</ele>
        <time>2022-07-16T06:42:19Z</time>
      </trkpt>
      <trkpt lat="45.01524" lon="5.76296">
        <ele>1003</ele>
        <time>2022-07-16T06:42:20Z</time>
      </trkpt>
      <trkpt lat="45.01519" lon="5.76292">
        <ele>1003.1</ele>
        <time>2022-07-16T06:42:21Z</time>
      </trkpt>
      <trkpt lat="45.01514" lon="5.76288">
        <ele>1003.2</ele>
        <time>2022-07-16T06:42:22Z</time>
      </trkpt>
      <trkpt lat="45.01509" lon="5.76283">
        <ele>1003.2</ele>
        <time>2022-07-16T06:42:23Z</time>
      </trkpt>
      <trkpt lat="45.01505" lon="5.76278">
        <ele>1003.3</ele>
        <time>2022-07-16T06:42:24Z</time>
      </trkpt>
      <trkpt lat="45.01501" lon="5.76275">
        <ele>1003.4</ele>
        <time>2022-07-16T06:42:25Z</time>
      </trkpt>
      <trkpt lat="45.01496" lon="5.76271">
        <ele>1003.4</ele>
        <time>2022-07-16T06:42:26Z</time>
      </trkpt>
      <trkpt lat="45.0149" lon="5.76268">
        <ele>1003.4</ele>
        <time>2022-07-16T06:42:27Z</time>
      </trkpt>
      <trkpt lat="45.01485" lon="5.76266">
        <ele>1003.5</ele>
        <time>2022-07-16T06:42:28Z</time>
      </trkpt>
      <trkpt lat="45.0148" lon="5.76263">
        <ele>1003.7</ele>
        <time>2022-07-16T06:42:29Z</time>
      </trkpt>
      <trkpt lat="45.01474" lon="5.7626">
        <ele>1003.8</ele>
        <time>2022-07-16T06:42:30Z</time>
      </trkpt>
      <trkpt lat="45.01469" lon="5.76257">
        <ele>1003.9</ele>
        <time>2022-07-16T06:42:31Z</time>
      </trkpt>
      <trkpt lat="45.01464" lon="5.76256">
        <ele>1004</ele>
        <time>2022-07-16T06:42:32Z</time>
      </trkpt>
      <trkpt lat="45.01458" lon="5.76255">
        <ele>1004.1</ele>
        <time>2022-07-16T06:42:33Z</time>
      </trkpt>
      <trkpt lat="45.01453" lon="5.76253">
        <ele>1004.1</ele>
        <time>2022-07-16T06:42:34Z</time>
      </trkpt>
      <trkpt lat="45.01448" lon="5.76253">
        <ele>1004.2</ele>
        <time>2022-07-16T06:42:35Z</time>
      </trkpt>
      <trkpt lat="45.01442" lon="5.76253">
        <ele>1004.3</ele>
        <time>2022-07-16T06:42:36Z</time>
      </trkpt>
      <trkpt lat="45.01436" lon="5.76252">
        <ele>1004.4</ele>
        <time>2022-07-16T06:42:37Z</time>
      </trkpt>
      <trkpt lat="45.01431" lon="5.76251">
        <ele>1004.4</ele>
        <time>2022-07-16T06:42:38Z</time>
      </trkpt>
      <trkpt lat="45.01426" lon="5.76251">
        <ele>1004.5</ele>
        <time>2022-07-16T06:42:39Z</time>
      </trkpt>
      <trkpt lat="45.0142" lon="5.76251">
        <ele>1004.6</ele>
        <time>2022-07-16T06:42:40Z</time>
      </trkpt>
      <trkpt lat="45.01415" lon="5.76251">
        <ele>1004.6</ele>
        <time>2022-07-16T06:42:41Z</time>
      </trkpt>
      <trkpt lat="45.01409" lon="5.76251">
        <ele>1004.6</ele>
        <time>2022-07-16T06:42:42Z</time>
      </trkpt>
      <trkpt lat="45.01404" lon="5.7625">
        <ele>1004.7</ele>
        <time>2022-07-16T06:42:43Z</time>
      </trkpt>
      <trkpt lat="45.01398" lon="5.76249">
        <ele>1004.7</ele>
        <time>2022-07-16T06:42:44Z</time>
      </trkpt>
      <trkpt lat="45.01392" lon="5.76248">
        <ele>1004.7</ele>
        <time>2022-07-16T06:42:45Z</time>
      </trkpt>
      <trkpt lat="45.01386" lon="5.76247">
        <ele>1004.6</ele>
        <time>2022-07-16T06:42:46Z</time>
      </trkpt>
      <trkpt lat="45.0138" lon="5.76247">
        <ele>1004.6</ele>
        <time>2022-07-16T06:42:47Z</time>
      </trkpt>
      <trkpt lat="45.01374" lon="5.76246">
        <ele>1004.5</ele>
        <time>2022-07-16T06:42:48Z</time>
      </trkpt>
      <trkpt lat="45.01368" lon="5.76245">
        <ele>1004.4</ele>
        <time>2022-07-16T06:42:49Z</time>
      </trkpt>
      <trkpt lat="45.01363" lon="5.76247">
        <ele>1004.2</ele>
        <time>2022-07-16T06:42:50Z</time>
      </trkpt>
      <trkpt lat="45.01357" lon="5.76247">
        <ele>1004.1</ele>
        <time>2022-07-16T06:42:51Z</time>
      </trkpt>
      <trkpt lat="45.0135" lon="5.76246">
        <ele>1003.9</ele>
        <time>2022-07-16T06:42:52Z</time>
      </trkpt>
      <trkpt lat="45.01343" lon="5.76245">
        <ele>1003.7</ele>
        <time>2022-07-16T06:42:53Z</time>
      </trkpt>
      <trkpt lat="45.01335" lon="5.76245">
        <ele>1003.5</ele>
        <time>2022-07-16T06:42:54Z</time>
      </trkpt>
      <trkpt lat="45.01327" lon="5.76245">
        <ele>1003.3</ele>
        <time>2022-07-16T06:42:55Z</time>
      </trkpt>
      <trkpt lat="45.01319" lon="5.76244">
        <ele>1003.1</ele>
        <time>2022-07-16T06:42:56Z</time>
      </trkpt>
      <trkpt lat="45.01311" lon="5.76244">
        <ele>1003</ele>
        <time>2022-07-16T06:42:57Z</time>
      </trkpt>
      <trkpt lat="45.01303" lon="5.76243">
        <ele>1002.8</ele>
        <time>2022-07-16T06:42:58Z</time>
      </trkpt>
      <trkpt lat="45.01295" lon="5.76241">
        <ele>1002.7</ele>
        <time>2022-07-16T06:42:59Z</time>
      </trkpt>
      <trkpt lat="45.01288" lon="5.7624">
        <ele>1002.6</ele>
        <time>2022-07-16T06:43:00Z</time>
      </trkpt>
      <trkpt lat="45.0128" lon="5.76238">
        <ele>1002.5</ele>
        <time>2022-07-16T06:43:01Z</time>
      </trkpt>
      <trkpt lat="45.01273" lon="5.76237">
        <ele>1002.4</ele>
        <time>2022-07-16T06:43:02Z</time>
      </trkpt>
      <trkpt lat="45.01265" lon="5.76236">
        <ele>1002.3</ele>
        <time>2022-07-16T06:43:03Z</time>
      </trkpt>
      <trkpt lat="45.01258" lon="5.76234">
        <ele>1002.3</ele>
        <time>2022-07-16T06:43:04Z</time>
      </trkpt>
      <trkpt lat="45.01251" lon="5.76232">
        <ele>1002.2</ele>
        <time>2022-07-16T06:43:05Z</time>
      </trkpt>
      <trkpt lat="45.01244" lon="5.76231">
        <ele>1002.1</ele>
        <time>2022-07-16T06:43:06Z</time>
      </trkpt>
      <trkpt lat="45.01236" lon="5.76229">
        <ele>1002.1</ele>
        <time>2022-07-16T06:43:07Z</time>
      </trkpt>
      <trkpt lat="45.01229" lon="5.76227">
        <ele>1002</ele>
        <time>2022-07-16T06:43:08Z</time>
      </trkpt>
      <trkpt lat="45.01222" lon="5.76226">
        <ele>1001.9</ele>
        <time>2022-07-16T06:43:09Z</time>
      </trkpt>
      <trkpt lat="45.01215" lon="5.76224">
        <ele>1001.9</ele>
        <time>2022-07-16T06:43:10Z</time>
      </trkpt>
      <trkpt lat="45.01207" lon="5.76222">
        <ele>1001.9</ele>
        <time>2022-07-16T06:43:11Z</time>
      </trkpt>
      <trkpt lat="45.01201" lon="5.76221">
        <ele>1001.9</ele>
        <time>2022-07-16T06:43:12Z</time>
      </trkpt>
      <trkpt lat="45.01194" lon="5.7622">
        <ele>1001.9</ele>
        <time>2022-07-16T06:43:13Z</time>
      </trkpt>
      <trkpt lat="45.01187" lon="5.76219">
        <ele>1001.9</ele>
        <time>2022-07-16T06:43:14Z</time>
      </trkpt>
      <trkpt lat="45.0118" lon="5.76217">
        <ele>1002</ele>
        <time>2022-07-16T06:43:15Z</time>
      </trkpt>
      <trkpt lat="45.01173" lon="5.76216">
        <ele>1002</ele>
        <time>2022-07-16T06:43:16Z</time>
      </trkpt>
      <trkpt lat="45.01166" lon="5.76214">
        <ele>1002</ele>
        <time>2022-07-16T06:43:17Z</time>
      </trkpt>
      <trkpt lat="45.01159" lon="5.76213">
        <ele>1002</ele>
        <time>2022-07-16T06:43:18Z</time>
      </trkpt>
      <trkpt lat="45.01152" lon="5.76211">
        <ele>1002</ele>
        <time>2022-07-16T06:43:19Z</time>
      </trkpt>
      <trkpt lat="45.01146" lon="5.76209">
        <ele>1002</ele>
        <time>2022-07-16T06:43:20Z</time>
      </trkpt>
      <trkpt lat="45.01139" lon="5.76208">
        <ele>1002</ele>
        <time>2022-07-16T06:43:21Z</time>
      </trkpt>
      <trkpt lat="45.01133" lon="5.76206">
        <ele>1002</ele>
        <time>2022-07-16T06:43:22Z</time>
      </trkpt>
      <trkpt lat="45.01126" lon="5.76204">
        <ele>1002</ele>
        <time>2022-07-16T06:43:23Z</time>
      </trkpt>
      <trkpt lat="45.01119" lon="5.76203">
        <ele>1002.1</ele>
        <time>2022-07-16T06:43:24Z</time>
      </trkpt>
      <trkpt lat="45.01113" lon="5.76201">
        <ele>1002.1</ele>
        <time>2022-07-16T06:43:25Z</time>
      </trkpt>
      <trkpt lat="45.01106" lon="5.762">
        <ele>1002.1</ele>
        <time>2022-07-16T06:43:26Z</time>
      </trkpt>
      <trkpt lat="45.011" lon="5.76199">
        <ele>1002.2</ele>
        <time>2022-07-16T06:43:27Z</time>
      </trkpt>
      <trkpt lat="45.01093" lon="5.76197">
        <ele>1002.2</ele>
        <time>2022-07-16T06:43:28Z</time>
      </trkpt>
      <trkpt lat="45.01087" lon="5.76196">
        <ele>1002.2</ele>
        <time>2022-07-16T06:43:29Z</time>
      </trkpt>
      <trkpt lat="45.0108" lon="5.76194">
        <ele>1002.2</ele>
        <time>2022-07-16T06:43:30Z</time>
      </trkpt>
      <trkpt lat="45.01074" lon="5.76193">
        <ele>1002.2</ele>
        <time>2022-07-16T06:43:31Z</time>
      </trkpt>
      <trkpt lat="45.01067" lon="5.76192">
        <ele>1002.2</ele>
        <time>2022-07-16T06:43:32Z</time>
      </trkpt>
      <trkpt lat="45.01061" lon="5.7619">
        <ele>1002.2</ele>
        <time>2022-07-16T06:43:33Z</time>
      </trkpt>
      <trkpt lat="45.01055" lon="5.76189">
        <ele>1002.2</ele>
        <time>2022-07-16T06:43:34Z</time>
      </trkpt>
      <trkpt lat="45.01048" lon="5.76188">
        <ele>1002.2</ele>
        <time>2022-07-16T06:43:35Z</time>
      </trkpt>
      <trkpt lat="45.01041" lon="5.76185">
        <ele>1002.2</ele>
        <time>2022-07-16T06:43:36Z</time>
      </trkpt>
      <trkpt lat="45.01035" lon="5.76183">
        <ele>1002.1</ele>
        <time>2022-07-16T06:43:37Z</time>
      </trkpt>
      <trkpt lat="45.01028" lon="5.76181">
        <ele>1002</ele>
        <time>2022-07-16T06:43:38Z</time>
      </trkpt>
      <trkpt lat="45.01022" lon="5.76178">
        <ele>1002</ele>
        <time>2022-07-16T06:43:39Z</time>
      </trkpt>
      <trkpt lat="45.01015" lon="5.76176">
        <ele>1001.9</ele>
        <time>2022-07-16T06:43:40Z</time>
      </trkpt>
      <trkpt lat="45.01009" lon="5.76173">
        <ele>1001.8</ele>
        <time>2022-07-16T06:43:41Z</time>
      </trkpt>
      <trkpt lat="45.01003" lon="5.76169">
        <ele>1001.7</ele>
        <time>2022-07-16T06:43:42Z</time>
      </trkpt>
      <trkpt lat="45.00996" lon="5.76165">
        <ele>1001.6</ele>
        <time>2022-07-16T06:43:43Z</time>
      </trkpt>
      <trkpt lat="45.0099" lon="5.76162">
        <ele>1001.5</ele>
        <time>2022-07-16T06:43:44Z</time>
      </trkpt>
      <trkpt lat="45.00984" lon="5.76158">
        <ele>1001.3</ele>
        <time>2022-07-16T06:43:45Z</time>
      </trkpt>
      <trkpt lat="45.00977" lon="5.76153">
        <ele>1001.1</ele>
        <time>2022-07-16T06:43:46Z</time>
      </trkpt>
      <trkpt lat="45.0097" lon="5.76149">
        <ele>1000.9</ele>
        <time>2022-07-16T06:43:47Z</time>
      </trkpt>
      <trkpt lat="45.00963" lon="5.76145">
        <ele>1000.6</ele>
        <time>2022-07-16T06:43:48Z</time>
      </trkpt>
      <trkpt lat="45.00956" lon="5.76141">
        <ele>1000.4</ele>
        <time>2022-07-16T06:43:49Z</time>
      </trkpt>
      <trkpt lat="45.00948" lon="5.76136">
        <ele>1000.1</ele>
        <time>2022-07-16T06:43:50Z</time>
      </trkpt>
      <trkpt lat="45.00941" lon="5.76132">
        <ele>999.8</ele>
        <time>2022-07-16T06:43:51Z</time>
      </trkpt>
      <trkpt lat="45.00933" lon="5.76129">
        <ele>999.6</ele>
        <time>2022-07-16T06:43:52Z</time>
      </trkpt>
      <trkpt lat="45.00925" lon="5.76126">
        <ele>999.3</ele>
        <time>2022-07-16T06:43:53Z</time>
      </trkpt>
      <trkpt lat="45.00917" lon="5.76122">
        <ele>999.1</ele>
        <time>2022-07-16T06:43:54Z</time>
      </trkpt>
      <trkpt lat="45.00909" lon="5.76118">
        <ele>998.9</ele>
        <time>2022-07-16T06:43:55Z</time>
      </trkpt>
      <trkpt lat="45.009" lon="5.76114">
        <ele>998.7</ele>
        <time>2022-07-16T06:43:56Z</time>
      </trkpt>
      <trkpt lat="45.00891" lon="5.7611">
        <ele>998.5</ele>
        <time>2022-07-16T06:43:57Z</time>
      </trkpt>
      <trkpt lat="45.00883" lon="5.76107">
        <ele>998.3</ele>
        <time>2022-07-16T06:43:58Z</time>
      </trkpt>
      <trkpt lat="45.00875" lon="5.76103">
        <ele>998.2</ele>
        <time>2022-07-16T06:43:59Z</time>
      </trkpt>
      <trkpt lat="45.00867" lon="5.761">
        <ele>998.1</ele>
        <time>2022-07-16T06:44:00Z</time>
      </trkpt>
      <trkpt lat="45.00859" lon="5.76097">
        <ele>998</ele>
        <time>2022-07-16T06:44:01Z</time>
      </trkpt>
      <trkpt lat="45.00851" lon="5.76094">
        <ele>997.9</ele>
        <time>2022-07-16T06:44:02Z</time>
      </trkpt>
      <trkpt lat="45.00843" lon="5.76091">
        <ele>997.9</ele>
        <time>2022-07-16T06:44:03Z</time>
      </trkpt>
      <trkpt lat="45.00835" lon="5.76088">
        <ele>997.8</ele>
        <time>2022-07-16T06:44:04Z</time>
      </trkpt>
      <trkpt lat="45.00828" lon="5.76084">
        <ele>997.8</ele>
        <time>2022-07-16T06:44:05Z</time>
      </trkpt>
      <trkpt lat="45.0082" lon="5.76081">
        <ele>997.7</ele>
        <time>2022-07-16T06:44:06Z</time>
      </trkpt>
      <trkpt lat="45.00813" lon="5.76079">
        <ele>997.7</ele>
        <time>2022-07-16T06:44:07Z</time>
      </trkpt>
      <trkpt lat="45.00806" lon="5.76076">
        <ele>997.6</ele>
        <time>2022-07-16T06:44:08Z</time>
      </trkpt>
      <trkpt lat="45.00798" lon="5.76073">
        <ele>997.5</ele>
        <time>2022-07-16T06:44:09Z</time>
      </trkpt>
      <trkpt lat="45.00791" lon="5.7607">
        <ele>997.4</ele>
        <time>2022-07-16T06:44:10Z</time>
      </trkpt>
      <trkpt lat="45.00783" lon="5.76067">
        <ele>997.3</ele>
        <time>2022-07-16T06:44:11Z</time>
      </trkpt>
      <trkpt lat="45.00777" lon="5.76064">
        <ele>997.2</ele>
        <time>2022-07-16T06:44:12Z</time>
      </trkpt>
      <trkpt lat="45.0077" lon="5.76061">
        <ele>997.1</ele>
        <time>2022-07-16T06:44:13Z</time>
      </trkpt>
      <trkpt lat="45.00763" lon="5.76059">
        <ele>997.1</ele>
        <time>2022-07-16T06:44:14Z</time>
      </trkpt>
      <trkpt lat="45.00756" lon="5.76056">
        <ele>997</ele>
        <time>2022-07-16T06:44:15Z</time>
      </trkpt>
      <trkpt lat="45.00749" lon="5.76054">
        <ele>996.9</ele>
        <time>2022-07-16T06:44:16Z</time>
      </trkpt>
      <trkpt lat="45.00741" lon="5.76052">
        <ele>996.8</ele>
        <time>2022-07-16T06:44:17Z</time>
      </trkpt>
      <trkpt lat="45.00734" lon="5.76049">
        <ele>996.7</ele>
        <time>2022-07-16T06:44:18Z</time>
      </trkpt>
      <trkpt lat="45.00727" lon="5.76047">
        <ele>996.6</ele>
        <time>2022-07-16T06:44:19Z</time>
      </trkpt>
      <trkpt lat="45.00719" lon="5.76044">
        <ele>996.5</ele>
        <time>2022-07-16T06:44:20Z</time>
      </trkpt>
      <trkpt lat="45.00711" lon="5.76042">
        <ele>996.4</ele>
        <time>2022-07-16T06:44:21Z</time>
      </trkpt>
      <trkpt lat="45.00703" lon="5.76041">
        <ele>996.2</ele>
        <time>2022-07-16T06:44:22Z</time>
      </trkpt>
      <trkpt lat="45.00695" lon="5.76039">
        <ele>996.1</ele>
        <time>2022-07-16T06:44:23Z</time>
      </trkpt>
      <trkpt lat="45.00688" lon="5.76038">
        <ele>995.9</ele>
        <time>2022-07-16T06:44:24Z</time>
      </trkpt>
      <trkpt lat="45.0068" lon="5.76037">
        <ele>995.8</ele>
        <time>2022-07-16T06:44:25Z</time>
      </trkpt>
      <trkpt lat="45.00671" lon="5.76035">
        <ele>995.6</ele>
        <time>2022-07-16T06:44:26Z</time>
      </trkpt>
      <trkpt lat="45.00663" lon="5.76034">
        <ele>995.4</ele>
        <time>2022-07-16T06:44:27Z</time>
      </trkpt>
      <trkpt lat="45.00655" lon="5.76032">
        <ele>995.2</ele>
        <time>2022-07-16T06:44:28Z</time>
      </trkpt>
      <trkpt lat="45.00647" lon="5.7603">
        <ele>995</ele>
        <time>2022-07-16T06:44:29Z</time>
      </trkpt>
      <trkpt lat="45.00638" lon="5.76028">
        <ele>994.8</ele>
        <time>2022-07-16T06:44:30Z</time>
      </trkpt>
      <trkpt lat="45.0063" lon="5.76027">
        <ele>994.6</ele>
        <time>2022-07-16T06:44:31Z</time>
      </trkpt>
      <trkpt lat="45.00622" lon="5.76026">
        <ele>994.3</ele>
        <time>2022-07-16T06:44:32Z</time>
      </trkpt>
      <trkpt lat="45.00613" lon="5.76025">
        <ele>994.1</ele>
        <time>2022-07-16T06:44:33Z</time>
      </trkpt>
      <trkpt lat="45.00604" lon="5.76023">
        <ele>993.9</ele>
        <time>2022-07-16T06:44:34Z</time>
      </trkpt>
      <trkpt lat="45.00595" lon="5.76022">
        <ele>993.7</ele>
        <time>2022-07-16T06:44:35Z</time>
      </trkpt>
      <trkpt lat="45.00587" lon="5.76021">
        <ele>993.6</ele>
        <time>2022-07-16T06:44:36Z</time>
      </trkpt>
      <trkpt lat="45.00578" lon="5.7602">
        <ele>993.4</ele>
        <time>2022-07-16T06:44:37Z</time>
      </trkpt>
      <trkpt lat="45.0057" lon="5.76019">
        <ele>993.2</ele>
        <time>2022-07-16T06:44:38Z</time>
      </trkpt>
      <trkpt lat="45.00561" lon="5.76017">
        <ele>993</ele>
        <time>2022-07-16T06:44:39Z</time>
      </trkpt>
      <trkpt lat="45.00552" lon="5.76015">
        <ele>992.8</ele>
        <time>2022-07-16T06:44:40Z</time>
      </trkpt>
      <trkpt lat="45.00544" lon="5.76014">
        <ele>992.6</ele>
        <time>2022-07-16T06:44:41Z</time>
      </trkpt>
      <trkpt lat="45.00536" lon="5.76013">
        <ele>992.4</ele>
        <time>2022-07-16T06:44:42Z</time>
      </trkpt>
      <trkpt lat="45.00527" lon="5.76012">
        <ele>992.2</ele>
        <time>2022-07-16T06:44:43Z</time>
      </trkpt>
      <trkpt lat="45.00519" lon="5.7601">
        <ele>992</ele>
        <time>2022-07-16T06:44:44Z</time>
      </trkpt>
      <trkpt lat="45.0051" lon="5.76009">
        <ele>991.9</ele>
        <time>2022-07-16T06:44:45Z</time>
      </trkpt>
      <trkpt lat="45.00502" lon="5.76007">
        <ele>991.7</ele>
        <time>2022-07-16T06:44:46Z</time>
      </trkpt>
      <trkpt lat="45.00494" lon="5.76005">
        <ele>991.6</ele>
        <time>2022-07-16T06:44:47Z</time>
      </trkpt>
      <trkpt lat="45.00486" lon="5.76003">
        <ele>991.5</ele>
        <time>2022-07-16T06:44:48Z</time>
      </trkpt>
      <trkpt lat="45.00478" lon="5.76001">
        <ele>991.4</ele>
        <time>2022-07-16T06:44:49Z</time>
      </trkpt>
      <trkpt lat="45.00469" lon="5.75999">
        <ele>991.3</ele>
        <time>2022-07-16T06:44:50Z</time>
      </trkpt>
      <trkpt lat="45.00461" lon="5.75997">
        <ele>991.1</ele>
        <time>2022-07-16T06:44:51Z</time>
      </trkpt>
      <trkpt lat="45.00453" lon="5.75994">
        <ele>991</ele>
        <time>2022-07-16T06:44:52Z</time>
      </trkpt>
      <trkpt lat="45.00445" lon="5.75991">
        <ele>990.8</ele>
        <time>2022-07-16T06:44:53Z</time>
      </trkpt>
      <trkpt lat="45.00437" lon="5.75988">
        <ele>990.6</ele>
        <time>2022-07-16T06:44:54Z</time>
      </trkpt>
      <trkpt lat="45.00429" lon="5.75986">
        <ele>990.5</ele>
        <time>2022-07-16T06:44:55Z</time>
      </trkpt>
      <trkpt lat="45.00422" lon="5.75983">
        <ele>990.4</ele>
        <time>2022-07-16T06:44:56Z</time>
      </trkpt>
      <trkpt lat="45.00413" lon="5.7598">
        <ele>990.2</ele>
        <time>2022-07-16T06:44:57Z</time>
      </trkpt>
      <trkpt lat="45.00405" lon="5.75977">
        <ele>990.1</ele>
        <time>2022-07-16T06:44:58Z</time>
      </trkpt>
      <trkpt lat="45.00397" lon="5.75973">
        <ele>990</ele>
        <time>2022-07-16T06:44:59Z</time>
      </trkpt>
      <trkpt lat="45.00389" lon="5.7597">
        <ele>989.8</ele>
        <time>2022-07-16T06:45:00Z</time>
      </trkpt>
      <trkpt lat="45.00381" lon="5.75967">
        <ele>989.6</ele>
        <time>2022-07-16T06:45:01Z</time>
      </trkpt>
      <trkpt lat="45.00374" lon="5.75963">
        <ele>989.4</ele>
        <time>2022-07-16T06:45:02Z</time>
      </trkpt>
      <trkpt lat="45.00366" lon="5.75958">
        <ele>989.2</ele>
        <time>2022-07-16T06:45:03Z</time>
      </trkpt>
      <trkpt lat="45.00358" lon="5.75952">
        <ele>989</ele>
        <time>2022-07-16T06:45:04Z</time>
      </trkpt>
      <trkpt lat="45.00351" lon="5.75946">
        <ele>988.8</ele>
        <time>2022-07-16T06:45:05Z</time>
      </trkpt>
      <trkpt lat="45.00345" lon="5.75939">
        <ele>988.7</ele>
        <time>2022-07-16T06:45:06Z</time>
      </trkpt>
      <trkpt lat="45.00338" lon="5.75932">
        <ele>988.4</ele>
        <time>2022-07-16T06:45:07Z</time>
      </trkpt>
      <trkpt lat="45.00332" lon="5.75924">
        <ele>988.2</ele>
        <time>2022-07-16T06:45:08Z</time>
      </trkpt>
      <trkpt lat="45.00326" lon="5.75917">
        <ele>988</ele>
        <time>2022-07-16T06:45:09Z</time>
      </trkpt>
      <trkpt lat="45.0032" lon="5.75909">
        <ele>987.7</ele>
        <time>2022-07-16T06:45:10Z</time>
      </trkpt>
      <trkpt lat="45.00314" lon="5.75901">
        <ele>987.4</ele>
        <time>2022-07-16T06:45:11Z</time>
      </trkpt>
      <trkpt lat="45.00308" lon="5.75893">
        <ele>987.2</ele>
        <time>2022-07-16T06:45:12Z</time>
      </trkpt>
      <trkpt lat="45.00301" lon="5.75885">
        <ele>986.9</ele>
        <time>2022-07-16T06:45:13Z</time>
      </trkpt>
      <trkpt lat="45.00294" lon="5.75877">
        <ele>986.6</ele>
        <time>2022-07-16T06:45:14Z</time>
      </trkpt>
      <trkpt lat="45.00287" lon="5.75869">
        <ele>986.3</ele>
        <time>2022-07-16T06:45:15Z</time>
      </trkpt>
      <trkpt lat="45.00281" lon="5.75861">
        <ele>985.9</ele>
        <time>2022-07-16T06:45:16Z</time>
      </trkpt>
      <trkpt lat="45.00274" lon="5.75853">
        <ele>985.6</ele>
        <time>2022-07-16T06:45:17Z</time>
      </trkpt>
      <trkpt lat="45.00267" lon="5.75845">
        <ele>985.3</ele>
        <time>2022-07-16T06:45:18Z</time>
      </trkpt>
      <trkpt lat="45.00261" lon="5.75837">
        <ele>984.9</ele>
        <time>2022-07-16T06:45:19Z</time>
      </trkpt>
      <trkpt lat="45.00254" lon="5.75829">
        <ele>984.6</ele>
        <time>2022-07-16T06:45:20Z</time>
      </trkpt>
      <trkpt lat="45.00247" lon="5.75821">
        <ele>984.3</ele>
        <time>2022-07-16T06:45:21Z</time>
      </trkpt>
      <trkpt lat="45.0024" lon="5.75813">
        <ele>984</ele>
        <time>2022-07-16T06:45:22Z</time>
      </trkpt>
      <trkpt lat="45.00233" lon="5.75804">
        <ele>983.7</ele>
        <time>2022-07-16T06:45:23Z</time>
      </trkpt>
      <trkpt lat="45.00226" lon="5.75796">
        <ele>983.4</ele>
        <time>2022-07-16T06:45:24Z</time>
      </trkpt>
      <trkpt lat="45.0022" lon="5.75788">
        <ele>983.1</ele>
        <time>2022-07-16T06:45:25Z</time>
      </trkpt>
      <trkpt lat="45.00213" lon="5.75779">
        <ele>982.8</ele>
        <time>2022-07-16T06:45:26Z</time>
      </trkpt>
      <trkpt lat="45.00207" lon="5.75771">
        <ele>982.5</ele>
        <time>2022-07-16T06:45:27Z</time>
      </trkpt>
      <trkpt lat="45.002" lon="5.75763">
        <ele>982.2</ele>
        <time>2022-07-16T06:45:28Z</time>
      </trkpt>
      <trkpt lat="45.00193" lon="5.75755">
        <ele>981.9</ele>
        <time>2022-07-16T06:45:29Z</time>
      </trkpt>
      <trkpt lat="45.00186" lon="5.75747">
        <ele>981.6</ele>
        <time>2022-07-16T06:45:30Z</time>
      </trkpt>
      <trkpt lat="45.0018" lon="5.7574">
        <ele>981.3</ele>
        <time>2022-07-16T06:45:31Z</time>
      </trkpt>
      <trkpt lat="45.00174" lon="5.75732">
        <ele>981</ele>
        <time>2022-07-16T06:45:32Z</time>
      </trkpt>
      <trkpt lat="45.00167" lon="5.75724">
        <ele>980.6</ele>
        <time>2022-07-16T06:45:33Z</time>
      </trkpt>
      <trkpt lat="45.0016" lon="5.75716">
        <ele>980.3</ele>
        <time>2022-07-16T06:45:34Z</time>
      </trkpt>
      <trkpt lat="45.00154" lon="5.75708">
        <ele>980.1</ele>
        <time>2022-07-16T06:45:35Z</time>
      </trkpt>
      <trkpt lat="45.00147" lon="5.757">
        <ele>979.8</ele>
        <time>2022-07-16T06:45:36Z</time>
      </trkpt>
      <trkpt lat="45.00141" lon="5.75692">
        <ele>979.6</ele>
        <time>2022-07-16T06:45:37Z</time>
      </trkpt>
      <trkpt lat="45.00135" lon="5.75684">
        <ele>979.4</ele>
        <time>2022-07-16T06:45:38Z</time>
      </trkpt>
      <trkpt lat="45.00128" lon="5.75676">
        <ele>979.3</ele>
        <time>2022-07-16T06:45:39Z</time>
      </trkpt>
      <trkpt lat="45.00122" lon="5.75668">
        <ele>979.1</ele>
        <time>2022-07-16T06:45:40Z</time>
      </trkpt>
      <trkpt lat="45.00116" lon="5.75659">
        <ele>979</ele>
        <time>2022-07-16T06:45:41Z</time>
      </trkpt>
      <trkpt lat="45.00109" lon="5.75651">
        <ele>978.9</ele>
        <time>2022-07-16T06:45:42Z</time>
      </trkpt>
      <trkpt lat="45.00103" lon="5.75644">
        <ele>978.8</ele>
        <time>2022-07-16T06:45:43Z</time>
      </trkpt>
      <trkpt lat="45.00096" lon="5.75636">
        <ele>978.8</ele>
        <time>2022-07-16T06:45:44Z</time>
      </trkpt>
      <trkpt lat="45.0009" lon="5.75628">
        <ele>978.8</ele>
        <time>2022-07-16T06:45:45Z</time>
      </trkpt>
      <trkpt lat="45.00084" lon="5.75621">
        <ele>978.7</ele>
        <time>2022-07-16T06:45:46Z</time>
      </trkpt>
      <trkpt lat="45.00078" lon="5.75613">
        <ele>978.6</ele>
        <time>2022-07-16T06:45:47Z</time>
      </trkpt>
      <trkpt lat="45.00072" lon="5.75606">
        <ele>978.5</ele>
        <time>2022-07-16T06:45:48Z</time>
      </trkpt>
      <trkpt lat="45.00066" lon="5.75598">
        <ele>978.4</ele>
        <time>2022-07-16T06:45:49Z</time>
      </trkpt>
      <trkpt lat="45.00061" lon="5.75591">
        <ele>978.4</ele>
        <time>2022-07-16T06:45:50Z</time>
      </trkpt>
      <trkpt lat="45.00055" lon="5.75585">
        <ele>978.3</ele>
        <time>2022-07-16T06:45:51Z</time>
      </trkpt>
      <trkpt lat="45.00049" lon="5.75578">
        <ele>978.3</ele>
        <time>2022-07-16T06:45:52Z</time>
      </trkpt>
      <trkpt lat="45.00043" lon="5.75571">
        <ele>978.2</ele>
        <time>2022-07-16T06:45:53Z</time>
      </trkpt>
      <trkpt lat="45.00037" lon="5.75564">
        <ele>978.2</ele>
        <time>2022-07-16T06:45:54Z</time>
      </trkpt>
      <trkpt lat="45.00031" lon="5.75556">
        <ele>978.1</ele>
        <time>2022-07-16T06:45:55Z</time>
      </trkpt>
      <trkpt lat="45.00026" lon="5.7555">
        <ele>978.1</ele>
        <time>2022-07-16T06:45:56Z</time>
      </trkpt>
      <trkpt lat="45.0002" lon="5.75543">
        <ele>978.1</ele>
        <time>2022-07-16T06:45:57Z</time>
      </trkpt>
      <trkpt lat="45.00014" lon="5.75536">
        <ele>978</ele>
        <time>2022-07-16T06:45:58Z</time>
      </trkpt>
      <trkpt lat="45.00009" lon="5.75529">
        <ele>978</ele>
        <time>2022-07-16T06:45:59Z</time>
      </trkpt>
      <trkpt lat="45.00003" lon="5.75523">
        <ele>978</ele>
        <time>2022-07-16T06:46:00Z</time>
      </trkpt>
      <trkpt lat="44.99997" lon="5.75517">
        <ele>977.9</ele>
        <time>2022-07-16T06:46:01Z</time>
      </trkpt>
      <trkpt lat="44.99991" lon="5.7551">
        <ele>977.9</ele>
        <time>2022-07-16T06:46:02Z</time>
      </trkpt>
      <trkpt lat="44.99985" lon="5.75503">
        <ele>977.9</ele>
        <time>2022-07-16T06:46:03Z</time>
      </trkpt>
      <trkpt lat="44.99979" lon="5.75495">
        <ele>977.8</ele>
        <time>2022-07-16T06:46:04Z</time>
      </trkpt>
      <trkpt lat="44.99974" lon="5.75488">
        <ele>977.8</ele>
        <time>2022-07-16T06:46:05Z</time>
      </trkpt>
      <trkpt lat="44.99968" lon="5.75481">
        <ele>977.8</ele>
        <time>2022-07-16T06:46:06Z</time>
      </trkpt>
      <trkpt lat="44.99962" lon="5.75474">
        <ele>977.7</ele>
        <time>2022-07-16T06:46:07Z</time>
      </trkpt>
      <trkpt lat="44.99957" lon="5.75467">
        <ele>977.7</ele>
        <time>2022-07-16T06:46:08Z</time>
      </trkpt>
      <trkpt lat="44.99951" lon="5.7546">
        <ele>977.7</ele>
        <time>2022-07-16T06:46:09Z</time>
      </trkpt>
      <trkpt lat="44.99946" lon="5.75454">
        <ele>977.7</ele>
        <time>2022-07-16T06:46:10Z</time>
      </trkpt>
      <trkpt lat="44.9994" lon="5.75447">
        <ele>977.6</ele>
        <time>2022-07-16T06:46:11Z</time>
      </trkpt>
      <trkpt lat="44.99934" lon="5.7544">
        <ele>977.6</ele>
        <time>2022-07-16T06:46:12Z</time>
      </trkpt>
      <trkpt lat="44.99929" lon="5.75433">
        <ele>977.6</ele>
        <time>2022-07-16T06:46:13Z</time>
      </trkpt>
      <trkpt lat="44.99923" lon="5.75426">
        <ele>977.6</ele>
        <time>2022-07-16T06:46:14Z</time>
      </trkpt>
      <trkpt lat="44.99917" lon="5.75419">
        <ele>977.5</ele>
        <time>2022-07-16T06:46:15Z</time>
      </trkpt>
      <trkpt lat="44.99912" lon="5.75413">
        <ele>977.5</ele>
        <time>2022-07-16T06:46:16Z</time>
      </trkpt>
      <trkpt lat="44.99906" lon="5.75406">
        <ele>977.5</ele>
        <time>2022-07-16T06:46:17Z</time>
      </trkpt>
      <trkpt lat="44.99901" lon="5.75399">
        <ele>977.4</ele>
        <time>2022-07-16T06:46:18Z</time>
      </trkpt>
      <trkpt lat="44.99896" lon="5.75392">
        <ele>977.4</ele>
        <time>2022-07-16T06:46:19Z</time>
      </trkpt>
      <trkpt lat="44.99891" lon="5.75385">
        <ele>977.3</ele>
        <time>2022-07-16T06:46:20Z</time>
      </trkpt>
      <trkpt lat="44.99885" lon="5.75379">
        <ele>977.2</ele>
        <time>2022-07-16T06:46:21Z</time>
      </trkpt>
      <trkpt lat="44.9988" lon="5.75372">
        <ele>977.2</ele>
        <time>2022-07-16T06:46:22Z</time>
      </trkpt>
      <trkpt lat="44.99875" lon="5.75366">
        <ele>977.1</ele>
        <time>2022-07-16T06:46:23Z</time>
      </trkpt>
      <trkpt lat="44.99869" lon="5.75359">
        <ele>977.1</ele>
        <time>2022-07-16T06:46:24Z</time>
      </trkpt>
      <trkpt lat="44.99864" lon="5.75352">
        <ele>977</ele>
        <time>2022-07-16T06:46:25Z</time>
      </trkpt>
      <trkpt lat="44.99859" lon="5.75345">
        <ele>977</ele>
        <time>2022-07-16T06:46:26Z</time>
      </trkpt>
      <trkpt lat="44.99853" lon="5.75338">
        <ele>977</ele>
        <time>2022-07-16T06:46:27Z</time>
      </trkpt>
      <trkpt lat="44.99848" lon="5.75332">
        <ele>976.9</ele>
        <time>2022-07-16T06:46:28Z</time>
      </trkpt>
      <trkpt lat="44.99843" lon="5.75325">
        <ele>976.9</ele>
        <time>2022-07-16T06:46:29Z</time>
      </trkpt>
      <trkpt lat="44.99837" lon="5.75319">
        <ele>976.9</ele>
        <time>2022-07-16T06:46:30Z</time>
      </trkpt>
      <trkpt lat="44.99832" lon="5.75313">
        <ele>976.8</ele>
        <time>2022-07-16T06:46:31Z</time>
      </trkpt>
      <trkpt lat="44.99827" lon="5.75306">
        <ele>976.8</ele>
        <time>2022-07-16T06:46:32Z</time>
      </trkpt>
      <trkpt lat="44.99822" lon="5.753">
        <ele>976.7</ele>
        <time>2022-07-16T06:46:33Z</time>
      </trkpt>
      <trkpt lat="44.99817" lon="5.75294">
        <ele>976.7</ele>
        <time>2022-07-16T06:46:34Z</time>
      </trkpt>
      <trkpt lat="44.99812" lon="5.75288">
        <ele>976.7</ele>
        <time>2022-07-16T06:46:35Z</time>
      </trkpt>
      <trkpt lat="44.99807" lon="5.75282">
        <ele>976.6</ele>
        <time>2022-07-16T06:46:36Z</time>
      </trkpt>
      <trkpt lat="44.99803" lon="5.75275">
        <ele>976.6</ele>
        <time>2022-07-16T06:46:37Z</time>
      </trkpt>
      <trkpt lat="44.99799" lon="5.75268">
        <ele>976.5</ele>
        <time>2022-07-16T06:46:38Z</time>
      </trkpt>
      <trkpt lat="44.99796" lon="5.75261">
        <ele>976.4</ele>
        <time>2022-07-16T06:46:39Z</time>
      </trkpt>
      <trkpt lat="44.99791" lon="5.75255">
        <ele>976.3</ele>
        <time>2022-07-16T06:46:40Z</time>
      </trkpt>
      <trkpt lat="44.99786" lon="5.75249">
        <ele>976.2</ele>
        <time>2022-07-16T06:46:41Z</time>
      </trkpt>
      <trkpt lat="44.99779" lon="5.75244">
        <ele>976</ele>
        <time>2022-07-16T06:46:42Z</time>
      </trkpt>
      <trkpt lat="44.99773" lon="5.75241">
        <ele>975.8</ele>
        <time>2022-07-16T06:46:43Z</time>
      </trkpt>
      <trkpt lat="44.99767" lon="5.75238">
        <ele>975.6</ele>
        <time>2022-07-16T06:46:44Z</time>
      </trkpt>
      <trkpt lat="44.9976" lon="5.75236">
        <ele>975.3</ele>
        <time>2022-07-16T06:46:45Z</time>
      </trkpt>
      <trkpt lat="44.99753" lon="5.75232">
        <ele>975.1</ele>
        <time>2022-07-16T06:46:46Z</time>
      </trkpt>
      <trkpt lat="44.99746" lon="5.75228">
        <ele>974.9</ele>
        <time>2022-07-16T06:46:47Z</time>
      </trkpt>
      <trkpt lat="44.99739" lon="5.75226">
        <ele>974.6</ele>
        <time>2022-07-16T06:46:48Z</time>
      </trkpt>
      <trkpt lat="44.99732" lon="5.75223">
        <ele>974.4</ele>
        <time>2022-07-16T06:46:49Z</time>
      </trkpt>
      <trkpt lat="44.99725" lon="5.75221">
        <ele>974.2</ele>
        <time>2022-07-16T06:46:50Z</time>
      </trkpt>
      <trkpt lat="44.99718" lon="5.75218">
        <ele>974</ele>
        <time>2022-07-16T06:46:51Z</time>
      </trkpt>
      <trkpt lat="44.99711" lon="5.75217">
        <ele>973.8</ele>
        <time>2022-07-16T06:46:52Z</time>
      </trkpt>
      <trkpt lat="44.99703" lon="5.75216">
        <ele>973.6</ele>
        <time>2022-07-16T06:46:53Z</time>
      </trkpt>
      <trkpt lat="44.99696" lon="5.75215">
        <ele>973.5</ele>
        <time>2022-07-16T06:46:54Z</time>
      </trkpt>
      <trkpt lat="44.99689" lon="5.75214">
        <ele>973.3</ele>
        <time>2022-07-16T06:46:55Z</time>
      </trkpt>
      <trkpt lat="44.99681" lon="5.75213">
        <ele>973.1</ele>
        <time>2022-07-16T06:46:56Z</time>
      </trkpt>
      <trkpt lat="44.99673" lon="5.75212">
        <ele>972.9</ele>
        <time>2022-07-16T06:46:57Z</time>
      </trkpt>
      <trkpt lat="44.99665" lon="5.75212">
        <ele>972.7</ele>
        <time>2022-07-16T06:46:58Z</time>
      </trkpt>
      <trkpt lat="44.99657" lon="5.75211">
        <ele>972.6</ele>
        <time>2022-07-16T06:46:59Z</time>
      </trkpt>
      <trkpt lat="44.99649" lon="5.7521">
        <ele>972.5</ele>
        <time>2022-07-16T06:47:00Z</time>
      </trkpt>
      <trkpt lat="44.99641" lon="5.7521">
        <ele>972.3</ele>
        <time>2022-07-16T06:47:01Z</time>
      </trkpt>
      <trkpt lat="44.99633" lon="5.75209">
        <ele>972.2</ele>
        <time>2022-07-16T06:47:02Z</time>
      </trkpt>
      <trkpt lat="44.99626" lon="5.75208">
        <ele>972.1</ele>
        <time>2022-07-16T06:47:03Z</time>
      </trkpt>
      <trkpt lat="44.99618" lon="5.75207">
        <ele>971.9</ele>
        <time>2022-07-16T06:47:04Z</time>
      </trkpt>
      <trkpt lat="44.99611" lon="5.75206">
        <ele>971.8</ele>
        <time>2022-07-16T06:47:05Z</time>
      </trkpt>
      <trkpt lat="44.99603" lon="5.75206">
        <ele>971.6</ele>
        <time>2022-07-16T06:47:06Z</time>
      </trkpt>
      <trkpt lat="44.99595" lon="5.75205">
        <ele>971.6</ele>
        <time>2022-07-16T06:47:07Z</time>
      </trkpt>
      <trkpt lat="44.99587" lon="5.75205">
        <ele>971.5</ele>
        <time>2022-07-16T06:47:08Z</time>
      </trkpt>
      <trkpt lat="44.9958" lon="5.75204">
        <ele>971.4</ele>
        <time>2022-07-16T06:47:09Z</time>
      </trkpt>
      <trkpt lat="44.99572" lon="5.75204">
        <ele>971.3</ele>
        <time>2022-07-16T06:47:10Z</time>
      </trkpt>
      <trkpt lat="44.99564" lon="5.75203">
        <ele>971.2</ele>
        <time>2022-07-16T06:47:11Z</time>
      </trkpt>
      <trkpt lat="44.99557" lon="5.75202">
        <ele>971.1</ele>
        <time>2022-07-16T06:47:12Z</time>
      </trkpt>
      <trkpt lat="44.99549" lon="5.75202">
        <ele>971.1</ele>
        <time>2022-07-16T06:47:13Z</time>
      </trkpt>
      <trkpt lat="44.99542" lon="5.75202">
        <ele>971.1</ele>
        <time>2022-07-16T06:47:14Z</time>
      </trkpt>
      <trkpt lat="44.99534" lon="5.75201">
        <ele>971.1</ele>
        <time>2022-07-16T06:47:15Z</time>
      </trkpt>
      <trkpt lat="44.99527" lon="5.752">
        <ele>971.1</ele>
        <time>2022-07-16T06:47:16Z</time>
      </trkpt>
      <trkpt lat="44.9952" lon="5.752">
        <ele>971</ele>
        <time>2022-07-16T06:47:17Z</time>
      </trkpt>
      <trkpt lat="44.99513" lon="5.75199">
        <ele>971</ele>
        <time>2022-07-16T06:47:18Z</time>
      </trkpt>
      <trkpt lat="44.99506" lon="5.75199">
        <ele>971</ele>
        <time>2022-07-16T06:47:19Z</time>
      </trkpt>
      <trkpt lat="44.99498" lon="5.75198">
        <ele>970.9</ele>
        <time>2022-07-16T06:47:20Z</time>
      </trkpt>
      <trkpt lat="44.99491" lon="5.75197">
        <ele>970.8</ele>
        <time>2022-07-16T06:47:21Z</time>
      </trkpt>
      <trkpt lat="44.99484" lon="5.75197">
        <ele>970.8</ele>
        <time>2022-07-16T06:47:22Z</time>
      </trkpt>
      <trkpt lat="44.99477" lon="5.75196">
        <ele>970.7</ele>
        <time>2022-07-16T06:47:23Z</time>
      </trkpt>
      <trkpt lat="44.99469" lon="5.75195">
        <ele>970.6</ele>
        <time>2022-07-16T06:47:24Z</time>
      </trkpt>
      <trkpt lat="44.99462" lon="5.75194">
        <ele>970.6</ele>
        <time>2022-07-16T06:47:25Z</time>
      </trkpt>
      <trkpt lat="44.99455" lon="5.75193">
        <ele>970.5</ele>
        <time>2022-07-16T06:47:26Z</time>
      </trkpt>
      <trkpt lat="44.99448" lon="5.75192">
        <ele>970.5</ele>
        <time>2022-07-16T06:47:27Z</time>
      </trkpt>
      <trkpt lat="44.9944" lon="5.75192">
        <ele>970.5</ele>
        <time>2022-07-16T06:47:28Z</time>
      </trkpt>
      <trkpt lat="44.99433" lon="5.75191">
        <ele>970.4</ele>
        <time>2022-07-16T06:47:29Z</time>
      </trkpt>
      <trkpt lat="44.99426" lon="5.75189">
        <ele>970.4</ele>
        <time>2022-07-16T06:47:30Z</time>
      </trkpt>
      <trkpt lat="44.99419" lon="5.75188">
        <ele>970.3</ele>
        <time>2022-07-16T06:47:31Z</time>
      </trkpt>
      <trkpt lat="44.99412" lon="5.75187">
        <ele>970.3</ele>
        <time>2022-07-16T06:47:32Z</time>
      </trkpt>
      <trkpt lat="44.99404" lon="5.75187">
        <ele>970.2</ele>
        <time>2022-07-16T06:47:33Z</time>
      </trkpt>
      <trkpt lat="44.99398" lon="5.75187">
        <ele>970.2</ele>
        <time>2022-07-16T06:47:34Z</time>
      </trkpt>
      <trkpt lat="44.9939" lon="5.75187">
        <ele>970.1</ele>
        <time>2022-07-16T06:47:35Z</time>
      </trkpt>
      <trkpt lat="44.99382" lon="5.75186">
        <ele>970.1</ele>
        <time>2022-07-16T06:47:36Z</time>
      </trkpt>
      <trkpt lat="44.99375" lon="5.75185">
        <ele>970</ele>
        <time>2022-07-16T06:47:37Z</time>
      </trkpt>
      <trkpt lat="44.99367" lon="5.75184">
        <ele>969.9</ele>
        <time>2022-07-16T06:47:38Z</time>
      </trkpt>
      <trkpt lat="44.9936" lon="5.75183">
        <ele>969.8</ele>
        <time>2022-07-16T06:47:39Z</time>
      </trkpt>
      <trkpt lat="44.99352" lon="5.75182">
        <ele>969.7</ele>
        <time>2022-07-16T06:47:40Z</time>
      </trkpt>
      <trkpt lat="44.99344" lon="5.75182">
        <ele>969.6</ele>
        <time>2022-07-16T06:47:41Z</time>
      </trkpt>
      <trkpt lat="44.99337" lon="5.75181">
        <ele>969.5</ele>
        <time>2022-07-16T06:47:42Z</time>
      </trkpt>
      <trkpt lat="44.9933" lon="5.7518">
        <ele>969.4</ele>
        <time>2022-07-16T06:47:43Z</time>
      </trkpt>
      <trkpt lat="44.99323" lon="5.7518">
        <ele>969.3</ele>
        <time>2022-07-16T06:47:44Z</time>
      </trkpt>
      <trkpt lat="44.99315" lon="5.75179">
        <ele>969.3</ele>
        <time>2022-07-16T06:47:45Z</time>
      </trkpt>
      <trkpt lat="44.99308" lon="5.75178">
        <ele>969.3</ele>
        <time>2022-07-16T06:47:46Z</time>
      </trkpt>
      <trkpt lat="44.993" lon="5.75178">
        <ele>969.3</ele>
        <time>2022-07-16T06:47:47Z</time>
      </trkpt>
      <trkpt lat="44.99293" lon="5.75177">
        <ele>969.3</ele>
        <time>2022-07-16T06:47:48Z</time>
      </trkpt>
      <trkpt lat="44.99287" lon="5.75177">
        <ele>969.3</ele>
        <time>2022-07-16T06:47:49Z</time>
      </trkpt>
      <trkpt lat="44.9928" lon="5.75176">
        <ele>969.2</ele>
        <time>2022-07-16T06:47:50Z</time>
      </trkpt>
      <trkpt lat="44.99272" lon="5.75175">
        <ele>969.2</ele>
        <time>2022-07-16T06:47:51Z</time>
      </trkpt>
      <trkpt lat="44.99265" lon="5.75174">
        <ele>969.2</ele>
        <time>2022-07-16T06:47:52Z</time>
      </trkpt>
      <trkpt lat="44.99258" lon="5.75173">
        <ele>969.2</ele>
        <time>2022-07-16T06:47:53Z</time>
      </trkpt>
      <trkpt lat="44.9925" lon="5.75172">
        <ele>969.2</ele>
        <time>2022-07-16T06:47:54Z</time>
      </trkpt>
      <trkpt lat="44.99243" lon="5.75171">
        <ele>969.3</ele>
        <time>2022-07-16T06:47:55Z</time>
      </trkpt>
      <trkpt lat="44.99236" lon="5.7517">
        <ele>969.3</ele>
        <time>2022-07-16T06:47:56Z</time>
      </trkpt>
      <trkpt lat="44.99229" lon="5.7517">
        <ele>969.4</ele>
        <time>2022-07-16T06:47:57Z</time>
      </trkpt>
      <trkpt lat="44.99222" lon="5.75169">
        <ele>969.4</ele>
        <time>2022-07-16T06:47:58Z</time>
      </trkpt>
      <trkpt lat="44.99216" lon="5.75169">
        <ele>969.4</ele>
        <time>2022-07-16T06:47:59Z</time>
      </trkpt>
      <trkpt lat="44.99209" lon="5.75168">
        <ele>969.5</ele>
        <time>2022-07-16T06:48:00Z</time>
      </trkpt>
      <trkpt lat="44.99202" lon="5.75168">
        <ele>969.5</ele>
        <time>2022-07-16T06:48:01Z</time>
      </trkpt>
      <trkpt lat="44.99196" lon="5.75167">
        <ele>969.5</ele>
        <time>2022-07-16T06:48:02Z</time>
      </trkpt>
      <trkpt lat="44.99189" lon="5.75168">
        <ele>969.5</ele>
        <time>2022-07-16T06:48:03Z</time>
      </trkpt>
      <trkpt lat="44.99182" lon="5.75169">
        <ele>969.6</ele>
        <time>2022-07-16T06:48:04Z</time>
      </trkpt>
      <trkpt lat="44.99176" lon="5.75171">
        <ele>969.7</ele>
        <time>2022-07-16T06:48:05Z</time>
      </trkpt>
      <trkpt lat="44.9917" lon="5.75173">
        <ele>969.7</ele>
        <time>2022-07-16T06:48:06Z</time>
      </trkpt>
      <trkpt lat="44.99164" lon="5.75175">
        <ele>969.8</ele>
        <time>2022-07-16T06:48:07Z</time>
      </trkpt>
      <trkpt lat="44.99157" lon="5.75179">
        <ele>969.8</ele>
        <time>2022-07-16T06:48:08Z</time>
      </trkpt>
      <trkpt lat="44.99151" lon="5.75182">
        <ele>969.9</ele>
        <time>2022-07-16T06:48:09Z</time>
      </trkpt>
      <trkpt lat="44.99146" lon="5.75186">
        <ele>970</ele>
        <time>2022-07-16T06:48:10Z</time>
      </trkpt>
      <trkpt lat="44.9914" lon="5.7519">
        <ele>970</ele>
        <time>2022-07-16T06:48:11Z</time>
      </trkpt>
      <trkpt lat="44.99135" lon="5.75193">
        <ele>970.1</ele>
        <time>2022-07-16T06:48:12Z</time>
      </trkpt>
      <trkpt lat="44.99129" lon="5.75197">
        <ele>970.2</ele>
        <time>2022-07-16T06:48:13Z</time>
      </trkpt>
      <trkpt lat="44.99124" lon="5.752">
        <ele>970.2</ele>
        <time>2022-07-16T06:48:14Z</time>
      </trkpt>
      <trkpt lat="44.99118" lon="5.75204">
        <ele>970.2</ele>
        <time>2022-07-16T06:48:15Z</time>
      </trkpt>
      <trkpt lat="44.99113" lon="5.75207">
        <ele>970.2</ele>
        <time>2022-07-16T06:48:16Z</time>
      </trkpt>
      <trkpt lat="44.99107" lon="5.7521">
        <ele>970.2</ele>
        <time>2022-07-16T06:48:17Z</time>
      </trkpt>
      <trkpt lat="44.99101" lon="5.75211">
        <ele>970.1</ele>
        <time>2022-07-16T06:48:18Z</time>
      </trkpt>
      <trkpt lat="44.99094" lon="5.75211">
        <ele>970</ele>
        <time>2022-07-16T06:48:19Z</time>
      </trkpt>
      <trkpt lat="44.99088" lon="5.75209">
        <ele>969.9</ele>
        <time>2022-07-16T06:48:20Z</time>
      </trkpt>
      <trkpt lat="44.99081" lon="5.75206">
        <ele>969.8</ele>
        <time>2022-07-16T06:48:21Z</time>
      </trkpt>
      <trkpt lat="44.99075" lon="5.75202">
        <ele>969.7</ele>
        <time>2022-07-16T06:48:22Z</time>
      </trkpt>
      <trkpt lat="44.99069" lon="5.75198">
        <ele>969.6</ele>
        <time>2022-07-16T06:48:23Z</time>
      </trkpt>
      <trkpt lat="44.99063" lon="5.75193">
        <ele>969.5</ele>
        <time>2022-07-16T06:48:24Z</time>
      </trkpt>
      <trkpt lat="44.99057" lon="5.75189">
        <ele>969.5</ele>
        <time>2022-07-16T06:48:25Z</time>
      </trkpt>
      <trkpt lat="44.99051" lon="5.75184">
        <ele>969.4</ele>
        <time>2022-07-16T06:48:26Z</time>
      </trkpt>
      <trkpt lat="44.99045" lon="5.75179">
        <ele>969.4</ele>
        <time>2022-07-16T06:48:27Z</time>
      </trkpt>
      <trkpt lat="44.99039" lon="5.75175">
        <ele>969.3</ele>
        <time>2022-07-16T06:48:28Z</time>
      </trkpt>
      <trkpt lat="44.99033" lon="5.75171">
        <ele>969.3</ele>
        <time>2022-07-16T06:48:29Z</time>
      </trkpt>
      <trkpt lat="44.99027" lon="5.75168">
        <ele>969.3</ele>
        <time>2022-07-16T06:48:30Z</time>
      </trkpt>
      <trkpt lat="44.99021" lon="5.75165">
        <ele>969.3</ele>
        <time>2022-07-16T06:48:31Z</time>
      </trkpt>
      <trkpt lat="44.99016" lon="5.75161">
        <ele>969.3</ele>
        <time>2022-07-16T06:48:32Z</time>
      </trkpt>
      <trkpt lat="44.99009" lon="5.75156">
        <ele>969.3</ele>
        <time>2022-07-16T06:48:33Z</time>
      </trkpt>
      <trkpt lat="44.99003" lon="5.75151">
        <ele>969.2</ele>
        <time>2022-07-16T06:48:34Z</time>
      </trkpt>
      <trkpt lat="44.98997" lon="5.75146">
        <ele>969.2</ele>
        <time>2022-07-16T06:48:35Z</time>
      </trkpt>
      <trkpt lat="44.98992" lon="5.75141">
        <ele>969.2</ele>
        <time>2022-07-16T06:48:36Z</time>
      </trkpt>
      <trkpt lat="44.98986" lon="5.75136">
        <ele>969.2</ele>
        <time>2022-07-16T06:48:37Z</time>
      </trkpt>
      <trkpt lat="44.9898" lon="5.75131">
        <ele>969.2</ele>
        <time>2022-07-16T06:48:38Z</time>
      </trkpt>
      <trkpt lat="44.98975" lon="5.75127">
        <ele>969.2</ele>
        <time>2022-07-16T06:48:39Z</time>
      </trkpt>
      <trkpt lat="44.9897" lon="5.75123">
        <ele>969.2</ele>
        <time>2022-07-16T06:48:40Z</time>
      </trkpt>
      <trkpt lat="44.98964" lon="5.75119">
        <ele>969.2</ele>
        <time>2022-07-16T06:48:41Z</time>
      </trkpt>
      <trkpt lat="44.98959" lon="5.75115">
        <ele>969.2</ele>
        <time>2022-07-16T06:48:42Z</time>
      </trkpt>
      <trkpt lat="44.98954" lon="5.75111">
        <ele>969.2</ele>
        <time>2022-07-16T06:48:43Z</time>
      </trkpt>
      <trkpt lat="44.98949" lon="5.75107">
        <ele>969.2</ele>
        <time>2022-07-16T06:48:44Z</time>
      </trkpt>
      <trkpt lat="44.98944" lon="5.75103">
        <ele>969.2</ele>
        <time>2022-07-16T06:48:45Z</time>
      </trkpt>
      <trkpt lat="44.98938" lon="5.751">
        <ele>969.2</ele>
        <time>2022-07-16T06:48:46Z</time>
      </trkpt>
      <trkpt lat="44.98933" lon="5.75096">
        <ele>969.2</ele>
        <time>2022-07-16T06:48:47Z</time>
      </trkpt>
      <trkpt lat="44.98928" lon="5.75093">
        <ele>969.1</ele>
        <time>2022-07-16T06:48:48Z</time>
      </trkpt>
      <trkpt lat="44.98923" lon="5.75089">
        <ele>969.1</ele>
        <time>2022-07-16T06:48:49Z</time>
      </trkpt>
      <trkpt lat="44.98918" lon="5.75085">
        <ele>969.1</ele>
        <time>2022-07-16T06:48:50Z</time>
      </trkpt>
      <trkpt lat="44.98913" lon="5.75081">
        <ele>969.1</ele>
        <time>2022-07-16T06:48:51Z</time>
      </trkpt>
      <trkpt lat="44.98907" lon="5.75077">
        <ele>969</ele>
        <time>2022-07-16T06:48:52Z</time>
      </trkpt>
      <trkpt lat="44.98901" lon="5.75073">
        <ele>969</ele>
        <time>2022-07-16T06:48:53Z</time>
      </trkpt>
      <trkpt lat="44.98896" lon="5.7507">
        <ele>969</ele>
        <time>2022-07-16T06:48:54Z</time>
      </trkpt>
      <trkpt lat="44.98891" lon="5.75066">
        <ele>969</ele>
        <time>2022-07-16T06:48:55Z</time>
      </trkpt>
      <trkpt lat="44.98885" lon="5.75063">
        <ele>969</ele>
        <time>2022-07-16T06:48:56Z</time>
      </trkpt>
      <trkpt lat="44.9888" lon="5.75059">
        <ele>969</ele>
        <time>2022-07-16T06:48:57Z</time>
      </trkpt>
      <trkpt lat="44.98876" lon="5.75056">
        <ele>968.9</ele>
        <time>2022-07-16T06:48:58Z</time>
      </trkpt>
      <trkpt lat="44.9887" lon="5.75052">
        <ele>968.9</ele>
        <time>2022-07-16T06:48:59Z</time>
      </trkpt>
      <trkpt lat="44.98865" lon="5.75047">
        <ele>968.9</ele>
        <time>2022-07-16T06:49:00Z</time>
      </trkpt>
      <trkpt lat="44.98859" lon="5.75043">
        <ele>968.8</ele>
        <time>2022-07-16T06:49:01Z</time>
      </trkpt>
      <trkpt lat="44.98853" lon="5.75039">
        <ele>968.8</ele>
        <time>2022-07-16T06:49:02Z</time>
      </trkpt>
      <trkpt lat="44.98848" lon="5.75034">
        <ele>968.7</ele>
        <time>2022-07-16T06:49:03Z</time>
      </trkpt>
      <trkpt lat="44.98843" lon="5.75028">
        <ele>968.6</ele>
        <time>2022-07-16T06:49:04Z</time>
      </trkpt>
      <trkpt lat="44.98837" lon="5.75023">
        <ele>968.5</ele>
        <time>2022-07-16T06:49:05Z</time>
      </trkpt>
      <trkpt lat="44.98833" lon="5.75017">
        <ele>968.5</ele>
        <time>2022-07-16T06:49:06Z</time>
      </trkpt>
      <trkpt lat="44.98828" lon="5.75012">
        <ele>968.4</ele>
        <time>2022-07-16T06:49:07Z</time>
      </trkpt>
      <trkpt lat="44.98823" lon="5.75008">
        <ele>968.3</ele>
        <time>2022-07-16T06:49:08Z</time>
      </trkpt>
      <trkpt lat="44.98818" lon="5.75002">
        <ele>968.1</ele>
        <time>2022-07-16T06:49:09Z</time>
      </trkpt>
      <trkpt lat="44.98811" lon="5.74996">
        <ele>967.9</ele>
        <time>2022-07-16T06:49:10Z</time>
      </trkpt>
      <trkpt lat="44.98805" lon="5.74991">
        <ele>967.7</ele>
        <time>2022-07-16T06:49:11Z</time>
      </trkpt>
      <trkpt lat="44.98799" lon="5.74987">
        <ele>967.5</ele>
        <time>2022-07-16T06:49:12Z</time>
      </trkpt>
      <trkpt lat="44.98794" lon="5.74983">
        <ele>967.4</ele>
        <time>2022-07-16T06:49:13Z</time>
      </trkpt>
      <trkpt lat="44.98788" lon="5.74978">
        <ele>967.2</ele>
        <time>2022-07-16T06:49:14Z</time>
      </trkpt>
      <trkpt lat="44.98782" lon="5.74974">
        <ele>967</ele>
        <time>2022-07-16T06:49:15Z</time>
      </trkpt>
      <trkpt lat="44.98776" lon="5.74969">
        <ele>966.9</ele>
        <time>2022-07-16T06:49:16Z</time>
      </trkpt>
      <trkpt lat="44.98769" lon="5.74965">
        <ele>966.7</ele>
        <time>2022-07-16T06:49:17Z</time>
      </trkpt>
      <trkpt lat="44.98763" lon="5.74962">
        <ele>966.6</ele>
        <time>2022-07-16T06:49:18Z</time>
      </trkpt>
      <trkpt lat="44.98757" lon="5.74958">
        <ele>966.5</ele>
        <time>2022-07-16T06:49:19Z</time>
      </trkpt>
      <trkpt lat="44.98751" lon="5.74954">
        <ele>966.3</ele>
        <time>2022-07-16T06:49:20Z</time>
      </trkpt>
      <trkpt lat="44.98744" lon="5.7495">
        <ele>966.2</ele>
        <time>2022-07-16T06:49:21Z</time>
      </trkpt>
      <trkpt lat="44.98737" lon="5.74947">
        <ele>966.1</ele>
        <time>2022-07-16T06:49:22Z</time>
      </trkpt>
      <trkpt lat="44.98731" lon="5.74943">
        <ele>966</ele>
        <time>2022-07-16T06:49:23Z</time>
      </trkpt>
      <trkpt lat="44.98725" lon="5.74939">
        <ele>965.9</ele>
        <time>2022-07-16T06:49:24Z</time>
      </trkpt>
      <trkpt lat="44.9872" lon="5.74935">
        <ele>965.8</ele>
        <time>2022-07-16T06:49:25Z</time>
      </trkpt>
      <trkpt lat="44.98714" lon="5.74931">
        <ele>965.7</ele>
        <time>2022-07-16T06:49:26Z</time>
      </trkpt>
      <trkpt lat="44.98708" lon="5.74929">
        <ele>965.6</ele>
        <time>2022-07-16T06:49:27Z</time>
      </trkpt>
      <trkpt lat="44.98702" lon="5.74925">
        <ele>965.6</ele>
        <time>2022-07-16T06:49:28Z</time>
      </trkpt>
      <trkpt lat="44.98696" lon="5.74921">
        <ele>965.5</ele>
        <time>2022-07-16T06:49:29Z</time>
      </trkpt>
      <trkpt lat="44.9869" lon="5.74917">
        <ele>965.4</ele>
        <time>2022-07-16T06:49:30Z</time>
      </trkpt>
      <trkpt lat="44.98685" lon="5.74912">
        <ele>965.4</ele>
        <time>2022-07-16T06:49:31Z</time>
      </trkpt>
      <trkpt lat="44.98679" lon="5.74906">
        <ele>965.3</ele>
        <time>2022-07-16T06:49:32Z</time>
      </trkpt>
      <trkpt lat="44.98674" lon="5.74901">
        <ele>965.3</ele>
        <time>2022-07-16T06:49:33Z</time>
      </trkpt>
      <trkpt lat="44.98669" lon="5.74898">
        <ele>965.3</ele>
        <time>2022-07-16T06:49:34Z</time>
      </trkpt>
      <trkpt lat="44.98664" lon="5.74893">
        <ele>965.2</ele>
        <time>2022-07-16T06:49:35Z</time>
      </trkpt>
      <trkpt lat="44.9866" lon="5.74887">
        <ele>965.2</ele>
        <time>2022-07-16T06:49:36Z</time>
      </trkpt>
      <trkpt lat="44.98656" lon="5.74881">
        <ele>965.1</ele>
        <time>2022-07-16T06:49:37Z</time>
      </trkpt>
      <trkpt lat="44.98652" lon="5.74875">
        <ele>965.1</ele>
        <time>2022-07-16T06:49:38Z</time>
      </trkpt>
      <trkpt lat="44.98647" lon="5.74869">
        <ele>965.1</ele>
        <time>2022-07-16T06:49:39Z</time>
      </trkpt>
      <trkpt lat="44.98644" lon="5.74863">
        <ele>965</ele>
        <time>2022-07-16T06:49:40Z</time>
      </trkpt>
      <trkpt lat="44.9864" lon="5.74857">
        <ele>965</ele>
        <time>2022-07-16T06:49:41Z</time>
      </trkpt>
      <trkpt lat="44.98635" lon="5.74852">
        <ele>964.9</ele>
        <time>2022-07-16T06:49:42Z</time>
      </trkpt>
      <trkpt lat="44.9863" lon="5.74848">
        <ele>964.8</ele>
        <time>2022-07-16T06:49:43Z</time>
      </trkpt>
      <trkpt lat="44.98625" lon="5.74845">
        <ele>964.7</ele>
        <time>2022-07-16T06:49:44Z</time>
      </trkpt>
      <trkpt lat="44.98619" lon="5.74842">
        <ele>964.6</ele>
        <time>2022-07-16T06:49:45Z</time>
      </trkpt>
      <trkpt lat="44.98613" lon="5.74839">
        <ele>964.4</ele>
        <time>2022-07-16T06:49:46Z</time>
      </trkpt>
      <trkpt lat="44.98609" lon="5.74836">
        <ele>964.3</ele>
        <time>2022-07-16T06:49:47Z</time>
      </trkpt>
      <trkpt lat="44.98606" lon="5.74834">
        <ele>964.3</ele>
        <time>2022-07-16T06:49:48Z</time>
      </trkpt>
      <trkpt lat="44.98604" lon="5.74833">
        <ele>964.2</ele>
        <time>2022-07-16T06:49:49Z</time>
      </trkpt>
      <trkpt lat="44.98602" lon="5.74831">
        <ele>964.2</ele>
        <time>2022-07-16T06:49:50Z</time>
      </trkpt>
      <trkpt lat="44.98602" lon="5.7483">
        <ele>964.2</ele>
        <time>2022-07-16T06:49:51Z</time>
      </trkpt>
      <trkpt lat="44.98603" lon="5.74831">
        <ele>964.1</ele>
        <time>2022-07-16T06:49:52Z</time>
      </trkpt>
      <trkpt lat="44.98603" lon="5.74831">
        <ele>964.1</ele>
        <time>2022-07-16T06:49:53Z</time>
      </trkpt>
      <trkpt lat="44.98604" lon="5.74832">
        <ele>964.1</ele>
        <time>2022-07-16T06:49:56Z</time>
      </trkpt>
      <trkpt lat="44.98604" lon="5.74833">
        <ele>964.1</ele>
        <time>2022-07-16T06:49:57Z</time>
      </trkpt>
      <trkpt lat="44.98604" lon="5.74834">
        <ele>964.1</ele>
        <time>2022-07-16T06:50:00Z</time>
      </trkpt>
      <trkpt lat="44.98605" lon="5.74835">
        <ele>964.1</ele>
        <time>2022-07-16T06:50:01Z</time>
      </trkpt>
      <trkpt lat="44.98605" lon="5.74836">
        <ele>964</ele>
        <time>2022-07-16T06:50:02Z</time>
      </trkpt>
      <trkpt lat="44.98606" lon="5.74837">
        <ele>964</ele>
        <time>2022-07-16T06:51:42Z</time>
      </trkpt>
      <trkpt lat="44.98606" lon="5.74838">
        <ele>964</ele>
        <time>2022-07-16T06:51:43Z</time>
      </trkpt>
      <trkpt lat="44.98607" lon="5.74839">
        <ele>964</ele>
        <time>2022-07-16T06:51:44Z</time>
      </trkpt>
      <trkpt lat="44.98606" lon="5.74844">
        <ele>963.9</ele>
        <time>2022-07-16T06:51:45Z</time>
      </trkpt>
      <trkpt lat="44.98604" lon="5.74849">
        <ele>963.9</ele>
        <time>2022-07-16T06:51:46Z</time>
      </trkpt>
      <trkpt lat="44.98602" lon="5.74854">
        <ele>963.7</ele>
        <time>2022-07-16T06:51:47Z</time>
      </trkpt>
      <trkpt lat="44.98599" lon="5.7486">
        <ele>963.5</ele>
        <time>2022-07-16T06:51:48Z</time>
      </trkpt>
      <trkpt lat="44.98596" lon="5.74866">
        <ele>963.3</ele>
        <time>2022-07-16T06:51:49Z</time>
      </trkpt>
      <trkpt lat="44.98594" lon="5.74874">
        <ele>963.1</ele>
        <time>2022-07-16T06:51:50Z</time>
      </trkpt>
      <trkpt lat="44.98591" lon="5.74881">
        <ele>962.8</ele>
        <time>2022-07-16T06:51:51Z</time>
      </trkpt>
      <trkpt lat="44.98589" lon="5.7489">
        <ele>962.5</ele>
        <time>2022-07-16T06:51:52Z</time>
      </trkpt>
      <trkpt lat="44.98589" lon="5.74899">
        <ele>962.2</ele>
        <time>2022-07-16T06:51:53Z</time>
      </trkpt>
      <trkpt lat="44.98588" lon="5.74908">
        <ele>961.8</ele>
        <time>2022-07-16T06:51:54Z</time>
      </trkpt>
      <trkpt lat="44.98588" lon="5.74916">
        <ele>961.5</ele>
        <time>2022-07-16T06:51:55Z</time>
      </trkpt>
      <trkpt lat="44.98589" lon="5.74924">
        <ele>961.3</ele>
        <time>2022-07-16T06:51:56Z</time>
      </trkpt>
      <trkpt lat="44.98589" lon="5.74932">
        <ele>961.1</ele>
        <time>2022-07-16T06:51:57Z</time>
      </trkpt>
      <trkpt lat="44.9859" lon="5.7494">
        <ele>960.9</ele>
        <time>2022-07-16T06:51:58Z</time>
      </trkpt>
      <trkpt lat="44.9859" lon="5.74947">
        <ele>960.8</ele>
        <time>2022-07-16T06:51:59Z</time>
      </trkpt>
      <trkpt lat="44.98591" lon="5.74953">
        <ele>960.6</ele>
        <time>2022-07-16T06:52:00Z</time>
      </trkpt>
      <trkpt lat="44.98591" lon="5.7496">
        <ele>960.4</ele>
        <time>2022-07-16T06:52:01Z</time>
      </trkpt>
      <trkpt lat="44.98592" lon="5.74967">
        <ele>960.3</ele>
        <time>2022-07-16T06:52:02Z</time>
      </trkpt>
      <trkpt lat="44.98595" lon="5.74974">
        <ele>960</ele>
        <time>2022-07-16T06:52:03Z</time>
      </trkpt>
      <trkpt lat="44.98599" lon="5.74979">
        <ele>959.8</ele>
        <time>2022-07-16T06:52:04Z</time>
      </trkpt>
      <trkpt lat="44.98603" lon="5.74984">
        <ele>959.5</ele>
        <time>2022-07-16T06:52:05Z</time>
      </trkpt>
      <trkpt lat="44.98606" lon="5.74992">
        <ele>959.2</ele>
        <time>2022-07-16T06:52:06Z</time>
      </trkpt>
      <trkpt lat="44.9861" lon="5.74998">
        <ele>958.9</ele>
        <time>2022-07-16T06:52:07Z</time>
      </trkpt>
      <trkpt lat="44.98614" lon="5.75006">
        <ele>958.5</ele>
        <time>2022-07-16T06:52:08Z</time>
      </trkpt>
      <trkpt lat="44.98617" lon="5.75014">
        <ele>958.1</ele>
        <time>2022-07-16T06:52:09Z</time>
      </trkpt>
      <trkpt lat="44.9862" lon="5.75022">
        <ele>957.8</ele>
        <time>2022-07-16T06:52:10Z</time>
      </trkpt>
      <trkpt lat="44.98625" lon="5.7503">
        <ele>957.4</ele>
        <time>2022-07-16T06:52:11Z</time>
      </trkpt>
      <trkpt lat="44.9863" lon="5.75037">
        <ele>957</ele>
        <time>2022-07-16T06:52:12Z</time>
      </trkpt>
      <trkpt lat="44.98635" lon="5.75044">
        <ele>956.6</ele>
        <time>2022-07-16T06:52:13Z</time>
      </trkpt>
      <trkpt lat="44.98641" lon="5.75052">
        <ele>956.2</ele>
        <time>2022-07-16T06:52:14Z</time>
      </trkpt>
      <trkpt lat="44.98648" lon="5.75059">
        <ele>955.8</ele>
        <time>2022-07-16T06:52:15Z</time>
      </trkpt>
      <trkpt lat="44.98654" lon="5.75066">
        <ele>955.5</ele>
        <time>2022-07-16T06:52:16Z</time>
      </trkpt>
      <trkpt lat="44.9866" lon="5.75074">
        <ele>955.1</ele>
        <time>2022-07-16T06:52:17Z</time>
      </trkpt>
      <trkpt lat="44.98667" lon="5.75081">
        <ele>954.8</ele>
        <time>2022-07-16T06:52:18Z</time>
      </trkpt>
      <trkpt lat="44.98673" lon="5.75089">
        <ele>954.5</ele>
        <time>2022-07-16T06:52:19Z</time>
      </trkpt>
      <trkpt lat="44.98679" lon="5.75096">
        <ele>954.2</ele>
        <time>2022-07-16T06:52:20Z</time>
      </trkpt>
      <trkpt lat="44.98685" lon="5.75103">
        <ele>953.9</ele>
        <time>2022-07-16T06:52:21Z</time>
      </trkpt>
      <trkpt lat="44.98691" lon="5.75111">
        <ele>953.6</ele>
        <time>2022-07-16T06:52:22Z</time>
      </trkpt>
      <trkpt lat="44.98698" lon="5.75118">
        <ele>953.3</ele>
        <time>2022-07-16T06:52:23Z</time>
      </trkpt>
      <trkpt lat="44.98704" lon="5.75126">
        <ele>953</ele>
        <time>2022-07-16T06:52:24Z</time>
      </trkpt>
      <trkpt lat="44.98711" lon="5.75134">
        <ele>952.8</ele>
        <time>2022-07-16T06:52:25Z</time>
      </trkpt>
      <trkpt lat="44.98717" lon="5.75142">
        <ele>952.5</ele>
        <time>2022-07-16T06:52:26Z</time>
      </trkpt>
      <trkpt lat="44.98723" lon="5.75151">
        <ele>952.2</ele>
        <time>2022-07-16T06:52:27Z</time>
      </trkpt>
      <trkpt lat="44.98728" lon="5.75161">
        <ele>952</ele>
        <time>2022-07-16T06:52:28Z</time>
      </trkpt>
      <trkpt lat="44.98732" lon="5.75173">
        <ele>951.8</ele>
        <time>2022-07-16T06:52:29Z</time>
      </trkpt>
      <trkpt lat="44.98734" lon="5.75186">
        <ele>951.7</ele>
        <time>2022-07-16T06:52:30Z</time>
      </trkpt>
      <trkpt lat="44.98736" lon="5.75199">
        <ele>951.6</ele>
        <time>2022-07-16T06:52:31Z</time>
      </trkpt>
      <trkpt lat="44.98735" lon="5.75211">
        <ele>951.6</ele>
        <time>2022-07-16T06:52:32Z</time>
      </trkpt>
      <trkpt lat="44.98732" lon="5.75222">
        <ele>951.5</ele>
        <time>2022-07-16T06:52:33Z</time>
      </trkpt>
      <trkpt lat="44.98726" lon="5.75231">
        <ele>951.4</ele>
        <time>2022-07-16T06:52:34Z</time>
      </trkpt>
      <trkpt lat="44.98719" lon="5.75236">
        <ele>951.3</ele>
        <time>2022-07-16T06:52:35Z</time>
      </trkpt>
      <trkpt lat="44.98712" lon="5.75237">
        <ele>951.2</ele>
        <time>2022-07-16T06:52:36Z</time>
      </trkpt>
      <trkpt lat="44.98704" lon="5.75235">
        <ele>951.1</ele>
        <time>2022-07-16T06:52:37Z</time>
      </trkpt>
      <trkpt lat="44.98698" lon="5.75233">
        <ele>951</ele>
        <time>2022-07-16T06:52:38Z</time>
      </trkpt>
      <trkpt lat="44.98692" lon="5.75229">
        <ele>951</ele>
        <time>2022-07-16T06:52:39Z</time>
      </trkpt>
      <trkpt lat="44.98687" lon="5.75226">
        <ele>950.9</ele>
        <time>2022-07-16T06:52:40Z</time>
      </trkpt>
      <trkpt lat="44.98681" lon="5.75223">
        <ele>950.9</ele>
        <time>2022-07-16T06:52:41Z</time>
      </trkpt>
      <trkpt lat="44.98675" lon="5.7522">
        <ele>951</ele>
        <time>2022-07-16T06:52:42Z</time>
      </trkpt>
      <trkpt lat="44.9867" lon="5.75217">
        <ele>951</ele>
        <time>2022-07-16T06:52:43Z</time>
      </trkpt>
      <trkpt lat="44.98664" lon="5.75215">
        <ele>951</ele>
        <time>2022-07-16T06:52:44Z</time>
      </trkpt>
      <trkpt lat="44.98659" lon="5.75212">
        <ele>951</ele>
        <time>2022-07-16T06:52:45Z</time>
      </trkpt>
      <trkpt lat="44.98654" lon="5.75209">
        <ele>951</ele>
        <time>2022-07-16T06:52:46Z</time>
      </trkpt>
      <trkpt lat="44.98649" lon="5.75206">
        <ele>951</ele>
        <time>2022-07-16T06:52:47Z</time>
      </trkpt>
      <trkpt lat="44.98644" lon="5.75204">
        <ele>950.9</ele>
        <time>2022-07-16T06:52:48Z</time>
      </trkpt>
      <trkpt lat="44.98638" lon="5.752">
        <ele>950.9</ele>
        <time>2022-07-16T06:52:49Z</time>
      </trkpt>
      <trkpt lat="44.98632" lon="5.75197">
        <ele>950.9</ele>
        <time>2022-07-16T06:52:50Z</time>
      </trkpt>
      <trkpt lat="44.98626" lon="5.75194">
        <ele>950.9</ele>
        <time>2022-07-16T06:52:51Z</time>
      </trkpt>
      <trkpt lat="44.9862" lon="5.7519">
        <ele>950.9</ele>
        <time>2022-07-16T06:52:52Z</time>
      </trkpt>
      <trkpt lat="44.98614" lon="5.75187">
        <ele>950.9</ele>
        <time>2022-07-16T06:52:53Z</time>
      </trkpt>
      <trkpt lat="44.98608" lon="5.75184">
        <ele>950.9</ele>
        <time>2022-07-16T06:52:54Z</time>
      </trkpt>
      <trkpt lat="44.98603" lon="5.75181">
        <ele>950.9</ele>
        <time>2022-07-16T06:52:55Z</time>
      </trkpt>
      <trkpt lat="44.98597" lon="5.75178">
        <ele>950.9</ele>
        <time>2022-07-16T06:52:56Z</time>
      </trkpt>
      <trkpt lat="44.98591" lon="5.75174">
        <ele>950.9</ele>
        <time>2022-07-16T06:52:57Z</time>
      </trkpt>
      <trkpt lat="44.98586" lon="5.7517">
        <ele>950.9</ele>
        <time>2022-07-16T06:52:58Z</time>
      </trkpt>
      <trkpt lat="44.9858" lon="5.75167">
        <ele>951</ele>
        <time>2022-07-16T06:52:59Z</time>
      </trkpt>
      <trkpt lat="44.98574" lon="5.75162">
        <ele>951</ele>
        <time>2022-07-16T06:53:00Z</time>
      </trkpt>
      <trkpt lat="44.98568" lon="5.75158">
        <ele>951.1</ele>
        <time>2022-07-16T06:53:01Z</time>
      </trkpt>
      <trkpt lat="44.98562" lon="5.75155">
        <ele>951.2</ele>
        <time>2022-07-16T06:53:02Z</time>
      </trkpt>
      <trkpt lat="44.98556" lon="5.75152">
        <ele>951.3</ele>
        <time>2022-07-16T06:53:03Z</time>
      </trkpt>
      <trkpt lat="44.98551" lon="5.75151">
        <ele>951.4</ele>
        <time>2022-07-16T06:53:04Z</time>
      </trkpt>
      <trkpt lat="44.98547" lon="5.75149">
        <ele>951.5</ele>
        <time>2022-07-16T06:53:05Z</time>
      </trkpt>
      <trkpt lat="44.98543" lon="5.75148">
        <ele>951.5</ele>
        <time>2022-07-16T06:53:06Z</time>
      </trkpt>
      <trkpt lat="44.98541" lon="5.75147">
        <ele>951.6</ele>
        <time>2022-07-16T06:53:07Z</time>
      </trkpt>
      <trkpt lat="44.98535" lon="5.75144">
        <ele>951.7</ele>
        <time>2022-07-16T06:53:08Z</time>
      </trkpt>
      <trkpt lat="44.98529" lon="5.7514">
        <ele>951.8</ele>
        <time>2022-07-16T06:53:09Z</time>
      </trkpt>
      <trkpt lat="44.98523" lon="5.75137">
        <ele>951.9</ele>
        <time>2022-07-16T06:53:10Z</time>
      </trkpt>
      <trkpt lat="44.98517" lon="5.75133">
        <ele>951.9</ele>
        <time>2022-07-16T06:53:11Z</time>
      </trkpt>
      <trkpt lat="44.98512" lon="5.75131">
        <ele>952</ele>
        <time>2022-07-16T06:53:12Z</time>
      </trkpt>
      <trkpt lat="44.98506" lon="5.75128">
        <ele>952</ele>
        <time>2022-07-16T06:53:13Z</time>
      </trkpt>
      <trkpt lat="44.98502" lon="5.75125">
        <ele>952.1</ele>
        <time>2022-07-16T06:53:14Z</time>
      </trkpt>
      <trkpt lat="44.98498" lon="5.75126">
        <ele>952.2</ele>
        <time>2022-07-16T06:53:15Z</time>
      </trkpt>
      <trkpt lat="44.98493" lon="5.75124">
        <ele>952.4</ele>
        <time>2022-07-16T06:53:16Z</time>
      </trkpt>
      <trkpt lat="44.98487" lon="5.7512">
        <ele>952.6</ele>
        <time>2022-07-16T06:53:17Z</time>
      </trkpt>
      <trkpt lat="44.98483" lon="5.75117">
        <ele>952.8</ele>
        <time>2022-07-16T06:53:18Z</time>
      </trkpt>
      <trkpt lat="44.98478" lon="5.75115">
        <ele>953</ele>
        <time>2022-07-16T06:53:19Z</time>
      </trkpt>
      <trkpt lat="44.98474" lon="5.75113">
        <ele>953.2</ele>
        <time>2022-07-16T06:53:20Z</time>
      </trkpt>
      <trkpt lat="44.98472" lon="5.75113">
        <ele>953.3</ele>
        <time>2022-07-16T06:53:21Z</time>
      </trkpt>
      <trkpt lat="44.98467" lon="5.7511">
        <ele>953.6</ele>
        <time>2022-07-16T06:53:22Z</time>
      </trkpt>
      <trkpt lat="44.98464" lon="5.75108">
        <ele>953.8</ele>
        <time>2022-07-16T06:53:23Z</time>
      </trkpt>
      <trkpt lat="44.98453" lon="5.75102">
        <ele>954.5</ele>
        <time>2022-07-16T06:53:24Z</time>
      </trkpt>
      <trkpt lat="44.98452" lon="5.75094">
        <ele>954.8</ele>
        <time>2022-07-16T06:53:26Z</time>
      </trkpt>
      <trkpt lat="44.98447" lon="5.75097">
        <ele>955.1</ele>
        <time>2022-07-16T06:53:27Z</time>
      </trkpt>
      <trkpt lat="44.9844" lon="5.75094">
        <ele>955.5</ele>
        <time>2022-07-16T06:53:28Z</time>
      </trkpt>
      <trkpt lat="44.98431" lon="5.75091">
        <ele>956.1</ele>
        <time>2022-07-16T06:53:29Z</time>
      </trkpt>
      <trkpt lat="44.98427" lon="5.7509">
        <ele>956.3</ele>
        <time>2022-07-16T06:53:31Z</time>
      </trkpt>
      <trkpt lat="44.98423" lon="5.75086">
        <ele>956.6</ele>
        <time>2022-07-16T06:53:32Z</time>
      </trkpt>
      <trkpt lat="44.98413" lon="5.75081">
        <ele>957.1</ele>
        <time>2022-07-16T06:53:33Z</time>
      </trkpt>
      <trkpt lat="44.98413" lon="5.75086">
        <ele>957.3</ele>
        <time>2022-07-16T06:53:34Z</time>
      </trkpt>
      <trkpt lat="44.98407" lon="5.75082">
        <ele>957.6</ele>
        <time>2022-07-16T06:53:35Z</time>
      </trkpt>
      <trkpt lat="44.98401" lon="5.75079">
        <ele>957.8</ele>
        <time>2022-07-16T06:53:36Z</time>
      </trkpt>
      <trkpt lat="44.98396" lon="5.75078">
        <ele>958</ele>
        <time>2022-07-16T06:53:38Z</time>
      </trkpt>
      <trkpt lat="44.98391" lon="5.75076">
        <ele>958.2</ele>
        <time>2022-07-16T06:53:39Z</time>
      </trkpt>
      <trkpt lat="44.98387" lon="5.75078">
        <ele>958.3</ele>
        <time>2022-07-16T06:53:40Z</time>
      </trkpt>
      <trkpt lat="44.98384" lon="5.75077">
        <ele>958.4</ele>
        <time>2022-07-16T06:53:41Z</time>
      </trkpt>
      <trkpt lat="44.98375" lon="5.75075">
        <ele>958.7</ele>
        <time>2022-07-16T06:53:42Z</time>
      </trkpt>
      <trkpt lat="44.9837" lon="5.75075">
        <ele>958.8</ele>
        <time>2022-07-16T06:53:43Z</time>
      </trkpt>
      <trkpt lat="44.98365" lon="5.75075">
        <ele>959</ele>
        <time>2022-07-16T06:53:45Z</time>
      </trkpt>
      <trkpt lat="44.98361" lon="5.75074">
        <ele>959</ele>
        <time>2022-07-16T06:53:46Z</time>
      </trkpt>
      <trkpt lat="44.98357" lon="5.75074">
        <ele>959.1</ele>
        <time>2022-07-16T06:53:47Z</time>
      </trkpt>
      <trkpt lat="44.9835" lon="5.75072">
        <ele>959.2</ele>
        <time>2022-07-16T06:53:48Z</time>
      </trkpt>
      <trkpt lat="44.98345" lon="5.75071">
        <ele>959.2</ele>
        <time>2022-07-16T06:53:50Z</time>
      </trkpt>
      <trkpt lat="44.98331" lon="5.75067">
        <ele>959.1</ele>
        <time>2022-07-16T06:53:53Z</time>
      </trkpt>
      <trkpt lat="44.98326" lon="5.75067">
        <ele>959</ele>
        <time>2022-07-16T06:53:54Z</time>
      </trkpt>
      <trkpt lat="44.98321" lon="5.75067">
        <ele>959</ele>
        <time>2022-07-16T06:53:55Z</time>
      </trkpt>
      <trkpt lat="44.98315" lon="5.75066">
        <ele>958.9</ele>
        <time>2022-07-16T06:53:56Z</time>
      </trkpt>
      <trkpt lat="44.9831" lon="5.75066">
        <ele>958.9</ele>
        <time>2022-07-16T06:53:57Z</time>
      </trkpt>
      <trkpt lat="44.98304" lon="5.75065">
        <ele>958.8</ele>
        <time>2022-07-16T06:53:58Z</time>
      </trkpt>
      <trkpt lat="44.98298" lon="5.75063">
        <ele>958.8</ele>
        <time>2022-07-16T06:53:59Z</time>
      </trkpt>
      <trkpt lat="44.98291" lon="5.75061">
        <ele>958.7</ele>
        <time>2022-07-16T06:54:00Z</time>
      </trkpt>
      <trkpt lat="44.98286" lon="5.7506">
        <ele>958.7</ele>
        <time>2022-07-16T06:54:01Z</time>
      </trkpt>
      <trkpt lat="44.9828" lon="5.75058">
        <ele>958.7</ele>
        <time>2022-07-16T06:54:02Z</time>
      </trkpt>
      <trkpt lat="44.98275" lon="5.75057">
        <ele>958.7</ele>
        <time>2022-07-16T06:54:03Z</time>
      </trkpt>
      <trkpt lat="44.98269" lon="5.75056">
        <ele>958.7</ele>
        <time>2022-07-16T06:54:04Z</time>
      </trkpt>
      <trkpt lat="44.98263" lon="5.75054">
        <ele>958.7</ele>
        <time>2022-07-16T06:54:05Z</time>
      </trkpt>
      <trkpt lat="44.98258" lon="5.75051">
        <ele>958.7</ele>
        <time>2022-07-16T06:54:06Z</time>
      </trkpt>
      <trkpt lat="44.98253" lon="5.75048">
        <ele>958.7</ele>
        <time>2022-07-16T06:54:07Z</time>
      </trkpt>
      <trkpt lat="44.98248" lon="5.75044">
        <ele>958.7</ele>
        <time>2022-07-16T06:54:08Z</time>
      </trkpt>
      <trkpt lat="44.98243" lon="5.7504">
        <ele>958.8</ele>
        <time>2022-07-16T06:54:09Z</time>
      </trkpt>
      <trkpt lat="44.98238" lon="5.75037">
        <ele>958.8</ele>
        <time>2022-07-16T06:54:10Z</time>
      </trkpt>
      <trkpt lat="44.98234" lon="5.75034">
        <ele>958.8</ele>
        <time>2022-07-16T06:54:11Z</time>
      </trkpt>
      <trkpt lat="44.9823" lon="5.75031">
        <ele>958.9</ele>
        <time>2022-07-16T06:54:12Z</time>
      </trkpt>
      <trkpt lat="44.98225" lon="5.75028">
        <ele>958.9</ele>
        <time>2022-07-16T06:54:13Z</time>
      </trkpt>
      <trkpt lat="44.9822" lon="5.75025">
        <ele>958.9</ele>
        <time>2022-07-16T06:54:14Z</time>
      </trkpt>
      <trkpt lat="44.98215" lon="5.75021">
        <ele>959</ele>
        <time>2022-07-16T06:54:15Z</time>
      </trkpt>
      <trkpt lat="44.9821" lon="5.75018">
        <ele>959</ele>
        <time>2022-07-16T06:54:16Z</time>
      </trkpt>
      <trkpt lat="44.98205" lon="5.75015">
        <ele>959</ele>
        <time>2022-07-16T06:54:17Z</time>
      </trkpt>
      <trkpt lat="44.982" lon="5.75013">
        <ele>959.1</ele>
        <time>2022-07-16T06:54:18Z</time>
      </trkpt>
      <trkpt lat="44.98195" lon="5.7501">
        <ele>959.1</ele>
        <time>2022-07-16T06:54:19Z</time>
      </trkpt>
      <trkpt lat="44.9819" lon="5.75008">
        <ele>959.1</ele>
        <time>2022-07-16T06:54:20Z</time>
      </trkpt>
      <trkpt lat="44.98185" lon="5.75006">
        <ele>959.2</ele>
        <time>2022-07-16T06:54:21Z</time>
      </trkpt>
      <trkpt lat="44.98179" lon="5.75003">
        <ele>959.2</ele>
        <time>2022-07-16T06:54:22Z</time>
      </trkpt>
      <trkpt lat="44.98174" lon="5.75002">
        <ele>959.3</ele>
        <time>2022-07-16T06:54:23Z</time>
      </trkpt>
      <trkpt lat="44.98169" lon="5.75">
        <ele>959.3</ele>
        <time>2022-07-16T06:54:24Z</time>
      </trkpt>
      <trkpt lat="44.98163" lon="5.74999">
        <ele>959.4</ele>
        <time>2022-07-16T06:54:25Z</time>
      </trkpt>
      <trkpt lat="44.98157" lon="5.74998">
        <ele>959.4</ele>
        <time>2022-07-16T06:54:26Z</time>
      </trkpt>
      <trkpt lat="44.98151" lon="5.74997">
        <ele>959.5</ele>
        <time>2022-07-16T06:54:27Z</time>
      </trkpt>
      <trkpt lat="44.98146" lon="5.74996">
        <ele>959.5</ele>
        <time>2022-07-16T06:54:28Z</time>
      </trkpt>
      <trkpt lat="44.98141" lon="5.74996">
        <ele>959.6</ele>
        <time>2022-07-16T06:54:29Z</time>
      </trkpt>
      <trkpt lat="44.98135" lon="5.74995">
        <ele>959.7</ele>
        <time>2022-07-16T06:54:30Z</time>
      </trkpt>
      <trkpt lat="44.98129" lon="5.74994">
        <ele>959.8</ele>
        <time>2022-07-16T06:54:31Z</time>
      </trkpt>
      <trkpt lat="44.98124" lon="5.74992">
        <ele>959.9</ele>
        <time>2022-07-16T06:54:32Z</time>
      </trkpt>
      <trkpt lat="44.98118" lon="5.74991">
        <ele>960</ele>
        <time>2022-07-16T06:54:33Z</time>
      </trkpt>
      <trkpt lat="44.98112" lon="5.74988">
        <ele>960.1</ele>
        <time>2022-07-16T06:54:34Z</time>
      </trkpt>
      <trkpt lat="44.98107" lon="5.74988">
        <ele>960.2</ele>
        <time>2022-07-16T06:54:35Z</time>
      </trkpt>
      <trkpt lat="44.98102" lon="5.74987">
        <ele>960.3</ele>
        <time>2022-07-16T06:54:36Z</time>
      </trkpt>
      <trkpt lat="44.98096" lon="5.74985">
        <ele>960.5</ele>
        <time>2022-07-16T06:54:37Z</time>
      </trkpt>
      <trkpt lat="44.98091" lon="5.74982">
        <ele>960.6</ele>
        <time>2022-07-16T06:54:38Z</time>
      </trkpt>
      <trkpt lat="44.98085" lon="5.74979">
        <ele>960.8</ele>
        <time>2022-07-16T06:54:39Z</time>
      </trkpt>
      <trkpt lat="44.98081" lon="5.74977">
        <ele>960.9</ele>
        <time>2022-07-16T06:54:40Z</time>
      </trkpt>
      <trkpt lat="44.98076" lon="5.74975">
        <ele>961</ele>
        <time>2022-07-16T06:54:41Z</time>
      </trkpt>
      <trkpt lat="44.98071" lon="5.74972">
        <ele>961.2</ele>
        <time>2022-07-16T06:54:42Z</time>
      </trkpt>
      <trkpt lat="44.98066" lon="5.7497">
        <ele>961.3</ele>
        <time>2022-07-16T06:54:43Z</time>
      </trkpt>
      <trkpt lat="44.98062" lon="5.74966">
        <ele>961.4</ele>
        <time>2022-07-16T06:54:44Z</time>
      </trkpt>
      <trkpt lat="44.98057" lon="5.74963">
        <ele>961.5</ele>
        <time>2022-07-16T06:54:45Z</time>
      </trkpt>
      <trkpt lat="44.98053" lon="5.74959">
        <ele>961.6</ele>
        <time>2022-07-16T06:54:46Z</time>
      </trkpt>
      <trkpt lat="44.98047" lon="5.74956">
        <ele>961.8</ele>
        <time>2022-07-16T06:54:47Z</time>
      </trkpt>
      <trkpt lat="44.98042" lon="5.74952">
        <ele>961.9</ele>
        <time>2022-07-16T06:54:48Z</time>
      </trkpt>
      <trkpt lat="44.98037" lon="5.74948">
        <ele>962.1</ele>
        <time>2022-07-16T06:54:49Z</time>
      </trkpt>
      <trkpt lat="44.98032" lon="5.74944">
        <ele>962.2</ele>
        <time>2022-07-16T06:54:50Z</time>
      </trkpt>
      <trkpt lat="44.98027" lon="5.74941">
        <ele>962.4</ele>
        <time>2022-07-16T06:54:51Z</time>
      </trkpt>
      <trkpt lat="44.98021" lon="5.74937">
        <ele>962.5</ele>
        <time>2022-07-16T06:54:52Z</time>
      </trkpt>
      <trkpt lat="44.98016" lon="5.74934">
        <ele>962.6</ele>
        <time>2022-07-16T06:54:53Z</time>
      </trkpt>
      <trkpt lat="44.98011" lon="5.7493">
        <ele>962.8</ele>
        <time>2022-07-16T06:54:54Z</time>
      </trkpt>
      <trkpt lat="44.98006" lon="5.74926">
        <ele>962.9</ele>
        <time>2022-07-16T06:54:55Z</time>
      </trkpt>
      <trkpt lat="44.98001" lon="5.74922">
        <ele>963</ele>
        <time>2022-07-16T06:54:56Z</time>
      </trkpt>
      <trkpt lat="44.97997" lon="5.74918">
        <ele>963.1</ele>
        <time>2022-07-16T06:54:57Z</time>
      </trkpt>
      <trkpt lat="44.97992" lon="5.74914">
        <ele>963.2</ele>
        <time>2022-07-16T06:54:58Z</time>
      </trkpt>
      <trkpt lat="44.97987" lon="5.7491">
        <ele>963.3</ele>
        <time>2022-07-16T06:54:59Z</time>
      </trkpt>
      <trkpt lat="44.97983" lon="5.74907">
        <ele>963.3</ele>
        <time>2022-07-16T06:55:00Z</time>
      </trkpt>
      <trkpt lat="44.97978" lon="5.74903">
        <ele>963.4</ele>
        <time>2022-07-16T06:55:01Z</time>
      </trkpt>
      <trkpt lat="44.97973" lon="5.749">
        <ele>963.5</ele>
        <time>2022-07-16T06:55:02Z</time>
      </trkpt>
      <trkpt lat="44.97968" lon="5.74896">
        <ele>963.6</ele>
        <time>2022-07-16T06:55:03Z</time>
      </trkpt>
      <trkpt lat="44.97963" lon="5.74893">
        <ele>963.7</ele>
        <time>2022-07-16T06:55:04Z</time>
      </trkpt>
      <trkpt lat="44.97958" lon="5.74889">
        <ele>963.8</ele>
        <time>2022-07-16T06:55:05Z</time>
      </trkpt>
      <trkpt lat="44.97953" lon="5.74886">
        <ele>963.9</ele>
        <time>2022-07-16T06:55:06Z</time>
      </trkpt>
      <trkpt lat="44.97948" lon="5.74883">
        <ele>964</ele>
        <time>2022-07-16T06:55:07Z</time>
      </trkpt>
      <trkpt lat="44.97943" lon="5.7488">
        <ele>964.1</ele>
        <time>2022-07-16T06:55:08Z</time>
      </trkpt>
      <trkpt lat="44.97938" lon="5.74878">
        <ele>964.2</ele>
        <time>2022-07-16T06:55:09Z</time>
      </trkpt>
      <trkpt lat="44.97933" lon="5.74875">
        <ele>964.3</ele>
        <time>2022-07-16T06:55:10Z</time>
      </trkpt>
      <trkpt lat="44.97928" lon="5.7487">
        <ele>964.4</ele>
        <time>2022-07-16T06:55:11Z</time>
      </trkpt>
      <trkpt lat="44.97924" lon="5.74867">
        <ele>964.6</ele>
        <time>2022-07-16T06:55:12Z</time>
      </trkpt>
      <trkpt lat="44.97919" lon="5.74863">
        <ele>964.7</ele>
        <time>2022-07-16T06:55:13Z</time>
      </trkpt>
      <trkpt lat="44.97914" lon="5.74859">
        <ele>964.8</ele>
        <time>2022-07-16T06:55:14Z</time>
      </trkpt>
      <trkpt lat="44.97909" lon="5.74855">
        <ele>964.9</ele>
        <time>2022-07-16T06:55:15Z</time>
      </trkpt>
      <trkpt lat="44.97904" lon="5.74851">
        <ele>965</ele>
        <time>2022-07-16T06:55:16Z</time>
      </trkpt>
      <trkpt lat="44.979" lon="5.74846">
        <ele>965.1</ele>
        <time>2022-07-16T06:55:17Z</time>
      </trkpt>
      <trkpt lat="44.97895" lon="5.74841">
        <ele>965.2</ele>
        <time>2022-07-16T06:55:18Z</time>
      </trkpt>
      <trkpt lat="44.9789" lon="5.74835">
        <ele>965.4</ele>
        <time>2022-07-16T06:55:19Z</time>
      </trkpt>
      <trkpt lat="44.97885" lon="5.74831">
        <ele>965.5</ele>
        <time>2022-07-16T06:55:20Z</time>
      </trkpt>
      <trkpt lat="44.97881" lon="5.74827">
        <ele>965.6</ele>
        <time>2022-07-16T06:55:21Z</time>
      </trkpt>
      <trkpt lat="44.97876" lon="5.74821">
        <ele>965.7</ele>
        <time>2022-07-16T06:55:22Z</time>
      </trkpt>
      <trkpt lat="44.97872" lon="5.74818">
        <ele>965.8</ele>
        <time>2022-07-16T06:55:23Z</time>
      </trkpt>
      <trkpt lat="44.97868" lon="5.74814">
        <ele>965.8</ele>
        <time>2022-07-16T06:55:24Z</time>
      </trkpt>
      <trkpt lat="44.97863" lon="5.7481">
        <ele>965.9</ele>
        <time>2022-07-16T06:55:25Z</time>
      </trkpt>
      <trkpt lat="44.97859" lon="5.74806">
        <ele>966</ele>
        <time>2022-07-16T06:55:26Z</time>
      </trkpt>
      <trkpt lat="44.97855" lon="5.74801">
        <ele>966</ele>
        <time>2022-07-16T06:55:27Z</time>
      </trkpt>
      <trkpt lat="44.97851" lon="5.74795">
        <ele>966</ele>
        <time>2022-07-16T06:55:28Z</time>
      </trkpt>
      <trkpt lat="44.97847" lon="5.74788">
        <ele>966.1</ele>
        <time>2022-07-16T06:55:29Z</time>
      </trkpt>
      <trkpt lat="44.97845" lon="5.74779">
        <ele>966.1</ele>
        <time>2022-07-16T06:55:30Z</time>
      </trkpt>
      <trkpt lat="44.97844" lon="5.74772">
        <ele>966.1</ele>
        <time>2022-07-16T06:55:31Z</time>
      </trkpt>
      <trkpt lat="44.97843" lon="5.74764">
        <ele>966.1</ele>
        <time>2022-07-16T06:55:32Z</time>
      </trkpt>
      <trkpt lat="44.97843" lon="5.74756">
        <ele>966.1</ele>
        <time>2022-07-16T06:55:33Z</time>
      </trkpt>
      <trkpt lat="44.97842" lon="5.74748">
        <ele>966.1</ele>
        <time>2022-07-16T06:55:34Z</time>
      </trkpt>
      <trkpt lat="44.97842" lon="5.7474">
        <ele>966.1</ele>
        <time>2022-07-16T06:55:35Z</time>
      </trkpt>
      <trkpt lat="44.97842" lon="5.74732">
        <ele>966.1</ele>
        <time>2022-07-16T06:55:36Z</time>
      </trkpt>
      <trkpt lat="44.97841" lon="5.74724">
        <ele>966.1</ele>
        <time>2022-07-16T06:55:37Z</time>
      </trkpt>
      <trkpt lat="44.97841" lon="5.74715">
        <ele>966.2</ele>
        <time>2022-07-16T06:55:38Z</time>
      </trkpt>
      <trkpt lat="44.9784" lon="5.74707">
        <ele>966.2</ele>
        <time>2022-07-16T06:55:39Z</time>
      </trkpt>
      <trkpt lat="44.97839" lon="5.74698">
        <ele>966.3</ele>
        <time>2022-07-16T06:55:40Z</time>
      </trkpt>
      <trkpt lat="44.97838" lon="5.74688">
        <ele>966.3</ele>
        <time>2022-07-16T06:55:41Z</time>
      </trkpt>
      <trkpt lat="44.97837" lon="5.74679">
        <ele>966.4</ele>
        <time>2022-07-16T06:55:42Z</time>
      </trkpt>
      <trkpt lat="44.97836" lon="5.74671">
        <ele>966.4</ele>
        <time>2022-07-16T06:55:43Z</time>
      </trkpt>
      <trkpt lat="44.97835" lon="5.74664">
        <ele>966.4</ele>
        <time>2022-07-16T06:55:44Z</time>
      </trkpt>
      <trkpt lat="44.97834" lon="5.74656">
        <ele>966.5</ele>
        <time>2022-07-16T06:55:45Z</time>
      </trkpt>
      <trkpt lat="44.97833" lon="5.74648">
        <ele>966.5</ele>
        <time>2022-07-16T06:55:46Z</time>
      </trkpt>
      <trkpt lat="44.97831" lon="5.74641">
        <ele>966.4</ele>
        <time>2022-07-16T06:55:47Z</time>
      </trkpt>
      <trkpt lat="44.97829" lon="5.74634">
        <ele>966.4</ele>
        <time>2022-07-16T06:55:48Z</time>
      </trkpt>
      <trkpt lat="44.97826" lon="5.74627">
        <ele>966.4</ele>
        <time>2022-07-16T06:55:49Z</time>
      </trkpt>
      <trkpt lat="44.97824" lon="5.7462">
        <ele>966.3</ele>
        <time>2022-07-16T06:55:50Z</time>
      </trkpt>
      <trkpt lat="44.97821" lon="5.74614">
        <ele>966.3</ele>
        <time>2022-07-16T06:55:51Z</time>
      </trkpt>
      <trkpt lat="44.97817" lon="5.74607">
        <ele>966.3</ele>
        <time>2022-07-16T06:55:52Z</time>
      </trkpt>
      <trkpt lat="44.97814" lon="5.746">
        <ele>966.2</ele>
        <time>2022-07-16T06:55:53Z</time>
      </trkpt>
      <trkpt lat="44.9781" lon="5.74594">
        <ele>966.2</ele>
        <time>2022-07-16T06:55:54Z</time>
      </trkpt>
      <trkpt lat="44.97807" lon="5.74588">
        <ele>966.1</ele>
        <time>2022-07-16T06:55:55Z</time>
      </trkpt>
      <trkpt lat="44.97803" lon="5.74582">
        <ele>966.1</ele>
        <time>2022-07-16T06:55:56Z</time>
      </trkpt>
      <trkpt lat="44.97799" lon="5.74576">
        <ele>966.1</ele>
        <time>2022-07-16T06:55:57Z</time>
      </trkpt>
      <trkpt lat="44.97794" lon="5.74571">
        <ele>966</ele>
        <time>2022-07-16T06:55:58Z</time>
      </trkpt>
      <trkpt lat="44.9779" lon="5.74567">
        <ele>966</ele>
        <time>2022-07-16T06:55:59Z</time>
      </trkpt>
      <trkpt lat="44.97785" lon="5.74562">
        <ele>966</ele>
        <time>2022-07-16T06:56:00Z</time>
      </trkpt>
      <trkpt lat="44.9778" lon="5.74558">
        <ele>965.9</ele>
        <time>2022-07-16T06:56:01Z</time>
      </trkpt>
      <trkpt lat="44.97775" lon="5.74553">
        <ele>965.9</ele>
        <time>2022-07-16T06:56:02Z</time>
      </trkpt>
      <trkpt lat="44.9777" lon="5.74547">
        <ele>965.8</ele>
        <time>2022-07-16T06:56:03Z</time>
      </trkpt>
      <trkpt lat="44.97764" lon="5.74541">
        <ele>965.7</ele>
        <time>2022-07-16T06:56:04Z</time>
      </trkpt>
      <trkpt lat="44.97759" lon="5.74536">
        <ele>965.7</ele>
        <time>2022-07-16T06:56:05Z</time>
      </trkpt>
      <trkpt lat="44.97754" lon="5.74531">
        <ele>965.6</ele>
        <time>2022-07-16T06:56:06Z</time>
      </trkpt>
      <trkpt lat="44.97748" lon="5.74526">
        <ele>965.6</ele>
        <time>2022-07-16T06:56:07Z</time>
      </trkpt>
      <trkpt lat="44.97743" lon="5.74521">
        <ele>965.6</ele>
        <time>2022-07-16T06:56:08Z</time>
      </trkpt>
      <trkpt lat="44.97738" lon="5.74516">
        <ele>965.5</ele>
        <time>2022-07-16T06:56:09Z</time>
      </trkpt>
      <trkpt lat="44.97733" lon="5.74511">
        <ele>965.5</ele>
        <time>2022-07-16T06:56:10Z</time>
      </trkpt>
      <trkpt lat="44.97728" lon="5.74505">
        <ele>965.5</ele>
        <time>2022-07-16T06:56:11Z</time>
      </trkpt>
      <trkpt lat="44.97723" lon="5.74499">
        <ele>965.5</ele>
        <time>2022-07-16T06:56:12Z</time>
      </trkpt>
      <trkpt lat="44.97718" lon="5.74494">
        <ele>965.5</ele>
        <time>2022-07-16T06:56:13Z</time>
      </trkpt>
      <trkpt lat="44.97713" lon="5.74489">
        <ele>965.4</ele>
        <time>2022-07-16T06:56:14Z</time>
      </trkpt>
      <trkpt lat="44.97708" lon="5.74483">
        <ele>965.4</ele>
        <time>2022-07-16T06:56:15Z</time>
      </trkpt>
      <trkpt lat="44.97703" lon="5.74477">
        <ele>965.4</ele>
        <time>2022-07-16T06:56:16Z</time>
      </trkpt>
      <trkpt lat="44.97699" lon="5.7447">
        <ele>965.4</ele>
        <time>2022-07-16T06:56:17Z</time>
      </trkpt>
      <trkpt lat="44.97694" lon="5.74463">
        <ele>965.3</ele>
        <time>2022-07-16T06:56:18Z</time>
      </trkpt>
      <trkpt lat="44.9769" lon="5.74456">
        <ele>965.3</ele>
        <time>2022-07-16T06:56:19Z</time>
      </trkpt>
      <trkpt lat="44.97686" lon="5.74449">
        <ele>965.3</ele>
        <time>2022-07-16T06:56:20Z</time>
      </trkpt>
      <trkpt lat="44.97683" lon="5.74441">
        <ele>965.2</ele>
        <time>2022-07-16T06:56:21Z</time>
      </trkpt>
      <trkpt lat="44.9768" lon="5.74432">
        <ele>965.1</ele>
        <time>2022-07-16T06:56:22Z</time>
      </trkpt>
      <trkpt lat="44.97676" lon="5.74424">
        <ele>965</ele>
        <time>2022-07-16T06:56:23Z</time>
      </trkpt>
      <trkpt lat="44.97673" lon="5.74415">
        <ele>964.9</ele>
        <time>2022-07-16T06:56:24Z</time>
      </trkpt>
      <trkpt lat="44.9767" lon="5.74405">
        <ele>964.9</ele>
        <time>2022-07-16T06:56:25Z</time>
      </trkpt>
      <trkpt lat="44.97668" lon="5.74395">
        <ele>964.8</ele>
        <time>2022-07-16T06:56:26Z</time>
      </trkpt>
      <trkpt lat="44.97666" lon="5.74387">
        <ele>964.7</ele>
        <time>2022-07-16T06:56:27Z</time>
      </trkpt>
      <trkpt lat="44.97663" lon="5.74378">
        <ele>964.7</ele>
        <time>2022-07-16T06:56:28Z</time>
      </trkpt>
      <trkpt lat="44.97661" lon="5.74368">
        <ele>964.6</ele>
        <time>2022-07-16T06:56:29Z</time>
      </trkpt>
      <trkpt lat="44.97659" lon="5.7436">
        <ele>964.5</ele>
        <time>2022-07-16T06:56:30Z</time>
      </trkpt>
      <trkpt lat="44.97657" lon="5.74351">
        <ele>964.5</ele>
        <time>2022-07-16T06:56:31Z</time>
      </trkpt>
      <trkpt lat="44.97654" lon="5.74341">
        <ele>964.4</ele>
        <time>2022-07-16T06:56:32Z</time>
      </trkpt>
      <trkpt lat="44.97653" lon="5.74331">
        <ele>964.4</ele>
        <time>2022-07-16T06:56:33Z</time>
      </trkpt>
      <trkpt lat="44.9765" lon="5.74322">
        <ele>964.4</ele>
        <time>2022-07-16T06:56:34Z</time>
      </trkpt>
      <trkpt lat="44.97647" lon="5.74313">
        <ele>964.4</ele>
        <time>2022-07-16T06:56:35Z</time>
      </trkpt>
      <trkpt lat="44.97644" lon="5.74305">
        <ele>964.4</ele>
        <time>2022-07-16T06:56:36Z</time>
      </trkpt>
      <trkpt lat="44.9764" lon="5.74296">
        <ele>964.3</ele>
        <time>2022-07-16T06:56:37Z</time>
      </trkpt>
      <trkpt lat="44.97637" lon="5.74288">
        <ele>964.3</ele>
        <time>2022-07-16T06:56:38Z</time>
      </trkpt>
      <trkpt lat="44.97634" lon="5.74279">
        <ele>964.2</ele>
        <time>2022-07-16T06:56:39Z</time>
      </trkpt>
      <trkpt lat="44.97631" lon="5.7427">
        <ele>964.1</ele>
        <time>2022-07-16T06:56:40Z</time>
      </trkpt>
      <trkpt lat="44.97627" lon="5.74262">
        <ele>964.1</ele>
        <time>2022-07-16T06:56:41Z</time>
      </trkpt>
      <trkpt lat="44.97625" lon="5.74254">
        <ele>964</ele>
        <time>2022-07-16T06:56:42Z</time>
      </trkpt>
      <trkpt lat="44.97623" lon="5.74245">
        <ele>963.9</ele>
        <time>2022-07-16T06:56:43Z</time>
      </trkpt>
      <trkpt lat="44.97619" lon="5.74236">
        <ele>963.8</ele>
        <time>2022-07-16T06:56:44Z</time>
      </trkpt>
      <trkpt lat="44.97616" lon="5.74227">
        <ele>963.7</ele>
        <time>2022-07-16T06:56:45Z</time>
      </trkpt>
      <trkpt lat="44.97612" lon="5.74218">
        <ele>963.6</ele>
        <time>2022-07-16T06:56:46Z</time>
      </trkpt>
      <trkpt lat="44.97608" lon="5.7421">
        <ele>963.5</ele>
        <time>2022-07-16T06:56:47Z</time>
      </trkpt>
      <trkpt lat="44.97605" lon="5.74201">
        <ele>963.4</ele>
        <time>2022-07-16T06:56:48Z</time>
      </trkpt>
      <trkpt lat="44.97602" lon="5.74192">
        <ele>963.3</ele>
        <time>2022-07-16T06:56:49Z</time>
      </trkpt>
      <trkpt lat="44.97599" lon="5.74183">
        <ele>963.1</ele>
        <time>2022-07-16T06:56:50Z</time>
      </trkpt>
      <trkpt lat="44.97597" lon="5.74173">
        <ele>963</ele>
        <time>2022-07-16T06:56:51Z</time>
      </trkpt>
      <trkpt lat="44.97595" lon="5.74163">
        <ele>962.9</ele>
        <time>2022-07-16T06:56:52Z</time>
      </trkpt>
      <trkpt lat="44.97593" lon="5.74152">
        <ele>962.8</ele>
        <time>2022-07-16T06:56:53Z</time>
      </trkpt>
      <trkpt lat="44.97592" lon="5.74142">
        <ele>962.7</ele>
        <time>2022-07-16T06:56:54Z</time>
      </trkpt>
      <trkpt lat="44.97592" lon="5.74132">
        <ele>962.6</ele>
        <time>2022-07-16T06:56:55Z</time>
      </trkpt>
      <trkpt lat="44.97591" lon="5.74122">
        <ele>962.5</ele>
        <time>2022-07-16T06:56:56Z</time>
      </trkpt>
      <trkpt lat="44.9759" lon="5.74111">
        <ele>962.3</ele>
        <time>2022-07-16T06:56:57Z</time>
      </trkpt>
      <trkpt lat="44.97589" lon="5.74101">
        <ele>962.2</ele>
        <time>2022-07-16T06:56:58Z</time>
      </trkpt>
      <trkpt lat="44.97588" lon="5.74091">
        <ele>962.1</ele>
        <time>2022-07-16T06:56:59Z</time>
      </trkpt>
      <trkpt lat="44.97586" lon="5.7408">
        <ele>961.9</ele>
        <time>2022-07-16T06:57:00Z</time>
      </trkpt>
      <trkpt lat="44.97584" lon="5.7407">
        <ele>961.8</ele>
        <time>2022-07-16T06:57:01Z</time>
      </trkpt>
      <trkpt lat="44.97582" lon="5.7406">
        <ele>961.7</ele>
        <time>2022-07-16T06:57:02Z</time>
      </trkpt>
      <trkpt lat="44.9758" lon="5.74049">
        <ele>961.6</ele>
        <time>2022-07-16T06:57:03Z</time>
      </trkpt>
      <trkpt lat="44.97579" lon="5.74039">
        <ele>961.4</ele>
        <time>2022-07-16T06:57:04Z</time>
      </trkpt>
      <trkpt lat="44.97577" lon="5.74029">
        <ele>961.3</ele>
        <time>2022-07-16T06:57:05Z</time>
      </trkpt>
      <trkpt lat="44.97574" lon="5.74019">
        <ele>961.2</ele>
        <time>2022-07-16T06:57:06Z</time>
      </trkpt>
      <trkpt lat="44.97572" lon="5.7401">
        <ele>961</ele>
        <time>2022-07-16T06:57:07Z</time>
      </trkpt>
      <trkpt lat="44.97569" lon="5.74001">
        <ele>960.9</ele>
        <time>2022-07-16T06:57:08Z</time>
      </trkpt>
      <trkpt lat="44.97565" lon="5.73992">
        <ele>960.8</ele>
        <time>2022-07-16T06:57:09Z</time>
      </trkpt>
      <trkpt lat="44.97561" lon="5.73984">
        <ele>960.7</ele>
        <time>2022-07-16T06:57:10Z</time>
      </trkpt>
      <trkpt lat="44.97557" lon="5.73975">
        <ele>960.6</ele>
        <time>2022-07-16T06:57:11Z</time>
      </trkpt>
      <trkpt lat="44.97553" lon="5.73967">
        <ele>960.5</ele>
        <time>2022-07-16T06:57:12Z</time>
      </trkpt>
      <trkpt lat="44.97548" lon="5.73958">
        <ele>960.4</ele>
        <time>2022-07-16T06:57:13Z</time>
      </trkpt>
      <trkpt lat="44.97544" lon="5.73949">
        <ele>960.2</ele>
        <time>2022-07-16T06:57:14Z</time>
      </trkpt>
      <trkpt lat="44.97539" lon="5.7394">
        <ele>960.1</ele>
        <time>2022-07-16T06:57:15Z</time>
      </trkpt>
      <trkpt lat="44.97534" lon="5.73932">
        <ele>960</ele>
        <time>2022-07-16T06:57:16Z</time>
      </trkpt>
      <trkpt lat="44.9753" lon="5.73924">
        <ele>959.8</ele>
        <time>2022-07-16T06:57:17Z</time>
      </trkpt>
      <trkpt lat="44.97526" lon="5.73914">
        <ele>959.7</ele>
        <time>2022-07-16T06:57:18Z</time>
      </trkpt>
      <trkpt lat="44.97521" lon="5.73905">
        <ele>959.6</ele>
        <time>2022-07-16T06:57:19Z</time>
      </trkpt>
      <trkpt lat="44.97517" lon="5.73896">
        <ele>959.5</ele>
        <time>2022-07-16T06:57:20Z</time>
      </trkpt>
      <trkpt lat="44.97513" lon="5.73887">
        <ele>959.3</ele>
        <time>2022-07-16T06:57:21Z</time>
      </trkpt>
      <trkpt lat="44.97508" lon="5.73878">
        <ele>959.2</ele>
        <time>2022-07-16T06:57:22Z</time>
      </trkpt>
      <trkpt lat="44.97503" lon="5.7387">
        <ele>959</ele>
        <time>2022-07-16T06:57:23Z</time>
      </trkpt>
      <trkpt lat="44.97498" lon="5.73863">
        <ele>958.9</ele>
        <time>2022-07-16T06:57:24Z</time>
      </trkpt>
      <trkpt lat="44.97493" lon="5.73855">
        <ele>958.7</ele>
        <time>2022-07-16T06:57:25Z</time>
      </trkpt>
      <trkpt lat="44.97487" lon="5.73847">
        <ele>958.6</ele>
        <time>2022-07-16T06:57:26Z</time>
      </trkpt>
      <trkpt lat="44.97482" lon="5.73839">
        <ele>958.4</ele>
        <time>2022-07-16T06:57:27Z</time>
      </trkpt>
      <trkpt lat="44.97476" lon="5.73831">
        <ele>958.3</ele>
        <time>2022-07-16T06:57:28Z</time>
      </trkpt>
      <trkpt lat="44.9747" lon="5.73823">
        <ele>958.1</ele>
        <time>2022-07-16T06:57:29Z</time>
      </trkpt>
      <trkpt lat="44.97464" lon="5.73817">
        <ele>958</ele>
        <time>2022-07-16T06:57:30Z</time>
      </trkpt>
      <trkpt lat="44.97457" lon="5.73811">
        <ele>957.8</ele>
        <time>2022-07-16T06:57:31Z</time>
      </trkpt>
      <trkpt lat="44.9745" lon="5.73808">
        <ele>957.7</ele>
        <time>2022-07-16T06:57:32Z</time>
      </trkpt>
      <trkpt lat="44.97442" lon="5.73806">
        <ele>957.6</ele>
        <time>2022-07-16T06:57:33Z</time>
      </trkpt>
      <trkpt lat="44.97434" lon="5.73807">
        <ele>957.5</ele>
        <time>2022-07-16T06:57:34Z</time>
      </trkpt>
      <trkpt lat="44.97426" lon="5.7381">
        <ele>957.4</ele>
        <time>2022-07-16T06:57:35Z</time>
      </trkpt>
      <trkpt lat="44.97419" lon="5.73813">
        <ele>957.3</ele>
        <time>2022-07-16T06:57:36Z</time>
      </trkpt>
      <trkpt lat="44.97412" lon="5.73817">
        <ele>957.2</ele>
        <time>2022-07-16T06:57:37Z</time>
      </trkpt>
      <trkpt lat="44.97405" lon="5.73822">
        <ele>957.2</ele>
        <time>2022-07-16T06:57:38Z</time>
      </trkpt>
      <trkpt lat="44.97399" lon="5.73827">
        <ele>957.1</ele>
        <time>2022-07-16T06:57:39Z</time>
      </trkpt>
      <trkpt lat="44.97393" lon="5.73832">
        <ele>957</ele>
        <time>2022-07-16T06:57:40Z</time>
      </trkpt>
      <trkpt lat="44.97386" lon="5.73835">
        <ele>956.9</ele>
        <time>2022-07-16T06:57:41Z</time>
      </trkpt>
      <trkpt lat="44.97379" lon="5.73839">
        <ele>956.8</ele>
        <time>2022-07-16T06:57:42Z</time>
      </trkpt>
      <trkpt lat="44.97371" lon="5.73841">
        <ele>956.7</ele>
        <time>2022-07-16T06:57:43Z</time>
      </trkpt>
      <trkpt lat="44.97364" lon="5.73842">
        <ele>956.6</ele>
        <time>2022-07-16T06:57:44Z</time>
      </trkpt>
      <trkpt lat="44.97356" lon="5.73842">
        <ele>956.4</ele>
        <time>2022-07-16T06:57:45Z</time>
      </trkpt>
      <trkpt lat="44.97348" lon="5.73842">
        <ele>956.3</ele>
        <time>2022-07-16T06:57:46Z</time>
      </trkpt>
      <trkpt lat="44.9734" lon="5.73842">
        <ele>956.1</ele>
        <time>2022-07-16T06:57:47Z</time>
      </trkpt>
      <trkpt lat="44.97332" lon="5.73842">
        <ele>956</ele>
        <time>2022-07-16T06:57:48Z</time>
      </trkpt>
      <trkpt lat="44.97324" lon="5.73842">
        <ele>955.9</ele>
        <time>2022-07-16T06:57:49Z</time>
      </trkpt>
      <trkpt lat="44.97316" lon="5.73842">
        <ele>955.7</ele>
        <time>2022-07-16T06:57:50Z</time>
      </trkpt>
      <trkpt lat="44.97309" lon="5.73843">
        <ele>955.6</ele>
        <time>2022-07-16T06:57:51Z</time>
      </trkpt>
      <trkpt lat="44.97301" lon="5.73844">
        <ele>955.5</ele>
        <time>2022-07-16T06:57:52Z</time>
      </trkpt>
      <trkpt lat="44.97294" lon="5.73848">
        <ele>955.4</ele>
        <time>2022-07-16T06:57:53Z</time>
      </trkpt>
      <trkpt lat="44.97287" lon="5.73852">
        <ele>955.2</ele>
        <time>2022-07-16T06:57:54Z</time>
      </trkpt>
      <trkpt lat="44.97279" lon="5.73856">
        <ele>955.1</ele>
        <time>2022-07-16T06:57:55Z</time>
      </trkpt>
      <trkpt lat="44.97271" lon="5.73859">
        <ele>955</ele>
        <time>2022-07-16T06:57:56Z</time>
      </trkpt>
      <trkpt lat="44.97263" lon="5.73862">
        <ele>954.9</ele>
        <time>2022-07-16T06:57:57Z</time>
      </trkpt>
      <trkpt lat="44.97255" lon="5.73864">
        <ele>954.8</ele>
        <time>2022-07-16T06:57:58Z</time>
      </trkpt>
      <trkpt lat="44.97247" lon="5.73867">
        <ele>954.7</ele>
        <time>2022-07-16T06:57:59Z</time>
      </trkpt>
      <trkpt lat="44.97239" lon="5.73868">
        <ele>954.6</ele>
        <time>2022-07-16T06:58:00Z</time>
      </trkpt>
      <trkpt lat="44.97231" lon="5.73869">
        <ele>954.5</ele>
        <time>2022-07-16T06:58:01Z</time>
      </trkpt>
      <trkpt lat="44.97223" lon="5.73869">
        <ele>954.4</ele>
        <time>2022-07-16T06:58:02Z</time>
      </trkpt>
      <trkpt lat="44.97215" lon="5.73869">
        <ele>954.3</ele>
        <time>2022-07-16T06:58:03Z</time>
      </trkpt>
      <trkpt lat="44.97208" lon="5.73868">
        <ele>954.2</ele>
        <time>2022-07-16T06:58:04Z</time>
      </trkpt>
      <trkpt lat="44.972" lon="5.73866">
        <ele>954.1</ele>
        <time>2022-07-16T06:58:05Z</time>
      </trkpt>
      <trkpt lat="44.97192" lon="5.73864">
        <ele>954.1</ele>
        <time>2022-07-16T06:58:06Z</time>
      </trkpt>
      <trkpt lat="44.97184" lon="5.73861">
        <ele>953.9</ele>
        <time>2022-07-16T06:58:07Z</time>
      </trkpt>
      <trkpt lat="44.97177" lon="5.73857">
        <ele>953.8</ele>
        <time>2022-07-16T06:58:08Z</time>
      </trkpt>
      <trkpt lat="44.97171" lon="5.73853">
        <ele>953.6</ele>
        <time>2022-07-16T06:58:09Z</time>
      </trkpt>
      <trkpt lat="44.97164" lon="5.73847">
        <ele>953.4</ele>
        <time>2022-07-16T06:58:10Z</time>
      </trkpt>
      <trkpt lat="44.97157" lon="5.73842">
        <ele>953.2</ele>
        <time>2022-07-16T06:58:11Z</time>
      </trkpt>
      <trkpt lat="44.97151" lon="5.73835">
        <ele>953</ele>
        <time>2022-07-16T06:58:12Z</time>
      </trkpt>
      <trkpt lat="44.97144" lon="5.73829">
        <ele>952.9</ele>
        <time>2022-07-16T06:58:13Z</time>
      </trkpt>
      <trkpt lat="44.97138" lon="5.73822">
        <ele>952.7</ele>
        <time>2022-07-16T06:58:14Z</time>
      </trkpt>
      <trkpt lat="44.97133" lon="5.73815">
        <ele>952.6</ele>
        <time>2022-07-16T06:58:15Z</time>
      </trkpt>
      <trkpt lat="44.97127" lon="5.73808">
        <ele>952.5</ele>
        <time>2022-07-16T06:58:16Z</time>
      </trkpt>
      <trkpt lat="44.97121" lon="5.738">
        <ele>952.4</ele>
        <time>2022-07-16T06:58:17Z</time>
      </trkpt>
      <trkpt lat="44.97115" lon="5.73792">
        <ele>952.2</ele>
        <time>2022-07-16T06:58:18Z</time>
      </trkpt>
      <trkpt lat="44.97109" lon="5.73784">
        <ele>952.1</ele>
        <time>2022-07-16T06:58:19Z</time>
      </trkpt>
      <trkpt lat="44.97103" lon="5.73777">
        <ele>951.9</ele>
        <time>2022-07-16T06:58:20Z</time>
      </trkpt>
      <trkpt lat="44.97097" lon="5.7377">
        <ele>951.8</ele>
        <time>2022-07-16T06:58:21Z</time>
      </trkpt>
      <trkpt lat="44.97092" lon="5.73764">
        <ele>951.6</ele>
        <time>2022-07-16T06:58:22Z</time>
      </trkpt>
      <trkpt lat="44.97085" lon="5.73757">
        <ele>951.5</ele>
        <time>2022-07-16T06:58:23Z</time>
      </trkpt>
      <trkpt lat="44.97079" lon="5.73752">
        <ele>951.4</ele>
        <time>2022-07-16T06:58:24Z</time>
      </trkpt>
      <trkpt lat="44.97072" lon="5.73747">
        <ele>951.2</ele>
        <time>2022-07-16T06:58:25Z</time>
      </trkpt>
      <trkpt lat="44.97065" lon="5.73743">
        <ele>951.1</ele>
        <time>2022-07-16T06:58:26Z</time>
      </trkpt>
      <trkpt lat="44.97058" lon="5.7374">
        <ele>951</ele>
        <time>2022-07-16T06:58:27Z</time>
      </trkpt>
      <trkpt lat="44.9705" lon="5.73738">
        <ele>950.9</ele>
        <time>2022-07-16T06:58:28Z</time>
      </trkpt>
      <trkpt lat="44.97042" lon="5.73736">
        <ele>950.8</ele>
        <time>2022-07-16T06:58:29Z</time>
      </trkpt>
      <trkpt lat="44.97035" lon="5.73735">
        <ele>950.6</ele>
        <time>2022-07-16T06:58:30Z</time>
      </trkpt>
      <trkpt lat="44.97027" lon="5.73733">
        <ele>950.5</ele>
        <time>2022-07-16T06:58:31Z</time>
      </trkpt>
      <trkpt lat="44.97019" lon="5.73732">
        <ele>950.3</ele>
        <time>2022-07-16T06:58:32Z</time>
      </trkpt>
      <trkpt lat="44.97011" lon="5.7373">
        <ele>950.1</ele>
        <time>2022-07-16T06:58:33Z</time>
      </trkpt>
      <trkpt lat="44.97003" lon="5.73728">
        <ele>949.9</ele>
        <time>2022-07-16T06:58:34Z</time>
      </trkpt>
      <trkpt lat="44.96995" lon="5.73726">
        <ele>949.8</ele>
        <time>2022-07-16T06:58:35Z</time>
      </trkpt>
      <trkpt lat="44.96986" lon="5.73724">
        <ele>949.6</ele>
        <time>2022-07-16T06:58:36Z</time>
      </trkpt>
      <trkpt lat="44.96978" lon="5.73723">
        <ele>949.5</ele>
        <time>2022-07-16T06:58:37Z</time>
      </trkpt>
      <trkpt lat="44.9697" lon="5.73721">
        <ele>949.3</ele>
        <time>2022-07-16T06:58:38Z</time>
      </trkpt>
      <trkpt lat="44.96962" lon="5.73719">
        <ele>949.2</ele>
        <time>2022-07-16T06:58:39Z</time>
      </trkpt>
      <trkpt lat="44.96954" lon="5.73718">
        <ele>949.1</ele>
        <time>2022-07-16T06:58:40Z</time>
      </trkpt>
      <trkpt lat="44.96946" lon="5.73716">
        <ele>949</ele>
        <time>2022-07-16T06:58:41Z</time>
      </trkpt>
      <trkpt lat="44.96938" lon="5.73714">
        <ele>948.8</ele>
        <time>2022-07-16T06:58:42Z</time>
      </trkpt>
      <trkpt lat="44.9693" lon="5.73713">
        <ele>948.7</ele>
        <time>2022-07-16T06:58:43Z</time>
      </trkpt>
      <trkpt lat="44.96923" lon="5.73711">
        <ele>948.6</ele>
        <time>2022-07-16T06:58:44Z</time>
      </trkpt>
      <trkpt lat="44.96915" lon="5.7371">
        <ele>948.4</ele>
        <time>2022-07-16T06:58:45Z</time>
      </trkpt>
      <trkpt lat="44.96907" lon="5.73709">
        <ele>948.3</ele>
        <time>2022-07-16T06:58:46Z</time>
      </trkpt>
      <trkpt lat="44.96899" lon="5.73708">
        <ele>948.2</ele>
        <time>2022-07-16T06:58:47Z</time>
      </trkpt>
      <trkpt lat="44.96892" lon="5.73706">
        <ele>948.1</ele>
        <time>2022-07-16T06:58:48Z</time>
      </trkpt>
      <trkpt lat="44.96884" lon="5.73706">
        <ele>948</ele>
        <time>2022-07-16T06:58:49Z</time>
      </trkpt>
      <trkpt lat="44.96876" lon="5.73706">
        <ele>948</ele>
        <time>2022-07-16T06:58:50Z</time>
      </trkpt>
      <trkpt lat="44.96868" lon="5.73707">
        <ele>947.9</ele>
        <time>2022-07-16T06:58:51Z</time>
      </trkpt>
      <trkpt lat="44.96861" lon="5.73708">
        <ele>947.7</ele>
        <time>2022-07-16T06:58:52Z</time>
      </trkpt>
      <trkpt lat="44.96853" lon="5.7371">
        <ele>947.6</ele>
        <time>2022-07-16T06:58:53Z</time>
      </trkpt>
      <trkpt lat="44.96846" lon="5.73712">
        <ele>947.5</ele>
        <time>2022-07-16T06:58:54Z</time>
      </trkpt>
      <trkpt lat="44.96839" lon="5.73714">
        <ele>947.4</ele>
        <time>2022-07-16T06:58:55Z</time>
      </trkpt>
      <trkpt lat="44.96831" lon="5.73717">
        <ele>947.2</ele>
        <time>2022-07-16T06:58:56Z</time>
      </trkpt>
      <trkpt lat="44.96824" lon="5.73721">
        <ele>947.1</ele>
        <time>2022-07-16T06:58:57Z</time>
      </trkpt>
      <trkpt lat="44.96817" lon="5.73725">
        <ele>947</ele>
        <time>2022-07-16T06:58:58Z</time>
      </trkpt>
      <trkpt lat="44.96811" lon="5.7373">
        <ele>946.9</ele>
        <time>2022-07-16T06:58:59Z</time>
      </trkpt>
      <trkpt lat="44.96804" lon="5.73735">
        <ele>946.7</ele>
        <time>2022-07-16T06:59:00Z</time>
      </trkpt>
      <trkpt lat="44.96797" lon="5.73741">
        <ele>946.6</ele>
        <time>2022-07-16T06:59:01Z</time>
      </trkpt>
      <trkpt lat="44.96791" lon="5.73748">
        <ele>946.5</ele>
        <time>2022-07-16T06:59:02Z</time>
      </trkpt>
      <trkpt lat="44.96785" lon="5.73756">
        <ele>946.3</ele>
        <time>2022-07-16T06:59:03Z</time>
      </trkpt>
      <trkpt lat="44.9678" lon="5.73763">
        <ele>946.2</ele>
        <time>2022-07-16T06:59:04Z</time>
      </trkpt>
      <trkpt lat="44.96774" lon="5.73771">
        <ele>946.1</ele>
        <time>2022-07-16T06:59:05Z</time>
      </trkpt>
      <trkpt lat="44.96769" lon="5.73778">
        <ele>946</ele>
        <time>2022-07-16T06:59:06Z</time>
      </trkpt>
      <trkpt lat="44.96763" lon="5.73785">
        <ele>945.8</ele>
        <time>2022-07-16T06:59:07Z</time>
      </trkpt>
      <trkpt lat="44.96758" lon="5.73791">
        <ele>945.7</ele>
        <time>2022-07-16T06:59:08Z</time>
      </trkpt>
      <trkpt lat="44.96752" lon="5.73799">
        <ele>945.6</ele>
        <time>2022-07-16T06:59:09Z</time>
      </trkpt>
      <trkpt lat="44.96747" lon="5.73806">
        <ele>945.5</ele>
        <time>2022-07-16T06:59:10Z</time>
      </trkpt>
      <trkpt lat="44.96741" lon="5.73812">
        <ele>945.4</ele>
        <time>2022-07-16T06:59:11Z</time>
      </trkpt>
      <trkpt lat="44.96736" lon="5.73818">
        <ele>945.3</ele>
        <time>2022-07-16T06:59:12Z</time>
      </trkpt>
      <trkpt lat="44.9673" lon="5.73824">
        <ele>945.2</ele>
        <time>2022-07-16T06:59:13Z</time>
      </trkpt>
      <trkpt lat="44.96724" lon="5.73829">
        <ele>945.2</ele>
        <time>2022-07-16T06:59:14Z</time>
      </trkpt>
      <trkpt lat="44.96717" lon="5.73832">
        <ele>945.1</ele>
        <time>2022-07-16T06:59:15Z</time>
      </trkpt>
      <trkpt lat="44.9671" lon="5.73833">
        <ele>945</ele>
        <time>2022-07-16T06:59:16Z</time>
      </trkpt>
      <trkpt lat="44.96704" lon="5.73833">
        <ele>945</ele>
        <time>2022-07-16T06:59:17Z</time>
      </trkpt>
      <trkpt lat="44.96697" lon="5.73833">
        <ele>944.9</ele>
        <time>2022-07-16T06:59:18Z</time>
      </trkpt>
      <trkpt lat="44.9669" lon="5.73834">
        <ele>944.8</ele>
        <time>2022-07-16T06:59:19Z</time>
      </trkpt>
      <trkpt lat="44.96684" lon="5.73835">
        <ele>944.8</ele>
        <time>2022-07-16T06:59:20Z</time>
      </trkpt>
      <trkpt lat="44.96678" lon="5.73838">
        <ele>944.7</ele>
        <time>2022-07-16T06:59:21Z</time>
      </trkpt>
      <trkpt lat="44.96672" lon="5.7384">
        <ele>944.6</ele>
        <time>2022-07-16T06:59:22Z</time>
      </trkpt>
      <trkpt lat="44.96666" lon="5.73843">
        <ele>944.5</ele>
        <time>2022-07-16T06:59:23Z</time>
      </trkpt>
      <trkpt lat="44.9666" lon="5.73847">
        <ele>944.4</ele>
        <time>2022-07-16T06:59:24Z</time>
      </trkpt>
      <trkpt lat="44.96655" lon="5.73851">
        <ele>944.3</ele>
        <time>2022-07-16T06:59:25Z</time>
      </trkpt>
      <trkpt lat="44.96649" lon="5.73856">
        <ele>944.2</ele>
        <time>2022-07-16T06:59:26Z</time>
      </trkpt>
      <trkpt lat="44.96643" lon="5.73861">
        <ele>944.1</ele>
        <time>2022-07-16T06:59:27Z</time>
      </trkpt>
      <trkpt lat="44.96638" lon="5.73868">
        <ele>943.9</ele>
        <time>2022-07-16T06:59:28Z</time>
      </trkpt>
      <trkpt lat="44.96632" lon="5.73873">
        <ele>943.8</ele>
        <time>2022-07-16T06:59:29Z</time>
      </trkpt>
      <trkpt lat="44.96627" lon="5.7388">
        <ele>943.7</ele>
        <time>2022-07-16T06:59:30Z</time>
      </trkpt>
      <trkpt lat="44.96621" lon="5.73887">
        <ele>943.5</ele>
        <time>2022-07-16T06:59:31Z</time>
      </trkpt>
      <trkpt lat="44.96616" lon="5.73895">
        <ele>943.4</ele>
        <time>2022-07-16T06:59:32Z</time>
      </trkpt>
      <trkpt lat="44.96611" lon="5.73903">
        <ele>943.2</ele>
        <time>2022-07-16T06:59:33Z</time>
      </trkpt>
      <trkpt lat="44.96607" lon="5.73912">
        <ele>943</ele>
        <time>2022-07-16T06:59:34Z</time>
      </trkpt>
      <trkpt lat="44.96603" lon="5.7392">
        <ele>942.9</ele>
        <time>2022-07-16T06:59:35Z</time>
      </trkpt>
      <trkpt lat="44.96598" lon="5.73928">
        <ele>942.8</ele>
        <time>2022-07-16T06:59:36Z</time>
      </trkpt>
      <trkpt lat="44.96594" lon="5.73936">
        <ele>942.6</ele>
        <time>2022-07-16T06:59:37Z</time>
      </trkpt>
      <trkpt lat="44.9659" lon="5.73944">
        <ele>942.5</ele>
        <time>2022-07-16T06:59:38Z</time>
      </trkpt>
      <trkpt lat="44.96586" lon="5.73952">
        <ele>942.4</ele>
        <time>2022-07-16T06:59:39Z</time>
      </trkpt>
      <trkpt lat="44.96581" lon="5.7396">
        <ele>942.2</ele>
        <time>2022-07-16T06:59:40Z</time>
      </trkpt>
      <trkpt lat="44.96577" lon="5.73967">
        <ele>942.1</ele>
        <time>2022-07-16T06:59:41Z</time>
      </trkpt>
      <trkpt lat="44.96573" lon="5.73974">
        <ele>942</ele>
        <time>2022-07-16T06:59:42Z</time>
      </trkpt>
      <trkpt lat="44.96569" lon="5.7398">
        <ele>941.8</ele>
        <time>2022-07-16T06:59:43Z</time>
      </trkpt>
      <trkpt lat="44.96565" lon="5.73987">
        <ele>941.7</ele>
        <time>2022-07-16T06:59:44Z</time>
      </trkpt>
      <trkpt lat="44.96561" lon="5.73994">
        <ele>941.5</ele>
        <time>2022-07-16T06:59:45Z</time>
      </trkpt>
      <trkpt lat="44.96556" lon="5.74002">
        <ele>941.3</ele>
        <time>2022-07-16T06:59:46Z</time>
      </trkpt>
      <trkpt lat="44.96552" lon="5.74009">
        <ele>941.1</ele>
        <time>2022-07-16T06:59:47Z</time>
      </trkpt>
      <trkpt lat="44.96547" lon="5.74017">
        <ele>940.9</ele>
        <time>2022-07-16T06:59:48Z</time>
      </trkpt>
      <trkpt lat="44.96543" lon="5.74025">
        <ele>940.7</ele>
        <time>2022-07-16T06:59:49Z</time>
      </trkpt>
      <trkpt lat="44.96539" lon="5.74032">
        <ele>940.6</ele>
        <time>2022-07-16T06:59:50Z</time>
      </trkpt>
      <trkpt lat="44.96535" lon="5.74039">
        <ele>940.4</ele>
        <time>2022-07-16T06:59:51Z</time>
      </trkpt>
      <trkpt lat="44.96531" lon="5.74047">
        <ele>940.2</ele>
        <time>2022-07-16T06:59:52Z</time>
      </trkpt>
      <trkpt lat="44.96527" lon="5.74055">
        <ele>940</ele>
        <time>2022-07-16T06:59:53Z</time>
      </trkpt>
      <trkpt lat="44.96525" lon="5.74063">
        <ele>939.8</ele>
        <time>2022-07-16T06:59:54Z</time>
      </trkpt>
      <trkpt lat="44.96522" lon="5.74072">
        <ele>939.6</ele>
        <time>2022-07-16T06:59:55Z</time>
      </trkpt>
      <trkpt lat="44.9652" lon="5.74083">
        <ele>939.4</ele>
        <time>2022-07-16T06:59:56Z</time>
      </trkpt>
      <trkpt lat="44.96519" lon="5.74093">
        <ele>939.1</ele>
        <time>2022-07-16T06:59:57Z</time>
      </trkpt>
      <trkpt lat="44.96519" lon="5.74103">
        <ele>938.8</ele>
        <time>2022-07-16T06:59:58Z</time>
      </trkpt>
      <trkpt lat="44.9652" lon="5.74114">
        <ele>938.5</ele>
        <time>2022-07-16T06:59:59Z</time>
      </trkpt>
      <trkpt lat="44.9652" lon="5.74126">
        <ele>938.3</ele>
        <time>2022-07-16T07:00:00Z</time>
      </trkpt>
      <trkpt lat="44.9652" lon="5.74138">
        <ele>937.9</ele>
        <time>2022-07-16T07:00:01Z</time>
      </trkpt>
      <trkpt lat="44.9652" lon="5.7415">
        <ele>937.6</ele>
        <time>2022-07-16T07:00:02Z</time>
      </trkpt>
      <trkpt lat="44.96521" lon="5.74162">
        <ele>937.2</ele>
        <time>2022-07-16T07:00:03Z</time>
      </trkpt>
      <trkpt lat="44.96522" lon="5.74174">
        <ele>936.9</ele>
        <time>2022-07-16T07:00:04Z</time>
      </trkpt>
      <trkpt lat="44.96523" lon="5.74186">
        <ele>936.5</ele>
        <time>2022-07-16T07:00:05Z</time>
      </trkpt>
      <trkpt lat="44.96523" lon="5.74198">
        <ele>936.1</ele>
        <time>2022-07-16T07:00:06Z</time>
      </trkpt>
      <trkpt lat="44.96524" lon="5.7421">
        <ele>935.8</ele>
        <time>2022-07-16T07:00:07Z</time>
      </trkpt>
      <trkpt lat="44.96524" lon="5.74223">
        <ele>935.5</ele>
        <time>2022-07-16T07:00:08Z</time>
      </trkpt>
      <trkpt lat="44.96525" lon="5.74235">
        <ele>935.2</ele>
        <time>2022-07-16T07:00:09Z</time>
      </trkpt>
      <trkpt lat="44.96525" lon="5.74247">
        <ele>935</ele>
        <time>2022-07-16T07:00:10Z</time>
      </trkpt>
      <trkpt lat="44.96525" lon="5.74258">
        <ele>934.8</ele>
        <time>2022-07-16T07:00:11Z</time>
      </trkpt>
      <trkpt lat="44.96525" lon="5.74269">
        <ele>934.6</ele>
        <time>2022-07-16T07:00:12Z</time>
      </trkpt>
      <trkpt lat="44.96525" lon="5.7428">
        <ele>934.4</ele>
        <time>2022-07-16T07:00:13Z</time>
      </trkpt>
      <trkpt lat="44.96524" lon="5.74292">
        <ele>934.3</ele>
        <time>2022-07-16T07:00:14Z</time>
      </trkpt>
      <trkpt lat="44.96523" lon="5.74303">
        <ele>934.1</ele>
        <time>2022-07-16T07:00:15Z</time>
      </trkpt>
      <trkpt lat="44.96521" lon="5.74313">
        <ele>934</ele>
        <time>2022-07-16T07:00:16Z</time>
      </trkpt>
      <trkpt lat="44.96517" lon="5.74323">
        <ele>933.8</ele>
        <time>2022-07-16T07:00:17Z</time>
      </trkpt>
      <trkpt lat="44.96512" lon="5.74332">
        <ele>933.6</ele>
        <time>2022-07-16T07:00:18Z</time>
      </trkpt>
      <trkpt lat="44.96506" lon="5.7434">
        <ele>933.4</ele>
        <time>2022-07-16T07:00:19Z</time>
      </trkpt>
      <trkpt lat="44.965" lon="5.74346">
        <ele>933.2</ele>
        <time>2022-07-16T07:00:20Z</time>
      </trkpt>
      <trkpt lat="44.96494" lon="5.74351">
        <ele>932.9</ele>
        <time>2022-07-16T07:00:21Z</time>
      </trkpt>
      <trkpt lat="44.96487" lon="5.74353">
        <ele>932.7</ele>
        <time>2022-07-16T07:00:22Z</time>
      </trkpt>
      <trkpt lat="44.9648" lon="5.74353">
        <ele>932.4</ele>
        <time>2022-07-16T07:00:23Z</time>
      </trkpt>
      <trkpt lat="44.96473" lon="5.74351">
        <ele>932.1</ele>
        <time>2022-07-16T07:00:24Z</time>
      </trkpt>
      <trkpt lat="44.96467" lon="5.74346">
        <ele>931.8</ele>
        <time>2022-07-16T07:00:25Z</time>
      </trkpt>
      <trkpt lat="44.96461" lon="5.74341">
        <ele>931.5</ele>
        <time>2022-07-16T07:00:26Z</time>
      </trkpt>
      <trkpt lat="44.96455" lon="5.74336">
        <ele>931.2</ele>
        <time>2022-07-16T07:00:27Z</time>
      </trkpt>
      <trkpt lat="44.96448" lon="5.74332">
        <ele>930.8</ele>
        <time>2022-07-16T07:00:28Z</time>
      </trkpt>
      <trkpt lat="44.96441" lon="5.7433">
        <ele>930.5</ele>
        <time>2022-07-16T07:00:29Z</time>
      </trkpt>
      <trkpt lat="44.96435" lon="5.74331">
        <ele>930.1</ele>
        <time>2022-07-16T07:00:30Z</time>
      </trkpt>
      <trkpt lat="44.96427" lon="5.74334">
        <ele>929.7</ele>
        <time>2022-07-16T07:00:31Z</time>
      </trkpt>
      <trkpt lat="44.96419" lon="5.74339">
        <ele>929.3</ele>
        <time>2022-07-16T07:00:32Z</time>
      </trkpt>
      <trkpt lat="44.96411" lon="5.74344">
        <ele>929</ele>
        <time>2022-07-16T07:00:33Z</time>
      </trkpt>
      <trkpt lat="44.96403" lon="5.7435">
        <ele>928.7</ele>
        <time>2022-07-16T07:00:34Z</time>
      </trkpt>
      <trkpt lat="44.96395" lon="5.74355">
        <ele>928.4</ele>
        <time>2022-07-16T07:00:35Z</time>
      </trkpt>
      <trkpt lat="44.96387" lon="5.74361">
        <ele>928.1</ele>
        <time>2022-07-16T07:00:36Z</time>
      </trkpt>
      <trkpt lat="44.96379" lon="5.74366">
        <ele>927.9</ele>
        <time>2022-07-16T07:00:37Z</time>
      </trkpt>
      <trkpt lat="44.96371" lon="5.74371">
        <ele>927.6</ele>
        <time>2022-07-16T07:00:38Z</time>
      </trkpt>
      <trkpt lat="44.96363" lon="5.74375">
        <ele>927.4</ele>
        <time>2022-07-16T07:00:39Z</time>
      </trkpt>
      <trkpt lat="44.96356" lon="5.74379">
        <ele>927.2</ele>
        <time>2022-07-16T07:00:40Z</time>
      </trkpt>
      <trkpt lat="44.96349" lon="5.74384">
        <ele>926.9</ele>
        <time>2022-07-16T07:00:41Z</time>
      </trkpt>
      <trkpt lat="44.96342" lon="5.74389">
        <ele>926.6</ele>
        <time>2022-07-16T07:00:42Z</time>
      </trkpt>
      <trkpt lat="44.96335" lon="5.74393">
        <ele>926.3</ele>
        <time>2022-07-16T07:00:43Z</time>
      </trkpt>
      <trkpt lat="44.96328" lon="5.74398">
        <ele>926</ele>
        <time>2022-07-16T07:00:44Z</time>
      </trkpt>
      <trkpt lat="44.96321" lon="5.74402">
        <ele>925.8</ele>
        <time>2022-07-16T07:00:45Z</time>
      </trkpt>
      <trkpt lat="44.96314" lon="5.74408">
        <ele>925.6</ele>
        <time>2022-07-16T07:00:46Z</time>
      </trkpt>
      <trkpt lat="44.96308" lon="5.74414">
        <ele>925.4</ele>
        <time>2022-07-16T07:00:47Z</time>
      </trkpt>
      <trkpt lat="44.96301" lon="5.74421">
        <ele>925.2</ele>
        <time>2022-07-16T07:00:48Z</time>
      </trkpt>
      <trkpt lat="44.96295" lon="5.7443">
        <ele>925.1</ele>
        <time>2022-07-16T07:00:49Z</time>
      </trkpt>
      <trkpt lat="44.96289" lon="5.74439">
        <ele>925</ele>
        <time>2022-07-16T07:00:50Z</time>
      </trkpt>
      <trkpt lat="44.96283" lon="5.74448">
        <ele>924.9</ele>
        <time>2022-07-16T07:00:51Z</time>
      </trkpt>
      <trkpt lat="44.96277" lon="5.74457">
        <ele>924.9</ele>
        <time>2022-07-16T07:00:52Z</time>
      </trkpt>
      <trkpt lat="44.9627" lon="5.74465">
        <ele>924.9</ele>
        <time>2022-07-16T07:00:53Z</time>
      </trkpt>
      <trkpt lat="44.96264" lon="5.74472">
        <ele>924.9</ele>
        <time>2022-07-16T07:00:54Z</time>
      </trkpt>
      <trkpt lat="44.96257" lon="5.74479">
        <ele>924.9</ele>
        <time>2022-07-16T07:00:55Z</time>
      </trkpt>
      <trkpt lat="44.96251" lon="5.74487">
        <ele>924.8</ele>
        <time>2022-07-16T07:00:56Z</time>
      </trkpt>
      <trkpt lat="44.96245" lon="5.74494">
        <ele>924.8</ele>
        <time>2022-07-16T07:00:57Z</time>
      </trkpt>
      <trkpt lat="44.96239" lon="5.745">
        <ele>924.6</ele>
        <time>2022-07-16T07:00:58Z</time>
      </trkpt>
      <trkpt lat="44.96233" lon="5.74506">
        <ele>924.5</ele>
        <time>2022-07-16T07:00:59Z</time>
      </trkpt>
      <trkpt lat="44.96227" lon="5.74513">
        <ele>924.3</ele>
        <time>2022-07-16T07:01:00Z</time>
      </trkpt>
      <trkpt lat="44.96221" lon="5.7452">
        <ele>924.1</ele>
        <time>2022-07-16T07:01:01Z</time>
      </trkpt>
      <trkpt lat="44.96216" lon="5.74527">
        <ele>923.9</ele>
        <time>2022-07-16T07:01:02Z</time>
      </trkpt>
      <trkpt lat="44.96211" lon="5.74535">
        <ele>923.7</ele>
        <time>2022-07-16T07:01:03Z</time>
      </trkpt>
      <trkpt lat="44.96206" lon="5.74544">
        <ele>923.4</ele>
        <time>2022-07-16T07:01:04Z</time>
      </trkpt>
      <trkpt lat="44.962" lon="5.74552">
        <ele>923.1</ele>
        <time>2022-07-16T07:01:05Z</time>
      </trkpt>
      <trkpt lat="44.96195" lon="5.74561">
        <ele>922.8</ele>
        <time>2022-07-16T07:01:06Z</time>
      </trkpt>
      <trkpt lat="44.96189" lon="5.7457">
        <ele>922.5</ele>
        <time>2022-07-16T07:01:07Z</time>
      </trkpt>
      <trkpt lat="44.96183" lon="5.74578">
        <ele>922.2</ele>
        <time>2022-07-16T07:01:08Z</time>
      </trkpt>
      <trkpt lat="44.96177" lon="5.74586">
        <ele>921.9</ele>
        <time>2022-07-16T07:01:09Z</time>
      </trkpt>
      <trkpt lat="44.9617" lon="5.74593">
        <ele>921.7</ele>
        <time>2022-07-16T07:01:10Z</time>
      </trkpt>
      <trkpt lat="44.96162" lon="5.74599">
        <ele>921.4</ele>
        <time>2022-07-16T07:01:11Z</time>
      </trkpt>
      <trkpt lat="44.96154" lon="5.74604">
        <ele>921.1</ele>
        <time>2022-07-16T07:01:12Z</time>
      </trkpt>
      <trkpt lat="44.96146" lon="5.7461">
        <ele>920.7</ele>
        <time>2022-07-16T07:01:13Z</time>
      </trkpt>
      <trkpt lat="44.96138" lon="5.74615">
        <ele>920.2</ele>
        <time>2022-07-16T07:01:14Z</time>
      </trkpt>
      <trkpt lat="44.96131" lon="5.74621">
        <ele>919.9</ele>
        <time>2022-07-16T07:01:15Z</time>
      </trkpt>
      <trkpt lat="44.96124" lon="5.74627">
        <ele>919.6</ele>
        <time>2022-07-16T07:01:16Z</time>
      </trkpt>
      <trkpt lat="44.96117" lon="5.74632">
        <ele>919.3</ele>
        <time>2022-07-16T07:01:17Z</time>
      </trkpt>
      <trkpt lat="44.96111" lon="5.74636">
        <ele>919.2</ele>
        <time>2022-07-16T07:01:18Z</time>
      </trkpt>
      <trkpt lat="44.96106" lon="5.7464">
        <ele>919</ele>
        <time>2022-07-16T07:01:19Z</time>
      </trkpt>
      <trkpt lat="44.96102" lon="5.74642">
        <ele>919</ele>
        <time>2022-07-16T07:01:20Z</time>
      </trkpt>
      <trkpt lat="44.96098" lon="5.74642">
        <ele>918.9</ele>
        <time>2022-07-16T07:01:21Z</time>
      </trkpt>
      <trkpt lat="44.96095" lon="5.7464">
        <ele>918.9</ele>
        <time>2022-07-16T07:01:22Z</time>
      </trkpt>
      <trkpt lat="44.96094" lon="5.7464">
        <ele>918.8</ele>
        <time>2022-07-16T07:01:23Z</time>
      </trkpt>
      <trkpt lat="44.96094" lon="5.74637">
        <ele>918.8</ele>
        <time>2022-07-16T07:01:24Z</time>
      </trkpt>
      <trkpt lat="44.96094" lon="5.74635">
        <ele>918.3</ele>
        <time>2022-07-16T07:01:25Z</time>
      </trkpt>
      <trkpt lat="44.96094" lon="5.74633">
        <ele>918.2</ele>
        <time>2022-07-16T07:01:26Z</time>
      </trkpt>
      <trkpt lat="44.96094" lon="5.74632">
        <ele>918.1</ele>
        <time>2022-07-16T07:01:27Z</time>
      </trkpt>
      <trkpt lat="44.96096" lon="5.74632">
        <ele>917.9</ele>
        <time>2022-07-16T07:01:30Z</time>
      </trkpt>
      <trkpt lat="44.96097" lon="5.74632">
        <ele>917.9</ele>
        <time>2022-07-16T07:01:31Z</time>
      </trkpt>
      <trkpt lat="44.96097" lon="5.74632">
        <ele>917.9</ele>
        <time>2022-07-16T07:01:32Z</time>
      </trkpt>
      <trkpt lat="44.96097" lon="5.74631">
        <ele>917.8</ele>
        <time>2022-07-16T07:01:34Z</time>
      </trkpt>
      <trkpt lat="44.96097" lon="5.74631">
        <ele>917.8</ele>
        <time>2022-07-16T07:01:35Z</time>
      </trkpt>
      <trkpt lat="44.96097" lon="5.7463">
        <ele>917.8</ele>
        <time>2022-07-16T07:01:37Z</time>
      </trkpt>
      <trkpt lat="44.96098" lon="5.74629">
        <ele>917.7</ele>
        <time>2022-07-16T07:01:40Z</time>
      </trkpt>
      <trkpt lat="44.96098" lon="5.74629">
        <ele>917.7</ele>
        <time>2022-07-16T07:01:41Z</time>
      </trkpt>
      <trkpt lat="44.96098" lon="5.74629">
        <ele>917.7</ele>
        <time>2022-07-16T07:01:42Z</time>
      </trkpt>
      <trkpt lat="44.96098" lon="5.74628">
        <ele>917.6</ele>
        <time>2022-07-16T07:01:43Z</time>
      </trkpt>
      <trkpt lat="44.96098" lon="5.74628">
        <ele>917.6</ele>
        <time>2022-07-16T07:01:44Z</time>
      </trkpt>
      <trkpt lat="44.96102" lon="5.74621">
        <ele>917.1</ele>
        <time>2022-07-16T07:02:22Z</time>
      </trkpt>
      <trkpt lat="44.96107" lon="5.74615">
        <ele>916.6</ele>
        <time>2022-07-16T07:02:25Z</time>
      </trkpt>
      <trkpt lat="44.9611" lon="5.74612">
        <ele>916.3</ele>
        <time>2022-07-16T07:02:26Z</time>
      </trkpt>
      <trkpt lat="44.96113" lon="5.7461">
        <ele>916</ele>
        <time>2022-07-16T07:02:27Z</time>
      </trkpt>
      <trkpt lat="44.96117" lon="5.74608">
        <ele>915.7</ele>
        <time>2022-07-16T07:02:28Z</time>
      </trkpt>
      <trkpt lat="44.96119" lon="5.74603">
        <ele>915.4</ele>
        <time>2022-07-16T07:02:29Z</time>
      </trkpt>
      <trkpt lat="44.96126" lon="5.74598">
        <ele>914.9</ele>
        <time>2022-07-16T07:02:31Z</time>
      </trkpt>
      <trkpt lat="44.96131" lon="5.74594">
        <ele>914.4</ele>
        <time>2022-07-16T07:02:32Z</time>
      </trkpt>
      <trkpt lat="44.96143" lon="5.74584">
        <ele>913.4</ele>
        <time>2022-07-16T07:02:35Z</time>
      </trkpt>
      <trkpt lat="44.96147" lon="5.74578">
        <ele>913.1</ele>
        <time>2022-07-16T07:02:36Z</time>
      </trkpt>
      <trkpt lat="44.96151" lon="5.74572">
        <ele>912.8</ele>
        <time>2022-07-16T07:02:37Z</time>
      </trkpt>
      <trkpt lat="44.96156" lon="5.74567">
        <ele>912.4</ele>
        <time>2022-07-16T07:02:38Z</time>
      </trkpt>
      <trkpt lat="44.96161" lon="5.74561">
        <ele>912.1</ele>
        <time>2022-07-16T07:02:39Z</time>
      </trkpt>
      <trkpt lat="44.96166" lon="5.74555">
        <ele>911.7</ele>
        <time>2022-07-16T07:02:40Z</time>
      </trkpt>
      <trkpt lat="44.96171" lon="5.74549">
        <ele>911.4</ele>
        <time>2022-07-16T07:02:41Z</time>
      </trkpt>
      <trkpt lat="44.96177" lon="5.74543">
        <ele>911</ele>
        <time>2022-07-16T07:02:42Z</time>
      </trkpt>
      <trkpt lat="44.96181" lon="5.74535">
        <ele>910.6</ele>
        <time>2022-07-16T07:02:43Z</time>
      </trkpt>
      <trkpt lat="44.96185" lon="5.74525">
        <ele>910.1</ele>
        <time>2022-07-16T07:02:44Z</time>
      </trkpt>
      <trkpt lat="44.96188" lon="5.74515">
        <ele>909.6</ele>
        <time>2022-07-16T07:02:45Z</time>
      </trkpt>
      <trkpt lat="44.96191" lon="5.74505">
        <ele>909.1</ele>
        <time>2022-07-16T07:02:46Z</time>
      </trkpt>
      <trkpt lat="44.96193" lon="5.74495">
        <ele>908.6</ele>
        <time>2022-07-16T07:02:47Z</time>
      </trkpt>
      <trkpt lat="44.96196" lon="5.74483">
        <ele>908</ele>
        <time>2022-07-16T07:02:48Z</time>
      </trkpt>
      <trkpt lat="44.96198" lon="5.7447">
        <ele>907.4</ele>
        <time>2022-07-16T07:02:49Z</time>
      </trkpt>
      <trkpt lat="44.962" lon="5.74458">
        <ele>906.8</ele>
        <time>2022-07-16T07:02:50Z</time>
      </trkpt>
      <trkpt lat="44.96201" lon="5.74445">
        <ele>906.2</ele>
        <time>2022-07-16T07:02:51Z</time>
      </trkpt>
      <trkpt lat="44.96202" lon="5.74431">
        <ele>905.7</ele>
        <time>2022-07-16T07:02:52Z</time>
      </trkpt>
      <trkpt lat="44.96202" lon="5.74419">
        <ele>905.1</ele>
        <time>2022-07-16T07:02:53Z</time>
      </trkpt>
      <trkpt lat="44.96202" lon="5.74409">
        <ele>904.7</ele>
        <time>2022-07-16T07:02:54Z</time>
      </trkpt>
      <trkpt lat="44.96202" lon="5.744">
        <ele>904.3</ele>
        <time>2022-07-16T07:02:55Z</time>
      </trkpt>
      <trkpt lat="44.96203" lon="5.74389">
        <ele>903.9</ele>
        <time>2022-07-16T07:02:56Z</time>
      </trkpt>
      <trkpt lat="44.96204" lon="5.7438">
        <ele>903.5</ele>
        <time>2022-07-16T07:02:57Z</time>
      </trkpt>
      <trkpt lat="44.96205" lon="5.7437">
        <ele>903.1</ele>
        <time>2022-07-16T07:02:58Z</time>
      </trkpt>
      <trkpt lat="44.96205" lon="5.7436">
        <ele>902.8</ele>
        <time>2022-07-16T07:02:59Z</time>
      </trkpt>
      <trkpt lat="44.96205" lon="5.74351">
        <ele>902.4</ele>
        <time>2022-07-16T07:03:00Z</time>
      </trkpt>
      <trkpt lat="44.96206" lon="5.74341">
        <ele>902.1</ele>
        <time>2022-07-16T07:03:01Z</time>
      </trkpt>
      <trkpt lat="44.96206" lon="5.7433">
        <ele>901.7</ele>
        <time>2022-07-16T07:03:02Z</time>
      </trkpt>
      <trkpt lat="44.96206" lon="5.74319">
        <ele>901.2</ele>
        <time>2022-07-16T07:03:03Z</time>
      </trkpt>
      <trkpt lat="44.96206" lon="5.74307">
        <ele>900.8</ele>
        <time>2022-07-16T07:03:04Z</time>
      </trkpt>
      <trkpt lat="44.96206" lon="5.74296">
        <ele>900.3</ele>
        <time>2022-07-16T07:03:05Z</time>
      </trkpt>
      <trkpt lat="44.96207" lon="5.74284">
        <ele>899.8</ele>
        <time>2022-07-16T07:03:06Z</time>
      </trkpt>
      <trkpt lat="44.96208" lon="5.74273">
        <ele>899.3</ele>
        <time>2022-07-16T07:03:07Z</time>
      </trkpt>
      <trkpt lat="44.96211" lon="5.74261">
        <ele>898.8</ele>
        <time>2022-07-16T07:03:08Z</time>
      </trkpt>
      <trkpt lat="44.96216" lon="5.7425">
        <ele>898.3</ele>
        <time>2022-07-16T07:03:09Z</time>
      </trkpt>
      <trkpt lat="44.96222" lon="5.74241">
        <ele>897.7</ele>
        <time>2022-07-16T07:03:10Z</time>
      </trkpt>
      <trkpt lat="44.96228" lon="5.74233">
        <ele>897.2</ele>
        <time>2022-07-16T07:03:11Z</time>
      </trkpt>
      <trkpt lat="44.96235" lon="5.74224">
        <ele>896.7</ele>
        <time>2022-07-16T07:03:12Z</time>
      </trkpt>
      <trkpt lat="44.96241" lon="5.74214">
        <ele>896.2</ele>
        <time>2022-07-16T07:03:13Z</time>
      </trkpt>
      <trkpt lat="44.96245" lon="5.74202">
        <ele>895.7</ele>
        <time>2022-07-16T07:03:14Z</time>
      </trkpt>
      <trkpt lat="44.96247" lon="5.7419">
        <ele>895.2</ele>
        <time>2022-07-16T07:03:15Z</time>
      </trkpt>
      <trkpt lat="44.96249" lon="5.74177">
        <ele>894.7</ele>
        <time>2022-07-16T07:03:16Z</time>
      </trkpt>
      <trkpt lat="44.9625" lon="5.74165">
        <ele>894.3</ele>
        <time>2022-07-16T07:03:17Z</time>
      </trkpt>
      <trkpt lat="44.96249" lon="5.74155">
        <ele>893.9</ele>
        <time>2022-07-16T07:03:18Z</time>
      </trkpt>
      <trkpt lat="44.96241" lon="5.74146">
        <ele>893.3</ele>
        <time>2022-07-16T07:03:19Z</time>
      </trkpt>
      <trkpt lat="44.96233" lon="5.74135">
        <ele>892.8</ele>
        <time>2022-07-16T07:03:20Z</time>
      </trkpt>
      <trkpt lat="44.96224" lon="5.74128">
        <ele>892.4</ele>
        <time>2022-07-16T07:03:21Z</time>
      </trkpt>
      <trkpt lat="44.96214" lon="5.74124">
        <ele>892</ele>
        <time>2022-07-16T07:03:22Z</time>
      </trkpt>
      <trkpt lat="44.96204" lon="5.74119">
        <ele>891.6</ele>
        <time>2022-07-16T07:03:23Z</time>
      </trkpt>
      <trkpt lat="44.96194" lon="5.74115">
        <ele>891.3</ele>
        <time>2022-07-16T07:03:24Z</time>
      </trkpt>
      <trkpt lat="44.96184" lon="5.74112">
        <ele>890.5</ele>
        <time>2022-07-16T07:03:25Z</time>
      </trkpt>
      <trkpt lat="44.96175" lon="5.74108">
        <ele>889.6</ele>
        <time>2022-07-16T07:03:26Z</time>
      </trkpt>
      <trkpt lat="44.96164" lon="5.74102">
        <ele>888.5</ele>
        <time>2022-07-16T07:03:27Z</time>
      </trkpt>
      <trkpt lat="44.96153" lon="5.74096">
        <ele>887.4</ele>
        <time>2022-07-16T07:03:28Z</time>
      </trkpt>
      <trkpt lat="44.96144" lon="5.74087">
        <ele>886.8</ele>
        <time>2022-07-16T07:03:29Z</time>
      </trkpt>
      <trkpt lat="44.96136" lon="5.74076">
        <ele>886.4</ele>
        <time>2022-07-16T07:03:30Z</time>
      </trkpt>
      <trkpt lat="44.96131" lon="5.74063">
        <ele>886.1</ele>
        <time>2022-07-16T07:03:31Z</time>
      </trkpt>
      <trkpt lat="44.9613" lon="5.74048">
        <ele>885.5</ele>
        <time>2022-07-16T07:03:32Z</time>
      </trkpt>
      <trkpt lat="44.96133" lon="5.74032">
        <ele>884.9</ele>
        <time>2022-07-16T07:03:33Z</time>
      </trkpt>
      <trkpt lat="44.96136" lon="5.74017">
        <ele>884.2</ele>
        <time>2022-07-16T07:03:34Z</time>
      </trkpt>
      <trkpt lat="44.96141" lon="5.74003">
        <ele>883.6</ele>
        <time>2022-07-16T07:03:35Z</time>
      </trkpt>
      <trkpt lat="44.96147" lon="5.7399">
        <ele>882.9</ele>
        <time>2022-07-16T07:03:36Z</time>
      </trkpt>
      <trkpt lat="44.96154" lon="5.73978">
        <ele>882.2</ele>
        <time>2022-07-16T07:03:37Z</time>
      </trkpt>
      <trkpt lat="44.9616" lon="5.73966">
        <ele>881.5</ele>
        <time>2022-07-16T07:03:38Z</time>
      </trkpt>
      <trkpt lat="44.96167" lon="5.73954">
        <ele>880.8</ele>
        <time>2022-07-16T07:03:39Z</time>
      </trkpt>
      <trkpt lat="44.96174" lon="5.73941">
        <ele>880.1</ele>
        <time>2022-07-16T07:03:40Z</time>
      </trkpt>
      <trkpt lat="44.96179" lon="5.73928">
        <ele>879.5</ele>
        <time>2022-07-16T07:03:41Z</time>
      </trkpt>
      <trkpt lat="44.96183" lon="5.73913">
        <ele>878.9</ele>
        <time>2022-07-16T07:03:42Z</time>
      </trkpt>
      <trkpt lat="44.96186" lon="5.73898">
        <ele>878.3</ele>
        <time>2022-07-16T07:03:43Z</time>
      </trkpt>
      <trkpt lat="44.96188" lon="5.73883">
        <ele>877.7</ele>
        <time>2022-07-16T07:03:44Z</time>
      </trkpt>
      <trkpt lat="44.96189" lon="5.73868">
        <ele>877.1</ele>
        <time>2022-07-16T07:03:45Z</time>
      </trkpt>
      <trkpt lat="44.96189" lon="5.73852">
        <ele>876.6</ele>
        <time>2022-07-16T07:03:46Z</time>
      </trkpt>
      <trkpt lat="44.96186" lon="5.73838">
        <ele>876.3</ele>
        <time>2022-07-16T07:03:47Z</time>
      </trkpt>
      <trkpt lat="44.96182" lon="5.73825">
        <ele>875.9</ele>
        <time>2022-07-16T07:03:48Z</time>
      </trkpt>
      <trkpt lat="44.96176" lon="5.73814">
        <ele>875.1</ele>
        <time>2022-07-16T07:03:49Z</time>
      </trkpt>
      <trkpt lat="44.96169" lon="5.73804">
        <ele>874.5</ele>
        <time>2022-07-16T07:03:50Z</time>
      </trkpt>
      <trkpt lat="44.96162" lon="5.73793">
        <ele>874</ele>
        <time>2022-07-16T07:03:51Z</time>
      </trkpt>
      <trkpt lat="44.96156" lon="5.73781">
        <ele>873.5</ele>
        <time>2022-07-16T07:03:52Z</time>
      </trkpt>
      <trkpt lat="44.96152" lon="5.73768">
        <ele>872.9</ele>
        <time>2022-07-16T07:03:53Z</time>
      </trkpt>
      <trkpt lat="44.96151" lon="5.73755">
        <ele>872.3</ele>
        <time>2022-07-16T07:03:54Z</time>
      </trkpt>
      <trkpt lat="44.96152" lon="5.73742">
        <ele>871.7</ele>
        <time>2022-07-16T07:03:55Z</time>
      </trkpt>
      <trkpt lat="44.96155" lon="5.73731">
        <ele>871.2</ele>
        <time>2022-07-16T07:03:56Z</time>
      </trkpt>
      <trkpt lat="44.96159" lon="5.7372">
        <ele>870.6</ele>
        <time>2022-07-16T07:03:57Z</time>
      </trkpt>
      <trkpt lat="44.96163" lon="5.73709">
        <ele>870.1</ele>
        <time>2022-07-16T07:03:58Z</time>
      </trkpt>
      <trkpt lat="44.96167" lon="5.73699">
        <ele>869.6</ele>
        <time>2022-07-16T07:03:59Z</time>
      </trkpt>
      <trkpt lat="44.96171" lon="5.73688">
        <ele>869.1</ele>
        <time>2022-07-16T07:04:00Z</time>
      </trkpt>
      <trkpt lat="44.96174" lon="5.73678">
        <ele>868.6</ele>
        <time>2022-07-16T07:04:01Z</time>
      </trkpt>
      <trkpt lat="44.96175" lon="5.73669">
        <ele>868.2</ele>
        <time>2022-07-16T07:04:02Z</time>
      </trkpt>
      <trkpt lat="44.96175" lon="5.73662">
        <ele>868</ele>
        <time>2022-07-16T07:04:03Z</time>
      </trkpt>
      <trkpt lat="44.96175" lon="5.73658">
        <ele>868</ele>
        <time>2022-07-16T07:04:04Z</time>
      </trkpt>
      <trkpt lat="44.96174" lon="5.73657">
        <ele>868</ele>
        <time>2022-07-16T07:04:05Z</time>
      </trkpt>
      <trkpt lat="44.96173" lon="5.73654">
        <ele>867.9</ele>
        <time>2022-07-16T07:04:06Z</time>
      </trkpt>
      <trkpt lat="44.96172" lon="5.73654">
        <ele>867.9</ele>
        <time>2022-07-16T07:04:07Z</time>
      </trkpt>
      <trkpt lat="44.96169" lon="5.73655">
        <ele>867.9</ele>
        <time>2022-07-16T07:04:08Z</time>
      </trkpt>
      <trkpt lat="44.96166" lon="5.73657">
        <ele>867.9</ele>
        <time>2022-07-16T07:04:09Z</time>
      </trkpt>
      <trkpt lat="44.96164" lon="5.73659">
        <ele>867.9</ele>
        <time>2022-07-16T07:04:10Z</time>
      </trkpt>
      <trkpt lat="44.96163" lon="5.73662">
        <ele>867.9</ele>
        <time>2022-07-16T07:04:13Z</time>
      </trkpt>
      <trkpt lat="44.96163" lon="5.73662">
        <ele>867.9</ele>
        <time>2022-07-16T07:04:14Z</time>
      </trkpt>
      <trkpt lat="44.96163" lon="5.73661">
        <ele>867.9</ele>
        <time>2022-07-16T07:04:17Z</time>
      </trkpt>
      <trkpt lat="44.96163" lon="5.73661">
        <ele>867.9</ele>
        <time>2022-07-16T07:04:18Z</time>
      </trkpt>
      <trkpt lat="44.96163" lon="5.73661">
        <ele>867.9</ele>
        <time>2022-07-16T07:04:21Z</time>
      </trkpt>
      <trkpt lat="44.96163" lon="5.7366">
        <ele>867.9</ele>
        <time>2022-07-16T07:04:22Z</time>
      </trkpt>
      <trkpt lat="44.96163" lon="5.7366">
        <ele>867.9</ele>
        <time>2022-07-16T07:05:41Z</time>
      </trkpt>
      <trkpt lat="44.96163" lon="5.7366">
        <ele>867.9</ele>
        <time>2022-07-16T07:05:43Z</time>
      </trkpt>
      <trkpt lat="44.96163" lon="5.73659">
        <ele>867.9</ele>
        <time>2022-07-16T07:05:44Z</time>
      </trkpt>
      <trkpt lat="44.96163" lon="5.73659">
        <ele>867.9</ele>
        <time>2022-07-16T07:05:47Z</time>
      </trkpt>
      <trkpt lat="44.96163" lon="5.73659">
        <ele>867.9</ele>
        <time>2022-07-16T07:05:48Z</time>
      </trkpt>
      <trkpt lat="44.96163" lon="5.73658">
        <ele>867.9</ele>
        <time>2022-07-16T07:05:49Z</time>
      </trkpt>
      <trkpt lat="44.96163" lon="5.73658">
        <ele>867.9</ele>
        <time>2022-07-16T07:05:50Z</time>
      </trkpt>
      <trkpt lat="44.96163" lon="5.73658">
        <ele>867.9</ele>
        <time>2022-07-16T07:05:51Z</time>
      </trkpt>
      <trkpt lat="44.96163" lon="5.73658">
        <ele>867.9</ele>
        <time>2022-07-16T07:05:52Z</time>
      </trkpt>
      <trkpt lat="44.96163" lon="5.73657">
        <ele>867.9</ele>
        <time>2022-07-16T07:05:53Z</time>
      </trkpt>
      <trkpt lat="44.96164" lon="5.73657">
        <ele>867.9</ele>
        <time>2022-07-16T07:05:54Z</time>
      </trkpt>
      <trkpt lat="44.96164" lon="5.73657">
        <ele>867.9</ele>
        <time>2022-07-16T07:07:10Z</time>
      </trkpt>
      <trkpt lat="44.96164" lon="5.73656">
        <ele>867.9</ele>
        <time>2022-07-16T07:07:11Z</time>
      </trkpt>
      <trkpt lat="44.96164" lon="5.73656">
        <ele>867.9</ele>
        <time>2022-07-16T07:07:12Z</time>
      </trkpt>
      <trkpt lat="44.96168" lon="5.7365">
        <ele>867.9</ele>
        <time>2022-07-16T07:07:14Z</time>
      </trkpt>
      <trkpt lat="44.96172" lon="5.73648">
        <ele>867.9</ele>
        <time>2022-07-16T07:07:15Z</time>
      </trkpt>
      <trkpt lat="44.96177" lon="5.73648">
        <ele>867.8</ele>
        <time>2022-07-16T07:07:16Z</time>
      </trkpt>
      <trkpt lat="44.96181" lon="5.73646">
        <ele>867.5</ele>
        <time>2022-07-16T07:07:18Z</time>
      </trkpt>
      <trkpt lat="44.96181" lon="5.73645">
        <ele>867.5</ele>
        <time>2022-07-16T07:07:19Z</time>
      </trkpt>
      <trkpt lat="44.96184" lon="5.73641">
        <ele>867.2</ele>
        <time>2022-07-16T07:07:20Z</time>
      </trkpt>
      <trkpt lat="44.96187" lon="5.73637">
        <ele>866.9</ele>
        <time>2022-07-16T07:07:21Z</time>
      </trkpt>
      <trkpt lat="44.96189" lon="5.73632">
        <ele>866.6</ele>
        <time>2022-07-16T07:07:22Z</time>
      </trkpt>
      <trkpt lat="44.96186" lon="5.73623">
        <ele>866.1</ele>
        <time>2022-07-16T07:07:24Z</time>
      </trkpt>
      <trkpt lat="44.96181" lon="5.73602">
        <ele>864.9</ele>
        <time>2022-07-16T07:07:27Z</time>
      </trkpt>
      <trkpt lat="44.9618" lon="5.73594">
        <ele>864.5</ele>
        <time>2022-07-16T07:07:28Z</time>
      </trkpt>
      <trkpt lat="44.96178" lon="5.73585">
        <ele>864</ele>
        <time>2022-07-16T07:07:29Z</time>
      </trkpt>
      <trkpt lat="44.96176" lon="5.73575">
        <ele>863.5</ele>
        <time>2022-07-16T07:07:30Z</time>
      </trkpt>
      <trkpt lat="44.96175" lon="5.73564">
        <ele>862.9</ele>
        <time>2022-07-16T07:07:31Z</time>
      </trkpt>
      <trkpt lat="44.96176" lon="5.73554">
        <ele>862.4</ele>
        <time>2022-07-16T07:07:32Z</time>
      </trkpt>
      <trkpt lat="44.96177" lon="5.73543">
        <ele>861.8</ele>
        <time>2022-07-16T07:07:33Z</time>
      </trkpt>
      <trkpt lat="44.96178" lon="5.73532">
        <ele>861.2</ele>
        <time>2022-07-16T07:07:34Z</time>
      </trkpt>
      <trkpt lat="44.96179" lon="5.73523">
        <ele>860.8</ele>
        <time>2022-07-16T07:07:35Z</time>
      </trkpt>
      <trkpt lat="44.96182" lon="5.73505">
        <ele>860.6</ele>
        <time>2022-07-16T07:07:36Z</time>
      </trkpt>
      <trkpt lat="44.96179" lon="5.73509">
        <ele>860.6</ele>
        <time>2022-07-16T07:07:38Z</time>
      </trkpt>
      <trkpt lat="44.96182" lon="5.73499">
        <ele>860.4</ele>
        <time>2022-07-16T07:07:39Z</time>
      </trkpt>
      <trkpt lat="44.96187" lon="5.73479">
        <ele>859.9</ele>
        <time>2022-07-16T07:07:42Z</time>
      </trkpt>
      <trkpt lat="44.96189" lon="5.7347">
        <ele>859.4</ele>
        <time>2022-07-16T07:07:43Z</time>
      </trkpt>
      <trkpt lat="44.9619" lon="5.73461">
        <ele>858.9</ele>
        <time>2022-07-16T07:07:44Z</time>
      </trkpt>
      <trkpt lat="44.96191" lon="5.73451">
        <ele>858.4</ele>
        <time>2022-07-16T07:07:45Z</time>
      </trkpt>
      <trkpt lat="44.96192" lon="5.73441">
        <ele>857.9</ele>
        <time>2022-07-16T07:07:46Z</time>
      </trkpt>
      <trkpt lat="44.96194" lon="5.73431">
        <ele>857.3</ele>
        <time>2022-07-16T07:07:47Z</time>
      </trkpt>
      <trkpt lat="44.96196" lon="5.73421">
        <ele>856.9</ele>
        <time>2022-07-16T07:07:48Z</time>
      </trkpt>
      <trkpt lat="44.96197" lon="5.7341">
        <ele>856.5</ele>
        <time>2022-07-16T07:07:49Z</time>
      </trkpt>
      <trkpt lat="44.96199" lon="5.73399">
        <ele>856</ele>
        <time>2022-07-16T07:07:50Z</time>
      </trkpt>
      <trkpt lat="44.962" lon="5.73389">
        <ele>855.6</ele>
        <time>2022-07-16T07:07:51Z</time>
      </trkpt>
      <trkpt lat="44.96201" lon="5.73379">
        <ele>855.1</ele>
        <time>2022-07-16T07:07:52Z</time>
      </trkpt>
      <trkpt lat="44.962" lon="5.73369">
        <ele>854.7</ele>
        <time>2022-07-16T07:07:53Z</time>
      </trkpt>
      <trkpt lat="44.96199" lon="5.73359">
        <ele>854.2</ele>
        <time>2022-07-16T07:07:54Z</time>
      </trkpt>
      <trkpt lat="44.96197" lon="5.7335">
        <ele>853.7</ele>
        <time>2022-07-16T07:07:55Z</time>
      </trkpt>
      <trkpt lat="44.96194" lon="5.73339">
        <ele>853.2</ele>
        <time>2022-07-16T07:07:56Z</time>
      </trkpt>
      <trkpt lat="44.96193" lon="5.73328">
        <ele>852.7</ele>
        <time>2022-07-16T07:07:57Z</time>
      </trkpt>
      <trkpt lat="44.96193" lon="5.73317">
        <ele>852.3</ele>
        <time>2022-07-16T07:07:58Z</time>
      </trkpt>
      <trkpt lat="44.96194" lon="5.73305">
        <ele>851.8</ele>
        <time>2022-07-16T07:07:59Z</time>
      </trkpt>
      <trkpt lat="44.96196" lon="5.73293">
        <ele>851.5</ele>
        <time>2022-07-16T07:08:00Z</time>
      </trkpt>
      <trkpt lat="44.96198" lon="5.73282">
        <ele>851.2</ele>
        <time>2022-07-16T07:08:01Z</time>
      </trkpt>
      <trkpt lat="44.962" lon="5.73271">
        <ele>851</ele>
        <time>2022-07-16T07:08:02Z</time>
      </trkpt>
      <trkpt lat="44.96202" lon="5.7326">
        <ele>850.8</ele>
        <time>2022-07-16T07:08:03Z</time>
      </trkpt>
      <trkpt lat="44.96204" lon="5.73249">
        <ele>850.7</ele>
        <time>2022-07-16T07:08:04Z</time>
      </trkpt>
      <trkpt lat="44.96204" lon="5.73238">
        <ele>850.6</ele>
        <time>2022-07-16T07:08:05Z</time>
      </trkpt>
      <trkpt lat="44.96204" lon="5.73228">
        <ele>850.5</ele>
        <time>2022-07-16T07:08:06Z</time>
      </trkpt>
      <trkpt lat="44.96204" lon="5.73218">
        <ele>850.3</ele>
        <time>2022-07-16T07:08:07Z</time>
      </trkpt>
      <trkpt lat="44.96204" lon="5.73208">
        <ele>850.2</ele>
        <time>2022-07-16T07:08:08Z</time>
      </trkpt>
      <trkpt lat="44.96204" lon="5.73198">
        <ele>850</ele>
        <time>2022-07-16T07:08:09Z</time>
      </trkpt>
      <trkpt lat="44.96206" lon="5.73188">
        <ele>849.6</ele>
        <time>2022-07-16T07:08:10Z</time>
      </trkpt>
      <trkpt lat="44.96209" lon="5.7318">
        <ele>849.3</ele>
        <time>2022-07-16T07:08:11Z</time>
      </trkpt>
      <trkpt lat="44.96214" lon="5.73173">
        <ele>848.7</ele>
        <time>2022-07-16T07:08:12Z</time>
      </trkpt>
      <trkpt lat="44.96221" lon="5.73167">
        <ele>848</ele>
        <time>2022-07-16T07:08:13Z</time>
      </trkpt>
      <trkpt lat="44.96229" lon="5.73164">
        <ele>847.7</ele>
        <time>2022-07-16T07:08:14Z</time>
      </trkpt>
      <trkpt lat="44.96237" lon="5.73162">
        <ele>847.2</ele>
        <time>2022-07-16T07:08:15Z</time>
      </trkpt>
      <trkpt lat="44.96246" lon="5.7316">
        <ele>846.5</ele>
        <time>2022-07-16T07:08:16Z</time>
      </trkpt>
      <trkpt lat="44.96255" lon="5.73157">
        <ele>845.6</ele>
        <time>2022-07-16T07:08:17Z</time>
      </trkpt>
      <trkpt lat="44.96265" lon="5.73154">
        <ele>844.8</ele>
        <time>2022-07-16T07:08:18Z</time>
      </trkpt>
      <trkpt lat="44.96275" lon="5.7315">
        <ele>843.9</ele>
        <time>2022-07-16T07:08:19Z</time>
      </trkpt>
      <trkpt lat="44.96285" lon="5.73145">
        <ele>843.1</ele>
        <time>2022-07-16T07:08:20Z</time>
      </trkpt>
      <trkpt lat="44.96293" lon="5.73139">
        <ele>842.5</ele>
        <time>2022-07-16T07:08:21Z</time>
      </trkpt>
      <trkpt lat="44.96302" lon="5.73131">
        <ele>841.8</ele>
        <time>2022-07-16T07:08:22Z</time>
      </trkpt>
      <trkpt lat="44.9631" lon="5.73122">
        <ele>841.1</ele>
        <time>2022-07-16T07:08:23Z</time>
      </trkpt>
      <trkpt lat="44.96318" lon="5.73113">
        <ele>840.3</ele>
        <time>2022-07-16T07:08:24Z</time>
      </trkpt>
      <trkpt lat="44.96326" lon="5.73104">
        <ele>839.6</ele>
        <time>2022-07-16T07:08:25Z</time>
      </trkpt>
      <trkpt lat="44.96333" lon="5.73095">
        <ele>839</ele>
        <time>2022-07-16T07:08:26Z</time>
      </trkpt>
      <trkpt lat="44.96342" lon="5.73086">
        <ele>838.3</ele>
        <time>2022-07-16T07:08:27Z</time>
      </trkpt>
      <trkpt lat="44.96351" lon="5.73078">
        <ele>837.7</ele>
        <time>2022-07-16T07:08:28Z</time>
      </trkpt>
      <trkpt lat="44.9636" lon="5.7307">
        <ele>837</ele>
        <time>2022-07-16T07:08:29Z</time>
      </trkpt>
      <trkpt lat="44.9637" lon="5.73063">
        <ele>836.3</ele>
        <time>2022-07-16T07:08:30Z</time>
      </trkpt>
      <trkpt lat="44.96379" lon="5.73055">
        <ele>835.6</ele>
        <time>2022-07-16T07:08:31Z</time>
      </trkpt>
      <trkpt lat="44.96388" lon="5.73047">
        <ele>834.9</ele>
        <time>2022-07-16T07:08:32Z</time>
      </trkpt>
      <trkpt lat="44.96398" lon="5.73039">
        <ele>834.2</ele>
        <time>2022-07-16T07:08:33Z</time>
      </trkpt>
      <trkpt lat="44.96408" lon="5.73031">
        <ele>833.4</ele>
        <time>2022-07-16T07:08:34Z</time>
      </trkpt>
      <trkpt lat="44.96418" lon="5.73022">
        <ele>832.6</ele>
        <time>2022-07-16T07:08:35Z</time>
      </trkpt>
      <trkpt lat="44.96428" lon="5.73013">
        <ele>831.8</ele>
        <time>2022-07-16T07:08:36Z</time>
      </trkpt>
      <trkpt lat="44.96437" lon="5.73005">
        <ele>831.1</ele>
        <time>2022-07-16T07:08:37Z</time>
      </trkpt>
      <trkpt lat="44.96447" lon="5.72996">
        <ele>830.3</ele>
        <time>2022-07-16T07:08:38Z</time>
      </trkpt>
      <trkpt lat="44.96457" lon="5.72987">
        <ele>829.5</ele>
        <time>2022-07-16T07:08:39Z</time>
      </trkpt>
      <trkpt lat="44.96466" lon="5.72978">
        <ele>828.9</ele>
        <time>2022-07-16T07:08:40Z</time>
      </trkpt>
      <trkpt lat="44.96476" lon="5.72969">
        <ele>828.2</ele>
        <time>2022-07-16T07:08:41Z</time>
      </trkpt>
      <trkpt lat="44.96484" lon="5.72961">
        <ele>827.5</ele>
        <time>2022-07-16T07:08:42Z</time>
      </trkpt>
      <trkpt lat="44.96493" lon="5.72954">
        <ele>826.9</ele>
        <time>2022-07-16T07:08:43Z</time>
      </trkpt>
      <trkpt lat="44.96503" lon="5.72951">
        <ele>826.1</ele>
        <time>2022-07-16T07:08:44Z</time>
      </trkpt>
      <trkpt lat="44.96516" lon="5.72954">
        <ele>825.1</ele>
        <time>2022-07-16T07:08:45Z</time>
      </trkpt>
      <trkpt lat="44.96528" lon="5.72958">
        <ele>824.2</ele>
        <time>2022-07-16T07:08:46Z</time>
      </trkpt>
      <trkpt lat="44.96539" lon="5.72961">
        <ele>823.3</ele>
        <time>2022-07-16T07:08:47Z</time>
      </trkpt>
      <trkpt lat="44.96551" lon="5.72964">
        <ele>822.5</ele>
        <time>2022-07-16T07:08:48Z</time>
      </trkpt>
      <trkpt lat="44.96561" lon="5.72968">
        <ele>821.8</ele>
        <time>2022-07-16T07:08:49Z</time>
      </trkpt>
      <trkpt lat="44.96572" lon="5.72974">
        <ele>821</ele>
        <time>2022-07-16T07:08:50Z</time>
      </trkpt>
      <trkpt lat="44.96582" lon="5.72981">
        <ele>820.2</ele>
        <time>2022-07-16T07:08:51Z</time>
      </trkpt>
      <trkpt lat="44.96593" lon="5.7299">
        <ele>819.4</ele>
        <time>2022-07-16T07:08:52Z</time>
      </trkpt>
      <trkpt lat="44.96603" lon="5.72998">
        <ele>818.5</ele>
        <time>2022-07-16T07:08:53Z</time>
      </trkpt>
      <trkpt lat="44.96614" lon="5.73002">
        <ele>817.7</ele>
        <time>2022-07-16T07:08:54Z</time>
      </trkpt>
      <trkpt lat="44.96626" lon="5.73005">
        <ele>816.9</ele>
        <time>2022-07-16T07:08:55Z</time>
      </trkpt>
      <trkpt lat="44.96638" lon="5.73004">
        <ele>816</ele>
        <time>2022-07-16T07:08:56Z</time>
      </trkpt>
      <trkpt lat="44.9665" lon="5.73001">
        <ele>815.1</ele>
        <time>2022-07-16T07:08:57Z</time>
      </trkpt>
      <trkpt lat="44.96662" lon="5.72994">
        <ele>814.3</ele>
        <time>2022-07-16T07:08:58Z</time>
      </trkpt>
      <trkpt lat="44.96673" lon="5.72985">
        <ele>813.6</ele>
        <time>2022-07-16T07:08:59Z</time>
      </trkpt>
      <trkpt lat="44.96684" lon="5.72975">
        <ele>812.9</ele>
        <time>2022-07-16T07:09:00Z</time>
      </trkpt>
      <trkpt lat="44.96696" lon="5.72969">
        <ele>812.3</ele>
        <time>2022-07-16T07:09:01Z</time>
      </trkpt>
      <trkpt lat="44.96709" lon="5.72966">
        <ele>811.7</ele>
        <time>2022-07-16T07:09:02Z</time>
      </trkpt>
      <trkpt lat="44.96722" lon="5.72967">
        <ele>811.1</ele>
        <time>2022-07-16T07:09:03Z</time>
      </trkpt>
      <trkpt lat="44.96734" lon="5.7297">
        <ele>810.5</ele>
        <time>2022-07-16T07:09:04Z</time>
      </trkpt>
      <trkpt lat="44.96745" lon="5.72974">
        <ele>809.9</ele>
        <time>2022-07-16T07:09:05Z</time>
      </trkpt>
      <trkpt lat="44.96756" lon="5.72976">
        <ele>809.3</ele>
        <time>2022-07-16T07:09:06Z</time>
      </trkpt>
      <trkpt lat="44.96769" lon="5.72979">
        <ele>808.6</ele>
        <time>2022-07-16T07:09:07Z</time>
      </trkpt>
      <trkpt lat="44.96781" lon="5.7298">
        <ele>807.9</ele>
        <time>2022-07-16T07:09:08Z</time>
      </trkpt>
      <trkpt lat="44.96793" lon="5.72981">
        <ele>807.3</ele>
        <time>2022-07-16T07:09:09Z</time>
      </trkpt>
      <trkpt lat="44.96805" lon="5.72982">
        <ele>806.6</ele>
        <time>2022-07-16T07:09:10Z</time>
      </trkpt>
      <trkpt lat="44.96817" lon="5.72981">
        <ele>806</ele>
        <time>2022-07-16T07:09:11Z</time>
      </trkpt>
      <trkpt lat="44.96829" lon="5.72979">
        <ele>805.5</ele>
        <time>2022-07-16T07:09:12Z</time>
      </trkpt>
      <trkpt lat="44.9684" lon="5.72976">
        <ele>804.9</ele>
        <time>2022-07-16T07:09:13Z</time>
      </trkpt>
      <trkpt lat="44.96852" lon="5.72971">
        <ele>804.2</ele>
        <time>2022-07-16T07:09:14Z</time>
      </trkpt>
      <trkpt lat="44.96864" lon="5.72967">
        <ele>803.4</ele>
        <time>2022-07-16T07:09:15Z</time>
      </trkpt>
      <trkpt lat="44.96876" lon="5.72964">
        <ele>802.7</ele>
        <time>2022-07-16T07:09:16Z</time>
      </trkpt>
      <trkpt lat="44.96888" lon="5.72962">
        <ele>802</ele>
        <time>2022-07-16T07:09:17Z</time>
      </trkpt>
      <trkpt lat="44.969" lon="5.72962">
        <ele>801.4</ele>
        <time>2022-07-16T07:09:18Z</time>
      </trkpt>
      <trkpt lat="44.96911" lon="5.72961">
        <ele>800.9</ele>
        <time>2022-07-16T07:09:19Z</time>
      </trkpt>
      <trkpt lat="44.96923" lon="5.72962">
        <ele>800.4</ele>
        <time>2022-07-16T07:09:20Z</time>
      </trkpt>
      <trkpt lat="44.96934" lon="5.72962">
        <ele>799.9</ele>
        <time>2022-07-16T07:09:21Z</time>
      </trkpt>
      <trkpt lat="44.96946" lon="5.72963">
        <ele>799.4</ele>
        <time>2022-07-16T07:09:22Z</time>
      </trkpt>
      <trkpt lat="44.96957" lon="5.72963">
        <ele>799.1</ele>
        <time>2022-07-16T07:09:23Z</time>
      </trkpt>
      <trkpt lat="44.96967" lon="5.72962">
        <ele>798.9</ele>
        <time>2022-07-16T07:09:24Z</time>
      </trkpt>
      <trkpt lat="44.96977" lon="5.7296">
        <ele>798.7</ele>
        <time>2022-07-16T07:09:25Z</time>
      </trkpt>
      <trkpt lat="44.96987" lon="5.72954">
        <ele>798.6</ele>
        <time>2022-07-16T07:09:26Z</time>
      </trkpt>
      <trkpt lat="44.96995" lon="5.72946">
        <ele>798.5</ele>
        <time>2022-07-16T07:09:27Z</time>
      </trkpt>
      <trkpt lat="44.97001" lon="5.72935">
        <ele>798.4</ele>
        <time>2022-07-16T07:09:28Z</time>
      </trkpt>
      <trkpt lat="44.97005" lon="5.72922">
        <ele>798.3</ele>
        <time>2022-07-16T07:09:29Z</time>
      </trkpt>
      <trkpt lat="44.97007" lon="5.72909">
        <ele>798.2</ele>
        <time>2022-07-16T07:09:30Z</time>
      </trkpt>
      <trkpt lat="44.97008" lon="5.72895">
        <ele>798.1</ele>
        <time>2022-07-16T07:09:31Z</time>
      </trkpt>
      <trkpt lat="44.97007" lon="5.72881">
        <ele>798.2</ele>
        <time>2022-07-16T07:09:32Z</time>
      </trkpt>
      <trkpt lat="44.97004" lon="5.72869">
        <ele>798.3</ele>
        <time>2022-07-16T07:09:33Z</time>
      </trkpt>
      <trkpt lat="44.97" lon="5.72857">
        <ele>798.4</ele>
        <time>2022-07-16T07:09:34Z</time>
      </trkpt>
      <trkpt lat="44.96997" lon="5.72846">
        <ele>798.7</ele>
        <time>2022-07-16T07:09:35Z</time>
      </trkpt>
      <trkpt lat="44.96993" lon="5.72836">
        <ele>799</ele>
        <time>2022-07-16T07:09:36Z</time>
      </trkpt>
      <trkpt lat="44.96988" lon="5.72827">
        <ele>799.3</ele>
        <time>2022-07-16T07:09:37Z</time>
      </trkpt>
      <trkpt lat="44.96983" lon="5.7282">
        <ele>799.7</ele>
        <time>2022-07-16T07:09:38Z</time>
      </trkpt>
      <trkpt lat="44.96977" lon="5.72813">
        <ele>800</ele>
        <time>2022-07-16T07:09:39Z</time>
      </trkpt>
      <trkpt lat="44.96971" lon="5.72808">
        <ele>800.4</ele>
        <time>2022-07-16T07:09:40Z</time>
      </trkpt>
      <trkpt lat="44.96966" lon="5.72805">
        <ele>800.8</ele>
        <time>2022-07-16T07:09:41Z</time>
      </trkpt>
      <trkpt lat="44.9696" lon="5.72802">
        <ele>801.2</ele>
        <time>2022-07-16T07:09:42Z</time>
      </trkpt>
      <trkpt lat="44.96954" lon="5.72799">
        <ele>801.6</ele>
        <time>2022-07-16T07:09:43Z</time>
      </trkpt>
      <trkpt lat="44.96948" lon="5.72797">
        <ele>802.1</ele>
        <time>2022-07-16T07:09:44Z</time>
      </trkpt>
      <trkpt lat="44.96943" lon="5.72794">
        <ele>802.5</ele>
        <time>2022-07-16T07:09:45Z</time>
      </trkpt>
      <trkpt lat="44.96937" lon="5.72791">
        <ele>803</ele>
        <time>2022-07-16T07:09:46Z</time>
      </trkpt>
      <trkpt lat="44.96933" lon="5.72788">
        <ele>803.4</ele>
        <time>2022-07-16T07:09:47Z</time>
      </trkpt>
      <trkpt lat="44.96927" lon="5.72785">
        <ele>803.9</ele>
        <time>2022-07-16T07:09:48Z</time>
      </trkpt>
      <trkpt lat="44.96923" lon="5.72782">
        <ele>804.3</ele>
        <time>2022-07-16T07:09:49Z</time>
      </trkpt>
      <trkpt lat="44.96919" lon="5.7278">
        <ele>804.7</ele>
        <time>2022-07-16T07:09:50Z</time>
      </trkpt>
      <trkpt lat="44.96916" lon="5.72778">
        <ele>805</ele>
        <time>2022-07-16T07:09:51Z</time>
      </trkpt>
      <trkpt lat="44.96911" lon="5.72775">
        <ele>805.4</ele>
        <time>2022-07-16T07:09:52Z</time>
      </trkpt>
      <trkpt lat="44.96907" lon="5.72772">
        <ele>805.9</ele>
        <time>2022-07-16T07:09:53Z</time>
      </trkpt>
      <trkpt lat="44.96903" lon="5.72769">
        <ele>806.3</ele>
        <time>2022-07-16T07:09:54Z</time>
      </trkpt>
      <trkpt lat="44.96898" lon="5.72765">
        <ele>806.7</ele>
        <time>2022-07-16T07:09:55Z</time>
      </trkpt>
      <trkpt lat="44.96895" lon="5.72761">
        <ele>807.1</ele>
        <time>2022-07-16T07:09:56Z</time>
      </trkpt>
      <trkpt lat="44.96892" lon="5.72758">
        <ele>807.4</ele>
        <time>2022-07-16T07:09:57Z</time>
      </trkpt>
      <trkpt lat="44.96889" lon="5.72752">
        <ele>807.9</ele>
        <time>2022-07-16T07:09:58Z</time>
      </trkpt>
      <trkpt lat="44.96882" lon="5.7274">
        <ele>808.9</ele>
        <time>2022-07-16T07:10:00Z</time>
      </trkpt>
      <trkpt lat="44.96876" lon="5.7273">
        <ele>809.6</ele>
        <time>2022-07-16T07:10:03Z</time>
      </trkpt>
      <trkpt lat="44.96875" lon="5.72724">
        <ele>810</ele>
        <time>2022-07-16T07:10:04Z</time>
      </trkpt>
      <trkpt lat="44.96874" lon="5.72715">
        <ele>810.5</ele>
        <time>2022-07-16T07:10:06Z</time>
      </trkpt>
      <trkpt lat="44.96873" lon="5.72709">
        <ele>810.9</ele>
        <time>2022-07-16T07:10:07Z</time>
      </trkpt>
      <trkpt lat="44.96871" lon="5.72704">
        <ele>811.2</ele>
        <time>2022-07-16T07:10:08Z</time>
      </trkpt>
      <trkpt lat="44.96868" lon="5.72694">
        <ele>811.8</ele>
        <time>2022-07-16T07:10:10Z</time>
      </trkpt>
      <trkpt lat="44.96868" lon="5.7269">
        <ele>812</ele>
        <time>2022-07-16T07:10:11Z</time>
      </trkpt>
      <trkpt lat="44.96866" lon="5.72684">
        <ele>812.3</ele>
        <time>2022-07-16T07:10:13Z</time>
      </trkpt>
      <trkpt lat="44.96865" lon="5.7268">
        <ele>812.6</ele>
        <time>2022-07-16T07:10:14Z</time>
      </trkpt>
      <trkpt lat="44.96862" lon="5.72674">
        <ele>812.9</ele>
        <time>2022-07-16T07:10:15Z</time>
      </trkpt>
      <trkpt lat="44.9686" lon="5.72668">
        <ele>813.2</ele>
        <time>2022-07-16T07:10:17Z</time>
      </trkpt>
      <trkpt lat="44.96858" lon="5.72665">
        <ele>813.5</ele>
        <time>2022-07-16T07:10:18Z</time>
      </trkpt>
      <trkpt lat="44.96858" lon="5.72663">
        <ele>813.6</ele>
        <time>2022-07-16T07:10:19Z</time>
      </trkpt>
      <trkpt lat="44.96856" lon="5.7266">
        <ele>813.8</ele>
        <time>2022-07-16T07:10:20Z</time>
      </trkpt>
      <trkpt lat="44.96853" lon="5.72655">
        <ele>814.1</ele>
        <time>2022-07-16T07:10:22Z</time>
      </trkpt>
      <trkpt lat="44.9685" lon="5.72651">
        <ele>814.4</ele>
        <time>2022-07-16T07:10:23Z</time>
      </trkpt>
      <trkpt lat="44.96849" lon="5.7265">
        <ele>814.5</ele>
        <time>2022-07-16T07:10:24Z</time>
      </trkpt>
      <trkpt lat="44.96845" lon="5.72646">
        <ele>814.8</ele>
        <time>2022-07-16T07:10:25Z</time>
      </trkpt>
      <trkpt lat="44.96843" lon="5.72644">
        <ele>815</ele>
        <time>2022-07-16T07:10:26Z</time>
      </trkpt>
      <trkpt lat="44.96839" lon="5.72642">
        <ele>815.4</ele>
        <time>2022-07-16T07:10:28Z</time>
      </trkpt>
      <trkpt lat="44.96836" lon="5.72639">
        <ele>815.6</ele>
        <time>2022-07-16T07:10:29Z</time>
      </trkpt>
      <trkpt lat="44.96834" lon="5.72637">
        <ele>815.8</ele>
        <time>2022-07-16T07:10:30Z</time>
      </trkpt>
      <trkpt lat="44.9683" lon="5.72636">
        <ele>816.1</ele>
        <time>2022-07-16T07:10:32Z</time>
      </trkpt>
      <trkpt lat="44.96828" lon="5.72635">
        <ele>816.2</ele>
        <time>2022-07-16T07:10:33Z</time>
      </trkpt>
      <trkpt lat="44.96824" lon="5.72632">
        <ele>816.6</ele>
        <time>2022-07-16T07:10:35Z</time>
      </trkpt>
      <trkpt lat="44.96818" lon="5.72631">
        <ele>816.9</ele>
        <time>2022-07-16T07:10:36Z</time>
      </trkpt>
      <trkpt lat="44.96815" lon="5.7263">
        <ele>817.2</ele>
        <time>2022-07-16T07:10:38Z</time>
      </trkpt>
      <trkpt lat="44.96811" lon="5.7263">
        <ele>817.4</ele>
        <time>2022-07-16T07:10:39Z</time>
      </trkpt>
      <trkpt lat="44.96805" lon="5.72629">
        <ele>817.9</ele>
        <time>2022-07-16T07:10:41Z</time>
      </trkpt>
      <trkpt lat="44.96803" lon="5.72627">
        <ele>818</ele>
        <time>2022-07-16T07:10:42Z</time>
      </trkpt>
      <trkpt lat="44.968" lon="5.72627">
        <ele>818.2</ele>
        <time>2022-07-16T07:10:43Z</time>
      </trkpt>
      <trkpt lat="44.96797" lon="5.72627">
        <ele>818.4</ele>
        <time>2022-07-16T07:10:44Z</time>
      </trkpt>
      <trkpt lat="44.96792" lon="5.72624">
        <ele>818.8</ele>
        <time>2022-07-16T07:10:46Z</time>
      </trkpt>
      <trkpt lat="44.96788" lon="5.72623">
        <ele>819</ele>
        <time>2022-07-16T07:10:47Z</time>
      </trkpt>
      <trkpt lat="44.96784" lon="5.72621">
        <ele>819.3</ele>
        <time>2022-07-16T07:10:48Z</time>
      </trkpt>
      <trkpt lat="44.96779" lon="5.72618">
        <ele>819.7</ele>
        <time>2022-07-16T07:10:49Z</time>
      </trkpt>
      <trkpt lat="44.96776" lon="5.72616">
        <ele>819.9</ele>
        <time>2022-07-16T07:10:51Z</time>
      </trkpt>
      <trkpt lat="44.96773" lon="5.72614">
        <ele>820.1</ele>
        <time>2022-07-16T07:10:52Z</time>
      </trkpt>
      <trkpt lat="44.96766" lon="5.72604">
        <ele>820.7</ele>
        <time>2022-07-16T07:10:55Z</time>
      </trkpt>
      <trkpt lat="44.96763" lon="5.72601">
        <ele>821</ele>
        <time>2022-07-16T07:10:56Z</time>
      </trkpt>
      <trkpt lat="44.96757" lon="5.72594">
        <ele>821.4</ele>
        <time>2022-07-16T07:10:59Z</time>
      </trkpt>
      <trkpt lat="44.96755" lon="5.72591">
        <ele>821.6</ele>
        <time>2022-07-16T07:11:00Z</time>
      </trkpt>
      <trkpt lat="44.9675" lon="5.72585">
        <ele>822</ele>
        <time>2022-07-16T07:11:02Z</time>
      </trkpt>
      <trkpt lat="44.96748" lon="5.72581">
        <ele>822.2</ele>
        <time>2022-07-16T07:11:03Z</time>
      </trkpt>
      <trkpt lat="44.96744" lon="5.7258">
        <ele>822.4</ele>
        <time>2022-07-16T07:11:04Z</time>
      </trkpt>
      <trkpt lat="44.96741" lon="5.72575">
        <ele>822.7</ele>
        <time>2022-07-16T07:11:06Z</time>
      </trkpt>
      <trkpt lat="44.96737" lon="5.72571">
        <ele>823</ele>
        <time>2022-07-16T07:11:07Z</time>
      </trkpt>
      <trkpt lat="44.96735" lon="5.72568">
        <ele>823.1</ele>
        <time>2022-07-16T07:11:08Z</time>
      </trkpt>
      <trkpt lat="44.96733" lon="5.72566">
        <ele>823.3</ele>
        <time>2022-07-16T07:11:10Z</time>
      </trkpt>
      <trkpt lat="44.96731" lon="5.72563">
        <ele>823.5</ele>
        <time>2022-07-16T07:11:11Z</time>
      </trkpt>
      <trkpt lat="44.96725" lon="5.72557">
        <ele>823.9</ele>
        <time>2022-07-16T07:11:13Z</time>
      </trkpt>
      <trkpt lat="44.96723" lon="5.72554">
        <ele>824</ele>
        <time>2022-07-16T07:11:14Z</time>
      </trkpt>
      <trkpt lat="44.9672" lon="5.72549">
        <ele>824.2</ele>
        <time>2022-07-16T07:11:16Z</time>
      </trkpt>
      <trkpt lat="44.96716" lon="5.72545">
        <ele>824.5</ele>
        <time>2022-07-16T07:11:17Z</time>
      </trkpt>
      <trkpt lat="44.96711" lon="5.72539">
        <ele>824.8</ele>
        <time>2022-07-16T07:11:19Z</time>
      </trkpt>
      <trkpt lat="44.96709" lon="5.72537">
        <ele>824.9</ele>
        <time>2022-07-16T07:11:20Z</time>
      </trkpt>
      <trkpt lat="44.96706" lon="5.72533">
        <ele>825.1</ele>
        <time>2022-07-16T07:11:21Z</time>
      </trkpt>
      <trkpt lat="44.96704" lon="5.7253">
        <ele>825.2</ele>
        <time>2022-07-16T07:11:22Z</time>
      </trkpt>
      <trkpt lat="44.96699" lon="5.72524">
        <ele>825.5</ele>
        <time>2022-07-16T07:11:24Z</time>
      </trkpt>
      <trkpt lat="44.96697" lon="5.7252">
        <ele>825.6</ele>
        <time>2022-07-16T07:11:25Z</time>
      </trkpt>
      <trkpt lat="44.96692" lon="5.72516">
        <ele>825.8</ele>
        <time>2022-07-16T07:11:26Z</time>
      </trkpt>
      <trkpt lat="44.96688" lon="5.7251">
        <ele>826</ele>
        <time>2022-07-16T07:11:28Z</time>
      </trkpt>
      <trkpt lat="44.96686" lon="5.72505">
        <ele>826.2</ele>
        <time>2022-07-16T07:11:29Z</time>
      </trkpt>
      <trkpt lat="44.96685" lon="5.72501">
        <ele>826.3</ele>
        <time>2022-07-16T07:11:30Z</time>
      </trkpt>
      <trkpt lat="44.96683" lon="5.72498">
        <ele>826.4</ele>
        <time>2022-07-16T07:11:31Z</time>
      </trkpt>
      <trkpt lat="44.96681" lon="5.7249">
        <ele>826.7</ele>
        <time>2022-07-16T07:11:32Z</time>
      </trkpt>
      <trkpt lat="44.96681" lon="5.72486">
        <ele>826.8</ele>
        <time>2022-07-16T07:11:33Z</time>
      </trkpt>
      <trkpt lat="44.9668" lon="5.72481">
        <ele>827</ele>
        <time>2022-07-16T07:11:34Z</time>
      </trkpt>
      <trkpt lat="44.9668" lon="5.72477">
        <ele>827.1</ele>
        <time>2022-07-16T07:11:36Z</time>
      </trkpt>
      <trkpt lat="44.9668" lon="5.7247">
        <ele>827.3</ele>
        <time>2022-07-16T07:11:37Z</time>
      </trkpt>
      <trkpt lat="44.9668" lon="5.72467">
        <ele>827.4</ele>
        <time>2022-07-16T07:11:38Z</time>
      </trkpt>
      <trkpt lat="44.96679" lon="5.72459">
        <ele>827.7</ele>
        <time>2022-07-16T07:11:40Z</time>
      </trkpt>
      <trkpt lat="44.96679" lon="5.72454">
        <ele>827.8</ele>
        <time>2022-07-16T07:11:41Z</time>
      </trkpt>
      <trkpt lat="44.96679" lon="5.72444">
        <ele>828.1</ele>
        <time>2022-07-16T07:11:42Z</time>
      </trkpt>
      <trkpt lat="44.96678" lon="5.72438">
        <ele>828.3</ele>
        <time>2022-07-16T07:11:44Z</time>
      </trkpt>
      <trkpt lat="44.96677" lon="5.72434">
        <ele>828.4</ele>
        <time>2022-07-16T07:11:45Z</time>
      </trkpt>
      <trkpt lat="44.96677" lon="5.72424">
        <ele>828.7</ele>
        <time>2022-07-16T07:11:46Z</time>
      </trkpt>
      <trkpt lat="44.96676" lon="5.72418">
        <ele>828.9</ele>
        <time>2022-07-16T07:11:48Z</time>
      </trkpt>
      <trkpt lat="44.96676" lon="5.72414">
        <ele>829.1</ele>
        <time>2022-07-16T07:11:49Z</time>
      </trkpt>
      <trkpt lat="44.96676" lon="5.72409">
        <ele>829.3</ele>
        <time>2022-07-16T07:11:50Z</time>
      </trkpt>
      <trkpt lat="44.96675" lon="5.72399">
        <ele>829.6</ele>
        <time>2022-07-16T07:11:52Z</time>
      </trkpt>
      <trkpt lat="44.96674" lon="5.7239">
        <ele>829.9</ele>
        <time>2022-07-16T07:11:54Z</time>
      </trkpt>
      <trkpt lat="44.96674" lon="5.72383">
        <ele>830.1</ele>
        <time>2022-07-16T07:11:55Z</time>
      </trkpt>
      <trkpt lat="44.96673" lon="5.72373">
        <ele>830.4</ele>
        <time>2022-07-16T07:11:57Z</time>
      </trkpt>
      <trkpt lat="44.96672" lon="5.72364">
        <ele>830.7</ele>
        <time>2022-07-16T07:11:59Z</time>
      </trkpt>
      <trkpt lat="44.96671" lon="5.72359">
        <ele>830.9</ele>
        <time>2022-07-16T07:12:00Z</time>
      </trkpt>
      <trkpt lat="44.9667" lon="5.72354">
        <ele>831.1</ele>
        <time>2022-07-16T07:12:01Z</time>
      </trkpt>
      <trkpt lat="44.9667" lon="5.72352">
        <ele>831.1</ele>
        <time>2022-07-16T07:12:02Z</time>
      </trkpt>
      <trkpt lat="44.96667" lon="5.72348">
        <ele>831.3</ele>
        <time>2022-07-16T07:12:03Z</time>
      </trkpt>
      <trkpt lat="44.96663" lon="5.72339">
        <ele>831.6</ele>
        <time>2022-07-16T07:12:05Z</time>
      </trkpt>
      <trkpt lat="44.9666" lon="5.72332">
        <ele>831.9</ele>
        <time>2022-07-16T07:12:06Z</time>
      </trkpt>
      <trkpt lat="44.96657" lon="5.7233">
        <ele>832</ele>
        <time>2022-07-16T07:12:07Z</time>
      </trkpt>
      <trkpt lat="44.96653" lon="5.72321">
        <ele>832.3</ele>
        <time>2022-07-16T07:12:09Z</time>
      </trkpt>
      <trkpt lat="44.96649" lon="5.72318">
        <ele>832.5</ele>
        <time>2022-07-16T07:12:10Z</time>
      </trkpt>
      <trkpt lat="44.96646" lon="5.72314">
        <ele>832.6</ele>
        <time>2022-07-16T07:12:11Z</time>
      </trkpt>
      <trkpt lat="44.96639" lon="5.72309">
        <ele>832.9</ele>
        <time>2022-07-16T07:12:13Z</time>
      </trkpt>
      <trkpt lat="44.96634" lon="5.72307">
        <ele>833.1</ele>
        <time>2022-07-16T07:12:14Z</time>
      </trkpt>
      <trkpt lat="44.96626" lon="5.72304">
        <ele>833.5</ele>
        <time>2022-07-16T07:12:16Z</time>
      </trkpt>
      <trkpt lat="44.96622" lon="5.72303">
        <ele>833.6</ele>
        <time>2022-07-16T07:12:17Z</time>
      </trkpt>
      <trkpt lat="44.96621" lon="5.72303">
        <ele>833.7</ele>
        <time>2022-07-16T07:12:18Z</time>
      </trkpt>
      <trkpt lat="44.9661" lon="5.72299">
        <ele>834.2</ele>
        <time>2022-07-16T07:12:21Z</time>
      </trkpt>
      <trkpt lat="44.96606" lon="5.72298">
        <ele>834.3</ele>
        <time>2022-07-16T07:12:22Z</time>
      </trkpt>
      <trkpt lat="44.96598" lon="5.72297">
        <ele>834.6</ele>
        <time>2022-07-16T07:12:24Z</time>
      </trkpt>
      <trkpt lat="44.96594" lon="5.72297">
        <ele>834.8</ele>
        <time>2022-07-16T07:12:25Z</time>
      </trkpt>
      <trkpt lat="44.96583" lon="5.72298">
        <ele>835.3</ele>
        <time>2022-07-16T07:12:28Z</time>
      </trkpt>
      <trkpt lat="44.96579" lon="5.72299">
        <ele>835.4</ele>
        <time>2022-07-16T07:12:29Z</time>
      </trkpt>
      <trkpt lat="44.9657" lon="5.72301">
        <ele>835.8</ele>
        <time>2022-07-16T07:12:31Z</time>
      </trkpt>
      <trkpt lat="44.96566" lon="5.72302">
        <ele>836</ele>
        <time>2022-07-16T07:12:32Z</time>
      </trkpt>
      <trkpt lat="44.96563" lon="5.72304">
        <ele>836.1</ele>
        <time>2022-07-16T07:12:33Z</time>
      </trkpt>
      <trkpt lat="44.96559" lon="5.72306">
        <ele>836.3</ele>
        <time>2022-07-16T07:12:34Z</time>
      </trkpt>
      <trkpt lat="44.96552" lon="5.7231">
        <ele>836.6</ele>
        <time>2022-07-16T07:12:35Z</time>
      </trkpt>
      <trkpt lat="44.96546" lon="5.7231">
        <ele>836.8</ele>
        <time>2022-07-16T07:12:37Z</time>
      </trkpt>
      <trkpt lat="44.96538" lon="5.72311">
        <ele>837.2</ele>
        <time>2022-07-16T07:12:38Z</time>
      </trkpt>
      <trkpt lat="44.96532" lon="5.72312">
        <ele>837.4</ele>
        <time>2022-07-16T07:12:40Z</time>
      </trkpt>
      <trkpt lat="44.96529" lon="5.72311">
        <ele>837.5</ele>
        <time>2022-07-16T07:12:41Z</time>
      </trkpt>
      <trkpt lat="44.96525" lon="5.72311">
        <ele>837.7</ele>
        <time>2022-07-16T07:12:42Z</time>
      </trkpt>
      <trkpt lat="44.96518" lon="5.72309">
        <ele>838</ele>
        <time>2022-07-16T07:12:44Z</time>
      </trkpt>
      <trkpt lat="44.96515" lon="5.72306">
        <ele>838.1</ele>
        <time>2022-07-16T07:12:45Z</time>
      </trkpt>
      <trkpt lat="44.96511" lon="5.72303">
        <ele>838.3</ele>
        <time>2022-07-16T07:12:46Z</time>
      </trkpt>
      <trkpt lat="44.96505" lon="5.72299">
        <ele>838.6</ele>
        <time>2022-07-16T07:12:48Z</time>
      </trkpt>
      <trkpt lat="44.96499" lon="5.72296">
        <ele>838.8</ele>
        <time>2022-07-16T07:12:49Z</time>
      </trkpt>
      <trkpt lat="44.96492" lon="5.7229">
        <ele>839.2</ele>
        <time>2022-07-16T07:12:51Z</time>
      </trkpt>
      <trkpt lat="44.96489" lon="5.72286">
        <ele>839.4</ele>
        <time>2022-07-16T07:12:52Z</time>
      </trkpt>
      <trkpt lat="44.96486" lon="5.72283">
        <ele>839.5</ele>
        <time>2022-07-16T07:12:53Z</time>
      </trkpt>
      <trkpt lat="44.96483" lon="5.7228">
        <ele>839.7</ele>
        <time>2022-07-16T07:12:54Z</time>
      </trkpt>
      <trkpt lat="44.96479" lon="5.72276">
        <ele>839.9</ele>
        <time>2022-07-16T07:12:55Z</time>
      </trkpt>
      <trkpt lat="44.96474" lon="5.7227">
        <ele>840.2</ele>
        <time>2022-07-16T07:12:57Z</time>
      </trkpt>
      <trkpt lat="44.96471" lon="5.72265">
        <ele>840.4</ele>
        <time>2022-07-16T07:12:58Z</time>
      </trkpt>
      <trkpt lat="44.96468" lon="5.72261">
        <ele>840.7</ele>
        <time>2022-07-16T07:12:59Z</time>
      </trkpt>
      <trkpt lat="44.96465" lon="5.72256">
        <ele>840.9</ele>
        <time>2022-07-16T07:13:00Z</time>
      </trkpt>
      <trkpt lat="44.96461" lon="5.72252">
        <ele>841.1</ele>
        <time>2022-07-16T07:13:01Z</time>
      </trkpt>
      <trkpt lat="44.96457" lon="5.72246">
        <ele>841.4</ele>
        <time>2022-07-16T07:13:03Z</time>
      </trkpt>
      <trkpt lat="44.96453" lon="5.72242">
        <ele>841.6</ele>
        <time>2022-07-16T07:13:04Z</time>
      </trkpt>
      <trkpt lat="44.96449" lon="5.72237">
        <ele>841.9</ele>
        <time>2022-07-16T07:13:05Z</time>
      </trkpt>
      <trkpt lat="44.96442" lon="5.72227">
        <ele>842.3</ele>
        <time>2022-07-16T07:13:08Z</time>
      </trkpt>
      <trkpt lat="44.96439" lon="5.72224">
        <ele>842.5</ele>
        <time>2022-07-16T07:13:09Z</time>
      </trkpt>
      <trkpt lat="44.96436" lon="5.72219">
        <ele>842.7</ele>
        <time>2022-07-16T07:13:10Z</time>
      </trkpt>
      <trkpt lat="44.96429" lon="5.72212">
        <ele>843</ele>
        <time>2022-07-16T07:13:12Z</time>
      </trkpt>
      <trkpt lat="44.96426" lon="5.72209">
        <ele>843.2</ele>
        <time>2022-07-16T07:13:13Z</time>
      </trkpt>
      <trkpt lat="44.96419" lon="5.72204">
        <ele>843.5</ele>
        <time>2022-07-16T07:13:15Z</time>
      </trkpt>
      <trkpt lat="44.96414" lon="5.72199">
        <ele>843.8</ele>
        <time>2022-07-16T07:13:17Z</time>
      </trkpt>
      <trkpt lat="44.9641" lon="5.72196">
        <ele>844</ele>
        <time>2022-07-16T07:13:18Z</time>
      </trkpt>
      <trkpt lat="44.96406" lon="5.72194">
        <ele>844.2</ele>
        <time>2022-07-16T07:13:19Z</time>
      </trkpt>
      <trkpt lat="44.96404" lon="5.7219">
        <ele>844.3</ele>
        <time>2022-07-16T07:13:20Z</time>
      </trkpt>
      <trkpt lat="44.96401" lon="5.72188">
        <ele>844.5</ele>
        <time>2022-07-16T07:13:21Z</time>
      </trkpt>
      <trkpt lat="44.96394" lon="5.72184">
        <ele>844.9</ele>
        <time>2022-07-16T07:13:23Z</time>
      </trkpt>
      <trkpt lat="44.96387" lon="5.72179">
        <ele>845.3</ele>
        <time>2022-07-16T07:13:25Z</time>
      </trkpt>
      <trkpt lat="44.96383" lon="5.72175">
        <ele>845.6</ele>
        <time>2022-07-16T07:13:26Z</time>
      </trkpt>
      <trkpt lat="44.96379" lon="5.72166">
        <ele>846</ele>
        <time>2022-07-16T07:13:27Z</time>
      </trkpt>
      <trkpt lat="44.96378" lon="5.72155">
        <ele>846.4</ele>
        <time>2022-07-16T07:13:30Z</time>
      </trkpt>
      <trkpt lat="44.96377" lon="5.7215">
        <ele>846.7</ele>
        <time>2022-07-16T07:13:31Z</time>
      </trkpt>
      <trkpt lat="44.96377" lon="5.72141">
        <ele>846.8</ele>
        <time>2022-07-16T07:13:32Z</time>
      </trkpt>
      <trkpt lat="44.96379" lon="5.72136">
        <ele>846.8</ele>
        <time>2022-07-16T07:13:33Z</time>
      </trkpt>
      <trkpt lat="44.96381" lon="5.72129">
        <ele>846.8</ele>
        <time>2022-07-16T07:13:34Z</time>
      </trkpt>
      <trkpt lat="44.96382" lon="5.72121">
        <ele>846.9</ele>
        <time>2022-07-16T07:13:36Z</time>
      </trkpt>
      <trkpt lat="44.96385" lon="5.72118">
        <ele>847</ele>
        <time>2022-07-16T07:13:37Z</time>
      </trkpt>
      <trkpt lat="44.96392" lon="5.72113">
        <ele>847.1</ele>
        <time>2022-07-16T07:13:38Z</time>
      </trkpt>
      <trkpt lat="44.96399" lon="5.72108">
        <ele>847.2</ele>
        <time>2022-07-16T07:13:40Z</time>
      </trkpt>
      <trkpt lat="44.96404" lon="5.72105">
        <ele>847.3</ele>
        <time>2022-07-16T07:13:42Z</time>
      </trkpt>
      <trkpt lat="44.96407" lon="5.72102">
        <ele>847.4</ele>
        <time>2022-07-16T07:13:43Z</time>
      </trkpt>
      <trkpt lat="44.9641" lon="5.721">
        <ele>847.4</ele>
        <time>2022-07-16T07:13:44Z</time>
      </trkpt>
      <trkpt lat="44.96417" lon="5.72093">
        <ele>847.6</ele>
        <time>2022-07-16T07:13:46Z</time>
      </trkpt>
      <trkpt lat="44.9642" lon="5.72088">
        <ele>847.7</ele>
        <time>2022-07-16T07:13:47Z</time>
      </trkpt>
      <trkpt lat="44.96423" lon="5.72083">
        <ele>847.9</ele>
        <time>2022-07-16T07:13:48Z</time>
      </trkpt>
      <trkpt lat="44.96426" lon="5.72075">
        <ele>848</ele>
        <time>2022-07-16T07:13:50Z</time>
      </trkpt>
      <trkpt lat="44.96429" lon="5.72069">
        <ele>848.2</ele>
        <time>2022-07-16T07:13:51Z</time>
      </trkpt>
      <trkpt lat="44.96432" lon="5.72064">
        <ele>848.3</ele>
        <time>2022-07-16T07:13:52Z</time>
      </trkpt>
      <trkpt lat="44.9644" lon="5.72045">
        <ele>848.7</ele>
        <time>2022-07-16T07:13:55Z</time>
      </trkpt>
      <trkpt lat="44.96442" lon="5.7204">
        <ele>848.9</ele>
        <time>2022-07-16T07:13:57Z</time>
      </trkpt>
      <trkpt lat="44.96445" lon="5.72034">
        <ele>849</ele>
        <time>2022-07-16T07:13:58Z</time>
      </trkpt>
      <trkpt lat="44.96449" lon="5.72023">
        <ele>849.3</ele>
        <time>2022-07-16T07:14:00Z</time>
      </trkpt>
      <trkpt lat="44.96452" lon="5.72014">
        <ele>849.5</ele>
        <time>2022-07-16T07:14:02Z</time>
      </trkpt>
      <trkpt lat="44.96453" lon="5.72006">
        <ele>849.7</ele>
        <time>2022-07-16T07:14:03Z</time>
      </trkpt>
      <trkpt lat="44.96457" lon="5.71992">
        <ele>850</ele>
        <time>2022-07-16T07:14:06Z</time>
      </trkpt>
      <trkpt lat="44.96458" lon="5.71987">
        <ele>850.2</ele>
        <time>2022-07-16T07:14:07Z</time>
      </trkpt>
      <trkpt lat="44.96461" lon="5.7198">
        <ele>850.3</ele>
        <time>2022-07-16T07:14:08Z</time>
      </trkpt>
      <trkpt lat="44.96465" lon="5.71968">
        <ele>850.6</ele>
        <time>2022-07-16T07:14:10Z</time>
      </trkpt>
      <trkpt lat="44.96467" lon="5.71957">
        <ele>850.8</ele>
        <time>2022-07-16T07:14:12Z</time>
      </trkpt>
      <trkpt lat="44.96469" lon="5.71946">
        <ele>851</ele>
        <time>2022-07-16T07:14:14Z</time>
      </trkpt>
      <trkpt lat="44.96469" lon="5.71936">
        <ele>851.2</ele>
        <time>2022-07-16T07:14:16Z</time>
      </trkpt>
      <trkpt lat="44.9647" lon="5.71929">
        <ele>851.3</ele>
        <time>2022-07-16T07:14:17Z</time>
      </trkpt>
      <trkpt lat="44.96469" lon="5.71911">
        <ele>851.6</ele>
        <time>2022-07-16T07:14:18Z</time>
      </trkpt>
      <trkpt lat="44.96474" lon="5.71909">
        <ele>851.8</ele>
        <time>2022-07-16T07:14:19Z</time>
      </trkpt>
      <trkpt lat="44.96465" lon="5.71896">
        <ele>852.1</ele>
        <time>2022-07-16T07:14:22Z</time>
      </trkpt>
      <trkpt lat="44.96464" lon="5.71889">
        <ele>852.2</ele>
        <time>2022-07-16T07:14:23Z</time>
      </trkpt>
      <trkpt lat="44.96463" lon="5.71882">
        <ele>852.3</ele>
        <time>2022-07-16T07:14:24Z</time>
      </trkpt>
      <trkpt lat="44.96462" lon="5.71876">
        <ele>852.4</ele>
        <time>2022-07-16T07:14:25Z</time>
      </trkpt>
      <trkpt lat="44.9646" lon="5.71869">
        <ele>852.6</ele>
        <time>2022-07-16T07:14:26Z</time>
      </trkpt>
      <trkpt lat="44.96458" lon="5.71863">
        <ele>852.7</ele>
        <time>2022-07-16T07:14:27Z</time>
      </trkpt>
      <trkpt lat="44.96456" lon="5.71856">
        <ele>852.8</ele>
        <time>2022-07-16T07:14:28Z</time>
      </trkpt>
      <trkpt lat="44.96454" lon="5.71849">
        <ele>853</ele>
        <time>2022-07-16T07:14:29Z</time>
      </trkpt>
      <trkpt lat="44.96452" lon="5.71843">
        <ele>853.1</ele>
        <time>2022-07-16T07:14:30Z</time>
      </trkpt>
      <trkpt lat="44.96449" lon="5.71837">
        <ele>853.3</ele>
        <time>2022-07-16T07:14:31Z</time>
      </trkpt>
      <trkpt lat="44.96447" lon="5.71831">
        <ele>853.4</ele>
        <time>2022-07-16T07:14:32Z</time>
      </trkpt>
      <trkpt lat="44.96444" lon="5.71825">
        <ele>853.6</ele>
        <time>2022-07-16T07:14:33Z</time>
      </trkpt>
      <trkpt lat="44.96441" lon="5.71819">
        <ele>853.7</ele>
        <time>2022-07-16T07:14:34Z</time>
      </trkpt>
      <trkpt lat="44.96438" lon="5.71813">
        <ele>853.9</ele>
        <time>2022-07-16T07:14:35Z</time>
      </trkpt>
      <trkpt lat="44.96435" lon="5.71807">
        <ele>854</ele>
        <time>2022-07-16T07:14:36Z</time>
      </trkpt>
      <trkpt lat="44.96433" lon="5.71802">
        <ele>854.1</ele>
        <time>2022-07-16T07:14:37Z</time>
      </trkpt>
      <trkpt lat="44.9643" lon="5.71798">
        <ele>854.3</ele>
        <time>2022-07-16T07:14:38Z</time>
      </trkpt>
      <trkpt lat="44.96427" lon="5.71793">
        <ele>854.4</ele>
        <time>2022-07-16T07:14:39Z</time>
      </trkpt>
      <trkpt lat="44.96424" lon="5.71788">
        <ele>854.5</ele>
        <time>2022-07-16T07:14:40Z</time>
      </trkpt>
      <trkpt lat="44.96422" lon="5.71784">
        <ele>854.6</ele>
        <time>2022-07-16T07:14:41Z</time>
      </trkpt>
      <trkpt lat="44.96418" lon="5.71778">
        <ele>854.8</ele>
        <time>2022-07-16T07:14:42Z</time>
      </trkpt>
      <trkpt lat="44.96415" lon="5.71773">
        <ele>854.9</ele>
        <time>2022-07-16T07:14:43Z</time>
      </trkpt>
      <trkpt lat="44.96413" lon="5.7177">
        <ele>855</ele>
        <time>2022-07-16T07:14:44Z</time>
      </trkpt>
      <trkpt lat="44.9641" lon="5.71766">
        <ele>855.1</ele>
        <time>2022-07-16T07:14:45Z</time>
      </trkpt>
      <trkpt lat="44.96407" lon="5.71762">
        <ele>855.2</ele>
        <time>2022-07-16T07:14:46Z</time>
      </trkpt>
      <trkpt lat="44.96404" lon="5.71758">
        <ele>855.4</ele>
        <time>2022-07-16T07:14:47Z</time>
      </trkpt>
      <trkpt lat="44.964" lon="5.71754">
        <ele>855.5</ele>
        <time>2022-07-16T07:14:48Z</time>
      </trkpt>
      <trkpt lat="44.96396" lon="5.71756">
        <ele>855.6</ele>
        <time>2022-07-16T07:14:49Z</time>
      </trkpt>
      <trkpt lat="44.96391" lon="5.71741">
        <ele>856</ele>
        <time>2022-07-16T07:14:51Z</time>
      </trkpt>
      <trkpt lat="44.96387" lon="5.71736">
        <ele>856.1</ele>
        <time>2022-07-16T07:14:52Z</time>
      </trkpt>
      <trkpt lat="44.96381" lon="5.71731">
        <ele>856.3</ele>
        <time>2022-07-16T07:14:53Z</time>
      </trkpt>
      <trkpt lat="44.96375" lon="5.71725">
        <ele>856.5</ele>
        <time>2022-07-16T07:14:55Z</time>
      </trkpt>
      <trkpt lat="44.96371" lon="5.7172">
        <ele>856.6</ele>
        <time>2022-07-16T07:14:56Z</time>
      </trkpt>
      <trkpt lat="44.96367" lon="5.71715">
        <ele>856.7</ele>
        <time>2022-07-16T07:14:57Z</time>
      </trkpt>
      <trkpt lat="44.96365" lon="5.71713">
        <ele>856.7</ele>
        <time>2022-07-16T07:14:58Z</time>
      </trkpt>
      <trkpt lat="44.96358" lon="5.71704">
        <ele>856.9</ele>
        <time>2022-07-16T07:15:00Z</time>
      </trkpt>
      <trkpt lat="44.96348" lon="5.71693">
        <ele>857.2</ele>
        <time>2022-07-16T07:15:02Z</time>
      </trkpt>
      <trkpt lat="44.96341" lon="5.71687">
        <ele>857.4</ele>
        <time>2022-07-16T07:15:04Z</time>
      </trkpt>
      <trkpt lat="44.9634" lon="5.71686">
        <ele>857.4</ele>
        <time>2022-07-16T07:15:05Z</time>
      </trkpt>
      <trkpt lat="44.96331" lon="5.71676">
        <ele>857.7</ele>
        <time>2022-07-16T07:15:08Z</time>
      </trkpt>
      <trkpt lat="44.96327" lon="5.71672">
        <ele>857.8</ele>
        <time>2022-07-16T07:15:09Z</time>
      </trkpt>
      <trkpt lat="44.96323" lon="5.71667">
        <ele>857.9</ele>
        <time>2022-07-16T07:15:10Z</time>
      </trkpt>
      <trkpt lat="44.9632" lon="5.71664">
        <ele>858</ele>
        <time>2022-07-16T07:15:11Z</time>
      </trkpt>
      <trkpt lat="44.96316" lon="5.71659">
        <ele>858.1</ele>
        <time>2022-07-16T07:15:12Z</time>
      </trkpt>
      <trkpt lat="44.96312" lon="5.71655">
        <ele>858.2</ele>
        <time>2022-07-16T07:15:13Z</time>
      </trkpt>
      <trkpt lat="44.96308" lon="5.71651">
        <ele>858.3</ele>
        <time>2022-07-16T07:15:14Z</time>
      </trkpt>
      <trkpt lat="44.96304" lon="5.71647">
        <ele>858.4</ele>
        <time>2022-07-16T07:15:15Z</time>
      </trkpt>
      <trkpt lat="44.963" lon="5.71643">
        <ele>858.5</ele>
        <time>2022-07-16T07:15:16Z</time>
      </trkpt>
      <trkpt lat="44.96296" lon="5.71639">
        <ele>858.7</ele>
        <time>2022-07-16T07:15:17Z</time>
      </trkpt>
      <trkpt lat="44.96293" lon="5.71636">
        <ele>858.8</ele>
        <time>2022-07-16T07:15:18Z</time>
      </trkpt>
      <trkpt lat="44.96289" lon="5.71632">
        <ele>858.8</ele>
        <time>2022-07-16T07:15:19Z</time>
      </trkpt>
      <trkpt lat="44.96286" lon="5.71629">
        <ele>858.9</ele>
        <time>2022-07-16T07:15:20Z</time>
      </trkpt>
      <trkpt lat="44.96281" lon="5.71624">
        <ele>859</ele>
        <time>2022-07-16T07:15:21Z</time>
      </trkpt>
      <trkpt lat="44.96277" lon="5.71619">
        <ele>859.1</ele>
        <time>2022-07-16T07:15:22Z</time>
      </trkpt>
      <trkpt lat="44.96273" lon="5.71614">
        <ele>859.2</ele>
        <time>2022-07-16T07:15:23Z</time>
      </trkpt>
      <trkpt lat="44.96269" lon="5.7161">
        <ele>859.3</ele>
        <time>2022-07-16T07:15:24Z</time>
      </trkpt>
      <trkpt lat="44.96265" lon="5.71606">
        <ele>859.4</ele>
        <time>2022-07-16T07:15:25Z</time>
      </trkpt>
      <trkpt lat="44.9626" lon="5.71602">
        <ele>859.4</ele>
        <time>2022-07-16T07:15:26Z</time>
      </trkpt>
      <trkpt lat="44.96257" lon="5.71599">
        <ele>859.5</ele>
        <time>2022-07-16T07:15:27Z</time>
      </trkpt>
      <trkpt lat="44.96253" lon="5.71596">
        <ele>859.5</ele>
        <time>2022-07-16T07:15:28Z</time>
      </trkpt>
      <trkpt lat="44.96249" lon="5.71592">
        <ele>859.6</ele>
        <time>2022-07-16T07:15:29Z</time>
      </trkpt>
      <trkpt lat="44.96244" lon="5.71588">
        <ele>859.6</ele>
        <time>2022-07-16T07:15:30Z</time>
      </trkpt>
      <trkpt lat="44.9624" lon="5.71583">
        <ele>859.7</ele>
        <time>2022-07-16T07:15:31Z</time>
      </trkpt>
      <trkpt lat="44.96236" lon="5.71579">
        <ele>859.8</ele>
        <time>2022-07-16T07:15:32Z</time>
      </trkpt>
      <trkpt lat="44.96231" lon="5.71575">
        <ele>859.8</ele>
        <time>2022-07-16T07:15:33Z</time>
      </trkpt>
      <trkpt lat="44.96227" lon="5.71572">
        <ele>859.9</ele>
        <time>2022-07-16T07:15:34Z</time>
      </trkpt>
      <trkpt lat="44.96222" lon="5.71568">
        <ele>859.9</ele>
        <time>2022-07-16T07:15:35Z</time>
      </trkpt>
      <trkpt lat="44.96218" lon="5.71564">
        <ele>860</ele>
        <time>2022-07-16T07:15:36Z</time>
      </trkpt>
      <trkpt lat="44.96214" lon="5.71559">
        <ele>860</ele>
        <time>2022-07-16T07:15:37Z</time>
      </trkpt>
      <trkpt lat="44.96211" lon="5.71554">
        <ele>860.1</ele>
        <time>2022-07-16T07:15:38Z</time>
      </trkpt>
      <trkpt lat="44.96207" lon="5.71548">
        <ele>860.1</ele>
        <time>2022-07-16T07:15:39Z</time>
      </trkpt>
      <trkpt lat="44.96203" lon="5.71543">
        <ele>860.2</ele>
        <time>2022-07-16T07:15:40Z</time>
      </trkpt>
      <trkpt lat="44.962" lon="5.71537">
        <ele>860.2</ele>
        <time>2022-07-16T07:15:41Z</time>
      </trkpt>
      <trkpt lat="44.96198" lon="5.71531">
        <ele>860.3</ele>
        <time>2022-07-16T07:15:42Z</time>
      </trkpt>
      <trkpt lat="44.96196" lon="5.71525">
        <ele>860.3</ele>
        <time>2022-07-16T07:15:43Z</time>
      </trkpt>
      <trkpt lat="44.96194" lon="5.71519">
        <ele>860.4</ele>
        <time>2022-07-16T07:15:44Z</time>
      </trkpt>
      <trkpt lat="44.96192" lon="5.71513">
        <ele>860.4</ele>
        <time>2022-07-16T07:15:45Z</time>
      </trkpt>
      <trkpt lat="44.96192" lon="5.71509">
        <ele>860.4</ele>
        <time>2022-07-16T07:15:46Z</time>
      </trkpt>
      <trkpt lat="44.9619" lon="5.71501">
        <ele>860.4</ele>
        <time>2022-07-16T07:15:47Z</time>
      </trkpt>
      <trkpt lat="44.96188" lon="5.71494">
        <ele>860.5</ele>
        <time>2022-07-16T07:15:48Z</time>
      </trkpt>
      <trkpt lat="44.96188" lon="5.71488">
        <ele>860.5</ele>
        <time>2022-07-16T07:15:49Z</time>
      </trkpt>
      <trkpt lat="44.96188" lon="5.71482">
        <ele>860.5</ele>
        <time>2022-07-16T07:15:50Z</time>
      </trkpt>
      <trkpt lat="44.96187" lon="5.71475">
        <ele>860.5</ele>
        <time>2022-07-16T07:15:51Z</time>
      </trkpt>
      <trkpt lat="44.96187" lon="5.71468">
        <ele>860.5</ele>
        <time>2022-07-16T07:15:52Z</time>
      </trkpt>
      <trkpt lat="44.96187" lon="5.71461">
        <ele>860.5</ele>
        <time>2022-07-16T07:15:53Z</time>
      </trkpt>
      <trkpt lat="44.96187" lon="5.71454">
        <ele>860.5</ele>
        <time>2022-07-16T07:15:54Z</time>
      </trkpt>
      <trkpt lat="44.96188" lon="5.71447">
        <ele>860.5</ele>
        <time>2022-07-16T07:15:55Z</time>
      </trkpt>
      <trkpt lat="44.96188" lon="5.7144">
        <ele>860.4</ele>
        <time>2022-07-16T07:15:56Z</time>
      </trkpt>
      <trkpt lat="44.96189" lon="5.71433">
        <ele>860.4</ele>
        <time>2022-07-16T07:15:57Z</time>
      </trkpt>
      <trkpt lat="44.9619" lon="5.71426">
        <ele>860.3</ele>
        <time>2022-07-16T07:15:58Z</time>
      </trkpt>
      <trkpt lat="44.96191" lon="5.71419">
        <ele>860.3</ele>
        <time>2022-07-16T07:15:59Z</time>
      </trkpt>
      <trkpt lat="44.96192" lon="5.71412">
        <ele>860.2</ele>
        <time>2022-07-16T07:16:00Z</time>
      </trkpt>
      <trkpt lat="44.96194" lon="5.71405">
        <ele>860.1</ele>
        <time>2022-07-16T07:16:01Z</time>
      </trkpt>
      <trkpt lat="44.96195" lon="5.71398">
        <ele>860</ele>
        <time>2022-07-16T07:16:02Z</time>
      </trkpt>
      <trkpt lat="44.96197" lon="5.7139">
        <ele>859.9</ele>
        <time>2022-07-16T07:16:03Z</time>
      </trkpt>
      <trkpt lat="44.96198" lon="5.71382">
        <ele>859.8</ele>
        <time>2022-07-16T07:16:04Z</time>
      </trkpt>
      <trkpt lat="44.96199" lon="5.71374">
        <ele>859.7</ele>
        <time>2022-07-16T07:16:05Z</time>
      </trkpt>
      <trkpt lat="44.962" lon="5.71366">
        <ele>859.6</ele>
        <time>2022-07-16T07:16:06Z</time>
      </trkpt>
      <trkpt lat="44.96201" lon="5.71358">
        <ele>859.5</ele>
        <time>2022-07-16T07:16:07Z</time>
      </trkpt>
      <trkpt lat="44.96202" lon="5.7135">
        <ele>859.4</ele>
        <time>2022-07-16T07:16:08Z</time>
      </trkpt>
      <trkpt lat="44.96202" lon="5.71342">
        <ele>859.3</ele>
        <time>2022-07-16T07:16:09Z</time>
      </trkpt>
      <trkpt lat="44.96202" lon="5.71333">
        <ele>859.2</ele>
        <time>2022-07-16T07:16:10Z</time>
      </trkpt>
      <trkpt lat="44.96204" lon="5.71324">
        <ele>859.2</ele>
        <time>2022-07-16T07:16:11Z</time>
      </trkpt>
      <trkpt lat="44.96204" lon="5.71316">
        <ele>859.1</ele>
        <time>2022-07-16T07:16:12Z</time>
      </trkpt>
      <trkpt lat="44.96204" lon="5.71308">
        <ele>859</ele>
        <time>2022-07-16T07:16:13Z</time>
      </trkpt>
      <trkpt lat="44.96205" lon="5.713">
        <ele>858.9</ele>
        <time>2022-07-16T07:16:14Z</time>
      </trkpt>
      <trkpt lat="44.96206" lon="5.71293">
        <ele>858.8</ele>
        <time>2022-07-16T07:16:15Z</time>
      </trkpt>
      <trkpt lat="44.96207" lon="5.71284">
        <ele>858.8</ele>
        <time>2022-07-16T07:16:16Z</time>
      </trkpt>
      <trkpt lat="44.96208" lon="5.71276">
        <ele>858.7</ele>
        <time>2022-07-16T07:16:17Z</time>
      </trkpt>
      <trkpt lat="44.96207" lon="5.71267">
        <ele>858.6</ele>
        <time>2022-07-16T07:16:18Z</time>
      </trkpt>
      <trkpt lat="44.96207" lon="5.71257">
        <ele>858.4</ele>
        <time>2022-07-16T07:16:19Z</time>
      </trkpt>
      <trkpt lat="44.96208" lon="5.71248">
        <ele>858.3</ele>
        <time>2022-07-16T07:16:20Z</time>
      </trkpt>
      <trkpt lat="44.96208" lon="5.7124">
        <ele>858.3</ele>
        <time>2022-07-16T07:16:21Z</time>
      </trkpt>
      <trkpt lat="44.96209" lon="5.7123">
        <ele>858.2</ele>
        <time>2022-07-16T07:16:22Z</time>
      </trkpt>
      <trkpt lat="44.9621" lon="5.71221">
        <ele>858.1</ele>
        <time>2022-07-16T07:16:23Z</time>
      </trkpt>
      <trkpt lat="44.96211" lon="5.71211">
        <ele>858</ele>
        <time>2022-07-16T07:16:24Z</time>
      </trkpt>
      <trkpt lat="44.96212" lon="5.71203">
        <ele>857.9</ele>
        <time>2022-07-16T07:16:25Z</time>
      </trkpt>
      <trkpt lat="44.96211" lon="5.71194">
        <ele>857.8</ele>
        <time>2022-07-16T07:16:26Z</time>
      </trkpt>
      <trkpt lat="44.96211" lon="5.71185">
        <ele>857.7</ele>
        <time>2022-07-16T07:16:27Z</time>
      </trkpt>
      <trkpt lat="44.96211" lon="5.71176">
        <ele>857.6</ele>
        <time>2022-07-16T07:16:28Z</time>
      </trkpt>
      <trkpt lat="44.9621" lon="5.71166">
        <ele>857.4</ele>
        <time>2022-07-16T07:16:29Z</time>
      </trkpt>
      <trkpt lat="44.9621" lon="5.71157">
        <ele>857.4</ele>
        <time>2022-07-16T07:16:30Z</time>
      </trkpt>
      <trkpt lat="44.96209" lon="5.71148">
        <ele>857.3</ele>
        <time>2022-07-16T07:16:31Z</time>
      </trkpt>
      <trkpt lat="44.96209" lon="5.71139">
        <ele>857.1</ele>
        <time>2022-07-16T07:16:32Z</time>
      </trkpt>
      <trkpt lat="44.96208" lon="5.7113">
        <ele>857.1</ele>
        <time>2022-07-16T07:16:33Z</time>
      </trkpt>
      <trkpt lat="44.96209" lon="5.71121">
        <ele>857</ele>
        <time>2022-07-16T07:16:34Z</time>
      </trkpt>
      <trkpt lat="44.96209" lon="5.71112">
        <ele>856.9</ele>
        <time>2022-07-16T07:16:35Z</time>
      </trkpt>
      <trkpt lat="44.96209" lon="5.71102">
        <ele>856.8</ele>
        <time>2022-07-16T07:16:36Z</time>
      </trkpt>
      <trkpt lat="44.96209" lon="5.71093">
        <ele>856.7</ele>
        <time>2022-07-16T07:16:37Z</time>
      </trkpt>
      <trkpt lat="44.96209" lon="5.71084">
        <ele>856.6</ele>
        <time>2022-07-16T07:16:38Z</time>
      </trkpt>
      <trkpt lat="44.96208" lon="5.71074">
        <ele>856.5</ele>
        <time>2022-07-16T07:16:39Z</time>
      </trkpt>
      <trkpt lat="44.96208" lon="5.71064">
        <ele>856.4</ele>
        <time>2022-07-16T07:16:40Z</time>
      </trkpt>
      <trkpt lat="44.96208" lon="5.71055">
        <ele>856.3</ele>
        <time>2022-07-16T07:16:41Z</time>
      </trkpt>
      <trkpt lat="44.96208" lon="5.71045">
        <ele>856.3</ele>
        <time>2022-07-16T07:16:42Z</time>
      </trkpt>
      <trkpt lat="44.96207" lon="5.71036">
        <ele>856.2</ele>
        <time>2022-07-16T07:16:43Z</time>
      </trkpt>
      <trkpt lat="44.96207" lon="5.71026">
        <ele>856.1</ele>
        <time>2022-07-16T07:16:44Z</time>
      </trkpt>
      <trkpt lat="44.96206" lon="5.71017">
        <ele>856</ele>
        <time>2022-07-16T07:16:45Z</time>
      </trkpt>
      <trkpt lat="44.96205" lon="5.71008">
        <ele>855.9</ele>
        <time>2022-07-16T07:16:46Z</time>
      </trkpt>
      <trkpt lat="44.96204" lon="5.71">
        <ele>855.8</ele>
        <time>2022-07-16T07:16:47Z</time>
      </trkpt>
      <trkpt lat="44.96203" lon="5.7099">
        <ele>855.7</ele>
        <time>2022-07-16T07:16:48Z</time>
      </trkpt>
      <trkpt lat="44.96202" lon="5.70981">
        <ele>855.6</ele>
        <time>2022-07-16T07:16:49Z</time>
      </trkpt>
      <trkpt lat="44.96201" lon="5.70971">
        <ele>855.5</ele>
        <time>2022-07-16T07:16:50Z</time>
      </trkpt>
      <trkpt lat="44.962" lon="5.70961">
        <ele>855.3</ele>
        <time>2022-07-16T07:16:51Z</time>
      </trkpt>
      <trkpt lat="44.96199" lon="5.70952">
        <ele>855.2</ele>
        <time>2022-07-16T07:16:52Z</time>
      </trkpt>
      <trkpt lat="44.96197" lon="5.70943">
        <ele>855.1</ele>
        <time>2022-07-16T07:16:53Z</time>
      </trkpt>
      <trkpt lat="44.96195" lon="5.70934">
        <ele>855</ele>
        <time>2022-07-16T07:16:54Z</time>
      </trkpt>
      <trkpt lat="44.96194" lon="5.70925">
        <ele>854.9</ele>
        <time>2022-07-16T07:16:55Z</time>
      </trkpt>
      <trkpt lat="44.96192" lon="5.70916">
        <ele>854.8</ele>
        <time>2022-07-16T07:16:56Z</time>
      </trkpt>
      <trkpt lat="44.9619" lon="5.70906">
        <ele>854.7</ele>
        <time>2022-07-16T07:16:57Z</time>
      </trkpt>
      <trkpt lat="44.96188" lon="5.70897">
        <ele>854.6</ele>
        <time>2022-07-16T07:16:58Z</time>
      </trkpt>
      <trkpt lat="44.96185" lon="5.70889">
        <ele>854.5</ele>
        <time>2022-07-16T07:16:59Z</time>
      </trkpt>
      <trkpt lat="44.96182" lon="5.70881">
        <ele>854.4</ele>
        <time>2022-07-16T07:17:00Z</time>
      </trkpt>
      <trkpt lat="44.96179" lon="5.70872">
        <ele>854.3</ele>
        <time>2022-07-16T07:17:01Z</time>
      </trkpt>
      <trkpt lat="44.96176" lon="5.70863">
        <ele>854.2</ele>
        <time>2022-07-16T07:17:02Z</time>
      </trkpt>
      <trkpt lat="44.96173" lon="5.70854">
        <ele>854.1</ele>
        <time>2022-07-16T07:17:03Z</time>
      </trkpt>
      <trkpt lat="44.9617" lon="5.70845">
        <ele>854</ele>
        <time>2022-07-16T07:17:04Z</time>
      </trkpt>
      <trkpt lat="44.96166" lon="5.70837">
        <ele>853.9</ele>
        <time>2022-07-16T07:17:05Z</time>
      </trkpt>
      <trkpt lat="44.96163" lon="5.70827">
        <ele>853.7</ele>
        <time>2022-07-16T07:17:06Z</time>
      </trkpt>
      <trkpt lat="44.96161" lon="5.70818">
        <ele>853.6</ele>
        <time>2022-07-16T07:17:07Z</time>
      </trkpt>
      <trkpt lat="44.96158" lon="5.70808">
        <ele>853.6</ele>
        <time>2022-07-16T07:17:08Z</time>
      </trkpt>
      <trkpt lat="44.96156" lon="5.70799">
        <ele>853.5</ele>
        <time>2022-07-16T07:17:09Z</time>
      </trkpt>
      <trkpt lat="44.96154" lon="5.7079">
        <ele>853.4</ele>
        <time>2022-07-16T07:17:10Z</time>
      </trkpt>
      <trkpt lat="44.96152" lon="5.70781">
        <ele>853.3</ele>
        <time>2022-07-16T07:17:11Z</time>
      </trkpt>
      <trkpt lat="44.9615" lon="5.70771">
        <ele>853.2</ele>
        <time>2022-07-16T07:17:12Z</time>
      </trkpt>
      <trkpt lat="44.96149" lon="5.70761">
        <ele>853.1</ele>
        <time>2022-07-16T07:17:13Z</time>
      </trkpt>
      <trkpt lat="44.96148" lon="5.70752">
        <ele>853</ele>
        <time>2022-07-16T07:17:14Z</time>
      </trkpt>
      <trkpt lat="44.96147" lon="5.70743">
        <ele>852.9</ele>
        <time>2022-07-16T07:17:15Z</time>
      </trkpt>
      <trkpt lat="44.96146" lon="5.70734">
        <ele>852.8</ele>
        <time>2022-07-16T07:17:16Z</time>
      </trkpt>
      <trkpt lat="44.96144" lon="5.70724">
        <ele>852.7</ele>
        <time>2022-07-16T07:17:17Z</time>
      </trkpt>
      <trkpt lat="44.96143" lon="5.70714">
        <ele>852.6</ele>
        <time>2022-07-16T07:17:18Z</time>
      </trkpt>
      <trkpt lat="44.96142" lon="5.70705">
        <ele>852.5</ele>
        <time>2022-07-16T07:17:19Z</time>
      </trkpt>
      <trkpt lat="44.96141" lon="5.70696">
        <ele>852.4</ele>
        <time>2022-07-16T07:17:20Z</time>
      </trkpt>
      <trkpt lat="44.9614" lon="5.70686">
        <ele>852.4</ele>
        <time>2022-07-16T07:17:21Z</time>
      </trkpt>
      <trkpt lat="44.96139" lon="5.70677">
        <ele>852.3</ele>
        <time>2022-07-16T07:17:22Z</time>
      </trkpt>
      <trkpt lat="44.96138" lon="5.70669">
        <ele>852.3</ele>
        <time>2022-07-16T07:17:23Z</time>
      </trkpt>
      <trkpt lat="44.96137" lon="5.70659">
        <ele>852.2</ele>
        <time>2022-07-16T07:17:24Z</time>
      </trkpt>
      <trkpt lat="44.96136" lon="5.70649">
        <ele>852.1</ele>
        <time>2022-07-16T07:17:25Z</time>
      </trkpt>
      <trkpt lat="44.96135" lon="5.7064">
        <ele>852.1</ele>
        <time>2022-07-16T07:17:26Z</time>
      </trkpt>
      <trkpt lat="44.96133" lon="5.7063">
        <ele>852.1</ele>
        <time>2022-07-16T07:17:27Z</time>
      </trkpt>
      <trkpt lat="44.96132" lon="5.7062">
        <ele>852</ele>
        <time>2022-07-16T07:17:28Z</time>
      </trkpt>
      <trkpt lat="44.9613" lon="5.70611">
        <ele>852</ele>
        <time>2022-07-16T07:17:29Z</time>
      </trkpt>
      <trkpt lat="44.96129" lon="5.70602">
        <ele>851.9</ele>
        <time>2022-07-16T07:17:30Z</time>
      </trkpt>
      <trkpt lat="44.96129" lon="5.70593">
        <ele>851.8</ele>
        <time>2022-07-16T07:17:31Z</time>
      </trkpt>
      <trkpt lat="44.96129" lon="5.70584">
        <ele>851.7</ele>
        <time>2022-07-16T07:17:32Z</time>
      </trkpt>
      <trkpt lat="44.96128" lon="5.70575">
        <ele>851.6</ele>
        <time>2022-07-16T07:17:33Z</time>
      </trkpt>
      <trkpt lat="44.96128" lon="5.70565">
        <ele>851.5</ele>
        <time>2022-07-16T07:17:34Z</time>
      </trkpt>
      <trkpt lat="44.96127" lon="5.70556">
        <ele>851.4</ele>
        <time>2022-07-16T07:17:35Z</time>
      </trkpt>
      <trkpt lat="44.96126" lon="5.70546">
        <ele>851.3</ele>
        <time>2022-07-16T07:17:36Z</time>
      </trkpt>
      <trkpt lat="44.96125" lon="5.70537">
        <ele>851.2</ele>
        <time>2022-07-16T07:17:37Z</time>
      </trkpt>
      <trkpt lat="44.96125" lon="5.70528">
        <ele>851.1</ele>
        <time>2022-07-16T07:17:38Z</time>
      </trkpt>
      <trkpt lat="44.96125" lon="5.70519">
        <ele>851</ele>
        <time>2022-07-16T07:17:39Z</time>
      </trkpt>
      <trkpt lat="44.96124" lon="5.7051">
        <ele>850.9</ele>
        <time>2022-07-16T07:17:40Z</time>
      </trkpt>
      <trkpt lat="44.96124" lon="5.70502">
        <ele>850.8</ele>
        <time>2022-07-16T07:17:41Z</time>
      </trkpt>
      <trkpt lat="44.96124" lon="5.70493">
        <ele>850.7</ele>
        <time>2022-07-16T07:17:42Z</time>
      </trkpt>
      <trkpt lat="44.96124" lon="5.70484">
        <ele>850.6</ele>
        <time>2022-07-16T07:17:43Z</time>
      </trkpt>
      <trkpt lat="44.96126" lon="5.70475">
        <ele>850.5</ele>
        <time>2022-07-16T07:17:44Z</time>
      </trkpt>
      <trkpt lat="44.96128" lon="5.70467">
        <ele>850.4</ele>
        <time>2022-07-16T07:17:45Z</time>
      </trkpt>
      <trkpt lat="44.96132" lon="5.7046">
        <ele>850.2</ele>
        <time>2022-07-16T07:17:46Z</time>
      </trkpt>
      <trkpt lat="44.96137" lon="5.70453">
        <ele>850.1</ele>
        <time>2022-07-16T07:17:47Z</time>
      </trkpt>
      <trkpt lat="44.96142" lon="5.70448">
        <ele>849.9</ele>
        <time>2022-07-16T07:17:48Z</time>
      </trkpt>
      <trkpt lat="44.96147" lon="5.70444">
        <ele>849.8</ele>
        <time>2022-07-16T07:17:49Z</time>
      </trkpt>
      <trkpt lat="44.96153" lon="5.7044">
        <ele>849.6</ele>
        <time>2022-07-16T07:17:50Z</time>
      </trkpt>
      <trkpt lat="44.96157" lon="5.70436">
        <ele>849.5</ele>
        <time>2022-07-16T07:17:51Z</time>
      </trkpt>
      <trkpt lat="44.9616" lon="5.70431">
        <ele>849.5</ele>
        <time>2022-07-16T07:17:52Z</time>
      </trkpt>
      <trkpt lat="44.9616" lon="5.70427">
        <ele>849</ele>
        <time>2022-07-16T07:17:53Z</time>
      </trkpt>
      <trkpt lat="44.9616" lon="5.70426">
        <ele>849</ele>
        <time>2022-07-16T07:17:54Z</time>
      </trkpt>
      <trkpt lat="44.96158" lon="5.70423">
        <ele>848.8</ele>
        <time>2022-07-16T07:17:55Z</time>
      </trkpt>
      <trkpt lat="44.96158" lon="5.70422">
        <ele>848.7</ele>
        <time>2022-07-16T07:17:56Z</time>
      </trkpt>
      <trkpt lat="44.96157" lon="5.70422">
        <ele>848.7</ele>
        <time>2022-07-16T07:17:57Z</time>
      </trkpt>
      <trkpt lat="44.96156" lon="5.70422">
        <ele>848.6</ele>
        <time>2022-07-16T07:17:58Z</time>
      </trkpt>
      <trkpt lat="44.96156" lon="5.70422">
        <ele>848.6</ele>
        <time>2022-07-16T07:17:59Z</time>
      </trkpt>
      <trkpt lat="44.96156" lon="5.70423">
        <ele>848.6</ele>
        <time>2022-07-16T07:18:00Z</time>
      </trkpt>
      <trkpt lat="44.96155" lon="5.70423">
        <ele>848.5</ele>
        <time>2022-07-16T07:18:01Z</time>
      </trkpt>
      <trkpt lat="44.96155" lon="5.70423">
        <ele>848.5</ele>
        <time>2022-07-16T07:18:02Z</time>
      </trkpt>
      <trkpt lat="44.96155" lon="5.70424">
        <ele>848.5</ele>
        <time>2022-07-16T07:18:03Z</time>
      </trkpt>
      <trkpt lat="44.96154" lon="5.70424">
        <ele>848.5</ele>
        <time>2022-07-16T07:18:04Z</time>
      </trkpt>
      <trkpt lat="44.96154" lon="5.70424">
        <ele>848.4</ele>
        <time>2022-07-16T07:18:05Z</time>
      </trkpt>
      <trkpt lat="44.96154" lon="5.70425">
        <ele>848.4</ele>
        <time>2022-07-16T07:18:06Z</time>
      </trkpt>
      <trkpt lat="44.96153" lon="5.70425">
        <ele>848.4</ele>
        <time>2022-07-16T07:18:07Z</time>
      </trkpt>
      <trkpt lat="44.96153" lon="5.70425">
        <ele>848.3</ele>
        <time>2022-07-16T07:22:25Z</time>
      </trkpt>
      <trkpt lat="44.96152" lon="5.70426">
        <ele>848.3</ele>
        <time>2022-07-16T07:22:26Z</time>
      </trkpt>
      <trkpt lat="44.96152" lon="5.70426">
        <ele>848.3</ele>
        <time>2022-07-16T07:22:27Z</time>
      </trkpt>
      <trkpt lat="44.96147" lon="5.70425">
        <ele>847.9</ele>
        <time>2022-07-16T07:22:28Z</time>
      </trkpt>
      <trkpt lat="44.96139" lon="5.70423">
        <ele>847.3</ele>
        <time>2022-07-16T07:22:29Z</time>
      </trkpt>
      <trkpt lat="44.96128" lon="5.70424">
        <ele>846.6</ele>
        <time>2022-07-16T07:22:32Z</time>
      </trkpt>
      <trkpt lat="44.96122" lon="5.70426">
        <ele>846.2</ele>
        <time>2022-07-16T07:22:33Z</time>
      </trkpt>
      <trkpt lat="44.96116" lon="5.70429">
        <ele>845.8</ele>
        <time>2022-07-16T07:22:34Z</time>
      </trkpt>
      <trkpt lat="44.96111" lon="5.70435">
        <ele>845.4</ele>
        <time>2022-07-16T07:22:35Z</time>
      </trkpt>
      <trkpt lat="44.96108" lon="5.70443">
        <ele>844.9</ele>
        <time>2022-07-16T07:22:36Z</time>
      </trkpt>
      <trkpt lat="44.96106" lon="5.70452">
        <ele>844.4</ele>
        <time>2022-07-16T07:22:37Z</time>
      </trkpt>
      <trkpt lat="44.96105" lon="5.70463">
        <ele>843.8</ele>
        <time>2022-07-16T07:22:38Z</time>
      </trkpt>
      <trkpt lat="44.96104" lon="5.70475">
        <ele>843.3</ele>
        <time>2022-07-16T07:22:39Z</time>
      </trkpt>
      <trkpt lat="44.96103" lon="5.70487">
        <ele>842.6</ele>
        <time>2022-07-16T07:22:40Z</time>
      </trkpt>
      <trkpt lat="44.96103" lon="5.70499">
        <ele>842</ele>
        <time>2022-07-16T07:22:41Z</time>
      </trkpt>
      <trkpt lat="44.96101" lon="5.70513">
        <ele>841.3</ele>
        <time>2022-07-16T07:22:42Z</time>
      </trkpt>
      <trkpt lat="44.961" lon="5.70526">
        <ele>840.7</ele>
        <time>2022-07-16T07:22:43Z</time>
      </trkpt>
      <trkpt lat="44.96099" lon="5.70539">
        <ele>840.1</ele>
        <time>2022-07-16T07:22:44Z</time>
      </trkpt>
      <trkpt lat="44.96098" lon="5.70553">
        <ele>839.5</ele>
        <time>2022-07-16T07:22:45Z</time>
      </trkpt>
      <trkpt lat="44.96097" lon="5.70568">
        <ele>838.7</ele>
        <time>2022-07-16T07:22:46Z</time>
      </trkpt>
      <trkpt lat="44.96095" lon="5.70582">
        <ele>838.1</ele>
        <time>2022-07-16T07:22:47Z</time>
      </trkpt>
      <trkpt lat="44.96093" lon="5.70596">
        <ele>837.2</ele>
        <time>2022-07-16T07:22:48Z</time>
      </trkpt>
      <trkpt lat="44.96091" lon="5.70611">
        <ele>836.3</ele>
        <time>2022-07-16T07:22:49Z</time>
      </trkpt>
      <trkpt lat="44.9609" lon="5.70627">
        <ele>835.3</ele>
        <time>2022-07-16T07:22:50Z</time>
      </trkpt>
      <trkpt lat="44.9609" lon="5.70643">
        <ele>834.4</ele>
        <time>2022-07-16T07:22:51Z</time>
      </trkpt>
      <trkpt lat="44.9609" lon="5.70658">
        <ele>833.5</ele>
        <time>2022-07-16T07:22:52Z</time>
      </trkpt>
      <trkpt lat="44.96089" lon="5.70675">
        <ele>832.5</ele>
        <time>2022-07-16T07:22:53Z</time>
      </trkpt>
      <trkpt lat="44.9609" lon="5.70691">
        <ele>831.6</ele>
        <time>2022-07-16T07:22:54Z</time>
      </trkpt>
      <trkpt lat="44.96092" lon="5.70707">
        <ele>830.7</ele>
        <time>2022-07-16T07:22:55Z</time>
      </trkpt>
      <trkpt lat="44.96093" lon="5.70723">
        <ele>829.7</ele>
        <time>2022-07-16T07:22:56Z</time>
      </trkpt>
      <trkpt lat="44.96094" lon="5.7074">
        <ele>828.7</ele>
        <time>2022-07-16T07:22:57Z</time>
      </trkpt>
      <trkpt lat="44.96094" lon="5.70758">
        <ele>827.7</ele>
        <time>2022-07-16T07:22:58Z</time>
      </trkpt>
      <trkpt lat="44.96094" lon="5.70776">
        <ele>826.7</ele>
        <time>2022-07-16T07:22:59Z</time>
      </trkpt>
      <trkpt lat="44.96094" lon="5.70794">
        <ele>825.6</ele>
        <time>2022-07-16T07:23:00Z</time>
      </trkpt>
      <trkpt lat="44.96095" lon="5.70811">
        <ele>824.6</ele>
        <time>2022-07-16T07:23:01Z</time>
      </trkpt>
      <trkpt lat="44.96096" lon="5.7083">
        <ele>823.5</ele>
        <time>2022-07-16T07:23:02Z</time>
      </trkpt>
      <trkpt lat="44.96098" lon="5.70848">
        <ele>822.4</ele>
        <time>2022-07-16T07:23:03Z</time>
      </trkpt>
      <trkpt lat="44.961" lon="5.70867">
        <ele>821.3</ele>
        <time>2022-07-16T07:23:04Z</time>
      </trkpt>
      <trkpt lat="44.96102" lon="5.70884">
        <ele>820.2</ele>
        <time>2022-07-16T07:23:05Z</time>
      </trkpt>
      <trkpt lat="44.96105" lon="5.70902">
        <ele>819.3</ele>
        <time>2022-07-16T07:23:06Z</time>
      </trkpt>
      <trkpt lat="44.96108" lon="5.7092">
        <ele>818.3</ele>
        <time>2022-07-16T07:23:07Z</time>
      </trkpt>
      <trkpt lat="44.9611" lon="5.70939">
        <ele>817.3</ele>
        <time>2022-07-16T07:23:08Z</time>
      </trkpt>
      <trkpt lat="44.96112" lon="5.70958">
        <ele>816.3</ele>
        <time>2022-07-16T07:23:09Z</time>
      </trkpt>
      <trkpt lat="44.96114" lon="5.70977">
        <ele>815.3</ele>
        <time>2022-07-16T07:23:10Z</time>
      </trkpt>
      <trkpt lat="44.96115" lon="5.70996">
        <ele>814.2</ele>
        <time>2022-07-16T07:23:11Z</time>
      </trkpt>
      <trkpt lat="44.96116" lon="5.71015">
        <ele>813.1</ele>
        <time>2022-07-16T07:23:12Z</time>
      </trkpt>
      <trkpt lat="44.96114" lon="5.71034">
        <ele>812</ele>
        <time>2022-07-16T07:23:13Z</time>
      </trkpt>
      <trkpt lat="44.96113" lon="5.71054">
        <ele>810.9</ele>
        <time>2022-07-16T07:23:14Z</time>
      </trkpt>
      <trkpt lat="44.96112" lon="5.71073">
        <ele>809.9</ele>
        <time>2022-07-16T07:23:15Z</time>
      </trkpt>
      <trkpt lat="44.96111" lon="5.71091">
        <ele>808.9</ele>
        <time>2022-07-16T07:23:16Z</time>
      </trkpt>
      <trkpt lat="44.96111" lon="5.7111">
        <ele>807.9</ele>
        <time>2022-07-16T07:23:17Z</time>
      </trkpt>
      <trkpt lat="44.9611" lon="5.71128">
        <ele>806.8</ele>
        <time>2022-07-16T07:23:18Z</time>
      </trkpt>
      <trkpt lat="44.96107" lon="5.71147">
        <ele>805.7</ele>
        <time>2022-07-16T07:23:19Z</time>
      </trkpt>
      <trkpt lat="44.96103" lon="5.71165">
        <ele>804.7</ele>
        <time>2022-07-16T07:23:20Z</time>
      </trkpt>
      <trkpt lat="44.961" lon="5.71184">
        <ele>803.6</ele>
        <time>2022-07-16T07:23:21Z</time>
      </trkpt>
      <trkpt lat="44.96095" lon="5.71202">
        <ele>802.5</ele>
        <time>2022-07-16T07:23:22Z</time>
      </trkpt>
      <trkpt lat="44.9609" lon="5.7122">
        <ele>801.4</ele>
        <time>2022-07-16T07:23:23Z</time>
      </trkpt>
      <trkpt lat="44.96085" lon="5.71239">
        <ele>800.3</ele>
        <time>2022-07-16T07:23:24Z</time>
      </trkpt>
      <trkpt lat="44.96081" lon="5.71257">
        <ele>799.2</ele>
        <time>2022-07-16T07:23:25Z</time>
      </trkpt>
      <trkpt lat="44.96077" lon="5.71276">
        <ele>798.1</ele>
        <time>2022-07-16T07:23:26Z</time>
      </trkpt>
      <trkpt lat="44.96075" lon="5.71295">
        <ele>797.1</ele>
        <time>2022-07-16T07:23:27Z</time>
      </trkpt>
      <trkpt lat="44.96074" lon="5.71314">
        <ele>796.1</ele>
        <time>2022-07-16T07:23:28Z</time>
      </trkpt>
      <trkpt lat="44.96074" lon="5.71332">
        <ele>795.2</ele>
        <time>2022-07-16T07:23:29Z</time>
      </trkpt>
      <trkpt lat="44.96075" lon="5.7135">
        <ele>794.2</ele>
        <time>2022-07-16T07:23:30Z</time>
      </trkpt>
      <trkpt lat="44.96074" lon="5.71369">
        <ele>793.2</ele>
        <time>2022-07-16T07:23:31Z</time>
      </trkpt>
      <trkpt lat="44.96071" lon="5.71388">
        <ele>792.2</ele>
        <time>2022-07-16T07:23:32Z</time>
      </trkpt>
      <trkpt lat="44.96068" lon="5.71407">
        <ele>791.2</ele>
        <time>2022-07-16T07:23:33Z</time>
      </trkpt>
      <trkpt lat="44.96065" lon="5.71425">
        <ele>790.3</ele>
        <time>2022-07-16T07:23:34Z</time>
      </trkpt>
      <trkpt lat="44.9606" lon="5.71442">
        <ele>789.3</ele>
        <time>2022-07-16T07:23:35Z</time>
      </trkpt>
      <trkpt lat="44.96052" lon="5.71457">
        <ele>788.3</ele>
        <time>2022-07-16T07:23:36Z</time>
      </trkpt>
      <trkpt lat="44.96043" lon="5.71471">
        <ele>787.3</ele>
        <time>2022-07-16T07:23:37Z</time>
      </trkpt>
      <trkpt lat="44.96035" lon="5.71485">
        <ele>786.3</ele>
        <time>2022-07-16T07:23:38Z</time>
      </trkpt>
      <trkpt lat="44.96025" lon="5.71497">
        <ele>785.2</ele>
        <time>2022-07-16T07:23:39Z</time>
      </trkpt>
      <trkpt lat="44.96014" lon="5.71509">
        <ele>784.1</ele>
        <time>2022-07-16T07:23:40Z</time>
      </trkpt>
      <trkpt lat="44.96005" lon="5.7152">
        <ele>783</ele>
        <time>2022-07-16T07:23:41Z</time>
      </trkpt>
      <trkpt lat="44.95996" lon="5.71534">
        <ele>782</ele>
        <time>2022-07-16T07:23:42Z</time>
      </trkpt>
      <trkpt lat="44.95988" lon="5.71548">
        <ele>781</ele>
        <time>2022-07-16T07:23:43Z</time>
      </trkpt>
      <trkpt lat="44.95984" lon="5.71562">
        <ele>780.1</ele>
        <time>2022-07-16T07:23:44Z</time>
      </trkpt>
      <trkpt lat="44.95982" lon="5.71577">
        <ele>779.4</ele>
        <time>2022-07-16T07:23:45Z</time>
      </trkpt>
      <trkpt lat="44.95985" lon="5.71591">
        <ele>778.5</ele>
        <time>2022-07-16T07:23:46Z</time>
      </trkpt>
      <trkpt lat="44.95989" lon="5.71605">
        <ele>777.6</ele>
        <time>2022-07-16T07:23:47Z</time>
      </trkpt>
      <trkpt lat="44.95993" lon="5.71619">
        <ele>776.8</ele>
        <time>2022-07-16T07:23:48Z</time>
      </trkpt>
      <trkpt lat="44.95997" lon="5.71634">
        <ele>775.9</ele>
        <time>2022-07-16T07:23:49Z</time>
      </trkpt>
      <trkpt lat="44.96" lon="5.71649">
        <ele>775.1</ele>
        <time>2022-07-16T07:23:50Z</time>
      </trkpt>
      <trkpt lat="44.96003" lon="5.71664">
        <ele>774.4</ele>
        <time>2022-07-16T07:23:51Z</time>
      </trkpt>
      <trkpt lat="44.96007" lon="5.71679">
        <ele>773.7</ele>
        <time>2022-07-16T07:23:52Z</time>
      </trkpt>
      <trkpt lat="44.96012" lon="5.71692">
        <ele>773.1</ele>
        <time>2022-07-16T07:23:53Z</time>
      </trkpt>
      <trkpt lat="44.96017" lon="5.71703">
        <ele>772.7</ele>
        <time>2022-07-16T07:23:54Z</time>
      </trkpt>
      <trkpt lat="44.96022" lon="5.71711">
        <ele>772.6</ele>
        <time>2022-07-16T07:23:55Z</time>
      </trkpt>
      <trkpt lat="44.96026" lon="5.71718">
        <ele>772.6</ele>
        <time>2022-07-16T07:23:56Z</time>
      </trkpt>
      <trkpt lat="44.96028" lon="5.71724">
        <ele>772.6</ele>
        <time>2022-07-16T07:23:57Z</time>
      </trkpt>
      <trkpt lat="44.96027" lon="5.7173">
        <ele>772.6</ele>
        <time>2022-07-16T07:23:58Z</time>
      </trkpt>
      <trkpt lat="44.96023" lon="5.71724">
        <ele>772.5</ele>
        <time>2022-07-16T07:23:59Z</time>
      </trkpt>
      <trkpt lat="44.96021" lon="5.71719">
        <ele>772.5</ele>
        <time>2022-07-16T07:24:00Z</time>
      </trkpt>
      <trkpt lat="44.96013" lon="5.71706">
        <ele>771.2</ele>
        <time>2022-07-16T07:24:01Z</time>
      </trkpt>
      <trkpt lat="44.96006" lon="5.71693">
        <ele>770</ele>
        <time>2022-07-16T07:24:02Z</time>
      </trkpt>
      <trkpt lat="44.95999" lon="5.71681">
        <ele>769</ele>
        <time>2022-07-16T07:24:03Z</time>
      </trkpt>
      <trkpt lat="44.95993" lon="5.7167">
        <ele>768</ele>
        <time>2022-07-16T07:24:04Z</time>
      </trkpt>
      <trkpt lat="44.95987" lon="5.71659">
        <ele>767.1</ele>
        <time>2022-07-16T07:24:05Z</time>
      </trkpt>
      <trkpt lat="44.95982" lon="5.71646">
        <ele>766.2</ele>
        <time>2022-07-16T07:24:06Z</time>
      </trkpt>
      <trkpt lat="44.95976" lon="5.71634">
        <ele>765.1</ele>
        <time>2022-07-16T07:24:07Z</time>
      </trkpt>
      <trkpt lat="44.95968" lon="5.71626">
        <ele>764.2</ele>
        <time>2022-07-16T07:24:08Z</time>
      </trkpt>
      <trkpt lat="44.95959" lon="5.71621">
        <ele>763.3</ele>
        <time>2022-07-16T07:24:09Z</time>
      </trkpt>
      <trkpt lat="44.95949" lon="5.71615">
        <ele>762.3</ele>
        <time>2022-07-16T07:24:10Z</time>
      </trkpt>
      <trkpt lat="44.9594" lon="5.71608">
        <ele>761.4</ele>
        <time>2022-07-16T07:24:11Z</time>
      </trkpt>
      <trkpt lat="44.95934" lon="5.71597">
        <ele>760.5</ele>
        <time>2022-07-16T07:24:12Z</time>
      </trkpt>
      <trkpt lat="44.95932" lon="5.71585">
        <ele>759.6</ele>
        <time>2022-07-16T07:24:13Z</time>
      </trkpt>
      <trkpt lat="44.95935" lon="5.71571">
        <ele>758.5</ele>
        <time>2022-07-16T07:24:14Z</time>
      </trkpt>
      <trkpt lat="44.95939" lon="5.71557">
        <ele>757.3</ele>
        <time>2022-07-16T07:24:15Z</time>
      </trkpt>
      <trkpt lat="44.95943" lon="5.71543">
        <ele>756</ele>
        <time>2022-07-16T07:24:16Z</time>
      </trkpt>
      <trkpt lat="44.95945" lon="5.71527">
        <ele>754.9</ele>
        <time>2022-07-16T07:24:17Z</time>
      </trkpt>
      <trkpt lat="44.95943" lon="5.71513">
        <ele>753.9</ele>
        <time>2022-07-16T07:24:18Z</time>
      </trkpt>
      <trkpt lat="44.9594" lon="5.71498">
        <ele>752.9</ele>
        <time>2022-07-16T07:24:19Z</time>
      </trkpt>
      <trkpt lat="44.95935" lon="5.71484">
        <ele>751.9</ele>
        <time>2022-07-16T07:24:20Z</time>
      </trkpt>
      <trkpt lat="44.95929" lon="5.71469">
        <ele>750.9</ele>
        <time>2022-07-16T07:24:21Z</time>
      </trkpt>
      <trkpt lat="44.95924" lon="5.71454">
        <ele>750</ele>
        <time>2022-07-16T07:24:22Z</time>
      </trkpt>
      <trkpt lat="44.95918" lon="5.71439">
        <ele>749</ele>
        <time>2022-07-16T07:24:23Z</time>
      </trkpt>
      <trkpt lat="44.95911" lon="5.71425">
        <ele>748</ele>
        <time>2022-07-16T07:24:24Z</time>
      </trkpt>
      <trkpt lat="44.95905" lon="5.71412">
        <ele>746.9</ele>
        <time>2022-07-16T07:24:25Z</time>
      </trkpt>
      <trkpt lat="44.95897" lon="5.71398">
        <ele>745.8</ele>
        <time>2022-07-16T07:24:26Z</time>
      </trkpt>
      <trkpt lat="44.9589" lon="5.71384">
        <ele>744.7</ele>
        <time>2022-07-16T07:24:27Z</time>
      </trkpt>
      <trkpt lat="44.95881" lon="5.71371">
        <ele>743.6</ele>
        <time>2022-07-16T07:24:28Z</time>
      </trkpt>
      <trkpt lat="44.95872" lon="5.71359">
        <ele>742.6</ele>
        <time>2022-07-16T07:24:29Z</time>
      </trkpt>
      <trkpt lat="44.95863" lon="5.71347">
        <ele>741.6</ele>
        <time>2022-07-16T07:24:30Z</time>
      </trkpt>
      <trkpt lat="44.95852" lon="5.71336">
        <ele>740.6</ele>
        <time>2022-07-16T07:24:31Z</time>
      </trkpt>
      <trkpt lat="44.95842" lon="5.71326">
        <ele>739.7</ele>
        <time>2022-07-16T07:24:32Z</time>
      </trkpt>
      <trkpt lat="44.95831" lon="5.71316">
        <ele>738.7</ele>
        <time>2022-07-16T07:24:33Z</time>
      </trkpt>
      <trkpt lat="44.95822" lon="5.71304">
        <ele>737.6</ele>
        <time>2022-07-16T07:24:34Z</time>
      </trkpt>
      <trkpt lat="44.95815" lon="5.7129">
        <ele>736.6</ele>
        <time>2022-07-16T07:24:35Z</time>
      </trkpt>
      <trkpt lat="44.9581" lon="5.71274">
        <ele>735.5</ele>
        <time>2022-07-16T07:24:36Z</time>
      </trkpt>
      <trkpt lat="44.95807" lon="5.71257">
        <ele>734.4</ele>
        <time>2022-07-16T07:24:37Z</time>
      </trkpt>
      <trkpt lat="44.95804" lon="5.71239">
        <ele>733.2</ele>
        <time>2022-07-16T07:24:38Z</time>
      </trkpt>
      <trkpt lat="44.95803" lon="5.71221">
        <ele>732.1</ele>
        <time>2022-07-16T07:24:39Z</time>
      </trkpt>
      <trkpt lat="44.95803" lon="5.71202">
        <ele>731.1</ele>
        <time>2022-07-16T07:24:40Z</time>
      </trkpt>
      <trkpt lat="44.95803" lon="5.71184">
        <ele>730</ele>
        <time>2022-07-16T07:24:41Z</time>
      </trkpt>
      <trkpt lat="44.95804" lon="5.71166">
        <ele>729</ele>
        <time>2022-07-16T07:24:42Z</time>
      </trkpt>
      <trkpt lat="44.95804" lon="5.71147">
        <ele>727.9</ele>
        <time>2022-07-16T07:24:43Z</time>
      </trkpt>
      <trkpt lat="44.95802" lon="5.71129">
        <ele>726.8</ele>
        <time>2022-07-16T07:24:44Z</time>
      </trkpt>
      <trkpt lat="44.95798" lon="5.71111">
        <ele>725.8</ele>
        <time>2022-07-16T07:24:45Z</time>
      </trkpt>
      <trkpt lat="44.95793" lon="5.71094">
        <ele>724.8</ele>
        <time>2022-07-16T07:24:46Z</time>
      </trkpt>
      <trkpt lat="44.95787" lon="5.71078">
        <ele>724</ele>
        <time>2022-07-16T07:24:47Z</time>
      </trkpt>
      <trkpt lat="44.95779" lon="5.71062">
        <ele>723</ele>
        <time>2022-07-16T07:24:48Z</time>
      </trkpt>
      <trkpt lat="44.9577" lon="5.7105">
        <ele>722.1</ele>
        <time>2022-07-16T07:24:49Z</time>
      </trkpt>
      <trkpt lat="44.95759" lon="5.71041">
        <ele>721.2</ele>
        <time>2022-07-16T07:24:50Z</time>
      </trkpt>
      <trkpt lat="44.95749" lon="5.71034">
        <ele>720.3</ele>
        <time>2022-07-16T07:24:51Z</time>
      </trkpt>
      <trkpt lat="44.95739" lon="5.71026">
        <ele>719.3</ele>
        <time>2022-07-16T07:24:52Z</time>
      </trkpt>
      <trkpt lat="44.9573" lon="5.71014">
        <ele>718.3</ele>
        <time>2022-07-16T07:24:53Z</time>
      </trkpt>
      <trkpt lat="44.95724" lon="5.71">
        <ele>717.4</ele>
        <time>2022-07-16T07:24:54Z</time>
      </trkpt>
      <trkpt lat="44.95717" lon="5.70985">
        <ele>716.5</ele>
        <time>2022-07-16T07:24:55Z</time>
      </trkpt>
      <trkpt lat="44.95711" lon="5.70971">
        <ele>715.8</ele>
        <time>2022-07-16T07:24:56Z</time>
      </trkpt>
      <trkpt lat="44.95707" lon="5.70957">
        <ele>715.4</ele>
        <time>2022-07-16T07:24:57Z</time>
      </trkpt>
      <trkpt lat="44.95705" lon="5.70944">
        <ele>715</ele>
        <time>2022-07-16T07:24:58Z</time>
      </trkpt>
      <trkpt lat="44.95703" lon="5.70932">
        <ele>714.6</ele>
        <time>2022-07-16T07:24:59Z</time>
      </trkpt>
      <trkpt lat="44.957" lon="5.70926">
        <ele>714.2</ele>
        <time>2022-07-16T07:25:00Z</time>
      </trkpt>
      <trkpt lat="44.95695" lon="5.70924">
        <ele>713.8</ele>
        <time>2022-07-16T07:25:01Z</time>
      </trkpt>
      <trkpt lat="44.95692" lon="5.70928">
        <ele>713.3</ele>
        <time>2022-07-16T07:25:02Z</time>
      </trkpt>
      <trkpt lat="44.9569" lon="5.70936">
        <ele>712.7</ele>
        <time>2022-07-16T07:25:03Z</time>
      </trkpt>
      <trkpt lat="44.95689" lon="5.70946">
        <ele>712</ele>
        <time>2022-07-16T07:25:04Z</time>
      </trkpt>
      <trkpt lat="44.95689" lon="5.70958">
        <ele>711.2</ele>
        <time>2022-07-16T07:25:05Z</time>
      </trkpt>
      <trkpt lat="44.95689" lon="5.70971">
        <ele>710.4</ele>
        <time>2022-07-16T07:25:06Z</time>
      </trkpt>
      <trkpt lat="44.95689" lon="5.70983">
        <ele>709.8</ele>
        <time>2022-07-16T07:25:07Z</time>
      </trkpt>
      <trkpt lat="44.95689" lon="5.70996">
        <ele>709.3</ele>
        <time>2022-07-16T07:25:08Z</time>
      </trkpt>
      <trkpt lat="44.95689" lon="5.71007">
        <ele>708.8</ele>
        <time>2022-07-16T07:25:09Z</time>
      </trkpt>
      <trkpt lat="44.9569" lon="5.71019">
        <ele>708.4</ele>
        <time>2022-07-16T07:25:10Z</time>
      </trkpt>
      <trkpt lat="44.95692" lon="5.71031">
        <ele>707.9</ele>
        <time>2022-07-16T07:25:11Z</time>
      </trkpt>
      <trkpt lat="44.95695" lon="5.7104">
        <ele>707.5</ele>
        <time>2022-07-16T07:25:12Z</time>
      </trkpt>
      <trkpt lat="44.95698" lon="5.71049">
        <ele>707.2</ele>
        <time>2022-07-16T07:25:13Z</time>
      </trkpt>
      <trkpt lat="44.95702" lon="5.71056">
        <ele>706.9</ele>
        <time>2022-07-16T07:25:14Z</time>
      </trkpt>
      <trkpt lat="44.95704" lon="5.71064">
        <ele>706.7</ele>
        <time>2022-07-16T07:25:15Z</time>
      </trkpt>
      <trkpt lat="44.95705" lon="5.71071">
        <ele>706.6</ele>
        <time>2022-07-16T07:25:16Z</time>
      </trkpt>
      <trkpt lat="44.95705" lon="5.71078">
        <ele>706.6</ele>
        <time>2022-07-16T07:25:17Z</time>
      </trkpt>
      <trkpt lat="44.95704" lon="5.71085">
        <ele>706.5</ele>
        <time>2022-07-16T07:25:18Z</time>
      </trkpt>
      <trkpt lat="44.95703" lon="5.71092">
        <ele>706.3</ele>
        <time>2022-07-16T07:25:19Z</time>
      </trkpt>
      <trkpt lat="44.95704" lon="5.711">
        <ele>705.9</ele>
        <time>2022-07-16T07:25:20Z</time>
      </trkpt>
      <trkpt lat="44.95705" lon="5.71108">
        <ele>705.4</ele>
        <time>2022-07-16T07:25:21Z</time>
      </trkpt>
      <trkpt lat="44.95706" lon="5.71117">
        <ele>704.7</ele>
        <time>2022-07-16T07:25:22Z</time>
      </trkpt>
      <trkpt lat="44.95708" lon="5.71126">
        <ele>704</ele>
        <time>2022-07-16T07:25:23Z</time>
      </trkpt>
      <trkpt lat="44.95709" lon="5.71137">
        <ele>703.3</ele>
        <time>2022-07-16T07:25:24Z</time>
      </trkpt>
      <trkpt lat="44.9571" lon="5.71148">
        <ele>702.5</ele>
        <time>2022-07-16T07:25:25Z</time>
      </trkpt>
      <trkpt lat="44.9571" lon="5.7116">
        <ele>701.6</ele>
        <time>2022-07-16T07:25:26Z</time>
      </trkpt>
      <trkpt lat="44.95708" lon="5.71173">
        <ele>700.7</ele>
        <time>2022-07-16T07:25:27Z</time>
      </trkpt>
      <trkpt lat="44.95706" lon="5.71186">
        <ele>699.9</ele>
        <time>2022-07-16T07:25:28Z</time>
      </trkpt>
      <trkpt lat="44.95703" lon="5.71199">
        <ele>698.9</ele>
        <time>2022-07-16T07:25:29Z</time>
      </trkpt>
      <trkpt lat="44.95698" lon="5.71211">
        <ele>698</ele>
        <time>2022-07-16T07:25:30Z</time>
      </trkpt>
      <trkpt lat="44.95694" lon="5.71225">
        <ele>697.1</ele>
        <time>2022-07-16T07:25:31Z</time>
      </trkpt>
      <trkpt lat="44.95691" lon="5.71239">
        <ele>696.1</ele>
        <time>2022-07-16T07:25:32Z</time>
      </trkpt>
      <trkpt lat="44.9569" lon="5.71255">
        <ele>695</ele>
        <time>2022-07-16T07:25:33Z</time>
      </trkpt>
      <trkpt lat="44.95689" lon="5.71271">
        <ele>694</ele>
        <time>2022-07-16T07:25:34Z</time>
      </trkpt>
      <trkpt lat="44.95689" lon="5.71288">
        <ele>693.1</ele>
        <time>2022-07-16T07:25:35Z</time>
      </trkpt>
      <trkpt lat="44.95691" lon="5.71303">
        <ele>692.3</ele>
        <time>2022-07-16T07:25:36Z</time>
      </trkpt>
      <trkpt lat="44.95692" lon="5.7132">
        <ele>691.4</ele>
        <time>2022-07-16T07:25:37Z</time>
      </trkpt>
      <trkpt lat="44.95692" lon="5.71336">
        <ele>690.5</ele>
        <time>2022-07-16T07:25:38Z</time>
      </trkpt>
      <trkpt lat="44.95693" lon="5.71353">
        <ele>689.5</ele>
        <time>2022-07-16T07:25:39Z</time>
      </trkpt>
      <trkpt lat="44.95695" lon="5.71368">
        <ele>688.7</ele>
        <time>2022-07-16T07:25:40Z</time>
      </trkpt>
      <trkpt lat="44.95699" lon="5.71381">
        <ele>687.9</ele>
        <time>2022-07-16T07:25:41Z</time>
      </trkpt>
      <trkpt lat="44.95704" lon="5.71392">
        <ele>687.3</ele>
        <time>2022-07-16T07:25:42Z</time>
      </trkpt>
      <trkpt lat="44.95708" lon="5.714">
        <ele>686.8</ele>
        <time>2022-07-16T07:25:43Z</time>
      </trkpt>
      <trkpt lat="44.95709" lon="5.71408">
        <ele>686.4</ele>
        <time>2022-07-16T07:25:44Z</time>
      </trkpt>
      <trkpt lat="44.95709" lon="5.71415">
        <ele>686</ele>
        <time>2022-07-16T07:25:45Z</time>
      </trkpt>
      <trkpt lat="44.95705" lon="5.71415">
        <ele>685.7</ele>
        <time>2022-07-16T07:25:46Z</time>
      </trkpt>
      <trkpt lat="44.95699" lon="5.7141">
        <ele>685.2</ele>
        <time>2022-07-16T07:25:47Z</time>
      </trkpt>
      <trkpt lat="44.95696" lon="5.714">
        <ele>684.5</ele>
        <time>2022-07-16T07:25:48Z</time>
      </trkpt>
      <trkpt lat="44.95694" lon="5.7139">
        <ele>684.1</ele>
        <time>2022-07-16T07:25:49Z</time>
      </trkpt>
      <trkpt lat="44.95692" lon="5.71382">
        <ele>683.6</ele>
        <time>2022-07-16T07:25:50Z</time>
      </trkpt>
      <trkpt lat="44.95689" lon="5.71374">
        <ele>683.2</ele>
        <time>2022-07-16T07:25:51Z</time>
      </trkpt>
      <trkpt lat="44.95685" lon="5.71365">
        <ele>682.6</ele>
        <time>2022-07-16T07:25:52Z</time>
      </trkpt>
      <trkpt lat="44.95681" lon="5.71356">
        <ele>682.1</ele>
        <time>2022-07-16T07:25:53Z</time>
      </trkpt>
      <trkpt lat="44.9568" lon="5.71345">
        <ele>681.5</ele>
        <time>2022-07-16T07:25:54Z</time>
      </trkpt>
      <trkpt lat="44.95678" lon="5.71333">
        <ele>680.9</ele>
        <time>2022-07-16T07:25:55Z</time>
      </trkpt>
      <trkpt lat="44.95675" lon="5.71322">
        <ele>680.3</ele>
        <time>2022-07-16T07:25:56Z</time>
      </trkpt>
      <trkpt lat="44.95673" lon="5.71311">
        <ele>679.7</ele>
        <time>2022-07-16T07:25:57Z</time>
      </trkpt>
      <trkpt lat="44.95669" lon="5.71299">
        <ele>679</ele>
        <time>2022-07-16T07:25:58Z</time>
      </trkpt>
      <trkpt lat="44.95664" lon="5.71288">
        <ele>678.2</ele>
        <time>2022-07-16T07:25:59Z</time>
      </trkpt>
      <trkpt lat="44.95658" lon="5.71277">
        <ele>677.4</ele>
        <time>2022-07-16T07:26:00Z</time>
      </trkpt>
      <trkpt lat="44.95653" lon="5.71266">
        <ele>676.6</ele>
        <time>2022-07-16T07:26:01Z</time>
      </trkpt>
      <trkpt lat="44.95648" lon="5.71254">
        <ele>675.7</ele>
        <time>2022-07-16T07:26:02Z</time>
      </trkpt>
      <trkpt lat="44.95643" lon="5.71241">
        <ele>674.7</ele>
        <time>2022-07-16T07:26:03Z</time>
      </trkpt>
      <trkpt lat="44.95638" lon="5.71228">
        <ele>673.7</ele>
        <time>2022-07-16T07:26:04Z</time>
      </trkpt>
      <trkpt lat="44.95632" lon="5.71216">
        <ele>672.7</ele>
        <time>2022-07-16T07:26:05Z</time>
      </trkpt>
      <trkpt lat="44.95624" lon="5.71207">
        <ele>671.8</ele>
        <time>2022-07-16T07:26:06Z</time>
      </trkpt>
      <trkpt lat="44.95615" lon="5.71198">
        <ele>671.2</ele>
        <time>2022-07-16T07:26:07Z</time>
      </trkpt>
      <trkpt lat="44.95606" lon="5.71189">
        <ele>670.5</ele>
        <time>2022-07-16T07:26:08Z</time>
      </trkpt>
      <trkpt lat="44.95599" lon="5.7118">
        <ele>670</ele>
        <time>2022-07-16T07:26:09Z</time>
      </trkpt>
      <trkpt lat="44.95594" lon="5.71172">
        <ele>669.4</ele>
        <time>2022-07-16T07:26:10Z</time>
      </trkpt>
      <trkpt lat="44.95589" lon="5.71168">
        <ele>669</ele>
        <time>2022-07-16T07:26:11Z</time>
      </trkpt>
      <trkpt lat="44.95585" lon="5.7117">
        <ele>668.5</ele>
        <time>2022-07-16T07:26:12Z</time>
      </trkpt>
      <trkpt lat="44.95582" lon="5.71177">
        <ele>667.8</ele>
        <time>2022-07-16T07:26:13Z</time>
      </trkpt>
      <trkpt lat="44.95582" lon="5.71186">
        <ele>667</ele>
        <time>2022-07-16T07:26:14Z</time>
      </trkpt>
      <trkpt lat="44.95585" lon="5.71195">
        <ele>666.2</ele>
        <time>2022-07-16T07:26:15Z</time>
      </trkpt>
      <trkpt lat="44.95589" lon="5.71203">
        <ele>665.4</ele>
        <time>2022-07-16T07:26:16Z</time>
      </trkpt>
      <trkpt lat="44.95593" lon="5.71211">
        <ele>664.8</ele>
        <time>2022-07-16T07:26:17Z</time>
      </trkpt>
      <trkpt lat="44.95597" lon="5.71221">
        <ele>664.1</ele>
        <time>2022-07-16T07:26:18Z</time>
      </trkpt>
      <trkpt lat="44.95599" lon="5.71231">
        <ele>663.4</ele>
        <time>2022-07-16T07:26:19Z</time>
      </trkpt>
      <trkpt lat="44.95601" lon="5.71243">
        <ele>662.8</ele>
        <time>2022-07-16T07:26:20Z</time>
      </trkpt>
      <trkpt lat="44.95603" lon="5.71257">
        <ele>662.1</ele>
        <time>2022-07-16T07:26:21Z</time>
      </trkpt>
      <trkpt lat="44.95607" lon="5.71268">
        <ele>661.4</ele>
        <time>2022-07-16T07:26:22Z</time>
      </trkpt>
      <trkpt lat="44.95612" lon="5.71279">
        <ele>660.8</ele>
        <time>2022-07-16T07:26:23Z</time>
      </trkpt>
      <trkpt lat="44.95619" lon="5.71288">
        <ele>660</ele>
        <time>2022-07-16T07:26:24Z</time>
      </trkpt>
      <trkpt lat="44.95625" lon="5.71299">
        <ele>659.3</ele>
        <time>2022-07-16T07:26:25Z</time>
      </trkpt>
      <trkpt lat="44.95629" lon="5.71311">
        <ele>658.6</ele>
        <time>2022-07-16T07:26:26Z</time>
      </trkpt>
      <trkpt lat="44.95632" lon="5.71323">
        <ele>658</ele>
        <time>2022-07-16T07:26:27Z</time>
      </trkpt>
      <trkpt lat="44.95635" lon="5.71336">
        <ele>657.3</ele>
        <time>2022-07-16T07:26:28Z</time>
      </trkpt>
      <trkpt lat="44.95639" lon="5.71349">
        <ele>656.8</ele>
        <time>2022-07-16T07:26:29Z</time>
      </trkpt>
      <trkpt lat="44.95642" lon="5.71362">
        <ele>656.3</ele>
        <time>2022-07-16T07:26:30Z</time>
      </trkpt>
      <trkpt lat="44.95643" lon="5.71376">
        <ele>655.8</ele>
        <time>2022-07-16T07:26:31Z</time>
      </trkpt>
      <trkpt lat="44.95643" lon="5.71388">
        <ele>655.3</ele>
        <time>2022-07-16T07:26:32Z</time>
      </trkpt>
      <trkpt lat="44.95642" lon="5.714">
        <ele>654.9</ele>
        <time>2022-07-16T07:26:33Z</time>
      </trkpt>
      <trkpt lat="44.95638" lon="5.7141">
        <ele>654.3</ele>
        <time>2022-07-16T07:26:34Z</time>
      </trkpt>
      <trkpt lat="44.95634" lon="5.7142">
        <ele>653.7</ele>
        <time>2022-07-16T07:26:35Z</time>
      </trkpt>
      <trkpt lat="44.9563" lon="5.71431">
        <ele>652.9</ele>
        <time>2022-07-16T07:26:36Z</time>
      </trkpt>
      <trkpt lat="44.95627" lon="5.71443">
        <ele>652.2</ele>
        <time>2022-07-16T07:26:37Z</time>
      </trkpt>
      <trkpt lat="44.95626" lon="5.71453">
        <ele>651.6</ele>
        <time>2022-07-16T07:26:38Z</time>
      </trkpt>
      <trkpt lat="44.95627" lon="5.71465">
        <ele>650.9</ele>
        <time>2022-07-16T07:26:39Z</time>
      </trkpt>
      <trkpt lat="44.95629" lon="5.71476">
        <ele>650.4</ele>
        <time>2022-07-16T07:26:40Z</time>
      </trkpt>
      <trkpt lat="44.9563" lon="5.71486">
        <ele>649.9</ele>
        <time>2022-07-16T07:26:41Z</time>
      </trkpt>
      <trkpt lat="44.95632" lon="5.71496">
        <ele>649.5</ele>
        <time>2022-07-16T07:26:42Z</time>
      </trkpt>
      <trkpt lat="44.95634" lon="5.71504">
        <ele>649.2</ele>
        <time>2022-07-16T07:26:43Z</time>
      </trkpt>
      <trkpt lat="44.95635" lon="5.71512">
        <ele>648.8</ele>
        <time>2022-07-16T07:26:44Z</time>
      </trkpt>
      <trkpt lat="44.95635" lon="5.71519">
        <ele>648.5</ele>
        <time>2022-07-16T07:26:45Z</time>
      </trkpt>
      <trkpt lat="44.95634" lon="5.71528">
        <ele>648.1</ele>
        <time>2022-07-16T07:26:46Z</time>
      </trkpt>
      <trkpt lat="44.95635" lon="5.71536">
        <ele>647.7</ele>
        <time>2022-07-16T07:26:47Z</time>
      </trkpt>
      <trkpt lat="44.95636" lon="5.71545">
        <ele>647.3</ele>
        <time>2022-07-16T07:26:48Z</time>
      </trkpt>
      <trkpt lat="44.95637" lon="5.71556">
        <ele>646.7</ele>
        <time>2022-07-16T07:26:49Z</time>
      </trkpt>
      <trkpt lat="44.95637" lon="5.71566">
        <ele>646.2</ele>
        <time>2022-07-16T07:26:50Z</time>
      </trkpt>
      <trkpt lat="44.95637" lon="5.71576">
        <ele>645.7</ele>
        <time>2022-07-16T07:26:51Z</time>
      </trkpt>
      <trkpt lat="44.95636" lon="5.71586">
        <ele>645.5</ele>
        <time>2022-07-16T07:26:52Z</time>
      </trkpt>
      <trkpt lat="44.95636" lon="5.71596">
        <ele>644.8</ele>
        <time>2022-07-16T07:26:53Z</time>
      </trkpt>
      <trkpt lat="44.95634" lon="5.71604">
        <ele>644.1</ele>
        <time>2022-07-16T07:26:54Z</time>
      </trkpt>
      <trkpt lat="44.95631" lon="5.71613">
        <ele>643.4</ele>
        <time>2022-07-16T07:26:55Z</time>
      </trkpt>
      <trkpt lat="44.95629" lon="5.71622">
        <ele>642.8</ele>
        <time>2022-07-16T07:26:56Z</time>
      </trkpt>
      <trkpt lat="44.95626" lon="5.7163">
        <ele>642.2</ele>
        <time>2022-07-16T07:26:57Z</time>
      </trkpt>
      <trkpt lat="44.95624" lon="5.71639">
        <ele>641.6</ele>
        <time>2022-07-16T07:26:58Z</time>
      </trkpt>
      <trkpt lat="44.95622" lon="5.71647">
        <ele>641.1</ele>
        <time>2022-07-16T07:26:59Z</time>
      </trkpt>
      <trkpt lat="44.95616" lon="5.71654">
        <ele>640.5</ele>
        <time>2022-07-16T07:27:00Z</time>
      </trkpt>
      <trkpt lat="44.95612" lon="5.71662">
        <ele>639.9</ele>
        <time>2022-07-16T07:27:01Z</time>
      </trkpt>
      <trkpt lat="44.95606" lon="5.71668">
        <ele>639.2</ele>
        <time>2022-07-16T07:27:02Z</time>
      </trkpt>
      <trkpt lat="44.956" lon="5.71674">
        <ele>638.6</ele>
        <time>2022-07-16T07:27:03Z</time>
      </trkpt>
      <trkpt lat="44.95596" lon="5.71681">
        <ele>638</ele>
        <time>2022-07-16T07:27:04Z</time>
      </trkpt>
      <trkpt lat="44.95592" lon="5.7169">
        <ele>637.4</ele>
        <time>2022-07-16T07:27:05Z</time>
      </trkpt>
      <trkpt lat="44.95587" lon="5.71701">
        <ele>636.9</ele>
        <time>2022-07-16T07:27:06Z</time>
      </trkpt>
      <trkpt lat="44.95582" lon="5.71712">
        <ele>636.5</ele>
        <time>2022-07-16T07:27:07Z</time>
      </trkpt>
      <trkpt lat="44.95578" lon="5.71722">
        <ele>636.3</ele>
        <time>2022-07-16T07:27:08Z</time>
      </trkpt>
      <trkpt lat="44.95573" lon="5.71732">
        <ele>636.1</ele>
        <time>2022-07-16T07:27:09Z</time>
      </trkpt>
      <trkpt lat="44.95566" lon="5.71738">
        <ele>636</ele>
        <time>2022-07-16T07:27:10Z</time>
      </trkpt>
      <trkpt lat="44.95558" lon="5.71741">
        <ele>635.9</ele>
        <time>2022-07-16T07:27:11Z</time>
      </trkpt>
      <trkpt lat="44.95552" lon="5.71741">
        <ele>635.8</ele>
        <time>2022-07-16T07:27:12Z</time>
      </trkpt>
      <trkpt lat="44.95544" lon="5.71738">
        <ele>635.7</ele>
        <time>2022-07-16T07:27:13Z</time>
      </trkpt>
      <trkpt lat="44.95538" lon="5.71733">
        <ele>635.5</ele>
        <time>2022-07-16T07:27:14Z</time>
      </trkpt>
      <trkpt lat="44.95534" lon="5.71724">
        <ele>635.3</ele>
        <time>2022-07-16T07:27:15Z</time>
      </trkpt>
      <trkpt lat="44.9553" lon="5.71715">
        <ele>635.1</ele>
        <time>2022-07-16T07:27:16Z</time>
      </trkpt>
      <trkpt lat="44.95526" lon="5.71707">
        <ele>635.1</ele>
        <time>2022-07-16T07:27:17Z</time>
      </trkpt>
      <trkpt lat="44.95523" lon="5.71698">
        <ele>635.1</ele>
        <time>2022-07-16T07:27:18Z</time>
      </trkpt>
      <trkpt lat="44.9552" lon="5.7169">
        <ele>635.2</ele>
        <time>2022-07-16T07:27:19Z</time>
      </trkpt>
      <trkpt lat="44.95516" lon="5.71682">
        <ele>635.3</ele>
        <time>2022-07-16T07:27:20Z</time>
      </trkpt>
      <trkpt lat="44.95514" lon="5.71674">
        <ele>635.5</ele>
        <time>2022-07-16T07:27:21Z</time>
      </trkpt>
      <trkpt lat="44.95511" lon="5.71666">
        <ele>635.8</ele>
        <time>2022-07-16T07:27:22Z</time>
      </trkpt>
      <trkpt lat="44.95509" lon="5.71659">
        <ele>636.1</ele>
        <time>2022-07-16T07:27:23Z</time>
      </trkpt>
      <trkpt lat="44.95508" lon="5.71652">
        <ele>636.5</ele>
        <time>2022-07-16T07:27:24Z</time>
      </trkpt>
      <trkpt lat="44.95508" lon="5.71647">
        <ele>636.8</ele>
        <time>2022-07-16T07:27:25Z</time>
      </trkpt>
      <trkpt lat="44.95509" lon="5.71643">
        <ele>637</ele>
        <time>2022-07-16T07:27:26Z</time>
      </trkpt>
      <trkpt lat="44.95508" lon="5.71639">
        <ele>637.3</ele>
        <time>2022-07-16T07:27:27Z</time>
      </trkpt>
      <trkpt lat="44.95506" lon="5.71634">
        <ele>637.6</ele>
        <time>2022-07-16T07:27:28Z</time>
      </trkpt>
      <trkpt lat="44.95506" lon="5.71632">
        <ele>637.7</ele>
        <time>2022-07-16T07:27:29Z</time>
      </trkpt>
      <trkpt lat="44.95504" lon="5.71627">
        <ele>638.1</ele>
        <time>2022-07-16T07:27:30Z</time>
      </trkpt>
      <trkpt lat="44.95504" lon="5.71623">
        <ele>638.4</ele>
        <time>2022-07-16T07:27:31Z</time>
      </trkpt>
      <trkpt lat="44.95502" lon="5.71616">
        <ele>639</ele>
        <time>2022-07-16T07:27:33Z</time>
      </trkpt>
      <trkpt lat="44.95501" lon="5.7161">
        <ele>639.4</ele>
        <time>2022-07-16T07:27:34Z</time>
      </trkpt>
      <trkpt lat="44.95502" lon="5.71602">
        <ele>639.9</ele>
        <time>2022-07-16T07:27:36Z</time>
      </trkpt>
      <trkpt lat="44.95498" lon="5.71595">
        <ele>640.5</ele>
        <time>2022-07-16T07:27:39Z</time>
      </trkpt>
      <trkpt lat="44.95498" lon="5.7159">
        <ele>640.9</ele>
        <time>2022-07-16T07:27:40Z</time>
      </trkpt>
      <trkpt lat="44.95497" lon="5.71584">
        <ele>641.3</ele>
        <time>2022-07-16T07:27:42Z</time>
      </trkpt>
      <trkpt lat="44.95496" lon="5.71581">
        <ele>641.6</ele>
        <time>2022-07-16T07:27:43Z</time>
      </trkpt>
      <trkpt lat="44.95494" lon="5.71567">
        <ele>642.7</ele>
        <time>2022-07-16T07:27:46Z</time>
      </trkpt>
      <trkpt lat="44.95493" lon="5.71563">
        <ele>643.1</ele>
        <time>2022-07-16T07:27:47Z</time>
      </trkpt>
      <trkpt lat="44.95492" lon="5.71557">
        <ele>643.5</ele>
        <time>2022-07-16T07:27:49Z</time>
      </trkpt>
      <trkpt lat="44.95491" lon="5.71554">
        <ele>643.8</ele>
        <time>2022-07-16T07:27:50Z</time>
      </trkpt>
      <trkpt lat="44.9549" lon="5.71552">
        <ele>644</ele>
        <time>2022-07-16T07:27:51Z</time>
      </trkpt>
      <trkpt lat="44.95489" lon="5.7155">
        <ele>644.2</ele>
        <time>2022-07-16T07:27:52Z</time>
      </trkpt>
      <trkpt lat="44.95487" lon="5.71547">
        <ele>644.5</ele>
        <time>2022-07-16T07:27:54Z</time>
      </trkpt>
      <trkpt lat="44.95487" lon="5.71543">
        <ele>644.8</ele>
        <time>2022-07-16T07:27:55Z</time>
      </trkpt>
      <trkpt lat="44.95485" lon="5.71537">
        <ele>645.3</ele>
        <time>2022-07-16T07:27:57Z</time>
      </trkpt>
      <trkpt lat="44.95484" lon="5.71533">
        <ele>645.6</ele>
        <time>2022-07-16T07:27:58Z</time>
      </trkpt>
      <trkpt lat="44.95483" lon="5.71532">
        <ele>645.7</ele>
        <time>2022-07-16T07:27:59Z</time>
      </trkpt>
      <trkpt lat="44.95482" lon="5.71527">
        <ele>646.1</ele>
        <time>2022-07-16T07:28:00Z</time>
      </trkpt>
      <trkpt lat="44.95481" lon="5.71523">
        <ele>646.4</ele>
        <time>2022-07-16T07:28:01Z</time>
      </trkpt>
      <trkpt lat="44.95481" lon="5.71522">
        <ele>646.5</ele>
        <time>2022-07-16T07:28:02Z</time>
      </trkpt>
      <trkpt lat="44.95479" lon="5.71517">
        <ele>646.9</ele>
        <time>2022-07-16T07:28:04Z</time>
      </trkpt>
      <trkpt lat="44.95478" lon="5.71516">
        <ele>647.1</ele>
        <time>2022-07-16T07:28:05Z</time>
      </trkpt>
      <trkpt lat="44.95476" lon="5.71512">
        <ele>647.4</ele>
        <time>2022-07-16T07:28:06Z</time>
      </trkpt>
      <trkpt lat="44.95473" lon="5.71509">
        <ele>647.8</ele>
        <time>2022-07-16T07:28:08Z</time>
      </trkpt>
      <trkpt lat="44.95473" lon="5.71507">
        <ele>648</ele>
        <time>2022-07-16T07:28:09Z</time>
      </trkpt>
      <trkpt lat="44.95471" lon="5.71506">
        <ele>648.2</ele>
        <time>2022-07-16T07:28:10Z</time>
      </trkpt>
      <trkpt lat="44.95467" lon="5.71502">
        <ele>648.8</ele>
        <time>2022-07-16T07:28:12Z</time>
      </trkpt>
      <trkpt lat="44.95465" lon="5.71499">
        <ele>649.1</ele>
        <time>2022-07-16T07:28:13Z</time>
      </trkpt>
      <trkpt lat="44.95462" lon="5.71497">
        <ele>649.5</ele>
        <time>2022-07-16T07:28:15Z</time>
      </trkpt>
      <trkpt lat="44.95459" lon="5.71494">
        <ele>649.9</ele>
        <time>2022-07-16T07:28:17Z</time>
      </trkpt>
      <trkpt lat="44.95457" lon="5.71492">
        <ele>650.2</ele>
        <time>2022-07-16T07:28:19Z</time>
      </trkpt>
      <trkpt lat="44.95455" lon="5.71491">
        <ele>650.5</ele>
        <time>2022-07-16T07:28:20Z</time>
      </trkpt>
      <trkpt lat="44.95453" lon="5.71489">
        <ele>650.8</ele>
        <time>2022-07-16T07:28:22Z</time>
      </trkpt>
      <trkpt lat="44.9545" lon="5.71489">
        <ele>651.1</ele>
        <time>2022-07-16T07:28:23Z</time>
      </trkpt>
      <trkpt lat="44.95449" lon="5.71488">
        <ele>651.2</ele>
        <time>2022-07-16T07:28:24Z</time>
      </trkpt>
      <trkpt lat="44.95446" lon="5.71487">
        <ele>651.6</ele>
        <time>2022-07-16T07:28:26Z</time>
      </trkpt>
      <trkpt lat="44.95445" lon="5.71487">
        <ele>651.7</ele>
        <time>2022-07-16T07:28:27Z</time>
      </trkpt>
      <trkpt lat="44.95442" lon="5.71485">
        <ele>652.1</ele>
        <time>2022-07-16T07:28:29Z</time>
      </trkpt>
      <trkpt lat="44.95439" lon="5.71484">
        <ele>652.4</ele>
        <time>2022-07-16T07:28:30Z</time>
      </trkpt>
      <trkpt lat="44.95438" lon="5.71483">
        <ele>652.5</ele>
        <time>2022-07-16T07:28:31Z</time>
      </trkpt>
      <trkpt lat="44.95433" lon="5.71483">
        <ele>653</ele>
        <time>2022-07-16T07:28:33Z</time>
      </trkpt>
      <trkpt lat="44.95432" lon="5.71483">
        <ele>653.2</ele>
        <time>2022-07-16T07:28:34Z</time>
      </trkpt>
      <trkpt lat="44.9543" lon="5.71482">
        <ele>653.3</ele>
        <time>2022-07-16T07:28:35Z</time>
      </trkpt>
      <trkpt lat="44.95428" lon="5.71482">
        <ele>653.6</ele>
        <time>2022-07-16T07:28:36Z</time>
      </trkpt>
      <trkpt lat="44.95426" lon="5.71482">
        <ele>653.8</ele>
        <time>2022-07-16T07:28:38Z</time>
      </trkpt>
      <trkpt lat="44.95423" lon="5.71482">
        <ele>654.1</ele>
        <time>2022-07-16T07:28:39Z</time>
      </trkpt>
      <trkpt lat="44.95422" lon="5.71482">
        <ele>654.2</ele>
        <time>2022-07-16T07:28:40Z</time>
      </trkpt>
      <trkpt lat="44.95419" lon="5.71483">
        <ele>654.5</ele>
        <time>2022-07-16T07:28:41Z</time>
      </trkpt>
      <trkpt lat="44.95418" lon="5.71482">
        <ele>654.6</ele>
        <time>2022-07-16T07:28:42Z</time>
      </trkpt>
      <trkpt lat="44.95415" lon="5.71481">
        <ele>654.9</ele>
        <time>2022-07-16T07:28:43Z</time>
      </trkpt>
      <trkpt lat="44.95414" lon="5.71481">
        <ele>655.1</ele>
        <time>2022-07-16T07:28:45Z</time>
      </trkpt>
      <trkpt lat="44.95413" lon="5.7148">
        <ele>655.2</ele>
        <time>2022-07-16T07:28:46Z</time>
      </trkpt>
      <trkpt lat="44.9541" lon="5.7148">
        <ele>655.5</ele>
        <time>2022-07-16T07:28:47Z</time>
      </trkpt>
      <trkpt lat="44.95409" lon="5.7148">
        <ele>655.6</ele>
        <time>2022-07-16T07:28:48Z</time>
      </trkpt>
      <trkpt lat="44.95405" lon="5.71481">
        <ele>656</ele>
        <time>2022-07-16T07:28:51Z</time>
      </trkpt>
      <trkpt lat="44.95402" lon="5.71482">
        <ele>656.3</ele>
        <time>2022-07-16T07:28:52Z</time>
      </trkpt>
      <trkpt lat="44.95399" lon="5.71482">
        <ele>656.6</ele>
        <time>2022-07-16T07:28:54Z</time>
      </trkpt>
      <trkpt lat="44.95395" lon="5.71482">
        <ele>657</ele>
        <time>2022-07-16T07:28:56Z</time>
      </trkpt>
      <trkpt lat="44.95392" lon="5.71484">
        <ele>657.3</ele>
        <time>2022-07-16T07:28:57Z</time>
      </trkpt>
      <trkpt lat="44.95388" lon="5.71484">
        <ele>657.7</ele>
        <time>2022-07-16T07:28:59Z</time>
      </trkpt>
      <trkpt lat="44.95385" lon="5.71484">
        <ele>658</ele>
        <time>2022-07-16T07:29:00Z</time>
      </trkpt>
      <trkpt lat="44.95384" lon="5.71484">
        <ele>658.1</ele>
        <time>2022-07-16T07:29:01Z</time>
      </trkpt>
      <trkpt lat="44.95381" lon="5.71483">
        <ele>658.3</ele>
        <time>2022-07-16T07:29:03Z</time>
      </trkpt>
      <trkpt lat="44.95378" lon="5.71483">
        <ele>658.6</ele>
        <time>2022-07-16T07:29:05Z</time>
      </trkpt>
      <trkpt lat="44.95377" lon="5.71484">
        <ele>658.8</ele>
        <time>2022-07-16T07:29:06Z</time>
      </trkpt>
      <trkpt lat="44.95375" lon="5.71483">
        <ele>658.9</ele>
        <time>2022-07-16T07:29:07Z</time>
      </trkpt>
      <trkpt lat="44.95372" lon="5.71483">
        <ele>659.3</ele>
        <time>2022-07-16T07:29:08Z</time>
      </trkpt>
      <trkpt lat="44.9537" lon="5.71483">
        <ele>659.4</ele>
        <time>2022-07-16T07:29:09Z</time>
      </trkpt>
      <trkpt lat="44.95368" lon="5.71483">
        <ele>659.6</ele>
        <time>2022-07-16T07:29:10Z</time>
      </trkpt>
      <trkpt lat="44.95366" lon="5.71484">
        <ele>659.8</ele>
        <time>2022-07-16T07:29:12Z</time>
      </trkpt>
      <trkpt lat="44.95363" lon="5.71483">
        <ele>660.1</ele>
        <time>2022-07-16T07:29:13Z</time>
      </trkpt>
      <trkpt lat="44.95362" lon="5.71484">
        <ele>660.2</ele>
        <time>2022-07-16T07:29:14Z</time>
      </trkpt>
      <trkpt lat="44.95359" lon="5.71483">
        <ele>660.6</ele>
        <time>2022-07-16T07:29:15Z</time>
      </trkpt>
      <trkpt lat="44.95357" lon="5.71483">
        <ele>660.8</ele>
        <time>2022-07-16T07:29:16Z</time>
      </trkpt>
      <trkpt lat="44.95355" lon="5.71482">
        <ele>660.9</ele>
        <time>2022-07-16T07:29:17Z</time>
      </trkpt>
      <trkpt lat="44.95354" lon="5.71482">
        <ele>661.1</ele>
        <time>2022-07-16T07:29:19Z</time>
      </trkpt>
      <trkpt lat="44.95352" lon="5.71482">
        <ele>661.2</ele>
        <time>2022-07-16T07:29:20Z</time>
      </trkpt>
      <trkpt lat="44.9535" lon="5.71482">
        <ele>661.4</ele>
        <time>2022-07-16T07:29:21Z</time>
      </trkpt>
      <trkpt lat="44.95347" lon="5.71481">
        <ele>661.7</ele>
        <time>2022-07-16T07:29:22Z</time>
      </trkpt>
      <trkpt lat="44.95344" lon="5.71479">
        <ele>662</ele>
        <time>2022-07-16T07:29:23Z</time>
      </trkpt>
      <trkpt lat="44.95341" lon="5.71477">
        <ele>662.3</ele>
        <time>2022-07-16T07:29:25Z</time>
      </trkpt>
      <trkpt lat="44.95341" lon="5.71477">
        <ele>662.4</ele>
        <time>2022-07-16T07:29:26Z</time>
      </trkpt>
      <trkpt lat="44.95339" lon="5.71476">
        <ele>662.5</ele>
        <time>2022-07-16T07:29:27Z</time>
      </trkpt>
      <trkpt lat="44.95337" lon="5.71474">
        <ele>662.8</ele>
        <time>2022-07-16T07:29:29Z</time>
      </trkpt>
      <trkpt lat="44.95334" lon="5.71472">
        <ele>663.2</ele>
        <time>2022-07-16T07:29:31Z</time>
      </trkpt>
      <trkpt lat="44.95331" lon="5.7147">
        <ele>663.5</ele>
        <time>2022-07-16T07:29:33Z</time>
      </trkpt>
      <trkpt lat="44.95329" lon="5.7147">
        <ele>663.7</ele>
        <time>2022-07-16T07:29:34Z</time>
      </trkpt>
      <trkpt lat="44.95327" lon="5.71468">
        <ele>664</ele>
        <time>2022-07-16T07:29:36Z</time>
      </trkpt>
      <trkpt lat="44.95324" lon="5.71465">
        <ele>664.3</ele>
        <time>2022-07-16T07:29:38Z</time>
      </trkpt>
      <trkpt lat="44.95322" lon="5.71465">
        <ele>664.6</ele>
        <time>2022-07-16T07:29:39Z</time>
      </trkpt>
      <trkpt lat="44.9532" lon="5.71463">
        <ele>664.9</ele>
        <time>2022-07-16T07:29:41Z</time>
      </trkpt>
      <trkpt lat="44.95319" lon="5.71462">
        <ele>665</ele>
        <time>2022-07-16T07:29:42Z</time>
      </trkpt>
      <trkpt lat="44.95317" lon="5.71461">
        <ele>665.2</ele>
        <time>2022-07-16T07:29:43Z</time>
      </trkpt>
      <trkpt lat="44.95314" lon="5.71459">
        <ele>665.6</ele>
        <time>2022-07-16T07:29:45Z</time>
      </trkpt>
      <trkpt lat="44.95311" lon="5.71458">
        <ele>665.9</ele>
        <time>2022-07-16T07:29:47Z</time>
      </trkpt>
      <trkpt lat="44.95308" lon="5.71455">
        <ele>666.3</ele>
        <time>2022-07-16T07:29:49Z</time>
      </trkpt>
      <trkpt lat="44.95307" lon="5.71454">
        <ele>666.5</ele>
        <time>2022-07-16T07:29:50Z</time>
      </trkpt>
      <trkpt lat="44.95304" lon="5.71454">
        <ele>666.9</ele>
        <time>2022-07-16T07:29:52Z</time>
      </trkpt>
      <trkpt lat="44.95302" lon="5.71452">
        <ele>667.1</ele>
        <time>2022-07-16T07:29:53Z</time>
      </trkpt>
      <trkpt lat="44.95298" lon="5.71451">
        <ele>667.5</ele>
        <time>2022-07-16T07:29:55Z</time>
      </trkpt>
      <trkpt lat="44.95295" lon="5.71451">
        <ele>667.9</ele>
        <time>2022-07-16T07:29:57Z</time>
      </trkpt>
      <trkpt lat="44.95294" lon="5.71451">
        <ele>668</ele>
        <time>2022-07-16T07:29:58Z</time>
      </trkpt>
      <trkpt lat="44.95291" lon="5.71451">
        <ele>668.3</ele>
        <time>2022-07-16T07:30:00Z</time>
      </trkpt>
      <trkpt lat="44.95288" lon="5.7145">
        <ele>668.7</ele>
        <time>2022-07-16T07:30:02Z</time>
      </trkpt>
      <trkpt lat="44.95285" lon="5.7145">
        <ele>668.9</ele>
        <time>2022-07-16T07:30:03Z</time>
      </trkpt>
      <trkpt lat="44.95284" lon="5.71449">
        <ele>669</ele>
        <time>2022-07-16T07:30:04Z</time>
      </trkpt>
      <trkpt lat="44.95281" lon="5.71451">
        <ele>669.3</ele>
        <time>2022-07-16T07:30:05Z</time>
      </trkpt>
      <trkpt lat="44.9528" lon="5.71452">
        <ele>669.5</ele>
        <time>2022-07-16T07:30:06Z</time>
      </trkpt>
      <trkpt lat="44.95277" lon="5.71454">
        <ele>669.8</ele>
        <time>2022-07-16T07:30:07Z</time>
      </trkpt>
      <trkpt lat="44.95274" lon="5.71455">
        <ele>670.1</ele>
        <time>2022-07-16T07:30:09Z</time>
      </trkpt>
      <trkpt lat="44.95273" lon="5.71455">
        <ele>670.2</ele>
        <time>2022-07-16T07:30:10Z</time>
      </trkpt>
      <trkpt lat="44.9527" lon="5.71457">
        <ele>670.5</ele>
        <time>2022-07-16T07:30:11Z</time>
      </trkpt>
      <trkpt lat="44.95265" lon="5.7146">
        <ele>671</ele>
        <time>2022-07-16T07:30:13Z</time>
      </trkpt>
      <trkpt lat="44.95263" lon="5.71462">
        <ele>671.1</ele>
        <time>2022-07-16T07:30:15Z</time>
      </trkpt>
      <trkpt lat="44.95262" lon="5.71463">
        <ele>671.3</ele>
        <time>2022-07-16T07:30:16Z</time>
      </trkpt>
      <trkpt lat="44.9526" lon="5.71464">
        <ele>671.4</ele>
        <time>2022-07-16T07:30:17Z</time>
      </trkpt>
      <trkpt lat="44.95256" lon="5.71468">
        <ele>671.8</ele>
        <time>2022-07-16T07:30:19Z</time>
      </trkpt>
      <trkpt lat="44.95255" lon="5.71469">
        <ele>672</ele>
        <time>2022-07-16T07:30:20Z</time>
      </trkpt>
      <trkpt lat="44.95254" lon="5.71471">
        <ele>672.1</ele>
        <time>2022-07-16T07:30:21Z</time>
      </trkpt>
      <trkpt lat="44.95253" lon="5.71475">
        <ele>672.4</ele>
        <time>2022-07-16T07:30:23Z</time>
      </trkpt>
      <trkpt lat="44.9525" lon="5.71476">
        <ele>672.6</ele>
        <time>2022-07-16T07:30:24Z</time>
      </trkpt>
      <trkpt lat="44.95248" lon="5.71478">
        <ele>672.8</ele>
        <time>2022-07-16T07:30:25Z</time>
      </trkpt>
      <trkpt lat="44.95245" lon="5.71479">
        <ele>673</ele>
        <time>2022-07-16T07:30:27Z</time>
      </trkpt>
      <trkpt lat="44.95243" lon="5.71483">
        <ele>673.3</ele>
        <time>2022-07-16T07:30:29Z</time>
      </trkpt>
      <trkpt lat="44.95241" lon="5.71485">
        <ele>673.5</ele>
        <time>2022-07-16T07:30:30Z</time>
      </trkpt>
      <trkpt lat="44.95236" lon="5.71488">
        <ele>673.9</ele>
        <time>2022-07-16T07:30:33Z</time>
      </trkpt>
      <trkpt lat="44.95234" lon="5.71489">
        <ele>674.1</ele>
        <time>2022-07-16T07:30:34Z</time>
      </trkpt>
      <trkpt lat="44.95229" lon="5.71491">
        <ele>674.5</ele>
        <time>2022-07-16T07:30:36Z</time>
      </trkpt>
      <trkpt lat="44.95225" lon="5.71493">
        <ele>674.8</ele>
        <time>2022-07-16T07:30:38Z</time>
      </trkpt>
      <trkpt lat="44.95223" lon="5.71494">
        <ele>675</ele>
        <time>2022-07-16T07:30:39Z</time>
      </trkpt>
      <trkpt lat="44.95222" lon="5.71494">
        <ele>675.1</ele>
        <time>2022-07-16T07:30:40Z</time>
      </trkpt>
      <trkpt lat="44.95219" lon="5.71495">
        <ele>675.3</ele>
        <time>2022-07-16T07:30:41Z</time>
      </trkpt>
      <trkpt lat="44.95217" lon="5.71497">
        <ele>675.5</ele>
        <time>2022-07-16T07:30:42Z</time>
      </trkpt>
      <trkpt lat="44.95216" lon="5.71497">
        <ele>675.6</ele>
        <time>2022-07-16T07:30:44Z</time>
      </trkpt>
      <trkpt lat="44.95211" lon="5.71501">
        <ele>675.9</ele>
        <time>2022-07-16T07:30:46Z</time>
      </trkpt>
      <trkpt lat="44.95209" lon="5.71502">
        <ele>676.1</ele>
        <time>2022-07-16T07:30:48Z</time>
      </trkpt>
      <trkpt lat="44.95206" lon="5.71504">
        <ele>676.2</ele>
        <time>2022-07-16T07:30:49Z</time>
      </trkpt>
      <trkpt lat="44.95204" lon="5.71505">
        <ele>676.4</ele>
        <time>2022-07-16T07:30:50Z</time>
      </trkpt>
      <trkpt lat="44.952" lon="5.71507">
        <ele>676.7</ele>
        <time>2022-07-16T07:30:51Z</time>
      </trkpt>
      <trkpt lat="44.95197" lon="5.71508">
        <ele>676.8</ele>
        <time>2022-07-16T07:30:52Z</time>
      </trkpt>
      <trkpt lat="44.95195" lon="5.7151">
        <ele>677</ele>
        <time>2022-07-16T07:30:53Z</time>
      </trkpt>
      <trkpt lat="44.95193" lon="5.71513">
        <ele>677.2</ele>
        <time>2022-07-16T07:30:55Z</time>
      </trkpt>
      <trkpt lat="44.95191" lon="5.71515">
        <ele>677.3</ele>
        <time>2022-07-16T07:30:56Z</time>
      </trkpt>
      <trkpt lat="44.95186" lon="5.71518">
        <ele>677.6</ele>
        <time>2022-07-16T07:30:58Z</time>
      </trkpt>
      <trkpt lat="44.95184" lon="5.7152">
        <ele>677.8</ele>
        <time>2022-07-16T07:30:59Z</time>
      </trkpt>
      <trkpt lat="44.9518" lon="5.71524">
        <ele>678.1</ele>
        <time>2022-07-16T07:31:01Z</time>
      </trkpt>
      <trkpt lat="44.95176" lon="5.71527">
        <ele>678.3</ele>
        <time>2022-07-16T07:31:03Z</time>
      </trkpt>
      <trkpt lat="44.95172" lon="5.71532">
        <ele>678.7</ele>
        <time>2022-07-16T07:31:05Z</time>
      </trkpt>
      <trkpt lat="44.9517" lon="5.71534">
        <ele>678.8</ele>
        <time>2022-07-16T07:31:06Z</time>
      </trkpt>
      <trkpt lat="44.95169" lon="5.71535">
        <ele>678.9</ele>
        <time>2022-07-16T07:31:07Z</time>
      </trkpt>
      <trkpt lat="44.95166" lon="5.71542">
        <ele>679.2</ele>
        <time>2022-07-16T07:31:09Z</time>
      </trkpt>
      <trkpt lat="44.95162" lon="5.71546">
        <ele>679.6</ele>
        <time>2022-07-16T07:31:11Z</time>
      </trkpt>
      <trkpt lat="44.95159" lon="5.71552">
        <ele>679.9</ele>
        <time>2022-07-16T07:31:13Z</time>
      </trkpt>
      <trkpt lat="44.95158" lon="5.71555">
        <ele>680</ele>
        <time>2022-07-16T07:31:14Z</time>
      </trkpt>
      <trkpt lat="44.95154" lon="5.7156">
        <ele>680.4</ele>
        <time>2022-07-16T07:31:16Z</time>
      </trkpt>
      <trkpt lat="44.95152" lon="5.71564">
        <ele>680.7</ele>
        <time>2022-07-16T07:31:17Z</time>
      </trkpt>
      <trkpt lat="44.95151" lon="5.71566">
        <ele>680.8</ele>
        <time>2022-07-16T07:31:18Z</time>
      </trkpt>
      <trkpt lat="44.95149" lon="5.71573">
        <ele>681.1</ele>
        <time>2022-07-16T07:31:20Z</time>
      </trkpt>
      <trkpt lat="44.95146" lon="5.71577">
        <ele>681.4</ele>
        <time>2022-07-16T07:31:21Z</time>
      </trkpt>
      <trkpt lat="44.95144" lon="5.71583">
        <ele>681.8</ele>
        <time>2022-07-16T07:31:23Z</time>
      </trkpt>
      <trkpt lat="44.95144" lon="5.71586">
        <ele>681.9</ele>
        <time>2022-07-16T07:31:24Z</time>
      </trkpt>
      <trkpt lat="44.95144" lon="5.71588">
        <ele>682</ele>
        <time>2022-07-16T07:31:25Z</time>
      </trkpt>
      <trkpt lat="44.95143" lon="5.71592">
        <ele>682.2</ele>
        <time>2022-07-16T07:31:26Z</time>
      </trkpt>
      <trkpt lat="44.95141" lon="5.71599">
        <ele>682.6</ele>
        <time>2022-07-16T07:31:27Z</time>
      </trkpt>
      <trkpt lat="44.9514" lon="5.71604">
        <ele>682.8</ele>
        <time>2022-07-16T07:31:29Z</time>
      </trkpt>
      <trkpt lat="44.9514" lon="5.71605">
        <ele>682.9</ele>
        <time>2022-07-16T07:31:30Z</time>
      </trkpt>
      <trkpt lat="44.95137" lon="5.7161">
        <ele>683.2</ele>
        <time>2022-07-16T07:31:31Z</time>
      </trkpt>
      <trkpt lat="44.95136" lon="5.71611">
        <ele>683.3</ele>
        <time>2022-07-16T07:31:32Z</time>
      </trkpt>
      <trkpt lat="44.95136" lon="5.71615">
        <ele>683.5</ele>
        <time>2022-07-16T07:31:33Z</time>
      </trkpt>
      <trkpt lat="44.95135" lon="5.71625">
        <ele>683.9</ele>
        <time>2022-07-16T07:31:36Z</time>
      </trkpt>
      <trkpt lat="44.95135" lon="5.71629">
        <ele>684.1</ele>
        <time>2022-07-16T07:31:37Z</time>
      </trkpt>
      <trkpt lat="44.95132" lon="5.71636">
        <ele>684.5</ele>
        <time>2022-07-16T07:31:39Z</time>
      </trkpt>
      <trkpt lat="44.95131" lon="5.7164">
        <ele>684.7</ele>
        <time>2022-07-16T07:31:40Z</time>
      </trkpt>
      <trkpt lat="44.95131" lon="5.71642">
        <ele>684.8</ele>
        <time>2022-07-16T07:31:41Z</time>
      </trkpt>
      <trkpt lat="44.9513" lon="5.71647">
        <ele>685</ele>
        <time>2022-07-16T07:31:43Z</time>
      </trkpt>
      <trkpt lat="44.95128" lon="5.71654">
        <ele>685.4</ele>
        <time>2022-07-16T07:31:45Z</time>
      </trkpt>
      <trkpt lat="44.95127" lon="5.7166">
        <ele>685.7</ele>
        <time>2022-07-16T07:31:46Z</time>
      </trkpt>
      <trkpt lat="44.95126" lon="5.71663">
        <ele>685.9</ele>
        <time>2022-07-16T07:31:47Z</time>
      </trkpt>
      <trkpt lat="44.95125" lon="5.71666">
        <ele>686</ele>
        <time>2022-07-16T07:31:48Z</time>
      </trkpt>
      <trkpt lat="44.95124" lon="5.71669">
        <ele>686.2</ele>
        <time>2022-07-16T07:31:50Z</time>
      </trkpt>
      <trkpt lat="44.95122" lon="5.71673">
        <ele>686.5</ele>
        <time>2022-07-16T07:31:51Z</time>
      </trkpt>
      <trkpt lat="44.95121" lon="5.71674">
        <ele>686.6</ele>
        <time>2022-07-16T07:31:52Z</time>
      </trkpt>
      <trkpt lat="44.9512" lon="5.7168">
        <ele>686.9</ele>
        <time>2022-07-16T07:31:54Z</time>
      </trkpt>
      <trkpt lat="44.95118" lon="5.71685">
        <ele>687.2</ele>
        <time>2022-07-16T07:31:55Z</time>
      </trkpt>
      <trkpt lat="44.95117" lon="5.71686">
        <ele>687.3</ele>
        <time>2022-07-16T07:31:56Z</time>
      </trkpt>
      <trkpt lat="44.95115" lon="5.7169">
        <ele>687.5</ele>
        <time>2022-07-16T07:31:57Z</time>
      </trkpt>
      <trkpt lat="44.95114" lon="5.71694">
        <ele>687.7</ele>
        <time>2022-07-16T07:31:58Z</time>
      </trkpt>
      <trkpt lat="44.95113" lon="5.71696">
        <ele>687.8</ele>
        <time>2022-07-16T07:31:59Z</time>
      </trkpt>
      <trkpt lat="44.95112" lon="5.717">
        <ele>688.1</ele>
        <time>2022-07-16T07:32:00Z</time>
      </trkpt>
      <trkpt lat="44.95111" lon="5.71704">
        <ele>688.3</ele>
        <time>2022-07-16T07:32:01Z</time>
      </trkpt>
      <trkpt lat="44.9511" lon="5.7171">
        <ele>688.6</ele>
        <time>2022-07-16T07:32:03Z</time>
      </trkpt>
      <trkpt lat="44.95108" lon="5.71714">
        <ele>688.8</ele>
        <time>2022-07-16T07:32:04Z</time>
      </trkpt>
      <trkpt lat="44.95107" lon="5.71718">
        <ele>689.1</ele>
        <time>2022-07-16T07:32:05Z</time>
      </trkpt>
      <trkpt lat="44.95106" lon="5.71722">
        <ele>689.2</ele>
        <time>2022-07-16T07:32:06Z</time>
      </trkpt>
      <trkpt lat="44.95104" lon="5.71728">
        <ele>689.6</ele>
        <time>2022-07-16T07:32:08Z</time>
      </trkpt>
      <trkpt lat="44.95102" lon="5.71731">
        <ele>689.8</ele>
        <time>2022-07-16T07:32:09Z</time>
      </trkpt>
      <trkpt lat="44.95101" lon="5.71735">
        <ele>689.9</ele>
        <time>2022-07-16T07:32:10Z</time>
      </trkpt>
      <trkpt lat="44.95098" lon="5.7174">
        <ele>690.2</ele>
        <time>2022-07-16T07:32:12Z</time>
      </trkpt>
      <trkpt lat="44.95096" lon="5.71743">
        <ele>690.3</ele>
        <time>2022-07-16T07:32:13Z</time>
      </trkpt>
      <trkpt lat="44.95091" lon="5.71747">
        <ele>690.7</ele>
        <time>2022-07-16T07:32:15Z</time>
      </trkpt>
      <trkpt lat="44.95088" lon="5.71747">
        <ele>690.8</ele>
        <time>2022-07-16T07:32:16Z</time>
      </trkpt>
      <trkpt lat="44.95082" lon="5.71747">
        <ele>691.2</ele>
        <time>2022-07-16T07:32:18Z</time>
      </trkpt>
      <trkpt lat="44.9508" lon="5.71748">
        <ele>691.4</ele>
        <time>2022-07-16T07:32:19Z</time>
      </trkpt>
      <trkpt lat="44.95074" lon="5.71747">
        <ele>691.8</ele>
        <time>2022-07-16T07:32:21Z</time>
      </trkpt>
      <trkpt lat="44.95068" lon="5.71743">
        <ele>692.2</ele>
        <time>2022-07-16T07:32:23Z</time>
      </trkpt>
      <trkpt lat="44.95064" lon="5.71741">
        <ele>692.6</ele>
        <time>2022-07-16T07:32:25Z</time>
      </trkpt>
      <trkpt lat="44.95062" lon="5.71738">
        <ele>692.8</ele>
        <time>2022-07-16T07:32:26Z</time>
      </trkpt>
      <trkpt lat="44.95059" lon="5.71737">
        <ele>693.1</ele>
        <time>2022-07-16T07:32:27Z</time>
      </trkpt>
      <trkpt lat="44.95054" lon="5.71736">
        <ele>693.4</ele>
        <time>2022-07-16T07:32:29Z</time>
      </trkpt>
      <trkpt lat="44.95052" lon="5.71735">
        <ele>693.6</ele>
        <time>2022-07-16T07:32:30Z</time>
      </trkpt>
      <trkpt lat="44.95048" lon="5.71733">
        <ele>694</ele>
        <time>2022-07-16T07:32:32Z</time>
      </trkpt>
      <trkpt lat="44.95044" lon="5.71732">
        <ele>694.4</ele>
        <time>2022-07-16T07:32:33Z</time>
      </trkpt>
      <trkpt lat="44.95042" lon="5.71731">
        <ele>694.5</ele>
        <time>2022-07-16T07:32:34Z</time>
      </trkpt>
      <trkpt lat="44.95039" lon="5.7173">
        <ele>694.8</ele>
        <time>2022-07-16T07:32:36Z</time>
      </trkpt>
      <trkpt lat="44.95036" lon="5.71728">
        <ele>695.1</ele>
        <time>2022-07-16T07:32:37Z</time>
      </trkpt>
      <trkpt lat="44.95033" lon="5.71728">
        <ele>695.4</ele>
        <time>2022-07-16T07:32:38Z</time>
      </trkpt>
      <trkpt lat="44.9503" lon="5.71727">
        <ele>695.7</ele>
        <time>2022-07-16T07:32:39Z</time>
      </trkpt>
      <trkpt lat="44.95029" lon="5.71726">
        <ele>695.8</ele>
        <time>2022-07-16T07:32:40Z</time>
      </trkpt>
      <trkpt lat="44.95027" lon="5.71726">
        <ele>695.9</ele>
        <time>2022-07-16T07:32:41Z</time>
      </trkpt>
      <trkpt lat="44.95024" lon="5.71726">
        <ele>696.2</ele>
        <time>2022-07-16T07:32:42Z</time>
      </trkpt>
      <trkpt lat="44.95021" lon="5.71725">
        <ele>696.5</ele>
        <time>2022-07-16T07:32:44Z</time>
      </trkpt>
      <trkpt lat="44.95017" lon="5.71723">
        <ele>696.8</ele>
        <time>2022-07-16T07:32:45Z</time>
      </trkpt>
      <trkpt lat="44.95016" lon="5.71722">
        <ele>696.9</ele>
        <time>2022-07-16T07:32:46Z</time>
      </trkpt>
      <trkpt lat="44.95012" lon="5.71721">
        <ele>697.3</ele>
        <time>2022-07-16T07:32:47Z</time>
      </trkpt>
      <trkpt lat="44.95009" lon="5.71721">
        <ele>697.5</ele>
        <time>2022-07-16T07:32:48Z</time>
      </trkpt>
      <trkpt lat="44.95007" lon="5.7172">
        <ele>697.7</ele>
        <time>2022-07-16T07:32:49Z</time>
      </trkpt>
      <trkpt lat="44.95004" lon="5.71722">
        <ele>697.8</ele>
        <time>2022-07-16T07:32:51Z</time>
      </trkpt>
      <trkpt lat="44.95001" lon="5.71724">
        <ele>698</ele>
        <time>2022-07-16T07:32:52Z</time>
      </trkpt>
      <trkpt lat="44.94998" lon="5.71725">
        <ele>698.2</ele>
        <time>2022-07-16T07:32:53Z</time>
      </trkpt>
      <trkpt lat="44.94993" lon="5.71729">
        <ele>698.5</ele>
        <time>2022-07-16T07:32:55Z</time>
      </trkpt>
      <trkpt lat="44.9499" lon="5.71732">
        <ele>698.6</ele>
        <time>2022-07-16T07:32:57Z</time>
      </trkpt>
      <trkpt lat="44.94988" lon="5.71736">
        <ele>698.8</ele>
        <time>2022-07-16T07:32:58Z</time>
      </trkpt>
      <trkpt lat="44.94984" lon="5.71739">
        <ele>699</ele>
        <time>2022-07-16T07:33:00Z</time>
      </trkpt>
      <trkpt lat="44.94982" lon="5.71742">
        <ele>699.1</ele>
        <time>2022-07-16T07:33:01Z</time>
      </trkpt>
      <trkpt lat="44.94979" lon="5.71744">
        <ele>699.2</ele>
        <time>2022-07-16T07:33:02Z</time>
      </trkpt>
      <trkpt lat="44.94978" lon="5.71744">
        <ele>699.2</ele>
        <time>2022-07-16T07:33:03Z</time>
      </trkpt>
      <trkpt lat="44.94976" lon="5.71746">
        <ele>699.3</ele>
        <time>2022-07-16T07:33:04Z</time>
      </trkpt>
      <trkpt lat="44.94973" lon="5.7175">
        <ele>699.3</ele>
        <time>2022-07-16T07:33:06Z</time>
      </trkpt>
      <trkpt lat="44.94971" lon="5.71752">
        <ele>699.3</ele>
        <time>2022-07-16T07:33:07Z</time>
      </trkpt>
      <trkpt lat="44.9497" lon="5.71752">
        <ele>699.3</ele>
        <time>2022-07-16T07:33:08Z</time>
      </trkpt>
      <trkpt lat="44.94968" lon="5.71754">
        <ele>699.3</ele>
        <time>2022-07-16T07:33:09Z</time>
      </trkpt>
      <trkpt lat="44.94967" lon="5.71756">
        <ele>699.3</ele>
        <time>2022-07-16T07:33:10Z</time>
      </trkpt>
      <trkpt lat="44.94966" lon="5.71757">
        <ele>699.3</ele>
        <time>2022-07-16T07:33:12Z</time>
      </trkpt>
      <trkpt lat="44.94963" lon="5.71761">
        <ele>699.3</ele>
        <time>2022-07-16T07:33:13Z</time>
      </trkpt>
      <trkpt lat="44.94956" lon="5.71766">
        <ele>699.3</ele>
        <time>2022-07-16T07:33:15Z</time>
      </trkpt>
      <trkpt lat="44.94952" lon="5.71768">
        <ele>699.3</ele>
        <time>2022-07-16T07:33:16Z</time>
      </trkpt>
      <trkpt lat="44.94948" lon="5.71771">
        <ele>699.3</ele>
        <time>2022-07-16T07:33:17Z</time>
      </trkpt>
      <trkpt lat="44.94943" lon="5.71777">
        <ele>699.3</ele>
        <time>2022-07-16T07:33:19Z</time>
      </trkpt>
      <trkpt lat="44.9494" lon="5.7178">
        <ele>699.3</ele>
        <time>2022-07-16T07:33:20Z</time>
      </trkpt>
      <trkpt lat="44.94937" lon="5.71782">
        <ele>699.3</ele>
        <time>2022-07-16T07:33:21Z</time>
      </trkpt>
      <trkpt lat="44.94934" lon="5.71787">
        <ele>699.2</ele>
        <time>2022-07-16T07:33:22Z</time>
      </trkpt>
      <trkpt lat="44.94931" lon="5.71789">
        <ele>699.2</ele>
        <time>2022-07-16T07:33:23Z</time>
      </trkpt>
      <trkpt lat="44.94925" lon="5.71796">
        <ele>699.2</ele>
        <time>2022-07-16T07:33:24Z</time>
      </trkpt>
      <trkpt lat="44.94921" lon="5.71801">
        <ele>699.2</ele>
        <time>2022-07-16T07:33:26Z</time>
      </trkpt>
      <trkpt lat="44.94919" lon="5.71804">
        <ele>699.2</ele>
        <time>2022-07-16T07:33:27Z</time>
      </trkpt>
      <trkpt lat="44.94918" lon="5.71805">
        <ele>699.2</ele>
        <time>2022-07-16T07:33:28Z</time>
      </trkpt>
      <trkpt lat="44.94915" lon="5.71807">
        <ele>699.2</ele>
        <time>2022-07-16T07:33:29Z</time>
      </trkpt>
      <trkpt lat="44.94914" lon="5.7181">
        <ele>699.2</ele>
        <time>2022-07-16T07:33:31Z</time>
      </trkpt>
      <trkpt lat="44.94912" lon="5.71813">
        <ele>699.2</ele>
        <time>2022-07-16T07:33:32Z</time>
      </trkpt>
      <trkpt lat="44.94908" lon="5.71815">
        <ele>699.2</ele>
        <time>2022-07-16T07:33:33Z</time>
      </trkpt>
      <trkpt lat="44.94902" lon="5.71818">
        <ele>699.1</ele>
        <time>2022-07-16T07:33:35Z</time>
      </trkpt>
      <trkpt lat="44.94899" lon="5.71819">
        <ele>699.1</ele>
        <time>2022-07-16T07:33:36Z</time>
      </trkpt>
      <trkpt lat="44.94893" lon="5.71824">
        <ele>699.1</ele>
        <time>2022-07-16T07:33:38Z</time>
      </trkpt>
      <trkpt lat="44.94889" lon="5.71822">
        <ele>699.1</ele>
        <time>2022-07-16T07:33:40Z</time>
      </trkpt>
      <trkpt lat="44.94884" lon="5.71822">
        <ele>699.1</ele>
        <time>2022-07-16T07:33:42Z</time>
      </trkpt>
      <trkpt lat="44.94882" lon="5.71822">
        <ele>699.1</ele>
        <time>2022-07-16T07:33:43Z</time>
      </trkpt>
      <trkpt lat="44.94875" lon="5.71826">
        <ele>699.1</ele>
        <time>2022-07-16T07:33:45Z</time>
      </trkpt>
      <trkpt lat="44.94871" lon="5.71826">
        <ele>699.1</ele>
        <time>2022-07-16T07:33:46Z</time>
      </trkpt>
      <trkpt lat="44.9487" lon="5.71826">
        <ele>699.1</ele>
        <time>2022-07-16T07:33:47Z</time>
      </trkpt>
      <trkpt lat="44.94862" lon="5.71827">
        <ele>699.1</ele>
        <time>2022-07-16T07:33:49Z</time>
      </trkpt>
      <trkpt lat="44.9486" lon="5.71828">
        <ele>699.2</ele>
        <time>2022-07-16T07:33:50Z</time>
      </trkpt>
      <trkpt lat="44.94857" lon="5.71828">
        <ele>699.2</ele>
        <time>2022-07-16T07:33:51Z</time>
      </trkpt>
      <trkpt lat="44.94854" lon="5.71827">
        <ele>699.3</ele>
        <time>2022-07-16T07:33:52Z</time>
      </trkpt>
      <trkpt lat="44.94849" lon="5.71828">
        <ele>699.4</ele>
        <time>2022-07-16T07:33:54Z</time>
      </trkpt>
      <trkpt lat="44.94846" lon="5.7183">
        <ele>699.5</ele>
        <time>2022-07-16T07:33:55Z</time>
      </trkpt>
      <trkpt lat="44.94843" lon="5.7183">
        <ele>699.6</ele>
        <time>2022-07-16T07:33:56Z</time>
      </trkpt>
      <trkpt lat="44.94841" lon="5.71828">
        <ele>699.6</ele>
        <time>2022-07-16T07:33:58Z</time>
      </trkpt>
      <trkpt lat="44.9484" lon="5.71827">
        <ele>699.7</ele>
        <time>2022-07-16T07:33:59Z</time>
      </trkpt>
      <trkpt lat="44.94837" lon="5.71829">
        <ele>699.8</ele>
        <time>2022-07-16T07:34:00Z</time>
      </trkpt>
      <trkpt lat="44.94835" lon="5.71831">
        <ele>699.9</ele>
        <time>2022-07-16T07:34:01Z</time>
      </trkpt>
      <trkpt lat="44.94833" lon="5.71833">
        <ele>700</ele>
        <time>2022-07-16T07:34:02Z</time>
      </trkpt>
      <trkpt lat="44.94832" lon="5.71834">
        <ele>700</ele>
        <time>2022-07-16T07:34:03Z</time>
      </trkpt>
      <trkpt lat="44.94828" lon="5.71836">
        <ele>700.2</ele>
        <time>2022-07-16T07:34:05Z</time>
      </trkpt>
      <trkpt lat="44.94824" lon="5.71838">
        <ele>700.3</ele>
        <time>2022-07-16T07:34:06Z</time>
      </trkpt>
      <trkpt lat="44.94822" lon="5.71839">
        <ele>700.4</ele>
        <time>2022-07-16T07:34:07Z</time>
      </trkpt>
      <trkpt lat="44.94816" lon="5.71842">
        <ele>700.7</ele>
        <time>2022-07-16T07:34:09Z</time>
      </trkpt>
      <trkpt lat="44.94812" lon="5.71844">
        <ele>700.9</ele>
        <time>2022-07-16T07:34:10Z</time>
      </trkpt>
      <trkpt lat="44.94809" lon="5.71847">
        <ele>701.2</ele>
        <time>2022-07-16T07:34:12Z</time>
      </trkpt>
      <trkpt lat="44.94806" lon="5.71848">
        <ele>701.3</ele>
        <time>2022-07-16T07:34:13Z</time>
      </trkpt>
      <trkpt lat="44.94803" lon="5.7185">
        <ele>701.4</ele>
        <time>2022-07-16T07:34:14Z</time>
      </trkpt>
      <trkpt lat="44.94802" lon="5.71854">
        <ele>701.5</ele>
        <time>2022-07-16T07:34:15Z</time>
      </trkpt>
      <trkpt lat="44.94799" lon="5.7186">
        <ele>701.6</ele>
        <time>2022-07-16T07:34:17Z</time>
      </trkpt>
      <trkpt lat="44.94798" lon="5.71864">
        <ele>701.6</ele>
        <time>2022-07-16T07:34:18Z</time>
      </trkpt>
      <trkpt lat="44.94798" lon="5.71865">
        <ele>701.6</ele>
        <time>2022-07-16T07:34:19Z</time>
      </trkpt>
      <trkpt lat="44.94797" lon="5.71867">
        <ele>701.7</ele>
        <time>2022-07-16T07:34:20Z</time>
      </trkpt>
      <trkpt lat="44.94793" lon="5.71871">
        <ele>701.8</ele>
        <time>2022-07-16T07:34:22Z</time>
      </trkpt>
      <trkpt lat="44.94789" lon="5.71875">
        <ele>702.1</ele>
        <time>2022-07-16T07:34:24Z</time>
      </trkpt>
      <trkpt lat="44.94786" lon="5.71877">
        <ele>702.2</ele>
        <time>2022-07-16T07:34:25Z</time>
      </trkpt>
      <trkpt lat="44.94782" lon="5.71885">
        <ele>702.6</ele>
        <time>2022-07-16T07:34:27Z</time>
      </trkpt>
      <trkpt lat="44.94779" lon="5.71888">
        <ele>702.8</ele>
        <time>2022-07-16T07:34:28Z</time>
      </trkpt>
      <trkpt lat="44.94778" lon="5.71891">
        <ele>702.9</ele>
        <time>2022-07-16T07:34:29Z</time>
      </trkpt>
      <trkpt lat="44.94774" lon="5.71893">
        <ele>703.1</ele>
        <time>2022-07-16T07:34:30Z</time>
      </trkpt>
      <trkpt lat="44.94766" lon="5.71891">
        <ele>703.5</ele>
        <time>2022-07-16T07:34:32Z</time>
      </trkpt>
      <trkpt lat="44.94759" lon="5.71891">
        <ele>703.9</ele>
        <time>2022-07-16T07:34:34Z</time>
      </trkpt>
      <trkpt lat="44.94755" lon="5.71893">
        <ele>704.1</ele>
        <time>2022-07-16T07:34:35Z</time>
      </trkpt>
      <trkpt lat="44.94747" lon="5.71893">
        <ele>704.6</ele>
        <time>2022-07-16T07:34:38Z</time>
      </trkpt>
      <trkpt lat="44.94744" lon="5.71892">
        <ele>704.8</ele>
        <time>2022-07-16T07:34:39Z</time>
      </trkpt>
      <trkpt lat="44.94741" lon="5.71892">
        <ele>705</ele>
        <time>2022-07-16T07:34:40Z</time>
      </trkpt>
      <trkpt lat="44.94736" lon="5.7189">
        <ele>705.3</ele>
        <time>2022-07-16T07:34:42Z</time>
      </trkpt>
      <trkpt lat="44.94733" lon="5.71888">
        <ele>705.5</ele>
        <time>2022-07-16T07:34:43Z</time>
      </trkpt>
      <trkpt lat="44.94727" lon="5.71891">
        <ele>705.9</ele>
        <time>2022-07-16T07:34:45Z</time>
      </trkpt>
      <trkpt lat="44.94719" lon="5.7189">
        <ele>706.3</ele>
        <time>2022-07-16T07:34:47Z</time>
      </trkpt>
      <trkpt lat="44.94715" lon="5.71888">
        <ele>706.5</ele>
        <time>2022-07-16T07:34:48Z</time>
      </trkpt>
      <trkpt lat="44.94714" lon="5.71887">
        <ele>706.6</ele>
        <time>2022-07-16T07:34:49Z</time>
      </trkpt>
      <trkpt lat="44.94709" lon="5.71886">
        <ele>706.9</ele>
        <time>2022-07-16T07:34:51Z</time>
      </trkpt>
      <trkpt lat="44.94706" lon="5.71886">
        <ele>707</ele>
        <time>2022-07-16T07:34:52Z</time>
      </trkpt>
      <trkpt lat="44.94703" lon="5.71885">
        <ele>707.2</ele>
        <time>2022-07-16T07:34:53Z</time>
      </trkpt>
      <trkpt lat="44.94699" lon="5.71883">
        <ele>707.4</ele>
        <time>2022-07-16T07:34:54Z</time>
      </trkpt>
      <trkpt lat="44.94692" lon="5.71881">
        <ele>707.7</ele>
        <time>2022-07-16T07:34:55Z</time>
      </trkpt>
      <trkpt lat="44.94688" lon="5.71878">
        <ele>708</ele>
        <time>2022-07-16T07:34:57Z</time>
      </trkpt>
      <trkpt lat="44.94687" lon="5.71876">
        <ele>708.1</ele>
        <time>2022-07-16T07:34:58Z</time>
      </trkpt>
      <trkpt lat="44.94684" lon="5.71874">
        <ele>708.2</ele>
        <time>2022-07-16T07:34:59Z</time>
      </trkpt>
      <trkpt lat="44.94682" lon="5.71871">
        <ele>708.4</ele>
        <time>2022-07-16T07:35:00Z</time>
      </trkpt>
      <trkpt lat="44.94676" lon="5.71867">
        <ele>708.8</ele>
        <time>2022-07-16T07:35:02Z</time>
      </trkpt>
      <trkpt lat="44.94673" lon="5.71864">
        <ele>709</ele>
        <time>2022-07-16T07:35:03Z</time>
      </trkpt>
      <trkpt lat="44.9467" lon="5.71862">
        <ele>709.3</ele>
        <time>2022-07-16T07:35:04Z</time>
      </trkpt>
      <trkpt lat="44.94666" lon="5.71856">
        <ele>709.7</ele>
        <time>2022-07-16T07:35:06Z</time>
      </trkpt>
      <trkpt lat="44.94662" lon="5.71851">
        <ele>710</ele>
        <time>2022-07-16T07:35:08Z</time>
      </trkpt>
      <trkpt lat="44.94659" lon="5.71845">
        <ele>710.4</ele>
        <time>2022-07-16T07:35:10Z</time>
      </trkpt>
      <trkpt lat="44.94657" lon="5.71842">
        <ele>710.6</ele>
        <time>2022-07-16T07:35:11Z</time>
      </trkpt>
      <trkpt lat="44.94654" lon="5.71839">
        <ele>710.9</ele>
        <time>2022-07-16T07:35:12Z</time>
      </trkpt>
      <trkpt lat="44.94653" lon="5.71838">
        <ele>711</ele>
        <time>2022-07-16T07:35:13Z</time>
      </trkpt>
      <trkpt lat="44.9465" lon="5.71834">
        <ele>711.3</ele>
        <time>2022-07-16T07:35:15Z</time>
      </trkpt>
      <trkpt lat="44.94648" lon="5.71832">
        <ele>711.5</ele>
        <time>2022-07-16T07:35:16Z</time>
      </trkpt>
      <trkpt lat="44.94643" lon="5.71829">
        <ele>711.9</ele>
        <time>2022-07-16T07:35:18Z</time>
      </trkpt>
      <trkpt lat="44.94641" lon="5.71828">
        <ele>712.1</ele>
        <time>2022-07-16T07:35:19Z</time>
      </trkpt>
      <trkpt lat="44.94637" lon="5.71822">
        <ele>712.4</ele>
        <time>2022-07-16T07:35:21Z</time>
      </trkpt>
      <trkpt lat="44.94635" lon="5.7182">
        <ele>712.4</ele>
        <time>2022-07-16T07:35:22Z</time>
      </trkpt>
      <trkpt lat="44.94633" lon="5.71811">
        <ele>712.6</ele>
        <time>2022-07-16T07:35:24Z</time>
      </trkpt>
      <trkpt lat="44.94633" lon="5.71806">
        <ele>712.6</ele>
        <time>2022-07-16T07:35:25Z</time>
      </trkpt>
      <trkpt lat="44.94631" lon="5.71796">
        <ele>712.7</ele>
        <time>2022-07-16T07:35:27Z</time>
      </trkpt>
      <trkpt lat="44.94627" lon="5.71789">
        <ele>712.8</ele>
        <time>2022-07-16T07:35:29Z</time>
      </trkpt>
      <trkpt lat="44.94622" lon="5.71784">
        <ele>712.9</ele>
        <time>2022-07-16T07:35:31Z</time>
      </trkpt>
      <trkpt lat="44.94617" lon="5.71782">
        <ele>712.9</ele>
        <time>2022-07-16T07:35:32Z</time>
      </trkpt>
      <trkpt lat="44.94613" lon="5.71782">
        <ele>713</ele>
        <time>2022-07-16T07:35:33Z</time>
      </trkpt>
      <trkpt lat="44.94606" lon="5.71782">
        <ele>713</ele>
        <time>2022-07-16T07:35:35Z</time>
      </trkpt>
      <trkpt lat="44.94602" lon="5.71784">
        <ele>713</ele>
        <time>2022-07-16T07:35:36Z</time>
      </trkpt>
      <trkpt lat="44.94595" lon="5.71788">
        <ele>713</ele>
        <time>2022-07-16T07:35:37Z</time>
      </trkpt>
      <trkpt lat="44.9459" lon="5.71793">
        <ele>713</ele>
        <time>2022-07-16T07:35:39Z</time>
      </trkpt>
      <trkpt lat="44.94587" lon="5.71796">
        <ele>712.9</ele>
        <time>2022-07-16T07:35:40Z</time>
      </trkpt>
      <trkpt lat="44.9458" lon="5.71802">
        <ele>712.9</ele>
        <time>2022-07-16T07:35:41Z</time>
      </trkpt>
      <trkpt lat="44.94577" lon="5.71806">
        <ele>712.9</ele>
        <time>2022-07-16T07:35:42Z</time>
      </trkpt>
      <trkpt lat="44.94572" lon="5.71811">
        <ele>712.9</ele>
        <time>2022-07-16T07:35:44Z</time>
      </trkpt>
      <trkpt lat="44.94561" lon="5.71822">
        <ele>712.9</ele>
        <time>2022-07-16T07:35:47Z</time>
      </trkpt>
      <trkpt lat="44.94556" lon="5.71825">
        <ele>713</ele>
        <time>2022-07-16T07:35:48Z</time>
      </trkpt>
      <trkpt lat="44.94552" lon="5.71828">
        <ele>713.1</ele>
        <time>2022-07-16T07:35:49Z</time>
      </trkpt>
      <trkpt lat="44.94548" lon="5.71829">
        <ele>713.2</ele>
        <time>2022-07-16T07:35:50Z</time>
      </trkpt>
      <trkpt lat="44.94543" lon="5.71829">
        <ele>713.3</ele>
        <time>2022-07-16T07:35:51Z</time>
      </trkpt>
      <trkpt lat="44.94539" lon="5.71827">
        <ele>713.4</ele>
        <time>2022-07-16T07:35:52Z</time>
      </trkpt>
      <trkpt lat="44.9453" lon="5.71817">
        <ele>713.6</ele>
        <time>2022-07-16T07:35:53Z</time>
      </trkpt>
      <trkpt lat="44.94527" lon="5.71812">
        <ele>713.6</ele>
        <time>2022-07-16T07:35:54Z</time>
      </trkpt>
      <trkpt lat="44.94524" lon="5.71804">
        <ele>713.6</ele>
        <time>2022-07-16T07:35:56Z</time>
      </trkpt>
      <trkpt lat="44.94522" lon="5.71801">
        <ele>713.7</ele>
        <time>2022-07-16T07:35:57Z</time>
      </trkpt>
      <trkpt lat="44.94519" lon="5.71793">
        <ele>713.8</ele>
        <time>2022-07-16T07:35:59Z</time>
      </trkpt>
      <trkpt lat="44.94519" lon="5.71785">
        <ele>713.9</ele>
        <time>2022-07-16T07:36:00Z</time>
      </trkpt>
      <trkpt lat="44.94522" lon="5.71779">
        <ele>714.1</ele>
        <time>2022-07-16T07:36:01Z</time>
      </trkpt>
      <trkpt lat="44.94526" lon="5.71773">
        <ele>714.2</ele>
        <time>2022-07-16T07:36:02Z</time>
      </trkpt>
      <trkpt lat="44.94529" lon="5.71767">
        <ele>714.4</ele>
        <time>2022-07-16T07:36:03Z</time>
      </trkpt>
      <trkpt lat="44.94532" lon="5.71762">
        <ele>714.5</ele>
        <time>2022-07-16T07:36:04Z</time>
      </trkpt>
      <trkpt lat="44.94535" lon="5.71754">
        <ele>714.7</ele>
        <time>2022-07-16T07:36:06Z</time>
      </trkpt>
      <trkpt lat="44.94538" lon="5.7175">
        <ele>714.9</ele>
        <time>2022-07-16T07:36:07Z</time>
      </trkpt>
      <trkpt lat="44.94541" lon="5.71746">
        <ele>715.1</ele>
        <time>2022-07-16T07:36:08Z</time>
      </trkpt>
      <trkpt lat="44.94546" lon="5.71739">
        <ele>715.3</ele>
        <time>2022-07-16T07:36:10Z</time>
      </trkpt>
      <trkpt lat="44.9455" lon="5.71735">
        <ele>715.5</ele>
        <time>2022-07-16T07:36:11Z</time>
      </trkpt>
      <trkpt lat="44.94552" lon="5.7173">
        <ele>715.7</ele>
        <time>2022-07-16T07:36:12Z</time>
      </trkpt>
      <trkpt lat="44.94555" lon="5.71724">
        <ele>715.9</ele>
        <time>2022-07-16T07:36:13Z</time>
      </trkpt>
      <trkpt lat="44.94558" lon="5.71717">
        <ele>716.1</ele>
        <time>2022-07-16T07:36:15Z</time>
      </trkpt>
      <trkpt lat="44.9456" lon="5.71714">
        <ele>716.2</ele>
        <time>2022-07-16T07:36:16Z</time>
      </trkpt>
      <trkpt lat="44.94563" lon="5.71708">
        <ele>716.5</ele>
        <time>2022-07-16T07:36:17Z</time>
      </trkpt>
      <trkpt lat="44.94564" lon="5.71703">
        <ele>716.6</ele>
        <time>2022-07-16T07:36:18Z</time>
      </trkpt>
      <trkpt lat="44.94566" lon="5.71698">
        <ele>716.7</ele>
        <time>2022-07-16T07:36:19Z</time>
      </trkpt>
      <trkpt lat="44.94571" lon="5.7169">
        <ele>717</ele>
        <time>2022-07-16T07:36:20Z</time>
      </trkpt>
      <trkpt lat="44.94572" lon="5.71687">
        <ele>717.2</ele>
        <time>2022-07-16T07:36:22Z</time>
      </trkpt>
      <trkpt lat="44.94574" lon="5.71682">
        <ele>717.3</ele>
        <time>2022-07-16T07:36:23Z</time>
      </trkpt>
      <trkpt lat="44.94578" lon="5.71674">
        <ele>717.6</ele>
        <time>2022-07-16T07:36:24Z</time>
      </trkpt>
      <trkpt lat="44.94584" lon="5.71666">
        <ele>718</ele>
        <time>2022-07-16T07:36:26Z</time>
      </trkpt>
      <trkpt lat="44.94588" lon="5.71657">
        <ele>718.4</ele>
        <time>2022-07-16T07:36:28Z</time>
      </trkpt>
      <trkpt lat="44.9459" lon="5.71653">
        <ele>718.5</ele>
        <time>2022-07-16T07:36:29Z</time>
      </trkpt>
      <trkpt lat="44.94592" lon="5.71648">
        <ele>718.8</ele>
        <time>2022-07-16T07:36:31Z</time>
      </trkpt>
      <trkpt lat="44.94592" lon="5.71645">
        <ele>718.9</ele>
        <time>2022-07-16T07:36:32Z</time>
      </trkpt>
      <trkpt lat="44.94596" lon="5.71637">
        <ele>719.2</ele>
        <time>2022-07-16T07:36:34Z</time>
      </trkpt>
      <trkpt lat="44.94595" lon="5.7163">
        <ele>719.5</ele>
        <time>2022-07-16T07:36:35Z</time>
      </trkpt>
      <trkpt lat="44.94595" lon="5.71626">
        <ele>719.7</ele>
        <time>2022-07-16T07:36:36Z</time>
      </trkpt>
      <trkpt lat="44.94596" lon="5.71619">
        <ele>720.1</ele>
        <time>2022-07-16T07:36:38Z</time>
      </trkpt>
      <trkpt lat="44.94597" lon="5.71615">
        <ele>720.3</ele>
        <time>2022-07-16T07:36:39Z</time>
      </trkpt>
      <trkpt lat="44.94596" lon="5.7161">
        <ele>720.5</ele>
        <time>2022-07-16T07:36:40Z</time>
      </trkpt>
      <trkpt lat="44.94595" lon="5.71603">
        <ele>720.9</ele>
        <time>2022-07-16T07:36:41Z</time>
      </trkpt>
      <trkpt lat="44.94596" lon="5.71599">
        <ele>721.1</ele>
        <time>2022-07-16T07:36:43Z</time>
      </trkpt>
      <trkpt lat="44.94596" lon="5.71597">
        <ele>721.2</ele>
        <time>2022-07-16T07:36:44Z</time>
      </trkpt>
      <trkpt lat="44.94595" lon="5.71591">
        <ele>721.5</ele>
        <time>2022-07-16T07:36:46Z</time>
      </trkpt>
      <trkpt lat="44.94595" lon="5.71587">
        <ele>721.7</ele>
        <time>2022-07-16T07:36:47Z</time>
      </trkpt>
      <trkpt lat="44.94595" lon="5.71582">
        <ele>722</ele>
        <time>2022-07-16T07:36:48Z</time>
      </trkpt>
      <trkpt lat="44.94595" lon="5.71576">
        <ele>722.2</ele>
        <time>2022-07-16T07:36:49Z</time>
      </trkpt>
      <trkpt lat="44.94594" lon="5.71573">
        <ele>722.4</ele>
        <time>2022-07-16T07:36:51Z</time>
      </trkpt>
      <trkpt lat="44.94592" lon="5.71564">
        <ele>722.8</ele>
        <time>2022-07-16T07:36:53Z</time>
      </trkpt>
      <trkpt lat="44.9459" lon="5.71561">
        <ele>723</ele>
        <time>2022-07-16T07:36:54Z</time>
      </trkpt>
      <trkpt lat="44.94589" lon="5.71557">
        <ele>723.2</ele>
        <time>2022-07-16T07:36:55Z</time>
      </trkpt>
      <trkpt lat="44.94588" lon="5.71551">
        <ele>723.5</ele>
        <time>2022-07-16T07:36:57Z</time>
      </trkpt>
      <trkpt lat="44.94586" lon="5.71548">
        <ele>723.7</ele>
        <time>2022-07-16T07:36:58Z</time>
      </trkpt>
      <trkpt lat="44.94584" lon="5.71544">
        <ele>723.9</ele>
        <time>2022-07-16T07:36:59Z</time>
      </trkpt>
      <trkpt lat="44.94582" lon="5.71539">
        <ele>724.1</ele>
        <time>2022-07-16T07:37:00Z</time>
      </trkpt>
      <trkpt lat="44.9458" lon="5.71534">
        <ele>724.4</ele>
        <time>2022-07-16T07:37:02Z</time>
      </trkpt>
      <trkpt lat="44.94578" lon="5.71529">
        <ele>724.6</ele>
        <time>2022-07-16T07:37:03Z</time>
      </trkpt>
      <trkpt lat="44.94577" lon="5.71525">
        <ele>724.8</ele>
        <time>2022-07-16T07:37:04Z</time>
      </trkpt>
      <trkpt lat="44.94575" lon="5.71517">
        <ele>725.2</ele>
        <time>2022-07-16T07:37:06Z</time>
      </trkpt>
      <trkpt lat="44.94574" lon="5.71509">
        <ele>725.5</ele>
        <time>2022-07-16T07:37:08Z</time>
      </trkpt>
      <trkpt lat="44.94574" lon="5.71502">
        <ele>725.8</ele>
        <time>2022-07-16T07:37:10Z</time>
      </trkpt>
      <trkpt lat="44.94574" lon="5.71497">
        <ele>726</ele>
        <time>2022-07-16T07:37:11Z</time>
      </trkpt>
      <trkpt lat="44.94572" lon="5.7149">
        <ele>726.3</ele>
        <time>2022-07-16T07:37:13Z</time>
      </trkpt>
      <trkpt lat="44.94572" lon="5.71483">
        <ele>726.7</ele>
        <time>2022-07-16T07:37:15Z</time>
      </trkpt>
      <trkpt lat="44.94572" lon="5.71478">
        <ele>727</ele>
        <time>2022-07-16T07:37:17Z</time>
      </trkpt>
      <trkpt lat="44.94571" lon="5.71472">
        <ele>727.4</ele>
        <time>2022-07-16T07:37:18Z</time>
      </trkpt>
      <trkpt lat="44.94571" lon="5.71471">
        <ele>727.5</ele>
        <time>2022-07-16T07:37:19Z</time>
      </trkpt>
      <trkpt lat="44.9457" lon="5.71466">
        <ele>727.8</ele>
        <time>2022-07-16T07:37:21Z</time>
      </trkpt>
      <trkpt lat="44.9457" lon="5.71461">
        <ele>728.1</ele>
        <time>2022-07-16T07:37:23Z</time>
      </trkpt>
      <trkpt lat="44.94569" lon="5.71457">
        <ele>728.4</ele>
        <time>2022-07-16T07:37:24Z</time>
      </trkpt>
      <trkpt lat="44.94569" lon="5.71456">
        <ele>728.5</ele>
        <time>2022-07-16T07:37:25Z</time>
      </trkpt>
      <trkpt lat="44.94566" lon="5.71448">
        <ele>729.2</ele>
        <time>2022-07-16T07:37:28Z</time>
      </trkpt>
      <trkpt lat="44.94565" lon="5.71446">
        <ele>729.3</ele>
        <time>2022-07-16T07:37:29Z</time>
      </trkpt>
      <trkpt lat="44.94564" lon="5.71445">
        <ele>729.5</ele>
        <time>2022-07-16T07:37:30Z</time>
      </trkpt>
      <trkpt lat="44.94563" lon="5.71436">
        <ele>730.1</ele>
        <time>2022-07-16T07:37:32Z</time>
      </trkpt>
      <trkpt lat="44.94564" lon="5.71431">
        <ele>730.5</ele>
        <time>2022-07-16T07:37:34Z</time>
      </trkpt>
      <trkpt lat="44.94566" lon="5.7142">
        <ele>731.3</ele>
        <time>2022-07-16T07:37:37Z</time>
      </trkpt>
      <trkpt lat="44.94568" lon="5.71417">
        <ele>731.5</ele>
        <time>2022-07-16T07:37:38Z</time>
      </trkpt>
      <trkpt lat="44.94568" lon="5.71416">
        <ele>731.6</ele>
        <time>2022-07-16T07:37:39Z</time>
      </trkpt>
      <trkpt lat="44.94569" lon="5.71412">
        <ele>731.9</ele>
        <time>2022-07-16T07:37:40Z</time>
      </trkpt>
      <trkpt lat="44.9457" lon="5.7141">
        <ele>732</ele>
        <time>2022-07-16T07:37:41Z</time>
      </trkpt>
      <trkpt lat="44.9457" lon="5.71408">
        <ele>732.2</ele>
        <time>2022-07-16T07:37:42Z</time>
      </trkpt>
      <trkpt lat="44.9457" lon="5.71404">
        <ele>732.4</ele>
        <time>2022-07-16T07:37:45Z</time>
      </trkpt>
      <trkpt lat="44.9457" lon="5.71399">
        <ele>732.6</ele>
        <time>2022-07-16T07:37:46Z</time>
      </trkpt>
      <trkpt lat="44.9457" lon="5.71393">
        <ele>732.9</ele>
        <time>2022-07-16T07:37:48Z</time>
      </trkpt>
      <trkpt lat="44.94569" lon="5.71391">
        <ele>733.1</ele>
        <time>2022-07-16T07:37:49Z</time>
      </trkpt>
      <trkpt lat="44.94568" lon="5.71385">
        <ele>733.4</ele>
        <time>2022-07-16T07:37:51Z</time>
      </trkpt>
      <trkpt lat="44.94567" lon="5.7138">
        <ele>733.7</ele>
        <time>2022-07-16T07:37:52Z</time>
      </trkpt>
      <trkpt lat="44.94567" lon="5.71376">
        <ele>733.8</ele>
        <time>2022-07-16T07:37:53Z</time>
      </trkpt>
      <trkpt lat="44.94567" lon="5.7137">
        <ele>734.1</ele>
        <time>2022-07-16T07:37:55Z</time>
      </trkpt>
      <trkpt lat="44.94568" lon="5.71366">
        <ele>734.3</ele>
        <time>2022-07-16T07:37:56Z</time>
      </trkpt>
      <trkpt lat="44.9457" lon="5.71358">
        <ele>734.6</ele>
        <time>2022-07-16T07:37:57Z</time>
      </trkpt>
      <trkpt lat="44.94572" lon="5.71351">
        <ele>734.9</ele>
        <time>2022-07-16T07:37:59Z</time>
      </trkpt>
      <trkpt lat="44.94574" lon="5.71348">
        <ele>735.1</ele>
        <time>2022-07-16T07:38:00Z</time>
      </trkpt>
      <trkpt lat="44.94579" lon="5.71346">
        <ele>735.3</ele>
        <time>2022-07-16T07:38:02Z</time>
      </trkpt>
      <trkpt lat="44.94583" lon="5.71343">
        <ele>735.6</ele>
        <time>2022-07-16T07:38:03Z</time>
      </trkpt>
      <trkpt lat="44.94587" lon="5.7134">
        <ele>735.8</ele>
        <time>2022-07-16T07:38:04Z</time>
      </trkpt>
      <trkpt lat="44.94592" lon="5.71338">
        <ele>736.1</ele>
        <time>2022-07-16T07:38:07Z</time>
      </trkpt>
      <trkpt lat="44.94596" lon="5.71334">
        <ele>736.4</ele>
        <time>2022-07-16T07:38:08Z</time>
      </trkpt>
      <trkpt lat="44.94598" lon="5.7133">
        <ele>736.5</ele>
        <time>2022-07-16T07:38:10Z</time>
      </trkpt>
      <trkpt lat="44.946" lon="5.71325">
        <ele>736.8</ele>
        <time>2022-07-16T07:38:12Z</time>
      </trkpt>
      <trkpt lat="44.94603" lon="5.71319">
        <ele>737.1</ele>
        <time>2022-07-16T07:38:14Z</time>
      </trkpt>
      <trkpt lat="44.94605" lon="5.71316">
        <ele>737.2</ele>
        <time>2022-07-16T07:38:15Z</time>
      </trkpt>
      <trkpt lat="44.94607" lon="5.71312">
        <ele>737.4</ele>
        <time>2022-07-16T07:38:16Z</time>
      </trkpt>
      <trkpt lat="44.9461" lon="5.71305">
        <ele>737.7</ele>
        <time>2022-07-16T07:38:18Z</time>
      </trkpt>
      <trkpt lat="44.94615" lon="5.71298">
        <ele>738</ele>
        <time>2022-07-16T07:38:20Z</time>
      </trkpt>
      <trkpt lat="44.94618" lon="5.71296">
        <ele>738.1</ele>
        <time>2022-07-16T07:38:21Z</time>
      </trkpt>
      <trkpt lat="44.94623" lon="5.71291">
        <ele>738.4</ele>
        <time>2022-07-16T07:38:23Z</time>
      </trkpt>
      <trkpt lat="44.94625" lon="5.71285">
        <ele>738.6</ele>
        <time>2022-07-16T07:38:24Z</time>
      </trkpt>
      <trkpt lat="44.94627" lon="5.71278">
        <ele>738.8</ele>
        <time>2022-07-16T07:38:25Z</time>
      </trkpt>
      <trkpt lat="44.9463" lon="5.71273">
        <ele>739</ele>
        <time>2022-07-16T07:38:27Z</time>
      </trkpt>
      <trkpt lat="44.94633" lon="5.7127">
        <ele>739.1</ele>
        <time>2022-07-16T07:38:28Z</time>
      </trkpt>
      <trkpt lat="44.94634" lon="5.71263">
        <ele>739.4</ele>
        <time>2022-07-16T07:38:30Z</time>
      </trkpt>
      <trkpt lat="44.94636" lon="5.71258">
        <ele>739.5</ele>
        <time>2022-07-16T07:38:31Z</time>
      </trkpt>
      <trkpt lat="44.94639" lon="5.71252">
        <ele>739.7</ele>
        <time>2022-07-16T07:38:33Z</time>
      </trkpt>
      <trkpt lat="44.94639" lon="5.71247">
        <ele>739.8</ele>
        <time>2022-07-16T07:38:34Z</time>
      </trkpt>
      <trkpt lat="44.94642" lon="5.71239">
        <ele>740</ele>
        <time>2022-07-16T07:38:36Z</time>
      </trkpt>
      <trkpt lat="44.94646" lon="5.71231">
        <ele>740.3</ele>
        <time>2022-07-16T07:38:38Z</time>
      </trkpt>
      <trkpt lat="44.9465" lon="5.71223">
        <ele>740.5</ele>
        <time>2022-07-16T07:38:40Z</time>
      </trkpt>
      <trkpt lat="44.94652" lon="5.71216">
        <ele>740.7</ele>
        <time>2022-07-16T07:38:41Z</time>
      </trkpt>
      <trkpt lat="44.94654" lon="5.71211">
        <ele>740.9</ele>
        <time>2022-07-16T07:38:43Z</time>
      </trkpt>
      <trkpt lat="44.94656" lon="5.71205">
        <ele>741.1</ele>
        <time>2022-07-16T07:38:44Z</time>
      </trkpt>
      <trkpt lat="44.94659" lon="5.71197">
        <ele>741.3</ele>
        <time>2022-07-16T07:38:47Z</time>
      </trkpt>
      <trkpt lat="44.94661" lon="5.71191">
        <ele>741.5</ele>
        <time>2022-07-16T07:38:48Z</time>
      </trkpt>
      <trkpt lat="44.94662" lon="5.71187">
        <ele>741.6</ele>
        <time>2022-07-16T07:38:49Z</time>
      </trkpt>
      <trkpt lat="44.94664" lon="5.7118">
        <ele>741.9</ele>
        <time>2022-07-16T07:38:50Z</time>
      </trkpt>
      <trkpt lat="44.94665" lon="5.71176">
        <ele>742</ele>
        <time>2022-07-16T07:38:51Z</time>
      </trkpt>
      <trkpt lat="44.94667" lon="5.71171">
        <ele>742.1</ele>
        <time>2022-07-16T07:38:53Z</time>
      </trkpt>
      <trkpt lat="44.94669" lon="5.71166">
        <ele>742.3</ele>
        <time>2022-07-16T07:38:54Z</time>
      </trkpt>
      <trkpt lat="44.94672" lon="5.71163">
        <ele>742.4</ele>
        <time>2022-07-16T07:38:55Z</time>
      </trkpt>
      <trkpt lat="44.94675" lon="5.71156">
        <ele>742.6</ele>
        <time>2022-07-16T07:38:56Z</time>
      </trkpt>
      <trkpt lat="44.94678" lon="5.71151">
        <ele>742.8</ele>
        <time>2022-07-16T07:38:58Z</time>
      </trkpt>
      <trkpt lat="44.94678" lon="5.71146">
        <ele>742.9</ele>
        <time>2022-07-16T07:38:59Z</time>
      </trkpt>
      <trkpt lat="44.94681" lon="5.71137">
        <ele>743.1</ele>
        <time>2022-07-16T07:39:01Z</time>
      </trkpt>
      <trkpt lat="44.94681" lon="5.71132">
        <ele>743.1</ele>
        <time>2022-07-16T07:39:02Z</time>
      </trkpt>
      <trkpt lat="44.94682" lon="5.71124">
        <ele>743.1</ele>
        <time>2022-07-16T07:39:03Z</time>
      </trkpt>
      <trkpt lat="44.94682" lon="5.7112">
        <ele>743.2</ele>
        <time>2022-07-16T07:39:04Z</time>
      </trkpt>
      <trkpt lat="44.94682" lon="5.71114">
        <ele>743.2</ele>
        <time>2022-07-16T07:39:06Z</time>
      </trkpt>
      <trkpt lat="44.9468" lon="5.71109">
        <ele>743.2</ele>
        <time>2022-07-16T07:39:07Z</time>
      </trkpt>
      <trkpt lat="44.9468" lon="5.71105">
        <ele>743.2</ele>
        <time>2022-07-16T07:39:08Z</time>
      </trkpt>
      <trkpt lat="44.9468" lon="5.71099">
        <ele>743.2</ele>
        <time>2022-07-16T07:39:09Z</time>
      </trkpt>
      <trkpt lat="44.94681" lon="5.71088">
        <ele>743.3</ele>
        <time>2022-07-16T07:39:11Z</time>
      </trkpt>
      <trkpt lat="44.9469" lon="5.71066">
        <ele>743.2</ele>
        <time>2022-07-16T07:39:13Z</time>
      </trkpt>
      <trkpt lat="44.94694" lon="5.71056">
        <ele>743</ele>
        <time>2022-07-16T07:39:16Z</time>
      </trkpt>
      <trkpt lat="44.94697" lon="5.7105">
        <ele>742.9</ele>
        <time>2022-07-16T07:39:17Z</time>
      </trkpt>
      <trkpt lat="44.947" lon="5.71042">
        <ele>742.8</ele>
        <time>2022-07-16T07:39:18Z</time>
      </trkpt>
      <trkpt lat="44.94703" lon="5.71034">
        <ele>742.6</ele>
        <time>2022-07-16T07:39:19Z</time>
      </trkpt>
      <trkpt lat="44.94706" lon="5.71026">
        <ele>742.5</ele>
        <time>2022-07-16T07:39:20Z</time>
      </trkpt>
      <trkpt lat="44.94709" lon="5.71018">
        <ele>742.4</ele>
        <time>2022-07-16T07:39:21Z</time>
      </trkpt>
      <trkpt lat="44.94712" lon="5.7101">
        <ele>742.3</ele>
        <time>2022-07-16T07:39:22Z</time>
      </trkpt>
      <trkpt lat="44.94716" lon="5.71003">
        <ele>742.2</ele>
        <time>2022-07-16T07:39:23Z</time>
      </trkpt>
      <trkpt lat="44.94719" lon="5.70995">
        <ele>742.2</ele>
        <time>2022-07-16T07:39:24Z</time>
      </trkpt>
      <trkpt lat="44.94723" lon="5.70988">
        <ele>742.1</ele>
        <time>2022-07-16T07:39:25Z</time>
      </trkpt>
      <trkpt lat="44.94726" lon="5.70981">
        <ele>742.1</ele>
        <time>2022-07-16T07:39:26Z</time>
      </trkpt>
      <trkpt lat="44.9473" lon="5.70973">
        <ele>742.1</ele>
        <time>2022-07-16T07:39:27Z</time>
      </trkpt>
      <trkpt lat="44.94733" lon="5.70966">
        <ele>742</ele>
        <time>2022-07-16T07:39:28Z</time>
      </trkpt>
      <trkpt lat="44.94737" lon="5.70958">
        <ele>742</ele>
        <time>2022-07-16T07:39:29Z</time>
      </trkpt>
      <trkpt lat="44.94741" lon="5.70951">
        <ele>742</ele>
        <time>2022-07-16T07:39:30Z</time>
      </trkpt>
      <trkpt lat="44.94745" lon="5.70944">
        <ele>742</ele>
        <time>2022-07-16T07:39:31Z</time>
      </trkpt>
      <trkpt lat="44.94748" lon="5.70937">
        <ele>742.1</ele>
        <time>2022-07-16T07:39:32Z</time>
      </trkpt>
      <trkpt lat="44.94752" lon="5.70929">
        <ele>742.1</ele>
        <time>2022-07-16T07:39:33Z</time>
      </trkpt>
      <trkpt lat="44.94756" lon="5.70922">
        <ele>742.2</ele>
        <time>2022-07-16T07:39:34Z</time>
      </trkpt>
      <trkpt lat="44.94759" lon="5.70914">
        <ele>742.4</ele>
        <time>2022-07-16T07:39:35Z</time>
      </trkpt>
      <trkpt lat="44.94762" lon="5.70907">
        <ele>742.5</ele>
        <time>2022-07-16T07:39:36Z</time>
      </trkpt>
      <trkpt lat="44.94765" lon="5.70899">
        <ele>742.7</ele>
        <time>2022-07-16T07:39:37Z</time>
      </trkpt>
      <trkpt lat="44.94768" lon="5.70893">
        <ele>742.9</ele>
        <time>2022-07-16T07:39:38Z</time>
      </trkpt>
      <trkpt lat="44.94772" lon="5.70887">
        <ele>743</ele>
        <time>2022-07-16T07:39:39Z</time>
      </trkpt>
      <trkpt lat="44.94775" lon="5.70882">
        <ele>743.2</ele>
        <time>2022-07-16T07:39:40Z</time>
      </trkpt>
      <trkpt lat="44.94779" lon="5.70877">
        <ele>743.4</ele>
        <time>2022-07-16T07:39:41Z</time>
      </trkpt>
      <trkpt lat="44.94783" lon="5.70872">
        <ele>743.5</ele>
        <time>2022-07-16T07:39:42Z</time>
      </trkpt>
      <trkpt lat="44.94788" lon="5.70868">
        <ele>743.7</ele>
        <time>2022-07-16T07:39:43Z</time>
      </trkpt>
      <trkpt lat="44.94793" lon="5.70865">
        <ele>743.8</ele>
        <time>2022-07-16T07:39:44Z</time>
      </trkpt>
      <trkpt lat="44.94796" lon="5.70864">
        <ele>743.9</ele>
        <time>2022-07-16T07:39:45Z</time>
      </trkpt>
      <trkpt lat="44.94801" lon="5.70862">
        <ele>744.1</ele>
        <time>2022-07-16T07:39:46Z</time>
      </trkpt>
      <trkpt lat="44.94803" lon="5.7086">
        <ele>744.2</ele>
        <time>2022-07-16T07:39:47Z</time>
      </trkpt>
      <trkpt lat="44.94807" lon="5.70858">
        <ele>744.3</ele>
        <time>2022-07-16T07:39:48Z</time>
      </trkpt>
      <trkpt lat="44.94812" lon="5.70854">
        <ele>744.5</ele>
        <time>2022-07-16T07:39:49Z</time>
      </trkpt>
      <trkpt lat="44.94816" lon="5.70852">
        <ele>744.6</ele>
        <time>2022-07-16T07:39:50Z</time>
      </trkpt>
      <trkpt lat="44.94819" lon="5.7085">
        <ele>744.7</ele>
        <time>2022-07-16T07:39:51Z</time>
      </trkpt>
      <trkpt lat="44.94826" lon="5.70841">
        <ele>744.8</ele>
        <time>2022-07-16T07:39:52Z</time>
      </trkpt>
      <trkpt lat="44.94826" lon="5.70838">
        <ele>744.9</ele>
        <time>2022-07-16T07:39:53Z</time>
      </trkpt>
      <trkpt lat="44.94835" lon="5.70834">
        <ele>745</ele>
        <time>2022-07-16T07:39:55Z</time>
      </trkpt>
      <trkpt lat="44.94839" lon="5.70832">
        <ele>745.1</ele>
        <time>2022-07-16T07:39:56Z</time>
      </trkpt>
      <trkpt lat="44.94851" lon="5.70819">
        <ele>745.3</ele>
        <time>2022-07-16T07:39:58Z</time>
      </trkpt>
      <trkpt lat="44.94851" lon="5.70826">
        <ele>745.3</ele>
        <time>2022-07-16T07:39:59Z</time>
      </trkpt>
      <trkpt lat="44.94859" lon="5.70817">
        <ele>745.4</ele>
        <time>2022-07-16T07:40:01Z</time>
      </trkpt>
      <trkpt lat="44.94869" lon="5.70807">
        <ele>745.6</ele>
        <time>2022-07-16T07:40:02Z</time>
      </trkpt>
      <trkpt lat="44.94875" lon="5.708">
        <ele>745.7</ele>
        <time>2022-07-16T07:40:05Z</time>
      </trkpt>
      <trkpt lat="44.9488" lon="5.70796">
        <ele>745.8</ele>
        <time>2022-07-16T07:40:06Z</time>
      </trkpt>
      <trkpt lat="44.94885" lon="5.70792">
        <ele>745.9</ele>
        <time>2022-07-16T07:40:07Z</time>
      </trkpt>
      <trkpt lat="44.94889" lon="5.70787">
        <ele>746</ele>
        <time>2022-07-16T07:40:08Z</time>
      </trkpt>
      <trkpt lat="44.94894" lon="5.70783">
        <ele>746</ele>
        <time>2022-07-16T07:40:09Z</time>
      </trkpt>
      <trkpt lat="44.94897" lon="5.70779">
        <ele>746.1</ele>
        <time>2022-07-16T07:40:10Z</time>
      </trkpt>
      <trkpt lat="44.94907" lon="5.70766">
        <ele>746.3</ele>
        <time>2022-07-16T07:40:11Z</time>
      </trkpt>
      <trkpt lat="44.94913" lon="5.70761">
        <ele>746.3</ele>
        <time>2022-07-16T07:40:14Z</time>
      </trkpt>
      <trkpt lat="44.94916" lon="5.70756">
        <ele>746.4</ele>
        <time>2022-07-16T07:40:15Z</time>
      </trkpt>
      <trkpt lat="44.9492" lon="5.70752">
        <ele>746.5</ele>
        <time>2022-07-16T07:40:16Z</time>
      </trkpt>
      <trkpt lat="44.94923" lon="5.70747">
        <ele>746.6</ele>
        <time>2022-07-16T07:40:17Z</time>
      </trkpt>
      <trkpt lat="44.94927" lon="5.70742">
        <ele>746.6</ele>
        <time>2022-07-16T07:40:18Z</time>
      </trkpt>
      <trkpt lat="44.9493" lon="5.70737">
        <ele>746.7</ele>
        <time>2022-07-16T07:40:19Z</time>
      </trkpt>
      <trkpt lat="44.94933" lon="5.70732">
        <ele>746.8</ele>
        <time>2022-07-16T07:40:20Z</time>
      </trkpt>
      <trkpt lat="44.94936" lon="5.70727">
        <ele>746.9</ele>
        <time>2022-07-16T07:40:21Z</time>
      </trkpt>
      <trkpt lat="44.94939" lon="5.70722">
        <ele>747</ele>
        <time>2022-07-16T07:40:22Z</time>
      </trkpt>
      <trkpt lat="44.94943" lon="5.70717">
        <ele>747.1</ele>
        <time>2022-07-16T07:40:23Z</time>
      </trkpt>
      <trkpt lat="44.94946" lon="5.70711">
        <ele>747.3</ele>
        <time>2022-07-16T07:40:24Z</time>
      </trkpt>
      <trkpt lat="44.94948" lon="5.70709">
        <ele>747.3</ele>
        <time>2022-07-16T07:40:25Z</time>
      </trkpt>
      <trkpt lat="44.94951" lon="5.70704">
        <ele>747.4</ele>
        <time>2022-07-16T07:40:26Z</time>
      </trkpt>
      <trkpt lat="44.94954" lon="5.70697">
        <ele>747.6</ele>
        <time>2022-07-16T07:40:27Z</time>
      </trkpt>
      <trkpt lat="44.94956" lon="5.7069">
        <ele>747.8</ele>
        <time>2022-07-16T07:40:28Z</time>
      </trkpt>
      <trkpt lat="44.9496" lon="5.70677">
        <ele>748.1</ele>
        <time>2022-07-16T07:40:29Z</time>
      </trkpt>
      <trkpt lat="44.94962" lon="5.70682">
        <ele>748.2</ele>
        <time>2022-07-16T07:40:30Z</time>
      </trkpt>
      <trkpt lat="44.94966" lon="5.70669">
        <ele>748.5</ele>
        <time>2022-07-16T07:40:32Z</time>
      </trkpt>
      <trkpt lat="44.94967" lon="5.70659">
        <ele>748.7</ele>
        <time>2022-07-16T07:40:34Z</time>
      </trkpt>
      <trkpt lat="44.94967" lon="5.70654">
        <ele>748.8</ele>
        <time>2022-07-16T07:40:35Z</time>
      </trkpt>
      <trkpt lat="44.94967" lon="5.70651">
        <ele>748.8</ele>
        <time>2022-07-16T07:40:36Z</time>
      </trkpt>
      <trkpt lat="44.94968" lon="5.70651">
        <ele>748.8</ele>
        <time>2022-07-16T07:40:39Z</time>
      </trkpt>
      <trkpt lat="44.94969" lon="5.7065">
        <ele>748.8</ele>
        <time>2022-07-16T07:40:40Z</time>
      </trkpt>
      <trkpt lat="44.9497" lon="5.7065">
        <ele>748.9</ele>
        <time>2022-07-16T07:40:43Z</time>
      </trkpt>
      <trkpt lat="44.9497" lon="5.7065">
        <ele>748.9</ele>
        <time>2022-07-16T07:40:44Z</time>
      </trkpt>
      <trkpt lat="44.94971" lon="5.70649">
        <ele>748.9</ele>
        <time>2022-07-16T07:40:47Z</time>
      </trkpt>
      <trkpt lat="44.94972" lon="5.70649">
        <ele>748.9</ele>
        <time>2022-07-16T07:44:36Z</time>
      </trkpt>
      <trkpt lat="44.94973" lon="5.70649">
        <ele>748.9</ele>
        <time>2022-07-16T07:44:37Z</time>
      </trkpt>
      <trkpt lat="44.94973" lon="5.70649">
        <ele>748.9</ele>
        <time>2022-07-16T07:44:38Z</time>
      </trkpt>
      <trkpt lat="44.94974" lon="5.70648">
        <ele>749</ele>
        <time>2022-07-16T07:44:39Z</time>
      </trkpt>
      <trkpt lat="44.94975" lon="5.70643">
        <ele>749</ele>
        <time>2022-07-16T07:44:40Z</time>
      </trkpt>
      <trkpt lat="44.94976" lon="5.70642">
        <ele>749.1</ele>
        <time>2022-07-16T07:44:41Z</time>
      </trkpt>
      <trkpt lat="44.94976" lon="5.70641">
        <ele>749.1</ele>
        <time>2022-07-16T07:44:42Z</time>
      </trkpt>
      <trkpt lat="44.94976" lon="5.70639">
        <ele>749.1</ele>
        <time>2022-07-16T07:44:43Z</time>
      </trkpt>
      <trkpt lat="44.94979" lon="5.70631">
        <ele>749.3</ele>
        <time>2022-07-16T07:44:44Z</time>
      </trkpt>
      <trkpt lat="44.94983" lon="5.70619">
        <ele>749.4</ele>
        <time>2022-07-16T07:44:46Z</time>
      </trkpt>
      <trkpt lat="44.94985" lon="5.7061">
        <ele>749.5</ele>
        <time>2022-07-16T07:44:47Z</time>
      </trkpt>
      <trkpt lat="44.94986" lon="5.70603">
        <ele>749.6</ele>
        <time>2022-07-16T07:44:49Z</time>
      </trkpt>
      <trkpt lat="44.94988" lon="5.70597">
        <ele>749.7</ele>
        <time>2022-07-16T07:44:50Z</time>
      </trkpt>
      <trkpt lat="44.94989" lon="5.70591">
        <ele>749.8</ele>
        <time>2022-07-16T07:44:51Z</time>
      </trkpt>
      <trkpt lat="44.94991" lon="5.70579">
        <ele>750.1</ele>
        <time>2022-07-16T07:44:52Z</time>
      </trkpt>
      <trkpt lat="44.94992" lon="5.70573">
        <ele>750.2</ele>
        <time>2022-07-16T07:44:53Z</time>
      </trkpt>
      <trkpt lat="44.94993" lon="5.70568">
        <ele>750.2</ele>
        <time>2022-07-16T07:44:54Z</time>
      </trkpt>
      <trkpt lat="44.94995" lon="5.70563">
        <ele>750.3</ele>
        <time>2022-07-16T07:44:55Z</time>
      </trkpt>
      <trkpt lat="44.94996" lon="5.70557">
        <ele>750.4</ele>
        <time>2022-07-16T07:44:56Z</time>
      </trkpt>
      <trkpt lat="44.94996" lon="5.70552">
        <ele>750.5</ele>
        <time>2022-07-16T07:44:57Z</time>
      </trkpt>
      <trkpt lat="44.94998" lon="5.70549">
        <ele>750.5</ele>
        <time>2022-07-16T07:44:59Z</time>
      </trkpt>
      <trkpt lat="44.94998" lon="5.70547">
        <ele>750.5</ele>
        <time>2022-07-16T07:45:00Z</time>
      </trkpt>
      <trkpt lat="44.95" lon="5.70541">
        <ele>750.6</ele>
        <time>2022-07-16T07:45:01Z</time>
      </trkpt>
      <trkpt lat="44.95" lon="5.70535">
        <ele>750.7</ele>
        <time>2022-07-16T07:45:02Z</time>
      </trkpt>
      <trkpt lat="44.95003" lon="5.70525">
        <ele>750.8</ele>
        <time>2022-07-16T07:45:04Z</time>
      </trkpt>
      <trkpt lat="44.95005" lon="5.7052">
        <ele>750.9</ele>
        <time>2022-07-16T07:45:05Z</time>
      </trkpt>
      <trkpt lat="44.95006" lon="5.70507">
        <ele>751</ele>
        <time>2022-07-16T07:45:07Z</time>
      </trkpt>
      <trkpt lat="44.95006" lon="5.705">
        <ele>751.1</ele>
        <time>2022-07-16T07:45:08Z</time>
      </trkpt>
      <trkpt lat="44.95002" lon="5.70489">
        <ele>751.2</ele>
        <time>2022-07-16T07:45:10Z</time>
      </trkpt>
      <trkpt lat="44.95002" lon="5.70481">
        <ele>751.3</ele>
        <time>2022-07-16T07:45:11Z</time>
      </trkpt>
      <trkpt lat="44.95002" lon="5.70474">
        <ele>751.4</ele>
        <time>2022-07-16T07:45:13Z</time>
      </trkpt>
      <trkpt lat="44.95001" lon="5.70468">
        <ele>751.5</ele>
        <time>2022-07-16T07:45:14Z</time>
      </trkpt>
      <trkpt lat="44.95" lon="5.70463">
        <ele>751.6</ele>
        <time>2022-07-16T07:45:15Z</time>
      </trkpt>
      <trkpt lat="44.94999" lon="5.70451">
        <ele>751.8</ele>
        <time>2022-07-16T07:45:17Z</time>
      </trkpt>
      <trkpt lat="44.94998" lon="5.70445">
        <ele>751.9</ele>
        <time>2022-07-16T07:45:18Z</time>
      </trkpt>
      <trkpt lat="44.94995" lon="5.70436">
        <ele>752</ele>
        <time>2022-07-16T07:45:19Z</time>
      </trkpt>
      <trkpt lat="44.94995" lon="5.70432">
        <ele>752.1</ele>
        <time>2022-07-16T07:45:20Z</time>
      </trkpt>
      <trkpt lat="44.94994" lon="5.70428">
        <ele>752.2</ele>
        <time>2022-07-16T07:45:21Z</time>
      </trkpt>
      <trkpt lat="44.94994" lon="5.70426">
        <ele>752.2</ele>
        <time>2022-07-16T07:45:23Z</time>
      </trkpt>
      <trkpt lat="44.94992" lon="5.70417">
        <ele>752.3</ele>
        <time>2022-07-16T07:45:25Z</time>
      </trkpt>
      <trkpt lat="44.94988" lon="5.70409">
        <ele>752.5</ele>
        <time>2022-07-16T07:45:27Z</time>
      </trkpt>
      <trkpt lat="44.94983" lon="5.70394">
        <ele>752.7</ele>
        <time>2022-07-16T07:45:30Z</time>
      </trkpt>
      <trkpt lat="44.9498" lon="5.70388">
        <ele>752.8</ele>
        <time>2022-07-16T07:45:31Z</time>
      </trkpt>
      <trkpt lat="44.94977" lon="5.70381">
        <ele>752.9</ele>
        <time>2022-07-16T07:45:33Z</time>
      </trkpt>
      <trkpt lat="44.94975" lon="5.70372">
        <ele>753.1</ele>
        <time>2022-07-16T07:45:34Z</time>
      </trkpt>
      <trkpt lat="44.94967" lon="5.70367">
        <ele>753.2</ele>
        <time>2022-07-16T07:45:35Z</time>
      </trkpt>
      <trkpt lat="44.94965" lon="5.70358">
        <ele>753.3</ele>
        <time>2022-07-16T07:45:37Z</time>
      </trkpt>
      <trkpt lat="44.94962" lon="5.70351">
        <ele>753.4</ele>
        <time>2022-07-16T07:45:38Z</time>
      </trkpt>
      <trkpt lat="44.9496" lon="5.70347">
        <ele>753.5</ele>
        <time>2022-07-16T07:45:39Z</time>
      </trkpt>
      <trkpt lat="44.94957" lon="5.70339">
        <ele>753.6</ele>
        <time>2022-07-16T07:45:41Z</time>
      </trkpt>
      <trkpt lat="44.94956" lon="5.70331">
        <ele>753.7</ele>
        <time>2022-07-16T07:45:43Z</time>
      </trkpt>
      <trkpt lat="44.94956" lon="5.70327">
        <ele>753.7</ele>
        <time>2022-07-16T07:45:44Z</time>
      </trkpt>
      <trkpt lat="44.94955" lon="5.7032">
        <ele>753.8</ele>
        <time>2022-07-16T07:45:45Z</time>
      </trkpt>
      <trkpt lat="44.94956" lon="5.70314">
        <ele>753.9</ele>
        <time>2022-07-16T07:45:46Z</time>
      </trkpt>
      <trkpt lat="44.94957" lon="5.70309">
        <ele>754</ele>
        <time>2022-07-16T07:45:47Z</time>
      </trkpt>
      <trkpt lat="44.94958" lon="5.70297">
        <ele>754.1</ele>
        <time>2022-07-16T07:45:49Z</time>
      </trkpt>
      <trkpt lat="44.94957" lon="5.70288">
        <ele>754.3</ele>
        <time>2022-07-16T07:45:50Z</time>
      </trkpt>
      <trkpt lat="44.94957" lon="5.70279">
        <ele>754.4</ele>
        <time>2022-07-16T07:45:51Z</time>
      </trkpt>
      <trkpt lat="44.94957" lon="5.70268">
        <ele>754.5</ele>
        <time>2022-07-16T07:45:53Z</time>
      </trkpt>
      <trkpt lat="44.94958" lon="5.70258">
        <ele>754.6</ele>
        <time>2022-07-16T07:45:54Z</time>
      </trkpt>
      <trkpt lat="44.94958" lon="5.70247">
        <ele>754.7</ele>
        <time>2022-07-16T07:45:55Z</time>
      </trkpt>
      <trkpt lat="44.94958" lon="5.70238">
        <ele>754.8</ele>
        <time>2022-07-16T07:45:56Z</time>
      </trkpt>
      <trkpt lat="44.94958" lon="5.70231">
        <ele>754.9</ele>
        <time>2022-07-16T07:45:59Z</time>
      </trkpt>
      <trkpt lat="44.94957" lon="5.70223">
        <ele>754.9</ele>
        <time>2022-07-16T07:46:00Z</time>
      </trkpt>
      <trkpt lat="44.94958" lon="5.70217">
        <ele>755</ele>
        <time>2022-07-16T07:46:01Z</time>
      </trkpt>
      <trkpt lat="44.94958" lon="5.7021">
        <ele>755</ele>
        <time>2022-07-16T07:46:02Z</time>
      </trkpt>
      <trkpt lat="44.94957" lon="5.70204">
        <ele>755.1</ele>
        <time>2022-07-16T07:46:03Z</time>
      </trkpt>
      <trkpt lat="44.94956" lon="5.70199">
        <ele>755.1</ele>
        <time>2022-07-16T07:46:04Z</time>
      </trkpt>
      <trkpt lat="44.94956" lon="5.70193">
        <ele>755.2</ele>
        <time>2022-07-16T07:46:05Z</time>
      </trkpt>
      <trkpt lat="44.94955" lon="5.70187">
        <ele>755.2</ele>
        <time>2022-07-16T07:46:06Z</time>
      </trkpt>
      <trkpt lat="44.94954" lon="5.7018">
        <ele>755.3</ele>
        <time>2022-07-16T07:46:07Z</time>
      </trkpt>
      <trkpt lat="44.94954" lon="5.70174">
        <ele>755.4</ele>
        <time>2022-07-16T07:46:08Z</time>
      </trkpt>
      <trkpt lat="44.94953" lon="5.7017">
        <ele>755.5</ele>
        <time>2022-07-16T07:46:09Z</time>
      </trkpt>
      <trkpt lat="44.94952" lon="5.70164">
        <ele>755.6</ele>
        <time>2022-07-16T07:46:10Z</time>
      </trkpt>
      <trkpt lat="44.94951" lon="5.70159">
        <ele>755.7</ele>
        <time>2022-07-16T07:46:11Z</time>
      </trkpt>
      <trkpt lat="44.9495" lon="5.70154">
        <ele>755.8</ele>
        <time>2022-07-16T07:46:12Z</time>
      </trkpt>
      <trkpt lat="44.94948" lon="5.70149">
        <ele>755.9</ele>
        <time>2022-07-16T07:46:13Z</time>
      </trkpt>
      <trkpt lat="44.94945" lon="5.70144">
        <ele>756</ele>
        <time>2022-07-16T07:46:14Z</time>
      </trkpt>
      <trkpt lat="44.94943" lon="5.70139">
        <ele>756.1</ele>
        <time>2022-07-16T07:46:15Z</time>
      </trkpt>
      <trkpt lat="44.9494" lon="5.70134">
        <ele>756.2</ele>
        <time>2022-07-16T07:46:16Z</time>
      </trkpt>
      <trkpt lat="44.94937" lon="5.7013">
        <ele>756.2</ele>
        <time>2022-07-16T07:46:17Z</time>
      </trkpt>
      <trkpt lat="44.94934" lon="5.70125">
        <ele>756.3</ele>
        <time>2022-07-16T07:46:18Z</time>
      </trkpt>
      <trkpt lat="44.9493" lon="5.7012">
        <ele>756.4</ele>
        <time>2022-07-16T07:46:19Z</time>
      </trkpt>
      <trkpt lat="44.94928" lon="5.70114">
        <ele>756.5</ele>
        <time>2022-07-16T07:46:20Z</time>
      </trkpt>
      <trkpt lat="44.94926" lon="5.70108">
        <ele>756.6</ele>
        <time>2022-07-16T07:46:21Z</time>
      </trkpt>
      <trkpt lat="44.94923" lon="5.70103">
        <ele>756.7</ele>
        <time>2022-07-16T07:46:22Z</time>
      </trkpt>
      <trkpt lat="44.94921" lon="5.70097">
        <ele>756.8</ele>
        <time>2022-07-16T07:46:23Z</time>
      </trkpt>
      <trkpt lat="44.94921" lon="5.70092">
        <ele>756.8</ele>
        <time>2022-07-16T07:46:24Z</time>
      </trkpt>
      <trkpt lat="44.94922" lon="5.70085">
        <ele>756.9</ele>
        <time>2022-07-16T07:46:25Z</time>
      </trkpt>
      <trkpt lat="44.94922" lon="5.70079">
        <ele>757</ele>
        <time>2022-07-16T07:46:26Z</time>
      </trkpt>
      <trkpt lat="44.94919" lon="5.70073">
        <ele>757.2</ele>
        <time>2022-07-16T07:46:27Z</time>
      </trkpt>
      <trkpt lat="44.94917" lon="5.70068">
        <ele>757.3</ele>
        <time>2022-07-16T07:46:28Z</time>
      </trkpt>
      <trkpt lat="44.94916" lon="5.70063">
        <ele>757.4</ele>
        <time>2022-07-16T07:46:29Z</time>
      </trkpt>
      <trkpt lat="44.94915" lon="5.70056">
        <ele>757.5</ele>
        <time>2022-07-16T07:46:30Z</time>
      </trkpt>
      <trkpt lat="44.94914" lon="5.70051">
        <ele>757.6</ele>
        <time>2022-07-16T07:46:31Z</time>
      </trkpt>
      <trkpt lat="44.94913" lon="5.70044">
        <ele>757.7</ele>
        <time>2022-07-16T07:46:32Z</time>
      </trkpt>
      <trkpt lat="44.94911" lon="5.70038">
        <ele>757.8</ele>
        <time>2022-07-16T07:46:33Z</time>
      </trkpt>
      <trkpt lat="44.9491" lon="5.70032">
        <ele>757.9</ele>
        <time>2022-07-16T07:46:34Z</time>
      </trkpt>
      <trkpt lat="44.94907" lon="5.70027">
        <ele>758</ele>
        <time>2022-07-16T07:46:35Z</time>
      </trkpt>
      <trkpt lat="44.94905" lon="5.70024">
        <ele>758.1</ele>
        <time>2022-07-16T07:46:36Z</time>
      </trkpt>
      <trkpt lat="44.94904" lon="5.70018">
        <ele>758.2</ele>
        <time>2022-07-16T07:46:37Z</time>
      </trkpt>
      <trkpt lat="44.94903" lon="5.7001">
        <ele>758.2</ele>
        <time>2022-07-16T07:46:38Z</time>
      </trkpt>
      <trkpt lat="44.94902" lon="5.70004">
        <ele>758.3</ele>
        <time>2022-07-16T07:46:39Z</time>
      </trkpt>
      <trkpt lat="44.949" lon="5.69998">
        <ele>758.4</ele>
        <time>2022-07-16T07:46:40Z</time>
      </trkpt>
      <trkpt lat="44.94899" lon="5.69992">
        <ele>758.5</ele>
        <time>2022-07-16T07:46:41Z</time>
      </trkpt>
      <trkpt lat="44.94898" lon="5.69986">
        <ele>758.5</ele>
        <time>2022-07-16T07:46:42Z</time>
      </trkpt>
      <trkpt lat="44.94896" lon="5.6998">
        <ele>758.6</ele>
        <time>2022-07-16T07:46:43Z</time>
      </trkpt>
      <trkpt lat="44.94895" lon="5.69974">
        <ele>758.7</ele>
        <time>2022-07-16T07:46:44Z</time>
      </trkpt>
      <trkpt lat="44.94894" lon="5.69969">
        <ele>758.8</ele>
        <time>2022-07-16T07:46:45Z</time>
      </trkpt>
      <trkpt lat="44.94893" lon="5.69964">
        <ele>758.9</ele>
        <time>2022-07-16T07:46:46Z</time>
      </trkpt>
      <trkpt lat="44.94892" lon="5.69959">
        <ele>759</ele>
        <time>2022-07-16T07:46:47Z</time>
      </trkpt>
      <trkpt lat="44.9489" lon="5.69953">
        <ele>759.1</ele>
        <time>2022-07-16T07:46:48Z</time>
      </trkpt>
      <trkpt lat="44.94888" lon="5.69948">
        <ele>759.2</ele>
        <time>2022-07-16T07:46:49Z</time>
      </trkpt>
      <trkpt lat="44.94886" lon="5.69944">
        <ele>759.3</ele>
        <time>2022-07-16T07:46:50Z</time>
      </trkpt>
      <trkpt lat="44.94884" lon="5.69941">
        <ele>759.3</ele>
        <time>2022-07-16T07:46:51Z</time>
      </trkpt>
      <trkpt lat="44.94883" lon="5.6994">
        <ele>759.3</ele>
        <time>2022-07-16T07:46:52Z</time>
      </trkpt>
      <trkpt lat="44.94881" lon="5.69935">
        <ele>759.4</ele>
        <time>2022-07-16T07:46:53Z</time>
      </trkpt>
      <trkpt lat="44.94878" lon="5.6993">
        <ele>759.5</ele>
        <time>2022-07-16T07:46:54Z</time>
      </trkpt>
      <trkpt lat="44.94876" lon="5.69926">
        <ele>759.5</ele>
        <time>2022-07-16T07:46:55Z</time>
      </trkpt>
      <trkpt lat="44.94873" lon="5.69921">
        <ele>759.6</ele>
        <time>2022-07-16T07:46:56Z</time>
      </trkpt>
      <trkpt lat="44.94869" lon="5.69913">
        <ele>759.6</ele>
        <time>2022-07-16T07:46:57Z</time>
      </trkpt>
      <trkpt lat="44.94865" lon="5.69905">
        <ele>759.7</ele>
        <time>2022-07-16T07:46:58Z</time>
      </trkpt>
      <trkpt lat="44.94863" lon="5.69901">
        <ele>759.8</ele>
        <time>2022-07-16T07:46:59Z</time>
      </trkpt>
      <trkpt lat="44.94859" lon="5.69897">
        <ele>759.9</ele>
        <time>2022-07-16T07:47:00Z</time>
      </trkpt>
      <trkpt lat="44.94855" lon="5.69893">
        <ele>760</ele>
        <time>2022-07-16T07:47:01Z</time>
      </trkpt>
      <trkpt lat="44.94851" lon="5.69888">
        <ele>760.1</ele>
        <time>2022-07-16T07:47:02Z</time>
      </trkpt>
      <trkpt lat="44.94847" lon="5.69883">
        <ele>760.2</ele>
        <time>2022-07-16T07:47:03Z</time>
      </trkpt>
      <trkpt lat="44.94844" lon="5.69879">
        <ele>760.2</ele>
        <time>2022-07-16T07:47:04Z</time>
      </trkpt>
      <trkpt lat="44.94842" lon="5.69875">
        <ele>760.3</ele>
        <time>2022-07-16T07:47:05Z</time>
      </trkpt>
      <trkpt lat="44.9484" lon="5.69869">
        <ele>760.4</ele>
        <time>2022-07-16T07:47:06Z</time>
      </trkpt>
      <trkpt lat="44.94841" lon="5.69863">
        <ele>760.4</ele>
        <time>2022-07-16T07:47:07Z</time>
      </trkpt>
      <trkpt lat="44.94844" lon="5.69855">
        <ele>760.5</ele>
        <time>2022-07-16T07:47:08Z</time>
      </trkpt>
      <trkpt lat="44.94845" lon="5.69849">
        <ele>760.6</ele>
        <time>2022-07-16T07:47:09Z</time>
      </trkpt>
      <trkpt lat="44.94846" lon="5.69843">
        <ele>760.6</ele>
        <time>2022-07-16T07:47:10Z</time>
      </trkpt>
      <trkpt lat="44.94847" lon="5.69836">
        <ele>760.6</ele>
        <time>2022-07-16T07:47:11Z</time>
      </trkpt>
      <trkpt lat="44.94848" lon="5.69829">
        <ele>760.7</ele>
        <time>2022-07-16T07:47:12Z</time>
      </trkpt>
      <trkpt lat="44.9485" lon="5.69823">
        <ele>760.8</ele>
        <time>2022-07-16T07:47:13Z</time>
      </trkpt>
      <trkpt lat="44.94852" lon="5.69815">
        <ele>760.9</ele>
        <time>2022-07-16T07:47:14Z</time>
      </trkpt>
      <trkpt lat="44.94854" lon="5.69807">
        <ele>761</ele>
        <time>2022-07-16T07:47:15Z</time>
      </trkpt>
      <trkpt lat="44.94856" lon="5.698">
        <ele>761.1</ele>
        <time>2022-07-16T07:47:16Z</time>
      </trkpt>
      <trkpt lat="44.94857" lon="5.69793">
        <ele>761.2</ele>
        <time>2022-07-16T07:47:17Z</time>
      </trkpt>
      <trkpt lat="44.94858" lon="5.69789">
        <ele>761.3</ele>
        <time>2022-07-16T07:47:18Z</time>
      </trkpt>
      <trkpt lat="44.94859" lon="5.69783">
        <ele>761.4</ele>
        <time>2022-07-16T07:47:19Z</time>
      </trkpt>
      <trkpt lat="44.94861" lon="5.69776">
        <ele>761.6</ele>
        <time>2022-07-16T07:47:20Z</time>
      </trkpt>
      <trkpt lat="44.94863" lon="5.69769">
        <ele>761.7</ele>
        <time>2022-07-16T07:47:21Z</time>
      </trkpt>
      <trkpt lat="44.94864" lon="5.69762">
        <ele>761.9</ele>
        <time>2022-07-16T07:47:22Z</time>
      </trkpt>
      <trkpt lat="44.94865" lon="5.69754">
        <ele>762</ele>
        <time>2022-07-16T07:47:23Z</time>
      </trkpt>
      <trkpt lat="44.94865" lon="5.69748">
        <ele>762.1</ele>
        <time>2022-07-16T07:47:24Z</time>
      </trkpt>
      <trkpt lat="44.94865" lon="5.69741">
        <ele>762.3</ele>
        <time>2022-07-16T07:47:25Z</time>
      </trkpt>
      <trkpt lat="44.94864" lon="5.69735">
        <ele>762.4</ele>
        <time>2022-07-16T07:47:26Z</time>
      </trkpt>
      <trkpt lat="44.94863" lon="5.69729">
        <ele>762.5</ele>
        <time>2022-07-16T07:47:27Z</time>
      </trkpt>
      <trkpt lat="44.94863" lon="5.69724">
        <ele>762.5</ele>
        <time>2022-07-16T07:47:28Z</time>
      </trkpt>
      <trkpt lat="44.94863" lon="5.69718">
        <ele>762.6</ele>
        <time>2022-07-16T07:47:29Z</time>
      </trkpt>
      <trkpt lat="44.94864" lon="5.69711">
        <ele>762.7</ele>
        <time>2022-07-16T07:47:30Z</time>
      </trkpt>
      <trkpt lat="44.94864" lon="5.69704">
        <ele>762.8</ele>
        <time>2022-07-16T07:47:31Z</time>
      </trkpt>
      <trkpt lat="44.94866" lon="5.69697">
        <ele>763</ele>
        <time>2022-07-16T07:47:32Z</time>
      </trkpt>
      <trkpt lat="44.94868" lon="5.69689">
        <ele>763.1</ele>
        <time>2022-07-16T07:47:33Z</time>
      </trkpt>
      <trkpt lat="44.94869" lon="5.69683">
        <ele>763.2</ele>
        <time>2022-07-16T07:47:34Z</time>
      </trkpt>
      <trkpt lat="44.94869" lon="5.69677">
        <ele>763.3</ele>
        <time>2022-07-16T07:47:35Z</time>
      </trkpt>
      <trkpt lat="44.94869" lon="5.69671">
        <ele>763.3</ele>
        <time>2022-07-16T07:47:36Z</time>
      </trkpt>
      <trkpt lat="44.94869" lon="5.69665">
        <ele>763.4</ele>
        <time>2022-07-16T07:47:37Z</time>
      </trkpt>
      <trkpt lat="44.94869" lon="5.69658">
        <ele>763.5</ele>
        <time>2022-07-16T07:47:38Z</time>
      </trkpt>
      <trkpt lat="44.94869" lon="5.6965">
        <ele>763.6</ele>
        <time>2022-07-16T07:47:39Z</time>
      </trkpt>
      <trkpt lat="44.9487" lon="5.69643">
        <ele>763.7</ele>
        <time>2022-07-16T07:47:40Z</time>
      </trkpt>
      <trkpt lat="44.9487" lon="5.69638">
        <ele>763.8</ele>
        <time>2022-07-16T07:47:41Z</time>
      </trkpt>
      <trkpt lat="44.9487" lon="5.6963">
        <ele>763.9</ele>
        <time>2022-07-16T07:47:42Z</time>
      </trkpt>
      <trkpt lat="44.94871" lon="5.69623">
        <ele>764</ele>
        <time>2022-07-16T07:47:43Z</time>
      </trkpt>
      <trkpt lat="44.94871" lon="5.69617">
        <ele>764.1</ele>
        <time>2022-07-16T07:47:44Z</time>
      </trkpt>
      <trkpt lat="44.94871" lon="5.69614">
        <ele>764.1</ele>
        <time>2022-07-16T07:47:45Z</time>
      </trkpt>
      <trkpt lat="44.94872" lon="5.69606">
        <ele>764.2</ele>
        <time>2022-07-16T07:47:46Z</time>
      </trkpt>
      <trkpt lat="44.94873" lon="5.69601">
        <ele>764.3</ele>
        <time>2022-07-16T07:47:47Z</time>
      </trkpt>
      <trkpt lat="44.94874" lon="5.69598">
        <ele>764.3</ele>
        <time>2022-07-16T07:47:48Z</time>
      </trkpt>
      <trkpt lat="44.94875" lon="5.6959">
        <ele>764.5</ele>
        <time>2022-07-16T07:47:49Z</time>
      </trkpt>
      <trkpt lat="44.94876" lon="5.69582">
        <ele>764.5</ele>
        <time>2022-07-16T07:47:50Z</time>
      </trkpt>
      <trkpt lat="44.94879" lon="5.69577">
        <ele>764.6</ele>
        <time>2022-07-16T07:47:51Z</time>
      </trkpt>
      <trkpt lat="44.94882" lon="5.69569">
        <ele>764.7</ele>
        <time>2022-07-16T07:47:52Z</time>
      </trkpt>
      <trkpt lat="44.94885" lon="5.69564">
        <ele>764.8</ele>
        <time>2022-07-16T07:47:53Z</time>
      </trkpt>
      <trkpt lat="44.94886" lon="5.69558">
        <ele>764.8</ele>
        <time>2022-07-16T07:47:54Z</time>
      </trkpt>
      <trkpt lat="44.94887" lon="5.69554">
        <ele>764.9</ele>
        <time>2022-07-16T07:47:55Z</time>
      </trkpt>
      <trkpt lat="44.9489" lon="5.6955">
        <ele>765</ele>
        <time>2022-07-16T07:47:56Z</time>
      </trkpt>
      <trkpt lat="44.94891" lon="5.69544">
        <ele>765</ele>
        <time>2022-07-16T07:47:57Z</time>
      </trkpt>
      <trkpt lat="44.94892" lon="5.69537">
        <ele>765.1</ele>
        <time>2022-07-16T07:47:58Z</time>
      </trkpt>
      <trkpt lat="44.94894" lon="5.6953">
        <ele>765.2</ele>
        <time>2022-07-16T07:47:59Z</time>
      </trkpt>
      <trkpt lat="44.94896" lon="5.69523">
        <ele>765.3</ele>
        <time>2022-07-16T07:48:00Z</time>
      </trkpt>
      <trkpt lat="44.94898" lon="5.69514">
        <ele>765.4</ele>
        <time>2022-07-16T07:48:01Z</time>
      </trkpt>
      <trkpt lat="44.94901" lon="5.69508">
        <ele>765.5</ele>
        <time>2022-07-16T07:48:02Z</time>
      </trkpt>
      <trkpt lat="44.94903" lon="5.69502">
        <ele>765.6</ele>
        <time>2022-07-16T07:48:03Z</time>
      </trkpt>
      <trkpt lat="44.94905" lon="5.69495">
        <ele>765.6</ele>
        <time>2022-07-16T07:48:04Z</time>
      </trkpt>
      <trkpt lat="44.94906" lon="5.69488">
        <ele>765.7</ele>
        <time>2022-07-16T07:48:05Z</time>
      </trkpt>
      <trkpt lat="44.94906" lon="5.69482">
        <ele>765.8</ele>
        <time>2022-07-16T07:48:06Z</time>
      </trkpt>
      <trkpt lat="44.94907" lon="5.69476">
        <ele>765.8</ele>
        <time>2022-07-16T07:48:07Z</time>
      </trkpt>
      <trkpt lat="44.94908" lon="5.6947">
        <ele>765.9</ele>
        <time>2022-07-16T07:48:08Z</time>
      </trkpt>
      <trkpt lat="44.94909" lon="5.69464">
        <ele>766</ele>
        <time>2022-07-16T07:48:09Z</time>
      </trkpt>
      <trkpt lat="44.94909" lon="5.69458">
        <ele>766.1</ele>
        <time>2022-07-16T07:48:10Z</time>
      </trkpt>
      <trkpt lat="44.94907" lon="5.69452">
        <ele>766.2</ele>
        <time>2022-07-16T07:48:11Z</time>
      </trkpt>
      <trkpt lat="44.94905" lon="5.69447">
        <ele>766.3</ele>
        <time>2022-07-16T07:48:12Z</time>
      </trkpt>
      <trkpt lat="44.94903" lon="5.69442">
        <ele>766.4</ele>
        <time>2022-07-16T07:48:13Z</time>
      </trkpt>
      <trkpt lat="44.94897" lon="5.69437">
        <ele>766.5</ele>
        <time>2022-07-16T07:48:14Z</time>
      </trkpt>
      <trkpt lat="44.94889" lon="5.69433">
        <ele>766.7</ele>
        <time>2022-07-16T07:48:15Z</time>
      </trkpt>
      <trkpt lat="44.94884" lon="5.69431">
        <ele>766.8</ele>
        <time>2022-07-16T07:48:16Z</time>
      </trkpt>
      <trkpt lat="44.94879" lon="5.69427">
        <ele>766.9</ele>
        <time>2022-07-16T07:48:17Z</time>
      </trkpt>
      <trkpt lat="44.94874" lon="5.69423">
        <ele>767</ele>
        <time>2022-07-16T07:48:18Z</time>
      </trkpt>
      <trkpt lat="44.94869" lon="5.69422">
        <ele>767.1</ele>
        <time>2022-07-16T07:48:19Z</time>
      </trkpt>
      <trkpt lat="44.94866" lon="5.69422">
        <ele>767.2</ele>
        <time>2022-07-16T07:48:20Z</time>
      </trkpt>
      <trkpt lat="44.94861" lon="5.69419">
        <ele>767.3</ele>
        <time>2022-07-16T07:48:21Z</time>
      </trkpt>
      <trkpt lat="44.94856" lon="5.69417">
        <ele>767.4</ele>
        <time>2022-07-16T07:48:22Z</time>
      </trkpt>
      <trkpt lat="44.94853" lon="5.69416">
        <ele>767.4</ele>
        <time>2022-07-16T07:48:23Z</time>
      </trkpt>
      <trkpt lat="44.94848" lon="5.69412">
        <ele>767.5</ele>
        <time>2022-07-16T07:48:24Z</time>
      </trkpt>
      <trkpt lat="44.94843" lon="5.69408">
        <ele>767.6</ele>
        <time>2022-07-16T07:48:25Z</time>
      </trkpt>
      <trkpt lat="44.9484" lon="5.69405">
        <ele>767.6</ele>
        <time>2022-07-16T07:48:26Z</time>
      </trkpt>
      <trkpt lat="44.94834" lon="5.69402">
        <ele>767.6</ele>
        <time>2022-07-16T07:48:27Z</time>
      </trkpt>
      <trkpt lat="44.94831" lon="5.694">
        <ele>767.6</ele>
        <time>2022-07-16T07:48:28Z</time>
      </trkpt>
      <trkpt lat="44.94827" lon="5.69397">
        <ele>767.6</ele>
        <time>2022-07-16T07:48:29Z</time>
      </trkpt>
      <trkpt lat="44.94823" lon="5.69394">
        <ele>767.6</ele>
        <time>2022-07-16T07:48:30Z</time>
      </trkpt>
      <trkpt lat="44.94818" lon="5.69393">
        <ele>767.6</ele>
        <time>2022-07-16T07:48:31Z</time>
      </trkpt>
      <trkpt lat="44.94812" lon="5.69393">
        <ele>767.7</ele>
        <time>2022-07-16T07:48:32Z</time>
      </trkpt>
      <trkpt lat="44.94809" lon="5.69392">
        <ele>767.7</ele>
        <time>2022-07-16T07:48:33Z</time>
      </trkpt>
      <trkpt lat="44.94805" lon="5.69392">
        <ele>767.7</ele>
        <time>2022-07-16T07:48:34Z</time>
      </trkpt>
      <trkpt lat="44.948" lon="5.69391">
        <ele>767.6</ele>
        <time>2022-07-16T07:48:35Z</time>
      </trkpt>
      <trkpt lat="44.94798" lon="5.69391">
        <ele>767.6</ele>
        <time>2022-07-16T07:48:36Z</time>
      </trkpt>
      <trkpt lat="44.94797" lon="5.69392">
        <ele>767.6</ele>
        <time>2022-07-16T07:48:37Z</time>
      </trkpt>
      <trkpt lat="44.94796" lon="5.69393">
        <ele>767.6</ele>
        <time>2022-07-16T07:48:38Z</time>
      </trkpt>
      <trkpt lat="44.94796" lon="5.69393">
        <ele>767.6</ele>
        <time>2022-07-16T07:48:39Z</time>
      </trkpt>
      <trkpt lat="44.94796" lon="5.69393">
        <ele>767.6</ele>
        <time>2022-07-16T07:48:40Z</time>
      </trkpt>
      <trkpt lat="44.94796" lon="5.69393">
        <ele>767.6</ele>
        <time>2022-07-16T07:48:41Z</time>
      </trkpt>
      <trkpt lat="44.94796" lon="5.69392">
        <ele>767.6</ele>
        <time>2022-07-16T07:48:42Z</time>
      </trkpt>
      <trkpt lat="44.94796" lon="5.69392">
        <ele>767.6</ele>
        <time>2022-07-16T07:48:43Z</time>
      </trkpt>
      <trkpt lat="44.94796" lon="5.69392">
        <ele>767.6</ele>
        <time>2022-07-16T07:48:44Z</time>
      </trkpt>
      <trkpt lat="44.94796" lon="5.69391">
        <ele>767.6</ele>
        <time>2022-07-16T07:48:45Z</time>
      </trkpt>
      <trkpt lat="44.94797" lon="5.69391">
        <ele>767.6</ele>
        <time>2022-07-16T07:48:46Z</time>
      </trkpt>
      <trkpt lat="44.94796" lon="5.69391">
        <ele>767.6</ele>
        <time>2022-07-16T07:48:47Z</time>
      </trkpt>
      <trkpt lat="44.94796" lon="5.69391">
        <ele>767.6</ele>
        <time>2022-07-16T07:48:48Z</time>
      </trkpt>
      <trkpt lat="44.94796" lon="5.69391">
        <ele>767.6</ele>
        <time>2022-07-16T07:48:49Z</time>
      </trkpt>
      <trkpt lat="44.94796" lon="5.69393">
        <ele>767.6</ele>
        <time>2022-07-16T07:48:50Z</time>
      </trkpt>
      <trkpt lat="44.94797" lon="5.69393">
        <ele>767.6</ele>
        <time>2022-07-16T07:48:51Z</time>
      </trkpt>
      <trkpt lat="44.94798" lon="5.69393">
        <ele>767.6</ele>
        <time>2022-07-16T07:48:52Z</time>
      </trkpt>
      <trkpt lat="44.94798" lon="5.69393">
        <ele>767.6</ele>
        <time>2022-07-16T07:48:53Z</time>
      </trkpt>
      <trkpt lat="44.94799" lon="5.69392">
        <ele>767.6</ele>
        <time>2022-07-16T07:48:54Z</time>
      </trkpt>
      <trkpt lat="44.948" lon="5.69391">
        <ele>767.6</ele>
        <time>2022-07-16T07:48:55Z</time>
      </trkpt>
      <trkpt lat="44.94802" lon="5.69391">
        <ele>767.6</ele>
        <time>2022-07-16T07:48:56Z</time>
      </trkpt>
      <trkpt lat="44.94803" lon="5.69391">
        <ele>767.6</ele>
        <time>2022-07-16T07:48:57Z</time>
      </trkpt>
      <trkpt lat="44.94804" lon="5.69391">
        <ele>767.6</ele>
        <time>2022-07-16T07:48:58Z</time>
      </trkpt>
      <trkpt lat="44.94805" lon="5.69392">
        <ele>767.6</ele>
        <time>2022-07-16T07:48:59Z</time>
      </trkpt>
      <trkpt lat="44.94806" lon="5.69392">
        <ele>767.6</ele>
        <time>2022-07-16T07:49:00Z</time>
      </trkpt>
      <trkpt lat="44.94806" lon="5.69392">
        <ele>767.6</ele>
        <time>2022-07-16T07:49:01Z</time>
      </trkpt>
      <trkpt lat="44.94807" lon="5.69393">
        <ele>767.6</ele>
        <time>2022-07-16T07:49:02Z</time>
      </trkpt>
      <trkpt lat="44.94808" lon="5.69393">
        <ele>767.6</ele>
        <time>2022-07-16T07:49:03Z</time>
      </trkpt>
      <trkpt lat="44.94809" lon="5.69393">
        <ele>767.6</ele>
        <time>2022-07-16T07:49:04Z</time>
      </trkpt>
      <trkpt lat="44.9481" lon="5.69393">
        <ele>767.6</ele>
        <time>2022-07-16T07:49:05Z</time>
      </trkpt>
      <trkpt lat="44.9481" lon="5.69393">
        <ele>767.6</ele>
        <time>2022-07-16T07:49:06Z</time>
      </trkpt>
      <trkpt lat="44.9481" lon="5.69392">
        <ele>767.6</ele>
        <time>2022-07-16T07:49:07Z</time>
      </trkpt>
      <trkpt lat="44.94811" lon="5.69392">
        <ele>767.6</ele>
        <time>2022-07-16T07:49:08Z</time>
      </trkpt>
      <trkpt lat="44.9481" lon="5.69392">
        <ele>767.6</ele>
        <time>2022-07-16T07:49:11Z</time>
      </trkpt>
      <trkpt lat="44.9481" lon="5.69392">
        <ele>767.6</ele>
        <time>2022-07-16T07:49:12Z</time>
      </trkpt>
      <trkpt lat="44.9481" lon="5.69393">
        <ele>767.6</ele>
        <time>2022-07-16T07:49:13Z</time>
      </trkpt>
      <trkpt lat="44.9481" lon="5.69393">
        <ele>767.6</ele>
        <time>2022-07-16T07:49:14Z</time>
      </trkpt>
      <trkpt lat="44.9481" lon="5.69393">
        <ele>767.6</ele>
        <time>2022-07-16T07:49:15Z</time>
      </trkpt>
      <trkpt lat="44.9481" lon="5.69393">
        <ele>767.6</ele>
        <time>2022-07-16T07:49:16Z</time>
      </trkpt>
      <trkpt lat="44.94811" lon="5.69393">
        <ele>767.6</ele>
        <time>2022-07-16T07:49:17Z</time>
      </trkpt>
      <trkpt lat="44.94813" lon="5.69394">
        <ele>767.6</ele>
        <time>2022-07-16T07:49:33Z</time>
      </trkpt>
      <trkpt lat="44.94812" lon="5.69393">
        <ele>767.6</ele>
        <time>2022-07-16T07:49:34Z</time>
      </trkpt>
      <trkpt lat="44.94811" lon="5.69393">
        <ele>767.6</ele>
        <time>2022-07-16T07:49:36Z</time>
      </trkpt>
      <trkpt lat="44.94811" lon="5.69394">
        <ele>767.6</ele>
        <time>2022-07-16T07:49:39Z</time>
      </trkpt>
      <trkpt lat="44.94811" lon="5.69394">
        <ele>767.6</ele>
        <time>2022-07-16T07:49:40Z</time>
      </trkpt>
      <trkpt lat="44.94811" lon="5.69394">
        <ele>767.6</ele>
        <time>2022-07-16T07:49:41Z</time>
      </trkpt>
      <trkpt lat="44.9481" lon="5.69395">
        <ele>767.6</ele>
        <time>2022-07-16T07:49:43Z</time>
      </trkpt>
      <trkpt lat="44.9481" lon="5.69395">
        <ele>767.6</ele>
        <time>2022-07-16T07:49:44Z</time>
      </trkpt>
      <trkpt lat="44.94808" lon="5.69397">
        <ele>767.5</ele>
        <time>2022-07-16T07:49:46Z</time>
      </trkpt>
      <trkpt lat="44.94809" lon="5.69398">
        <ele>767.5</ele>
        <time>2022-07-16T07:49:48Z</time>
      </trkpt>
      <trkpt lat="44.94808" lon="5.69399">
        <ele>767.5</ele>
        <time>2022-07-16T07:49:49Z</time>
      </trkpt>
      <trkpt lat="44.94808" lon="5.694">
        <ele>767.5</ele>
        <time>2022-07-16T07:49:50Z</time>
      </trkpt>
      <trkpt lat="44.94806" lon="5.69401">
        <ele>767.5</ele>
        <time>2022-07-16T07:49:51Z</time>
      </trkpt>
      <trkpt lat="44.94802" lon="5.69401">
        <ele>767.5</ele>
        <time>2022-07-16T07:49:52Z</time>
      </trkpt>
      <trkpt lat="44.948" lon="5.694">
        <ele>767.5</ele>
        <time>2022-07-16T07:49:53Z</time>
      </trkpt>
      <trkpt lat="44.94798" lon="5.69399">
        <ele>767.5</ele>
        <time>2022-07-16T07:49:54Z</time>
      </trkpt>
      <trkpt lat="44.94796" lon="5.69398">
        <ele>767.5</ele>
        <time>2022-07-16T07:49:55Z</time>
      </trkpt>
      <trkpt lat="44.94798" lon="5.69397">
        <ele>767.4</ele>
        <time>2022-07-16T07:49:58Z</time>
      </trkpt>
      <trkpt lat="44.94798" lon="5.69398">
        <ele>767.4</ele>
        <time>2022-07-16T07:49:59Z</time>
      </trkpt>
      <trkpt lat="44.94799" lon="5.69397">
        <ele>767.4</ele>
        <time>2022-07-16T07:50:02Z</time>
      </trkpt>
      <trkpt lat="44.94798" lon="5.69397">
        <ele>767.4</ele>
        <time>2022-07-16T07:50:03Z</time>
      </trkpt>
      <trkpt lat="44.94797" lon="5.69395">
        <ele>767.4</ele>
        <time>2022-07-16T07:50:05Z</time>
      </trkpt>
      <trkpt lat="44.94791" lon="5.69399">
        <ele>767.3</ele>
        <time>2022-07-16T07:50:37Z</time>
      </trkpt>
      <trkpt lat="44.94776" lon="5.69397">
        <ele>767.2</ele>
        <time>2022-07-16T07:50:40Z</time>
      </trkpt>
      <trkpt lat="44.94772" lon="5.69397">
        <ele>767.2</ele>
        <time>2022-07-16T07:50:41Z</time>
      </trkpt>
      <trkpt lat="44.94769" lon="5.69398">
        <ele>767.1</ele>
        <time>2022-07-16T07:50:42Z</time>
      </trkpt>
      <trkpt lat="44.94764" lon="5.69399">
        <ele>767.1</ele>
        <time>2022-07-16T07:50:43Z</time>
      </trkpt>
      <trkpt lat="44.9476" lon="5.694">
        <ele>767</ele>
        <time>2022-07-16T07:50:44Z</time>
      </trkpt>
      <trkpt lat="44.94754" lon="5.69402">
        <ele>767</ele>
        <time>2022-07-16T07:50:45Z</time>
      </trkpt>
      <trkpt lat="44.94749" lon="5.69404">
        <ele>766.9</ele>
        <time>2022-07-16T07:50:46Z</time>
      </trkpt>
      <trkpt lat="44.94744" lon="5.69405">
        <ele>766.8</ele>
        <time>2022-07-16T07:50:47Z</time>
      </trkpt>
      <trkpt lat="44.94739" lon="5.69406">
        <ele>766.8</ele>
        <time>2022-07-16T07:50:48Z</time>
      </trkpt>
      <trkpt lat="44.94734" lon="5.69407">
        <ele>766.7</ele>
        <time>2022-07-16T07:50:49Z</time>
      </trkpt>
      <trkpt lat="44.94728" lon="5.69408">
        <ele>766.6</ele>
        <time>2022-07-16T07:50:50Z</time>
      </trkpt>
      <trkpt lat="44.94723" lon="5.69409">
        <ele>766.5</ele>
        <time>2022-07-16T07:50:51Z</time>
      </trkpt>
      <trkpt lat="44.94717" lon="5.69411">
        <ele>766.3</ele>
        <time>2022-07-16T07:50:52Z</time>
      </trkpt>
      <trkpt lat="44.94711" lon="5.69412">
        <ele>766.1</ele>
        <time>2022-07-16T07:50:53Z</time>
      </trkpt>
      <trkpt lat="44.94706" lon="5.69414">
        <ele>765.9</ele>
        <time>2022-07-16T07:50:54Z</time>
      </trkpt>
      <trkpt lat="44.94699" lon="5.69416">
        <ele>765.7</ele>
        <time>2022-07-16T07:50:55Z</time>
      </trkpt>
      <trkpt lat="44.94693" lon="5.69417">
        <ele>765.5</ele>
        <time>2022-07-16T07:50:56Z</time>
      </trkpt>
      <trkpt lat="44.94687" lon="5.69417">
        <ele>765.3</ele>
        <time>2022-07-16T07:50:57Z</time>
      </trkpt>
      <trkpt lat="44.9468" lon="5.69417">
        <ele>765</ele>
        <time>2022-07-16T07:50:58Z</time>
      </trkpt>
      <trkpt lat="44.94674" lon="5.69414">
        <ele>764.8</ele>
        <time>2022-07-16T07:50:59Z</time>
      </trkpt>
      <trkpt lat="44.94668" lon="5.6941">
        <ele>764.6</ele>
        <time>2022-07-16T07:51:00Z</time>
      </trkpt>
      <trkpt lat="44.94663" lon="5.69405">
        <ele>764.3</ele>
        <time>2022-07-16T07:51:01Z</time>
      </trkpt>
      <trkpt lat="44.94657" lon="5.694">
        <ele>764.1</ele>
        <time>2022-07-16T07:51:02Z</time>
      </trkpt>
      <trkpt lat="44.94652" lon="5.69395">
        <ele>763.8</ele>
        <time>2022-07-16T07:51:03Z</time>
      </trkpt>
      <trkpt lat="44.94645" lon="5.69391">
        <ele>763.5</ele>
        <time>2022-07-16T07:51:04Z</time>
      </trkpt>
      <trkpt lat="44.94639" lon="5.69387">
        <ele>763.2</ele>
        <time>2022-07-16T07:51:05Z</time>
      </trkpt>
      <trkpt lat="44.94632" lon="5.69383">
        <ele>762.9</ele>
        <time>2022-07-16T07:51:06Z</time>
      </trkpt>
      <trkpt lat="44.94625" lon="5.69378">
        <ele>762.6</ele>
        <time>2022-07-16T07:51:07Z</time>
      </trkpt>
      <trkpt lat="44.94618" lon="5.69374">
        <ele>762.2</ele>
        <time>2022-07-16T07:51:08Z</time>
      </trkpt>
      <trkpt lat="44.94612" lon="5.6937">
        <ele>761.9</ele>
        <time>2022-07-16T07:51:09Z</time>
      </trkpt>
      <trkpt lat="44.94605" lon="5.69366">
        <ele>761.6</ele>
        <time>2022-07-16T07:51:10Z</time>
      </trkpt>
      <trkpt lat="44.94598" lon="5.69365">
        <ele>761.3</ele>
        <time>2022-07-16T07:51:11Z</time>
      </trkpt>
      <trkpt lat="44.94591" lon="5.69363">
        <ele>761</ele>
        <time>2022-07-16T07:51:12Z</time>
      </trkpt>
      <trkpt lat="44.94585" lon="5.69361">
        <ele>760.6</ele>
        <time>2022-07-16T07:51:13Z</time>
      </trkpt>
      <trkpt lat="44.94577" lon="5.6936">
        <ele>760.3</ele>
        <time>2022-07-16T07:51:14Z</time>
      </trkpt>
      <trkpt lat="44.9457" lon="5.6936">
        <ele>760</ele>
        <time>2022-07-16T07:51:15Z</time>
      </trkpt>
      <trkpt lat="44.94562" lon="5.69359">
        <ele>759.7</ele>
        <time>2022-07-16T07:51:16Z</time>
      </trkpt>
      <trkpt lat="44.94554" lon="5.69359">
        <ele>759.3</ele>
        <time>2022-07-16T07:51:17Z</time>
      </trkpt>
      <trkpt lat="44.94547" lon="5.69359">
        <ele>759</ele>
        <time>2022-07-16T07:51:18Z</time>
      </trkpt>
      <trkpt lat="44.94539" lon="5.69359">
        <ele>758.7</ele>
        <time>2022-07-16T07:51:19Z</time>
      </trkpt>
      <trkpt lat="44.94531" lon="5.69358">
        <ele>758.4</ele>
        <time>2022-07-16T07:51:20Z</time>
      </trkpt>
      <trkpt lat="44.94522" lon="5.69358">
        <ele>758</ele>
        <time>2022-07-16T07:51:21Z</time>
      </trkpt>
      <trkpt lat="44.94515" lon="5.69358">
        <ele>757.7</ele>
        <time>2022-07-16T07:51:22Z</time>
      </trkpt>
      <trkpt lat="44.94507" lon="5.69359">
        <ele>757.4</ele>
        <time>2022-07-16T07:51:23Z</time>
      </trkpt>
      <trkpt lat="44.94499" lon="5.69361">
        <ele>757.1</ele>
        <time>2022-07-16T07:51:24Z</time>
      </trkpt>
      <trkpt lat="44.94492" lon="5.69362">
        <ele>756.8</ele>
        <time>2022-07-16T07:51:25Z</time>
      </trkpt>
      <trkpt lat="44.94484" lon="5.69364">
        <ele>756.5</ele>
        <time>2022-07-16T07:51:26Z</time>
      </trkpt>
      <trkpt lat="44.94476" lon="5.69365">
        <ele>756.1</ele>
        <time>2022-07-16T07:51:27Z</time>
      </trkpt>
      <trkpt lat="44.94468" lon="5.69369">
        <ele>755.8</ele>
        <time>2022-07-16T07:51:28Z</time>
      </trkpt>
      <trkpt lat="44.94462" lon="5.69374">
        <ele>755.5</ele>
        <time>2022-07-16T07:51:29Z</time>
      </trkpt>
      <trkpt lat="44.94455" lon="5.6938">
        <ele>755.1</ele>
        <time>2022-07-16T07:51:30Z</time>
      </trkpt>
      <trkpt lat="44.94449" lon="5.69388">
        <ele>754.8</ele>
        <time>2022-07-16T07:51:31Z</time>
      </trkpt>
      <trkpt lat="44.94443" lon="5.69395">
        <ele>754.5</ele>
        <time>2022-07-16T07:51:32Z</time>
      </trkpt>
      <trkpt lat="44.94437" lon="5.69403">
        <ele>754.2</ele>
        <time>2022-07-16T07:51:33Z</time>
      </trkpt>
      <trkpt lat="44.9443" lon="5.69409">
        <ele>753.9</ele>
        <time>2022-07-16T07:51:34Z</time>
      </trkpt>
      <trkpt lat="44.94423" lon="5.69415">
        <ele>753.6</ele>
        <time>2022-07-16T07:51:35Z</time>
      </trkpt>
      <trkpt lat="44.94416" lon="5.69421">
        <ele>753.3</ele>
        <time>2022-07-16T07:51:36Z</time>
      </trkpt>
      <trkpt lat="44.94408" lon="5.69424">
        <ele>752.9</ele>
        <time>2022-07-16T07:51:37Z</time>
      </trkpt>
      <trkpt lat="44.944" lon="5.69423">
        <ele>752.6</ele>
        <time>2022-07-16T07:51:38Z</time>
      </trkpt>
      <trkpt lat="44.94392" lon="5.6942">
        <ele>752.2</ele>
        <time>2022-07-16T07:51:39Z</time>
      </trkpt>
      <trkpt lat="44.94386" lon="5.69413">
        <ele>751.9</ele>
        <time>2022-07-16T07:51:40Z</time>
      </trkpt>
      <trkpt lat="44.94377" lon="5.69407">
        <ele>751.4</ele>
        <time>2022-07-16T07:51:41Z</time>
      </trkpt>
      <trkpt lat="44.94369" lon="5.69407">
        <ele>751</ele>
        <time>2022-07-16T07:51:42Z</time>
      </trkpt>
      <trkpt lat="44.94361" lon="5.69409">
        <ele>750.6</ele>
        <time>2022-07-16T07:51:43Z</time>
      </trkpt>
      <trkpt lat="44.94355" lon="5.69417">
        <ele>750.2</ele>
        <time>2022-07-16T07:51:44Z</time>
      </trkpt>
      <trkpt lat="44.94349" lon="5.69427">
        <ele>749.8</ele>
        <time>2022-07-16T07:51:45Z</time>
      </trkpt>
      <trkpt lat="44.94344" lon="5.69436">
        <ele>749.5</ele>
        <time>2022-07-16T07:51:46Z</time>
      </trkpt>
      <trkpt lat="44.94338" lon="5.69446">
        <ele>749.2</ele>
        <time>2022-07-16T07:51:47Z</time>
      </trkpt>
      <trkpt lat="44.94333" lon="5.69455">
        <ele>748.9</ele>
        <time>2022-07-16T07:51:48Z</time>
      </trkpt>
      <trkpt lat="44.94328" lon="5.69464">
        <ele>748.6</ele>
        <time>2022-07-16T07:51:49Z</time>
      </trkpt>
      <trkpt lat="44.94323" lon="5.69471">
        <ele>748.3</ele>
        <time>2022-07-16T07:51:50Z</time>
      </trkpt>
      <trkpt lat="44.94315" lon="5.69473">
        <ele>748</ele>
        <time>2022-07-16T07:51:51Z</time>
      </trkpt>
      <trkpt lat="44.94308" lon="5.69472">
        <ele>747.7</ele>
        <time>2022-07-16T07:51:52Z</time>
      </trkpt>
      <trkpt lat="44.94301" lon="5.69469">
        <ele>747.3</ele>
        <time>2022-07-16T07:51:53Z</time>
      </trkpt>
      <trkpt lat="44.94295" lon="5.69462">
        <ele>746.8</ele>
        <time>2022-07-16T07:51:54Z</time>
      </trkpt>
      <trkpt lat="44.94288" lon="5.69454">
        <ele>746.4</ele>
        <time>2022-07-16T07:51:55Z</time>
      </trkpt>
      <trkpt lat="44.94281" lon="5.69449">
        <ele>746</ele>
        <time>2022-07-16T07:51:56Z</time>
      </trkpt>
      <trkpt lat="44.94272" lon="5.69446">
        <ele>745.6</ele>
        <time>2022-07-16T07:51:57Z</time>
      </trkpt>
      <trkpt lat="44.94264" lon="5.69442">
        <ele>745.2</ele>
        <time>2022-07-16T07:51:58Z</time>
      </trkpt>
      <trkpt lat="44.94256" lon="5.69437">
        <ele>744.8</ele>
        <time>2022-07-16T07:51:59Z</time>
      </trkpt>
      <trkpt lat="44.94247" lon="5.69431">
        <ele>744.5</ele>
        <time>2022-07-16T07:52:00Z</time>
      </trkpt>
      <trkpt lat="44.94239" lon="5.69428">
        <ele>744.1</ele>
        <time>2022-07-16T07:52:01Z</time>
      </trkpt>
      <trkpt lat="44.94231" lon="5.69424">
        <ele>743.8</ele>
        <time>2022-07-16T07:52:02Z</time>
      </trkpt>
      <trkpt lat="44.94224" lon="5.69417">
        <ele>743.4</ele>
        <time>2022-07-16T07:52:03Z</time>
      </trkpt>
      <trkpt lat="44.94216" lon="5.69409">
        <ele>743</ele>
        <time>2022-07-16T07:52:04Z</time>
      </trkpt>
      <trkpt lat="44.94209" lon="5.69401">
        <ele>742.5</ele>
        <time>2022-07-16T07:52:05Z</time>
      </trkpt>
      <trkpt lat="44.94202" lon="5.69394">
        <ele>742.1</ele>
        <time>2022-07-16T07:52:06Z</time>
      </trkpt>
      <trkpt lat="44.94194" lon="5.69391">
        <ele>741.7</ele>
        <time>2022-07-16T07:52:07Z</time>
      </trkpt>
      <trkpt lat="44.94185" lon="5.6939">
        <ele>741.3</ele>
        <time>2022-07-16T07:52:08Z</time>
      </trkpt>
      <trkpt lat="44.94175" lon="5.69388">
        <ele>740.8</ele>
        <time>2022-07-16T07:52:09Z</time>
      </trkpt>
      <trkpt lat="44.94166" lon="5.69386">
        <ele>740.4</ele>
        <time>2022-07-16T07:52:10Z</time>
      </trkpt>
      <trkpt lat="44.94156" lon="5.69385">
        <ele>739.9</ele>
        <time>2022-07-16T07:52:11Z</time>
      </trkpt>
      <trkpt lat="44.94147" lon="5.69383">
        <ele>739.5</ele>
        <time>2022-07-16T07:52:12Z</time>
      </trkpt>
      <trkpt lat="44.94137" lon="5.69381">
        <ele>739.1</ele>
        <time>2022-07-16T07:52:13Z</time>
      </trkpt>
      <trkpt lat="44.94129" lon="5.69379">
        <ele>738.8</ele>
        <time>2022-07-16T07:52:14Z</time>
      </trkpt>
      <trkpt lat="44.94121" lon="5.69377">
        <ele>738.4</ele>
        <time>2022-07-16T07:52:15Z</time>
      </trkpt>
      <trkpt lat="44.94113" lon="5.69376">
        <ele>738.1</ele>
        <time>2022-07-16T07:52:16Z</time>
      </trkpt>
      <trkpt lat="44.94104" lon="5.69374">
        <ele>737.7</ele>
        <time>2022-07-16T07:52:17Z</time>
      </trkpt>
      <trkpt lat="44.94096" lon="5.69372">
        <ele>737.4</ele>
        <time>2022-07-16T07:52:18Z</time>
      </trkpt>
      <trkpt lat="44.94087" lon="5.69371">
        <ele>737</ele>
        <time>2022-07-16T07:52:19Z</time>
      </trkpt>
      <trkpt lat="44.94078" lon="5.69372">
        <ele>736.7</ele>
        <time>2022-07-16T07:52:20Z</time>
      </trkpt>
      <trkpt lat="44.94069" lon="5.69373">
        <ele>736.3</ele>
        <time>2022-07-16T07:52:21Z</time>
      </trkpt>
      <trkpt lat="44.9406" lon="5.69377">
        <ele>736</ele>
        <time>2022-07-16T07:52:22Z</time>
      </trkpt>
      <trkpt lat="44.94053" lon="5.69383">
        <ele>735.7</ele>
        <time>2022-07-16T07:52:23Z</time>
      </trkpt>
      <trkpt lat="44.94046" lon="5.69388">
        <ele>735.4</ele>
        <time>2022-07-16T07:52:24Z</time>
      </trkpt>
      <trkpt lat="44.9404" lon="5.69393">
        <ele>735.2</ele>
        <time>2022-07-16T07:52:25Z</time>
      </trkpt>
      <trkpt lat="44.94033" lon="5.69396">
        <ele>734.9</ele>
        <time>2022-07-16T07:52:26Z</time>
      </trkpt>
      <trkpt lat="44.94027" lon="5.69396">
        <ele>734.7</ele>
        <time>2022-07-16T07:52:27Z</time>
      </trkpt>
      <trkpt lat="44.9402" lon="5.69395">
        <ele>734.4</ele>
        <time>2022-07-16T07:52:28Z</time>
      </trkpt>
      <trkpt lat="44.94013" lon="5.69387">
        <ele>734</ele>
        <time>2022-07-16T07:52:29Z</time>
      </trkpt>
      <trkpt lat="44.94007" lon="5.69379">
        <ele>733.6</ele>
        <time>2022-07-16T07:52:30Z</time>
      </trkpt>
      <trkpt lat="44.94" lon="5.69372">
        <ele>733.1</ele>
        <time>2022-07-16T07:52:31Z</time>
      </trkpt>
      <trkpt lat="44.93992" lon="5.69367">
        <ele>732.8</ele>
        <time>2022-07-16T07:52:32Z</time>
      </trkpt>
      <trkpt lat="44.93985" lon="5.69363">
        <ele>732.4</ele>
        <time>2022-07-16T07:52:33Z</time>
      </trkpt>
      <trkpt lat="44.93977" lon="5.69359">
        <ele>732.1</ele>
        <time>2022-07-16T07:52:34Z</time>
      </trkpt>
      <trkpt lat="44.93969" lon="5.69354">
        <ele>731.7</ele>
        <time>2022-07-16T07:52:35Z</time>
      </trkpt>
      <trkpt lat="44.93961" lon="5.69351">
        <ele>731.4</ele>
        <time>2022-07-16T07:52:36Z</time>
      </trkpt>
      <trkpt lat="44.93953" lon="5.69348">
        <ele>731.1</ele>
        <time>2022-07-16T07:52:37Z</time>
      </trkpt>
      <trkpt lat="44.93945" lon="5.69346">
        <ele>730.8</ele>
        <time>2022-07-16T07:52:38Z</time>
      </trkpt>
      <trkpt lat="44.93935" lon="5.69342">
        <ele>730.3</ele>
        <time>2022-07-16T07:52:39Z</time>
      </trkpt>
      <trkpt lat="44.93926" lon="5.6934">
        <ele>730</ele>
        <time>2022-07-16T07:52:40Z</time>
      </trkpt>
      <trkpt lat="44.93917" lon="5.69338">
        <ele>729.6</ele>
        <time>2022-07-16T07:52:41Z</time>
      </trkpt>
      <trkpt lat="44.93909" lon="5.69335">
        <ele>729.2</ele>
        <time>2022-07-16T07:52:42Z</time>
      </trkpt>
      <trkpt lat="44.93902" lon="5.69331">
        <ele>728.9</ele>
        <time>2022-07-16T07:52:43Z</time>
      </trkpt>
      <trkpt lat="44.93895" lon="5.69328">
        <ele>728.6</ele>
        <time>2022-07-16T07:52:44Z</time>
      </trkpt>
      <trkpt lat="44.93886" lon="5.69324">
        <ele>728.2</ele>
        <time>2022-07-16T07:52:45Z</time>
      </trkpt>
      <trkpt lat="44.93878" lon="5.69322">
        <ele>727.8</ele>
        <time>2022-07-16T07:52:46Z</time>
      </trkpt>
      <trkpt lat="44.93869" lon="5.69321">
        <ele>727.4</ele>
        <time>2022-07-16T07:52:47Z</time>
      </trkpt>
      <trkpt lat="44.93861" lon="5.69321">
        <ele>727</ele>
        <time>2022-07-16T07:52:48Z</time>
      </trkpt>
      <trkpt lat="44.93853" lon="5.69318">
        <ele>726.6</ele>
        <time>2022-07-16T07:52:49Z</time>
      </trkpt>
      <trkpt lat="44.93846" lon="5.69312">
        <ele>726.3</ele>
        <time>2022-07-16T07:52:50Z</time>
      </trkpt>
      <trkpt lat="44.93839" lon="5.69305">
        <ele>725.9</ele>
        <time>2022-07-16T07:52:51Z</time>
      </trkpt>
      <trkpt lat="44.93832" lon="5.69298">
        <ele>725.6</ele>
        <time>2022-07-16T07:52:52Z</time>
      </trkpt>
      <trkpt lat="44.93824" lon="5.69293">
        <ele>725.2</ele>
        <time>2022-07-16T07:52:53Z</time>
      </trkpt>
      <trkpt lat="44.93816" lon="5.69287">
        <ele>724.8</ele>
        <time>2022-07-16T07:52:54Z</time>
      </trkpt>
      <trkpt lat="44.93807" lon="5.69282">
        <ele>724.5</ele>
        <time>2022-07-16T07:52:55Z</time>
      </trkpt>
      <trkpt lat="44.93799" lon="5.69276">
        <ele>724.1</ele>
        <time>2022-07-16T07:52:56Z</time>
      </trkpt>
      <trkpt lat="44.93791" lon="5.69272">
        <ele>723.7</ele>
        <time>2022-07-16T07:52:57Z</time>
      </trkpt>
      <trkpt lat="44.93782" lon="5.69268">
        <ele>723.4</ele>
        <time>2022-07-16T07:52:58Z</time>
      </trkpt>
      <trkpt lat="44.93773" lon="5.69266">
        <ele>723</ele>
        <time>2022-07-16T07:52:59Z</time>
      </trkpt>
      <trkpt lat="44.93764" lon="5.69266">
        <ele>722.6</ele>
        <time>2022-07-16T07:53:00Z</time>
      </trkpt>
      <trkpt lat="44.93755" lon="5.6927">
        <ele>722.3</ele>
        <time>2022-07-16T07:53:01Z</time>
      </trkpt>
      <trkpt lat="44.93748" lon="5.69276">
        <ele>721.9</ele>
        <time>2022-07-16T07:53:02Z</time>
      </trkpt>
      <trkpt lat="44.93741" lon="5.69283">
        <ele>721.6</ele>
        <time>2022-07-16T07:53:03Z</time>
      </trkpt>
      <trkpt lat="44.93733" lon="5.69289">
        <ele>721.3</ele>
        <time>2022-07-16T07:53:04Z</time>
      </trkpt>
      <trkpt lat="44.93724" lon="5.69293">
        <ele>721</ele>
        <time>2022-07-16T07:53:05Z</time>
      </trkpt>
      <trkpt lat="44.93716" lon="5.69296">
        <ele>720.7</ele>
        <time>2022-07-16T07:53:06Z</time>
      </trkpt>
      <trkpt lat="44.93709" lon="5.69297">
        <ele>720.5</ele>
        <time>2022-07-16T07:53:07Z</time>
      </trkpt>
      <trkpt lat="44.93703" lon="5.69296">
        <ele>720.3</ele>
        <time>2022-07-16T07:53:08Z</time>
      </trkpt>
      <trkpt lat="44.93697" lon="5.69293">
        <ele>720.1</ele>
        <time>2022-07-16T07:53:09Z</time>
      </trkpt>
      <trkpt lat="44.93692" lon="5.69286">
        <ele>719.8</ele>
        <time>2022-07-16T07:53:10Z</time>
      </trkpt>
      <trkpt lat="44.93689" lon="5.69277">
        <ele>719.5</ele>
        <time>2022-07-16T07:53:11Z</time>
      </trkpt>
      <trkpt lat="44.93687" lon="5.69268">
        <ele>719.2</ele>
        <time>2022-07-16T07:53:12Z</time>
      </trkpt>
      <trkpt lat="44.93684" lon="5.69258">
        <ele>718.9</ele>
        <time>2022-07-16T07:53:13Z</time>
      </trkpt>
      <trkpt lat="44.93681" lon="5.69247">
        <ele>718.5</ele>
        <time>2022-07-16T07:53:14Z</time>
      </trkpt>
      <trkpt lat="44.93676" lon="5.69237">
        <ele>718.1</ele>
        <time>2022-07-16T07:53:15Z</time>
      </trkpt>
      <trkpt lat="44.93671" lon="5.69228">
        <ele>717.8</ele>
        <time>2022-07-16T07:53:16Z</time>
      </trkpt>
      <trkpt lat="44.93665" lon="5.6922">
        <ele>717.4</ele>
        <time>2022-07-16T07:53:17Z</time>
      </trkpt>
      <trkpt lat="44.93657" lon="5.69213">
        <ele>716.9</ele>
        <time>2022-07-16T07:53:18Z</time>
      </trkpt>
      <trkpt lat="44.93649" lon="5.69207">
        <ele>716.6</ele>
        <time>2022-07-16T07:53:19Z</time>
      </trkpt>
      <trkpt lat="44.93641" lon="5.69203">
        <ele>716.2</ele>
        <time>2022-07-16T07:53:20Z</time>
      </trkpt>
      <trkpt lat="44.93633" lon="5.692">
        <ele>715.8</ele>
        <time>2022-07-16T07:53:21Z</time>
      </trkpt>
      <trkpt lat="44.93624" lon="5.69199">
        <ele>715.4</ele>
        <time>2022-07-16T07:53:22Z</time>
      </trkpt>
      <trkpt lat="44.93616" lon="5.69198">
        <ele>715</ele>
        <time>2022-07-16T07:53:23Z</time>
      </trkpt>
      <trkpt lat="44.93608" lon="5.69196">
        <ele>714.7</ele>
        <time>2022-07-16T07:53:24Z</time>
      </trkpt>
      <trkpt lat="44.93601" lon="5.69195">
        <ele>714.4</ele>
        <time>2022-07-16T07:53:25Z</time>
      </trkpt>
      <trkpt lat="44.93593" lon="5.69193">
        <ele>714.1</ele>
        <time>2022-07-16T07:53:26Z</time>
      </trkpt>
      <trkpt lat="44.93585" lon="5.6919">
        <ele>713.7</ele>
        <time>2022-07-16T07:53:27Z</time>
      </trkpt>
      <trkpt lat="44.93576" lon="5.69187">
        <ele>713.3</ele>
        <time>2022-07-16T07:53:28Z</time>
      </trkpt>
      <trkpt lat="44.93568" lon="5.69184">
        <ele>713</ele>
        <time>2022-07-16T07:53:29Z</time>
      </trkpt>
      <trkpt lat="44.93559" lon="5.69181">
        <ele>712.6</ele>
        <time>2022-07-16T07:53:30Z</time>
      </trkpt>
      <trkpt lat="44.93551" lon="5.69178">
        <ele>712.3</ele>
        <time>2022-07-16T07:53:31Z</time>
      </trkpt>
      <trkpt lat="44.93543" lon="5.69175">
        <ele>712</ele>
        <time>2022-07-16T07:53:32Z</time>
      </trkpt>
      <trkpt lat="44.93534" lon="5.69172">
        <ele>711.6</ele>
        <time>2022-07-16T07:53:33Z</time>
      </trkpt>
      <trkpt lat="44.93526" lon="5.69168">
        <ele>711.2</ele>
        <time>2022-07-16T07:53:34Z</time>
      </trkpt>
      <trkpt lat="44.93518" lon="5.69165">
        <ele>710.9</ele>
        <time>2022-07-16T07:53:35Z</time>
      </trkpt>
      <trkpt lat="44.9351" lon="5.69162">
        <ele>710.6</ele>
        <time>2022-07-16T07:53:36Z</time>
      </trkpt>
      <trkpt lat="44.93501" lon="5.69158">
        <ele>710.2</ele>
        <time>2022-07-16T07:53:37Z</time>
      </trkpt>
      <trkpt lat="44.93492" lon="5.69154">
        <ele>709.8</ele>
        <time>2022-07-16T07:53:38Z</time>
      </trkpt>
      <trkpt lat="44.93484" lon="5.6915">
        <ele>709.4</ele>
        <time>2022-07-16T07:53:39Z</time>
      </trkpt>
      <trkpt lat="44.93475" lon="5.69147">
        <ele>709.1</ele>
        <time>2022-07-16T07:53:40Z</time>
      </trkpt>
      <trkpt lat="44.93466" lon="5.69144">
        <ele>708.7</ele>
        <time>2022-07-16T07:53:41Z</time>
      </trkpt>
      <trkpt lat="44.93457" lon="5.69142">
        <ele>708.3</ele>
        <time>2022-07-16T07:53:42Z</time>
      </trkpt>
      <trkpt lat="44.93448" lon="5.6914">
        <ele>707.9</ele>
        <time>2022-07-16T07:53:43Z</time>
      </trkpt>
      <trkpt lat="44.93439" lon="5.69136">
        <ele>707.5</ele>
        <time>2022-07-16T07:53:44Z</time>
      </trkpt>
      <trkpt lat="44.9343" lon="5.69132">
        <ele>707.2</ele>
        <time>2022-07-16T07:53:45Z</time>
      </trkpt>
      <trkpt lat="44.93421" lon="5.69128">
        <ele>706.8</ele>
        <time>2022-07-16T07:53:46Z</time>
      </trkpt>
      <trkpt lat="44.93412" lon="5.69123">
        <ele>706.4</ele>
        <time>2022-07-16T07:53:47Z</time>
      </trkpt>
      <trkpt lat="44.93404" lon="5.69119">
        <ele>706.1</ele>
        <time>2022-07-16T07:53:48Z</time>
      </trkpt>
      <trkpt lat="44.93396" lon="5.69114">
        <ele>705.8</ele>
        <time>2022-07-16T07:53:49Z</time>
      </trkpt>
      <trkpt lat="44.93387" lon="5.69109">
        <ele>705.5</ele>
        <time>2022-07-16T07:53:50Z</time>
      </trkpt>
      <trkpt lat="44.93378" lon="5.69106">
        <ele>705.3</ele>
        <time>2022-07-16T07:53:51Z</time>
      </trkpt>
      <trkpt lat="44.93369" lon="5.69103">
        <ele>705.1</ele>
        <time>2022-07-16T07:53:52Z</time>
      </trkpt>
      <trkpt lat="44.93362" lon="5.69101">
        <ele>704.9</ele>
        <time>2022-07-16T07:53:53Z</time>
      </trkpt>
      <trkpt lat="44.93355" lon="5.691">
        <ele>704.7</ele>
        <time>2022-07-16T07:53:54Z</time>
      </trkpt>
      <trkpt lat="44.93348" lon="5.69102">
        <ele>704.5</ele>
        <time>2022-07-16T07:53:55Z</time>
      </trkpt>
      <trkpt lat="44.93342" lon="5.69107">
        <ele>704.3</ele>
        <time>2022-07-16T07:53:56Z</time>
      </trkpt>
      <trkpt lat="44.93337" lon="5.69115">
        <ele>704.1</ele>
        <time>2022-07-16T07:53:57Z</time>
      </trkpt>
      <trkpt lat="44.93331" lon="5.69122">
        <ele>703.8</ele>
        <time>2022-07-16T07:53:58Z</time>
      </trkpt>
      <trkpt lat="44.93327" lon="5.69129">
        <ele>703.6</ele>
        <time>2022-07-16T07:53:59Z</time>
      </trkpt>
      <trkpt lat="44.93322" lon="5.69136">
        <ele>703.3</ele>
        <time>2022-07-16T07:54:00Z</time>
      </trkpt>
      <trkpt lat="44.93316" lon="5.69142">
        <ele>703</ele>
        <time>2022-07-16T07:54:01Z</time>
      </trkpt>
      <trkpt lat="44.9331" lon="5.69144">
        <ele>702.7</ele>
        <time>2022-07-16T07:54:02Z</time>
      </trkpt>
      <trkpt lat="44.93302" lon="5.69143">
        <ele>702.3</ele>
        <time>2022-07-16T07:54:03Z</time>
      </trkpt>
      <trkpt lat="44.93296" lon="5.69138">
        <ele>702</ele>
        <time>2022-07-16T07:54:04Z</time>
      </trkpt>
      <trkpt lat="44.93289" lon="5.6913">
        <ele>701.5</ele>
        <time>2022-07-16T07:54:05Z</time>
      </trkpt>
      <trkpt lat="44.93286" lon="5.69121">
        <ele>701.2</ele>
        <time>2022-07-16T07:54:06Z</time>
      </trkpt>
      <trkpt lat="44.93282" lon="5.69114">
        <ele>700.9</ele>
        <time>2022-07-16T07:54:07Z</time>
      </trkpt>
      <trkpt lat="44.93277" lon="5.69109">
        <ele>700.6</ele>
        <time>2022-07-16T07:54:08Z</time>
      </trkpt>
      <trkpt lat="44.9327" lon="5.69107">
        <ele>700.3</ele>
        <time>2022-07-16T07:54:09Z</time>
      </trkpt>
      <trkpt lat="44.93263" lon="5.69107">
        <ele>699.9</ele>
        <time>2022-07-16T07:54:10Z</time>
      </trkpt>
      <trkpt lat="44.93256" lon="5.69107">
        <ele>699.6</ele>
        <time>2022-07-16T07:54:11Z</time>
      </trkpt>
      <trkpt lat="44.9325" lon="5.69107">
        <ele>699.3</ele>
        <time>2022-07-16T07:54:12Z</time>
      </trkpt>
      <trkpt lat="44.93245" lon="5.69105">
        <ele>699.1</ele>
        <time>2022-07-16T07:54:13Z</time>
      </trkpt>
      <trkpt lat="44.93239" lon="5.69105">
        <ele>698.8</ele>
        <time>2022-07-16T07:54:14Z</time>
      </trkpt>
      <trkpt lat="44.93233" lon="5.69105">
        <ele>698.6</ele>
        <time>2022-07-16T07:54:15Z</time>
      </trkpt>
      <trkpt lat="44.93228" lon="5.69105">
        <ele>698.3</ele>
        <time>2022-07-16T07:54:16Z</time>
      </trkpt>
      <trkpt lat="44.93222" lon="5.69106">
        <ele>698</ele>
        <time>2022-07-16T07:54:17Z</time>
      </trkpt>
      <trkpt lat="44.93217" lon="5.69109">
        <ele>697.7</ele>
        <time>2022-07-16T07:54:18Z</time>
      </trkpt>
      <trkpt lat="44.93211" lon="5.69113">
        <ele>697.4</ele>
        <time>2022-07-16T07:54:19Z</time>
      </trkpt>
      <trkpt lat="44.93205" lon="5.69117">
        <ele>697</ele>
        <time>2022-07-16T07:54:20Z</time>
      </trkpt>
      <trkpt lat="44.932" lon="5.69121">
        <ele>696.7</ele>
        <time>2022-07-16T07:54:21Z</time>
      </trkpt>
      <trkpt lat="44.93194" lon="5.69124">
        <ele>696.4</ele>
        <time>2022-07-16T07:54:22Z</time>
      </trkpt>
      <trkpt lat="44.93187" lon="5.69125">
        <ele>696.1</ele>
        <time>2022-07-16T07:54:23Z</time>
      </trkpt>
      <trkpt lat="44.93181" lon="5.69126">
        <ele>695.8</ele>
        <time>2022-07-16T07:54:24Z</time>
      </trkpt>
      <trkpt lat="44.93174" lon="5.69127">
        <ele>695.5</ele>
        <time>2022-07-16T07:54:25Z</time>
      </trkpt>
      <trkpt lat="44.93167" lon="5.69127">
        <ele>695.2</ele>
        <time>2022-07-16T07:54:26Z</time>
      </trkpt>
      <trkpt lat="44.9316" lon="5.69126">
        <ele>694.9</ele>
        <time>2022-07-16T07:54:27Z</time>
      </trkpt>
      <trkpt lat="44.93153" lon="5.69122">
        <ele>694.7</ele>
        <time>2022-07-16T07:54:28Z</time>
      </trkpt>
      <trkpt lat="44.93146" lon="5.69119">
        <ele>694.4</ele>
        <time>2022-07-16T07:54:29Z</time>
      </trkpt>
      <trkpt lat="44.93138" lon="5.69117">
        <ele>694</ele>
        <time>2022-07-16T07:54:30Z</time>
      </trkpt>
      <trkpt lat="44.93131" lon="5.69116">
        <ele>693.7</ele>
        <time>2022-07-16T07:54:31Z</time>
      </trkpt>
      <trkpt lat="44.93123" lon="5.69117">
        <ele>693.4</ele>
        <time>2022-07-16T07:54:32Z</time>
      </trkpt>
      <trkpt lat="44.93115" lon="5.6912">
        <ele>693.1</ele>
        <time>2022-07-16T07:54:33Z</time>
      </trkpt>
      <trkpt lat="44.93107" lon="5.69125">
        <ele>692.9</ele>
        <time>2022-07-16T07:54:34Z</time>
      </trkpt>
      <trkpt lat="44.93099" lon="5.69126">
        <ele>692.6</ele>
        <time>2022-07-16T07:54:35Z</time>
      </trkpt>
      <trkpt lat="44.93091" lon="5.69125">
        <ele>692.2</ele>
        <time>2022-07-16T07:54:36Z</time>
      </trkpt>
      <trkpt lat="44.93084" lon="5.6912">
        <ele>691.9</ele>
        <time>2022-07-16T07:54:37Z</time>
      </trkpt>
      <trkpt lat="44.93076" lon="5.69115">
        <ele>691.5</ele>
        <time>2022-07-16T07:54:38Z</time>
      </trkpt>
      <trkpt lat="44.93068" lon="5.69113">
        <ele>691.2</ele>
        <time>2022-07-16T07:54:39Z</time>
      </trkpt>
      <trkpt lat="44.93059" lon="5.69114">
        <ele>690.8</ele>
        <time>2022-07-16T07:54:40Z</time>
      </trkpt>
      <trkpt lat="44.93051" lon="5.69118">
        <ele>690.4</ele>
        <time>2022-07-16T07:54:41Z</time>
      </trkpt>
      <trkpt lat="44.93042" lon="5.69121">
        <ele>690</ele>
        <time>2022-07-16T07:54:42Z</time>
      </trkpt>
      <trkpt lat="44.93034" lon="5.69125">
        <ele>689.6</ele>
        <time>2022-07-16T07:54:43Z</time>
      </trkpt>
      <trkpt lat="44.93025" lon="5.69129">
        <ele>689.3</ele>
        <time>2022-07-16T07:54:44Z</time>
      </trkpt>
      <trkpt lat="44.93017" lon="5.69132">
        <ele>688.9</ele>
        <time>2022-07-16T07:54:45Z</time>
      </trkpt>
      <trkpt lat="44.93008" lon="5.69136">
        <ele>688.6</ele>
        <time>2022-07-16T07:54:46Z</time>
      </trkpt>
      <trkpt lat="44.93" lon="5.6914">
        <ele>688.2</ele>
        <time>2022-07-16T07:54:47Z</time>
      </trkpt>
      <trkpt lat="44.92992" lon="5.69145">
        <ele>687.9</ele>
        <time>2022-07-16T07:54:48Z</time>
      </trkpt>
      <trkpt lat="44.92984" lon="5.69149">
        <ele>687.6</ele>
        <time>2022-07-16T07:54:49Z</time>
      </trkpt>
      <trkpt lat="44.92975" lon="5.69151">
        <ele>687.2</ele>
        <time>2022-07-16T07:54:50Z</time>
      </trkpt>
      <trkpt lat="44.92967" lon="5.69152">
        <ele>686.9</ele>
        <time>2022-07-16T07:54:51Z</time>
      </trkpt>
      <trkpt lat="44.92958" lon="5.69151">
        <ele>686.6</ele>
        <time>2022-07-16T07:54:52Z</time>
      </trkpt>
      <trkpt lat="44.9295" lon="5.69149">
        <ele>686.2</ele>
        <time>2022-07-16T07:54:53Z</time>
      </trkpt>
      <trkpt lat="44.92941" lon="5.69148">
        <ele>685.9</ele>
        <time>2022-07-16T07:54:54Z</time>
      </trkpt>
      <trkpt lat="44.92932" lon="5.69148">
        <ele>685.5</ele>
        <time>2022-07-16T07:54:55Z</time>
      </trkpt>
      <trkpt lat="44.92924" lon="5.69151">
        <ele>685.1</ele>
        <time>2022-07-16T07:54:56Z</time>
      </trkpt>
      <trkpt lat="44.92917" lon="5.69155">
        <ele>684.8</ele>
        <time>2022-07-16T07:54:57Z</time>
      </trkpt>
      <trkpt lat="44.9291" lon="5.69162">
        <ele>684.4</ele>
        <time>2022-07-16T07:54:58Z</time>
      </trkpt>
      <trkpt lat="44.92904" lon="5.6917">
        <ele>684.1</ele>
        <time>2022-07-16T07:54:59Z</time>
      </trkpt>
      <trkpt lat="44.92899" lon="5.69179">
        <ele>683.8</ele>
        <time>2022-07-16T07:55:00Z</time>
      </trkpt>
      <trkpt lat="44.92894" lon="5.69186">
        <ele>683.5</ele>
        <time>2022-07-16T07:55:01Z</time>
      </trkpt>
      <trkpt lat="44.92888" lon="5.69193">
        <ele>683.3</ele>
        <time>2022-07-16T07:55:02Z</time>
      </trkpt>
      <trkpt lat="44.92881" lon="5.69197">
        <ele>683</ele>
        <time>2022-07-16T07:55:03Z</time>
      </trkpt>
      <trkpt lat="44.92874" lon="5.69199">
        <ele>682.8</ele>
        <time>2022-07-16T07:55:04Z</time>
      </trkpt>
      <trkpt lat="44.92869" lon="5.69199">
        <ele>682.6</ele>
        <time>2022-07-16T07:55:05Z</time>
      </trkpt>
      <trkpt lat="44.92862" lon="5.69195">
        <ele>682.3</ele>
        <time>2022-07-16T07:55:06Z</time>
      </trkpt>
      <trkpt lat="44.92857" lon="5.69183">
        <ele>681.9</ele>
        <time>2022-07-16T07:55:07Z</time>
      </trkpt>
      <trkpt lat="44.92852" lon="5.69172">
        <ele>681.6</ele>
        <time>2022-07-16T07:55:08Z</time>
      </trkpt>
      <trkpt lat="44.92845" lon="5.69165">
        <ele>681.2</ele>
        <time>2022-07-16T07:55:09Z</time>
      </trkpt>
      <trkpt lat="44.92838" lon="5.6916">
        <ele>680.8</ele>
        <time>2022-07-16T07:55:10Z</time>
      </trkpt>
      <trkpt lat="44.92829" lon="5.69156">
        <ele>680.4</ele>
        <time>2022-07-16T07:55:11Z</time>
      </trkpt>
      <trkpt lat="44.92821" lon="5.69155">
        <ele>680.1</ele>
        <time>2022-07-16T07:55:12Z</time>
      </trkpt>
      <trkpt lat="44.92812" lon="5.69154">
        <ele>679.7</ele>
        <time>2022-07-16T07:55:13Z</time>
      </trkpt>
      <trkpt lat="44.92803" lon="5.69154">
        <ele>679.3</ele>
        <time>2022-07-16T07:55:14Z</time>
      </trkpt>
      <trkpt lat="44.92795" lon="5.69153">
        <ele>679</ele>
        <time>2022-07-16T07:55:15Z</time>
      </trkpt>
      <trkpt lat="44.92786" lon="5.69151">
        <ele>678.6</ele>
        <time>2022-07-16T07:55:16Z</time>
      </trkpt>
      <trkpt lat="44.92777" lon="5.6915">
        <ele>678.2</ele>
        <time>2022-07-16T07:55:17Z</time>
      </trkpt>
      <trkpt lat="44.92768" lon="5.6915">
        <ele>677.8</ele>
        <time>2022-07-16T07:55:18Z</time>
      </trkpt>
      <trkpt lat="44.9276" lon="5.6915">
        <ele>677.5</ele>
        <time>2022-07-16T07:55:19Z</time>
      </trkpt>
      <trkpt lat="44.92752" lon="5.69152">
        <ele>677.2</ele>
        <time>2022-07-16T07:55:20Z</time>
      </trkpt>
      <trkpt lat="44.92743" lon="5.69156">
        <ele>676.8</ele>
        <time>2022-07-16T07:55:21Z</time>
      </trkpt>
      <trkpt lat="44.92735" lon="5.6916">
        <ele>676.4</ele>
        <time>2022-07-16T07:55:22Z</time>
      </trkpt>
      <trkpt lat="44.92727" lon="5.69161">
        <ele>676.1</ele>
        <time>2022-07-16T07:55:23Z</time>
      </trkpt>
      <trkpt lat="44.92719" lon="5.69161">
        <ele>675.8</ele>
        <time>2022-07-16T07:55:24Z</time>
      </trkpt>
      <trkpt lat="44.92711" lon="5.69157">
        <ele>675.5</ele>
        <time>2022-07-16T07:55:25Z</time>
      </trkpt>
      <trkpt lat="44.92703" lon="5.69153">
        <ele>675.1</ele>
        <time>2022-07-16T07:55:26Z</time>
      </trkpt>
      <trkpt lat="44.92694" lon="5.6915">
        <ele>674.8</ele>
        <time>2022-07-16T07:55:27Z</time>
      </trkpt>
      <trkpt lat="44.92686" lon="5.69149">
        <ele>674.5</ele>
        <time>2022-07-16T07:55:28Z</time>
      </trkpt>
      <trkpt lat="44.92677" lon="5.69147">
        <ele>674.1</ele>
        <time>2022-07-16T07:55:29Z</time>
      </trkpt>
      <trkpt lat="44.92668" lon="5.69142">
        <ele>673.8</ele>
        <time>2022-07-16T07:55:30Z</time>
      </trkpt>
      <trkpt lat="44.92659" lon="5.69137">
        <ele>673.3</ele>
        <time>2022-07-16T07:55:31Z</time>
      </trkpt>
      <trkpt lat="44.9265" lon="5.69135">
        <ele>672.9</ele>
        <time>2022-07-16T07:55:32Z</time>
      </trkpt>
      <trkpt lat="44.92641" lon="5.69133">
        <ele>672.5</ele>
        <time>2022-07-16T07:55:33Z</time>
      </trkpt>
      <trkpt lat="44.92633" lon="5.69128">
        <ele>672.1</ele>
        <time>2022-07-16T07:55:34Z</time>
      </trkpt>
      <trkpt lat="44.92625" lon="5.69122">
        <ele>671.8</ele>
        <time>2022-07-16T07:55:35Z</time>
      </trkpt>
      <trkpt lat="44.92616" lon="5.69117">
        <ele>671.4</ele>
        <time>2022-07-16T07:55:36Z</time>
      </trkpt>
      <trkpt lat="44.92607" lon="5.69113">
        <ele>671</ele>
        <time>2022-07-16T07:55:37Z</time>
      </trkpt>
      <trkpt lat="44.92598" lon="5.6911">
        <ele>670.6</ele>
        <time>2022-07-16T07:55:38Z</time>
      </trkpt>
      <trkpt lat="44.92589" lon="5.69106">
        <ele>670.2</ele>
        <time>2022-07-16T07:55:39Z</time>
      </trkpt>
      <trkpt lat="44.92581" lon="5.691">
        <ele>669.9</ele>
        <time>2022-07-16T07:55:40Z</time>
      </trkpt>
      <trkpt lat="44.92573" lon="5.69096">
        <ele>669.5</ele>
        <time>2022-07-16T07:55:41Z</time>
      </trkpt>
      <trkpt lat="44.92565" lon="5.69094">
        <ele>669.2</ele>
        <time>2022-07-16T07:55:42Z</time>
      </trkpt>
      <trkpt lat="44.92555" lon="5.69093">
        <ele>668.9</ele>
        <time>2022-07-16T07:55:43Z</time>
      </trkpt>
      <trkpt lat="44.92546" lon="5.69093">
        <ele>668.5</ele>
        <time>2022-07-16T07:55:44Z</time>
      </trkpt>
      <trkpt lat="44.92536" lon="5.69092">
        <ele>668.1</ele>
        <time>2022-07-16T07:55:45Z</time>
      </trkpt>
      <trkpt lat="44.92527" lon="5.69093">
        <ele>667.8</ele>
        <time>2022-07-16T07:55:46Z</time>
      </trkpt>
      <trkpt lat="44.92518" lon="5.69095">
        <ele>667.4</ele>
        <time>2022-07-16T07:55:47Z</time>
      </trkpt>
      <trkpt lat="44.92509" lon="5.69097">
        <ele>667</ele>
        <time>2022-07-16T07:55:48Z</time>
      </trkpt>
      <trkpt lat="44.925" lon="5.69095">
        <ele>666.6</ele>
        <time>2022-07-16T07:55:49Z</time>
      </trkpt>
      <trkpt lat="44.92491" lon="5.69091">
        <ele>666.2</ele>
        <time>2022-07-16T07:55:50Z</time>
      </trkpt>
      <trkpt lat="44.92483" lon="5.69086">
        <ele>665.8</ele>
        <time>2022-07-16T07:55:51Z</time>
      </trkpt>
      <trkpt lat="44.92475" lon="5.6908">
        <ele>665.4</ele>
        <time>2022-07-16T07:55:52Z</time>
      </trkpt>
      <trkpt lat="44.92467" lon="5.69075">
        <ele>665</ele>
        <time>2022-07-16T07:55:53Z</time>
      </trkpt>
      <trkpt lat="44.92459" lon="5.69071">
        <ele>664.6</ele>
        <time>2022-07-16T07:55:54Z</time>
      </trkpt>
      <trkpt lat="44.9245" lon="5.69066">
        <ele>664.2</ele>
        <time>2022-07-16T07:55:55Z</time>
      </trkpt>
      <trkpt lat="44.92442" lon="5.69063">
        <ele>663.8</ele>
        <time>2022-07-16T07:55:56Z</time>
      </trkpt>
      <trkpt lat="44.92433" lon="5.6906">
        <ele>663.4</ele>
        <time>2022-07-16T07:55:57Z</time>
      </trkpt>
      <trkpt lat="44.92425" lon="5.69059">
        <ele>663</ele>
        <time>2022-07-16T07:55:58Z</time>
      </trkpt>
      <trkpt lat="44.92418" lon="5.69057">
        <ele>662.6</ele>
        <time>2022-07-16T07:55:59Z</time>
      </trkpt>
      <trkpt lat="44.9241" lon="5.69052">
        <ele>662.2</ele>
        <time>2022-07-16T07:56:00Z</time>
      </trkpt>
      <trkpt lat="44.92403" lon="5.69046">
        <ele>661.8</ele>
        <time>2022-07-16T07:56:01Z</time>
      </trkpt>
      <trkpt lat="44.92395" lon="5.6904">
        <ele>661.4</ele>
        <time>2022-07-16T07:56:02Z</time>
      </trkpt>
      <trkpt lat="44.92387" lon="5.69034">
        <ele>660.9</ele>
        <time>2022-07-16T07:56:03Z</time>
      </trkpt>
      <trkpt lat="44.92379" lon="5.69028">
        <ele>660.5</ele>
        <time>2022-07-16T07:56:04Z</time>
      </trkpt>
      <trkpt lat="44.92371" lon="5.69023">
        <ele>660.1</ele>
        <time>2022-07-16T07:56:05Z</time>
      </trkpt>
      <trkpt lat="44.92363" lon="5.69019">
        <ele>659.7</ele>
        <time>2022-07-16T07:56:06Z</time>
      </trkpt>
      <trkpt lat="44.92355" lon="5.69017">
        <ele>659.4</ele>
        <time>2022-07-16T07:56:07Z</time>
      </trkpt>
      <trkpt lat="44.9235" lon="5.69016">
        <ele>659.2</ele>
        <time>2022-07-16T07:56:08Z</time>
      </trkpt>
      <trkpt lat="44.92344" lon="5.69014">
        <ele>659</ele>
        <time>2022-07-16T07:56:09Z</time>
      </trkpt>
      <trkpt lat="44.92339" lon="5.69012">
        <ele>658.8</ele>
        <time>2022-07-16T07:56:10Z</time>
      </trkpt>
      <trkpt lat="44.92332" lon="5.69009">
        <ele>658.6</ele>
        <time>2022-07-16T07:56:11Z</time>
      </trkpt>
      <trkpt lat="44.92325" lon="5.69007">
        <ele>658.4</ele>
        <time>2022-07-16T07:56:12Z</time>
      </trkpt>
      <trkpt lat="44.92318" lon="5.69006">
        <ele>658.3</ele>
        <time>2022-07-16T07:56:13Z</time>
      </trkpt>
      <trkpt lat="44.92312" lon="5.69006">
        <ele>658.3</ele>
        <time>2022-07-16T07:56:14Z</time>
      </trkpt>
      <trkpt lat="44.92305" lon="5.69005">
        <ele>658.3</ele>
        <time>2022-07-16T07:56:15Z</time>
      </trkpt>
      <trkpt lat="44.92299" lon="5.69003">
        <ele>658.3</ele>
        <time>2022-07-16T07:56:16Z</time>
      </trkpt>
      <trkpt lat="44.92293" lon="5.69">
        <ele>658.3</ele>
        <time>2022-07-16T07:56:17Z</time>
      </trkpt>
      <trkpt lat="44.92287" lon="5.68996">
        <ele>658.3</ele>
        <time>2022-07-16T07:56:18Z</time>
      </trkpt>
      <trkpt lat="44.92283" lon="5.6899">
        <ele>658.3</ele>
        <time>2022-07-16T07:56:19Z</time>
      </trkpt>
      <trkpt lat="44.92279" lon="5.68982">
        <ele>658.1</ele>
        <time>2022-07-16T07:56:20Z</time>
      </trkpt>
      <trkpt lat="44.92276" lon="5.68973">
        <ele>658</ele>
        <time>2022-07-16T07:56:21Z</time>
      </trkpt>
      <trkpt lat="44.92273" lon="5.68965">
        <ele>657.9</ele>
        <time>2022-07-16T07:56:22Z</time>
      </trkpt>
      <trkpt lat="44.92269" lon="5.68958">
        <ele>657.9</ele>
        <time>2022-07-16T07:56:23Z</time>
      </trkpt>
      <trkpt lat="44.92264" lon="5.68952">
        <ele>657.9</ele>
        <time>2022-07-16T07:56:24Z</time>
      </trkpt>
      <trkpt lat="44.92259" lon="5.68947">
        <ele>657.9</ele>
        <time>2022-07-16T07:56:25Z</time>
      </trkpt>
      <trkpt lat="44.92254" lon="5.68942">
        <ele>658</ele>
        <time>2022-07-16T07:56:26Z</time>
      </trkpt>
      <trkpt lat="44.92249" lon="5.68939">
        <ele>658.1</ele>
        <time>2022-07-16T07:56:27Z</time>
      </trkpt>
      <trkpt lat="44.92244" lon="5.68935">
        <ele>658.3</ele>
        <time>2022-07-16T07:56:28Z</time>
      </trkpt>
      <trkpt lat="44.92239" lon="5.68931">
        <ele>658.4</ele>
        <time>2022-07-16T07:56:29Z</time>
      </trkpt>
      <trkpt lat="44.92234" lon="5.68927">
        <ele>658.6</ele>
        <time>2022-07-16T07:56:30Z</time>
      </trkpt>
      <trkpt lat="44.92229" lon="5.68924">
        <ele>658.7</ele>
        <time>2022-07-16T07:56:31Z</time>
      </trkpt>
      <trkpt lat="44.92224" lon="5.68922">
        <ele>658.9</ele>
        <time>2022-07-16T07:56:32Z</time>
      </trkpt>
      <trkpt lat="44.9222" lon="5.68919">
        <ele>659.1</ele>
        <time>2022-07-16T07:56:33Z</time>
      </trkpt>
      <trkpt lat="44.92216" lon="5.68916">
        <ele>659.3</ele>
        <time>2022-07-16T07:56:34Z</time>
      </trkpt>
      <trkpt lat="44.92214" lon="5.68913">
        <ele>659.4</ele>
        <time>2022-07-16T07:56:35Z</time>
      </trkpt>
      <trkpt lat="44.9221" lon="5.68909">
        <ele>659.6</ele>
        <time>2022-07-16T07:56:36Z</time>
      </trkpt>
      <trkpt lat="44.92208" lon="5.68906">
        <ele>659.8</ele>
        <time>2022-07-16T07:56:37Z</time>
      </trkpt>
      <trkpt lat="44.92204" lon="5.68903">
        <ele>659.9</ele>
        <time>2022-07-16T07:56:38Z</time>
      </trkpt>
      <trkpt lat="44.92201" lon="5.68902">
        <ele>660.1</ele>
        <time>2022-07-16T07:56:39Z</time>
      </trkpt>
      <trkpt lat="44.92193" lon="5.68899">
        <ele>660.6</ele>
        <time>2022-07-16T07:56:40Z</time>
      </trkpt>
      <trkpt lat="44.92192" lon="5.68898">
        <ele>660.7</ele>
        <time>2022-07-16T07:56:41Z</time>
      </trkpt>
      <trkpt lat="44.9219" lon="5.68898">
        <ele>660.8</ele>
        <time>2022-07-16T07:56:42Z</time>
      </trkpt>
      <trkpt lat="44.92181" lon="5.68896">
        <ele>661.3</ele>
        <time>2022-07-16T07:56:43Z</time>
      </trkpt>
      <trkpt lat="44.92172" lon="5.68896">
        <ele>661.8</ele>
        <time>2022-07-16T07:56:45Z</time>
      </trkpt>
      <trkpt lat="44.92168" lon="5.68896">
        <ele>661.9</ele>
        <time>2022-07-16T07:56:46Z</time>
      </trkpt>
      <trkpt lat="44.92165" lon="5.68897">
        <ele>661.9</ele>
        <time>2022-07-16T07:56:47Z</time>
      </trkpt>
      <trkpt lat="44.92162" lon="5.68899">
        <ele>662</ele>
        <time>2022-07-16T07:56:48Z</time>
      </trkpt>
      <trkpt lat="44.92157" lon="5.68902">
        <ele>662.1</ele>
        <time>2022-07-16T07:56:49Z</time>
      </trkpt>
      <trkpt lat="44.92148" lon="5.68906">
        <ele>662.2</ele>
        <time>2022-07-16T07:56:51Z</time>
      </trkpt>
      <trkpt lat="44.92145" lon="5.6891">
        <ele>662.2</ele>
        <time>2022-07-16T07:56:52Z</time>
      </trkpt>
      <trkpt lat="44.9214" lon="5.68914">
        <ele>662.1</ele>
        <time>2022-07-16T07:56:54Z</time>
      </trkpt>
      <trkpt lat="44.92134" lon="5.6892">
        <ele>662</ele>
        <time>2022-07-16T07:56:56Z</time>
      </trkpt>
      <trkpt lat="44.92121" lon="5.68929">
        <ele>661.7</ele>
        <time>2022-07-16T07:56:59Z</time>
      </trkpt>
      <trkpt lat="44.92115" lon="5.68933">
        <ele>661.6</ele>
        <time>2022-07-16T07:57:00Z</time>
      </trkpt>
      <trkpt lat="44.9211" lon="5.68937">
        <ele>661.6</ele>
        <time>2022-07-16T07:57:01Z</time>
      </trkpt>
      <trkpt lat="44.92104" lon="5.6894">
        <ele>661.5</ele>
        <time>2022-07-16T07:57:02Z</time>
      </trkpt>
      <trkpt lat="44.92098" lon="5.68945">
        <ele>661.5</ele>
        <time>2022-07-16T07:57:03Z</time>
      </trkpt>
      <trkpt lat="44.92092" lon="5.68949">
        <ele>661.5</ele>
        <time>2022-07-16T07:57:04Z</time>
      </trkpt>
      <trkpt lat="44.92087" lon="5.68953">
        <ele>661.5</ele>
        <time>2022-07-16T07:57:05Z</time>
      </trkpt>
      <trkpt lat="44.92082" lon="5.68955">
        <ele>661.6</ele>
        <time>2022-07-16T07:57:06Z</time>
      </trkpt>
      <trkpt lat="44.92078" lon="5.68957">
        <ele>661.6</ele>
        <time>2022-07-16T07:57:07Z</time>
      </trkpt>
      <trkpt lat="44.92074" lon="5.68959">
        <ele>661.6</ele>
        <time>2022-07-16T07:57:08Z</time>
      </trkpt>
      <trkpt lat="44.9207" lon="5.68961">
        <ele>661.6</ele>
        <time>2022-07-16T07:57:09Z</time>
      </trkpt>
      <trkpt lat="44.92066" lon="5.68963">
        <ele>661.5</ele>
        <time>2022-07-16T07:57:10Z</time>
      </trkpt>
      <trkpt lat="44.92062" lon="5.68965">
        <ele>661.4</ele>
        <time>2022-07-16T07:57:11Z</time>
      </trkpt>
      <trkpt lat="44.9206" lon="5.68966">
        <ele>661.4</ele>
        <time>2022-07-16T07:57:12Z</time>
      </trkpt>
      <trkpt lat="44.92055" lon="5.68967">
        <ele>661.3</ele>
        <time>2022-07-16T07:57:13Z</time>
      </trkpt>
      <trkpt lat="44.92051" lon="5.68968">
        <ele>661.2</ele>
        <time>2022-07-16T07:57:14Z</time>
      </trkpt>
      <trkpt lat="44.92046" lon="5.6897">
        <ele>661.1</ele>
        <time>2022-07-16T07:57:15Z</time>
      </trkpt>
      <trkpt lat="44.92038" lon="5.68966">
        <ele>660.9</ele>
        <time>2022-07-16T07:57:17Z</time>
      </trkpt>
      <trkpt lat="44.92032" lon="5.6897">
        <ele>660.7</ele>
        <time>2022-07-16T07:57:18Z</time>
      </trkpt>
      <trkpt lat="44.92023" lon="5.68972">
        <ele>660.4</ele>
        <time>2022-07-16T07:57:20Z</time>
      </trkpt>
      <trkpt lat="44.92009" lon="5.68971">
        <ele>660</ele>
        <time>2022-07-16T07:57:23Z</time>
      </trkpt>
      <trkpt lat="44.92003" lon="5.6897">
        <ele>659.8</ele>
        <time>2022-07-16T07:57:24Z</time>
      </trkpt>
      <trkpt lat="44.91998" lon="5.68969">
        <ele>659.6</ele>
        <time>2022-07-16T07:57:25Z</time>
      </trkpt>
      <trkpt lat="44.91994" lon="5.68967">
        <ele>659.5</ele>
        <time>2022-07-16T07:57:26Z</time>
      </trkpt>
      <trkpt lat="44.91988" lon="5.68965">
        <ele>659.3</ele>
        <time>2022-07-16T07:57:27Z</time>
      </trkpt>
      <trkpt lat="44.91985" lon="5.68963">
        <ele>659.2</ele>
        <time>2022-07-16T07:57:28Z</time>
      </trkpt>
      <trkpt lat="44.9198" lon="5.68961">
        <ele>659</ele>
        <time>2022-07-16T07:57:29Z</time>
      </trkpt>
      <trkpt lat="44.91975" lon="5.68957">
        <ele>658.8</ele>
        <time>2022-07-16T07:57:30Z</time>
      </trkpt>
      <trkpt lat="44.91969" lon="5.68954">
        <ele>658.6</ele>
        <time>2022-07-16T07:57:31Z</time>
      </trkpt>
      <trkpt lat="44.91964" lon="5.6895">
        <ele>658.4</ele>
        <time>2022-07-16T07:57:32Z</time>
      </trkpt>
      <trkpt lat="44.91958" lon="5.68946">
        <ele>658.2</ele>
        <time>2022-07-16T07:57:33Z</time>
      </trkpt>
      <trkpt lat="44.91952" lon="5.68943">
        <ele>657.9</ele>
        <time>2022-07-16T07:57:34Z</time>
      </trkpt>
      <trkpt lat="44.91947" lon="5.6894">
        <ele>657.7</ele>
        <time>2022-07-16T07:57:35Z</time>
      </trkpt>
      <trkpt lat="44.9194" lon="5.68935">
        <ele>657.5</ele>
        <time>2022-07-16T07:57:36Z</time>
      </trkpt>
      <trkpt lat="44.91934" lon="5.6893">
        <ele>657.2</ele>
        <time>2022-07-16T07:57:37Z</time>
      </trkpt>
      <trkpt lat="44.91928" lon="5.68927">
        <ele>657</ele>
        <time>2022-07-16T07:57:38Z</time>
      </trkpt>
      <trkpt lat="44.91922" lon="5.68923">
        <ele>656.7</ele>
        <time>2022-07-16T07:57:39Z</time>
      </trkpt>
      <trkpt lat="44.91915" lon="5.68921">
        <ele>656.5</ele>
        <time>2022-07-16T07:57:40Z</time>
      </trkpt>
      <trkpt lat="44.91908" lon="5.6892">
        <ele>656.2</ele>
        <time>2022-07-16T07:57:41Z</time>
      </trkpt>
      <trkpt lat="44.919" lon="5.6892">
        <ele>656</ele>
        <time>2022-07-16T07:57:42Z</time>
      </trkpt>
      <trkpt lat="44.91893" lon="5.68918">
        <ele>655.7</ele>
        <time>2022-07-16T07:57:43Z</time>
      </trkpt>
      <trkpt lat="44.91886" lon="5.68917">
        <ele>655.5</ele>
        <time>2022-07-16T07:57:44Z</time>
      </trkpt>
      <trkpt lat="44.91879" lon="5.68916">
        <ele>655.3</ele>
        <time>2022-07-16T07:57:45Z</time>
      </trkpt>
      <trkpt lat="44.91872" lon="5.68915">
        <ele>655</ele>
        <time>2022-07-16T07:57:46Z</time>
      </trkpt>
      <trkpt lat="44.91864" lon="5.68914">
        <ele>654.8</ele>
        <time>2022-07-16T07:57:47Z</time>
      </trkpt>
      <trkpt lat="44.91856" lon="5.68914">
        <ele>654.5</ele>
        <time>2022-07-16T07:57:48Z</time>
      </trkpt>
      <trkpt lat="44.91849" lon="5.68913">
        <ele>654.3</ele>
        <time>2022-07-16T07:57:49Z</time>
      </trkpt>
      <trkpt lat="44.91841" lon="5.68912">
        <ele>654.2</ele>
        <time>2022-07-16T07:57:50Z</time>
      </trkpt>
      <trkpt lat="44.91834" lon="5.6891">
        <ele>654.1</ele>
        <time>2022-07-16T07:57:51Z</time>
      </trkpt>
      <trkpt lat="44.91827" lon="5.68908">
        <ele>654</ele>
        <time>2022-07-16T07:57:52Z</time>
      </trkpt>
      <trkpt lat="44.91819" lon="5.68906">
        <ele>653.7</ele>
        <time>2022-07-16T07:57:53Z</time>
      </trkpt>
      <trkpt lat="44.91813" lon="5.68903">
        <ele>653.4</ele>
        <time>2022-07-16T07:57:54Z</time>
      </trkpt>
      <trkpt lat="44.91806" lon="5.689">
        <ele>653.1</ele>
        <time>2022-07-16T07:57:55Z</time>
      </trkpt>
      <trkpt lat="44.91799" lon="5.68896">
        <ele>652.8</ele>
        <time>2022-07-16T07:57:56Z</time>
      </trkpt>
      <trkpt lat="44.91792" lon="5.68893">
        <ele>652.4</ele>
        <time>2022-07-16T07:57:57Z</time>
      </trkpt>
      <trkpt lat="44.91784" lon="5.6889">
        <ele>652.1</ele>
        <time>2022-07-16T07:57:58Z</time>
      </trkpt>
      <trkpt lat="44.91777" lon="5.68887">
        <ele>651.7</ele>
        <time>2022-07-16T07:57:59Z</time>
      </trkpt>
      <trkpt lat="44.91769" lon="5.68884">
        <ele>651.5</ele>
        <time>2022-07-16T07:58:00Z</time>
      </trkpt>
      <trkpt lat="44.91761" lon="5.6888">
        <ele>651.2</ele>
        <time>2022-07-16T07:58:01Z</time>
      </trkpt>
      <trkpt lat="44.91754" lon="5.68877">
        <ele>651</ele>
        <time>2022-07-16T07:58:02Z</time>
      </trkpt>
      <trkpt lat="44.91747" lon="5.68874">
        <ele>650.7</ele>
        <time>2022-07-16T07:58:03Z</time>
      </trkpt>
      <trkpt lat="44.91739" lon="5.68873">
        <ele>650.5</ele>
        <time>2022-07-16T07:58:04Z</time>
      </trkpt>
      <trkpt lat="44.91731" lon="5.68871">
        <ele>650.3</ele>
        <time>2022-07-16T07:58:05Z</time>
      </trkpt>
      <trkpt lat="44.91724" lon="5.6887">
        <ele>650</ele>
        <time>2022-07-16T07:58:06Z</time>
      </trkpt>
      <trkpt lat="44.91717" lon="5.6887">
        <ele>649.8</ele>
        <time>2022-07-16T07:58:07Z</time>
      </trkpt>
      <trkpt lat="44.91709" lon="5.6887">
        <ele>649.5</ele>
        <time>2022-07-16T07:58:08Z</time>
      </trkpt>
      <trkpt lat="44.91702" lon="5.6887">
        <ele>649.3</ele>
        <time>2022-07-16T07:58:09Z</time>
      </trkpt>
      <trkpt lat="44.91695" lon="5.6887">
        <ele>649</ele>
        <time>2022-07-16T07:58:10Z</time>
      </trkpt>
      <trkpt lat="44.91688" lon="5.68871">
        <ele>648.7</ele>
        <time>2022-07-16T07:58:11Z</time>
      </trkpt>
      <trkpt lat="44.91681" lon="5.68872">
        <ele>648.5</ele>
        <time>2022-07-16T07:58:12Z</time>
      </trkpt>
      <trkpt lat="44.91674" lon="5.68873">
        <ele>648.2</ele>
        <time>2022-07-16T07:58:13Z</time>
      </trkpt>
      <trkpt lat="44.91666" lon="5.68874">
        <ele>647.9</ele>
        <time>2022-07-16T07:58:14Z</time>
      </trkpt>
      <trkpt lat="44.91658" lon="5.68874">
        <ele>647.6</ele>
        <time>2022-07-16T07:58:15Z</time>
      </trkpt>
      <trkpt lat="44.91651" lon="5.68875">
        <ele>647.3</ele>
        <time>2022-07-16T07:58:16Z</time>
      </trkpt>
      <trkpt lat="44.91643" lon="5.68876">
        <ele>647</ele>
        <time>2022-07-16T07:58:17Z</time>
      </trkpt>
      <trkpt lat="44.91635" lon="5.68877">
        <ele>646.8</ele>
        <time>2022-07-16T07:58:18Z</time>
      </trkpt>
      <trkpt lat="44.91627" lon="5.68877">
        <ele>646.4</ele>
        <time>2022-07-16T07:58:19Z</time>
      </trkpt>
      <trkpt lat="44.91618" lon="5.68879">
        <ele>645.9</ele>
        <time>2022-07-16T07:58:20Z</time>
      </trkpt>
      <trkpt lat="44.91609" lon="5.6888">
        <ele>645.5</ele>
        <time>2022-07-16T07:58:21Z</time>
      </trkpt>
      <trkpt lat="44.91601" lon="5.6888">
        <ele>645.1</ele>
        <time>2022-07-16T07:58:22Z</time>
      </trkpt>
      <trkpt lat="44.91592" lon="5.68881">
        <ele>644.6</ele>
        <time>2022-07-16T07:58:23Z</time>
      </trkpt>
      <trkpt lat="44.91583" lon="5.68882">
        <ele>644.2</ele>
        <time>2022-07-16T07:58:24Z</time>
      </trkpt>
      <trkpt lat="44.91574" lon="5.68883">
        <ele>643.8</ele>
        <time>2022-07-16T07:58:25Z</time>
      </trkpt>
      <trkpt lat="44.91566" lon="5.68883">
        <ele>643.3</ele>
        <time>2022-07-16T07:58:26Z</time>
      </trkpt>
      <trkpt lat="44.91557" lon="5.68884">
        <ele>643</ele>
        <time>2022-07-16T07:58:27Z</time>
      </trkpt>
      <trkpt lat="44.91548" lon="5.68885">
        <ele>642.6</ele>
        <time>2022-07-16T07:58:28Z</time>
      </trkpt>
      <trkpt lat="44.9154" lon="5.68886">
        <ele>642.1</ele>
        <time>2022-07-16T07:58:29Z</time>
      </trkpt>
      <trkpt lat="44.91533" lon="5.68886">
        <ele>641.8</ele>
        <time>2022-07-16T07:58:30Z</time>
      </trkpt>
      <trkpt lat="44.91525" lon="5.68887">
        <ele>641.4</ele>
        <time>2022-07-16T07:58:31Z</time>
      </trkpt>
      <trkpt lat="44.91518" lon="5.68888">
        <ele>641.1</ele>
        <time>2022-07-16T07:58:32Z</time>
      </trkpt>
      <trkpt lat="44.9151" lon="5.68889">
        <ele>640.7</ele>
        <time>2022-07-16T07:58:33Z</time>
      </trkpt>
      <trkpt lat="44.91502" lon="5.68889">
        <ele>640.4</ele>
        <time>2022-07-16T07:58:34Z</time>
      </trkpt>
      <trkpt lat="44.91495" lon="5.6889">
        <ele>640.1</ele>
        <time>2022-07-16T07:58:35Z</time>
      </trkpt>
      <trkpt lat="44.91487" lon="5.68891">
        <ele>639.7</ele>
        <time>2022-07-16T07:58:36Z</time>
      </trkpt>
      <trkpt lat="44.91479" lon="5.68892">
        <ele>639.4</ele>
        <time>2022-07-16T07:58:37Z</time>
      </trkpt>
      <trkpt lat="44.91471" lon="5.68893">
        <ele>639</ele>
        <time>2022-07-16T07:58:38Z</time>
      </trkpt>
      <trkpt lat="44.91463" lon="5.68894">
        <ele>638.7</ele>
        <time>2022-07-16T07:58:39Z</time>
      </trkpt>
      <trkpt lat="44.91455" lon="5.68894">
        <ele>638.4</ele>
        <time>2022-07-16T07:58:40Z</time>
      </trkpt>
      <trkpt lat="44.91446" lon="5.68894">
        <ele>638</ele>
        <time>2022-07-16T07:58:41Z</time>
      </trkpt>
      <trkpt lat="44.91438" lon="5.68893">
        <ele>637.7</ele>
        <time>2022-07-16T07:58:42Z</time>
      </trkpt>
      <trkpt lat="44.9143" lon="5.68893">
        <ele>637.4</ele>
        <time>2022-07-16T07:58:43Z</time>
      </trkpt>
      <trkpt lat="44.91421" lon="5.68892">
        <ele>637</ele>
        <time>2022-07-16T07:58:44Z</time>
      </trkpt>
      <trkpt lat="44.91412" lon="5.68892">
        <ele>636.8</ele>
        <time>2022-07-16T07:58:45Z</time>
      </trkpt>
      <trkpt lat="44.91403" lon="5.68891">
        <ele>636.6</ele>
        <time>2022-07-16T07:58:46Z</time>
      </trkpt>
      <trkpt lat="44.91394" lon="5.68891">
        <ele>636.4</ele>
        <time>2022-07-16T07:58:47Z</time>
      </trkpt>
      <trkpt lat="44.91385" lon="5.68891">
        <ele>636.3</ele>
        <time>2022-07-16T07:58:48Z</time>
      </trkpt>
      <trkpt lat="44.91375" lon="5.68891">
        <ele>636</ele>
        <time>2022-07-16T07:58:49Z</time>
      </trkpt>
      <trkpt lat="44.91366" lon="5.68891">
        <ele>635.8</ele>
        <time>2022-07-16T07:58:50Z</time>
      </trkpt>
      <trkpt lat="44.91357" lon="5.68891">
        <ele>635.6</ele>
        <time>2022-07-16T07:58:51Z</time>
      </trkpt>
      <trkpt lat="44.91348" lon="5.68891">
        <ele>635.5</ele>
        <time>2022-07-16T07:58:52Z</time>
      </trkpt>
      <trkpt lat="44.91339" lon="5.6889">
        <ele>635.4</ele>
        <time>2022-07-16T07:58:53Z</time>
      </trkpt>
      <trkpt lat="44.9133" lon="5.68889">
        <ele>635.4</ele>
        <time>2022-07-16T07:58:54Z</time>
      </trkpt>
      <trkpt lat="44.91321" lon="5.68889">
        <ele>635.5</ele>
        <time>2022-07-16T07:58:55Z</time>
      </trkpt>
      <trkpt lat="44.91313" lon="5.68889">
        <ele>635.6</ele>
        <time>2022-07-16T07:58:56Z</time>
      </trkpt>
      <trkpt lat="44.91305" lon="5.68889">
        <ele>635.7</ele>
        <time>2022-07-16T07:58:57Z</time>
      </trkpt>
      <trkpt lat="44.91298" lon="5.68889">
        <ele>635.8</ele>
        <time>2022-07-16T07:58:58Z</time>
      </trkpt>
      <trkpt lat="44.91291" lon="5.68889">
        <ele>636</ele>
        <time>2022-07-16T07:58:59Z</time>
      </trkpt>
      <trkpt lat="44.91284" lon="5.6889">
        <ele>636.1</ele>
        <time>2022-07-16T07:59:00Z</time>
      </trkpt>
      <trkpt lat="44.91277" lon="5.68892">
        <ele>636.2</ele>
        <time>2022-07-16T07:59:01Z</time>
      </trkpt>
      <trkpt lat="44.91271" lon="5.68894">
        <ele>636.3</ele>
        <time>2022-07-16T07:59:02Z</time>
      </trkpt>
      <trkpt lat="44.91265" lon="5.68895">
        <ele>636.5</ele>
        <time>2022-07-16T07:59:03Z</time>
      </trkpt>
      <trkpt lat="44.91259" lon="5.68896">
        <ele>636.6</ele>
        <time>2022-07-16T07:59:04Z</time>
      </trkpt>
      <trkpt lat="44.91253" lon="5.68898">
        <ele>636.7</ele>
        <time>2022-07-16T07:59:05Z</time>
      </trkpt>
      <trkpt lat="44.91247" lon="5.689">
        <ele>636.9</ele>
        <time>2022-07-16T07:59:06Z</time>
      </trkpt>
      <trkpt lat="44.91241" lon="5.68902">
        <ele>637.1</ele>
        <time>2022-07-16T07:59:07Z</time>
      </trkpt>
      <trkpt lat="44.91235" lon="5.68904">
        <ele>637.2</ele>
        <time>2022-07-16T07:59:08Z</time>
      </trkpt>
      <trkpt lat="44.9123" lon="5.68906">
        <ele>637.4</ele>
        <time>2022-07-16T07:59:09Z</time>
      </trkpt>
      <trkpt lat="44.91224" lon="5.68909">
        <ele>637.5</ele>
        <time>2022-07-16T07:59:10Z</time>
      </trkpt>
      <trkpt lat="44.91218" lon="5.68911">
        <ele>637.6</ele>
        <time>2022-07-16T07:59:11Z</time>
      </trkpt>
      <trkpt lat="44.91213" lon="5.68913">
        <ele>637.8</ele>
        <time>2022-07-16T07:59:12Z</time>
      </trkpt>
      <trkpt lat="44.91208" lon="5.68915">
        <ele>637.9</ele>
        <time>2022-07-16T07:59:13Z</time>
      </trkpt>
      <trkpt lat="44.91202" lon="5.68918">
        <ele>638</ele>
        <time>2022-07-16T07:59:14Z</time>
      </trkpt>
      <trkpt lat="44.91197" lon="5.68921">
        <ele>638.2</ele>
        <time>2022-07-16T07:59:15Z</time>
      </trkpt>
      <trkpt lat="44.91191" lon="5.68923">
        <ele>638.3</ele>
        <time>2022-07-16T07:59:16Z</time>
      </trkpt>
      <trkpt lat="44.91186" lon="5.68926">
        <ele>638.4</ele>
        <time>2022-07-16T07:59:17Z</time>
      </trkpt>
      <trkpt lat="44.91181" lon="5.68928">
        <ele>638.6</ele>
        <time>2022-07-16T07:59:18Z</time>
      </trkpt>
      <trkpt lat="44.91176" lon="5.6893">
        <ele>638.7</ele>
        <time>2022-07-16T07:59:19Z</time>
      </trkpt>
      <trkpt lat="44.91171" lon="5.68933">
        <ele>638.9</ele>
        <time>2022-07-16T07:59:20Z</time>
      </trkpt>
      <trkpt lat="44.91166" lon="5.68936">
        <ele>639</ele>
        <time>2022-07-16T07:59:21Z</time>
      </trkpt>
      <trkpt lat="44.9116" lon="5.68939">
        <ele>639.2</ele>
        <time>2022-07-16T07:59:22Z</time>
      </trkpt>
      <trkpt lat="44.91155" lon="5.68941">
        <ele>639.3</ele>
        <time>2022-07-16T07:59:23Z</time>
      </trkpt>
      <trkpt lat="44.9115" lon="5.68944">
        <ele>639.5</ele>
        <time>2022-07-16T07:59:24Z</time>
      </trkpt>
      <trkpt lat="44.91145" lon="5.68946">
        <ele>639.6</ele>
        <time>2022-07-16T07:59:25Z</time>
      </trkpt>
      <trkpt lat="44.9114" lon="5.68948">
        <ele>639.7</ele>
        <time>2022-07-16T07:59:26Z</time>
      </trkpt>
      <trkpt lat="44.91135" lon="5.68951">
        <ele>639.9</ele>
        <time>2022-07-16T07:59:27Z</time>
      </trkpt>
      <trkpt lat="44.9113" lon="5.68953">
        <ele>640</ele>
        <time>2022-07-16T07:59:28Z</time>
      </trkpt>
      <trkpt lat="44.91125" lon="5.68955">
        <ele>640.2</ele>
        <time>2022-07-16T07:59:29Z</time>
      </trkpt>
      <trkpt lat="44.9112" lon="5.68957">
        <ele>640.3</ele>
        <time>2022-07-16T07:59:30Z</time>
      </trkpt>
      <trkpt lat="44.91115" lon="5.6896">
        <ele>640.4</ele>
        <time>2022-07-16T07:59:31Z</time>
      </trkpt>
      <trkpt lat="44.9111" lon="5.68963">
        <ele>640.6</ele>
        <time>2022-07-16T07:59:32Z</time>
      </trkpt>
      <trkpt lat="44.91106" lon="5.68966">
        <ele>640.7</ele>
        <time>2022-07-16T07:59:33Z</time>
      </trkpt>
      <trkpt lat="44.91101" lon="5.68968">
        <ele>640.8</ele>
        <time>2022-07-16T07:59:34Z</time>
      </trkpt>
      <trkpt lat="44.91096" lon="5.68971">
        <ele>641</ele>
        <time>2022-07-16T07:59:35Z</time>
      </trkpt>
      <trkpt lat="44.9109" lon="5.68973">
        <ele>641.1</ele>
        <time>2022-07-16T07:59:36Z</time>
      </trkpt>
      <trkpt lat="44.91085" lon="5.68975">
        <ele>641.2</ele>
        <time>2022-07-16T07:59:37Z</time>
      </trkpt>
      <trkpt lat="44.91081" lon="5.68977">
        <ele>641.3</ele>
        <time>2022-07-16T07:59:38Z</time>
      </trkpt>
      <trkpt lat="44.91076" lon="5.68979">
        <ele>641.4</ele>
        <time>2022-07-16T07:59:39Z</time>
      </trkpt>
      <trkpt lat="44.91071" lon="5.68981">
        <ele>641.5</ele>
        <time>2022-07-16T07:59:40Z</time>
      </trkpt>
      <trkpt lat="44.91066" lon="5.68984">
        <ele>641.6</ele>
        <time>2022-07-16T07:59:41Z</time>
      </trkpt>
      <trkpt lat="44.91062" lon="5.68987">
        <ele>641.8</ele>
        <time>2022-07-16T07:59:42Z</time>
      </trkpt>
      <trkpt lat="44.91057" lon="5.68989">
        <ele>641.9</ele>
        <time>2022-07-16T07:59:43Z</time>
      </trkpt>
      <trkpt lat="44.91053" lon="5.68991">
        <ele>642</ele>
        <time>2022-07-16T07:59:44Z</time>
      </trkpt>
      <trkpt lat="44.91049" lon="5.68993">
        <ele>642.2</ele>
        <time>2022-07-16T07:59:45Z</time>
      </trkpt>
      <trkpt lat="44.91044" lon="5.68996">
        <ele>642.3</ele>
        <time>2022-07-16T07:59:46Z</time>
      </trkpt>
      <trkpt lat="44.91039" lon="5.68999">
        <ele>642.5</ele>
        <time>2022-07-16T07:59:47Z</time>
      </trkpt>
      <trkpt lat="44.91034" lon="5.69001">
        <ele>642.6</ele>
        <time>2022-07-16T07:59:48Z</time>
      </trkpt>
      <trkpt lat="44.9103" lon="5.69003">
        <ele>642.8</ele>
        <time>2022-07-16T07:59:49Z</time>
      </trkpt>
      <trkpt lat="44.91025" lon="5.69005">
        <ele>642.9</ele>
        <time>2022-07-16T07:59:50Z</time>
      </trkpt>
      <trkpt lat="44.9102" lon="5.69007">
        <ele>643.1</ele>
        <time>2022-07-16T07:59:51Z</time>
      </trkpt>
      <trkpt lat="44.91016" lon="5.69009">
        <ele>643.3</ele>
        <time>2022-07-16T07:59:52Z</time>
      </trkpt>
      <trkpt lat="44.91011" lon="5.6901">
        <ele>643.5</ele>
        <time>2022-07-16T07:59:53Z</time>
      </trkpt>
      <trkpt lat="44.91006" lon="5.69012">
        <ele>643.6</ele>
        <time>2022-07-16T07:59:54Z</time>
      </trkpt>
      <trkpt lat="44.91002" lon="5.69014">
        <ele>643.8</ele>
        <time>2022-07-16T07:59:55Z</time>
      </trkpt>
      <trkpt lat="44.90997" lon="5.69016">
        <ele>644</ele>
        <time>2022-07-16T07:59:56Z</time>
      </trkpt>
      <trkpt lat="44.90993" lon="5.69018">
        <ele>644.2</ele>
        <time>2022-07-16T07:59:57Z</time>
      </trkpt>
      <trkpt lat="44.9099" lon="5.69019">
        <ele>644.3</ele>
        <time>2022-07-16T07:59:58Z</time>
      </trkpt>
      <trkpt lat="44.90986" lon="5.69021">
        <ele>644.4</ele>
        <time>2022-07-16T07:59:59Z</time>
      </trkpt>
      <trkpt lat="44.90981" lon="5.69024">
        <ele>644.6</ele>
        <time>2022-07-16T08:00:00Z</time>
      </trkpt>
      <trkpt lat="44.90977" lon="5.69026">
        <ele>644.7</ele>
        <time>2022-07-16T08:00:01Z</time>
      </trkpt>
      <trkpt lat="44.90972" lon="5.69028">
        <ele>644.9</ele>
        <time>2022-07-16T08:00:02Z</time>
      </trkpt>
      <trkpt lat="44.90968" lon="5.69031">
        <ele>645.1</ele>
        <time>2022-07-16T08:00:03Z</time>
      </trkpt>
      <trkpt lat="44.90972" lon="5.69034">
        <ele>645.2</ele>
        <time>2022-07-16T08:00:04Z</time>
      </trkpt>
      <trkpt lat="44.90963" lon="5.69035">
        <ele>645.6</ele>
        <time>2022-07-16T08:00:05Z</time>
      </trkpt>
      <trkpt lat="44.90956" lon="5.69037">
        <ele>645.8</ele>
        <time>2022-07-16T08:00:06Z</time>
      </trkpt>
      <trkpt lat="44.9095" lon="5.69039">
        <ele>646</ele>
        <time>2022-07-16T08:00:07Z</time>
      </trkpt>
      <trkpt lat="44.90942" lon="5.69042">
        <ele>646.3</ele>
        <time>2022-07-16T08:00:09Z</time>
      </trkpt>
      <trkpt lat="44.90934" lon="5.69046">
        <ele>646.5</ele>
        <time>2022-07-16T08:00:11Z</time>
      </trkpt>
      <trkpt lat="44.90926" lon="5.69051">
        <ele>646.8</ele>
        <time>2022-07-16T08:00:13Z</time>
      </trkpt>
      <trkpt lat="44.90917" lon="5.69054">
        <ele>647.1</ele>
        <time>2022-07-16T08:00:15Z</time>
      </trkpt>
      <trkpt lat="44.9091" lon="5.69058">
        <ele>647.4</ele>
        <time>2022-07-16T08:00:17Z</time>
      </trkpt>
      <trkpt lat="44.909" lon="5.69061">
        <ele>647.8</ele>
        <time>2022-07-16T08:00:19Z</time>
      </trkpt>
      <trkpt lat="44.90897" lon="5.69063">
        <ele>647.9</ele>
        <time>2022-07-16T08:00:20Z</time>
      </trkpt>
      <trkpt lat="44.90885" lon="5.69069">
        <ele>648.3</ele>
        <time>2022-07-16T08:00:23Z</time>
      </trkpt>
      <trkpt lat="44.9088" lon="5.69071">
        <ele>648.5</ele>
        <time>2022-07-16T08:00:24Z</time>
      </trkpt>
      <trkpt lat="44.90875" lon="5.69073">
        <ele>648.8</ele>
        <time>2022-07-16T08:00:25Z</time>
      </trkpt>
      <trkpt lat="44.90869" lon="5.69075">
        <ele>649</ele>
        <time>2022-07-16T08:00:26Z</time>
      </trkpt>
      <trkpt lat="44.90866" lon="5.69077">
        <ele>649.2</ele>
        <time>2022-07-16T08:00:28Z</time>
      </trkpt>
      <trkpt lat="44.90861" lon="5.69079">
        <ele>649.4</ele>
        <time>2022-07-16T08:00:29Z</time>
      </trkpt>
      <trkpt lat="44.90857" lon="5.6908">
        <ele>649.5</ele>
        <time>2022-07-16T08:00:30Z</time>
      </trkpt>
      <trkpt lat="44.90854" lon="5.6908">
        <ele>649.7</ele>
        <time>2022-07-16T08:00:31Z</time>
      </trkpt>
      <trkpt lat="44.9085" lon="5.69081">
        <ele>649.8</ele>
        <time>2022-07-16T08:00:32Z</time>
      </trkpt>
      <trkpt lat="44.90846" lon="5.69082">
        <ele>650</ele>
        <time>2022-07-16T08:00:33Z</time>
      </trkpt>
      <trkpt lat="44.90843" lon="5.69083">
        <ele>650.2</ele>
        <time>2022-07-16T08:00:34Z</time>
      </trkpt>
      <trkpt lat="44.90836" lon="5.69084">
        <ele>650.4</ele>
        <time>2022-07-16T08:00:36Z</time>
      </trkpt>
      <trkpt lat="44.90832" lon="5.69084">
        <ele>650.6</ele>
        <time>2022-07-16T08:00:37Z</time>
      </trkpt>
      <trkpt lat="44.90829" lon="5.69085">
        <ele>650.8</ele>
        <time>2022-07-16T08:00:38Z</time>
      </trkpt>
      <trkpt lat="44.90817" lon="5.69087">
        <ele>651.3</ele>
        <time>2022-07-16T08:00:41Z</time>
      </trkpt>
      <trkpt lat="44.90812" lon="5.69087">
        <ele>651.5</ele>
        <time>2022-07-16T08:00:42Z</time>
      </trkpt>
      <trkpt lat="44.90804" lon="5.69086">
        <ele>651.9</ele>
        <time>2022-07-16T08:00:44Z</time>
      </trkpt>
      <trkpt lat="44.908" lon="5.69087">
        <ele>652.1</ele>
        <time>2022-07-16T08:00:45Z</time>
      </trkpt>
      <trkpt lat="44.90795" lon="5.69088">
        <ele>652.3</ele>
        <time>2022-07-16T08:00:46Z</time>
      </trkpt>
      <trkpt lat="44.90789" lon="5.69091">
        <ele>652.6</ele>
        <time>2022-07-16T08:00:48Z</time>
      </trkpt>
      <trkpt lat="44.90786" lon="5.69092">
        <ele>652.7</ele>
        <time>2022-07-16T08:00:49Z</time>
      </trkpt>
      <trkpt lat="44.90781" lon="5.69093">
        <ele>653</ele>
        <time>2022-07-16T08:00:50Z</time>
      </trkpt>
      <trkpt lat="44.90775" lon="5.69093">
        <ele>653.3</ele>
        <time>2022-07-16T08:00:52Z</time>
      </trkpt>
      <trkpt lat="44.90769" lon="5.69094">
        <ele>653.6</ele>
        <time>2022-07-16T08:00:53Z</time>
      </trkpt>
      <trkpt lat="44.90766" lon="5.69094">
        <ele>653.7</ele>
        <time>2022-07-16T08:00:55Z</time>
      </trkpt>
      <trkpt lat="44.90762" lon="5.69094">
        <ele>653.9</ele>
        <time>2022-07-16T08:00:56Z</time>
      </trkpt>
      <trkpt lat="44.90758" lon="5.69094">
        <ele>654.1</ele>
        <time>2022-07-16T08:00:57Z</time>
      </trkpt>
      <trkpt lat="44.90753" lon="5.69094">
        <ele>654.3</ele>
        <time>2022-07-16T08:00:58Z</time>
      </trkpt>
      <trkpt lat="44.90748" lon="5.69094">
        <ele>654.5</ele>
        <time>2022-07-16T08:00:59Z</time>
      </trkpt>
      <trkpt lat="44.90745" lon="5.69095">
        <ele>654.6</ele>
        <time>2022-07-16T08:01:00Z</time>
      </trkpt>
      <trkpt lat="44.90741" lon="5.69096">
        <ele>654.8</ele>
        <time>2022-07-16T08:01:01Z</time>
      </trkpt>
      <trkpt lat="44.90734" lon="5.69097">
        <ele>655.1</ele>
        <time>2022-07-16T08:01:03Z</time>
      </trkpt>
      <trkpt lat="44.90729" lon="5.69096">
        <ele>655.3</ele>
        <time>2022-07-16T08:01:04Z</time>
      </trkpt>
      <trkpt lat="44.90727" lon="5.69096">
        <ele>655.4</ele>
        <time>2022-07-16T08:01:05Z</time>
      </trkpt>
      <trkpt lat="44.90719" lon="5.69096">
        <ele>655.7</ele>
        <time>2022-07-16T08:01:07Z</time>
      </trkpt>
      <trkpt lat="44.90716" lon="5.69096">
        <ele>655.9</ele>
        <time>2022-07-16T08:01:08Z</time>
      </trkpt>
      <trkpt lat="44.90715" lon="5.69096">
        <ele>655.9</ele>
        <time>2022-07-16T08:01:09Z</time>
      </trkpt>
      <trkpt lat="44.9071" lon="5.69095">
        <ele>656.2</ele>
        <time>2022-07-16T08:01:11Z</time>
      </trkpt>
      <trkpt lat="44.90703" lon="5.69096">
        <ele>656.4</ele>
        <time>2022-07-16T08:01:13Z</time>
      </trkpt>
      <trkpt lat="44.90696" lon="5.69096">
        <ele>656.8</ele>
        <time>2022-07-16T08:01:15Z</time>
      </trkpt>
      <trkpt lat="44.90692" lon="5.69096">
        <ele>656.9</ele>
        <time>2022-07-16T08:01:16Z</time>
      </trkpt>
      <trkpt lat="44.90688" lon="5.69095">
        <ele>657.1</ele>
        <time>2022-07-16T08:01:17Z</time>
      </trkpt>
      <trkpt lat="44.9068" lon="5.69095">
        <ele>657.4</ele>
        <time>2022-07-16T08:01:19Z</time>
      </trkpt>
      <trkpt lat="44.90677" lon="5.69094">
        <ele>657.6</ele>
        <time>2022-07-16T08:01:20Z</time>
      </trkpt>
      <trkpt lat="44.90673" lon="5.69094">
        <ele>657.7</ele>
        <time>2022-07-16T08:01:21Z</time>
      </trkpt>
      <trkpt lat="44.90666" lon="5.69094">
        <ele>658</ele>
        <time>2022-07-16T08:01:23Z</time>
      </trkpt>
      <trkpt lat="44.90662" lon="5.69093">
        <ele>658.2</ele>
        <time>2022-07-16T08:01:24Z</time>
      </trkpt>
      <trkpt lat="44.90658" lon="5.69093">
        <ele>658.3</ele>
        <time>2022-07-16T08:01:25Z</time>
      </trkpt>
      <trkpt lat="44.90653" lon="5.69093">
        <ele>658.6</ele>
        <time>2022-07-16T08:01:26Z</time>
      </trkpt>
      <trkpt lat="44.90648" lon="5.69093">
        <ele>658.8</ele>
        <time>2022-07-16T08:01:28Z</time>
      </trkpt>
      <trkpt lat="44.90642" lon="5.69093">
        <ele>659.1</ele>
        <time>2022-07-16T08:01:30Z</time>
      </trkpt>
      <trkpt lat="44.90637" lon="5.69093">
        <ele>659.3</ele>
        <time>2022-07-16T08:01:31Z</time>
      </trkpt>
      <trkpt lat="44.90631" lon="5.69091">
        <ele>659.5</ele>
        <time>2022-07-16T08:01:32Z</time>
      </trkpt>
      <trkpt lat="44.90626" lon="5.69091">
        <ele>659.8</ele>
        <time>2022-07-16T08:01:34Z</time>
      </trkpt>
      <trkpt lat="44.90619" lon="5.69089">
        <ele>660</ele>
        <time>2022-07-16T08:01:36Z</time>
      </trkpt>
      <trkpt lat="44.90615" lon="5.6909">
        <ele>660.2</ele>
        <time>2022-07-16T08:01:37Z</time>
      </trkpt>
      <trkpt lat="44.90611" lon="5.6909">
        <ele>660.4</ele>
        <time>2022-07-16T08:01:38Z</time>
      </trkpt>
      <trkpt lat="44.90603" lon="5.69088">
        <ele>660.7</ele>
        <time>2022-07-16T08:01:39Z</time>
      </trkpt>
      <trkpt lat="44.90598" lon="5.69088">
        <ele>660.9</ele>
        <time>2022-07-16T08:01:41Z</time>
      </trkpt>
      <trkpt lat="44.90593" lon="5.69088">
        <ele>661</ele>
        <time>2022-07-16T08:01:42Z</time>
      </trkpt>
      <trkpt lat="44.90586" lon="5.69088">
        <ele>661.3</ele>
        <time>2022-07-16T08:01:43Z</time>
      </trkpt>
      <trkpt lat="44.90581" lon="5.69087">
        <ele>661.5</ele>
        <time>2022-07-16T08:01:45Z</time>
      </trkpt>
      <trkpt lat="44.90572" lon="5.69089">
        <ele>661.9</ele>
        <time>2022-07-16T08:01:47Z</time>
      </trkpt>
      <trkpt lat="44.9057" lon="5.69089">
        <ele>662</ele>
        <time>2022-07-16T08:01:48Z</time>
      </trkpt>
      <trkpt lat="44.90563" lon="5.6909">
        <ele>662.3</ele>
        <time>2022-07-16T08:01:50Z</time>
      </trkpt>
      <trkpt lat="44.9056" lon="5.6909">
        <ele>662.4</ele>
        <time>2022-07-16T08:01:51Z</time>
      </trkpt>
      <trkpt lat="44.90552" lon="5.6909">
        <ele>662.7</ele>
        <time>2022-07-16T08:01:53Z</time>
      </trkpt>
      <trkpt lat="44.90549" lon="5.6909">
        <ele>662.8</ele>
        <time>2022-07-16T08:01:54Z</time>
      </trkpt>
      <trkpt lat="44.90545" lon="5.6909">
        <ele>663</ele>
        <time>2022-07-16T08:01:55Z</time>
      </trkpt>
      <trkpt lat="44.9054" lon="5.69091">
        <ele>663.2</ele>
        <time>2022-07-16T08:01:56Z</time>
      </trkpt>
      <trkpt lat="44.90533" lon="5.69092">
        <ele>663.5</ele>
        <time>2022-07-16T08:01:58Z</time>
      </trkpt>
      <trkpt lat="44.9053" lon="5.69092">
        <ele>663.6</ele>
        <time>2022-07-16T08:01:59Z</time>
      </trkpt>
      <trkpt lat="44.90527" lon="5.69093">
        <ele>663.8</ele>
        <time>2022-07-16T08:02:00Z</time>
      </trkpt>
      <trkpt lat="44.90523" lon="5.69094">
        <ele>663.9</ele>
        <time>2022-07-16T08:02:01Z</time>
      </trkpt>
      <trkpt lat="44.90515" lon="5.69096">
        <ele>664.2</ele>
        <time>2022-07-16T08:02:03Z</time>
      </trkpt>
      <trkpt lat="44.90512" lon="5.69097">
        <ele>664.4</ele>
        <time>2022-07-16T08:02:04Z</time>
      </trkpt>
      <trkpt lat="44.90505" lon="5.69097">
        <ele>664.7</ele>
        <time>2022-07-16T08:02:06Z</time>
      </trkpt>
      <trkpt lat="44.90498" lon="5.69099">
        <ele>665</ele>
        <time>2022-07-16T08:02:08Z</time>
      </trkpt>
      <trkpt lat="44.90494" lon="5.69099">
        <ele>665.2</ele>
        <time>2022-07-16T08:02:09Z</time>
      </trkpt>
      <trkpt lat="44.90493" lon="5.691">
        <ele>665.2</ele>
        <time>2022-07-16T08:02:10Z</time>
      </trkpt>
      <trkpt lat="44.9049" lon="5.69101">
        <ele>665.3</ele>
        <time>2022-07-16T08:02:11Z</time>
      </trkpt>
      <trkpt lat="44.90487" lon="5.69101">
        <ele>665.5</ele>
        <time>2022-07-16T08:02:12Z</time>
      </trkpt>
      <trkpt lat="44.90479" lon="5.69102">
        <ele>665.8</ele>
        <time>2022-07-16T08:02:14Z</time>
      </trkpt>
      <trkpt lat="44.90472" lon="5.69103">
        <ele>666</ele>
        <time>2022-07-16T08:02:15Z</time>
      </trkpt>
      <trkpt lat="44.90468" lon="5.69104">
        <ele>666.2</ele>
        <time>2022-07-16T08:02:17Z</time>
      </trkpt>
      <trkpt lat="44.90463" lon="5.69104">
        <ele>666.3</ele>
        <time>2022-07-16T08:02:18Z</time>
      </trkpt>
      <trkpt lat="44.9046" lon="5.69105">
        <ele>666.4</ele>
        <time>2022-07-16T08:02:19Z</time>
      </trkpt>
      <trkpt lat="44.90457" lon="5.69106">
        <ele>666.6</ele>
        <time>2022-07-16T08:02:20Z</time>
      </trkpt>
      <trkpt lat="44.90454" lon="5.69106">
        <ele>666.7</ele>
        <time>2022-07-16T08:02:21Z</time>
      </trkpt>
      <trkpt lat="44.90449" lon="5.69108">
        <ele>666.8</ele>
        <time>2022-07-16T08:02:22Z</time>
      </trkpt>
      <trkpt lat="44.90446" lon="5.69109">
        <ele>667</ele>
        <time>2022-07-16T08:02:23Z</time>
      </trkpt>
      <trkpt lat="44.90439" lon="5.69111">
        <ele>667.2</ele>
        <time>2022-07-16T08:02:25Z</time>
      </trkpt>
      <trkpt lat="44.90431" lon="5.69112">
        <ele>667.5</ele>
        <time>2022-07-16T08:02:27Z</time>
      </trkpt>
      <trkpt lat="44.90426" lon="5.69112">
        <ele>667.6</ele>
        <time>2022-07-16T08:02:28Z</time>
      </trkpt>
      <trkpt lat="44.90422" lon="5.69114">
        <ele>667.8</ele>
        <time>2022-07-16T08:02:29Z</time>
      </trkpt>
      <trkpt lat="44.90419" lon="5.69113">
        <ele>667.9</ele>
        <time>2022-07-16T08:02:30Z</time>
      </trkpt>
      <trkpt lat="44.90414" lon="5.69114">
        <ele>668</ele>
        <time>2022-07-16T08:02:31Z</time>
      </trkpt>
      <trkpt lat="44.90409" lon="5.69115">
        <ele>668.2</ele>
        <time>2022-07-16T08:02:32Z</time>
      </trkpt>
      <trkpt lat="44.90405" lon="5.69116">
        <ele>668.3</ele>
        <time>2022-07-16T08:02:33Z</time>
      </trkpt>
      <trkpt lat="44.90396" lon="5.69117">
        <ele>668.5</ele>
        <time>2022-07-16T08:02:35Z</time>
      </trkpt>
      <trkpt lat="44.90391" lon="5.69119">
        <ele>668.7</ele>
        <time>2022-07-16T08:02:36Z</time>
      </trkpt>
      <trkpt lat="44.90384" lon="5.6912">
        <ele>668.9</ele>
        <time>2022-07-16T08:02:39Z</time>
      </trkpt>
      <trkpt lat="44.9038" lon="5.69121">
        <ele>669</ele>
        <time>2022-07-16T08:02:40Z</time>
      </trkpt>
      <trkpt lat="44.90376" lon="5.69122">
        <ele>669.1</ele>
        <time>2022-07-16T08:02:41Z</time>
      </trkpt>
      <trkpt lat="44.90373" lon="5.69123">
        <ele>669.3</ele>
        <time>2022-07-16T08:02:42Z</time>
      </trkpt>
      <trkpt lat="44.90369" lon="5.69124">
        <ele>669.4</ele>
        <time>2022-07-16T08:02:43Z</time>
      </trkpt>
      <trkpt lat="44.90365" lon="5.69126">
        <ele>669.5</ele>
        <time>2022-07-16T08:02:44Z</time>
      </trkpt>
      <trkpt lat="44.90361" lon="5.69127">
        <ele>669.7</ele>
        <time>2022-07-16T08:02:45Z</time>
      </trkpt>
      <trkpt lat="44.90357" lon="5.69129">
        <ele>669.8</ele>
        <time>2022-07-16T08:02:46Z</time>
      </trkpt>
      <trkpt lat="44.90353" lon="5.69131">
        <ele>669.9</ele>
        <time>2022-07-16T08:02:47Z</time>
      </trkpt>
      <trkpt lat="44.90349" lon="5.69133">
        <ele>670.1</ele>
        <time>2022-07-16T08:02:48Z</time>
      </trkpt>
      <trkpt lat="44.90344" lon="5.69135">
        <ele>670.2</ele>
        <time>2022-07-16T08:02:49Z</time>
      </trkpt>
      <trkpt lat="44.9034" lon="5.69137">
        <ele>670.4</ele>
        <time>2022-07-16T08:02:50Z</time>
      </trkpt>
      <trkpt lat="44.90336" lon="5.69139">
        <ele>670.5</ele>
        <time>2022-07-16T08:02:51Z</time>
      </trkpt>
      <trkpt lat="44.90331" lon="5.69142">
        <ele>670.7</ele>
        <time>2022-07-16T08:02:52Z</time>
      </trkpt>
      <trkpt lat="44.90326" lon="5.69144">
        <ele>670.8</ele>
        <time>2022-07-16T08:02:53Z</time>
      </trkpt>
      <trkpt lat="44.90322" lon="5.69147">
        <ele>671</ele>
        <time>2022-07-16T08:02:54Z</time>
      </trkpt>
      <trkpt lat="44.90318" lon="5.69149">
        <ele>671.1</ele>
        <time>2022-07-16T08:02:55Z</time>
      </trkpt>
      <trkpt lat="44.90313" lon="5.69151">
        <ele>671.3</ele>
        <time>2022-07-16T08:02:56Z</time>
      </trkpt>
      <trkpt lat="44.90309" lon="5.69153">
        <ele>671.4</ele>
        <time>2022-07-16T08:02:57Z</time>
      </trkpt>
      <trkpt lat="44.90305" lon="5.69156">
        <ele>671.6</ele>
        <time>2022-07-16T08:02:58Z</time>
      </trkpt>
      <trkpt lat="44.90302" lon="5.69157">
        <ele>671.7</ele>
        <time>2022-07-16T08:02:59Z</time>
      </trkpt>
      <trkpt lat="44.90297" lon="5.6916">
        <ele>671.9</ele>
        <time>2022-07-16T08:03:00Z</time>
      </trkpt>
      <trkpt lat="44.90294" lon="5.69162">
        <ele>672</ele>
        <time>2022-07-16T08:03:01Z</time>
      </trkpt>
      <trkpt lat="44.9029" lon="5.69164">
        <ele>672.1</ele>
        <time>2022-07-16T08:03:02Z</time>
      </trkpt>
      <trkpt lat="44.90286" lon="5.69165">
        <ele>672.3</ele>
        <time>2022-07-16T08:03:03Z</time>
      </trkpt>
      <trkpt lat="44.90282" lon="5.69166">
        <ele>672.4</ele>
        <time>2022-07-16T08:03:04Z</time>
      </trkpt>
      <trkpt lat="44.90278" lon="5.69168">
        <ele>672.6</ele>
        <time>2022-07-16T08:03:05Z</time>
      </trkpt>
      <trkpt lat="44.90274" lon="5.6917">
        <ele>672.7</ele>
        <time>2022-07-16T08:03:06Z</time>
      </trkpt>
      <trkpt lat="44.90271" lon="5.69172">
        <ele>672.8</ele>
        <time>2022-07-16T08:03:07Z</time>
      </trkpt>
      <trkpt lat="44.90266" lon="5.69175">
        <ele>673</ele>
        <time>2022-07-16T08:03:08Z</time>
      </trkpt>
      <trkpt lat="44.90262" lon="5.69177">
        <ele>673.1</ele>
        <time>2022-07-16T08:03:09Z</time>
      </trkpt>
      <trkpt lat="44.90258" lon="5.69179">
        <ele>673.3</ele>
        <time>2022-07-16T08:03:10Z</time>
      </trkpt>
      <trkpt lat="44.90254" lon="5.69181">
        <ele>673.4</ele>
        <time>2022-07-16T08:03:11Z</time>
      </trkpt>
      <trkpt lat="44.9025" lon="5.69184">
        <ele>673.5</ele>
        <time>2022-07-16T08:03:12Z</time>
      </trkpt>
      <trkpt lat="44.90246" lon="5.69186">
        <ele>673.6</ele>
        <time>2022-07-16T08:03:13Z</time>
      </trkpt>
      <trkpt lat="44.90242" lon="5.69188">
        <ele>673.8</ele>
        <time>2022-07-16T08:03:14Z</time>
      </trkpt>
      <trkpt lat="44.90237" lon="5.69191">
        <ele>673.9</ele>
        <time>2022-07-16T08:03:15Z</time>
      </trkpt>
      <trkpt lat="44.90232" lon="5.69193">
        <ele>674.1</ele>
        <time>2022-07-16T08:03:16Z</time>
      </trkpt>
      <trkpt lat="44.90228" lon="5.69196">
        <ele>674.2</ele>
        <time>2022-07-16T08:03:17Z</time>
      </trkpt>
      <trkpt lat="44.90223" lon="5.69198">
        <ele>674.4</ele>
        <time>2022-07-16T08:03:18Z</time>
      </trkpt>
      <trkpt lat="44.90219" lon="5.692">
        <ele>674.5</ele>
        <time>2022-07-16T08:03:19Z</time>
      </trkpt>
      <trkpt lat="44.90215" lon="5.69202">
        <ele>674.7</ele>
        <time>2022-07-16T08:03:20Z</time>
      </trkpt>
      <trkpt lat="44.90211" lon="5.69204">
        <ele>674.8</ele>
        <time>2022-07-16T08:03:21Z</time>
      </trkpt>
      <trkpt lat="44.90209" lon="5.69205">
        <ele>674.9</ele>
        <time>2022-07-16T08:03:22Z</time>
      </trkpt>
      <trkpt lat="44.90203" lon="5.69208">
        <ele>675.1</ele>
        <time>2022-07-16T08:03:23Z</time>
      </trkpt>
      <trkpt lat="44.90199" lon="5.69211">
        <ele>675.2</ele>
        <time>2022-07-16T08:03:24Z</time>
      </trkpt>
      <trkpt lat="44.90196" lon="5.69213">
        <ele>675.3</ele>
        <time>2022-07-16T08:03:25Z</time>
      </trkpt>
      <trkpt lat="44.90191" lon="5.69215">
        <ele>675.5</ele>
        <time>2022-07-16T08:03:26Z</time>
      </trkpt>
      <trkpt lat="44.90187" lon="5.69217">
        <ele>675.6</ele>
        <time>2022-07-16T08:03:27Z</time>
      </trkpt>
      <trkpt lat="44.90183" lon="5.69219">
        <ele>675.7</ele>
        <time>2022-07-16T08:03:28Z</time>
      </trkpt>
      <trkpt lat="44.90179" lon="5.69221">
        <ele>675.9</ele>
        <time>2022-07-16T08:03:29Z</time>
      </trkpt>
      <trkpt lat="44.90174" lon="5.69223">
        <ele>676</ele>
        <time>2022-07-16T08:03:30Z</time>
      </trkpt>
      <trkpt lat="44.90169" lon="5.69226">
        <ele>676.2</ele>
        <time>2022-07-16T08:03:31Z</time>
      </trkpt>
      <trkpt lat="44.90165" lon="5.69228">
        <ele>676.3</ele>
        <time>2022-07-16T08:03:32Z</time>
      </trkpt>
      <trkpt lat="44.9016" lon="5.69229">
        <ele>676.5</ele>
        <time>2022-07-16T08:03:33Z</time>
      </trkpt>
      <trkpt lat="44.90156" lon="5.69231">
        <ele>676.7</ele>
        <time>2022-07-16T08:03:34Z</time>
      </trkpt>
      <trkpt lat="44.90151" lon="5.69233">
        <ele>676.8</ele>
        <time>2022-07-16T08:03:35Z</time>
      </trkpt>
      <trkpt lat="44.90148" lon="5.69233">
        <ele>676.9</ele>
        <time>2022-07-16T08:03:36Z</time>
      </trkpt>
      <trkpt lat="44.90143" lon="5.69235">
        <ele>677.1</ele>
        <time>2022-07-16T08:03:37Z</time>
      </trkpt>
      <trkpt lat="44.9014" lon="5.69235">
        <ele>677.2</ele>
        <time>2022-07-16T08:03:38Z</time>
      </trkpt>
      <trkpt lat="44.90135" lon="5.69236">
        <ele>677.4</ele>
        <time>2022-07-16T08:03:39Z</time>
      </trkpt>
      <trkpt lat="44.90131" lon="5.69237">
        <ele>677.5</ele>
        <time>2022-07-16T08:03:40Z</time>
      </trkpt>
      <trkpt lat="44.90127" lon="5.69238">
        <ele>677.7</ele>
        <time>2022-07-16T08:03:41Z</time>
      </trkpt>
      <trkpt lat="44.90122" lon="5.69239">
        <ele>677.9</ele>
        <time>2022-07-16T08:03:42Z</time>
      </trkpt>
      <trkpt lat="44.90118" lon="5.69241">
        <ele>678</ele>
        <time>2022-07-16T08:03:43Z</time>
      </trkpt>
      <trkpt lat="44.90114" lon="5.69241">
        <ele>678.2</ele>
        <time>2022-07-16T08:03:44Z</time>
      </trkpt>
      <trkpt lat="44.90109" lon="5.69242">
        <ele>678.4</ele>
        <time>2022-07-16T08:03:45Z</time>
      </trkpt>
      <trkpt lat="44.90105" lon="5.69243">
        <ele>678.5</ele>
        <time>2022-07-16T08:03:46Z</time>
      </trkpt>
      <trkpt lat="44.90101" lon="5.69244">
        <ele>678.7</ele>
        <time>2022-07-16T08:03:47Z</time>
      </trkpt>
      <trkpt lat="44.90097" lon="5.69245">
        <ele>678.9</ele>
        <time>2022-07-16T08:03:48Z</time>
      </trkpt>
      <trkpt lat="44.90093" lon="5.69245">
        <ele>679</ele>
        <time>2022-07-16T08:03:49Z</time>
      </trkpt>
      <trkpt lat="44.90088" lon="5.69246">
        <ele>679.2</ele>
        <time>2022-07-16T08:03:50Z</time>
      </trkpt>
      <trkpt lat="44.90084" lon="5.69247">
        <ele>679.3</ele>
        <time>2022-07-16T08:03:51Z</time>
      </trkpt>
      <trkpt lat="44.9008" lon="5.69248">
        <ele>679.5</ele>
        <time>2022-07-16T08:03:52Z</time>
      </trkpt>
      <trkpt lat="44.90076" lon="5.69249">
        <ele>679.6</ele>
        <time>2022-07-16T08:03:53Z</time>
      </trkpt>
      <trkpt lat="44.90072" lon="5.6925">
        <ele>679.7</ele>
        <time>2022-07-16T08:03:54Z</time>
      </trkpt>
      <trkpt lat="44.90068" lon="5.6925">
        <ele>679.7</ele>
        <time>2022-07-16T08:03:55Z</time>
      </trkpt>
      <trkpt lat="44.90064" lon="5.69251">
        <ele>679.8</ele>
        <time>2022-07-16T08:03:56Z</time>
      </trkpt>
      <trkpt lat="44.9006" lon="5.69252">
        <ele>679.8</ele>
        <time>2022-07-16T08:03:57Z</time>
      </trkpt>
      <trkpt lat="44.90056" lon="5.69253">
        <ele>679.8</ele>
        <time>2022-07-16T08:03:58Z</time>
      </trkpt>
      <trkpt lat="44.90051" lon="5.69254">
        <ele>679.9</ele>
        <time>2022-07-16T08:03:59Z</time>
      </trkpt>
      <trkpt lat="44.90047" lon="5.69255">
        <ele>679.9</ele>
        <time>2022-07-16T08:04:00Z</time>
      </trkpt>
      <trkpt lat="44.90041" lon="5.69257">
        <ele>679.9</ele>
        <time>2022-07-16T08:04:01Z</time>
      </trkpt>
      <trkpt lat="44.90036" lon="5.69258">
        <ele>679.8</ele>
        <time>2022-07-16T08:04:02Z</time>
      </trkpt>
      <trkpt lat="44.90031" lon="5.69259">
        <ele>679.8</ele>
        <time>2022-07-16T08:04:03Z</time>
      </trkpt>
      <trkpt lat="44.90025" lon="5.6926">
        <ele>679.8</ele>
        <time>2022-07-16T08:04:04Z</time>
      </trkpt>
      <trkpt lat="44.9002" lon="5.69261">
        <ele>679.8</ele>
        <time>2022-07-16T08:04:05Z</time>
      </trkpt>
      <trkpt lat="44.90015" lon="5.69262">
        <ele>679.8</ele>
        <time>2022-07-16T08:04:06Z</time>
      </trkpt>
      <trkpt lat="44.90009" lon="5.69263">
        <ele>679.9</ele>
        <time>2022-07-16T08:04:07Z</time>
      </trkpt>
      <trkpt lat="44.90003" lon="5.69265">
        <ele>679.9</ele>
        <time>2022-07-16T08:04:08Z</time>
      </trkpt>
      <trkpt lat="44.89998" lon="5.69266">
        <ele>680</ele>
        <time>2022-07-16T08:04:09Z</time>
      </trkpt>
      <trkpt lat="44.89993" lon="5.69267">
        <ele>680.1</ele>
        <time>2022-07-16T08:04:10Z</time>
      </trkpt>
      <trkpt lat="44.89988" lon="5.69269">
        <ele>680.1</ele>
        <time>2022-07-16T08:04:11Z</time>
      </trkpt>
      <trkpt lat="44.89984" lon="5.69269">
        <ele>680.2</ele>
        <time>2022-07-16T08:04:12Z</time>
      </trkpt>
      <trkpt lat="44.89979" lon="5.6927">
        <ele>680.3</ele>
        <time>2022-07-16T08:04:13Z</time>
      </trkpt>
      <trkpt lat="44.89974" lon="5.69271">
        <ele>680.3</ele>
        <time>2022-07-16T08:04:14Z</time>
      </trkpt>
      <trkpt lat="44.89969" lon="5.69273">
        <ele>680.4</ele>
        <time>2022-07-16T08:04:15Z</time>
      </trkpt>
      <trkpt lat="44.89964" lon="5.69274">
        <ele>680.5</ele>
        <time>2022-07-16T08:04:16Z</time>
      </trkpt>
      <trkpt lat="44.89959" lon="5.69276">
        <ele>680.6</ele>
        <time>2022-07-16T08:04:17Z</time>
      </trkpt>
      <trkpt lat="44.89954" lon="5.69277">
        <ele>680.8</ele>
        <time>2022-07-16T08:04:18Z</time>
      </trkpt>
      <trkpt lat="44.89949" lon="5.69279">
        <ele>680.9</ele>
        <time>2022-07-16T08:04:19Z</time>
      </trkpt>
      <trkpt lat="44.89944" lon="5.6928">
        <ele>681.1</ele>
        <time>2022-07-16T08:04:20Z</time>
      </trkpt>
      <trkpt lat="44.89939" lon="5.69282">
        <ele>681.2</ele>
        <time>2022-07-16T08:04:21Z</time>
      </trkpt>
      <trkpt lat="44.89935" lon="5.69284">
        <ele>681.4</ele>
        <time>2022-07-16T08:04:22Z</time>
      </trkpt>
      <trkpt lat="44.8993" lon="5.69285">
        <ele>681.5</ele>
        <time>2022-07-16T08:04:23Z</time>
      </trkpt>
      <trkpt lat="44.89926" lon="5.69287">
        <ele>681.7</ele>
        <time>2022-07-16T08:04:24Z</time>
      </trkpt>
      <trkpt lat="44.89922" lon="5.69288">
        <ele>681.9</ele>
        <time>2022-07-16T08:04:25Z</time>
      </trkpt>
      <trkpt lat="44.89918" lon="5.69289">
        <ele>682</ele>
        <time>2022-07-16T08:04:26Z</time>
      </trkpt>
      <trkpt lat="44.89915" lon="5.6929">
        <ele>682.1</ele>
        <time>2022-07-16T08:04:27Z</time>
      </trkpt>
      <trkpt lat="44.89911" lon="5.69292">
        <ele>682.3</ele>
        <time>2022-07-16T08:04:28Z</time>
      </trkpt>
      <trkpt lat="44.89907" lon="5.69293">
        <ele>682.4</ele>
        <time>2022-07-16T08:04:29Z</time>
      </trkpt>
      <trkpt lat="44.89903" lon="5.69295">
        <ele>682.6</ele>
        <time>2022-07-16T08:04:30Z</time>
      </trkpt>
      <trkpt lat="44.899" lon="5.69297">
        <ele>682.8</ele>
        <time>2022-07-16T08:04:31Z</time>
      </trkpt>
      <trkpt lat="44.89896" lon="5.69299">
        <ele>682.9</ele>
        <time>2022-07-16T08:04:32Z</time>
      </trkpt>
      <trkpt lat="44.89892" lon="5.693">
        <ele>683.1</ele>
        <time>2022-07-16T08:04:33Z</time>
      </trkpt>
      <trkpt lat="44.89888" lon="5.69302">
        <ele>683.3</ele>
        <time>2022-07-16T08:04:34Z</time>
      </trkpt>
      <trkpt lat="44.89885" lon="5.69303">
        <ele>683.5</ele>
        <time>2022-07-16T08:04:35Z</time>
      </trkpt>
      <trkpt lat="44.89881" lon="5.69305">
        <ele>683.7</ele>
        <time>2022-07-16T08:04:36Z</time>
      </trkpt>
      <trkpt lat="44.89878" lon="5.69306">
        <ele>683.9</ele>
        <time>2022-07-16T08:04:37Z</time>
      </trkpt>
      <trkpt lat="44.89874" lon="5.69307">
        <ele>684.1</ele>
        <time>2022-07-16T08:04:38Z</time>
      </trkpt>
      <trkpt lat="44.89871" lon="5.69309">
        <ele>684.3</ele>
        <time>2022-07-16T08:04:39Z</time>
      </trkpt>
      <trkpt lat="44.89868" lon="5.6931">
        <ele>684.5</ele>
        <time>2022-07-16T08:04:40Z</time>
      </trkpt>
      <trkpt lat="44.89864" lon="5.69311">
        <ele>684.7</ele>
        <time>2022-07-16T08:04:41Z</time>
      </trkpt>
      <trkpt lat="44.8986" lon="5.69313">
        <ele>684.9</ele>
        <time>2022-07-16T08:04:42Z</time>
      </trkpt>
      <trkpt lat="44.89857" lon="5.69315">
        <ele>685.2</ele>
        <time>2022-07-16T08:04:43Z</time>
      </trkpt>
      <trkpt lat="44.89853" lon="5.69317">
        <ele>685.4</ele>
        <time>2022-07-16T08:04:44Z</time>
      </trkpt>
      <trkpt lat="44.89849" lon="5.69319">
        <ele>685.6</ele>
        <time>2022-07-16T08:04:45Z</time>
      </trkpt>
      <trkpt lat="44.89845" lon="5.69322">
        <ele>685.9</ele>
        <time>2022-07-16T08:04:46Z</time>
      </trkpt>
      <trkpt lat="44.89842" lon="5.69324">
        <ele>686.1</ele>
        <time>2022-07-16T08:04:47Z</time>
      </trkpt>
      <trkpt lat="44.89838" lon="5.69327">
        <ele>686.4</ele>
        <time>2022-07-16T08:04:48Z</time>
      </trkpt>
      <trkpt lat="44.89835" lon="5.69329">
        <ele>686.6</ele>
        <time>2022-07-16T08:04:49Z</time>
      </trkpt>
      <trkpt lat="44.89832" lon="5.69332">
        <ele>686.8</ele>
        <time>2022-07-16T08:04:50Z</time>
      </trkpt>
      <trkpt lat="44.89829" lon="5.69335">
        <ele>687</ele>
        <time>2022-07-16T08:04:51Z</time>
      </trkpt>
      <trkpt lat="44.89826" lon="5.69337">
        <ele>687.2</ele>
        <time>2022-07-16T08:04:52Z</time>
      </trkpt>
      <trkpt lat="44.89823" lon="5.6934">
        <ele>687.4</ele>
        <time>2022-07-16T08:04:53Z</time>
      </trkpt>
      <trkpt lat="44.8982" lon="5.69344">
        <ele>687.6</ele>
        <time>2022-07-16T08:04:54Z</time>
      </trkpt>
      <trkpt lat="44.89817" lon="5.69347">
        <ele>687.8</ele>
        <time>2022-07-16T08:04:55Z</time>
      </trkpt>
      <trkpt lat="44.89814" lon="5.69351">
        <ele>688</ele>
        <time>2022-07-16T08:04:56Z</time>
      </trkpt>
      <trkpt lat="44.89811" lon="5.69354">
        <ele>688.2</ele>
        <time>2022-07-16T08:04:57Z</time>
      </trkpt>
      <trkpt lat="44.89808" lon="5.69357">
        <ele>688.3</ele>
        <time>2022-07-16T08:04:58Z</time>
      </trkpt>
      <trkpt lat="44.89805" lon="5.69361">
        <ele>688.5</ele>
        <time>2022-07-16T08:04:59Z</time>
      </trkpt>
      <trkpt lat="44.89802" lon="5.69364">
        <ele>688.7</ele>
        <time>2022-07-16T08:05:00Z</time>
      </trkpt>
      <trkpt lat="44.89799" lon="5.69368">
        <ele>688.9</ele>
        <time>2022-07-16T08:05:01Z</time>
      </trkpt>
      <trkpt lat="44.89796" lon="5.6937">
        <ele>689</ele>
        <time>2022-07-16T08:05:02Z</time>
      </trkpt>
      <trkpt lat="44.89793" lon="5.69374">
        <ele>689.2</ele>
        <time>2022-07-16T08:05:03Z</time>
      </trkpt>
      <trkpt lat="44.8979" lon="5.69377">
        <ele>689.4</ele>
        <time>2022-07-16T08:05:04Z</time>
      </trkpt>
      <trkpt lat="44.89788" lon="5.69379">
        <ele>689.5</ele>
        <time>2022-07-16T08:05:05Z</time>
      </trkpt>
      <trkpt lat="44.89784" lon="5.69383">
        <ele>689.7</ele>
        <time>2022-07-16T08:05:06Z</time>
      </trkpt>
      <trkpt lat="44.89776" lon="5.6939">
        <ele>690.1</ele>
        <time>2022-07-16T08:05:08Z</time>
      </trkpt>
      <trkpt lat="44.89773" lon="5.69395">
        <ele>690.2</ele>
        <time>2022-07-16T08:05:09Z</time>
      </trkpt>
      <trkpt lat="44.8977" lon="5.69399">
        <ele>690.4</ele>
        <time>2022-07-16T08:05:10Z</time>
      </trkpt>
      <trkpt lat="44.89766" lon="5.69404">
        <ele>690.5</ele>
        <time>2022-07-16T08:05:12Z</time>
      </trkpt>
      <trkpt lat="44.89762" lon="5.69408">
        <ele>690.7</ele>
        <time>2022-07-16T08:05:13Z</time>
      </trkpt>
      <trkpt lat="44.89757" lon="5.69414">
        <ele>690.9</ele>
        <time>2022-07-16T08:05:15Z</time>
      </trkpt>
      <trkpt lat="44.89753" lon="5.69419">
        <ele>691</ele>
        <time>2022-07-16T08:05:16Z</time>
      </trkpt>
      <trkpt lat="44.8975" lon="5.69422">
        <ele>691.2</ele>
        <time>2022-07-16T08:05:17Z</time>
      </trkpt>
      <trkpt lat="44.89748" lon="5.69425">
        <ele>691.2</ele>
        <time>2022-07-16T08:05:18Z</time>
      </trkpt>
      <trkpt lat="44.89742" lon="5.69429">
        <ele>691.4</ele>
        <time>2022-07-16T08:05:20Z</time>
      </trkpt>
      <trkpt lat="44.89739" lon="5.69432">
        <ele>691.5</ele>
        <time>2022-07-16T08:05:21Z</time>
      </trkpt>
      <trkpt lat="44.89735" lon="5.69436">
        <ele>691.7</ele>
        <time>2022-07-16T08:05:22Z</time>
      </trkpt>
      <trkpt lat="44.89729" lon="5.6944">
        <ele>691.9</ele>
        <time>2022-07-16T08:05:24Z</time>
      </trkpt>
      <trkpt lat="44.89725" lon="5.69444">
        <ele>692</ele>
        <time>2022-07-16T08:05:25Z</time>
      </trkpt>
      <trkpt lat="44.89719" lon="5.69448">
        <ele>692.3</ele>
        <time>2022-07-16T08:05:27Z</time>
      </trkpt>
      <trkpt lat="44.89715" lon="5.6945">
        <ele>692.4</ele>
        <time>2022-07-16T08:05:28Z</time>
      </trkpt>
      <trkpt lat="44.89711" lon="5.69452">
        <ele>692.6</ele>
        <time>2022-07-16T08:05:29Z</time>
      </trkpt>
      <trkpt lat="44.89708" lon="5.69455">
        <ele>692.7</ele>
        <time>2022-07-16T08:05:30Z</time>
      </trkpt>
      <trkpt lat="44.89702" lon="5.69459">
        <ele>693</ele>
        <time>2022-07-16T08:05:32Z</time>
      </trkpt>
      <trkpt lat="44.89698" lon="5.69461">
        <ele>693.1</ele>
        <time>2022-07-16T08:05:33Z</time>
      </trkpt>
      <trkpt lat="44.89695" lon="5.69463">
        <ele>693.2</ele>
        <time>2022-07-16T08:05:34Z</time>
      </trkpt>
      <trkpt lat="44.89687" lon="5.69467">
        <ele>693.5</ele>
        <time>2022-07-16T08:05:36Z</time>
      </trkpt>
      <trkpt lat="44.89682" lon="5.69471">
        <ele>693.7</ele>
        <time>2022-07-16T08:05:37Z</time>
      </trkpt>
      <trkpt lat="44.89676" lon="5.69475">
        <ele>694</ele>
        <time>2022-07-16T08:05:38Z</time>
      </trkpt>
      <trkpt lat="44.89671" lon="5.69478">
        <ele>694.1</ele>
        <time>2022-07-16T08:05:40Z</time>
      </trkpt>
      <trkpt lat="44.89667" lon="5.6948">
        <ele>694.3</ele>
        <time>2022-07-16T08:05:41Z</time>
      </trkpt>
      <trkpt lat="44.89659" lon="5.69483">
        <ele>694.6</ele>
        <time>2022-07-16T08:05:43Z</time>
      </trkpt>
      <trkpt lat="44.89655" lon="5.69486">
        <ele>694.8</ele>
        <time>2022-07-16T08:05:44Z</time>
      </trkpt>
      <trkpt lat="44.89652" lon="5.69488">
        <ele>694.9</ele>
        <time>2022-07-16T08:05:45Z</time>
      </trkpt>
      <trkpt lat="44.89648" lon="5.69491">
        <ele>695.1</ele>
        <time>2022-07-16T08:05:46Z</time>
      </trkpt>
      <trkpt lat="44.89644" lon="5.69493">
        <ele>695.3</ele>
        <time>2022-07-16T08:05:47Z</time>
      </trkpt>
      <trkpt lat="44.8964" lon="5.69495">
        <ele>695.4</ele>
        <time>2022-07-16T08:05:48Z</time>
      </trkpt>
      <trkpt lat="44.89633" lon="5.69499">
        <ele>695.8</ele>
        <time>2022-07-16T08:05:50Z</time>
      </trkpt>
      <trkpt lat="44.89629" lon="5.69501">
        <ele>696</ele>
        <time>2022-07-16T08:05:51Z</time>
      </trkpt>
      <trkpt lat="44.89626" lon="5.69503">
        <ele>696.1</ele>
        <time>2022-07-16T08:05:52Z</time>
      </trkpt>
      <trkpt lat="44.89619" lon="5.69508">
        <ele>696.4</ele>
        <time>2022-07-16T08:05:53Z</time>
      </trkpt>
      <trkpt lat="44.89615" lon="5.69511">
        <ele>696.6</ele>
        <time>2022-07-16T08:05:55Z</time>
      </trkpt>
      <trkpt lat="44.89612" lon="5.69513">
        <ele>696.7</ele>
        <time>2022-07-16T08:05:56Z</time>
      </trkpt>
      <trkpt lat="44.89604" lon="5.69519">
        <ele>697.1</ele>
        <time>2022-07-16T08:05:58Z</time>
      </trkpt>
      <trkpt lat="44.89599" lon="5.69523">
        <ele>697.3</ele>
        <time>2022-07-16T08:05:59Z</time>
      </trkpt>
      <trkpt lat="44.89597" lon="5.69525">
        <ele>697.4</ele>
        <time>2022-07-16T08:06:00Z</time>
      </trkpt>
      <trkpt lat="44.89594" lon="5.69529">
        <ele>697.6</ele>
        <time>2022-07-16T08:06:01Z</time>
      </trkpt>
      <trkpt lat="44.89591" lon="5.69532">
        <ele>697.7</ele>
        <time>2022-07-16T08:06:02Z</time>
      </trkpt>
      <trkpt lat="44.89585" lon="5.69539">
        <ele>698</ele>
        <time>2022-07-16T08:06:04Z</time>
      </trkpt>
      <trkpt lat="44.89582" lon="5.69543">
        <ele>698.1</ele>
        <time>2022-07-16T08:06:05Z</time>
      </trkpt>
      <trkpt lat="44.8958" lon="5.69546">
        <ele>698.2</ele>
        <time>2022-07-16T08:06:06Z</time>
      </trkpt>
      <trkpt lat="44.89576" lon="5.69549">
        <ele>698.4</ele>
        <time>2022-07-16T08:06:07Z</time>
      </trkpt>
      <trkpt lat="44.89574" lon="5.69551">
        <ele>698.4</ele>
        <time>2022-07-16T08:06:08Z</time>
      </trkpt>
      <trkpt lat="44.89569" lon="5.69555">
        <ele>698.7</ele>
        <time>2022-07-16T08:06:10Z</time>
      </trkpt>
      <trkpt lat="44.89565" lon="5.69559">
        <ele>698.8</ele>
        <time>2022-07-16T08:06:11Z</time>
      </trkpt>
      <trkpt lat="44.89559" lon="5.69563">
        <ele>699</ele>
        <time>2022-07-16T08:06:13Z</time>
      </trkpt>
      <trkpt lat="44.89552" lon="5.69567">
        <ele>699.3</ele>
        <time>2022-07-16T08:06:15Z</time>
      </trkpt>
      <trkpt lat="44.89548" lon="5.69568">
        <ele>699.4</ele>
        <time>2022-07-16T08:06:16Z</time>
      </trkpt>
      <trkpt lat="44.89544" lon="5.6957">
        <ele>699.6</ele>
        <time>2022-07-16T08:06:17Z</time>
      </trkpt>
      <trkpt lat="44.89537" lon="5.69575">
        <ele>699.9</ele>
        <time>2022-07-16T08:06:19Z</time>
      </trkpt>
      <trkpt lat="44.89529" lon="5.69582">
        <ele>700.2</ele>
        <time>2022-07-16T08:06:21Z</time>
      </trkpt>
      <trkpt lat="44.89526" lon="5.69581">
        <ele>700.3</ele>
        <time>2022-07-16T08:06:22Z</time>
      </trkpt>
      <trkpt lat="44.89521" lon="5.69582">
        <ele>700.5</ele>
        <time>2022-07-16T08:06:23Z</time>
      </trkpt>
      <trkpt lat="44.89515" lon="5.69586">
        <ele>700.7</ele>
        <time>2022-07-16T08:06:24Z</time>
      </trkpt>
      <trkpt lat="44.89514" lon="5.69586">
        <ele>700.7</ele>
        <time>2022-07-16T08:06:25Z</time>
      </trkpt>
      <trkpt lat="44.89505" lon="5.6959">
        <ele>701</ele>
        <time>2022-07-16T08:06:27Z</time>
      </trkpt>
      <trkpt lat="44.895" lon="5.69591">
        <ele>701.1</ele>
        <time>2022-07-16T08:06:28Z</time>
      </trkpt>
      <trkpt lat="44.89494" lon="5.69592">
        <ele>701.2</ele>
        <time>2022-07-16T08:06:29Z</time>
      </trkpt>
      <trkpt lat="44.8949" lon="5.69592">
        <ele>701.3</ele>
        <time>2022-07-16T08:06:30Z</time>
      </trkpt>
      <trkpt lat="44.89486" lon="5.69593">
        <ele>701.4</ele>
        <time>2022-07-16T08:06:32Z</time>
      </trkpt>
      <trkpt lat="44.8948" lon="5.69592">
        <ele>701.5</ele>
        <time>2022-07-16T08:06:33Z</time>
      </trkpt>
      <trkpt lat="44.89477" lon="5.69591">
        <ele>701.6</ele>
        <time>2022-07-16T08:06:34Z</time>
      </trkpt>
      <trkpt lat="44.89469" lon="5.69588">
        <ele>701.8</ele>
        <time>2022-07-16T08:06:35Z</time>
      </trkpt>
      <trkpt lat="44.89464" lon="5.69586">
        <ele>701.9</ele>
        <time>2022-07-16T08:06:38Z</time>
      </trkpt>
      <trkpt lat="44.8946" lon="5.69585">
        <ele>702</ele>
        <time>2022-07-16T08:06:39Z</time>
      </trkpt>
      <trkpt lat="44.89456" lon="5.69584">
        <ele>702.1</ele>
        <time>2022-07-16T08:06:40Z</time>
      </trkpt>
      <trkpt lat="44.89451" lon="5.69583">
        <ele>702.2</ele>
        <time>2022-07-16T08:06:41Z</time>
      </trkpt>
      <trkpt lat="44.89448" lon="5.69583">
        <ele>702.3</ele>
        <time>2022-07-16T08:06:42Z</time>
      </trkpt>
      <trkpt lat="44.89444" lon="5.69582">
        <ele>702.4</ele>
        <time>2022-07-16T08:06:43Z</time>
      </trkpt>
      <trkpt lat="44.8944" lon="5.69582">
        <ele>702.5</ele>
        <time>2022-07-16T08:06:44Z</time>
      </trkpt>
      <trkpt lat="44.89436" lon="5.69583">
        <ele>702.6</ele>
        <time>2022-07-16T08:06:45Z</time>
      </trkpt>
      <trkpt lat="44.89433" lon="5.69583">
        <ele>702.8</ele>
        <time>2022-07-16T08:06:46Z</time>
      </trkpt>
      <trkpt lat="44.89429" lon="5.69584">
        <ele>702.9</ele>
        <time>2022-07-16T08:06:47Z</time>
      </trkpt>
      <trkpt lat="44.89425" lon="5.69586">
        <ele>703.1</ele>
        <time>2022-07-16T08:06:48Z</time>
      </trkpt>
      <trkpt lat="44.89421" lon="5.69588">
        <ele>703.2</ele>
        <time>2022-07-16T08:06:49Z</time>
      </trkpt>
      <trkpt lat="44.89417" lon="5.69589">
        <ele>703.3</ele>
        <time>2022-07-16T08:06:50Z</time>
      </trkpt>
      <trkpt lat="44.89413" lon="5.6959">
        <ele>703.5</ele>
        <time>2022-07-16T08:06:51Z</time>
      </trkpt>
      <trkpt lat="44.89409" lon="5.69592">
        <ele>703.7</ele>
        <time>2022-07-16T08:06:52Z</time>
      </trkpt>
      <trkpt lat="44.89405" lon="5.69594">
        <ele>703.9</ele>
        <time>2022-07-16T08:06:53Z</time>
      </trkpt>
      <trkpt lat="44.89401" lon="5.69595">
        <ele>704</ele>
        <time>2022-07-16T08:06:54Z</time>
      </trkpt>
      <trkpt lat="44.89398" lon="5.69597">
        <ele>704.2</ele>
        <time>2022-07-16T08:06:55Z</time>
      </trkpt>
      <trkpt lat="44.89394" lon="5.69598">
        <ele>704.4</ele>
        <time>2022-07-16T08:06:56Z</time>
      </trkpt>
      <trkpt lat="44.89391" lon="5.69599">
        <ele>704.5</ele>
        <time>2022-07-16T08:06:57Z</time>
      </trkpt>
      <trkpt lat="44.89387" lon="5.69601">
        <ele>704.7</ele>
        <time>2022-07-16T08:06:58Z</time>
      </trkpt>
      <trkpt lat="44.89383" lon="5.69602">
        <ele>704.8</ele>
        <time>2022-07-16T08:06:59Z</time>
      </trkpt>
      <trkpt lat="44.8938" lon="5.69604">
        <ele>704.9</ele>
        <time>2022-07-16T08:07:00Z</time>
      </trkpt>
      <trkpt lat="44.89376" lon="5.69605">
        <ele>705.1</ele>
        <time>2022-07-16T08:07:01Z</time>
      </trkpt>
      <trkpt lat="44.89372" lon="5.69607">
        <ele>705.2</ele>
        <time>2022-07-16T08:07:02Z</time>
      </trkpt>
      <trkpt lat="44.89368" lon="5.69609">
        <ele>705.4</ele>
        <time>2022-07-16T08:07:03Z</time>
      </trkpt>
      <trkpt lat="44.89364" lon="5.6961">
        <ele>705.5</ele>
        <time>2022-07-16T08:07:04Z</time>
      </trkpt>
      <trkpt lat="44.8936" lon="5.69612">
        <ele>705.7</ele>
        <time>2022-07-16T08:07:05Z</time>
      </trkpt>
      <trkpt lat="44.89356" lon="5.69613">
        <ele>705.8</ele>
        <time>2022-07-16T08:07:06Z</time>
      </trkpt>
      <trkpt lat="44.89352" lon="5.69615">
        <ele>705.9</ele>
        <time>2022-07-16T08:07:07Z</time>
      </trkpt>
      <trkpt lat="44.89348" lon="5.69616">
        <ele>706.1</ele>
        <time>2022-07-16T08:07:08Z</time>
      </trkpt>
      <trkpt lat="44.89344" lon="5.69617">
        <ele>706.2</ele>
        <time>2022-07-16T08:07:09Z</time>
      </trkpt>
      <trkpt lat="44.8934" lon="5.69619">
        <ele>706.4</ele>
        <time>2022-07-16T08:07:10Z</time>
      </trkpt>
      <trkpt lat="44.89336" lon="5.6962">
        <ele>706.5</ele>
        <time>2022-07-16T08:07:11Z</time>
      </trkpt>
      <trkpt lat="44.89332" lon="5.69621">
        <ele>706.7</ele>
        <time>2022-07-16T08:07:12Z</time>
      </trkpt>
      <trkpt lat="44.89328" lon="5.69623">
        <ele>706.8</ele>
        <time>2022-07-16T08:07:13Z</time>
      </trkpt>
      <trkpt lat="44.89324" lon="5.69625">
        <ele>707</ele>
        <time>2022-07-16T08:07:14Z</time>
      </trkpt>
      <trkpt lat="44.8932" lon="5.69626">
        <ele>707.1</ele>
        <time>2022-07-16T08:07:15Z</time>
      </trkpt>
      <trkpt lat="44.89316" lon="5.69628">
        <ele>707.3</ele>
        <time>2022-07-16T08:07:16Z</time>
      </trkpt>
      <trkpt lat="44.89312" lon="5.69629">
        <ele>707.5</ele>
        <time>2022-07-16T08:07:17Z</time>
      </trkpt>
      <trkpt lat="44.89308" lon="5.69629">
        <ele>707.7</ele>
        <time>2022-07-16T08:07:18Z</time>
      </trkpt>
      <trkpt lat="44.89304" lon="5.6963">
        <ele>707.9</ele>
        <time>2022-07-16T08:07:19Z</time>
      </trkpt>
      <trkpt lat="44.893" lon="5.69631">
        <ele>708</ele>
        <time>2022-07-16T08:07:20Z</time>
      </trkpt>
      <trkpt lat="44.89296" lon="5.69631">
        <ele>708.2</ele>
        <time>2022-07-16T08:07:21Z</time>
      </trkpt>
      <trkpt lat="44.89293" lon="5.69632">
        <ele>708.3</ele>
        <time>2022-07-16T08:07:22Z</time>
      </trkpt>
      <trkpt lat="44.89289" lon="5.69632">
        <ele>708.5</ele>
        <time>2022-07-16T08:07:23Z</time>
      </trkpt>
      <trkpt lat="44.89285" lon="5.69631">
        <ele>708.6</ele>
        <time>2022-07-16T08:07:24Z</time>
      </trkpt>
      <trkpt lat="44.89281" lon="5.69631">
        <ele>708.8</ele>
        <time>2022-07-16T08:07:25Z</time>
      </trkpt>
      <trkpt lat="44.89277" lon="5.69631">
        <ele>708.9</ele>
        <time>2022-07-16T08:07:26Z</time>
      </trkpt>
      <trkpt lat="44.89273" lon="5.6963">
        <ele>709</ele>
        <time>2022-07-16T08:07:27Z</time>
      </trkpt>
      <trkpt lat="44.89269" lon="5.6963">
        <ele>709.2</ele>
        <time>2022-07-16T08:07:28Z</time>
      </trkpt>
      <trkpt lat="44.89265" lon="5.6963">
        <ele>709.3</ele>
        <time>2022-07-16T08:07:29Z</time>
      </trkpt>
      <trkpt lat="44.89261" lon="5.69629">
        <ele>709.5</ele>
        <time>2022-07-16T08:07:30Z</time>
      </trkpt>
      <trkpt lat="44.89257" lon="5.69629">
        <ele>709.6</ele>
        <time>2022-07-16T08:07:31Z</time>
      </trkpt>
      <trkpt lat="44.89253" lon="5.69629">
        <ele>709.8</ele>
        <time>2022-07-16T08:07:32Z</time>
      </trkpt>
      <trkpt lat="44.89249" lon="5.69628">
        <ele>709.9</ele>
        <time>2022-07-16T08:07:33Z</time>
      </trkpt>
      <trkpt lat="44.89246" lon="5.69628">
        <ele>710.1</ele>
        <time>2022-07-16T08:07:34Z</time>
      </trkpt>
      <trkpt lat="44.89242" lon="5.69627">
        <ele>710.2</ele>
        <time>2022-07-16T08:07:35Z</time>
      </trkpt>
      <trkpt lat="44.89238" lon="5.69627">
        <ele>710.4</ele>
        <time>2022-07-16T08:07:36Z</time>
      </trkpt>
      <trkpt lat="44.89234" lon="5.69627">
        <ele>710.5</ele>
        <time>2022-07-16T08:07:37Z</time>
      </trkpt>
      <trkpt lat="44.8923" lon="5.69626">
        <ele>710.7</ele>
        <time>2022-07-16T08:07:38Z</time>
      </trkpt>
      <trkpt lat="44.89226" lon="5.69626">
        <ele>710.8</ele>
        <time>2022-07-16T08:07:39Z</time>
      </trkpt>
      <trkpt lat="44.89222" lon="5.69626">
        <ele>710.9</ele>
        <time>2022-07-16T08:07:40Z</time>
      </trkpt>
      <trkpt lat="44.89218" lon="5.69626">
        <ele>711.1</ele>
        <time>2022-07-16T08:07:41Z</time>
      </trkpt>
      <trkpt lat="44.89214" lon="5.69626">
        <ele>711.3</ele>
        <time>2022-07-16T08:07:42Z</time>
      </trkpt>
      <trkpt lat="44.89211" lon="5.69626">
        <ele>711.4</ele>
        <time>2022-07-16T08:07:43Z</time>
      </trkpt>
      <trkpt lat="44.89207" lon="5.69625">
        <ele>711.6</ele>
        <time>2022-07-16T08:07:44Z</time>
      </trkpt>
      <trkpt lat="44.89203" lon="5.69625">
        <ele>711.7</ele>
        <time>2022-07-16T08:07:45Z</time>
      </trkpt>
      <trkpt lat="44.89199" lon="5.69625">
        <ele>711.9</ele>
        <time>2022-07-16T08:07:46Z</time>
      </trkpt>
      <trkpt lat="44.89196" lon="5.69625">
        <ele>712</ele>
        <time>2022-07-16T08:07:47Z</time>
      </trkpt>
      <trkpt lat="44.89191" lon="5.69625">
        <ele>712.3</ele>
        <time>2022-07-16T08:07:48Z</time>
      </trkpt>
      <trkpt lat="44.89188" lon="5.69625">
        <ele>712.4</ele>
        <time>2022-07-16T08:07:49Z</time>
      </trkpt>
      <trkpt lat="44.89185" lon="5.69625">
        <ele>712.6</ele>
        <time>2022-07-16T08:07:50Z</time>
      </trkpt>
      <trkpt lat="44.89181" lon="5.69625">
        <ele>712.8</ele>
        <time>2022-07-16T08:07:51Z</time>
      </trkpt>
      <trkpt lat="44.89178" lon="5.69625">
        <ele>713</ele>
        <time>2022-07-16T08:07:52Z</time>
      </trkpt>
      <trkpt lat="44.89174" lon="5.69625">
        <ele>713.1</ele>
        <time>2022-07-16T08:07:53Z</time>
      </trkpt>
      <trkpt lat="44.89171" lon="5.69625">
        <ele>713.3</ele>
        <time>2022-07-16T08:07:54Z</time>
      </trkpt>
      <trkpt lat="44.89167" lon="5.69626">
        <ele>713.5</ele>
        <time>2022-07-16T08:07:55Z</time>
      </trkpt>
      <trkpt lat="44.89163" lon="5.69628">
        <ele>713.8</ele>
        <time>2022-07-16T08:07:56Z</time>
      </trkpt>
      <trkpt lat="44.8916" lon="5.6963">
        <ele>713.9</ele>
        <time>2022-07-16T08:07:57Z</time>
      </trkpt>
      <trkpt lat="44.89156" lon="5.69632">
        <ele>714.1</ele>
        <time>2022-07-16T08:07:58Z</time>
      </trkpt>
      <trkpt lat="44.89152" lon="5.69634">
        <ele>714.3</ele>
        <time>2022-07-16T08:07:59Z</time>
      </trkpt>
      <trkpt lat="44.89149" lon="5.69636">
        <ele>714.5</ele>
        <time>2022-07-16T08:08:00Z</time>
      </trkpt>
      <trkpt lat="44.89145" lon="5.69638">
        <ele>714.7</ele>
        <time>2022-07-16T08:08:01Z</time>
      </trkpt>
      <trkpt lat="44.89142" lon="5.6964">
        <ele>714.9</ele>
        <time>2022-07-16T08:08:02Z</time>
      </trkpt>
      <trkpt lat="44.89138" lon="5.69642">
        <ele>715.1</ele>
        <time>2022-07-16T08:08:03Z</time>
      </trkpt>
      <trkpt lat="44.89135" lon="5.69644">
        <ele>715.2</ele>
        <time>2022-07-16T08:08:04Z</time>
      </trkpt>
      <trkpt lat="44.89132" lon="5.69647">
        <ele>715.4</ele>
        <time>2022-07-16T08:08:05Z</time>
      </trkpt>
      <trkpt lat="44.89128" lon="5.69649">
        <ele>715.5</ele>
        <time>2022-07-16T08:08:06Z</time>
      </trkpt>
      <trkpt lat="44.89125" lon="5.69651">
        <ele>715.7</ele>
        <time>2022-07-16T08:08:07Z</time>
      </trkpt>
      <trkpt lat="44.89121" lon="5.69652">
        <ele>715.9</ele>
        <time>2022-07-16T08:08:08Z</time>
      </trkpt>
      <trkpt lat="44.89117" lon="5.69653">
        <ele>716</ele>
        <time>2022-07-16T08:08:09Z</time>
      </trkpt>
      <trkpt lat="44.89113" lon="5.69654">
        <ele>716.2</ele>
        <time>2022-07-16T08:08:10Z</time>
      </trkpt>
      <trkpt lat="44.89109" lon="5.69654">
        <ele>716.4</ele>
        <time>2022-07-16T08:08:11Z</time>
      </trkpt>
      <trkpt lat="44.89106" lon="5.69653">
        <ele>716.5</ele>
        <time>2022-07-16T08:08:12Z</time>
      </trkpt>
      <trkpt lat="44.89102" lon="5.69652">
        <ele>716.7</ele>
        <time>2022-07-16T08:08:13Z</time>
      </trkpt>
      <trkpt lat="44.89098" lon="5.69651">
        <ele>716.9</ele>
        <time>2022-07-16T08:08:14Z</time>
      </trkpt>
      <trkpt lat="44.89095" lon="5.6965">
        <ele>717</ele>
        <time>2022-07-16T08:08:15Z</time>
      </trkpt>
      <trkpt lat="44.89092" lon="5.69649">
        <ele>717.2</ele>
        <time>2022-07-16T08:08:16Z</time>
      </trkpt>
      <trkpt lat="44.8909" lon="5.69647">
        <ele>717.3</ele>
        <time>2022-07-16T08:08:17Z</time>
      </trkpt>
      <trkpt lat="44.89087" lon="5.69645">
        <ele>717.5</ele>
        <time>2022-07-16T08:08:18Z</time>
      </trkpt>
      <trkpt lat="44.89084" lon="5.69643">
        <ele>717.6</ele>
        <time>2022-07-16T08:08:19Z</time>
      </trkpt>
      <trkpt lat="44.89081" lon="5.69641">
        <ele>717.8</ele>
        <time>2022-07-16T08:08:20Z</time>
      </trkpt>
      <trkpt lat="44.89079" lon="5.6964">
        <ele>717.9</ele>
        <time>2022-07-16T08:08:21Z</time>
      </trkpt>
      <trkpt lat="44.89076" lon="5.69638">
        <ele>718.1</ele>
        <time>2022-07-16T08:08:22Z</time>
      </trkpt>
      <trkpt lat="44.89073" lon="5.69636">
        <ele>718.2</ele>
        <time>2022-07-16T08:08:23Z</time>
      </trkpt>
      <trkpt lat="44.8907" lon="5.69634">
        <ele>718.4</ele>
        <time>2022-07-16T08:08:24Z</time>
      </trkpt>
      <trkpt lat="44.89067" lon="5.69632">
        <ele>718.6</ele>
        <time>2022-07-16T08:08:25Z</time>
      </trkpt>
      <trkpt lat="44.89065" lon="5.6963">
        <ele>718.7</ele>
        <time>2022-07-16T08:08:26Z</time>
      </trkpt>
      <trkpt lat="44.89062" lon="5.69628">
        <ele>718.9</ele>
        <time>2022-07-16T08:08:27Z</time>
      </trkpt>
      <trkpt lat="44.89059" lon="5.69626">
        <ele>719.1</ele>
        <time>2022-07-16T08:08:28Z</time>
      </trkpt>
      <trkpt lat="44.89057" lon="5.69625">
        <ele>719.3</ele>
        <time>2022-07-16T08:08:29Z</time>
      </trkpt>
      <trkpt lat="44.89054" lon="5.69624">
        <ele>719.5</ele>
        <time>2022-07-16T08:08:30Z</time>
      </trkpt>
      <trkpt lat="44.89051" lon="5.69622">
        <ele>719.7</ele>
        <time>2022-07-16T08:08:31Z</time>
      </trkpt>
      <trkpt lat="44.89047" lon="5.69621">
        <ele>719.9</ele>
        <time>2022-07-16T08:08:32Z</time>
      </trkpt>
      <trkpt lat="44.89046" lon="5.69621">
        <ele>720</ele>
        <time>2022-07-16T08:08:33Z</time>
      </trkpt>
      <trkpt lat="44.89043" lon="5.6962">
        <ele>720.2</ele>
        <time>2022-07-16T08:08:34Z</time>
      </trkpt>
      <trkpt lat="44.8904" lon="5.69619">
        <ele>720.4</ele>
        <time>2022-07-16T08:08:35Z</time>
      </trkpt>
      <trkpt lat="44.89036" lon="5.69619">
        <ele>720.7</ele>
        <time>2022-07-16T08:08:36Z</time>
      </trkpt>
      <trkpt lat="44.89035" lon="5.69619">
        <ele>720.8</ele>
        <time>2022-07-16T08:08:37Z</time>
      </trkpt>
      <trkpt lat="44.89031" lon="5.69618">
        <ele>721</ele>
        <time>2022-07-16T08:08:38Z</time>
      </trkpt>
      <trkpt lat="44.89029" lon="5.69618">
        <ele>721.1</ele>
        <time>2022-07-16T08:08:39Z</time>
      </trkpt>
      <trkpt lat="44.89025" lon="5.69618">
        <ele>721.4</ele>
        <time>2022-07-16T08:08:40Z</time>
      </trkpt>
      <trkpt lat="44.89023" lon="5.69619">
        <ele>721.5</ele>
        <time>2022-07-16T08:08:41Z</time>
      </trkpt>
      <trkpt lat="44.8902" lon="5.6962">
        <ele>721.7</ele>
        <time>2022-07-16T08:08:42Z</time>
      </trkpt>
      <trkpt lat="44.89017" lon="5.69621">
        <ele>721.9</ele>
        <time>2022-07-16T08:08:43Z</time>
      </trkpt>
      <trkpt lat="44.89014" lon="5.69621">
        <ele>722.2</ele>
        <time>2022-07-16T08:08:44Z</time>
      </trkpt>
      <trkpt lat="44.89011" lon="5.69623">
        <ele>722.3</ele>
        <time>2022-07-16T08:08:45Z</time>
      </trkpt>
      <trkpt lat="44.89007" lon="5.69625">
        <ele>722.6</ele>
        <time>2022-07-16T08:08:46Z</time>
      </trkpt>
      <trkpt lat="44.89006" lon="5.69625">
        <ele>722.7</ele>
        <time>2022-07-16T08:08:47Z</time>
      </trkpt>
      <trkpt lat="44.89003" lon="5.69628">
        <ele>722.9</ele>
        <time>2022-07-16T08:08:48Z</time>
      </trkpt>
      <trkpt lat="44.89001" lon="5.6963">
        <ele>723.1</ele>
        <time>2022-07-16T08:08:49Z</time>
      </trkpt>
      <trkpt lat="44.88999" lon="5.69632">
        <ele>723.3</ele>
        <time>2022-07-16T08:08:50Z</time>
      </trkpt>
      <trkpt lat="44.88996" lon="5.69634">
        <ele>723.5</ele>
        <time>2022-07-16T08:08:51Z</time>
      </trkpt>
      <trkpt lat="44.88993" lon="5.69636">
        <ele>723.7</ele>
        <time>2022-07-16T08:08:52Z</time>
      </trkpt>
      <trkpt lat="44.8899" lon="5.69639">
        <ele>723.9</ele>
        <time>2022-07-16T08:08:53Z</time>
      </trkpt>
      <trkpt lat="44.88988" lon="5.69642">
        <ele>724.1</ele>
        <time>2022-07-16T08:08:54Z</time>
      </trkpt>
      <trkpt lat="44.88986" lon="5.69644">
        <ele>724.2</ele>
        <time>2022-07-16T08:08:55Z</time>
      </trkpt>
      <trkpt lat="44.88984" lon="5.69647">
        <ele>724.4</ele>
        <time>2022-07-16T08:08:56Z</time>
      </trkpt>
      <trkpt lat="44.88981" lon="5.6965">
        <ele>724.6</ele>
        <time>2022-07-16T08:08:57Z</time>
      </trkpt>
      <trkpt lat="44.88979" lon="5.69654">
        <ele>724.7</ele>
        <time>2022-07-16T08:08:58Z</time>
      </trkpt>
      <trkpt lat="44.88977" lon="5.69657">
        <ele>724.9</ele>
        <time>2022-07-16T08:08:59Z</time>
      </trkpt>
      <trkpt lat="44.88974" lon="5.6966">
        <ele>725</ele>
        <time>2022-07-16T08:09:00Z</time>
      </trkpt>
      <trkpt lat="44.88972" lon="5.69664">
        <ele>725.2</ele>
        <time>2022-07-16T08:09:01Z</time>
      </trkpt>
      <trkpt lat="44.8897" lon="5.69668">
        <ele>725.3</ele>
        <time>2022-07-16T08:09:02Z</time>
      </trkpt>
      <trkpt lat="44.88968" lon="5.69671">
        <ele>725.4</ele>
        <time>2022-07-16T08:09:03Z</time>
      </trkpt>
      <trkpt lat="44.88966" lon="5.69674">
        <ele>725.5</ele>
        <time>2022-07-16T08:09:04Z</time>
      </trkpt>
      <trkpt lat="44.88963" lon="5.69678">
        <ele>725.6</ele>
        <time>2022-07-16T08:09:05Z</time>
      </trkpt>
      <trkpt lat="44.88961" lon="5.69683">
        <ele>725.7</ele>
        <time>2022-07-16T08:09:06Z</time>
      </trkpt>
      <trkpt lat="44.88959" lon="5.69687">
        <ele>725.8</ele>
        <time>2022-07-16T08:09:07Z</time>
      </trkpt>
      <trkpt lat="44.88957" lon="5.69691">
        <ele>725.8</ele>
        <time>2022-07-16T08:09:08Z</time>
      </trkpt>
      <trkpt lat="44.88955" lon="5.69695">
        <ele>725.9</ele>
        <time>2022-07-16T08:09:09Z</time>
      </trkpt>
      <trkpt lat="44.88954" lon="5.697">
        <ele>726</ele>
        <time>2022-07-16T08:09:10Z</time>
      </trkpt>
      <trkpt lat="44.88952" lon="5.69705">
        <ele>726.1</ele>
        <time>2022-07-16T08:09:11Z</time>
      </trkpt>
      <trkpt lat="44.8895" lon="5.6971">
        <ele>726.1</ele>
        <time>2022-07-16T08:09:12Z</time>
      </trkpt>
      <trkpt lat="44.88948" lon="5.69715">
        <ele>726.2</ele>
        <time>2022-07-16T08:09:13Z</time>
      </trkpt>
      <trkpt lat="44.88946" lon="5.69721">
        <ele>726.2</ele>
        <time>2022-07-16T08:09:14Z</time>
      </trkpt>
      <trkpt lat="44.88944" lon="5.69726">
        <ele>726.3</ele>
        <time>2022-07-16T08:09:15Z</time>
      </trkpt>
      <trkpt lat="44.88942" lon="5.69732">
        <ele>726.3</ele>
        <time>2022-07-16T08:09:16Z</time>
      </trkpt>
      <trkpt lat="44.8894" lon="5.6974">
        <ele>726.4</ele>
        <time>2022-07-16T08:09:17Z</time>
      </trkpt>
      <trkpt lat="44.88938" lon="5.69746">
        <ele>726.4</ele>
        <time>2022-07-16T08:09:18Z</time>
      </trkpt>
      <trkpt lat="44.88936" lon="5.69752">
        <ele>726.5</ele>
        <time>2022-07-16T08:09:19Z</time>
      </trkpt>
      <trkpt lat="44.88933" lon="5.69758">
        <ele>726.5</ele>
        <time>2022-07-16T08:09:20Z</time>
      </trkpt>
      <trkpt lat="44.88931" lon="5.69764">
        <ele>726.6</ele>
        <time>2022-07-16T08:09:21Z</time>
      </trkpt>
      <trkpt lat="44.88928" lon="5.69771">
        <ele>726.7</ele>
        <time>2022-07-16T08:09:22Z</time>
      </trkpt>
      <trkpt lat="44.88926" lon="5.69778">
        <ele>726.8</ele>
        <time>2022-07-16T08:09:23Z</time>
      </trkpt>
      <trkpt lat="44.88923" lon="5.69784">
        <ele>726.9</ele>
        <time>2022-07-16T08:09:24Z</time>
      </trkpt>
      <trkpt lat="44.88921" lon="5.6979">
        <ele>727</ele>
        <time>2022-07-16T08:09:25Z</time>
      </trkpt>
      <trkpt lat="44.88919" lon="5.69796">
        <ele>727.1</ele>
        <time>2022-07-16T08:09:26Z</time>
      </trkpt>
      <trkpt lat="44.88916" lon="5.69802">
        <ele>727.2</ele>
        <time>2022-07-16T08:09:27Z</time>
      </trkpt>
      <trkpt lat="44.88914" lon="5.69808">
        <ele>727.3</ele>
        <time>2022-07-16T08:09:28Z</time>
      </trkpt>
      <trkpt lat="44.88912" lon="5.69814">
        <ele>727.4</ele>
        <time>2022-07-16T08:09:29Z</time>
      </trkpt>
      <trkpt lat="44.8891" lon="5.6982">
        <ele>727.5</ele>
        <time>2022-07-16T08:09:30Z</time>
      </trkpt>
      <trkpt lat="44.88908" lon="5.69827">
        <ele>727.7</ele>
        <time>2022-07-16T08:09:31Z</time>
      </trkpt>
      <trkpt lat="44.88906" lon="5.69833">
        <ele>727.8</ele>
        <time>2022-07-16T08:09:32Z</time>
      </trkpt>
      <trkpt lat="44.88903" lon="5.69839">
        <ele>727.9</ele>
        <time>2022-07-16T08:09:33Z</time>
      </trkpt>
      <trkpt lat="44.88901" lon="5.69845">
        <ele>728</ele>
        <time>2022-07-16T08:09:34Z</time>
      </trkpt>
      <trkpt lat="44.88898" lon="5.69851">
        <ele>728.1</ele>
        <time>2022-07-16T08:09:35Z</time>
      </trkpt>
      <trkpt lat="44.88896" lon="5.69858">
        <ele>728.2</ele>
        <time>2022-07-16T08:09:36Z</time>
      </trkpt>
      <trkpt lat="44.88894" lon="5.69864">
        <ele>728.3</ele>
        <time>2022-07-16T08:09:37Z</time>
      </trkpt>
      <trkpt lat="44.88893" lon="5.6987">
        <ele>728.4</ele>
        <time>2022-07-16T08:09:38Z</time>
      </trkpt>
      <trkpt lat="44.88891" lon="5.69875">
        <ele>728.5</ele>
        <time>2022-07-16T08:09:39Z</time>
      </trkpt>
      <trkpt lat="44.88889" lon="5.69881">
        <ele>728.7</ele>
        <time>2022-07-16T08:09:40Z</time>
      </trkpt>
      <trkpt lat="44.88887" lon="5.69887">
        <ele>728.8</ele>
        <time>2022-07-16T08:09:41Z</time>
      </trkpt>
      <trkpt lat="44.88887" lon="5.69892">
        <ele>728.9</ele>
        <time>2022-07-16T08:09:42Z</time>
      </trkpt>
      <trkpt lat="44.88887" lon="5.69894">
        <ele>728.9</ele>
        <time>2022-07-16T08:09:43Z</time>
      </trkpt>
      <trkpt lat="44.88886" lon="5.69899">
        <ele>729</ele>
        <time>2022-07-16T08:09:44Z</time>
      </trkpt>
      <trkpt lat="44.88885" lon="5.699">
        <ele>729</ele>
        <time>2022-07-16T08:09:45Z</time>
      </trkpt>
      <trkpt lat="44.88884" lon="5.69906">
        <ele>729.1</ele>
        <time>2022-07-16T08:09:46Z</time>
      </trkpt>
      <trkpt lat="44.88884" lon="5.69908">
        <ele>729.1</ele>
        <time>2022-07-16T08:09:47Z</time>
      </trkpt>
      <trkpt lat="44.88884" lon="5.69908">
        <ele>729.1</ele>
        <time>2022-07-16T08:09:48Z</time>
      </trkpt>
      <trkpt lat="44.88884" lon="5.69908">
        <ele>729.1</ele>
        <time>2022-07-16T08:09:49Z</time>
      </trkpt>
      <trkpt lat="44.88885" lon="5.69908">
        <ele>729.1</ele>
        <time>2022-07-16T08:09:50Z</time>
      </trkpt>
      <trkpt lat="44.88885" lon="5.69908">
        <ele>729.1</ele>
        <time>2022-07-16T08:09:51Z</time>
      </trkpt>
      <trkpt lat="44.88885" lon="5.69908">
        <ele>729.1</ele>
        <time>2022-07-16T08:09:52Z</time>
      </trkpt>
      <trkpt lat="44.88885" lon="5.69908">
        <ele>729.1</ele>
        <time>2022-07-16T08:09:53Z</time>
      </trkpt>
      <trkpt lat="44.88885" lon="5.69908">
        <ele>729.1</ele>
        <time>2022-07-16T08:09:54Z</time>
      </trkpt>
      <trkpt lat="44.88885" lon="5.69908">
        <ele>729.1</ele>
        <time>2022-07-16T08:09:55Z</time>
      </trkpt>
      <trkpt lat="44.88884" lon="5.69908">
        <ele>729.1</ele>
        <time>2022-07-16T08:09:56Z</time>
      </trkpt>
      <trkpt lat="44.88885" lon="5.69908">
        <ele>729.2</ele>
        <time>2022-07-16T08:09:57Z</time>
      </trkpt>
      <trkpt lat="44.88885" lon="5.69908">
        <ele>729.2</ele>
        <time>2022-07-16T08:09:58Z</time>
      </trkpt>
      <trkpt lat="44.88885" lon="5.69909">
        <ele>729.2</ele>
        <time>2022-07-16T08:09:59Z</time>
      </trkpt>
      <trkpt lat="44.88881" lon="5.69913">
        <ele>729.2</ele>
        <time>2022-07-16T08:11:12Z</time>
      </trkpt>
      <trkpt lat="44.8888" lon="5.69914">
        <ele>729.2</ele>
        <time>2022-07-16T08:11:13Z</time>
      </trkpt>
      <trkpt lat="44.88878" lon="5.69915">
        <ele>729.2</ele>
        <time>2022-07-16T08:11:14Z</time>
      </trkpt>
      <trkpt lat="44.88874" lon="5.69915">
        <ele>729.2</ele>
        <time>2022-07-16T08:11:15Z</time>
      </trkpt>
      <trkpt lat="44.88873" lon="5.69915">
        <ele>729.2</ele>
        <time>2022-07-16T08:11:16Z</time>
      </trkpt>
      <trkpt lat="44.88869" lon="5.69916">
        <ele>729.3</ele>
        <time>2022-07-16T08:11:17Z</time>
      </trkpt>
      <trkpt lat="44.88868" lon="5.69916">
        <ele>729.3</ele>
        <time>2022-07-16T08:11:18Z</time>
      </trkpt>
      <trkpt lat="44.88865" lon="5.69919">
        <ele>729.3</ele>
        <time>2022-07-16T08:11:19Z</time>
      </trkpt>
      <trkpt lat="44.88861" lon="5.69922">
        <ele>729.3</ele>
        <time>2022-07-16T08:11:20Z</time>
      </trkpt>
      <trkpt lat="44.88859" lon="5.69926">
        <ele>729.4</ele>
        <time>2022-07-16T08:11:21Z</time>
      </trkpt>
      <trkpt lat="44.88855" lon="5.69929">
        <ele>729.4</ele>
        <time>2022-07-16T08:11:22Z</time>
      </trkpt>
      <trkpt lat="44.88853" lon="5.69931">
        <ele>729.4</ele>
        <time>2022-07-16T08:11:23Z</time>
      </trkpt>
      <trkpt lat="44.88849" lon="5.69934">
        <ele>729.4</ele>
        <time>2022-07-16T08:11:24Z</time>
      </trkpt>
      <trkpt lat="44.88846" lon="5.69936">
        <ele>729.4</ele>
        <time>2022-07-16T08:11:25Z</time>
      </trkpt>
      <trkpt lat="44.88843" lon="5.69939">
        <ele>729.4</ele>
        <time>2022-07-16T08:11:26Z</time>
      </trkpt>
      <trkpt lat="44.8884" lon="5.69941">
        <ele>729.5</ele>
        <time>2022-07-16T08:11:27Z</time>
      </trkpt>
      <trkpt lat="44.88837" lon="5.69943">
        <ele>729.4</ele>
        <time>2022-07-16T08:11:28Z</time>
      </trkpt>
      <trkpt lat="44.88834" lon="5.69945">
        <ele>729.4</ele>
        <time>2022-07-16T08:11:29Z</time>
      </trkpt>
      <trkpt lat="44.8883" lon="5.69948">
        <ele>729.4</ele>
        <time>2022-07-16T08:11:30Z</time>
      </trkpt>
      <trkpt lat="44.88827" lon="5.6995">
        <ele>729.4</ele>
        <time>2022-07-16T08:11:31Z</time>
      </trkpt>
      <trkpt lat="44.88823" lon="5.69953">
        <ele>729.3</ele>
        <time>2022-07-16T08:11:32Z</time>
      </trkpt>
      <trkpt lat="44.88819" lon="5.69956">
        <ele>729.3</ele>
        <time>2022-07-16T08:11:33Z</time>
      </trkpt>
      <trkpt lat="44.88815" lon="5.69958">
        <ele>729.3</ele>
        <time>2022-07-16T08:11:34Z</time>
      </trkpt>
      <trkpt lat="44.88811" lon="5.69961">
        <ele>729.3</ele>
        <time>2022-07-16T08:11:35Z</time>
      </trkpt>
      <trkpt lat="44.88806" lon="5.69964">
        <ele>729.3</ele>
        <time>2022-07-16T08:11:36Z</time>
      </trkpt>
      <trkpt lat="44.88801" lon="5.69967">
        <ele>729.3</ele>
        <time>2022-07-16T08:11:37Z</time>
      </trkpt>
      <trkpt lat="44.88797" lon="5.6997">
        <ele>729.2</ele>
        <time>2022-07-16T08:11:38Z</time>
      </trkpt>
      <trkpt lat="44.88792" lon="5.69972">
        <ele>729.2</ele>
        <time>2022-07-16T08:11:39Z</time>
      </trkpt>
      <trkpt lat="44.88788" lon="5.69976">
        <ele>729.2</ele>
        <time>2022-07-16T08:11:40Z</time>
      </trkpt>
      <trkpt lat="44.88783" lon="5.69979">
        <ele>729.1</ele>
        <time>2022-07-16T08:11:41Z</time>
      </trkpt>
      <trkpt lat="44.88778" lon="5.69982">
        <ele>729.1</ele>
        <time>2022-07-16T08:11:42Z</time>
      </trkpt>
      <trkpt lat="44.88774" lon="5.69985">
        <ele>729</ele>
        <time>2022-07-16T08:11:43Z</time>
      </trkpt>
      <trkpt lat="44.88769" lon="5.69988">
        <ele>729</ele>
        <time>2022-07-16T08:11:44Z</time>
      </trkpt>
      <trkpt lat="44.88764" lon="5.69991">
        <ele>728.9</ele>
        <time>2022-07-16T08:11:45Z</time>
      </trkpt>
      <trkpt lat="44.8876" lon="5.69994">
        <ele>728.8</ele>
        <time>2022-07-16T08:11:46Z</time>
      </trkpt>
      <trkpt lat="44.88754" lon="5.69996">
        <ele>728.8</ele>
        <time>2022-07-16T08:11:47Z</time>
      </trkpt>
      <trkpt lat="44.88749" lon="5.69998">
        <ele>728.7</ele>
        <time>2022-07-16T08:11:48Z</time>
      </trkpt>
      <trkpt lat="44.88743" lon="5.7">
        <ele>728.6</ele>
        <time>2022-07-16T08:11:49Z</time>
      </trkpt>
      <trkpt lat="44.88737" lon="5.70001">
        <ele>728.4</ele>
        <time>2022-07-16T08:11:50Z</time>
      </trkpt>
      <trkpt lat="44.88731" lon="5.70001">
        <ele>728.2</ele>
        <time>2022-07-16T08:11:51Z</time>
      </trkpt>
      <trkpt lat="44.88725" lon="5.7">
        <ele>728.1</ele>
        <time>2022-07-16T08:11:52Z</time>
      </trkpt>
      <trkpt lat="44.88719" lon="5.7">
        <ele>727.8</ele>
        <time>2022-07-16T08:11:53Z</time>
      </trkpt>
      <trkpt lat="44.88714" lon="5.7">
        <ele>727.6</ele>
        <time>2022-07-16T08:11:54Z</time>
      </trkpt>
      <trkpt lat="44.88707" lon="5.69999">
        <ele>727.3</ele>
        <time>2022-07-16T08:11:55Z</time>
      </trkpt>
      <trkpt lat="44.88701" lon="5.69999">
        <ele>727</ele>
        <time>2022-07-16T08:11:56Z</time>
      </trkpt>
      <trkpt lat="44.88694" lon="5.69999">
        <ele>726.7</ele>
        <time>2022-07-16T08:11:57Z</time>
      </trkpt>
      <trkpt lat="44.88687" lon="5.69998">
        <ele>726.4</ele>
        <time>2022-07-16T08:11:58Z</time>
      </trkpt>
      <trkpt lat="44.8868" lon="5.69998">
        <ele>726</ele>
        <time>2022-07-16T08:11:59Z</time>
      </trkpt>
      <trkpt lat="44.88673" lon="5.69998">
        <ele>725.7</ele>
        <time>2022-07-16T08:12:00Z</time>
      </trkpt>
      <trkpt lat="44.88665" lon="5.69998">
        <ele>725.4</ele>
        <time>2022-07-16T08:12:01Z</time>
      </trkpt>
      <trkpt lat="44.88657" lon="5.69997">
        <ele>725.1</ele>
        <time>2022-07-16T08:12:02Z</time>
      </trkpt>
      <trkpt lat="44.8865" lon="5.69997">
        <ele>724.7</ele>
        <time>2022-07-16T08:12:03Z</time>
      </trkpt>
      <trkpt lat="44.88642" lon="5.69996">
        <ele>724.4</ele>
        <time>2022-07-16T08:12:04Z</time>
      </trkpt>
      <trkpt lat="44.88634" lon="5.69995">
        <ele>724</ele>
        <time>2022-07-16T08:12:05Z</time>
      </trkpt>
      <trkpt lat="44.88626" lon="5.69995">
        <ele>723.6</ele>
        <time>2022-07-16T08:12:06Z</time>
      </trkpt>
      <trkpt lat="44.88617" lon="5.69994">
        <ele>723.2</ele>
        <time>2022-07-16T08:12:07Z</time>
      </trkpt>
      <trkpt lat="44.88609" lon="5.69994">
        <ele>722.8</ele>
        <time>2022-07-16T08:12:08Z</time>
      </trkpt>
      <trkpt lat="44.886" lon="5.69993">
        <ele>722.4</ele>
        <time>2022-07-16T08:12:09Z</time>
      </trkpt>
      <trkpt lat="44.88591" lon="5.69992">
        <ele>722</ele>
        <time>2022-07-16T08:12:10Z</time>
      </trkpt>
      <trkpt lat="44.88582" lon="5.69992">
        <ele>721.5</ele>
        <time>2022-07-16T08:12:11Z</time>
      </trkpt>
      <trkpt lat="44.88573" lon="5.69992">
        <ele>721</ele>
        <time>2022-07-16T08:12:12Z</time>
      </trkpt>
      <trkpt lat="44.88564" lon="5.69992">
        <ele>720.6</ele>
        <time>2022-07-16T08:12:13Z</time>
      </trkpt>
      <trkpt lat="44.88555" lon="5.69992">
        <ele>720.2</ele>
        <time>2022-07-16T08:12:14Z</time>
      </trkpt>
      <trkpt lat="44.88546" lon="5.69994">
        <ele>719.8</ele>
        <time>2022-07-16T08:12:15Z</time>
      </trkpt>
      <trkpt lat="44.88538" lon="5.69995">
        <ele>719.4</ele>
        <time>2022-07-16T08:12:16Z</time>
      </trkpt>
      <trkpt lat="44.88529" lon="5.69999">
        <ele>718.8</ele>
        <time>2022-07-16T08:12:17Z</time>
      </trkpt>
      <trkpt lat="44.88521" lon="5.70004">
        <ele>718.3</ele>
        <time>2022-07-16T08:12:18Z</time>
      </trkpt>
      <trkpt lat="44.88513" lon="5.7001">
        <ele>717.7</ele>
        <time>2022-07-16T08:12:19Z</time>
      </trkpt>
      <trkpt lat="44.88507" lon="5.70018">
        <ele>717.1</ele>
        <time>2022-07-16T08:12:20Z</time>
      </trkpt>
      <trkpt lat="44.885" lon="5.70028">
        <ele>716.4</ele>
        <time>2022-07-16T08:12:21Z</time>
      </trkpt>
      <trkpt lat="44.88494" lon="5.70039">
        <ele>715.8</ele>
        <time>2022-07-16T08:12:22Z</time>
      </trkpt>
      <trkpt lat="44.88489" lon="5.7005">
        <ele>715.3</ele>
        <time>2022-07-16T08:12:23Z</time>
      </trkpt>
      <trkpt lat="44.88483" lon="5.70062">
        <ele>714.8</ele>
        <time>2022-07-16T08:12:24Z</time>
      </trkpt>
      <trkpt lat="44.88478" lon="5.70074">
        <ele>714.3</ele>
        <time>2022-07-16T08:12:25Z</time>
      </trkpt>
      <trkpt lat="44.88473" lon="5.70086">
        <ele>713.9</ele>
        <time>2022-07-16T08:12:26Z</time>
      </trkpt>
      <trkpt lat="44.88469" lon="5.70097">
        <ele>713.5</ele>
        <time>2022-07-16T08:12:27Z</time>
      </trkpt>
      <trkpt lat="44.88465" lon="5.7011">
        <ele>713.2</ele>
        <time>2022-07-16T08:12:28Z</time>
      </trkpt>
      <trkpt lat="44.8846" lon="5.70122">
        <ele>712.9</ele>
        <time>2022-07-16T08:12:29Z</time>
      </trkpt>
      <trkpt lat="44.88456" lon="5.70134">
        <ele>712.8</ele>
        <time>2022-07-16T08:12:30Z</time>
      </trkpt>
      <trkpt lat="44.88452" lon="5.70146">
        <ele>712.7</ele>
        <time>2022-07-16T08:12:31Z</time>
      </trkpt>
      <trkpt lat="44.88447" lon="5.70158">
        <ele>712.7</ele>
        <time>2022-07-16T08:12:32Z</time>
      </trkpt>
      <trkpt lat="44.88441" lon="5.70169">
        <ele>712.8</ele>
        <time>2022-07-16T08:12:33Z</time>
      </trkpt>
      <trkpt lat="44.88435" lon="5.70177">
        <ele>712.8</ele>
        <time>2022-07-16T08:12:34Z</time>
      </trkpt>
      <trkpt lat="44.88428" lon="5.70184">
        <ele>712.8</ele>
        <time>2022-07-16T08:12:35Z</time>
      </trkpt>
      <trkpt lat="44.88421" lon="5.70189">
        <ele>712.8</ele>
        <time>2022-07-16T08:12:36Z</time>
      </trkpt>
      <trkpt lat="44.88414" lon="5.70193">
        <ele>712.7</ele>
        <time>2022-07-16T08:12:37Z</time>
      </trkpt>
      <trkpt lat="44.88407" lon="5.70196">
        <ele>712.5</ele>
        <time>2022-07-16T08:12:38Z</time>
      </trkpt>
      <trkpt lat="44.884" lon="5.702">
        <ele>712.2</ele>
        <time>2022-07-16T08:12:39Z</time>
      </trkpt>
      <trkpt lat="44.88392" lon="5.70203">
        <ele>711.9</ele>
        <time>2022-07-16T08:12:40Z</time>
      </trkpt>
      <trkpt lat="44.88385" lon="5.70207">
        <ele>711.5</ele>
        <time>2022-07-16T08:12:41Z</time>
      </trkpt>
      <trkpt lat="44.88377" lon="5.70211">
        <ele>711.1</ele>
        <time>2022-07-16T08:12:42Z</time>
      </trkpt>
      <trkpt lat="44.88369" lon="5.70215">
        <ele>710.7</ele>
        <time>2022-07-16T08:12:43Z</time>
      </trkpt>
      <trkpt lat="44.88361" lon="5.70219">
        <ele>710.3</ele>
        <time>2022-07-16T08:12:44Z</time>
      </trkpt>
      <trkpt lat="44.88353" lon="5.70225">
        <ele>709.8</ele>
        <time>2022-07-16T08:12:45Z</time>
      </trkpt>
      <trkpt lat="44.88345" lon="5.7023">
        <ele>709.4</ele>
        <time>2022-07-16T08:12:46Z</time>
      </trkpt>
      <trkpt lat="44.88337" lon="5.70237">
        <ele>709</ele>
        <time>2022-07-16T08:12:47Z</time>
      </trkpt>
      <trkpt lat="44.88329" lon="5.70243">
        <ele>708.6</ele>
        <time>2022-07-16T08:12:48Z</time>
      </trkpt>
      <trkpt lat="44.88322" lon="5.7025">
        <ele>708.2</ele>
        <time>2022-07-16T08:12:49Z</time>
      </trkpt>
      <trkpt lat="44.88314" lon="5.70258">
        <ele>707.7</ele>
        <time>2022-07-16T08:12:50Z</time>
      </trkpt>
      <trkpt lat="44.88307" lon="5.70266">
        <ele>707.2</ele>
        <time>2022-07-16T08:12:51Z</time>
      </trkpt>
      <trkpt lat="44.88299" lon="5.70274">
        <ele>706.7</ele>
        <time>2022-07-16T08:12:52Z</time>
      </trkpt>
      <trkpt lat="44.88292" lon="5.70282">
        <ele>706.3</ele>
        <time>2022-07-16T08:12:53Z</time>
      </trkpt>
      <trkpt lat="44.88286" lon="5.70292">
        <ele>705.8</ele>
        <time>2022-07-16T08:12:54Z</time>
      </trkpt>
      <trkpt lat="44.88282" lon="5.70303">
        <ele>705.3</ele>
        <time>2022-07-16T08:12:55Z</time>
      </trkpt>
      <trkpt lat="44.8828" lon="5.70315">
        <ele>704.8</ele>
        <time>2022-07-16T08:12:56Z</time>
      </trkpt>
      <trkpt lat="44.8828" lon="5.70327">
        <ele>704.3</ele>
        <time>2022-07-16T08:12:57Z</time>
      </trkpt>
      <trkpt lat="44.88282" lon="5.70339">
        <ele>703.7</ele>
        <time>2022-07-16T08:12:58Z</time>
      </trkpt>
      <trkpt lat="44.88285" lon="5.7035">
        <ele>703.2</ele>
        <time>2022-07-16T08:12:59Z</time>
      </trkpt>
      <trkpt lat="44.88287" lon="5.70361">
        <ele>702.6</ele>
        <time>2022-07-16T08:13:00Z</time>
      </trkpt>
      <trkpt lat="44.88288" lon="5.70372">
        <ele>702.1</ele>
        <time>2022-07-16T08:13:01Z</time>
      </trkpt>
      <trkpt lat="44.88289" lon="5.70384">
        <ele>701.6</ele>
        <time>2022-07-16T08:13:02Z</time>
      </trkpt>
      <trkpt lat="44.88288" lon="5.70395">
        <ele>701.2</ele>
        <time>2022-07-16T08:13:03Z</time>
      </trkpt>
      <trkpt lat="44.88284" lon="5.70405">
        <ele>700.8</ele>
        <time>2022-07-16T08:13:04Z</time>
      </trkpt>
      <trkpt lat="44.88279" lon="5.70414">
        <ele>700.4</ele>
        <time>2022-07-16T08:13:05Z</time>
      </trkpt>
      <trkpt lat="44.88272" lon="5.70422">
        <ele>700</ele>
        <time>2022-07-16T08:13:06Z</time>
      </trkpt>
      <trkpt lat="44.88266" lon="5.70429">
        <ele>699.7</ele>
        <time>2022-07-16T08:13:07Z</time>
      </trkpt>
      <trkpt lat="44.88259" lon="5.70435">
        <ele>699.4</ele>
        <time>2022-07-16T08:13:08Z</time>
      </trkpt>
      <trkpt lat="44.88252" lon="5.70441">
        <ele>699.2</ele>
        <time>2022-07-16T08:13:09Z</time>
      </trkpt>
      <trkpt lat="44.88245" lon="5.70447">
        <ele>698.9</ele>
        <time>2022-07-16T08:13:10Z</time>
      </trkpt>
      <trkpt lat="44.88237" lon="5.70451">
        <ele>698.7</ele>
        <time>2022-07-16T08:13:11Z</time>
      </trkpt>
      <trkpt lat="44.8823" lon="5.70454">
        <ele>698.5</ele>
        <time>2022-07-16T08:13:12Z</time>
      </trkpt>
      <trkpt lat="44.88222" lon="5.70455">
        <ele>698.3</ele>
        <time>2022-07-16T08:13:13Z</time>
      </trkpt>
      <trkpt lat="44.88214" lon="5.70457">
        <ele>698.2</ele>
        <time>2022-07-16T08:13:14Z</time>
      </trkpt>
      <trkpt lat="44.88207" lon="5.70457">
        <ele>698.1</ele>
        <time>2022-07-16T08:13:15Z</time>
      </trkpt>
      <trkpt lat="44.88199" lon="5.70458">
        <ele>697.9</ele>
        <time>2022-07-16T08:13:16Z</time>
      </trkpt>
      <trkpt lat="44.88192" lon="5.70457">
        <ele>697.8</ele>
        <time>2022-07-16T08:13:17Z</time>
      </trkpt>
      <trkpt lat="44.88184" lon="5.70457">
        <ele>697.8</ele>
        <time>2022-07-16T08:13:18Z</time>
      </trkpt>
      <trkpt lat="44.88176" lon="5.70457">
        <ele>697.7</ele>
        <time>2022-07-16T08:13:19Z</time>
      </trkpt>
      <trkpt lat="44.88169" lon="5.70458">
        <ele>697.7</ele>
        <time>2022-07-16T08:13:20Z</time>
      </trkpt>
      <trkpt lat="44.88161" lon="5.70457">
        <ele>697.6</ele>
        <time>2022-07-16T08:13:21Z</time>
      </trkpt>
      <trkpt lat="44.88154" lon="5.70456">
        <ele>697.5</ele>
        <time>2022-07-16T08:13:22Z</time>
      </trkpt>
      <trkpt lat="44.88147" lon="5.70453">
        <ele>697.4</ele>
        <time>2022-07-16T08:13:23Z</time>
      </trkpt>
      <trkpt lat="44.8814" lon="5.70451">
        <ele>697.3</ele>
        <time>2022-07-16T08:13:24Z</time>
      </trkpt>
      <trkpt lat="44.88133" lon="5.70446">
        <ele>697.2</ele>
        <time>2022-07-16T08:13:25Z</time>
      </trkpt>
      <trkpt lat="44.88127" lon="5.7044">
        <ele>697.2</ele>
        <time>2022-07-16T08:13:26Z</time>
      </trkpt>
      <trkpt lat="44.8812" lon="5.70435">
        <ele>697.1</ele>
        <time>2022-07-16T08:13:27Z</time>
      </trkpt>
      <trkpt lat="44.88112" lon="5.7043">
        <ele>697.1</ele>
        <time>2022-07-16T08:13:28Z</time>
      </trkpt>
      <trkpt lat="44.88105" lon="5.70423">
        <ele>697.1</ele>
        <time>2022-07-16T08:13:29Z</time>
      </trkpt>
      <trkpt lat="44.88098" lon="5.70418">
        <ele>697.2</ele>
        <time>2022-07-16T08:13:30Z</time>
      </trkpt>
      <trkpt lat="44.88091" lon="5.70413">
        <ele>697.2</ele>
        <time>2022-07-16T08:13:31Z</time>
      </trkpt>
      <trkpt lat="44.88084" lon="5.70408">
        <ele>697.2</ele>
        <time>2022-07-16T08:13:32Z</time>
      </trkpt>
      <trkpt lat="44.88077" lon="5.70404">
        <ele>697.2</ele>
        <time>2022-07-16T08:13:33Z</time>
      </trkpt>
      <trkpt lat="44.8807" lon="5.704">
        <ele>697</ele>
        <time>2022-07-16T08:13:34Z</time>
      </trkpt>
      <trkpt lat="44.88063" lon="5.70397">
        <ele>696.8</ele>
        <time>2022-07-16T08:13:35Z</time>
      </trkpt>
      <trkpt lat="44.88055" lon="5.70394">
        <ele>696.6</ele>
        <time>2022-07-16T08:13:36Z</time>
      </trkpt>
      <trkpt lat="44.88047" lon="5.70391">
        <ele>696.3</ele>
        <time>2022-07-16T08:13:37Z</time>
      </trkpt>
      <trkpt lat="44.88039" lon="5.70388">
        <ele>696</ele>
        <time>2022-07-16T08:13:38Z</time>
      </trkpt>
      <trkpt lat="44.8803" lon="5.70385">
        <ele>695.7</ele>
        <time>2022-07-16T08:13:39Z</time>
      </trkpt>
      <trkpt lat="44.88022" lon="5.70383">
        <ele>695.4</ele>
        <time>2022-07-16T08:13:40Z</time>
      </trkpt>
      <trkpt lat="44.88014" lon="5.7038">
        <ele>695.1</ele>
        <time>2022-07-16T08:13:41Z</time>
      </trkpt>
      <trkpt lat="44.88005" lon="5.70379">
        <ele>694.9</ele>
        <time>2022-07-16T08:13:42Z</time>
      </trkpt>
      <trkpt lat="44.87996" lon="5.70377">
        <ele>694.6</ele>
        <time>2022-07-16T08:13:43Z</time>
      </trkpt>
      <trkpt lat="44.87988" lon="5.70377">
        <ele>694.3</ele>
        <time>2022-07-16T08:13:44Z</time>
      </trkpt>
      <trkpt lat="44.87979" lon="5.70378">
        <ele>693.9</ele>
        <time>2022-07-16T08:13:45Z</time>
      </trkpt>
      <trkpt lat="44.8797" lon="5.70381">
        <ele>693.6</ele>
        <time>2022-07-16T08:13:46Z</time>
      </trkpt>
      <trkpt lat="44.87962" lon="5.70384">
        <ele>693.2</ele>
        <time>2022-07-16T08:13:47Z</time>
      </trkpt>
      <trkpt lat="44.87953" lon="5.70387">
        <ele>692.8</ele>
        <time>2022-07-16T08:13:48Z</time>
      </trkpt>
      <trkpt lat="44.87944" lon="5.7039">
        <ele>692.4</ele>
        <time>2022-07-16T08:13:49Z</time>
      </trkpt>
      <trkpt lat="44.87935" lon="5.70393">
        <ele>692</ele>
        <time>2022-07-16T08:13:50Z</time>
      </trkpt>
      <trkpt lat="44.87926" lon="5.70397">
        <ele>691.7</ele>
        <time>2022-07-16T08:13:51Z</time>
      </trkpt>
      <trkpt lat="44.87918" lon="5.704">
        <ele>691.3</ele>
        <time>2022-07-16T08:13:52Z</time>
      </trkpt>
      <trkpt lat="44.87909" lon="5.70403">
        <ele>691</ele>
        <time>2022-07-16T08:13:53Z</time>
      </trkpt>
      <trkpt lat="44.879" lon="5.70407">
        <ele>690.7</ele>
        <time>2022-07-16T08:13:54Z</time>
      </trkpt>
      <trkpt lat="44.87892" lon="5.70409">
        <ele>690.3</ele>
        <time>2022-07-16T08:13:55Z</time>
      </trkpt>
      <trkpt lat="44.87883" lon="5.70412">
        <ele>689.9</ele>
        <time>2022-07-16T08:13:56Z</time>
      </trkpt>
      <trkpt lat="44.87874" lon="5.70415">
        <ele>689.6</ele>
        <time>2022-07-16T08:13:57Z</time>
      </trkpt>
      <trkpt lat="44.87865" lon="5.70418">
        <ele>689.2</ele>
        <time>2022-07-16T08:13:58Z</time>
      </trkpt>
      <trkpt lat="44.87856" lon="5.7042">
        <ele>688.9</ele>
        <time>2022-07-16T08:13:59Z</time>
      </trkpt>
      <trkpt lat="44.87847" lon="5.70424">
        <ele>688.6</ele>
        <time>2022-07-16T08:14:00Z</time>
      </trkpt>
      <trkpt lat="44.87838" lon="5.70427">
        <ele>688.2</ele>
        <time>2022-07-16T08:14:01Z</time>
      </trkpt>
      <trkpt lat="44.87829" lon="5.7043">
        <ele>687.9</ele>
        <time>2022-07-16T08:14:02Z</time>
      </trkpt>
      <trkpt lat="44.8782" lon="5.70433">
        <ele>687.5</ele>
        <time>2022-07-16T08:14:03Z</time>
      </trkpt>
      <trkpt lat="44.87811" lon="5.70436">
        <ele>687.2</ele>
        <time>2022-07-16T08:14:04Z</time>
      </trkpt>
      <trkpt lat="44.87802" lon="5.70438">
        <ele>686.9</ele>
        <time>2022-07-16T08:14:05Z</time>
      </trkpt>
      <trkpt lat="44.87794" lon="5.70441">
        <ele>686.6</ele>
        <time>2022-07-16T08:14:06Z</time>
      </trkpt>
      <trkpt lat="44.87785" lon="5.70444">
        <ele>686.2</ele>
        <time>2022-07-16T08:14:07Z</time>
      </trkpt>
      <trkpt lat="44.87776" lon="5.70448">
        <ele>685.8</ele>
        <time>2022-07-16T08:14:08Z</time>
      </trkpt>
      <trkpt lat="44.87767" lon="5.70452">
        <ele>685.4</ele>
        <time>2022-07-16T08:14:09Z</time>
      </trkpt>
      <trkpt lat="44.87757" lon="5.70457">
        <ele>684.9</ele>
        <time>2022-07-16T08:14:10Z</time>
      </trkpt>
      <trkpt lat="44.87749" lon="5.70462">
        <ele>684.5</ele>
        <time>2022-07-16T08:14:11Z</time>
      </trkpt>
      <trkpt lat="44.87739" lon="5.70468">
        <ele>684.1</ele>
        <time>2022-07-16T08:14:12Z</time>
      </trkpt>
      <trkpt lat="44.8773" lon="5.70473">
        <ele>683.7</ele>
        <time>2022-07-16T08:14:13Z</time>
      </trkpt>
      <trkpt lat="44.87721" lon="5.70479">
        <ele>683.2</ele>
        <time>2022-07-16T08:14:14Z</time>
      </trkpt>
      <trkpt lat="44.87713" lon="5.70485">
        <ele>682.7</ele>
        <time>2022-07-16T08:14:15Z</time>
      </trkpt>
      <trkpt lat="44.87706" lon="5.70493">
        <ele>682.2</ele>
        <time>2022-07-16T08:14:16Z</time>
      </trkpt>
      <trkpt lat="44.87699" lon="5.70504">
        <ele>681.7</ele>
        <time>2022-07-16T08:14:17Z</time>
      </trkpt>
      <trkpt lat="44.87694" lon="5.70516">
        <ele>681.2</ele>
        <time>2022-07-16T08:14:18Z</time>
      </trkpt>
      <trkpt lat="44.87692" lon="5.70529">
        <ele>680.6</ele>
        <time>2022-07-16T08:14:19Z</time>
      </trkpt>
      <trkpt lat="44.87691" lon="5.70543">
        <ele>680</ele>
        <time>2022-07-16T08:14:20Z</time>
      </trkpt>
      <trkpt lat="44.87692" lon="5.70557">
        <ele>679.4</ele>
        <time>2022-07-16T08:14:21Z</time>
      </trkpt>
      <trkpt lat="44.87696" lon="5.70571">
        <ele>678.9</ele>
        <time>2022-07-16T08:14:22Z</time>
      </trkpt>
      <trkpt lat="44.877" lon="5.70583">
        <ele>678.4</ele>
        <time>2022-07-16T08:14:23Z</time>
      </trkpt>
      <trkpt lat="44.87706" lon="5.70596">
        <ele>677.8</ele>
        <time>2022-07-16T08:14:24Z</time>
      </trkpt>
      <trkpt lat="44.8771" lon="5.70608">
        <ele>677.3</ele>
        <time>2022-07-16T08:14:25Z</time>
      </trkpt>
      <trkpt lat="44.87713" lon="5.70622">
        <ele>676.9</ele>
        <time>2022-07-16T08:14:26Z</time>
      </trkpt>
      <trkpt lat="44.87714" lon="5.70636">
        <ele>676.3</ele>
        <time>2022-07-16T08:14:27Z</time>
      </trkpt>
      <trkpt lat="44.87712" lon="5.7065">
        <ele>675.8</ele>
        <time>2022-07-16T08:14:28Z</time>
      </trkpt>
      <trkpt lat="44.87709" lon="5.70663">
        <ele>675.2</ele>
        <time>2022-07-16T08:14:29Z</time>
      </trkpt>
      <trkpt lat="44.87704" lon="5.70674">
        <ele>674.7</ele>
        <time>2022-07-16T08:14:30Z</time>
      </trkpt>
      <trkpt lat="44.87697" lon="5.70685">
        <ele>674.1</ele>
        <time>2022-07-16T08:14:31Z</time>
      </trkpt>
      <trkpt lat="44.87691" lon="5.70695">
        <ele>673.7</ele>
        <time>2022-07-16T08:14:32Z</time>
      </trkpt>
      <trkpt lat="44.87685" lon="5.70705">
        <ele>673.2</ele>
        <time>2022-07-16T08:14:33Z</time>
      </trkpt>
      <trkpt lat="44.8768" lon="5.70716">
        <ele>672.7</ele>
        <time>2022-07-16T08:14:34Z</time>
      </trkpt>
      <trkpt lat="44.87677" lon="5.70727">
        <ele>672.3</ele>
        <time>2022-07-16T08:14:35Z</time>
      </trkpt>
      <trkpt lat="44.87677" lon="5.70739">
        <ele>671.8</ele>
        <time>2022-07-16T08:14:36Z</time>
      </trkpt>
      <trkpt lat="44.87678" lon="5.7075">
        <ele>671.3</ele>
        <time>2022-07-16T08:14:37Z</time>
      </trkpt>
      <trkpt lat="44.87679" lon="5.70763">
        <ele>670.8</ele>
        <time>2022-07-16T08:14:38Z</time>
      </trkpt>
      <trkpt lat="44.8768" lon="5.70775">
        <ele>670.3</ele>
        <time>2022-07-16T08:14:39Z</time>
      </trkpt>
      <trkpt lat="44.8768" lon="5.70788">
        <ele>669.8</ele>
        <time>2022-07-16T08:14:40Z</time>
      </trkpt>
      <trkpt lat="44.87678" lon="5.70802">
        <ele>669.3</ele>
        <time>2022-07-16T08:14:41Z</time>
      </trkpt>
      <trkpt lat="44.87675" lon="5.70815">
        <ele>668.8</ele>
        <time>2022-07-16T08:14:42Z</time>
      </trkpt>
      <trkpt lat="44.87672" lon="5.70828">
        <ele>668.2</ele>
        <time>2022-07-16T08:14:43Z</time>
      </trkpt>
      <trkpt lat="44.87666" lon="5.7084">
        <ele>667.7</ele>
        <time>2022-07-16T08:14:44Z</time>
      </trkpt>
      <trkpt lat="44.8766" lon="5.70851">
        <ele>667.1</ele>
        <time>2022-07-16T08:14:45Z</time>
      </trkpt>
      <trkpt lat="44.87653" lon="5.70863">
        <ele>666.5</ele>
        <time>2022-07-16T08:14:46Z</time>
      </trkpt>
      <trkpt lat="44.87646" lon="5.70873">
        <ele>666</ele>
        <time>2022-07-16T08:14:47Z</time>
      </trkpt>
      <trkpt lat="44.87639" lon="5.70884">
        <ele>665.5</ele>
        <time>2022-07-16T08:14:48Z</time>
      </trkpt>
      <trkpt lat="44.87632" lon="5.70895">
        <ele>665</ele>
        <time>2022-07-16T08:14:49Z</time>
      </trkpt>
      <trkpt lat="44.87624" lon="5.70905">
        <ele>664.5</ele>
        <time>2022-07-16T08:14:50Z</time>
      </trkpt>
      <trkpt lat="44.87616" lon="5.70913">
        <ele>664</ele>
        <time>2022-07-16T08:14:51Z</time>
      </trkpt>
      <trkpt lat="44.87607" lon="5.7092">
        <ele>663.5</ele>
        <time>2022-07-16T08:14:52Z</time>
      </trkpt>
      <trkpt lat="44.87597" lon="5.70925">
        <ele>662.9</ele>
        <time>2022-07-16T08:14:53Z</time>
      </trkpt>
      <trkpt lat="44.87588" lon="5.7093">
        <ele>662.4</ele>
        <time>2022-07-16T08:14:54Z</time>
      </trkpt>
      <trkpt lat="44.87579" lon="5.70935">
        <ele>661.9</ele>
        <time>2022-07-16T08:14:55Z</time>
      </trkpt>
      <trkpt lat="44.8757" lon="5.7094">
        <ele>661.4</ele>
        <time>2022-07-16T08:14:56Z</time>
      </trkpt>
      <trkpt lat="44.87561" lon="5.70945">
        <ele>661</ele>
        <time>2022-07-16T08:14:57Z</time>
      </trkpt>
      <trkpt lat="44.87552" lon="5.70951">
        <ele>660.4</ele>
        <time>2022-07-16T08:14:58Z</time>
      </trkpt>
      <trkpt lat="44.87542" lon="5.70957">
        <ele>659.9</ele>
        <time>2022-07-16T08:14:59Z</time>
      </trkpt>
      <trkpt lat="44.87533" lon="5.70962">
        <ele>659.4</ele>
        <time>2022-07-16T08:15:00Z</time>
      </trkpt>
      <trkpt lat="44.87524" lon="5.70966">
        <ele>658.9</ele>
        <time>2022-07-16T08:15:01Z</time>
      </trkpt>
      <trkpt lat="44.87514" lon="5.70971">
        <ele>658.4</ele>
        <time>2022-07-16T08:15:02Z</time>
      </trkpt>
      <trkpt lat="44.87505" lon="5.70976">
        <ele>657.9</ele>
        <time>2022-07-16T08:15:03Z</time>
      </trkpt>
      <trkpt lat="44.87496" lon="5.70981">
        <ele>657.6</ele>
        <time>2022-07-16T08:15:04Z</time>
      </trkpt>
      <trkpt lat="44.87487" lon="5.70987">
        <ele>657.2</ele>
        <time>2022-07-16T08:15:05Z</time>
      </trkpt>
      <trkpt lat="44.87478" lon="5.70992">
        <ele>656.9</ele>
        <time>2022-07-16T08:15:06Z</time>
      </trkpt>
      <trkpt lat="44.8747" lon="5.70997">
        <ele>656.6</ele>
        <time>2022-07-16T08:15:07Z</time>
      </trkpt>
      <trkpt lat="44.87461" lon="5.71003">
        <ele>656.3</ele>
        <time>2022-07-16T08:15:08Z</time>
      </trkpt>
      <trkpt lat="44.87453" lon="5.71009">
        <ele>656</ele>
        <time>2022-07-16T08:15:09Z</time>
      </trkpt>
      <trkpt lat="44.87445" lon="5.71014">
        <ele>655.7</ele>
        <time>2022-07-16T08:15:10Z</time>
      </trkpt>
      <trkpt lat="44.87437" lon="5.7102">
        <ele>655.5</ele>
        <time>2022-07-16T08:15:11Z</time>
      </trkpt>
      <trkpt lat="44.8743" lon="5.71025">
        <ele>655.3</ele>
        <time>2022-07-16T08:15:12Z</time>
      </trkpt>
      <trkpt lat="44.87425" lon="5.71031">
        <ele>655.2</ele>
        <time>2022-07-16T08:15:13Z</time>
      </trkpt>
      <trkpt lat="44.8742" lon="5.71036">
        <ele>655</ele>
        <time>2022-07-16T08:15:14Z</time>
      </trkpt>
      <trkpt lat="44.87417" lon="5.7104">
        <ele>654.9</ele>
        <time>2022-07-16T08:15:15Z</time>
      </trkpt>
      <trkpt lat="44.87415" lon="5.71044">
        <ele>654.8</ele>
        <time>2022-07-16T08:15:16Z</time>
      </trkpt>
      <trkpt lat="44.87414" lon="5.71045">
        <ele>654.7</ele>
        <time>2022-07-16T08:15:17Z</time>
      </trkpt>
      <trkpt lat="44.8741" lon="5.71047">
        <ele>654.6</ele>
        <time>2022-07-16T08:15:18Z</time>
      </trkpt>
      <trkpt lat="44.87409" lon="5.71047">
        <ele>654.6</ele>
        <time>2022-07-16T08:15:19Z</time>
      </trkpt>
      <trkpt lat="44.87406" lon="5.71047">
        <ele>654.5</ele>
        <time>2022-07-16T08:15:20Z</time>
      </trkpt>
      <trkpt lat="44.87405" lon="5.71047">
        <ele>654.4</ele>
        <time>2022-07-16T08:15:21Z</time>
      </trkpt>
      <trkpt lat="44.87404" lon="5.71047">
        <ele>654.4</ele>
        <time>2022-07-16T08:15:22Z</time>
      </trkpt>
      <trkpt lat="44.87404" lon="5.71046">
        <ele>654.3</ele>
        <time>2022-07-16T08:15:23Z</time>
      </trkpt>
      <trkpt lat="44.87404" lon="5.71046">
        <ele>654.3</ele>
        <time>2022-07-16T08:15:24Z</time>
      </trkpt>
      <trkpt lat="44.87404" lon="5.71046">
        <ele>654.3</ele>
        <time>2022-07-16T08:15:25Z</time>
      </trkpt>
      <trkpt lat="44.87404" lon="5.71046">
        <ele>654.3</ele>
        <time>2022-07-16T08:15:26Z</time>
      </trkpt>
      <trkpt lat="44.87404" lon="5.71046">
        <ele>654.3</ele>
        <time>2022-07-16T08:15:27Z</time>
      </trkpt>
      <trkpt lat="44.87404" lon="5.71046">
        <ele>654.3</ele>
        <time>2022-07-16T08:15:28Z</time>
      </trkpt>
      <trkpt lat="44.87404" lon="5.71046">
        <ele>654.3</ele>
        <time>2022-07-16T08:15:29Z</time>
      </trkpt>
      <trkpt lat="44.87404" lon="5.71046">
        <ele>654.3</ele>
        <time>2022-07-16T08:15:30Z</time>
      </trkpt>
      <trkpt lat="44.87405" lon="5.71046">
        <ele>654.3</ele>
        <time>2022-07-16T08:15:31Z</time>
      </trkpt>
      <trkpt lat="44.87405" lon="5.71046">
        <ele>654.3</ele>
        <time>2022-07-16T08:15:32Z</time>
      </trkpt>
      <trkpt lat="44.87405" lon="5.71046">
        <ele>654.2</ele>
        <time>2022-07-16T08:15:33Z</time>
      </trkpt>
      <trkpt lat="44.87405" lon="5.71046">
        <ele>654.2</ele>
        <time>2022-07-16T08:15:34Z</time>
      </trkpt>
      <trkpt lat="44.87405" lon="5.71044">
        <ele>654.2</ele>
        <time>2022-07-16T08:15:53Z</time>
      </trkpt>
      <trkpt lat="44.87405" lon="5.71043">
        <ele>654.2</ele>
        <time>2022-07-16T08:15:54Z</time>
      </trkpt>
      <trkpt lat="44.87406" lon="5.71043">
        <ele>654.2</ele>
        <time>2022-07-16T08:15:55Z</time>
      </trkpt>
      <trkpt lat="44.87406" lon="5.71043">
        <ele>654.1</ele>
        <time>2022-07-16T08:15:56Z</time>
      </trkpt>
      <trkpt lat="44.87406" lon="5.71042">
        <ele>654.1</ele>
        <time>2022-07-16T08:15:57Z</time>
      </trkpt>
      <trkpt lat="44.87407" lon="5.71042">
        <ele>654.1</ele>
        <time>2022-07-16T08:15:58Z</time>
      </trkpt>
      <trkpt lat="44.87408" lon="5.71044">
        <ele>654.1</ele>
        <time>2022-07-16T08:15:59Z</time>
      </trkpt>
      <trkpt lat="44.87408" lon="5.71049">
        <ele>653.9</ele>
        <time>2022-07-16T08:16:00Z</time>
      </trkpt>
      <trkpt lat="44.87408" lon="5.7105">
        <ele>653.9</ele>
        <time>2022-07-16T08:16:01Z</time>
      </trkpt>
      <trkpt lat="44.87408" lon="5.71056">
        <ele>653.8</ele>
        <time>2022-07-16T08:16:02Z</time>
      </trkpt>
      <trkpt lat="44.87407" lon="5.71058">
        <ele>653.7</ele>
        <time>2022-07-16T08:16:03Z</time>
      </trkpt>
      <trkpt lat="44.87406" lon="5.71063">
        <ele>653.6</ele>
        <time>2022-07-16T08:16:04Z</time>
      </trkpt>
      <trkpt lat="44.87406" lon="5.71069">
        <ele>653.5</ele>
        <time>2022-07-16T08:16:05Z</time>
      </trkpt>
      <trkpt lat="44.87405" lon="5.71074">
        <ele>653.4</ele>
        <time>2022-07-16T08:16:06Z</time>
      </trkpt>
      <trkpt lat="44.87404" lon="5.7108">
        <ele>653.3</ele>
        <time>2022-07-16T08:16:07Z</time>
      </trkpt>
      <trkpt lat="44.87404" lon="5.71087">
        <ele>653.1</ele>
        <time>2022-07-16T08:16:08Z</time>
      </trkpt>
      <trkpt lat="44.87405" lon="5.71095">
        <ele>653</ele>
        <time>2022-07-16T08:16:09Z</time>
      </trkpt>
      <trkpt lat="44.87404" lon="5.71102">
        <ele>652.9</ele>
        <time>2022-07-16T08:16:10Z</time>
      </trkpt>
      <trkpt lat="44.87404" lon="5.7111">
        <ele>652.7</ele>
        <time>2022-07-16T08:16:11Z</time>
      </trkpt>
      <trkpt lat="44.87403" lon="5.71118">
        <ele>652.6</ele>
        <time>2022-07-16T08:16:12Z</time>
      </trkpt>
      <trkpt lat="44.87402" lon="5.71126">
        <ele>652.5</ele>
        <time>2022-07-16T08:16:13Z</time>
      </trkpt>
      <trkpt lat="44.87401" lon="5.71134">
        <ele>652.4</ele>
        <time>2022-07-16T08:16:14Z</time>
      </trkpt>
      <trkpt lat="44.87399" lon="5.71143">
        <ele>652.2</ele>
        <time>2022-07-16T08:16:15Z</time>
      </trkpt>
      <trkpt lat="44.87398" lon="5.71151">
        <ele>652.1</ele>
        <time>2022-07-16T08:16:16Z</time>
      </trkpt>
      <trkpt lat="44.87396" lon="5.7116">
        <ele>652</ele>
        <time>2022-07-16T08:16:17Z</time>
      </trkpt>
      <trkpt lat="44.87394" lon="5.71169">
        <ele>651.9</ele>
        <time>2022-07-16T08:16:18Z</time>
      </trkpt>
      <trkpt lat="44.87392" lon="5.71177">
        <ele>651.9</ele>
        <time>2022-07-16T08:16:19Z</time>
      </trkpt>
      <trkpt lat="44.8739" lon="5.71185">
        <ele>651.9</ele>
        <time>2022-07-16T08:16:20Z</time>
      </trkpt>
      <trkpt lat="44.87387" lon="5.71193">
        <ele>651.9</ele>
        <time>2022-07-16T08:16:21Z</time>
      </trkpt>
      <trkpt lat="44.87384" lon="5.712">
        <ele>651.9</ele>
        <time>2022-07-16T08:16:22Z</time>
      </trkpt>
      <trkpt lat="44.87381" lon="5.71208">
        <ele>651.9</ele>
        <time>2022-07-16T08:16:23Z</time>
      </trkpt>
      <trkpt lat="44.87378" lon="5.71215">
        <ele>651.9</ele>
        <time>2022-07-16T08:16:24Z</time>
      </trkpt>
      <trkpt lat="44.87375" lon="5.71223">
        <ele>651.9</ele>
        <time>2022-07-16T08:16:25Z</time>
      </trkpt>
      <trkpt lat="44.87372" lon="5.71228">
        <ele>652</ele>
        <time>2022-07-16T08:16:26Z</time>
      </trkpt>
      <trkpt lat="44.8737" lon="5.71234">
        <ele>652</ele>
        <time>2022-07-16T08:16:27Z</time>
      </trkpt>
      <trkpt lat="44.87367" lon="5.71241">
        <ele>652</ele>
        <time>2022-07-16T08:16:28Z</time>
      </trkpt>
      <trkpt lat="44.87365" lon="5.71248">
        <ele>652</ele>
        <time>2022-07-16T08:16:29Z</time>
      </trkpt>
      <trkpt lat="44.87364" lon="5.71256">
        <ele>652</ele>
        <time>2022-07-16T08:16:30Z</time>
      </trkpt>
      <trkpt lat="44.87362" lon="5.71265">
        <ele>652.1</ele>
        <time>2022-07-16T08:16:31Z</time>
      </trkpt>
      <trkpt lat="44.87361" lon="5.71273">
        <ele>652.1</ele>
        <time>2022-07-16T08:16:32Z</time>
      </trkpt>
      <trkpt lat="44.87359" lon="5.71282">
        <ele>652.2</ele>
        <time>2022-07-16T08:16:33Z</time>
      </trkpt>
      <trkpt lat="44.87358" lon="5.7129">
        <ele>652.3</ele>
        <time>2022-07-16T08:16:34Z</time>
      </trkpt>
      <trkpt lat="44.87355" lon="5.71298">
        <ele>652.4</ele>
        <time>2022-07-16T08:16:35Z</time>
      </trkpt>
      <trkpt lat="44.87352" lon="5.71305">
        <ele>652.6</ele>
        <time>2022-07-16T08:16:36Z</time>
      </trkpt>
      <trkpt lat="44.87349" lon="5.71313">
        <ele>652.7</ele>
        <time>2022-07-16T08:16:37Z</time>
      </trkpt>
      <trkpt lat="44.87346" lon="5.7132">
        <ele>652.9</ele>
        <time>2022-07-16T08:16:38Z</time>
      </trkpt>
      <trkpt lat="44.87344" lon="5.71328">
        <ele>653</ele>
        <time>2022-07-16T08:16:39Z</time>
      </trkpt>
      <trkpt lat="44.87341" lon="5.71335">
        <ele>653.2</ele>
        <time>2022-07-16T08:16:40Z</time>
      </trkpt>
      <trkpt lat="44.87337" lon="5.71341">
        <ele>653.3</ele>
        <time>2022-07-16T08:16:41Z</time>
      </trkpt>
      <trkpt lat="44.87334" lon="5.71349">
        <ele>653.6</ele>
        <time>2022-07-16T08:16:42Z</time>
      </trkpt>
      <trkpt lat="44.87331" lon="5.71356">
        <ele>653.7</ele>
        <time>2022-07-16T08:16:43Z</time>
      </trkpt>
      <trkpt lat="44.87328" lon="5.71363">
        <ele>653.9</ele>
        <time>2022-07-16T08:16:44Z</time>
      </trkpt>
      <trkpt lat="44.87326" lon="5.7137">
        <ele>654</ele>
        <time>2022-07-16T08:16:45Z</time>
      </trkpt>
      <trkpt lat="44.87324" lon="5.71376">
        <ele>654</ele>
        <time>2022-07-16T08:16:46Z</time>
      </trkpt>
      <trkpt lat="44.87322" lon="5.71383">
        <ele>654</ele>
        <time>2022-07-16T08:16:47Z</time>
      </trkpt>
      <trkpt lat="44.8732" lon="5.71389">
        <ele>654.1</ele>
        <time>2022-07-16T08:16:48Z</time>
      </trkpt>
      <trkpt lat="44.87319" lon="5.71394">
        <ele>654.2</ele>
        <time>2022-07-16T08:16:49Z</time>
      </trkpt>
      <trkpt lat="44.87318" lon="5.71401">
        <ele>654.3</ele>
        <time>2022-07-16T08:16:50Z</time>
      </trkpt>
      <trkpt lat="44.87317" lon="5.71407">
        <ele>654.5</ele>
        <time>2022-07-16T08:16:51Z</time>
      </trkpt>
      <trkpt lat="44.87316" lon="5.71414">
        <ele>654.6</ele>
        <time>2022-07-16T08:16:52Z</time>
      </trkpt>
      <trkpt lat="44.87316" lon="5.71421">
        <ele>654.8</ele>
        <time>2022-07-16T08:16:53Z</time>
      </trkpt>
      <trkpt lat="44.87315" lon="5.71427">
        <ele>654.9</ele>
        <time>2022-07-16T08:16:54Z</time>
      </trkpt>
      <trkpt lat="44.87315" lon="5.71435">
        <ele>655.1</ele>
        <time>2022-07-16T08:16:55Z</time>
      </trkpt>
      <trkpt lat="44.87315" lon="5.71441">
        <ele>655.3</ele>
        <time>2022-07-16T08:16:56Z</time>
      </trkpt>
      <trkpt lat="44.87316" lon="5.71448">
        <ele>655.5</ele>
        <time>2022-07-16T08:16:57Z</time>
      </trkpt>
      <trkpt lat="44.87317" lon="5.71455">
        <ele>655.7</ele>
        <time>2022-07-16T08:16:58Z</time>
      </trkpt>
      <trkpt lat="44.87318" lon="5.7146">
        <ele>655.9</ele>
        <time>2022-07-16T08:16:59Z</time>
      </trkpt>
      <trkpt lat="44.87319" lon="5.71463">
        <ele>656</ele>
        <time>2022-07-16T08:17:00Z</time>
      </trkpt>
      <trkpt lat="44.87319" lon="5.71469">
        <ele>656.2</ele>
        <time>2022-07-16T08:17:01Z</time>
      </trkpt>
      <trkpt lat="44.8732" lon="5.71475">
        <ele>656.4</ele>
        <time>2022-07-16T08:17:02Z</time>
      </trkpt>
      <trkpt lat="44.8732" lon="5.71482">
        <ele>656.6</ele>
        <time>2022-07-16T08:17:03Z</time>
      </trkpt>
      <trkpt lat="44.87321" lon="5.7149">
        <ele>656.9</ele>
        <time>2022-07-16T08:17:04Z</time>
      </trkpt>
      <trkpt lat="44.87322" lon="5.71496">
        <ele>657.1</ele>
        <time>2022-07-16T08:17:05Z</time>
      </trkpt>
      <trkpt lat="44.87322" lon="5.71501">
        <ele>657.3</ele>
        <time>2022-07-16T08:17:06Z</time>
      </trkpt>
      <trkpt lat="44.87322" lon="5.71506">
        <ele>657.5</ele>
        <time>2022-07-16T08:17:07Z</time>
      </trkpt>
      <trkpt lat="44.87323" lon="5.7151">
        <ele>657.7</ele>
        <time>2022-07-16T08:17:08Z</time>
      </trkpt>
      <trkpt lat="44.87324" lon="5.71515">
        <ele>657.8</ele>
        <time>2022-07-16T08:17:09Z</time>
      </trkpt>
      <trkpt lat="44.87326" lon="5.71519">
        <ele>658</ele>
        <time>2022-07-16T08:17:10Z</time>
      </trkpt>
      <trkpt lat="44.87327" lon="5.71524">
        <ele>658.1</ele>
        <time>2022-07-16T08:17:11Z</time>
      </trkpt>
      <trkpt lat="44.87329" lon="5.71528">
        <ele>658.3</ele>
        <time>2022-07-16T08:17:12Z</time>
      </trkpt>
      <trkpt lat="44.8733" lon="5.71532">
        <ele>658.5</ele>
        <time>2022-07-16T08:17:13Z</time>
      </trkpt>
      <trkpt lat="44.87331" lon="5.71537">
        <ele>658.6</ele>
        <time>2022-07-16T08:17:14Z</time>
      </trkpt>
      <trkpt lat="44.87333" lon="5.71543">
        <ele>658.8</ele>
        <time>2022-07-16T08:17:15Z</time>
      </trkpt>
      <trkpt lat="44.87334" lon="5.71547">
        <ele>658.9</ele>
        <time>2022-07-16T08:17:16Z</time>
      </trkpt>
      <trkpt lat="44.87335" lon="5.71551">
        <ele>659.1</ele>
        <time>2022-07-16T08:17:17Z</time>
      </trkpt>
      <trkpt lat="44.87336" lon="5.71556">
        <ele>659.2</ele>
        <time>2022-07-16T08:17:18Z</time>
      </trkpt>
      <trkpt lat="44.87337" lon="5.71561">
        <ele>659.3</ele>
        <time>2022-07-16T08:17:19Z</time>
      </trkpt>
      <trkpt lat="44.87338" lon="5.71565">
        <ele>659.4</ele>
        <time>2022-07-16T08:17:20Z</time>
      </trkpt>
      <trkpt lat="44.87339" lon="5.71569">
        <ele>659.5</ele>
        <time>2022-07-16T08:17:21Z</time>
      </trkpt>
      <trkpt lat="44.8734" lon="5.71574">
        <ele>659.7</ele>
        <time>2022-07-16T08:17:22Z</time>
      </trkpt>
      <trkpt lat="44.87342" lon="5.71578">
        <ele>659.8</ele>
        <time>2022-07-16T08:17:23Z</time>
      </trkpt>
      <trkpt lat="44.87343" lon="5.71582">
        <ele>660</ele>
        <time>2022-07-16T08:17:24Z</time>
      </trkpt>
      <trkpt lat="44.87344" lon="5.71586">
        <ele>660.2</ele>
        <time>2022-07-16T08:17:25Z</time>
      </trkpt>
      <trkpt lat="44.87345" lon="5.7159">
        <ele>660.4</ele>
        <time>2022-07-16T08:17:26Z</time>
      </trkpt>
      <trkpt lat="44.87346" lon="5.71595">
        <ele>660.5</ele>
        <time>2022-07-16T08:17:27Z</time>
      </trkpt>
      <trkpt lat="44.87348" lon="5.716">
        <ele>660.7</ele>
        <time>2022-07-16T08:17:28Z</time>
      </trkpt>
      <trkpt lat="44.87349" lon="5.71604">
        <ele>660.9</ele>
        <time>2022-07-16T08:17:29Z</time>
      </trkpt>
      <trkpt lat="44.8735" lon="5.71609">
        <ele>661.1</ele>
        <time>2022-07-16T08:17:30Z</time>
      </trkpt>
      <trkpt lat="44.87351" lon="5.71614">
        <ele>661.3</ele>
        <time>2022-07-16T08:17:31Z</time>
      </trkpt>
      <trkpt lat="44.87352" lon="5.71618">
        <ele>661.5</ele>
        <time>2022-07-16T08:17:32Z</time>
      </trkpt>
      <trkpt lat="44.87352" lon="5.71624">
        <ele>661.7</ele>
        <time>2022-07-16T08:17:33Z</time>
      </trkpt>
      <trkpt lat="44.87353" lon="5.71629">
        <ele>661.9</ele>
        <time>2022-07-16T08:17:34Z</time>
      </trkpt>
      <trkpt lat="44.87353" lon="5.71634">
        <ele>662.1</ele>
        <time>2022-07-16T08:17:35Z</time>
      </trkpt>
      <trkpt lat="44.87353" lon="5.7164">
        <ele>662.3</ele>
        <time>2022-07-16T08:17:36Z</time>
      </trkpt>
      <trkpt lat="44.87353" lon="5.71645">
        <ele>662.5</ele>
        <time>2022-07-16T08:17:37Z</time>
      </trkpt>
      <trkpt lat="44.87352" lon="5.7165">
        <ele>662.6</ele>
        <time>2022-07-16T08:17:38Z</time>
      </trkpt>
      <trkpt lat="44.87351" lon="5.71655">
        <ele>662.8</ele>
        <time>2022-07-16T08:17:39Z</time>
      </trkpt>
      <trkpt lat="44.87351" lon="5.7166">
        <ele>663</ele>
        <time>2022-07-16T08:17:40Z</time>
      </trkpt>
      <trkpt lat="44.8735" lon="5.71666">
        <ele>663.2</ele>
        <time>2022-07-16T08:17:41Z</time>
      </trkpt>
      <trkpt lat="44.87349" lon="5.7167">
        <ele>663.3</ele>
        <time>2022-07-16T08:17:42Z</time>
      </trkpt>
      <trkpt lat="44.87347" lon="5.71675">
        <ele>663.5</ele>
        <time>2022-07-16T08:17:43Z</time>
      </trkpt>
      <trkpt lat="44.87346" lon="5.7168">
        <ele>663.7</ele>
        <time>2022-07-16T08:17:44Z</time>
      </trkpt>
      <trkpt lat="44.87345" lon="5.71685">
        <ele>663.9</ele>
        <time>2022-07-16T08:17:45Z</time>
      </trkpt>
      <trkpt lat="44.87344" lon="5.7169">
        <ele>664.1</ele>
        <time>2022-07-16T08:17:46Z</time>
      </trkpt>
      <trkpt lat="44.87343" lon="5.71694">
        <ele>664.2</ele>
        <time>2022-07-16T08:17:47Z</time>
      </trkpt>
      <trkpt lat="44.87342" lon="5.717">
        <ele>664.4</ele>
        <time>2022-07-16T08:17:48Z</time>
      </trkpt>
      <trkpt lat="44.87341" lon="5.71705">
        <ele>664.6</ele>
        <time>2022-07-16T08:17:49Z</time>
      </trkpt>
      <trkpt lat="44.87341" lon="5.7171">
        <ele>664.8</ele>
        <time>2022-07-16T08:17:50Z</time>
      </trkpt>
      <trkpt lat="44.8734" lon="5.71715">
        <ele>665</ele>
        <time>2022-07-16T08:17:51Z</time>
      </trkpt>
      <trkpt lat="44.87339" lon="5.71719">
        <ele>665.1</ele>
        <time>2022-07-16T08:17:52Z</time>
      </trkpt>
      <trkpt lat="44.87337" lon="5.71724">
        <ele>665.3</ele>
        <time>2022-07-16T08:17:53Z</time>
      </trkpt>
      <trkpt lat="44.87336" lon="5.71728">
        <ele>665.5</ele>
        <time>2022-07-16T08:17:54Z</time>
      </trkpt>
      <trkpt lat="44.87335" lon="5.71733">
        <ele>665.7</ele>
        <time>2022-07-16T08:17:55Z</time>
      </trkpt>
      <trkpt lat="44.87334" lon="5.71737">
        <ele>665.9</ele>
        <time>2022-07-16T08:17:56Z</time>
      </trkpt>
      <trkpt lat="44.87332" lon="5.71742">
        <ele>666</ele>
        <time>2022-07-16T08:17:57Z</time>
      </trkpt>
      <trkpt lat="44.87331" lon="5.71747">
        <ele>666.2</ele>
        <time>2022-07-16T08:17:58Z</time>
      </trkpt>
      <trkpt lat="44.8733" lon="5.71752">
        <ele>666.4</ele>
        <time>2022-07-16T08:17:59Z</time>
      </trkpt>
      <trkpt lat="44.87329" lon="5.71757">
        <ele>666.5</ele>
        <time>2022-07-16T08:18:00Z</time>
      </trkpt>
      <trkpt lat="44.87328" lon="5.71762">
        <ele>666.7</ele>
        <time>2022-07-16T08:18:01Z</time>
      </trkpt>
      <trkpt lat="44.87327" lon="5.71766">
        <ele>666.9</ele>
        <time>2022-07-16T08:18:02Z</time>
      </trkpt>
      <trkpt lat="44.87327" lon="5.71771">
        <ele>667</ele>
        <time>2022-07-16T08:18:03Z</time>
      </trkpt>
      <trkpt lat="44.87326" lon="5.71776">
        <ele>667.2</ele>
        <time>2022-07-16T08:18:04Z</time>
      </trkpt>
      <trkpt lat="44.87325" lon="5.7178">
        <ele>667.4</ele>
        <time>2022-07-16T08:18:05Z</time>
      </trkpt>
      <trkpt lat="44.87324" lon="5.71785">
        <ele>667.5</ele>
        <time>2022-07-16T08:18:06Z</time>
      </trkpt>
      <trkpt lat="44.87324" lon="5.7179">
        <ele>667.7</ele>
        <time>2022-07-16T08:18:07Z</time>
      </trkpt>
      <trkpt lat="44.87324" lon="5.71794">
        <ele>667.9</ele>
        <time>2022-07-16T08:18:08Z</time>
      </trkpt>
      <trkpt lat="44.87325" lon="5.718">
        <ele>668.1</ele>
        <time>2022-07-16T08:18:09Z</time>
      </trkpt>
      <trkpt lat="44.87325" lon="5.71804">
        <ele>668.2</ele>
        <time>2022-07-16T08:18:10Z</time>
      </trkpt>
      <trkpt lat="44.87326" lon="5.71809">
        <ele>668.4</ele>
        <time>2022-07-16T08:18:11Z</time>
      </trkpt>
      <trkpt lat="44.87327" lon="5.71813">
        <ele>668.6</ele>
        <time>2022-07-16T08:18:12Z</time>
      </trkpt>
      <trkpt lat="44.87327" lon="5.71817">
        <ele>668.7</ele>
        <time>2022-07-16T08:18:13Z</time>
      </trkpt>
      <trkpt lat="44.87328" lon="5.71821">
        <ele>668.9</ele>
        <time>2022-07-16T08:18:14Z</time>
      </trkpt>
      <trkpt lat="44.87329" lon="5.71826">
        <ele>669</ele>
        <time>2022-07-16T08:18:15Z</time>
      </trkpt>
      <trkpt lat="44.87331" lon="5.7183">
        <ele>669.2</ele>
        <time>2022-07-16T08:18:16Z</time>
      </trkpt>
      <trkpt lat="44.87332" lon="5.71835">
        <ele>669.4</ele>
        <time>2022-07-16T08:18:17Z</time>
      </trkpt>
      <trkpt lat="44.87333" lon="5.71839">
        <ele>669.5</ele>
        <time>2022-07-16T08:18:18Z</time>
      </trkpt>
      <trkpt lat="44.87335" lon="5.71844">
        <ele>669.7</ele>
        <time>2022-07-16T08:18:19Z</time>
      </trkpt>
      <trkpt lat="44.87336" lon="5.71849">
        <ele>669.9</ele>
        <time>2022-07-16T08:18:20Z</time>
      </trkpt>
      <trkpt lat="44.87338" lon="5.71854">
        <ele>670</ele>
        <time>2022-07-16T08:18:21Z</time>
      </trkpt>
      <trkpt lat="44.8734" lon="5.71858">
        <ele>670.2</ele>
        <time>2022-07-16T08:18:22Z</time>
      </trkpt>
      <trkpt lat="44.87342" lon="5.71862">
        <ele>670.4</ele>
        <time>2022-07-16T08:18:23Z</time>
      </trkpt>
      <trkpt lat="44.87344" lon="5.71868">
        <ele>670.6</ele>
        <time>2022-07-16T08:18:24Z</time>
      </trkpt>
      <trkpt lat="44.87346" lon="5.71872">
        <ele>670.7</ele>
        <time>2022-07-16T08:18:25Z</time>
      </trkpt>
      <trkpt lat="44.87348" lon="5.71877">
        <ele>670.9</ele>
        <time>2022-07-16T08:18:26Z</time>
      </trkpt>
      <trkpt lat="44.8735" lon="5.71882">
        <ele>671.1</ele>
        <time>2022-07-16T08:18:27Z</time>
      </trkpt>
      <trkpt lat="44.87352" lon="5.71887">
        <ele>671.3</ele>
        <time>2022-07-16T08:18:28Z</time>
      </trkpt>
      <trkpt lat="44.87354" lon="5.71892">
        <ele>671.4</ele>
        <time>2022-07-16T08:18:29Z</time>
      </trkpt>
      <trkpt lat="44.87356" lon="5.71896">
        <ele>671.6</ele>
        <time>2022-07-16T08:18:30Z</time>
      </trkpt>
      <trkpt lat="44.87358" lon="5.71901">
        <ele>671.8</ele>
        <time>2022-07-16T08:18:31Z</time>
      </trkpt>
      <trkpt lat="44.87361" lon="5.71905">
        <ele>671.9</ele>
        <time>2022-07-16T08:18:32Z</time>
      </trkpt>
      <trkpt lat="44.87362" lon="5.7191">
        <ele>672.1</ele>
        <time>2022-07-16T08:18:33Z</time>
      </trkpt>
      <trkpt lat="44.87364" lon="5.71913">
        <ele>672.2</ele>
        <time>2022-07-16T08:18:34Z</time>
      </trkpt>
      <trkpt lat="44.87366" lon="5.71919">
        <ele>672.4</ele>
        <time>2022-07-16T08:18:35Z</time>
      </trkpt>
      <trkpt lat="44.87368" lon="5.71924">
        <ele>672.6</ele>
        <time>2022-07-16T08:18:36Z</time>
      </trkpt>
      <trkpt lat="44.87369" lon="5.71927">
        <ele>672.7</ele>
        <time>2022-07-16T08:18:37Z</time>
      </trkpt>
      <trkpt lat="44.87372" lon="5.71932">
        <ele>672.9</ele>
        <time>2022-07-16T08:18:38Z</time>
      </trkpt>
      <trkpt lat="44.87373" lon="5.71936">
        <ele>673</ele>
        <time>2022-07-16T08:18:39Z</time>
      </trkpt>
      <trkpt lat="44.87375" lon="5.71941">
        <ele>673.2</ele>
        <time>2022-07-16T08:18:40Z</time>
      </trkpt>
      <trkpt lat="44.87377" lon="5.71946">
        <ele>673.3</ele>
        <time>2022-07-16T08:18:41Z</time>
      </trkpt>
      <trkpt lat="44.87379" lon="5.7195">
        <ele>673.3</ele>
        <time>2022-07-16T08:18:42Z</time>
      </trkpt>
      <trkpt lat="44.87381" lon="5.71954">
        <ele>673.4</ele>
        <time>2022-07-16T08:18:43Z</time>
      </trkpt>
      <trkpt lat="44.87382" lon="5.71958">
        <ele>673.5</ele>
        <time>2022-07-16T08:18:44Z</time>
      </trkpt>
      <trkpt lat="44.87384" lon="5.71962">
        <ele>673.5</ele>
        <time>2022-07-16T08:18:45Z</time>
      </trkpt>
      <trkpt lat="44.87386" lon="5.71967">
        <ele>673.6</ele>
        <time>2022-07-16T08:18:46Z</time>
      </trkpt>
      <trkpt lat="44.87388" lon="5.71972">
        <ele>673.7</ele>
        <time>2022-07-16T08:18:47Z</time>
      </trkpt>
      <trkpt lat="44.87391" lon="5.71976">
        <ele>673.8</ele>
        <time>2022-07-16T08:18:48Z</time>
      </trkpt>
      <trkpt lat="44.87393" lon="5.7198">
        <ele>673.9</ele>
        <time>2022-07-16T08:18:49Z</time>
      </trkpt>
      <trkpt lat="44.87395" lon="5.71986">
        <ele>674</ele>
        <time>2022-07-16T08:18:50Z</time>
      </trkpt>
      <trkpt lat="44.87397" lon="5.71991">
        <ele>674.3</ele>
        <time>2022-07-16T08:18:51Z</time>
      </trkpt>
      <trkpt lat="44.87398" lon="5.71994">
        <ele>674.4</ele>
        <time>2022-07-16T08:18:52Z</time>
      </trkpt>
      <trkpt lat="44.874" lon="5.71998">
        <ele>674.5</ele>
        <time>2022-07-16T08:18:53Z</time>
      </trkpt>
      <trkpt lat="44.87401" lon="5.72003">
        <ele>674.7</ele>
        <time>2022-07-16T08:18:54Z</time>
      </trkpt>
      <trkpt lat="44.87402" lon="5.72007">
        <ele>674.9</ele>
        <time>2022-07-16T08:18:55Z</time>
      </trkpt>
      <trkpt lat="44.87403" lon="5.72011">
        <ele>675.1</ele>
        <time>2022-07-16T08:18:56Z</time>
      </trkpt>
      <trkpt lat="44.87404" lon="5.72016">
        <ele>675.3</ele>
        <time>2022-07-16T08:18:57Z</time>
      </trkpt>
      <trkpt lat="44.87405" lon="5.72022">
        <ele>675.6</ele>
        <time>2022-07-16T08:18:58Z</time>
      </trkpt>
      <trkpt lat="44.87406" lon="5.72027">
        <ele>675.8</ele>
        <time>2022-07-16T08:18:59Z</time>
      </trkpt>
      <trkpt lat="44.87407" lon="5.72033">
        <ele>676</ele>
        <time>2022-07-16T08:19:00Z</time>
      </trkpt>
      <trkpt lat="44.87407" lon="5.72035">
        <ele>676.1</ele>
        <time>2022-07-16T08:19:01Z</time>
      </trkpt>
      <trkpt lat="44.87407" lon="5.72041">
        <ele>676.4</ele>
        <time>2022-07-16T08:19:02Z</time>
      </trkpt>
      <trkpt lat="44.87408" lon="5.72047">
        <ele>676.6</ele>
        <time>2022-07-16T08:19:03Z</time>
      </trkpt>
      <trkpt lat="44.87409" lon="5.7205">
        <ele>676.8</ele>
        <time>2022-07-16T08:19:04Z</time>
      </trkpt>
      <trkpt lat="44.8741" lon="5.72055">
        <ele>676.9</ele>
        <time>2022-07-16T08:19:05Z</time>
      </trkpt>
      <trkpt lat="44.87411" lon="5.7206">
        <ele>677.1</ele>
        <time>2022-07-16T08:19:06Z</time>
      </trkpt>
      <trkpt lat="44.87411" lon="5.72064">
        <ele>677.3</ele>
        <time>2022-07-16T08:19:07Z</time>
      </trkpt>
      <trkpt lat="44.87412" lon="5.72069">
        <ele>677.5</ele>
        <time>2022-07-16T08:19:08Z</time>
      </trkpt>
      <trkpt lat="44.87413" lon="5.72075">
        <ele>677.8</ele>
        <time>2022-07-16T08:19:09Z</time>
      </trkpt>
      <trkpt lat="44.87414" lon="5.72079">
        <ele>677.9</ele>
        <time>2022-07-16T08:19:10Z</time>
      </trkpt>
      <trkpt lat="44.87414" lon="5.72083">
        <ele>678.1</ele>
        <time>2022-07-16T08:19:11Z</time>
      </trkpt>
      <trkpt lat="44.87415" lon="5.72087">
        <ele>678.3</ele>
        <time>2022-07-16T08:19:12Z</time>
      </trkpt>
      <trkpt lat="44.87416" lon="5.72092">
        <ele>678.5</ele>
        <time>2022-07-16T08:19:13Z</time>
      </trkpt>
      <trkpt lat="44.87417" lon="5.72096">
        <ele>678.7</ele>
        <time>2022-07-16T08:19:14Z</time>
      </trkpt>
      <trkpt lat="44.87418" lon="5.72101">
        <ele>678.9</ele>
        <time>2022-07-16T08:19:15Z</time>
      </trkpt>
      <trkpt lat="44.87419" lon="5.72106">
        <ele>679.1</ele>
        <time>2022-07-16T08:19:16Z</time>
      </trkpt>
      <trkpt lat="44.8742" lon="5.72111">
        <ele>679.3</ele>
        <time>2022-07-16T08:19:17Z</time>
      </trkpt>
      <trkpt lat="44.87421" lon="5.72116">
        <ele>679.5</ele>
        <time>2022-07-16T08:19:18Z</time>
      </trkpt>
      <trkpt lat="44.87422" lon="5.72122">
        <ele>679.7</ele>
        <time>2022-07-16T08:19:19Z</time>
      </trkpt>
      <trkpt lat="44.87422" lon="5.72127">
        <ele>679.9</ele>
        <time>2022-07-16T08:19:20Z</time>
      </trkpt>
      <trkpt lat="44.87423" lon="5.72132">
        <ele>680.1</ele>
        <time>2022-07-16T08:19:21Z</time>
      </trkpt>
      <trkpt lat="44.87423" lon="5.72139">
        <ele>680.3</ele>
        <time>2022-07-16T08:19:22Z</time>
      </trkpt>
      <trkpt lat="44.87424" lon="5.72142">
        <ele>680.4</ele>
        <time>2022-07-16T08:19:23Z</time>
      </trkpt>
      <trkpt lat="44.87424" lon="5.72148">
        <ele>680.5</ele>
        <time>2022-07-16T08:19:24Z</time>
      </trkpt>
      <trkpt lat="44.87424" lon="5.72152">
        <ele>680.5</ele>
        <time>2022-07-16T08:19:25Z</time>
      </trkpt>
      <trkpt lat="44.87423" lon="5.72157">
        <ele>680.6</ele>
        <time>2022-07-16T08:19:26Z</time>
      </trkpt>
      <trkpt lat="44.87423" lon="5.72162">
        <ele>680.8</ele>
        <time>2022-07-16T08:19:27Z</time>
      </trkpt>
      <trkpt lat="44.87422" lon="5.72168">
        <ele>680.9</ele>
        <time>2022-07-16T08:19:28Z</time>
      </trkpt>
      <trkpt lat="44.87421" lon="5.72173">
        <ele>681</ele>
        <time>2022-07-16T08:19:29Z</time>
      </trkpt>
      <trkpt lat="44.87421" lon="5.72177">
        <ele>681.1</ele>
        <time>2022-07-16T08:19:30Z</time>
      </trkpt>
      <trkpt lat="44.8742" lon="5.72183">
        <ele>681.2</ele>
        <time>2022-07-16T08:19:31Z</time>
      </trkpt>
      <trkpt lat="44.87419" lon="5.72187">
        <ele>681.3</ele>
        <time>2022-07-16T08:19:32Z</time>
      </trkpt>
      <trkpt lat="44.87419" lon="5.72192">
        <ele>681.5</ele>
        <time>2022-07-16T08:19:33Z</time>
      </trkpt>
      <trkpt lat="44.87419" lon="5.72199">
        <ele>681.6</ele>
        <time>2022-07-16T08:19:34Z</time>
      </trkpt>
      <trkpt lat="44.8742" lon="5.72203">
        <ele>681.7</ele>
        <time>2022-07-16T08:19:35Z</time>
      </trkpt>
      <trkpt lat="44.87424" lon="5.72207">
        <ele>681.9</ele>
        <time>2022-07-16T08:19:36Z</time>
      </trkpt>
      <trkpt lat="44.87422" lon="5.72219">
        <ele>682.3</ele>
        <time>2022-07-16T08:19:39Z</time>
      </trkpt>
      <trkpt lat="44.87417" lon="5.72223">
        <ele>682.4</ele>
        <time>2022-07-16T08:19:41Z</time>
      </trkpt>
      <trkpt lat="44.87415" lon="5.72224">
        <ele>682.4</ele>
        <time>2022-07-16T08:19:42Z</time>
      </trkpt>
      <trkpt lat="44.87419" lon="5.72225">
        <ele>682.5</ele>
        <time>2022-07-16T08:19:44Z</time>
      </trkpt>
      <trkpt lat="44.8742" lon="5.72224">
        <ele>682.5</ele>
        <time>2022-07-16T08:19:47Z</time>
      </trkpt>
      <trkpt lat="44.8742" lon="5.72224">
        <ele>682.5</ele>
        <time>2022-07-16T08:19:48Z</time>
      </trkpt>
      <trkpt lat="44.8742" lon="5.72224">
        <ele>682.6</ele>
        <time>2022-07-16T08:19:49Z</time>
      </trkpt>
      <trkpt lat="44.8742" lon="5.72223">
        <ele>682.6</ele>
        <time>2022-07-16T08:19:52Z</time>
      </trkpt>
      <trkpt lat="44.8742" lon="5.72223">
        <ele>682.6</ele>
        <time>2022-07-16T08:19:53Z</time>
      </trkpt>
      <trkpt lat="44.8742" lon="5.72223">
        <ele>682.6</ele>
        <time>2022-07-16T08:19:54Z</time>
      </trkpt>
      <trkpt lat="44.87419" lon="5.72221">
        <ele>682.6</ele>
        <time>2022-07-16T08:20:07Z</time>
      </trkpt>
      <trkpt lat="44.87419" lon="5.72221">
        <ele>682.6</ele>
        <time>2022-07-16T08:20:08Z</time>
      </trkpt>
      <trkpt lat="44.87419" lon="5.72221">
        <ele>682.6</ele>
        <time>2022-07-16T08:20:09Z</time>
      </trkpt>
      <trkpt lat="44.87419" lon="5.72221">
        <ele>682.6</ele>
        <time>2022-07-16T08:20:10Z</time>
      </trkpt>
      <trkpt lat="44.87419" lon="5.72221">
        <ele>682.6</ele>
        <time>2022-07-16T08:20:11Z</time>
      </trkpt>
      <trkpt lat="44.87419" lon="5.72221">
        <ele>682.6</ele>
        <time>2022-07-16T08:20:12Z</time>
      </trkpt>
      <trkpt lat="44.87419" lon="5.72221">
        <ele>682.6</ele>
        <time>2022-07-16T08:20:13Z</time>
      </trkpt>
      <trkpt lat="44.87419" lon="5.72221">
        <ele>682.6</ele>
        <time>2022-07-16T08:20:14Z</time>
      </trkpt>
      <trkpt lat="44.87419" lon="5.72221">
        <ele>682.6</ele>
        <time>2022-07-16T08:20:15Z</time>
      </trkpt>
      <trkpt lat="44.87419" lon="5.72221">
        <ele>682.6</ele>
        <time>2022-07-16T08:20:16Z</time>
      </trkpt>
      <trkpt lat="44.87419" lon="5.72221">
        <ele>682.6</ele>
        <time>2022-07-16T08:20:17Z</time>
      </trkpt>
      <trkpt lat="44.87419" lon="5.72221">
        <ele>682.6</ele>
        <time>2022-07-16T08:20:18Z</time>
      </trkpt>
      <trkpt lat="44.87419" lon="5.72221">
        <ele>682.6</ele>
        <time>2022-07-16T08:20:19Z</time>
      </trkpt>
      <trkpt lat="44.87419" lon="5.72221">
        <ele>682.6</ele>
        <time>2022-07-16T08:20:20Z</time>
      </trkpt>
      <trkpt lat="44.87419" lon="5.72221">
        <ele>682.6</ele>
        <time>2022-07-16T08:20:21Z</time>
      </trkpt>
      <trkpt lat="44.87419" lon="5.72221">
        <ele>682.6</ele>
        <time>2022-07-16T08:20:22Z</time>
      </trkpt>
      <trkpt lat="44.87419" lon="5.72221">
        <ele>682.6</ele>
        <time>2022-07-16T08:20:23Z</time>
      </trkpt>
      <trkpt lat="44.87419" lon="5.72221">
        <ele>682.6</ele>
        <time>2022-07-16T08:20:24Z</time>
      </trkpt>
      <trkpt lat="44.87419" lon="5.72221">
        <ele>682.6</ele>
        <time>2022-07-16T08:20:25Z</time>
      </trkpt>
      <trkpt lat="44.87419" lon="5.72221">
        <ele>682.6</ele>
        <time>2022-07-16T08:20:26Z</time>
      </trkpt>
      <trkpt lat="44.87419" lon="5.72221">
        <ele>682.6</ele>
        <time>2022-07-16T08:20:27Z</time>
      </trkpt>
      <trkpt lat="44.87419" lon="5.72221">
        <ele>682.6</ele>
        <time>2022-07-16T08:20:28Z</time>
      </trkpt>
      <trkpt lat="44.87419" lon="5.72221">
        <ele>682.6</ele>
        <time>2022-07-16T08:20:29Z</time>
      </trkpt>
      <trkpt lat="44.87419" lon="5.72221">
        <ele>682.6</ele>
        <time>2022-07-16T08:20:30Z</time>
      </trkpt>
      <trkpt lat="44.87419" lon="5.72221">
        <ele>682.6</ele>
        <time>2022-07-16T08:20:31Z</time>
      </trkpt>
      <trkpt lat="44.87419" lon="5.72221">
        <ele>682.6</ele>
        <time>2022-07-16T08:20:32Z</time>
      </trkpt>
      <trkpt lat="44.87419" lon="5.72221">
        <ele>682.6</ele>
        <time>2022-07-16T08:20:33Z</time>
      </trkpt>
      <trkpt lat="44.87419" lon="5.72221">
        <ele>682.6</ele>
        <time>2022-07-16T08:20:34Z</time>
      </trkpt>
      <trkpt lat="44.87419" lon="5.72221">
        <ele>682.6</ele>
        <time>2022-07-16T08:20:35Z</time>
      </trkpt>
      <trkpt lat="44.87419" lon="5.72221">
        <ele>682.6</ele>
        <time>2022-07-16T08:20:36Z</time>
      </trkpt>
      <trkpt lat="44.87419" lon="5.72221">
        <ele>682.6</ele>
        <time>2022-07-16T08:20:37Z</time>
      </trkpt>
      <trkpt lat="44.87419" lon="5.72221">
        <ele>682.6</ele>
        <time>2022-07-16T08:20:38Z</time>
      </trkpt>
      <trkpt lat="44.87419" lon="5.72221">
        <ele>682.6</ele>
        <time>2022-07-16T08:20:39Z</time>
      </trkpt>
      <trkpt lat="44.87419" lon="5.72221">
        <ele>682.6</ele>
        <time>2022-07-16T08:20:40Z</time>
      </trkpt>
      <trkpt lat="44.87419" lon="5.72221">
        <ele>682.6</ele>
        <time>2022-07-16T08:20:41Z</time>
      </trkpt>
      <trkpt lat="44.87419" lon="5.72221">
        <ele>682.6</ele>
        <time>2022-07-16T08:20:42Z</time>
      </trkpt>
      <trkpt lat="44.87419" lon="5.72221">
        <ele>682.6</ele>
        <time>2022-07-16T08:20:43Z</time>
      </trkpt>
      <trkpt lat="44.87419" lon="5.72221">
        <ele>682.6</ele>
        <time>2022-07-16T08:20:44Z</time>
      </trkpt>
      <trkpt lat="44.87419" lon="5.72221">
        <ele>682.6</ele>
        <time>2022-07-16T08:20:45Z</time>
      </trkpt>
      <trkpt lat="44.87419" lon="5.72221">
        <ele>682.6</ele>
        <time>2022-07-16T08:20:46Z</time>
      </trkpt>
      <trkpt lat="44.87419" lon="5.72221">
        <ele>682.6</ele>
        <time>2022-07-16T08:20:47Z</time>
      </trkpt>
      <trkpt lat="44.87419" lon="5.72221">
        <ele>682.6</ele>
        <time>2022-07-16T08:20:48Z</time>
      </trkpt>
      <trkpt lat="44.87419" lon="5.72221">
        <ele>682.6</ele>
        <time>2022-07-16T08:20:49Z</time>
      </trkpt>
      <trkpt lat="44.87419" lon="5.72221">
        <ele>682.6</ele>
        <time>2022-07-16T08:20:50Z</time>
      </trkpt>
      <trkpt lat="44.87419" lon="5.72221">
        <ele>682.6</ele>
        <time>2022-07-16T08:20:51Z</time>
      </trkpt>
      <trkpt lat="44.87419" lon="5.72221">
        <ele>682.6</ele>
        <time>2022-07-16T08:20:52Z</time>
      </trkpt>
      <trkpt lat="44.87419" lon="5.72221">
        <ele>682.6</ele>
        <time>2022-07-16T08:20:53Z</time>
      </trkpt>
      <trkpt lat="44.87419" lon="5.72221">
        <ele>682.6</ele>
        <time>2022-07-16T08:20:54Z</time>
      </trkpt>
      <trkpt lat="44.87419" lon="5.72221">
        <ele>682.6</ele>
        <time>2022-07-16T08:20:55Z</time>
      </trkpt>
      <trkpt lat="44.87419" lon="5.72221">
        <ele>682.6</ele>
        <time>2022-07-16T08:20:56Z</time>
      </trkpt>
      <trkpt lat="44.87419" lon="5.72221">
        <ele>682.6</ele>
        <time>2022-07-16T08:20:57Z</time>
      </trkpt>
      <trkpt lat="44.87419" lon="5.72221">
        <ele>682.6</ele>
        <time>2022-07-16T08:20:58Z</time>
      </trkpt>
      <trkpt lat="44.87419" lon="5.72221">
        <ele>682.6</ele>
        <time>2022-07-16T08:20:59Z</time>
      </trkpt>
      <trkpt lat="44.87419" lon="5.72221">
        <ele>682.6</ele>
        <time>2022-07-16T08:21:00Z</time>
      </trkpt>
      <trkpt lat="44.87419" lon="5.72221">
        <ele>682.6</ele>
        <time>2022-07-16T08:21:01Z</time>
      </trkpt>
      <trkpt lat="44.87419" lon="5.72221">
        <ele>682.6</ele>
        <time>2022-07-16T08:21:02Z</time>
      </trkpt>
      <trkpt lat="44.87419" lon="5.72221">
        <ele>682.6</ele>
        <time>2022-07-16T08:21:03Z</time>
      </trkpt>
      <trkpt lat="44.87419" lon="5.72221">
        <ele>682.6</ele>
        <time>2022-07-16T08:21:04Z</time>
      </trkpt>
      <trkpt lat="44.87419" lon="5.72221">
        <ele>682.6</ele>
        <time>2022-07-16T08:21:05Z</time>
      </trkpt>
      <trkpt lat="44.87419" lon="5.72221">
        <ele>682.6</ele>
        <time>2022-07-16T08:21:06Z</time>
      </trkpt>
      <trkpt lat="44.87419" lon="5.72221">
        <ele>682.6</ele>
        <time>2022-07-16T08:21:07Z</time>
      </trkpt>
      <trkpt lat="44.87419" lon="5.72221">
        <ele>682.6</ele>
        <time>2022-07-16T08:21:08Z</time>
      </trkpt>
      <trkpt lat="44.87419" lon="5.72221">
        <ele>682.6</ele>
        <time>2022-07-16T08:21:09Z</time>
      </trkpt>
      <trkpt lat="44.87419" lon="5.72221">
        <ele>682.6</ele>
        <time>2022-07-16T08:21:10Z</time>
      </trkpt>
      <trkpt lat="44.87419" lon="5.72221">
        <ele>682.6</ele>
        <time>2022-07-16T08:21:11Z</time>
      </trkpt>
      <trkpt lat="44.87419" lon="5.72221">
        <ele>682.6</ele>
        <time>2022-07-16T08:21:12Z</time>
      </trkpt>
      <trkpt lat="44.87419" lon="5.72221">
        <ele>682.6</ele>
        <time>2022-07-16T08:21:13Z</time>
      </trkpt>
      <trkpt lat="44.87419" lon="5.72221">
        <ele>682.6</ele>
        <time>2022-07-16T08:21:14Z</time>
      </trkpt>
      <trkpt lat="44.87419" lon="5.72221">
        <ele>682.6</ele>
        <time>2022-07-16T08:21:15Z</time>
      </trkpt>
      <trkpt lat="44.87419" lon="5.72222">
        <ele>682.6</ele>
        <time>2022-07-16T08:21:16Z</time>
      </trkpt>
      <trkpt lat="44.87419" lon="5.72222">
        <ele>682.6</ele>
        <time>2022-07-16T08:21:17Z</time>
      </trkpt>
      <trkpt lat="44.87419" lon="5.72222">
        <ele>682.6</ele>
        <time>2022-07-16T08:21:18Z</time>
      </trkpt>
      <trkpt lat="44.87419" lon="5.72222">
        <ele>682.6</ele>
        <time>2022-07-16T08:21:19Z</time>
      </trkpt>
      <trkpt lat="44.87419" lon="5.72222">
        <ele>682.6</ele>
        <time>2022-07-16T08:21:20Z</time>
      </trkpt>
      <trkpt lat="44.87419" lon="5.72222">
        <ele>682.6</ele>
        <time>2022-07-16T08:21:21Z</time>
      </trkpt>
      <trkpt lat="44.87419" lon="5.72223">
        <ele>682.6</ele>
        <time>2022-07-16T08:21:22Z</time>
      </trkpt>
      <trkpt lat="44.87419" lon="5.72223">
        <ele>682.6</ele>
        <time>2022-07-16T08:21:23Z</time>
      </trkpt>
      <trkpt lat="44.87419" lon="5.72223">
        <ele>682.6</ele>
        <time>2022-07-16T08:21:24Z</time>
      </trkpt>
      <trkpt lat="44.87419" lon="5.72223">
        <ele>682.6</ele>
        <time>2022-07-16T08:21:25Z</time>
      </trkpt>
      <trkpt lat="44.87419" lon="5.72223">
        <ele>682.6</ele>
        <time>2022-07-16T08:21:26Z</time>
      </trkpt>
      <trkpt lat="44.87419" lon="5.72223">
        <ele>682.6</ele>
        <time>2022-07-16T08:21:27Z</time>
      </trkpt>
      <trkpt lat="44.87419" lon="5.72223">
        <ele>682.6</ele>
        <time>2022-07-16T08:21:28Z</time>
      </trkpt>
      <trkpt lat="44.87419" lon="5.72223">
        <ele>682.6</ele>
        <time>2022-07-16T08:21:29Z</time>
      </trkpt>
      <trkpt lat="44.87419" lon="5.72223">
        <ele>682.6</ele>
        <time>2022-07-16T08:21:30Z</time>
      </trkpt>
      <trkpt lat="44.87419" lon="5.72223">
        <ele>682.6</ele>
        <time>2022-07-16T08:21:31Z</time>
      </trkpt>
      <trkpt lat="44.87419" lon="5.72223">
        <ele>682.6</ele>
        <time>2022-07-16T08:21:32Z</time>
      </trkpt>
      <trkpt lat="44.87419" lon="5.72223">
        <ele>682.6</ele>
        <time>2022-07-16T08:21:33Z</time>
      </trkpt>
      <trkpt lat="44.87419" lon="5.72223">
        <ele>682.6</ele>
        <time>2022-07-16T08:21:34Z</time>
      </trkpt>
      <trkpt lat="44.87419" lon="5.72223">
        <ele>682.6</ele>
        <time>2022-07-16T08:21:35Z</time>
      </trkpt>
      <trkpt lat="44.87419" lon="5.72223">
        <ele>682.6</ele>
        <time>2022-07-16T08:21:36Z</time>
      </trkpt>
      <trkpt lat="44.87419" lon="5.72223">
        <ele>682.6</ele>
        <time>2022-07-16T08:21:37Z</time>
      </trkpt>
      <trkpt lat="44.87419" lon="5.72223">
        <ele>682.6</ele>
        <time>2022-07-16T08:21:38Z</time>
      </trkpt>
      <trkpt lat="44.87419" lon="5.72224">
        <ele>682.7</ele>
        <time>2022-07-16T08:21:39Z</time>
      </trkpt>
      <trkpt lat="44.87419" lon="5.72225">
        <ele>682.7</ele>
        <time>2022-07-16T08:21:40Z</time>
      </trkpt>
      <trkpt lat="44.8742" lon="5.72225">
        <ele>682.7</ele>
        <time>2022-07-16T08:21:41Z</time>
      </trkpt>
      <trkpt lat="44.8742" lon="5.72226">
        <ele>682.7</ele>
        <time>2022-07-16T08:21:42Z</time>
      </trkpt>
      <trkpt lat="44.87419" lon="5.72226">
        <ele>682.7</ele>
        <time>2022-07-16T08:21:43Z</time>
      </trkpt>
      <trkpt lat="44.87419" lon="5.72227">
        <ele>682.7</ele>
        <time>2022-07-16T08:21:44Z</time>
      </trkpt>
      <trkpt lat="44.87418" lon="5.72227">
        <ele>682.7</ele>
        <time>2022-07-16T08:21:45Z</time>
      </trkpt>
      <trkpt lat="44.87418" lon="5.72228">
        <ele>682.7</ele>
        <time>2022-07-16T08:21:46Z</time>
      </trkpt>
      <trkpt lat="44.87417" lon="5.72228">
        <ele>682.8</ele>
        <time>2022-07-16T08:21:47Z</time>
      </trkpt>
      <trkpt lat="44.87417" lon="5.72229">
        <ele>682.8</ele>
        <time>2022-07-16T08:21:48Z</time>
      </trkpt>
      <trkpt lat="44.87416" lon="5.72229">
        <ele>682.8</ele>
        <time>2022-07-16T08:21:49Z</time>
      </trkpt>
      <trkpt lat="44.87415" lon="5.72229">
        <ele>682.8</ele>
        <time>2022-07-16T08:21:50Z</time>
      </trkpt>
      <trkpt lat="44.87411" lon="5.72236">
        <ele>682.9</ele>
        <time>2022-07-16T08:21:51Z</time>
      </trkpt>
      <trkpt lat="44.87409" lon="5.72253">
        <ele>683.6</ele>
        <time>2022-07-16T08:21:54Z</time>
      </trkpt>
      <trkpt lat="44.87407" lon="5.72259">
        <ele>683.8</ele>
        <time>2022-07-16T08:21:55Z</time>
      </trkpt>
      <trkpt lat="44.87406" lon="5.72263">
        <ele>683.9</ele>
        <time>2022-07-16T08:21:56Z</time>
      </trkpt>
      <trkpt lat="44.874" lon="5.72274">
        <ele>684.3</ele>
        <time>2022-07-16T08:21:59Z</time>
      </trkpt>
      <trkpt lat="44.87393" lon="5.72285">
        <ele>684.8</ele>
        <time>2022-07-16T08:22:01Z</time>
      </trkpt>
      <trkpt lat="44.8739" lon="5.72291">
        <ele>685</ele>
        <time>2022-07-16T08:22:03Z</time>
      </trkpt>
      <trkpt lat="44.87387" lon="5.723">
        <ele>685.3</ele>
        <time>2022-07-16T08:22:04Z</time>
      </trkpt>
      <trkpt lat="44.87384" lon="5.72303">
        <ele>685.4</ele>
        <time>2022-07-16T08:22:06Z</time>
      </trkpt>
      <trkpt lat="44.87381" lon="5.72306">
        <ele>685.6</ele>
        <time>2022-07-16T08:22:07Z</time>
      </trkpt>
      <trkpt lat="44.87377" lon="5.72314">
        <ele>686</ele>
        <time>2022-07-16T08:22:08Z</time>
      </trkpt>
      <trkpt lat="44.87375" lon="5.72319">
        <ele>686.2</ele>
        <time>2022-07-16T08:22:10Z</time>
      </trkpt>
      <trkpt lat="44.87372" lon="5.72322">
        <ele>686.3</ele>
        <time>2022-07-16T08:22:11Z</time>
      </trkpt>
      <trkpt lat="44.8737" lon="5.72327">
        <ele>686.6</ele>
        <time>2022-07-16T08:22:12Z</time>
      </trkpt>
      <trkpt lat="44.87366" lon="5.72333">
        <ele>686.9</ele>
        <time>2022-07-16T08:22:14Z</time>
      </trkpt>
      <trkpt lat="44.87364" lon="5.72341">
        <ele>687.2</ele>
        <time>2022-07-16T08:22:15Z</time>
      </trkpt>
      <trkpt lat="44.87361" lon="5.72344">
        <ele>687.5</ele>
        <time>2022-07-16T08:22:16Z</time>
      </trkpt>
      <trkpt lat="44.8736" lon="5.72349">
        <ele>687.7</ele>
        <time>2022-07-16T08:22:18Z</time>
      </trkpt>
      <trkpt lat="44.87359" lon="5.72353">
        <ele>687.8</ele>
        <time>2022-07-16T08:22:19Z</time>
      </trkpt>
      <trkpt lat="44.87356" lon="5.72363">
        <ele>688.2</ele>
        <time>2022-07-16T08:22:21Z</time>
      </trkpt>
      <trkpt lat="44.87353" lon="5.7237">
        <ele>688.5</ele>
        <time>2022-07-16T08:22:22Z</time>
      </trkpt>
      <trkpt lat="44.87354" lon="5.72376">
        <ele>688.7</ele>
        <time>2022-07-16T08:22:24Z</time>
      </trkpt>
      <trkpt lat="44.87354" lon="5.72379">
        <ele>688.8</ele>
        <time>2022-07-16T08:22:25Z</time>
      </trkpt>
      <trkpt lat="44.87354" lon="5.72385">
        <ele>689</ele>
        <time>2022-07-16T08:22:27Z</time>
      </trkpt>
      <trkpt lat="44.87353" lon="5.7239">
        <ele>689.1</ele>
        <time>2022-07-16T08:22:28Z</time>
      </trkpt>
      <trkpt lat="44.87353" lon="5.72396">
        <ele>689.3</ele>
        <time>2022-07-16T08:22:29Z</time>
      </trkpt>
      <trkpt lat="44.87353" lon="5.72402">
        <ele>689.4</ele>
        <time>2022-07-16T08:22:30Z</time>
      </trkpt>
      <trkpt lat="44.87353" lon="5.72407">
        <ele>689.6</ele>
        <time>2022-07-16T08:22:31Z</time>
      </trkpt>
      <trkpt lat="44.87354" lon="5.72417">
        <ele>689.8</ele>
        <time>2022-07-16T08:22:33Z</time>
      </trkpt>
      <trkpt lat="44.87355" lon="5.72423">
        <ele>690</ele>
        <time>2022-07-16T08:22:34Z</time>
      </trkpt>
      <trkpt lat="44.87357" lon="5.7243">
        <ele>690.2</ele>
        <time>2022-07-16T08:22:37Z</time>
      </trkpt>
      <trkpt lat="44.87359" lon="5.72435">
        <ele>690.4</ele>
        <time>2022-07-16T08:22:38Z</time>
      </trkpt>
      <trkpt lat="44.87361" lon="5.72439">
        <ele>690.5</ele>
        <time>2022-07-16T08:22:39Z</time>
      </trkpt>
      <trkpt lat="44.87363" lon="5.72443">
        <ele>690.7</ele>
        <time>2022-07-16T08:22:40Z</time>
      </trkpt>
      <trkpt lat="44.87366" lon="5.72447">
        <ele>690.9</ele>
        <time>2022-07-16T08:22:41Z</time>
      </trkpt>
      <trkpt lat="44.8737" lon="5.72451">
        <ele>691</ele>
        <time>2022-07-16T08:22:42Z</time>
      </trkpt>
      <trkpt lat="44.87373" lon="5.72453">
        <ele>691.2</ele>
        <time>2022-07-16T08:22:43Z</time>
      </trkpt>
      <trkpt lat="44.87376" lon="5.72455">
        <ele>691.3</ele>
        <time>2022-07-16T08:22:44Z</time>
      </trkpt>
      <trkpt lat="44.87379" lon="5.72458">
        <ele>691.5</ele>
        <time>2022-07-16T08:22:45Z</time>
      </trkpt>
      <trkpt lat="44.87383" lon="5.72459">
        <ele>691.6</ele>
        <time>2022-07-16T08:22:46Z</time>
      </trkpt>
      <trkpt lat="44.87387" lon="5.7246">
        <ele>691.6</ele>
        <time>2022-07-16T08:22:47Z</time>
      </trkpt>
      <trkpt lat="44.8739" lon="5.7246">
        <ele>691.7</ele>
        <time>2022-07-16T08:22:48Z</time>
      </trkpt>
      <trkpt lat="44.87393" lon="5.7246">
        <ele>691.8</ele>
        <time>2022-07-16T08:22:49Z</time>
      </trkpt>
      <trkpt lat="44.87397" lon="5.72461">
        <ele>691.8</ele>
        <time>2022-07-16T08:22:50Z</time>
      </trkpt>
      <trkpt lat="44.87402" lon="5.72462">
        <ele>691.8</ele>
        <time>2022-07-16T08:22:51Z</time>
      </trkpt>
      <trkpt lat="44.87407" lon="5.72464">
        <ele>691.8</ele>
        <time>2022-07-16T08:22:52Z</time>
      </trkpt>
      <trkpt lat="44.87413" lon="5.72467">
        <ele>691.9</ele>
        <time>2022-07-16T08:22:53Z</time>
      </trkpt>
      <trkpt lat="44.87417" lon="5.72471">
        <ele>691.9</ele>
        <time>2022-07-16T08:22:54Z</time>
      </trkpt>
      <trkpt lat="44.87422" lon="5.72475">
        <ele>691.9</ele>
        <time>2022-07-16T08:22:55Z</time>
      </trkpt>
      <trkpt lat="44.87426" lon="5.7248">
        <ele>692</ele>
        <time>2022-07-16T08:22:56Z</time>
      </trkpt>
      <trkpt lat="44.87429" lon="5.72486">
        <ele>692.1</ele>
        <time>2022-07-16T08:22:57Z</time>
      </trkpt>
      <trkpt lat="44.87432" lon="5.72493">
        <ele>692.2</ele>
        <time>2022-07-16T08:22:58Z</time>
      </trkpt>
      <trkpt lat="44.87435" lon="5.72499">
        <ele>692.4</ele>
        <time>2022-07-16T08:22:59Z</time>
      </trkpt>
      <trkpt lat="44.87437" lon="5.72505">
        <ele>692.5</ele>
        <time>2022-07-16T08:23:00Z</time>
      </trkpt>
      <trkpt lat="44.8744" lon="5.72511">
        <ele>692.6</ele>
        <time>2022-07-16T08:23:01Z</time>
      </trkpt>
      <trkpt lat="44.87443" lon="5.72517">
        <ele>692.7</ele>
        <time>2022-07-16T08:23:02Z</time>
      </trkpt>
      <trkpt lat="44.87445" lon="5.72523">
        <ele>692.8</ele>
        <time>2022-07-16T08:23:03Z</time>
      </trkpt>
      <trkpt lat="44.87449" lon="5.72529">
        <ele>692.9</ele>
        <time>2022-07-16T08:23:04Z</time>
      </trkpt>
      <trkpt lat="44.87452" lon="5.72535">
        <ele>693</ele>
        <time>2022-07-16T08:23:05Z</time>
      </trkpt>
      <trkpt lat="44.87455" lon="5.72541">
        <ele>693</ele>
        <time>2022-07-16T08:23:06Z</time>
      </trkpt>
      <trkpt lat="44.87459" lon="5.72548">
        <ele>693.1</ele>
        <time>2022-07-16T08:23:07Z</time>
      </trkpt>
      <trkpt lat="44.87462" lon="5.72555">
        <ele>693.1</ele>
        <time>2022-07-16T08:23:08Z</time>
      </trkpt>
      <trkpt lat="44.87466" lon="5.72561">
        <ele>693.2</ele>
        <time>2022-07-16T08:23:09Z</time>
      </trkpt>
      <trkpt lat="44.87469" lon="5.72568">
        <ele>693.3</ele>
        <time>2022-07-16T08:23:10Z</time>
      </trkpt>
      <trkpt lat="44.87473" lon="5.72575">
        <ele>693.4</ele>
        <time>2022-07-16T08:23:11Z</time>
      </trkpt>
      <trkpt lat="44.87476" lon="5.72582">
        <ele>693.5</ele>
        <time>2022-07-16T08:23:12Z</time>
      </trkpt>
      <trkpt lat="44.87478" lon="5.72588">
        <ele>693.7</ele>
        <time>2022-07-16T08:23:13Z</time>
      </trkpt>
      <trkpt lat="44.87481" lon="5.72593">
        <ele>693.8</ele>
        <time>2022-07-16T08:23:14Z</time>
      </trkpt>
      <trkpt lat="44.87484" lon="5.72599">
        <ele>693.9</ele>
        <time>2022-07-16T08:23:15Z</time>
      </trkpt>
      <trkpt lat="44.87486" lon="5.72604">
        <ele>694</ele>
        <time>2022-07-16T08:23:16Z</time>
      </trkpt>
      <trkpt lat="44.87489" lon="5.72608">
        <ele>694</ele>
        <time>2022-07-16T08:23:17Z</time>
      </trkpt>
      <trkpt lat="44.87491" lon="5.72613">
        <ele>694.1</ele>
        <time>2022-07-16T08:23:18Z</time>
      </trkpt>
      <trkpt lat="44.87493" lon="5.72619">
        <ele>694.1</ele>
        <time>2022-07-16T08:23:19Z</time>
      </trkpt>
      <trkpt lat="44.87495" lon="5.72625">
        <ele>694.2</ele>
        <time>2022-07-16T08:23:20Z</time>
      </trkpt>
      <trkpt lat="44.87497" lon="5.72631">
        <ele>694.2</ele>
        <time>2022-07-16T08:23:21Z</time>
      </trkpt>
      <trkpt lat="44.875" lon="5.72637">
        <ele>694.2</ele>
        <time>2022-07-16T08:23:22Z</time>
      </trkpt>
      <trkpt lat="44.87502" lon="5.72644">
        <ele>694.2</ele>
        <time>2022-07-16T08:23:23Z</time>
      </trkpt>
      <trkpt lat="44.87505" lon="5.7265">
        <ele>694.1</ele>
        <time>2022-07-16T08:23:24Z</time>
      </trkpt>
      <trkpt lat="44.87508" lon="5.72655">
        <ele>694.1</ele>
        <time>2022-07-16T08:23:25Z</time>
      </trkpt>
      <trkpt lat="44.87511" lon="5.72661">
        <ele>694.1</ele>
        <time>2022-07-16T08:23:26Z</time>
      </trkpt>
      <trkpt lat="44.87513" lon="5.72668">
        <ele>694</ele>
        <time>2022-07-16T08:23:27Z</time>
      </trkpt>
      <trkpt lat="44.87516" lon="5.72675">
        <ele>694</ele>
        <time>2022-07-16T08:23:28Z</time>
      </trkpt>
      <trkpt lat="44.87518" lon="5.72682">
        <ele>693.9</ele>
        <time>2022-07-16T08:23:29Z</time>
      </trkpt>
      <trkpt lat="44.87521" lon="5.72689">
        <ele>693.9</ele>
        <time>2022-07-16T08:23:30Z</time>
      </trkpt>
      <trkpt lat="44.87523" lon="5.72697">
        <ele>693.9</ele>
        <time>2022-07-16T08:23:31Z</time>
      </trkpt>
      <trkpt lat="44.87525" lon="5.72704">
        <ele>694</ele>
        <time>2022-07-16T08:23:32Z</time>
      </trkpt>
      <trkpt lat="44.87526" lon="5.72713">
        <ele>694.1</ele>
        <time>2022-07-16T08:23:33Z</time>
      </trkpt>
      <trkpt lat="44.87527" lon="5.72721">
        <ele>694.2</ele>
        <time>2022-07-16T08:23:34Z</time>
      </trkpt>
      <trkpt lat="44.87527" lon="5.72729">
        <ele>694.3</ele>
        <time>2022-07-16T08:23:35Z</time>
      </trkpt>
      <trkpt lat="44.87526" lon="5.72735">
        <ele>694.4</ele>
        <time>2022-07-16T08:23:36Z</time>
      </trkpt>
      <trkpt lat="44.87524" lon="5.72741">
        <ele>694.5</ele>
        <time>2022-07-16T08:23:37Z</time>
      </trkpt>
      <trkpt lat="44.87523" lon="5.72747">
        <ele>694.6</ele>
        <time>2022-07-16T08:23:38Z</time>
      </trkpt>
      <trkpt lat="44.87521" lon="5.72753">
        <ele>694.7</ele>
        <time>2022-07-16T08:23:39Z</time>
      </trkpt>
      <trkpt lat="44.87518" lon="5.72758">
        <ele>694.7</ele>
        <time>2022-07-16T08:23:40Z</time>
      </trkpt>
      <trkpt lat="44.87514" lon="5.72763">
        <ele>694.8</ele>
        <time>2022-07-16T08:23:41Z</time>
      </trkpt>
      <trkpt lat="44.87511" lon="5.72768">
        <ele>694.7</ele>
        <time>2022-07-16T08:23:42Z</time>
      </trkpt>
      <trkpt lat="44.87507" lon="5.72773">
        <ele>694.7</ele>
        <time>2022-07-16T08:23:43Z</time>
      </trkpt>
      <trkpt lat="44.87504" lon="5.72777">
        <ele>694.7</ele>
        <time>2022-07-16T08:23:44Z</time>
      </trkpt>
      <trkpt lat="44.875" lon="5.72783">
        <ele>694.6</ele>
        <time>2022-07-16T08:23:45Z</time>
      </trkpt>
      <trkpt lat="44.87496" lon="5.72788">
        <ele>694.5</ele>
        <time>2022-07-16T08:23:46Z</time>
      </trkpt>
      <trkpt lat="44.87493" lon="5.72792">
        <ele>694.5</ele>
        <time>2022-07-16T08:23:47Z</time>
      </trkpt>
      <trkpt lat="44.87489" lon="5.72797">
        <ele>694.4</ele>
        <time>2022-07-16T08:23:48Z</time>
      </trkpt>
      <trkpt lat="44.87485" lon="5.72801">
        <ele>694.4</ele>
        <time>2022-07-16T08:23:49Z</time>
      </trkpt>
      <trkpt lat="44.87481" lon="5.72807">
        <ele>694.3</ele>
        <time>2022-07-16T08:23:50Z</time>
      </trkpt>
      <trkpt lat="44.87478" lon="5.72812">
        <ele>694.3</ele>
        <time>2022-07-16T08:23:51Z</time>
      </trkpt>
      <trkpt lat="44.87474" lon="5.72818">
        <ele>694.2</ele>
        <time>2022-07-16T08:23:52Z</time>
      </trkpt>
      <trkpt lat="44.8747" lon="5.72824">
        <ele>694.2</ele>
        <time>2022-07-16T08:23:53Z</time>
      </trkpt>
      <trkpt lat="44.87467" lon="5.72829">
        <ele>694.1</ele>
        <time>2022-07-16T08:23:54Z</time>
      </trkpt>
      <trkpt lat="44.87463" lon="5.72835">
        <ele>694.1</ele>
        <time>2022-07-16T08:23:55Z</time>
      </trkpt>
      <trkpt lat="44.8746" lon="5.7284">
        <ele>694</ele>
        <time>2022-07-16T08:23:56Z</time>
      </trkpt>
      <trkpt lat="44.87457" lon="5.72846">
        <ele>694</ele>
        <time>2022-07-16T08:23:57Z</time>
      </trkpt>
      <trkpt lat="44.87453" lon="5.72851">
        <ele>693.9</ele>
        <time>2022-07-16T08:23:58Z</time>
      </trkpt>
      <trkpt lat="44.8745" lon="5.72857">
        <ele>693.8</ele>
        <time>2022-07-16T08:23:59Z</time>
      </trkpt>
      <trkpt lat="44.87446" lon="5.72863">
        <ele>693.7</ele>
        <time>2022-07-16T08:24:00Z</time>
      </trkpt>
      <trkpt lat="44.87443" lon="5.7287">
        <ele>693.7</ele>
        <time>2022-07-16T08:24:01Z</time>
      </trkpt>
      <trkpt lat="44.8744" lon="5.72876">
        <ele>693.6</ele>
        <time>2022-07-16T08:24:02Z</time>
      </trkpt>
      <trkpt lat="44.87436" lon="5.72882">
        <ele>693.5</ele>
        <time>2022-07-16T08:24:03Z</time>
      </trkpt>
      <trkpt lat="44.87432" lon="5.72888">
        <ele>693.5</ele>
        <time>2022-07-16T08:24:04Z</time>
      </trkpt>
      <trkpt lat="44.87428" lon="5.72892">
        <ele>693.4</ele>
        <time>2022-07-16T08:24:05Z</time>
      </trkpt>
      <trkpt lat="44.87425" lon="5.72898">
        <ele>693.4</ele>
        <time>2022-07-16T08:24:06Z</time>
      </trkpt>
      <trkpt lat="44.87422" lon="5.72904">
        <ele>693.4</ele>
        <time>2022-07-16T08:24:07Z</time>
      </trkpt>
      <trkpt lat="44.87419" lon="5.7291">
        <ele>693.4</ele>
        <time>2022-07-16T08:24:08Z</time>
      </trkpt>
      <trkpt lat="44.87417" lon="5.72916">
        <ele>693.4</ele>
        <time>2022-07-16T08:24:09Z</time>
      </trkpt>
      <trkpt lat="44.87415" lon="5.72923">
        <ele>693.3</ele>
        <time>2022-07-16T08:24:10Z</time>
      </trkpt>
      <trkpt lat="44.87416" lon="5.72931">
        <ele>693.2</ele>
        <time>2022-07-16T08:24:11Z</time>
      </trkpt>
      <trkpt lat="44.87418" lon="5.72938">
        <ele>693.1</ele>
        <time>2022-07-16T08:24:12Z</time>
      </trkpt>
      <trkpt lat="44.87422" lon="5.72944">
        <ele>692.9</ele>
        <time>2022-07-16T08:24:13Z</time>
      </trkpt>
      <trkpt lat="44.87426" lon="5.72949">
        <ele>692.8</ele>
        <time>2022-07-16T08:24:14Z</time>
      </trkpt>
      <trkpt lat="44.8743" lon="5.72954">
        <ele>692.6</ele>
        <time>2022-07-16T08:24:15Z</time>
      </trkpt>
      <trkpt lat="44.87435" lon="5.72958">
        <ele>692.5</ele>
        <time>2022-07-16T08:24:16Z</time>
      </trkpt>
      <trkpt lat="44.8744" lon="5.72962">
        <ele>692.3</ele>
        <time>2022-07-16T08:24:17Z</time>
      </trkpt>
      <trkpt lat="44.87446" lon="5.72965">
        <ele>692.2</ele>
        <time>2022-07-16T08:24:18Z</time>
      </trkpt>
      <trkpt lat="44.87451" lon="5.72969">
        <ele>692.1</ele>
        <time>2022-07-16T08:24:19Z</time>
      </trkpt>
      <trkpt lat="44.87456" lon="5.72973">
        <ele>692</ele>
        <time>2022-07-16T08:24:20Z</time>
      </trkpt>
      <trkpt lat="44.87462" lon="5.72977">
        <ele>691.9</ele>
        <time>2022-07-16T08:24:21Z</time>
      </trkpt>
      <trkpt lat="44.87468" lon="5.7298">
        <ele>691.8</ele>
        <time>2022-07-16T08:24:22Z</time>
      </trkpt>
      <trkpt lat="44.87473" lon="5.72983">
        <ele>691.7</ele>
        <time>2022-07-16T08:24:23Z</time>
      </trkpt>
      <trkpt lat="44.87479" lon="5.72986">
        <ele>691.5</ele>
        <time>2022-07-16T08:24:24Z</time>
      </trkpt>
      <trkpt lat="44.87485" lon="5.72989">
        <ele>691.4</ele>
        <time>2022-07-16T08:24:25Z</time>
      </trkpt>
      <trkpt lat="44.87491" lon="5.72991">
        <ele>691.3</ele>
        <time>2022-07-16T08:24:26Z</time>
      </trkpt>
      <trkpt lat="44.87497" lon="5.72993">
        <ele>691.2</ele>
        <time>2022-07-16T08:24:27Z</time>
      </trkpt>
      <trkpt lat="44.87504" lon="5.72995">
        <ele>691.1</ele>
        <time>2022-07-16T08:24:28Z</time>
      </trkpt>
      <trkpt lat="44.8751" lon="5.72995">
        <ele>690.9</ele>
        <time>2022-07-16T08:24:29Z</time>
      </trkpt>
      <trkpt lat="44.87516" lon="5.72994">
        <ele>690.8</ele>
        <time>2022-07-16T08:24:30Z</time>
      </trkpt>
      <trkpt lat="44.87523" lon="5.72993">
        <ele>690.7</ele>
        <time>2022-07-16T08:24:31Z</time>
      </trkpt>
      <trkpt lat="44.87528" lon="5.72992">
        <ele>690.6</ele>
        <time>2022-07-16T08:24:32Z</time>
      </trkpt>
      <trkpt lat="44.87535" lon="5.7299">
        <ele>690.5</ele>
        <time>2022-07-16T08:24:33Z</time>
      </trkpt>
      <trkpt lat="44.87541" lon="5.72989">
        <ele>690.4</ele>
        <time>2022-07-16T08:24:34Z</time>
      </trkpt>
      <trkpt lat="44.87548" lon="5.72987">
        <ele>690.3</ele>
        <time>2022-07-16T08:24:35Z</time>
      </trkpt>
      <trkpt lat="44.87554" lon="5.72986">
        <ele>690.2</ele>
        <time>2022-07-16T08:24:36Z</time>
      </trkpt>
      <trkpt lat="44.8756" lon="5.72985">
        <ele>690.1</ele>
        <time>2022-07-16T08:24:37Z</time>
      </trkpt>
      <trkpt lat="44.87567" lon="5.72983">
        <ele>690</ele>
        <time>2022-07-16T08:24:38Z</time>
      </trkpt>
      <trkpt lat="44.87573" lon="5.72982">
        <ele>689.9</ele>
        <time>2022-07-16T08:24:39Z</time>
      </trkpt>
      <trkpt lat="44.8758" lon="5.72981">
        <ele>689.8</ele>
        <time>2022-07-16T08:24:40Z</time>
      </trkpt>
      <trkpt lat="44.87587" lon="5.72979">
        <ele>689.7</ele>
        <time>2022-07-16T08:24:41Z</time>
      </trkpt>
      <trkpt lat="44.87593" lon="5.72977">
        <ele>689.6</ele>
        <time>2022-07-16T08:24:42Z</time>
      </trkpt>
      <trkpt lat="44.876" lon="5.72975">
        <ele>689.5</ele>
        <time>2022-07-16T08:24:43Z</time>
      </trkpt>
      <trkpt lat="44.87606" lon="5.72974">
        <ele>689.4</ele>
        <time>2022-07-16T08:24:44Z</time>
      </trkpt>
      <trkpt lat="44.87613" lon="5.72972">
        <ele>689.3</ele>
        <time>2022-07-16T08:24:45Z</time>
      </trkpt>
      <trkpt lat="44.8762" lon="5.72971">
        <ele>689.2</ele>
        <time>2022-07-16T08:24:46Z</time>
      </trkpt>
      <trkpt lat="44.87626" lon="5.72969">
        <ele>689.1</ele>
        <time>2022-07-16T08:24:47Z</time>
      </trkpt>
      <trkpt lat="44.87633" lon="5.72967">
        <ele>689</ele>
        <time>2022-07-16T08:24:48Z</time>
      </trkpt>
      <trkpt lat="44.87639" lon="5.72964">
        <ele>688.9</ele>
        <time>2022-07-16T08:24:49Z</time>
      </trkpt>
      <trkpt lat="44.87645" lon="5.72962">
        <ele>688.7</ele>
        <time>2022-07-16T08:24:50Z</time>
      </trkpt>
      <trkpt lat="44.87651" lon="5.72961">
        <ele>688.6</ele>
        <time>2022-07-16T08:24:51Z</time>
      </trkpt>
      <trkpt lat="44.87658" lon="5.7296">
        <ele>688.5</ele>
        <time>2022-07-16T08:24:52Z</time>
      </trkpt>
      <trkpt lat="44.87665" lon="5.72961">
        <ele>688.4</ele>
        <time>2022-07-16T08:24:53Z</time>
      </trkpt>
      <trkpt lat="44.87671" lon="5.72962">
        <ele>688.3</ele>
        <time>2022-07-16T08:24:54Z</time>
      </trkpt>
      <trkpt lat="44.87677" lon="5.72964">
        <ele>688.2</ele>
        <time>2022-07-16T08:24:55Z</time>
      </trkpt>
      <trkpt lat="44.87684" lon="5.72964">
        <ele>688.1</ele>
        <time>2022-07-16T08:24:56Z</time>
      </trkpt>
      <trkpt lat="44.8769" lon="5.72964">
        <ele>687.9</ele>
        <time>2022-07-16T08:24:57Z</time>
      </trkpt>
      <trkpt lat="44.87697" lon="5.72963">
        <ele>687.8</ele>
        <time>2022-07-16T08:24:58Z</time>
      </trkpt>
      <trkpt lat="44.87704" lon="5.72962">
        <ele>687.7</ele>
        <time>2022-07-16T08:24:59Z</time>
      </trkpt>
      <trkpt lat="44.8771" lon="5.72961">
        <ele>687.5</ele>
        <time>2022-07-16T08:25:00Z</time>
      </trkpt>
      <trkpt lat="44.87717" lon="5.72961">
        <ele>687.4</ele>
        <time>2022-07-16T08:25:01Z</time>
      </trkpt>
      <trkpt lat="44.87724" lon="5.72961">
        <ele>687.3</ele>
        <time>2022-07-16T08:25:02Z</time>
      </trkpt>
      <trkpt lat="44.8773" lon="5.72961">
        <ele>687.2</ele>
        <time>2022-07-16T08:25:03Z</time>
      </trkpt>
      <trkpt lat="44.87738" lon="5.72961">
        <ele>687.1</ele>
        <time>2022-07-16T08:25:04Z</time>
      </trkpt>
      <trkpt lat="44.87745" lon="5.72962">
        <ele>686.9</ele>
        <time>2022-07-16T08:25:05Z</time>
      </trkpt>
      <trkpt lat="44.87752" lon="5.72963">
        <ele>686.8</ele>
        <time>2022-07-16T08:25:06Z</time>
      </trkpt>
      <trkpt lat="44.87759" lon="5.72964">
        <ele>686.7</ele>
        <time>2022-07-16T08:25:07Z</time>
      </trkpt>
      <trkpt lat="44.87766" lon="5.72965">
        <ele>686.6</ele>
        <time>2022-07-16T08:25:08Z</time>
      </trkpt>
      <trkpt lat="44.87772" lon="5.72966">
        <ele>686.6</ele>
        <time>2022-07-16T08:25:09Z</time>
      </trkpt>
      <trkpt lat="44.87779" lon="5.72967">
        <ele>686.5</ele>
        <time>2022-07-16T08:25:10Z</time>
      </trkpt>
      <trkpt lat="44.87785" lon="5.72967">
        <ele>686.4</ele>
        <time>2022-07-16T08:25:11Z</time>
      </trkpt>
      <trkpt lat="44.87791" lon="5.72969">
        <ele>686.4</ele>
        <time>2022-07-16T08:25:12Z</time>
      </trkpt>
      <trkpt lat="44.87797" lon="5.72971">
        <ele>686.3</ele>
        <time>2022-07-16T08:25:13Z</time>
      </trkpt>
      <trkpt lat="44.87804" lon="5.72973">
        <ele>686.2</ele>
        <time>2022-07-16T08:25:14Z</time>
      </trkpt>
      <trkpt lat="44.87811" lon="5.72975">
        <ele>686.2</ele>
        <time>2022-07-16T08:25:15Z</time>
      </trkpt>
      <trkpt lat="44.87818" lon="5.72976">
        <ele>686.2</ele>
        <time>2022-07-16T08:25:16Z</time>
      </trkpt>
      <trkpt lat="44.87825" lon="5.72978">
        <ele>686.1</ele>
        <time>2022-07-16T08:25:17Z</time>
      </trkpt>
      <trkpt lat="44.87832" lon="5.72981">
        <ele>686.1</ele>
        <time>2022-07-16T08:25:18Z</time>
      </trkpt>
      <trkpt lat="44.87838" lon="5.72984">
        <ele>686.2</ele>
        <time>2022-07-16T08:25:19Z</time>
      </trkpt>
      <trkpt lat="44.87843" lon="5.7299">
        <ele>686.2</ele>
        <time>2022-07-16T08:25:20Z</time>
      </trkpt>
      <trkpt lat="44.87848" lon="5.72994">
        <ele>686.3</ele>
        <time>2022-07-16T08:25:21Z</time>
      </trkpt>
      <trkpt lat="44.87853" lon="5.72999">
        <ele>686.4</ele>
        <time>2022-07-16T08:25:22Z</time>
      </trkpt>
      <trkpt lat="44.87858" lon="5.73006">
        <ele>686.5</ele>
        <time>2022-07-16T08:25:23Z</time>
      </trkpt>
      <trkpt lat="44.87859" lon="5.73015">
        <ele>686.5</ele>
        <time>2022-07-16T08:25:24Z</time>
      </trkpt>
      <trkpt lat="44.87857" lon="5.73023">
        <ele>686.5</ele>
        <time>2022-07-16T08:25:25Z</time>
      </trkpt>
      <trkpt lat="44.87853" lon="5.7303">
        <ele>686.5</ele>
        <time>2022-07-16T08:25:26Z</time>
      </trkpt>
      <trkpt lat="44.87848" lon="5.73037">
        <ele>686.5</ele>
        <time>2022-07-16T08:25:27Z</time>
      </trkpt>
      <trkpt lat="44.87843" lon="5.73043">
        <ele>686.5</ele>
        <time>2022-07-16T08:25:28Z</time>
      </trkpt>
      <trkpt lat="44.87838" lon="5.73048">
        <ele>686.5</ele>
        <time>2022-07-16T08:25:29Z</time>
      </trkpt>
      <trkpt lat="44.87832" lon="5.73051">
        <ele>686.5</ele>
        <time>2022-07-16T08:25:30Z</time>
      </trkpt>
      <trkpt lat="44.87827" lon="5.73053">
        <ele>686.5</ele>
        <time>2022-07-16T08:25:31Z</time>
      </trkpt>
      <trkpt lat="44.87821" lon="5.73055">
        <ele>686.5</ele>
        <time>2022-07-16T08:25:32Z</time>
      </trkpt>
      <trkpt lat="44.87815" lon="5.73057">
        <ele>686.5</ele>
        <time>2022-07-16T08:25:33Z</time>
      </trkpt>
      <trkpt lat="44.87809" lon="5.73058">
        <ele>686.5</ele>
        <time>2022-07-16T08:25:34Z</time>
      </trkpt>
      <trkpt lat="44.87804" lon="5.73058">
        <ele>686.5</ele>
        <time>2022-07-16T08:25:35Z</time>
      </trkpt>
      <trkpt lat="44.87798" lon="5.73058">
        <ele>686.6</ele>
        <time>2022-07-16T08:25:36Z</time>
      </trkpt>
      <trkpt lat="44.87792" lon="5.73059">
        <ele>686.6</ele>
        <time>2022-07-16T08:25:37Z</time>
      </trkpt>
      <trkpt lat="44.87787" lon="5.73059">
        <ele>686.6</ele>
        <time>2022-07-16T08:25:38Z</time>
      </trkpt>
      <trkpt lat="44.87781" lon="5.73059">
        <ele>686.7</ele>
        <time>2022-07-16T08:25:39Z</time>
      </trkpt>
      <trkpt lat="44.87776" lon="5.7306">
        <ele>686.7</ele>
        <time>2022-07-16T08:25:40Z</time>
      </trkpt>
      <trkpt lat="44.8777" lon="5.73062">
        <ele>686.7</ele>
        <time>2022-07-16T08:25:41Z</time>
      </trkpt>
      <trkpt lat="44.87765" lon="5.73065">
        <ele>686.8</ele>
        <time>2022-07-16T08:25:42Z</time>
      </trkpt>
      <trkpt lat="44.8776" lon="5.73068">
        <ele>686.8</ele>
        <time>2022-07-16T08:25:43Z</time>
      </trkpt>
      <trkpt lat="44.87756" lon="5.73072">
        <ele>686.8</ele>
        <time>2022-07-16T08:25:44Z</time>
      </trkpt>
      <trkpt lat="44.87751" lon="5.73077">
        <ele>686.8</ele>
        <time>2022-07-16T08:25:45Z</time>
      </trkpt>
      <trkpt lat="44.87747" lon="5.73083">
        <ele>686.9</ele>
        <time>2022-07-16T08:25:46Z</time>
      </trkpt>
      <trkpt lat="44.87743" lon="5.73089">
        <ele>686.9</ele>
        <time>2022-07-16T08:25:47Z</time>
      </trkpt>
      <trkpt lat="44.8774" lon="5.73095">
        <ele>686.9</ele>
        <time>2022-07-16T08:25:48Z</time>
      </trkpt>
      <trkpt lat="44.87736" lon="5.73101">
        <ele>687</ele>
        <time>2022-07-16T08:25:49Z</time>
      </trkpt>
      <trkpt lat="44.87732" lon="5.73107">
        <ele>687</ele>
        <time>2022-07-16T08:25:50Z</time>
      </trkpt>
      <trkpt lat="44.87729" lon="5.73114">
        <ele>687</ele>
        <time>2022-07-16T08:25:51Z</time>
      </trkpt>
      <trkpt lat="44.87726" lon="5.73119">
        <ele>687.1</ele>
        <time>2022-07-16T08:25:52Z</time>
      </trkpt>
      <trkpt lat="44.87722" lon="5.73125">
        <ele>687.1</ele>
        <time>2022-07-16T08:25:53Z</time>
      </trkpt>
      <trkpt lat="44.87719" lon="5.7313">
        <ele>687.1</ele>
        <time>2022-07-16T08:25:54Z</time>
      </trkpt>
      <trkpt lat="44.87715" lon="5.73135">
        <ele>687.2</ele>
        <time>2022-07-16T08:25:55Z</time>
      </trkpt>
      <trkpt lat="44.87711" lon="5.73139">
        <ele>687.2</ele>
        <time>2022-07-16T08:25:56Z</time>
      </trkpt>
      <trkpt lat="44.87708" lon="5.73145">
        <ele>687.3</ele>
        <time>2022-07-16T08:25:57Z</time>
      </trkpt>
      <trkpt lat="44.87704" lon="5.73151">
        <ele>687.3</ele>
        <time>2022-07-16T08:25:58Z</time>
      </trkpt>
      <trkpt lat="44.87701" lon="5.73157">
        <ele>687.4</ele>
        <time>2022-07-16T08:25:59Z</time>
      </trkpt>
      <trkpt lat="44.87699" lon="5.73163">
        <ele>687.5</ele>
        <time>2022-07-16T08:26:00Z</time>
      </trkpt>
      <trkpt lat="44.87697" lon="5.7317">
        <ele>687.5</ele>
        <time>2022-07-16T08:26:01Z</time>
      </trkpt>
      <trkpt lat="44.87695" lon="5.73177">
        <ele>687.5</ele>
        <time>2022-07-16T08:26:02Z</time>
      </trkpt>
      <trkpt lat="44.87695" lon="5.73185">
        <ele>687.6</ele>
        <time>2022-07-16T08:26:03Z</time>
      </trkpt>
      <trkpt lat="44.87695" lon="5.73193">
        <ele>687.6</ele>
        <time>2022-07-16T08:26:04Z</time>
      </trkpt>
      <trkpt lat="44.87695" lon="5.732">
        <ele>687.7</ele>
        <time>2022-07-16T08:26:05Z</time>
      </trkpt>
      <trkpt lat="44.87695" lon="5.73208">
        <ele>687.7</ele>
        <time>2022-07-16T08:26:06Z</time>
      </trkpt>
      <trkpt lat="44.87696" lon="5.73215">
        <ele>687.8</ele>
        <time>2022-07-16T08:26:07Z</time>
      </trkpt>
      <trkpt lat="44.87696" lon="5.73223">
        <ele>687.8</ele>
        <time>2022-07-16T08:26:08Z</time>
      </trkpt>
      <trkpt lat="44.87696" lon="5.7323">
        <ele>687.8</ele>
        <time>2022-07-16T08:26:09Z</time>
      </trkpt>
      <trkpt lat="44.87696" lon="5.73239">
        <ele>687.9</ele>
        <time>2022-07-16T08:26:10Z</time>
      </trkpt>
      <trkpt lat="44.87696" lon="5.73247">
        <ele>687.9</ele>
        <time>2022-07-16T08:26:11Z</time>
      </trkpt>
      <trkpt lat="44.87695" lon="5.73255">
        <ele>687.9</ele>
        <time>2022-07-16T08:26:12Z</time>
      </trkpt>
      <trkpt lat="44.87694" lon="5.73262">
        <ele>688</ele>
        <time>2022-07-16T08:26:13Z</time>
      </trkpt>
      <trkpt lat="44.87692" lon="5.73269">
        <ele>688</ele>
        <time>2022-07-16T08:26:14Z</time>
      </trkpt>
      <trkpt lat="44.8769" lon="5.73276">
        <ele>688</ele>
        <time>2022-07-16T08:26:15Z</time>
      </trkpt>
      <trkpt lat="44.87687" lon="5.73283">
        <ele>688</ele>
        <time>2022-07-16T08:26:16Z</time>
      </trkpt>
      <trkpt lat="44.87684" lon="5.73289">
        <ele>688</ele>
        <time>2022-07-16T08:26:17Z</time>
      </trkpt>
      <trkpt lat="44.87682" lon="5.73296">
        <ele>688</ele>
        <time>2022-07-16T08:26:18Z</time>
      </trkpt>
      <trkpt lat="44.8768" lon="5.73303">
        <ele>688</ele>
        <time>2022-07-16T08:26:19Z</time>
      </trkpt>
      <trkpt lat="44.87679" lon="5.73311">
        <ele>688</ele>
        <time>2022-07-16T08:26:20Z</time>
      </trkpt>
      <trkpt lat="44.87678" lon="5.73319">
        <ele>688</ele>
        <time>2022-07-16T08:26:21Z</time>
      </trkpt>
      <trkpt lat="44.87678" lon="5.73326">
        <ele>688</ele>
        <time>2022-07-16T08:26:22Z</time>
      </trkpt>
      <trkpt lat="44.87678" lon="5.73334">
        <ele>688</ele>
        <time>2022-07-16T08:26:23Z</time>
      </trkpt>
      <trkpt lat="44.87679" lon="5.73342">
        <ele>687.9</ele>
        <time>2022-07-16T08:26:24Z</time>
      </trkpt>
      <trkpt lat="44.87678" lon="5.7335">
        <ele>687.9</ele>
        <time>2022-07-16T08:26:25Z</time>
      </trkpt>
      <trkpt lat="44.87678" lon="5.73358">
        <ele>687.9</ele>
        <time>2022-07-16T08:26:26Z</time>
      </trkpt>
      <trkpt lat="44.87677" lon="5.73366">
        <ele>687.8</ele>
        <time>2022-07-16T08:26:27Z</time>
      </trkpt>
      <trkpt lat="44.87675" lon="5.73373">
        <ele>687.8</ele>
        <time>2022-07-16T08:26:28Z</time>
      </trkpt>
      <trkpt lat="44.87672" lon="5.73381">
        <ele>687.8</ele>
        <time>2022-07-16T08:26:29Z</time>
      </trkpt>
      <trkpt lat="44.87668" lon="5.73387">
        <ele>687.8</ele>
        <time>2022-07-16T08:26:30Z</time>
      </trkpt>
      <trkpt lat="44.87663" lon="5.73391">
        <ele>687.8</ele>
        <time>2022-07-16T08:26:31Z</time>
      </trkpt>
      <trkpt lat="44.87658" lon="5.73395">
        <ele>687.8</ele>
        <time>2022-07-16T08:26:32Z</time>
      </trkpt>
      <trkpt lat="44.87653" lon="5.73399">
        <ele>687.8</ele>
        <time>2022-07-16T08:26:33Z</time>
      </trkpt>
      <trkpt lat="44.87649" lon="5.73402">
        <ele>687.9</ele>
        <time>2022-07-16T08:26:34Z</time>
      </trkpt>
      <trkpt lat="44.87645" lon="5.73406">
        <ele>687.9</ele>
        <time>2022-07-16T08:26:35Z</time>
      </trkpt>
      <trkpt lat="44.87641" lon="5.73412">
        <ele>687.9</ele>
        <time>2022-07-16T08:26:36Z</time>
      </trkpt>
      <trkpt lat="44.87638" lon="5.73418">
        <ele>687.9</ele>
        <time>2022-07-16T08:26:37Z</time>
      </trkpt>
      <trkpt lat="44.87636" lon="5.73426">
        <ele>688</ele>
        <time>2022-07-16T08:26:38Z</time>
      </trkpt>
      <trkpt lat="44.87634" lon="5.73433">
        <ele>688</ele>
        <time>2022-07-16T08:26:39Z</time>
      </trkpt>
      <trkpt lat="44.87633" lon="5.73439">
        <ele>688.1</ele>
        <time>2022-07-16T08:26:40Z</time>
      </trkpt>
      <trkpt lat="44.87633" lon="5.73444">
        <ele>688.1</ele>
        <time>2022-07-16T08:26:41Z</time>
      </trkpt>
      <trkpt lat="44.87631" lon="5.73451">
        <ele>688.1</ele>
        <time>2022-07-16T08:26:42Z</time>
      </trkpt>
      <trkpt lat="44.8763" lon="5.73459">
        <ele>688.2</ele>
        <time>2022-07-16T08:26:43Z</time>
      </trkpt>
      <trkpt lat="44.87628" lon="5.73467">
        <ele>688.3</ele>
        <time>2022-07-16T08:26:44Z</time>
      </trkpt>
      <trkpt lat="44.87626" lon="5.73474">
        <ele>688.3</ele>
        <time>2022-07-16T08:26:45Z</time>
      </trkpt>
      <trkpt lat="44.87624" lon="5.73481">
        <ele>688.4</ele>
        <time>2022-07-16T08:26:46Z</time>
      </trkpt>
      <trkpt lat="44.87622" lon="5.73488">
        <ele>688.6</ele>
        <time>2022-07-16T08:26:47Z</time>
      </trkpt>
      <trkpt lat="44.87619" lon="5.73494">
        <ele>688.7</ele>
        <time>2022-07-16T08:26:48Z</time>
      </trkpt>
      <trkpt lat="44.87615" lon="5.73499">
        <ele>688.9</ele>
        <time>2022-07-16T08:26:49Z</time>
      </trkpt>
      <trkpt lat="44.87611" lon="5.73502">
        <ele>689</ele>
        <time>2022-07-16T08:26:50Z</time>
      </trkpt>
      <trkpt lat="44.87606" lon="5.73506">
        <ele>689.3</ele>
        <time>2022-07-16T08:26:51Z</time>
      </trkpt>
      <trkpt lat="44.87603" lon="5.73507">
        <ele>689.4</ele>
        <time>2022-07-16T08:26:52Z</time>
      </trkpt>
      <trkpt lat="44.87599" lon="5.73508">
        <ele>689.6</ele>
        <time>2022-07-16T08:26:53Z</time>
      </trkpt>
      <trkpt lat="44.87593" lon="5.73507">
        <ele>689.8</ele>
        <time>2022-07-16T08:26:54Z</time>
      </trkpt>
      <trkpt lat="44.87589" lon="5.73506">
        <ele>690</ele>
        <time>2022-07-16T08:26:55Z</time>
      </trkpt>
      <trkpt lat="44.87585" lon="5.73504">
        <ele>690.2</ele>
        <time>2022-07-16T08:26:56Z</time>
      </trkpt>
      <trkpt lat="44.87582" lon="5.73501">
        <ele>690.4</ele>
        <time>2022-07-16T08:26:57Z</time>
      </trkpt>
      <trkpt lat="44.87579" lon="5.73496">
        <ele>690.5</ele>
        <time>2022-07-16T08:26:58Z</time>
      </trkpt>
      <trkpt lat="44.87575" lon="5.7349">
        <ele>690.8</ele>
        <time>2022-07-16T08:26:59Z</time>
      </trkpt>
      <trkpt lat="44.87572" lon="5.73485">
        <ele>691</ele>
        <time>2022-07-16T08:27:00Z</time>
      </trkpt>
      <trkpt lat="44.8757" lon="5.7348">
        <ele>691.1</ele>
        <time>2022-07-16T08:27:01Z</time>
      </trkpt>
      <trkpt lat="44.87568" lon="5.73476">
        <ele>691.2</ele>
        <time>2022-07-16T08:27:02Z</time>
      </trkpt>
      <trkpt lat="44.87568" lon="5.73475">
        <ele>691.3</ele>
        <time>2022-07-16T08:27:03Z</time>
      </trkpt>
      <trkpt lat="44.87565" lon="5.7347">
        <ele>691.4</ele>
        <time>2022-07-16T08:27:04Z</time>
      </trkpt>
      <trkpt lat="44.87561" lon="5.73465">
        <ele>691.6</ele>
        <time>2022-07-16T08:27:05Z</time>
      </trkpt>
      <trkpt lat="44.87557" lon="5.7346">
        <ele>691.8</ele>
        <time>2022-07-16T08:27:06Z</time>
      </trkpt>
      <trkpt lat="44.87555" lon="5.73457">
        <ele>691.9</ele>
        <time>2022-07-16T08:27:07Z</time>
      </trkpt>
      <trkpt lat="44.87553" lon="5.73454">
        <ele>692</ele>
        <time>2022-07-16T08:27:08Z</time>
      </trkpt>
      <trkpt lat="44.8755" lon="5.73452">
        <ele>692.1</ele>
        <time>2022-07-16T08:27:09Z</time>
      </trkpt>
      <trkpt lat="44.87547" lon="5.73449">
        <ele>692.3</ele>
        <time>2022-07-16T08:27:10Z</time>
      </trkpt>
      <trkpt lat="44.87544" lon="5.73446">
        <ele>692.4</ele>
        <time>2022-07-16T08:27:11Z</time>
      </trkpt>
      <trkpt lat="44.87541" lon="5.73443">
        <ele>692.5</ele>
        <time>2022-07-16T08:27:12Z</time>
      </trkpt>
      <trkpt lat="44.87537" lon="5.73441">
        <ele>692.7</ele>
        <time>2022-07-16T08:27:13Z</time>
      </trkpt>
      <trkpt lat="44.87533" lon="5.73439">
        <ele>692.8</ele>
        <time>2022-07-16T08:27:14Z</time>
      </trkpt>
      <trkpt lat="44.87529" lon="5.73438">
        <ele>692.9</ele>
        <time>2022-07-16T08:27:15Z</time>
      </trkpt>
      <trkpt lat="44.87525" lon="5.73437">
        <ele>693</ele>
        <time>2022-07-16T08:27:16Z</time>
      </trkpt>
      <trkpt lat="44.8752" lon="5.73436">
        <ele>693.1</ele>
        <time>2022-07-16T08:27:17Z</time>
      </trkpt>
      <trkpt lat="44.87516" lon="5.73436">
        <ele>693.1</ele>
        <time>2022-07-16T08:27:18Z</time>
      </trkpt>
      <trkpt lat="44.8751" lon="5.73436">
        <ele>693.2</ele>
        <time>2022-07-16T08:27:19Z</time>
      </trkpt>
      <trkpt lat="44.87505" lon="5.73437">
        <ele>693.2</ele>
        <time>2022-07-16T08:27:20Z</time>
      </trkpt>
      <trkpt lat="44.875" lon="5.73439">
        <ele>693.3</ele>
        <time>2022-07-16T08:27:21Z</time>
      </trkpt>
      <trkpt lat="44.87495" lon="5.73441">
        <ele>693.3</ele>
        <time>2022-07-16T08:27:22Z</time>
      </trkpt>
      <trkpt lat="44.87492" lon="5.73442">
        <ele>693.4</ele>
        <time>2022-07-16T08:27:23Z</time>
      </trkpt>
      <trkpt lat="44.87488" lon="5.73445">
        <ele>693.4</ele>
        <time>2022-07-16T08:27:24Z</time>
      </trkpt>
      <trkpt lat="44.87484" lon="5.73447">
        <ele>693.5</ele>
        <time>2022-07-16T08:27:25Z</time>
      </trkpt>
      <trkpt lat="44.87481" lon="5.7345">
        <ele>693.5</ele>
        <time>2022-07-16T08:27:26Z</time>
      </trkpt>
      <trkpt lat="44.87477" lon="5.73452">
        <ele>693.6</ele>
        <time>2022-07-16T08:27:27Z</time>
      </trkpt>
      <trkpt lat="44.87474" lon="5.73454">
        <ele>693.6</ele>
        <time>2022-07-16T08:27:28Z</time>
      </trkpt>
      <trkpt lat="44.8747" lon="5.73456">
        <ele>693.7</ele>
        <time>2022-07-16T08:27:29Z</time>
      </trkpt>
      <trkpt lat="44.87466" lon="5.73459">
        <ele>693.8</ele>
        <time>2022-07-16T08:27:30Z</time>
      </trkpt>
      <trkpt lat="44.87462" lon="5.73462">
        <ele>693.8</ele>
        <time>2022-07-16T08:27:31Z</time>
      </trkpt>
      <trkpt lat="44.87459" lon="5.73465">
        <ele>693.9</ele>
        <time>2022-07-16T08:27:32Z</time>
      </trkpt>
      <trkpt lat="44.87455" lon="5.73469">
        <ele>694</ele>
        <time>2022-07-16T08:27:33Z</time>
      </trkpt>
      <trkpt lat="44.87452" lon="5.73473">
        <ele>694.1</ele>
        <time>2022-07-16T08:27:34Z</time>
      </trkpt>
      <trkpt lat="44.87448" lon="5.73477">
        <ele>694.2</ele>
        <time>2022-07-16T08:27:35Z</time>
      </trkpt>
      <trkpt lat="44.87444" lon="5.73481">
        <ele>694.4</ele>
        <time>2022-07-16T08:27:36Z</time>
      </trkpt>
      <trkpt lat="44.8744" lon="5.73486">
        <ele>694.5</ele>
        <time>2022-07-16T08:27:37Z</time>
      </trkpt>
      <trkpt lat="44.87436" lon="5.7349">
        <ele>694.6</ele>
        <time>2022-07-16T08:27:38Z</time>
      </trkpt>
      <trkpt lat="44.87433" lon="5.73494">
        <ele>694.8</ele>
        <time>2022-07-16T08:27:39Z</time>
      </trkpt>
      <trkpt lat="44.87429" lon="5.73498">
        <ele>694.9</ele>
        <time>2022-07-16T08:27:40Z</time>
      </trkpt>
      <trkpt lat="44.87426" lon="5.73502">
        <ele>695</ele>
        <time>2022-07-16T08:27:41Z</time>
      </trkpt>
      <trkpt lat="44.87416" lon="5.73514">
        <ele>695.1</ele>
        <time>2022-07-16T08:27:42Z</time>
      </trkpt>
      <trkpt lat="44.87411" lon="5.7352">
        <ele>695.2</ele>
        <time>2022-07-16T08:27:45Z</time>
      </trkpt>
      <trkpt lat="44.87401" lon="5.73531">
        <ele>695.4</ele>
        <time>2022-07-16T08:27:46Z</time>
      </trkpt>
      <trkpt lat="44.87395" lon="5.73536">
        <ele>695.5</ele>
        <time>2022-07-16T08:27:49Z</time>
      </trkpt>
      <trkpt lat="44.87392" lon="5.7354">
        <ele>695.6</ele>
        <time>2022-07-16T08:27:50Z</time>
      </trkpt>
      <trkpt lat="44.87388" lon="5.73544">
        <ele>695.7</ele>
        <time>2022-07-16T08:27:51Z</time>
      </trkpt>
      <trkpt lat="44.87384" lon="5.73548">
        <ele>695.8</ele>
        <time>2022-07-16T08:27:52Z</time>
      </trkpt>
      <trkpt lat="44.87381" lon="5.73552">
        <ele>695.9</ele>
        <time>2022-07-16T08:27:53Z</time>
      </trkpt>
      <trkpt lat="44.87377" lon="5.73556">
        <ele>696.1</ele>
        <time>2022-07-16T08:27:54Z</time>
      </trkpt>
      <trkpt lat="44.87372" lon="5.73561">
        <ele>696.2</ele>
        <time>2022-07-16T08:27:55Z</time>
      </trkpt>
      <trkpt lat="44.87369" lon="5.73565">
        <ele>696.4</ele>
        <time>2022-07-16T08:27:56Z</time>
      </trkpt>
      <trkpt lat="44.87365" lon="5.73569">
        <ele>696.5</ele>
        <time>2022-07-16T08:27:57Z</time>
      </trkpt>
      <trkpt lat="44.87362" lon="5.73574">
        <ele>696.7</ele>
        <time>2022-07-16T08:27:58Z</time>
      </trkpt>
      <trkpt lat="44.87358" lon="5.73579">
        <ele>696.9</ele>
        <time>2022-07-16T08:27:59Z</time>
      </trkpt>
      <trkpt lat="44.87355" lon="5.73583">
        <ele>697</ele>
        <time>2022-07-16T08:28:00Z</time>
      </trkpt>
      <trkpt lat="44.87351" lon="5.73588">
        <ele>697.2</ele>
        <time>2022-07-16T08:28:01Z</time>
      </trkpt>
      <trkpt lat="44.8735" lon="5.7359">
        <ele>697.2</ele>
        <time>2022-07-16T08:28:02Z</time>
      </trkpt>
      <trkpt lat="44.87347" lon="5.73594">
        <ele>697.4</ele>
        <time>2022-07-16T08:28:03Z</time>
      </trkpt>
      <trkpt lat="44.87343" lon="5.73598">
        <ele>697.5</ele>
        <time>2022-07-16T08:28:04Z</time>
      </trkpt>
      <trkpt lat="44.8734" lon="5.73603">
        <ele>697.6</ele>
        <time>2022-07-16T08:28:05Z</time>
      </trkpt>
      <trkpt lat="44.87336" lon="5.73607">
        <ele>697.7</ele>
        <time>2022-07-16T08:28:06Z</time>
      </trkpt>
      <trkpt lat="44.87332" lon="5.73612">
        <ele>697.9</ele>
        <time>2022-07-16T08:28:07Z</time>
      </trkpt>
      <trkpt lat="44.87328" lon="5.73616">
        <ele>698</ele>
        <time>2022-07-16T08:28:08Z</time>
      </trkpt>
      <trkpt lat="44.87325" lon="5.73621">
        <ele>698</ele>
        <time>2022-07-16T08:28:09Z</time>
      </trkpt>
      <trkpt lat="44.87322" lon="5.73626">
        <ele>698</ele>
        <time>2022-07-16T08:28:10Z</time>
      </trkpt>
      <trkpt lat="44.87319" lon="5.73631">
        <ele>698.1</ele>
        <time>2022-07-16T08:28:11Z</time>
      </trkpt>
      <trkpt lat="44.87316" lon="5.73636">
        <ele>698.1</ele>
        <time>2022-07-16T08:28:12Z</time>
      </trkpt>
      <trkpt lat="44.87313" lon="5.73641">
        <ele>698.1</ele>
        <time>2022-07-16T08:28:13Z</time>
      </trkpt>
      <trkpt lat="44.87311" lon="5.73645">
        <ele>698.2</ele>
        <time>2022-07-16T08:28:14Z</time>
      </trkpt>
      <trkpt lat="44.87309" lon="5.7365">
        <ele>698.4</ele>
        <time>2022-07-16T08:28:15Z</time>
      </trkpt>
      <trkpt lat="44.87306" lon="5.73655">
        <ele>698.6</ele>
        <time>2022-07-16T08:28:16Z</time>
      </trkpt>
      <trkpt lat="44.87305" lon="5.7366">
        <ele>698.8</ele>
        <time>2022-07-16T08:28:17Z</time>
      </trkpt>
      <trkpt lat="44.87303" lon="5.73665">
        <ele>699</ele>
        <time>2022-07-16T08:28:18Z</time>
      </trkpt>
      <trkpt lat="44.87301" lon="5.73671">
        <ele>699.2</ele>
        <time>2022-07-16T08:28:19Z</time>
      </trkpt>
      <trkpt lat="44.873" lon="5.73676">
        <ele>699.4</ele>
        <time>2022-07-16T08:28:20Z</time>
      </trkpt>
      <trkpt lat="44.87299" lon="5.73681">
        <ele>699.6</ele>
        <time>2022-07-16T08:28:21Z</time>
      </trkpt>
      <trkpt lat="44.87298" lon="5.73685">
        <ele>699.8</ele>
        <time>2022-07-16T08:28:22Z</time>
      </trkpt>
      <trkpt lat="44.87296" lon="5.73691">
        <ele>700</ele>
        <time>2022-07-16T08:28:23Z</time>
      </trkpt>
      <trkpt lat="44.87296" lon="5.73695">
        <ele>700.1</ele>
        <time>2022-07-16T08:28:24Z</time>
      </trkpt>
      <trkpt lat="44.87295" lon="5.73701">
        <ele>700.3</ele>
        <time>2022-07-16T08:28:25Z</time>
      </trkpt>
      <trkpt lat="44.87294" lon="5.73707">
        <ele>700.6</ele>
        <time>2022-07-16T08:28:26Z</time>
      </trkpt>
      <trkpt lat="44.87294" lon="5.73712">
        <ele>700.7</ele>
        <time>2022-07-16T08:28:27Z</time>
      </trkpt>
      <trkpt lat="44.87293" lon="5.73718">
        <ele>700.9</ele>
        <time>2022-07-16T08:28:28Z</time>
      </trkpt>
      <trkpt lat="44.87293" lon="5.73724">
        <ele>701.1</ele>
        <time>2022-07-16T08:28:29Z</time>
      </trkpt>
      <trkpt lat="44.87292" lon="5.73728">
        <ele>701.3</ele>
        <time>2022-07-16T08:28:30Z</time>
      </trkpt>
      <trkpt lat="44.87292" lon="5.73734">
        <ele>701.5</ele>
        <time>2022-07-16T08:28:31Z</time>
      </trkpt>
      <trkpt lat="44.87291" lon="5.73739">
        <ele>701.7</ele>
        <time>2022-07-16T08:28:32Z</time>
      </trkpt>
      <trkpt lat="44.87291" lon="5.73744">
        <ele>701.9</ele>
        <time>2022-07-16T08:28:33Z</time>
      </trkpt>
      <trkpt lat="44.8729" lon="5.73749">
        <ele>702.1</ele>
        <time>2022-07-16T08:28:34Z</time>
      </trkpt>
      <trkpt lat="44.8729" lon="5.73753">
        <ele>702.2</ele>
        <time>2022-07-16T08:28:35Z</time>
      </trkpt>
      <trkpt lat="44.8729" lon="5.73758">
        <ele>702.4</ele>
        <time>2022-07-16T08:28:36Z</time>
      </trkpt>
      <trkpt lat="44.8729" lon="5.73764">
        <ele>702.6</ele>
        <time>2022-07-16T08:28:37Z</time>
      </trkpt>
      <trkpt lat="44.87289" lon="5.73769">
        <ele>702.8</ele>
        <time>2022-07-16T08:28:38Z</time>
      </trkpt>
      <trkpt lat="44.87289" lon="5.73773">
        <ele>702.9</ele>
        <time>2022-07-16T08:28:39Z</time>
      </trkpt>
      <trkpt lat="44.87288" lon="5.73778">
        <ele>703.1</ele>
        <time>2022-07-16T08:28:40Z</time>
      </trkpt>
      <trkpt lat="44.87288" lon="5.73783">
        <ele>703.3</ele>
        <time>2022-07-16T08:28:41Z</time>
      </trkpt>
      <trkpt lat="44.87288" lon="5.73787">
        <ele>703.4</ele>
        <time>2022-07-16T08:28:42Z</time>
      </trkpt>
      <trkpt lat="44.87287" lon="5.73792">
        <ele>703.6</ele>
        <time>2022-07-16T08:28:43Z</time>
      </trkpt>
      <trkpt lat="44.87287" lon="5.73797">
        <ele>703.8</ele>
        <time>2022-07-16T08:28:44Z</time>
      </trkpt>
      <trkpt lat="44.87286" lon="5.73801">
        <ele>703.9</ele>
        <time>2022-07-16T08:28:45Z</time>
      </trkpt>
      <trkpt lat="44.87285" lon="5.73806">
        <ele>704.1</ele>
        <time>2022-07-16T08:28:46Z</time>
      </trkpt>
      <trkpt lat="44.87284" lon="5.73811">
        <ele>704.3</ele>
        <time>2022-07-16T08:28:47Z</time>
      </trkpt>
      <trkpt lat="44.87284" lon="5.73815">
        <ele>704.4</ele>
        <time>2022-07-16T08:28:48Z</time>
      </trkpt>
      <trkpt lat="44.87283" lon="5.73819">
        <ele>704.6</ele>
        <time>2022-07-16T08:28:49Z</time>
      </trkpt>
      <trkpt lat="44.87283" lon="5.73823">
        <ele>704.7</ele>
        <time>2022-07-16T08:28:50Z</time>
      </trkpt>
      <trkpt lat="44.87282" lon="5.73828">
        <ele>704.9</ele>
        <time>2022-07-16T08:28:51Z</time>
      </trkpt>
      <trkpt lat="44.87282" lon="5.73832">
        <ele>705.1</ele>
        <time>2022-07-16T08:28:52Z</time>
      </trkpt>
      <trkpt lat="44.87281" lon="5.73837">
        <ele>705.2</ele>
        <time>2022-07-16T08:28:53Z</time>
      </trkpt>
      <trkpt lat="44.8728" lon="5.73842">
        <ele>705.4</ele>
        <time>2022-07-16T08:28:54Z</time>
      </trkpt>
      <trkpt lat="44.8728" lon="5.73847">
        <ele>705.6</ele>
        <time>2022-07-16T08:28:55Z</time>
      </trkpt>
      <trkpt lat="44.8728" lon="5.73851">
        <ele>705.7</ele>
        <time>2022-07-16T08:28:56Z</time>
      </trkpt>
      <trkpt lat="44.87279" lon="5.73856">
        <ele>705.9</ele>
        <time>2022-07-16T08:28:57Z</time>
      </trkpt>
      <trkpt lat="44.87278" lon="5.73861">
        <ele>706.1</ele>
        <time>2022-07-16T08:28:58Z</time>
      </trkpt>
      <trkpt lat="44.87278" lon="5.73865">
        <ele>706.3</ele>
        <time>2022-07-16T08:28:59Z</time>
      </trkpt>
      <trkpt lat="44.87277" lon="5.73869">
        <ele>706.4</ele>
        <time>2022-07-16T08:29:00Z</time>
      </trkpt>
      <trkpt lat="44.87276" lon="5.73874">
        <ele>706.6</ele>
        <time>2022-07-16T08:29:01Z</time>
      </trkpt>
      <trkpt lat="44.87276" lon="5.73879">
        <ele>706.8</ele>
        <time>2022-07-16T08:29:02Z</time>
      </trkpt>
      <trkpt lat="44.87275" lon="5.73884">
        <ele>707</ele>
        <time>2022-07-16T08:29:03Z</time>
      </trkpt>
      <trkpt lat="44.87274" lon="5.73888">
        <ele>707.2</ele>
        <time>2022-07-16T08:29:04Z</time>
      </trkpt>
      <trkpt lat="44.87274" lon="5.73893">
        <ele>707.4</ele>
        <time>2022-07-16T08:29:05Z</time>
      </trkpt>
      <trkpt lat="44.87273" lon="5.73899">
        <ele>707.6</ele>
        <time>2022-07-16T08:29:06Z</time>
      </trkpt>
      <trkpt lat="44.87273" lon="5.73901">
        <ele>707.7</ele>
        <time>2022-07-16T08:29:07Z</time>
      </trkpt>
      <trkpt lat="44.87272" lon="5.73906">
        <ele>707.9</ele>
        <time>2022-07-16T08:29:08Z</time>
      </trkpt>
      <trkpt lat="44.87271" lon="5.7391">
        <ele>708.1</ele>
        <time>2022-07-16T08:29:09Z</time>
      </trkpt>
      <trkpt lat="44.8727" lon="5.73915">
        <ele>708.3</ele>
        <time>2022-07-16T08:29:10Z</time>
      </trkpt>
      <trkpt lat="44.8727" lon="5.7392">
        <ele>708.4</ele>
        <time>2022-07-16T08:29:11Z</time>
      </trkpt>
      <trkpt lat="44.8727" lon="5.73924">
        <ele>708.6</ele>
        <time>2022-07-16T08:29:12Z</time>
      </trkpt>
      <trkpt lat="44.8727" lon="5.73929">
        <ele>708.8</ele>
        <time>2022-07-16T08:29:13Z</time>
      </trkpt>
      <trkpt lat="44.87269" lon="5.73933">
        <ele>709</ele>
        <time>2022-07-16T08:29:14Z</time>
      </trkpt>
      <trkpt lat="44.87269" lon="5.73938">
        <ele>709.1</ele>
        <time>2022-07-16T08:29:15Z</time>
      </trkpt>
      <trkpt lat="44.87268" lon="5.73943">
        <ele>709.3</ele>
        <time>2022-07-16T08:29:16Z</time>
      </trkpt>
      <trkpt lat="44.87268" lon="5.73947">
        <ele>709.5</ele>
        <time>2022-07-16T08:29:17Z</time>
      </trkpt>
      <trkpt lat="44.87268" lon="5.73951">
        <ele>709.7</ele>
        <time>2022-07-16T08:29:18Z</time>
      </trkpt>
      <trkpt lat="44.87268" lon="5.73956">
        <ele>709.8</ele>
        <time>2022-07-16T08:29:19Z</time>
      </trkpt>
      <trkpt lat="44.87268" lon="5.73961">
        <ele>710</ele>
        <time>2022-07-16T08:29:20Z</time>
      </trkpt>
      <trkpt lat="44.87268" lon="5.73965">
        <ele>710.2</ele>
        <time>2022-07-16T08:29:21Z</time>
      </trkpt>
      <trkpt lat="44.87268" lon="5.73969">
        <ele>710.3</ele>
        <time>2022-07-16T08:29:22Z</time>
      </trkpt>
      <trkpt lat="44.87268" lon="5.73974">
        <ele>710.5</ele>
        <time>2022-07-16T08:29:23Z</time>
      </trkpt>
      <trkpt lat="44.87268" lon="5.73979">
        <ele>710.7</ele>
        <time>2022-07-16T08:29:24Z</time>
      </trkpt>
      <trkpt lat="44.87268" lon="5.73981">
        <ele>710.8</ele>
        <time>2022-07-16T08:29:25Z</time>
      </trkpt>
      <trkpt lat="44.87268" lon="5.73985">
        <ele>711</ele>
        <time>2022-07-16T08:29:26Z</time>
      </trkpt>
      <trkpt lat="44.87268" lon="5.7399">
        <ele>711.2</ele>
        <time>2022-07-16T08:29:27Z</time>
      </trkpt>
      <trkpt lat="44.87268" lon="5.73994">
        <ele>711.3</ele>
        <time>2022-07-16T08:29:28Z</time>
      </trkpt>
      <trkpt lat="44.87269" lon="5.73999">
        <ele>711.5</ele>
        <time>2022-07-16T08:29:29Z</time>
      </trkpt>
      <trkpt lat="44.87269" lon="5.74003">
        <ele>711.7</ele>
        <time>2022-07-16T08:29:30Z</time>
      </trkpt>
      <trkpt lat="44.8727" lon="5.74008">
        <ele>711.9</ele>
        <time>2022-07-16T08:29:31Z</time>
      </trkpt>
      <trkpt lat="44.8727" lon="5.74012">
        <ele>712.1</ele>
        <time>2022-07-16T08:29:32Z</time>
      </trkpt>
      <trkpt lat="44.8727" lon="5.74017">
        <ele>712.3</ele>
        <time>2022-07-16T08:29:33Z</time>
      </trkpt>
      <trkpt lat="44.8727" lon="5.74023">
        <ele>712.5</ele>
        <time>2022-07-16T08:29:34Z</time>
      </trkpt>
      <trkpt lat="44.8727" lon="5.74025">
        <ele>712.6</ele>
        <time>2022-07-16T08:29:35Z</time>
      </trkpt>
      <trkpt lat="44.87271" lon="5.7403">
        <ele>712.7</ele>
        <time>2022-07-16T08:29:36Z</time>
      </trkpt>
      <trkpt lat="44.87271" lon="5.74034">
        <ele>712.9</ele>
        <time>2022-07-16T08:29:37Z</time>
      </trkpt>
      <trkpt lat="44.87271" lon="5.74039">
        <ele>713.1</ele>
        <time>2022-07-16T08:29:38Z</time>
      </trkpt>
      <trkpt lat="44.87271" lon="5.74043">
        <ele>713.2</ele>
        <time>2022-07-16T08:29:39Z</time>
      </trkpt>
      <trkpt lat="44.87271" lon="5.74048">
        <ele>713.4</ele>
        <time>2022-07-16T08:29:40Z</time>
      </trkpt>
      <trkpt lat="44.87271" lon="5.74053">
        <ele>713.6</ele>
        <time>2022-07-16T08:29:41Z</time>
      </trkpt>
      <trkpt lat="44.87271" lon="5.74057">
        <ele>713.8</ele>
        <time>2022-07-16T08:29:42Z</time>
      </trkpt>
      <trkpt lat="44.87271" lon="5.74062">
        <ele>713.9</ele>
        <time>2022-07-16T08:29:43Z</time>
      </trkpt>
      <trkpt lat="44.87272" lon="5.74067">
        <ele>714.1</ele>
        <time>2022-07-16T08:29:44Z</time>
      </trkpt>
      <trkpt lat="44.87272" lon="5.74071">
        <ele>714.2</ele>
        <time>2022-07-16T08:29:45Z</time>
      </trkpt>
      <trkpt lat="44.87273" lon="5.74076">
        <ele>714.4</ele>
        <time>2022-07-16T08:29:46Z</time>
      </trkpt>
      <trkpt lat="44.87273" lon="5.74081">
        <ele>714.6</ele>
        <time>2022-07-16T08:29:47Z</time>
      </trkpt>
      <trkpt lat="44.87274" lon="5.74086">
        <ele>714.7</ele>
        <time>2022-07-16T08:29:48Z</time>
      </trkpt>
      <trkpt lat="44.87274" lon="5.74091">
        <ele>714.9</ele>
        <time>2022-07-16T08:29:49Z</time>
      </trkpt>
      <trkpt lat="44.87274" lon="5.74096">
        <ele>715.1</ele>
        <time>2022-07-16T08:29:50Z</time>
      </trkpt>
      <trkpt lat="44.87275" lon="5.74101">
        <ele>715.2</ele>
        <time>2022-07-16T08:29:51Z</time>
      </trkpt>
      <trkpt lat="44.87275" lon="5.74106">
        <ele>715.4</ele>
        <time>2022-07-16T08:29:52Z</time>
      </trkpt>
      <trkpt lat="44.87275" lon="5.74111">
        <ele>715.6</ele>
        <time>2022-07-16T08:29:53Z</time>
      </trkpt>
      <trkpt lat="44.87275" lon="5.74116">
        <ele>715.7</ele>
        <time>2022-07-16T08:29:54Z</time>
      </trkpt>
      <trkpt lat="44.87276" lon="5.7412">
        <ele>715.9</ele>
        <time>2022-07-16T08:29:55Z</time>
      </trkpt>
      <trkpt lat="44.87276" lon="5.74125">
        <ele>716.1</ele>
        <time>2022-07-16T08:29:56Z</time>
      </trkpt>
      <trkpt lat="44.87277" lon="5.74129">
        <ele>716.3</ele>
        <time>2022-07-16T08:29:57Z</time>
      </trkpt>
      <trkpt lat="44.87277" lon="5.74133">
        <ele>716.4</ele>
        <time>2022-07-16T08:29:58Z</time>
      </trkpt>
      <trkpt lat="44.87277" lon="5.74137">
        <ele>716.6</ele>
        <time>2022-07-16T08:29:59Z</time>
      </trkpt>
      <trkpt lat="44.87277" lon="5.74142">
        <ele>716.8</ele>
        <time>2022-07-16T08:30:00Z</time>
      </trkpt>
      <trkpt lat="44.87278" lon="5.74146">
        <ele>716.9</ele>
        <time>2022-07-16T08:30:01Z</time>
      </trkpt>
      <trkpt lat="44.87278" lon="5.74149">
        <ele>717.1</ele>
        <time>2022-07-16T08:30:02Z</time>
      </trkpt>
      <trkpt lat="44.87279" lon="5.74155">
        <ele>717.3</ele>
        <time>2022-07-16T08:30:03Z</time>
      </trkpt>
      <trkpt lat="44.87279" lon="5.74158">
        <ele>717.4</ele>
        <time>2022-07-16T08:30:04Z</time>
      </trkpt>
      <trkpt lat="44.87279" lon="5.74162">
        <ele>717.6</ele>
        <time>2022-07-16T08:30:05Z</time>
      </trkpt>
      <trkpt lat="44.87281" lon="5.74174">
        <ele>718.1</ele>
        <time>2022-07-16T08:30:06Z</time>
      </trkpt>
      <trkpt lat="44.87281" lon="5.74177">
        <ele>718.3</ele>
        <time>2022-07-16T08:30:07Z</time>
      </trkpt>
      <trkpt lat="44.87283" lon="5.74182">
        <ele>718.5</ele>
        <time>2022-07-16T08:30:09Z</time>
      </trkpt>
      <trkpt lat="44.87283" lon="5.74186">
        <ele>718.7</ele>
        <time>2022-07-16T08:30:10Z</time>
      </trkpt>
      <trkpt lat="44.87285" lon="5.7419">
        <ele>718.9</ele>
        <time>2022-07-16T08:30:11Z</time>
      </trkpt>
      <trkpt lat="44.87286" lon="5.74192">
        <ele>719</ele>
        <time>2022-07-16T08:30:12Z</time>
      </trkpt>
      <trkpt lat="44.87288" lon="5.74197">
        <ele>719.3</ele>
        <time>2022-07-16T08:30:13Z</time>
      </trkpt>
      <trkpt lat="44.8729" lon="5.74203">
        <ele>719.6</ele>
        <time>2022-07-16T08:30:14Z</time>
      </trkpt>
      <trkpt lat="44.87292" lon="5.74207">
        <ele>719.8</ele>
        <time>2022-07-16T08:30:16Z</time>
      </trkpt>
      <trkpt lat="44.87293" lon="5.74211">
        <ele>720</ele>
        <time>2022-07-16T08:30:17Z</time>
      </trkpt>
      <trkpt lat="44.87295" lon="5.74213">
        <ele>720.1</ele>
        <time>2022-07-16T08:30:18Z</time>
      </trkpt>
      <trkpt lat="44.87298" lon="5.74217">
        <ele>720.3</ele>
        <time>2022-07-16T08:30:20Z</time>
      </trkpt>
      <trkpt lat="44.87301" lon="5.74219">
        <ele>720.5</ele>
        <time>2022-07-16T08:30:21Z</time>
      </trkpt>
      <trkpt lat="44.87304" lon="5.74222">
        <ele>720.7</ele>
        <time>2022-07-16T08:30:22Z</time>
      </trkpt>
      <trkpt lat="44.87306" lon="5.74224">
        <ele>720.9</ele>
        <time>2022-07-16T08:30:23Z</time>
      </trkpt>
      <trkpt lat="44.87309" lon="5.74228">
        <ele>721.1</ele>
        <time>2022-07-16T08:30:24Z</time>
      </trkpt>
      <trkpt lat="44.87312" lon="5.74232">
        <ele>721.3</ele>
        <time>2022-07-16T08:30:26Z</time>
      </trkpt>
      <trkpt lat="44.87315" lon="5.74235">
        <ele>721.5</ele>
        <time>2022-07-16T08:30:27Z</time>
      </trkpt>
      <trkpt lat="44.87319" lon="5.7424">
        <ele>721.7</ele>
        <time>2022-07-16T08:30:29Z</time>
      </trkpt>
      <trkpt lat="44.87325" lon="5.74245">
        <ele>722.1</ele>
        <time>2022-07-16T08:30:31Z</time>
      </trkpt>
      <trkpt lat="44.87329" lon="5.74251">
        <ele>722.4</ele>
        <time>2022-07-16T08:30:33Z</time>
      </trkpt>
      <trkpt lat="44.87331" lon="5.74253">
        <ele>722.5</ele>
        <time>2022-07-16T08:30:34Z</time>
      </trkpt>
      <trkpt lat="44.87334" lon="5.74256">
        <ele>722.7</ele>
        <time>2022-07-16T08:30:35Z</time>
      </trkpt>
      <trkpt lat="44.87338" lon="5.7426">
        <ele>722.9</ele>
        <time>2022-07-16T08:30:36Z</time>
      </trkpt>
      <trkpt lat="44.87341" lon="5.74264">
        <ele>723.1</ele>
        <time>2022-07-16T08:30:38Z</time>
      </trkpt>
      <trkpt lat="44.87344" lon="5.74267">
        <ele>723.3</ele>
        <time>2022-07-16T08:30:39Z</time>
      </trkpt>
      <trkpt lat="44.87348" lon="5.7427">
        <ele>723.5</ele>
        <time>2022-07-16T08:30:40Z</time>
      </trkpt>
      <trkpt lat="44.87351" lon="5.74273">
        <ele>723.7</ele>
        <time>2022-07-16T08:30:41Z</time>
      </trkpt>
      <trkpt lat="44.87356" lon="5.74276">
        <ele>724</ele>
        <time>2022-07-16T08:30:43Z</time>
      </trkpt>
      <trkpt lat="44.87359" lon="5.74278">
        <ele>724.2</ele>
        <time>2022-07-16T08:30:44Z</time>
      </trkpt>
      <trkpt lat="44.87362" lon="5.74278">
        <ele>724.3</ele>
        <time>2022-07-16T08:30:45Z</time>
      </trkpt>
      <trkpt lat="44.87364" lon="5.74279">
        <ele>724.5</ele>
        <time>2022-07-16T08:30:46Z</time>
      </trkpt>
      <trkpt lat="44.87369" lon="5.74282">
        <ele>724.8</ele>
        <time>2022-07-16T08:30:48Z</time>
      </trkpt>
      <trkpt lat="44.87372" lon="5.74283">
        <ele>724.9</ele>
        <time>2022-07-16T08:30:49Z</time>
      </trkpt>
      <trkpt lat="44.87377" lon="5.74284">
        <ele>725.2</ele>
        <time>2022-07-16T08:30:51Z</time>
      </trkpt>
      <trkpt lat="44.87382" lon="5.74284">
        <ele>725.5</ele>
        <time>2022-07-16T08:30:52Z</time>
      </trkpt>
      <trkpt lat="44.87384" lon="5.74283">
        <ele>725.7</ele>
        <time>2022-07-16T08:30:53Z</time>
      </trkpt>
      <trkpt lat="44.8739" lon="5.74283">
        <ele>726</ele>
        <time>2022-07-16T08:30:55Z</time>
      </trkpt>
      <trkpt lat="44.87394" lon="5.74284">
        <ele>726.2</ele>
        <time>2022-07-16T08:30:56Z</time>
      </trkpt>
      <trkpt lat="44.87399" lon="5.74287">
        <ele>726.5</ele>
        <time>2022-07-16T08:30:58Z</time>
      </trkpt>
      <trkpt lat="44.87405" lon="5.7429">
        <ele>726.9</ele>
        <time>2022-07-16T08:30:59Z</time>
      </trkpt>
      <trkpt lat="44.87408" lon="5.74293">
        <ele>727.1</ele>
        <time>2022-07-16T08:31:00Z</time>
      </trkpt>
      <trkpt lat="44.8741" lon="5.74295">
        <ele>727.3</ele>
        <time>2022-07-16T08:31:02Z</time>
      </trkpt>
      <trkpt lat="44.87413" lon="5.74297">
        <ele>727.4</ele>
        <time>2022-07-16T08:31:03Z</time>
      </trkpt>
      <trkpt lat="44.87415" lon="5.74302">
        <ele>727.7</ele>
        <time>2022-07-16T08:31:04Z</time>
      </trkpt>
      <trkpt lat="44.87416" lon="5.74306">
        <ele>727.8</ele>
        <time>2022-07-16T08:31:05Z</time>
      </trkpt>
      <trkpt lat="44.87419" lon="5.74313">
        <ele>728.1</ele>
        <time>2022-07-16T08:31:07Z</time>
      </trkpt>
      <trkpt lat="44.8742" lon="5.74319">
        <ele>728.4</ele>
        <time>2022-07-16T08:31:09Z</time>
      </trkpt>
      <trkpt lat="44.8742" lon="5.74325">
        <ele>728.6</ele>
        <time>2022-07-16T08:31:10Z</time>
      </trkpt>
      <trkpt lat="44.8742" lon="5.74328">
        <ele>728.7</ele>
        <time>2022-07-16T08:31:11Z</time>
      </trkpt>
      <trkpt lat="44.8742" lon="5.74332">
        <ele>728.8</ele>
        <time>2022-07-16T08:31:12Z</time>
      </trkpt>
      <trkpt lat="44.87419" lon="5.74341">
        <ele>729.1</ele>
        <time>2022-07-16T08:31:14Z</time>
      </trkpt>
      <trkpt lat="44.87417" lon="5.74349">
        <ele>729.4</ele>
        <time>2022-07-16T08:31:16Z</time>
      </trkpt>
      <trkpt lat="44.87416" lon="5.74353">
        <ele>729.6</ele>
        <time>2022-07-16T08:31:17Z</time>
      </trkpt>
      <trkpt lat="44.87413" lon="5.7436">
        <ele>729.9</ele>
        <time>2022-07-16T08:31:19Z</time>
      </trkpt>
      <trkpt lat="44.87413" lon="5.74362">
        <ele>730</ele>
        <time>2022-07-16T08:31:20Z</time>
      </trkpt>
      <trkpt lat="44.87409" lon="5.74373">
        <ele>730.4</ele>
        <time>2022-07-16T08:31:22Z</time>
      </trkpt>
      <trkpt lat="44.87408" lon="5.74375">
        <ele>730.5</ele>
        <time>2022-07-16T08:31:23Z</time>
      </trkpt>
      <trkpt lat="44.87403" lon="5.74383">
        <ele>730.8</ele>
        <time>2022-07-16T08:31:26Z</time>
      </trkpt>
      <trkpt lat="44.87401" lon="5.74387">
        <ele>731</ele>
        <time>2022-07-16T08:31:27Z</time>
      </trkpt>
      <trkpt lat="44.87399" lon="5.74392">
        <ele>731.3</ele>
        <time>2022-07-16T08:31:28Z</time>
      </trkpt>
      <trkpt lat="44.87398" lon="5.74394">
        <ele>731.4</ele>
        <time>2022-07-16T08:31:29Z</time>
      </trkpt>
      <trkpt lat="44.87396" lon="5.74399">
        <ele>731.6</ele>
        <time>2022-07-16T08:31:30Z</time>
      </trkpt>
      <trkpt lat="44.87393" lon="5.74403">
        <ele>731.8</ele>
        <time>2022-07-16T08:31:32Z</time>
      </trkpt>
      <trkpt lat="44.87392" lon="5.74407">
        <ele>732</ele>
        <time>2022-07-16T08:31:33Z</time>
      </trkpt>
      <trkpt lat="44.87388" lon="5.74413">
        <ele>732.3</ele>
        <time>2022-07-16T08:31:35Z</time>
      </trkpt>
      <trkpt lat="44.87386" lon="5.74418">
        <ele>732.5</ele>
        <time>2022-07-16T08:31:36Z</time>
      </trkpt>
      <trkpt lat="44.87382" lon="5.74425">
        <ele>732.8</ele>
        <time>2022-07-16T08:31:39Z</time>
      </trkpt>
      <trkpt lat="44.87381" lon="5.74427">
        <ele>732.9</ele>
        <time>2022-07-16T08:31:40Z</time>
      </trkpt>
      <trkpt lat="44.8738" lon="5.74429">
        <ele>733</ele>
        <time>2022-07-16T08:31:41Z</time>
      </trkpt>
      <trkpt lat="44.87379" lon="5.74432">
        <ele>733.2</ele>
        <time>2022-07-16T08:31:42Z</time>
      </trkpt>
      <trkpt lat="44.87377" lon="5.74435">
        <ele>733.3</ele>
        <time>2022-07-16T08:31:43Z</time>
      </trkpt>
      <trkpt lat="44.87376" lon="5.74439">
        <ele>733.5</ele>
        <time>2022-07-16T08:31:44Z</time>
      </trkpt>
      <trkpt lat="44.87375" lon="5.74443">
        <ele>733.6</ele>
        <time>2022-07-16T08:31:45Z</time>
      </trkpt>
      <trkpt lat="44.87374" lon="5.74447">
        <ele>733.8</ele>
        <time>2022-07-16T08:31:46Z</time>
      </trkpt>
      <trkpt lat="44.87372" lon="5.74451">
        <ele>734</ele>
        <time>2022-07-16T08:31:47Z</time>
      </trkpt>
      <trkpt lat="44.87371" lon="5.74455">
        <ele>734.1</ele>
        <time>2022-07-16T08:31:48Z</time>
      </trkpt>
      <trkpt lat="44.8737" lon="5.74459">
        <ele>734.3</ele>
        <time>2022-07-16T08:31:49Z</time>
      </trkpt>
      <trkpt lat="44.87369" lon="5.74463">
        <ele>734.4</ele>
        <time>2022-07-16T08:31:50Z</time>
      </trkpt>
      <trkpt lat="44.87369" lon="5.74467">
        <ele>734.6</ele>
        <time>2022-07-16T08:31:51Z</time>
      </trkpt>
      <trkpt lat="44.87368" lon="5.74471">
        <ele>734.7</ele>
        <time>2022-07-16T08:31:52Z</time>
      </trkpt>
      <trkpt lat="44.87367" lon="5.74476">
        <ele>734.9</ele>
        <time>2022-07-16T08:31:53Z</time>
      </trkpt>
      <trkpt lat="44.87367" lon="5.7448">
        <ele>735</ele>
        <time>2022-07-16T08:31:54Z</time>
      </trkpt>
      <trkpt lat="44.87368" lon="5.74486">
        <ele>735.2</ele>
        <time>2022-07-16T08:31:55Z</time>
      </trkpt>
      <trkpt lat="44.87368" lon="5.74488">
        <ele>735.3</ele>
        <time>2022-07-16T08:31:56Z</time>
      </trkpt>
      <trkpt lat="44.87368" lon="5.74492">
        <ele>735.4</ele>
        <time>2022-07-16T08:31:57Z</time>
      </trkpt>
      <trkpt lat="44.87368" lon="5.74496">
        <ele>735.6</ele>
        <time>2022-07-16T08:31:58Z</time>
      </trkpt>
      <trkpt lat="44.87368" lon="5.745">
        <ele>735.7</ele>
        <time>2022-07-16T08:31:59Z</time>
      </trkpt>
      <trkpt lat="44.87369" lon="5.74504">
        <ele>735.9</ele>
        <time>2022-07-16T08:32:00Z</time>
      </trkpt>
      <trkpt lat="44.87369" lon="5.74509">
        <ele>736</ele>
        <time>2022-07-16T08:32:01Z</time>
      </trkpt>
      <trkpt lat="44.87369" lon="5.74513">
        <ele>736.2</ele>
        <time>2022-07-16T08:32:02Z</time>
      </trkpt>
      <trkpt lat="44.87369" lon="5.74517">
        <ele>736.3</ele>
        <time>2022-07-16T08:32:03Z</time>
      </trkpt>
      <trkpt lat="44.87369" lon="5.74521">
        <ele>736.5</ele>
        <time>2022-07-16T08:32:04Z</time>
      </trkpt>
      <trkpt lat="44.87369" lon="5.74525">
        <ele>736.7</ele>
        <time>2022-07-16T08:32:05Z</time>
      </trkpt>
      <trkpt lat="44.87369" lon="5.7453">
        <ele>736.8</ele>
        <time>2022-07-16T08:32:06Z</time>
      </trkpt>
      <trkpt lat="44.8737" lon="5.74539">
        <ele>737.1</ele>
        <time>2022-07-16T08:32:07Z</time>
      </trkpt>
      <trkpt lat="44.87371" lon="5.74548">
        <ele>737.5</ele>
        <time>2022-07-16T08:32:09Z</time>
      </trkpt>
      <trkpt lat="44.87372" lon="5.74554">
        <ele>737.7</ele>
        <time>2022-07-16T08:32:10Z</time>
      </trkpt>
      <trkpt lat="44.87374" lon="5.74564">
        <ele>738</ele>
        <time>2022-07-16T08:32:12Z</time>
      </trkpt>
      <trkpt lat="44.87375" lon="5.74567">
        <ele>738.2</ele>
        <time>2022-07-16T08:32:13Z</time>
      </trkpt>
      <trkpt lat="44.87379" lon="5.74578">
        <ele>738.6</ele>
        <time>2022-07-16T08:32:16Z</time>
      </trkpt>
      <trkpt lat="44.8738" lon="5.74588">
        <ele>739</ele>
        <time>2022-07-16T08:32:18Z</time>
      </trkpt>
      <trkpt lat="44.87383" lon="5.74596">
        <ele>739.3</ele>
        <time>2022-07-16T08:32:20Z</time>
      </trkpt>
      <trkpt lat="44.87385" lon="5.74601">
        <ele>739.5</ele>
        <time>2022-07-16T08:32:21Z</time>
      </trkpt>
      <trkpt lat="44.87386" lon="5.74603">
        <ele>739.6</ele>
        <time>2022-07-16T08:32:22Z</time>
      </trkpt>
      <trkpt lat="44.87388" lon="5.7461">
        <ele>739.9</ele>
        <time>2022-07-16T08:32:24Z</time>
      </trkpt>
      <trkpt lat="44.87388" lon="5.74615">
        <ele>740</ele>
        <time>2022-07-16T08:32:25Z</time>
      </trkpt>
      <trkpt lat="44.87389" lon="5.74623">
        <ele>740.3</ele>
        <time>2022-07-16T08:32:27Z</time>
      </trkpt>
      <trkpt lat="44.87391" lon="5.74635">
        <ele>740.7</ele>
        <time>2022-07-16T08:32:30Z</time>
      </trkpt>
      <trkpt lat="44.87392" lon="5.74642">
        <ele>741</ele>
        <time>2022-07-16T08:32:31Z</time>
      </trkpt>
      <trkpt lat="44.87393" lon="5.74646">
        <ele>741.1</ele>
        <time>2022-07-16T08:32:33Z</time>
      </trkpt>
      <trkpt lat="44.87393" lon="5.74651">
        <ele>741.3</ele>
        <time>2022-07-16T08:32:34Z</time>
      </trkpt>
      <trkpt lat="44.87396" lon="5.74659">
        <ele>741.6</ele>
        <time>2022-07-16T08:32:36Z</time>
      </trkpt>
      <trkpt lat="44.874" lon="5.74667">
        <ele>742</ele>
        <time>2022-07-16T08:32:39Z</time>
      </trkpt>
      <trkpt lat="44.87401" lon="5.74672">
        <ele>742.2</ele>
        <time>2022-07-16T08:32:40Z</time>
      </trkpt>
      <trkpt lat="44.87402" lon="5.74674">
        <ele>742.3</ele>
        <time>2022-07-16T08:32:41Z</time>
      </trkpt>
      <trkpt lat="44.87403" lon="5.74679">
        <ele>742.4</ele>
        <time>2022-07-16T08:32:42Z</time>
      </trkpt>
      <trkpt lat="44.87404" lon="5.74683">
        <ele>742.6</ele>
        <time>2022-07-16T08:32:43Z</time>
      </trkpt>
      <trkpt lat="44.87406" lon="5.74688">
        <ele>742.8</ele>
        <time>2022-07-16T08:32:44Z</time>
      </trkpt>
      <trkpt lat="44.87407" lon="5.74692">
        <ele>743</ele>
        <time>2022-07-16T08:32:45Z</time>
      </trkpt>
      <trkpt lat="44.87409" lon="5.74697">
        <ele>743.1</ele>
        <time>2022-07-16T08:32:46Z</time>
      </trkpt>
      <trkpt lat="44.8741" lon="5.74701">
        <ele>743.3</ele>
        <time>2022-07-16T08:32:47Z</time>
      </trkpt>
      <trkpt lat="44.87411" lon="5.74706">
        <ele>743.5</ele>
        <time>2022-07-16T08:32:48Z</time>
      </trkpt>
      <trkpt lat="44.87411" lon="5.7471">
        <ele>743.7</ele>
        <time>2022-07-16T08:32:49Z</time>
      </trkpt>
      <trkpt lat="44.87412" lon="5.74715">
        <ele>743.8</ele>
        <time>2022-07-16T08:32:50Z</time>
      </trkpt>
      <trkpt lat="44.87412" lon="5.7472">
        <ele>744</ele>
        <time>2022-07-16T08:32:51Z</time>
      </trkpt>
      <trkpt lat="44.87412" lon="5.74724">
        <ele>744.2</ele>
        <time>2022-07-16T08:32:52Z</time>
      </trkpt>
      <trkpt lat="44.87412" lon="5.74728">
        <ele>744.4</ele>
        <time>2022-07-16T08:32:53Z</time>
      </trkpt>
      <trkpt lat="44.87412" lon="5.74734">
        <ele>744.6</ele>
        <time>2022-07-16T08:32:54Z</time>
      </trkpt>
      <trkpt lat="44.87412" lon="5.74736">
        <ele>744.7</ele>
        <time>2022-07-16T08:32:55Z</time>
      </trkpt>
      <trkpt lat="44.87411" lon="5.74741">
        <ele>744.9</ele>
        <time>2022-07-16T08:32:56Z</time>
      </trkpt>
      <trkpt lat="44.87411" lon="5.74742">
        <ele>745</ele>
        <time>2022-07-16T08:32:57Z</time>
      </trkpt>
      <trkpt lat="44.8741" lon="5.74748">
        <ele>745.2</ele>
        <time>2022-07-16T08:32:58Z</time>
      </trkpt>
      <trkpt lat="44.8741" lon="5.74749">
        <ele>745.3</ele>
        <time>2022-07-16T08:32:59Z</time>
      </trkpt>
      <trkpt lat="44.87409" lon="5.74754">
        <ele>745.5</ele>
        <time>2022-07-16T08:33:00Z</time>
      </trkpt>
      <trkpt lat="44.87408" lon="5.74756">
        <ele>745.6</ele>
        <time>2022-07-16T08:33:01Z</time>
      </trkpt>
      <trkpt lat="44.87408" lon="5.74761">
        <ele>745.8</ele>
        <time>2022-07-16T08:33:02Z</time>
      </trkpt>
      <trkpt lat="44.87407" lon="5.74762">
        <ele>745.9</ele>
        <time>2022-07-16T08:33:03Z</time>
      </trkpt>
      <trkpt lat="44.87406" lon="5.74767">
        <ele>746.1</ele>
        <time>2022-07-16T08:33:04Z</time>
      </trkpt>
      <trkpt lat="44.87406" lon="5.74768">
        <ele>746.2</ele>
        <time>2022-07-16T08:33:05Z</time>
      </trkpt>
      <trkpt lat="44.87404" lon="5.74774">
        <ele>746.5</ele>
        <time>2022-07-16T08:33:06Z</time>
      </trkpt>
      <trkpt lat="44.87404" lon="5.74776">
        <ele>746.6</ele>
        <time>2022-07-16T08:33:07Z</time>
      </trkpt>
      <trkpt lat="44.87402" lon="5.74783">
        <ele>746.9</ele>
        <time>2022-07-16T08:33:08Z</time>
      </trkpt>
      <trkpt lat="44.87401" lon="5.74792">
        <ele>747.3</ele>
        <time>2022-07-16T08:33:10Z</time>
      </trkpt>
      <trkpt lat="44.874" lon="5.74799">
        <ele>747.5</ele>
        <time>2022-07-16T08:33:12Z</time>
      </trkpt>
      <trkpt lat="44.87399" lon="5.74806">
        <ele>747.8</ele>
        <time>2022-07-16T08:33:14Z</time>
      </trkpt>
      <trkpt lat="44.87398" lon="5.74814">
        <ele>748.1</ele>
        <time>2022-07-16T08:33:16Z</time>
      </trkpt>
      <trkpt lat="44.87398" lon="5.7482">
        <ele>748.3</ele>
        <time>2022-07-16T08:33:17Z</time>
      </trkpt>
      <trkpt lat="44.87397" lon="5.74823">
        <ele>748.4</ele>
        <time>2022-07-16T08:33:18Z</time>
      </trkpt>
      <trkpt lat="44.87396" lon="5.74829">
        <ele>748.7</ele>
        <time>2022-07-16T08:33:19Z</time>
      </trkpt>
      <trkpt lat="44.87395" lon="5.74834">
        <ele>748.9</ele>
        <time>2022-07-16T08:33:21Z</time>
      </trkpt>
      <trkpt lat="44.87395" lon="5.74838">
        <ele>749</ele>
        <time>2022-07-16T08:33:22Z</time>
      </trkpt>
      <trkpt lat="44.87395" lon="5.74844">
        <ele>749.2</ele>
        <time>2022-07-16T08:33:24Z</time>
      </trkpt>
      <trkpt lat="44.87394" lon="5.74849">
        <ele>749.4</ele>
        <time>2022-07-16T08:33:25Z</time>
      </trkpt>
      <trkpt lat="44.87394" lon="5.7485">
        <ele>749.5</ele>
        <time>2022-07-16T08:33:26Z</time>
      </trkpt>
      <trkpt lat="44.87395" lon="5.74858">
        <ele>749.7</ele>
        <time>2022-07-16T08:33:27Z</time>
      </trkpt>
      <trkpt lat="44.87397" lon="5.74865">
        <ele>750</ele>
        <time>2022-07-16T08:33:29Z</time>
      </trkpt>
      <trkpt lat="44.87398" lon="5.74869">
        <ele>750.1</ele>
        <time>2022-07-16T08:33:30Z</time>
      </trkpt>
      <trkpt lat="44.87399" lon="5.74874">
        <ele>750.3</ele>
        <time>2022-07-16T08:33:31Z</time>
      </trkpt>
      <trkpt lat="44.87402" lon="5.74881">
        <ele>750.6</ele>
        <time>2022-07-16T08:33:33Z</time>
      </trkpt>
      <trkpt lat="44.87403" lon="5.74884">
        <ele>750.8</ele>
        <time>2022-07-16T08:33:34Z</time>
      </trkpt>
      <trkpt lat="44.87405" lon="5.74888">
        <ele>750.9</ele>
        <time>2022-07-16T08:33:35Z</time>
      </trkpt>
      <trkpt lat="44.8741" lon="5.74895">
        <ele>751.3</ele>
        <time>2022-07-16T08:33:37Z</time>
      </trkpt>
      <trkpt lat="44.87417" lon="5.74904">
        <ele>751.7</ele>
        <time>2022-07-16T08:33:40Z</time>
      </trkpt>
      <trkpt lat="44.8742" lon="5.7491">
        <ele>752</ele>
        <time>2022-07-16T08:33:42Z</time>
      </trkpt>
      <trkpt lat="44.87426" lon="5.74915">
        <ele>752.3</ele>
        <time>2022-07-16T08:33:44Z</time>
      </trkpt>
      <trkpt lat="44.87429" lon="5.74918">
        <ele>752.5</ele>
        <time>2022-07-16T08:33:45Z</time>
      </trkpt>
      <trkpt lat="44.87431" lon="5.74921">
        <ele>752.6</ele>
        <time>2022-07-16T08:33:46Z</time>
      </trkpt>
      <trkpt lat="44.87433" lon="5.74926">
        <ele>752.8</ele>
        <time>2022-07-16T08:33:47Z</time>
      </trkpt>
      <trkpt lat="44.87439" lon="5.74935">
        <ele>753.2</ele>
        <time>2022-07-16T08:33:50Z</time>
      </trkpt>
      <trkpt lat="44.87441" lon="5.74938">
        <ele>753.4</ele>
        <time>2022-07-16T08:33:51Z</time>
      </trkpt>
      <trkpt lat="44.87445" lon="5.74941">
        <ele>753.6</ele>
        <time>2022-07-16T08:33:52Z</time>
      </trkpt>
      <trkpt lat="44.8745" lon="5.74948">
        <ele>754</ele>
        <time>2022-07-16T08:33:55Z</time>
      </trkpt>
      <trkpt lat="44.87453" lon="5.7495">
        <ele>754.1</ele>
        <time>2022-07-16T08:33:56Z</time>
      </trkpt>
      <trkpt lat="44.87456" lon="5.74952">
        <ele>754.3</ele>
        <time>2022-07-16T08:33:57Z</time>
      </trkpt>
      <trkpt lat="44.87458" lon="5.74955">
        <ele>754.4</ele>
        <time>2022-07-16T08:33:58Z</time>
      </trkpt>
      <trkpt lat="44.87461" lon="5.74959">
        <ele>754.6</ele>
        <time>2022-07-16T08:33:59Z</time>
      </trkpt>
      <trkpt lat="44.87465" lon="5.74962">
        <ele>754.9</ele>
        <time>2022-07-16T08:34:00Z</time>
      </trkpt>
      <trkpt lat="44.87469" lon="5.74967">
        <ele>755.1</ele>
        <time>2022-07-16T08:34:01Z</time>
      </trkpt>
      <trkpt lat="44.87478" lon="5.74974">
        <ele>755.7</ele>
        <time>2022-07-16T08:34:04Z</time>
      </trkpt>
      <trkpt lat="44.8748" lon="5.74977">
        <ele>755.9</ele>
        <time>2022-07-16T08:34:05Z</time>
      </trkpt>
      <trkpt lat="44.87485" lon="5.74982">
        <ele>756.2</ele>
        <time>2022-07-16T08:34:07Z</time>
      </trkpt>
      <trkpt lat="44.87494" lon="5.74987">
        <ele>756.7</ele>
        <time>2022-07-16T08:34:10Z</time>
      </trkpt>
      <trkpt lat="44.87498" lon="5.74991">
        <ele>757</ele>
        <time>2022-07-16T08:34:12Z</time>
      </trkpt>
      <trkpt lat="44.87505" lon="5.74994">
        <ele>757.4</ele>
        <time>2022-07-16T08:34:13Z</time>
      </trkpt>
      <trkpt lat="44.8751" lon="5.74997">
        <ele>757.6</ele>
        <time>2022-07-16T08:34:15Z</time>
      </trkpt>
      <trkpt lat="44.87515" lon="5.75002">
        <ele>758</ele>
        <time>2022-07-16T08:34:17Z</time>
      </trkpt>
      <trkpt lat="44.87518" lon="5.75005">
        <ele>758.1</ele>
        <time>2022-07-16T08:34:20Z</time>
      </trkpt>
      <trkpt lat="44.87521" lon="5.75007">
        <ele>758.3</ele>
        <time>2022-07-16T08:34:21Z</time>
      </trkpt>
      <trkpt lat="44.87525" lon="5.75009">
        <ele>758.5</ele>
        <time>2022-07-16T08:34:22Z</time>
      </trkpt>
      <trkpt lat="44.87528" lon="5.7501">
        <ele>758.6</ele>
        <time>2022-07-16T08:34:24Z</time>
      </trkpt>
      <trkpt lat="44.87532" lon="5.75012">
        <ele>758.8</ele>
        <time>2022-07-16T08:34:25Z</time>
      </trkpt>
      <trkpt lat="44.87541" lon="5.75017">
        <ele>759.3</ele>
        <time>2022-07-16T08:34:28Z</time>
      </trkpt>
      <trkpt lat="44.87545" lon="5.75019">
        <ele>759.5</ele>
        <time>2022-07-16T08:34:29Z</time>
      </trkpt>
      <trkpt lat="44.87551" lon="5.75022">
        <ele>759.8</ele>
        <time>2022-07-16T08:34:31Z</time>
      </trkpt>
      <trkpt lat="44.87553" lon="5.75024">
        <ele>759.9</ele>
        <time>2022-07-16T08:34:32Z</time>
      </trkpt>
      <trkpt lat="44.87559" lon="5.75028">
        <ele>760.2</ele>
        <time>2022-07-16T08:34:34Z</time>
      </trkpt>
      <trkpt lat="44.87567" lon="5.75036">
        <ele>760.7</ele>
        <time>2022-07-16T08:34:37Z</time>
      </trkpt>
      <trkpt lat="44.87572" lon="5.75041">
        <ele>761</ele>
        <time>2022-07-16T08:34:39Z</time>
      </trkpt>
      <trkpt lat="44.87578" lon="5.75047">
        <ele>761.3</ele>
        <time>2022-07-16T08:34:42Z</time>
      </trkpt>
      <trkpt lat="44.8758" lon="5.75052">
        <ele>761.5</ele>
        <time>2022-07-16T08:34:43Z</time>
      </trkpt>
      <trkpt lat="44.8758" lon="5.75054">
        <ele>761.6</ele>
        <time>2022-07-16T08:34:44Z</time>
      </trkpt>
      <trkpt lat="44.8758" lon="5.75057">
        <ele>761.7</ele>
        <time>2022-07-16T08:34:45Z</time>
      </trkpt>
      <trkpt lat="44.87577" lon="5.75058">
        <ele>761.8</ele>
        <time>2022-07-16T08:34:46Z</time>
      </trkpt>
      <trkpt lat="44.87576" lon="5.75058">
        <ele>761.9</ele>
        <time>2022-07-16T08:34:47Z</time>
      </trkpt>
      <trkpt lat="44.87577" lon="5.75058">
        <ele>761.9</ele>
        <time>2022-07-16T08:34:50Z</time>
      </trkpt>
      <trkpt lat="44.87578" lon="5.75059">
        <ele>761.9</ele>
        <time>2022-07-16T08:34:51Z</time>
      </trkpt>
      <trkpt lat="44.87579" lon="5.75059">
        <ele>762</ele>
        <time>2022-07-16T08:34:52Z</time>
      </trkpt>
      <trkpt lat="44.8758" lon="5.75059">
        <ele>762</ele>
        <time>2022-07-16T08:34:53Z</time>
      </trkpt>
      <trkpt lat="44.87581" lon="5.7506">
        <ele>762.1</ele>
        <time>2022-07-16T08:34:54Z</time>
      </trkpt>
      <trkpt lat="44.87582" lon="5.7506">
        <ele>762.2</ele>
        <time>2022-07-16T08:34:55Z</time>
      </trkpt>
      <trkpt lat="44.87582" lon="5.7506">
        <ele>762.2</ele>
        <time>2022-07-16T08:34:56Z</time>
      </trkpt>
      <trkpt lat="44.87583" lon="5.75061">
        <ele>762.3</ele>
        <time>2022-07-16T08:34:57Z</time>
      </trkpt>
      <trkpt lat="44.87584" lon="5.75061">
        <ele>762.3</ele>
        <time>2022-07-16T08:38:03Z</time>
      </trkpt>
      <trkpt lat="44.87585" lon="5.75061">
        <ele>762.3</ele>
        <time>2022-07-16T08:38:04Z</time>
      </trkpt>
      <trkpt lat="44.87586" lon="5.75061">
        <ele>762.4</ele>
        <time>2022-07-16T08:38:05Z</time>
      </trkpt>
      <trkpt lat="44.87587" lon="5.75062">
        <ele>762.4</ele>
        <time>2022-07-16T08:38:06Z</time>
      </trkpt>
      <trkpt lat="44.87589" lon="5.75062">
        <ele>762.5</ele>
        <time>2022-07-16T08:38:07Z</time>
      </trkpt>
      <trkpt lat="44.87589" lon="5.75064">
        <ele>762.6</ele>
        <time>2022-07-16T08:38:08Z</time>
      </trkpt>
      <trkpt lat="44.87594" lon="5.75071">
        <ele>762.9</ele>
        <time>2022-07-16T08:38:11Z</time>
      </trkpt>
      <trkpt lat="44.87598" lon="5.75076">
        <ele>763.1</ele>
        <time>2022-07-16T08:38:12Z</time>
      </trkpt>
      <trkpt lat="44.87605" lon="5.75083">
        <ele>763.6</ele>
        <time>2022-07-16T08:38:15Z</time>
      </trkpt>
      <trkpt lat="44.87608" lon="5.75086">
        <ele>763.7</ele>
        <time>2022-07-16T08:38:16Z</time>
      </trkpt>
      <trkpt lat="44.87611" lon="5.75089">
        <ele>763.9</ele>
        <time>2022-07-16T08:38:17Z</time>
      </trkpt>
      <trkpt lat="44.87612" lon="5.75091">
        <ele>764</ele>
        <time>2022-07-16T08:38:18Z</time>
      </trkpt>
      <trkpt lat="44.87615" lon="5.75095">
        <ele>764.2</ele>
        <time>2022-07-16T08:38:19Z</time>
      </trkpt>
      <trkpt lat="44.87617" lon="5.75099">
        <ele>764.3</ele>
        <time>2022-07-16T08:38:20Z</time>
      </trkpt>
      <trkpt lat="44.8762" lon="5.75101">
        <ele>764.5</ele>
        <time>2022-07-16T08:38:21Z</time>
      </trkpt>
      <trkpt lat="44.87623" lon="5.75104">
        <ele>764.6</ele>
        <time>2022-07-16T08:38:22Z</time>
      </trkpt>
      <trkpt lat="44.87625" lon="5.75106">
        <ele>764.7</ele>
        <time>2022-07-16T08:38:23Z</time>
      </trkpt>
      <trkpt lat="44.8763" lon="5.75112">
        <ele>765</ele>
        <time>2022-07-16T08:38:26Z</time>
      </trkpt>
      <trkpt lat="44.87633" lon="5.75115">
        <ele>765.2</ele>
        <time>2022-07-16T08:38:27Z</time>
      </trkpt>
      <trkpt lat="44.87633" lon="5.75117">
        <ele>765.3</ele>
        <time>2022-07-16T08:38:28Z</time>
      </trkpt>
      <trkpt lat="44.87637" lon="5.75123">
        <ele>765.5</ele>
        <time>2022-07-16T08:38:29Z</time>
      </trkpt>
      <trkpt lat="44.87642" lon="5.75129">
        <ele>765.8</ele>
        <time>2022-07-16T08:38:31Z</time>
      </trkpt>
      <trkpt lat="44.87643" lon="5.75131">
        <ele>765.9</ele>
        <time>2022-07-16T08:38:32Z</time>
      </trkpt>
      <trkpt lat="44.87647" lon="5.75137">
        <ele>766.1</ele>
        <time>2022-07-16T08:38:35Z</time>
      </trkpt>
      <trkpt lat="44.8765" lon="5.75141">
        <ele>766.3</ele>
        <time>2022-07-16T08:38:36Z</time>
      </trkpt>
      <trkpt lat="44.8765" lon="5.75142">
        <ele>766.4</ele>
        <time>2022-07-16T08:38:37Z</time>
      </trkpt>
      <trkpt lat="44.87653" lon="5.75145">
        <ele>766.5</ele>
        <time>2022-07-16T08:38:38Z</time>
      </trkpt>
      <trkpt lat="44.87655" lon="5.75147">
        <ele>766.7</ele>
        <time>2022-07-16T08:38:39Z</time>
      </trkpt>
      <trkpt lat="44.87657" lon="5.7515">
        <ele>766.8</ele>
        <time>2022-07-16T08:38:40Z</time>
      </trkpt>
      <trkpt lat="44.8766" lon="5.75155">
        <ele>767</ele>
        <time>2022-07-16T08:38:41Z</time>
      </trkpt>
      <trkpt lat="44.87665" lon="5.75161">
        <ele>767.3</ele>
        <time>2022-07-16T08:38:43Z</time>
      </trkpt>
      <trkpt lat="44.87671" lon="5.75167">
        <ele>767.7</ele>
        <time>2022-07-16T08:38:46Z</time>
      </trkpt>
      <trkpt lat="44.87674" lon="5.7517">
        <ele>767.8</ele>
        <time>2022-07-16T08:38:47Z</time>
      </trkpt>
      <trkpt lat="44.87676" lon="5.75172">
        <ele>768</ele>
        <time>2022-07-16T08:38:48Z</time>
      </trkpt>
      <trkpt lat="44.87678" lon="5.75175">
        <ele>768.1</ele>
        <time>2022-07-16T08:38:49Z</time>
      </trkpt>
      <trkpt lat="44.8768" lon="5.75178">
        <ele>768.3</ele>
        <time>2022-07-16T08:38:50Z</time>
      </trkpt>
      <trkpt lat="44.87684" lon="5.75182">
        <ele>768.5</ele>
        <time>2022-07-16T08:38:51Z</time>
      </trkpt>
      <trkpt lat="44.87685" lon="5.75184">
        <ele>768.6</ele>
        <time>2022-07-16T08:38:52Z</time>
      </trkpt>
      <trkpt lat="44.8769" lon="5.75189">
        <ele>768.9</ele>
        <time>2022-07-16T08:38:54Z</time>
      </trkpt>
      <trkpt lat="44.87693" lon="5.75193">
        <ele>769.1</ele>
        <time>2022-07-16T08:38:55Z</time>
      </trkpt>
      <trkpt lat="44.87697" lon="5.75197">
        <ele>769.3</ele>
        <time>2022-07-16T08:38:57Z</time>
      </trkpt>
      <trkpt lat="44.87702" lon="5.75201">
        <ele>769.6</ele>
        <time>2022-07-16T08:39:00Z</time>
      </trkpt>
      <trkpt lat="44.87705" lon="5.75204">
        <ele>769.8</ele>
        <time>2022-07-16T08:39:01Z</time>
      </trkpt>
      <trkpt lat="44.87706" lon="5.75205">
        <ele>769.9</ele>
        <time>2022-07-16T08:39:02Z</time>
      </trkpt>
      <trkpt lat="44.87709" lon="5.75208">
        <ele>770</ele>
        <time>2022-07-16T08:39:03Z</time>
      </trkpt>
      <trkpt lat="44.87713" lon="5.75213">
        <ele>770.4</ele>
        <time>2022-07-16T08:39:05Z</time>
      </trkpt>
      <trkpt lat="44.87717" lon="5.75217">
        <ele>770.6</ele>
        <time>2022-07-16T08:39:06Z</time>
      </trkpt>
      <trkpt lat="44.87721" lon="5.75221">
        <ele>770.8</ele>
        <time>2022-07-16T08:39:09Z</time>
      </trkpt>
      <trkpt lat="44.87725" lon="5.75225">
        <ele>771.1</ele>
        <time>2022-07-16T08:39:10Z</time>
      </trkpt>
      <trkpt lat="44.87731" lon="5.7523">
        <ele>771.3</ele>
        <time>2022-07-16T08:39:12Z</time>
      </trkpt>
      <trkpt lat="44.87735" lon="5.75234">
        <ele>771.6</ele>
        <time>2022-07-16T08:39:15Z</time>
      </trkpt>
      <trkpt lat="44.87738" lon="5.75237">
        <ele>771.7</ele>
        <time>2022-07-16T08:39:16Z</time>
      </trkpt>
      <trkpt lat="44.87746" lon="5.75243">
        <ele>772.2</ele>
        <time>2022-07-16T08:39:18Z</time>
      </trkpt>
      <trkpt lat="44.8775" lon="5.75246">
        <ele>772.4</ele>
        <time>2022-07-16T08:39:20Z</time>
      </trkpt>
      <trkpt lat="44.87753" lon="5.75249">
        <ele>772.6</ele>
        <time>2022-07-16T08:39:21Z</time>
      </trkpt>
      <trkpt lat="44.87758" lon="5.75252">
        <ele>772.9</ele>
        <time>2022-07-16T08:39:22Z</time>
      </trkpt>
      <trkpt lat="44.87764" lon="5.75258">
        <ele>773.3</ele>
        <time>2022-07-16T08:39:25Z</time>
      </trkpt>
      <trkpt lat="44.87769" lon="5.75262">
        <ele>773.6</ele>
        <time>2022-07-16T08:39:27Z</time>
      </trkpt>
      <trkpt lat="44.87772" lon="5.75266">
        <ele>773.8</ele>
        <time>2022-07-16T08:39:29Z</time>
      </trkpt>
      <trkpt lat="44.87775" lon="5.75268">
        <ele>773.9</ele>
        <time>2022-07-16T08:39:30Z</time>
      </trkpt>
      <trkpt lat="44.87777" lon="5.75271">
        <ele>774.1</ele>
        <time>2022-07-16T08:39:31Z</time>
      </trkpt>
      <trkpt lat="44.87781" lon="5.75274">
        <ele>774.3</ele>
        <time>2022-07-16T08:39:32Z</time>
      </trkpt>
      <trkpt lat="44.87782" lon="5.75275">
        <ele>774.4</ele>
        <time>2022-07-16T08:39:33Z</time>
      </trkpt>
      <trkpt lat="44.87786" lon="5.75279">
        <ele>774.6</ele>
        <time>2022-07-16T08:39:34Z</time>
      </trkpt>
      <trkpt lat="44.87788" lon="5.75281">
        <ele>774.7</ele>
        <time>2022-07-16T08:39:35Z</time>
      </trkpt>
      <trkpt lat="44.87793" lon="5.75286">
        <ele>775.1</ele>
        <time>2022-07-16T08:39:38Z</time>
      </trkpt>
      <trkpt lat="44.87796" lon="5.7529">
        <ele>775.3</ele>
        <time>2022-07-16T08:39:39Z</time>
      </trkpt>
      <trkpt lat="44.87797" lon="5.75291">
        <ele>775.4</ele>
        <time>2022-07-16T08:39:40Z</time>
      </trkpt>
      <trkpt lat="44.878" lon="5.75293">
        <ele>775.5</ele>
        <time>2022-07-16T08:39:41Z</time>
      </trkpt>
      <trkpt lat="44.87802" lon="5.75296">
        <ele>775.7</ele>
        <time>2022-07-16T08:39:42Z</time>
      </trkpt>
      <trkpt lat="44.87805" lon="5.75298">
        <ele>775.8</ele>
        <time>2022-07-16T08:39:43Z</time>
      </trkpt>
      <trkpt lat="44.87809" lon="5.75301">
        <ele>776</ele>
        <time>2022-07-16T08:39:44Z</time>
      </trkpt>
      <trkpt lat="44.87813" lon="5.75304">
        <ele>776.2</ele>
        <time>2022-07-16T08:39:45Z</time>
      </trkpt>
      <trkpt lat="44.87817" lon="5.75306">
        <ele>776.4</ele>
        <time>2022-07-16T08:39:46Z</time>
      </trkpt>
      <trkpt lat="44.87823" lon="5.75311">
        <ele>776.8</ele>
        <time>2022-07-16T08:39:48Z</time>
      </trkpt>
      <trkpt lat="44.87827" lon="5.75314">
        <ele>777.1</ele>
        <time>2022-07-16T08:39:50Z</time>
      </trkpt>
      <trkpt lat="44.87831" lon="5.75316">
        <ele>777.3</ele>
        <time>2022-07-16T08:39:51Z</time>
      </trkpt>
      <trkpt lat="44.87833" lon="5.75317">
        <ele>777.4</ele>
        <time>2022-07-16T08:39:52Z</time>
      </trkpt>
      <trkpt lat="44.87836" lon="5.7532">
        <ele>777.6</ele>
        <time>2022-07-16T08:39:53Z</time>
      </trkpt>
      <trkpt lat="44.87844" lon="5.75323">
        <ele>778.1</ele>
        <time>2022-07-16T08:39:55Z</time>
      </trkpt>
      <trkpt lat="44.8785" lon="5.75326">
        <ele>778.4</ele>
        <time>2022-07-16T08:39:58Z</time>
      </trkpt>
      <trkpt lat="44.87852" lon="5.75327">
        <ele>778.6</ele>
        <time>2022-07-16T08:39:59Z</time>
      </trkpt>
      <trkpt lat="44.87858" lon="5.75331">
        <ele>778.9</ele>
        <time>2022-07-16T08:40:00Z</time>
      </trkpt>
      <trkpt lat="44.87863" lon="5.75336">
        <ele>779.3</ele>
        <time>2022-07-16T08:40:03Z</time>
      </trkpt>
      <trkpt lat="44.87867" lon="5.75341">
        <ele>779.6</ele>
        <time>2022-07-16T08:40:04Z</time>
      </trkpt>
      <trkpt lat="44.87868" lon="5.75346">
        <ele>779.9</ele>
        <time>2022-07-16T08:40:05Z</time>
      </trkpt>
      <trkpt lat="44.87869" lon="5.75355">
        <ele>780.3</ele>
        <time>2022-07-16T08:40:06Z</time>
      </trkpt>
      <trkpt lat="44.87868" lon="5.75359">
        <ele>780.4</ele>
        <time>2022-07-16T08:40:08Z</time>
      </trkpt>
      <trkpt lat="44.87866" lon="5.75362">
        <ele>780.6</ele>
        <time>2022-07-16T08:40:09Z</time>
      </trkpt>
      <trkpt lat="44.87863" lon="5.75368">
        <ele>780.9</ele>
        <time>2022-07-16T08:40:10Z</time>
      </trkpt>
      <trkpt lat="44.87858" lon="5.7537">
        <ele>781.2</ele>
        <time>2022-07-16T08:40:13Z</time>
      </trkpt>
      <trkpt lat="44.87856" lon="5.75371">
        <ele>781.3</ele>
        <time>2022-07-16T08:40:14Z</time>
      </trkpt>
      <trkpt lat="44.87852" lon="5.75372">
        <ele>781.5</ele>
        <time>2022-07-16T08:40:15Z</time>
      </trkpt>
      <trkpt lat="44.87849" lon="5.75373">
        <ele>781.6</ele>
        <time>2022-07-16T08:40:16Z</time>
      </trkpt>
      <trkpt lat="44.87845" lon="5.75374">
        <ele>781.8</ele>
        <time>2022-07-16T08:40:17Z</time>
      </trkpt>
      <trkpt lat="44.87844" lon="5.75374">
        <ele>781.8</ele>
        <time>2022-07-16T08:40:18Z</time>
      </trkpt>
      <trkpt lat="44.87841" lon="5.75374">
        <ele>782</ele>
        <time>2022-07-16T08:40:19Z</time>
      </trkpt>
      <trkpt lat="44.87837" lon="5.75375">
        <ele>782.1</ele>
        <time>2022-07-16T08:40:20Z</time>
      </trkpt>
      <trkpt lat="44.87834" lon="5.75375">
        <ele>782.2</ele>
        <time>2022-07-16T08:40:21Z</time>
      </trkpt>
      <trkpt lat="44.87831" lon="5.75376">
        <ele>782.3</ele>
        <time>2022-07-16T08:40:22Z</time>
      </trkpt>
      <trkpt lat="44.87827" lon="5.75376">
        <ele>782.5</ele>
        <time>2022-07-16T08:40:23Z</time>
      </trkpt>
      <trkpt lat="44.87826" lon="5.75376">
        <ele>782.5</ele>
        <time>2022-07-16T08:40:24Z</time>
      </trkpt>
      <trkpt lat="44.87823" lon="5.75377">
        <ele>782.6</ele>
        <time>2022-07-16T08:40:25Z</time>
      </trkpt>
      <trkpt lat="44.8782" lon="5.75377">
        <ele>782.8</ele>
        <time>2022-07-16T08:40:26Z</time>
      </trkpt>
      <trkpt lat="44.87816" lon="5.75378">
        <ele>782.9</ele>
        <time>2022-07-16T08:40:27Z</time>
      </trkpt>
      <trkpt lat="44.87813" lon="5.75378">
        <ele>783</ele>
        <time>2022-07-16T08:40:28Z</time>
      </trkpt>
      <trkpt lat="44.8781" lon="5.75378">
        <ele>783.1</ele>
        <time>2022-07-16T08:40:29Z</time>
      </trkpt>
      <trkpt lat="44.87807" lon="5.75379">
        <ele>783.3</ele>
        <time>2022-07-16T08:40:30Z</time>
      </trkpt>
      <trkpt lat="44.87804" lon="5.7538">
        <ele>783.4</ele>
        <time>2022-07-16T08:40:31Z</time>
      </trkpt>
      <trkpt lat="44.87799" lon="5.75381">
        <ele>783.6</ele>
        <time>2022-07-16T08:40:32Z</time>
      </trkpt>
      <trkpt lat="44.87798" lon="5.75382">
        <ele>783.6</ele>
        <time>2022-07-16T08:40:33Z</time>
      </trkpt>
      <trkpt lat="44.87794" lon="5.75383">
        <ele>783.8</ele>
        <time>2022-07-16T08:40:34Z</time>
      </trkpt>
      <trkpt lat="44.87791" lon="5.75384">
        <ele>783.9</ele>
        <time>2022-07-16T08:40:35Z</time>
      </trkpt>
      <trkpt lat="44.87788" lon="5.75384">
        <ele>784</ele>
        <time>2022-07-16T08:40:36Z</time>
      </trkpt>
      <trkpt lat="44.87784" lon="5.75384">
        <ele>784.2</ele>
        <time>2022-07-16T08:40:37Z</time>
      </trkpt>
      <trkpt lat="44.87782" lon="5.75385">
        <ele>784.3</ele>
        <time>2022-07-16T08:40:38Z</time>
      </trkpt>
      <trkpt lat="44.87778" lon="5.75386">
        <ele>784.5</ele>
        <time>2022-07-16T08:40:39Z</time>
      </trkpt>
      <trkpt lat="44.87775" lon="5.75387">
        <ele>784.7</ele>
        <time>2022-07-16T08:40:40Z</time>
      </trkpt>
      <trkpt lat="44.87774" lon="5.75387">
        <ele>784.7</ele>
        <time>2022-07-16T08:40:41Z</time>
      </trkpt>
      <trkpt lat="44.8777" lon="5.75388">
        <ele>784.9</ele>
        <time>2022-07-16T08:40:42Z</time>
      </trkpt>
      <trkpt lat="44.87769" lon="5.75388">
        <ele>785</ele>
        <time>2022-07-16T08:40:43Z</time>
      </trkpt>
      <trkpt lat="44.87766" lon="5.75389">
        <ele>785.1</ele>
        <time>2022-07-16T08:40:44Z</time>
      </trkpt>
      <trkpt lat="44.87762" lon="5.7539">
        <ele>785.3</ele>
        <time>2022-07-16T08:40:45Z</time>
      </trkpt>
      <trkpt lat="44.87761" lon="5.75391">
        <ele>785.4</ele>
        <time>2022-07-16T08:40:46Z</time>
      </trkpt>
      <trkpt lat="44.87757" lon="5.75393">
        <ele>785.6</ele>
        <time>2022-07-16T08:40:47Z</time>
      </trkpt>
      <trkpt lat="44.87756" lon="5.75393">
        <ele>785.6</ele>
        <time>2022-07-16T08:40:48Z</time>
      </trkpt>
      <trkpt lat="44.87753" lon="5.75395">
        <ele>785.8</ele>
        <time>2022-07-16T08:40:49Z</time>
      </trkpt>
      <trkpt lat="44.8775" lon="5.75396">
        <ele>785.9</ele>
        <time>2022-07-16T08:40:50Z</time>
      </trkpt>
      <trkpt lat="44.87747" lon="5.75397">
        <ele>786.1</ele>
        <time>2022-07-16T08:40:51Z</time>
      </trkpt>
      <trkpt lat="44.87746" lon="5.75398">
        <ele>786.2</ele>
        <time>2022-07-16T08:40:52Z</time>
      </trkpt>
      <trkpt lat="44.87742" lon="5.754">
        <ele>786.4</ele>
        <time>2022-07-16T08:40:53Z</time>
      </trkpt>
      <trkpt lat="44.8774" lon="5.75401">
        <ele>786.5</ele>
        <time>2022-07-16T08:40:54Z</time>
      </trkpt>
      <trkpt lat="44.87738" lon="5.75402">
        <ele>786.6</ele>
        <time>2022-07-16T08:40:55Z</time>
      </trkpt>
      <trkpt lat="44.87735" lon="5.75404">
        <ele>786.7</ele>
        <time>2022-07-16T08:40:56Z</time>
      </trkpt>
      <trkpt lat="44.87732" lon="5.75406">
        <ele>786.9</ele>
        <time>2022-07-16T08:40:57Z</time>
      </trkpt>
      <trkpt lat="44.87728" lon="5.75408">
        <ele>787.1</ele>
        <time>2022-07-16T08:40:58Z</time>
      </trkpt>
      <trkpt lat="44.87725" lon="5.7541">
        <ele>787.2</ele>
        <time>2022-07-16T08:40:59Z</time>
      </trkpt>
      <trkpt lat="44.87723" lon="5.75411">
        <ele>787.4</ele>
        <time>2022-07-16T08:41:00Z</time>
      </trkpt>
      <trkpt lat="44.87719" lon="5.75414">
        <ele>787.6</ele>
        <time>2022-07-16T08:41:01Z</time>
      </trkpt>
      <trkpt lat="44.87717" lon="5.75415">
        <ele>787.7</ele>
        <time>2022-07-16T08:41:02Z</time>
      </trkpt>
      <trkpt lat="44.87714" lon="5.75416">
        <ele>787.8</ele>
        <time>2022-07-16T08:41:03Z</time>
      </trkpt>
      <trkpt lat="44.87711" lon="5.75417">
        <ele>787.9</ele>
        <time>2022-07-16T08:41:04Z</time>
      </trkpt>
      <trkpt lat="44.87707" lon="5.75419">
        <ele>788.1</ele>
        <time>2022-07-16T08:41:05Z</time>
      </trkpt>
      <trkpt lat="44.87706" lon="5.75419">
        <ele>788.2</ele>
        <time>2022-07-16T08:41:06Z</time>
      </trkpt>
      <trkpt lat="44.87704" lon="5.7542">
        <ele>788.3</ele>
        <time>2022-07-16T08:41:07Z</time>
      </trkpt>
      <trkpt lat="44.877" lon="5.75421">
        <ele>788.5</ele>
        <time>2022-07-16T08:41:08Z</time>
      </trkpt>
      <trkpt lat="44.87697" lon="5.75422">
        <ele>788.6</ele>
        <time>2022-07-16T08:41:09Z</time>
      </trkpt>
      <trkpt lat="44.87695" lon="5.75423">
        <ele>788.7</ele>
        <time>2022-07-16T08:41:10Z</time>
      </trkpt>
      <trkpt lat="44.87692" lon="5.75424">
        <ele>788.9</ele>
        <time>2022-07-16T08:41:11Z</time>
      </trkpt>
      <trkpt lat="44.87688" lon="5.75426">
        <ele>789</ele>
        <time>2022-07-16T08:41:12Z</time>
      </trkpt>
      <trkpt lat="44.87685" lon="5.75427">
        <ele>789.2</ele>
        <time>2022-07-16T08:41:13Z</time>
      </trkpt>
      <trkpt lat="44.87681" lon="5.75427">
        <ele>789.4</ele>
        <time>2022-07-16T08:41:14Z</time>
      </trkpt>
      <trkpt lat="44.87679" lon="5.75428">
        <ele>789.5</ele>
        <time>2022-07-16T08:41:15Z</time>
      </trkpt>
      <trkpt lat="44.87675" lon="5.75429">
        <ele>789.7</ele>
        <time>2022-07-16T08:41:16Z</time>
      </trkpt>
      <trkpt lat="44.87673" lon="5.7543">
        <ele>789.8</ele>
        <time>2022-07-16T08:41:17Z</time>
      </trkpt>
      <trkpt lat="44.8767" lon="5.7543">
        <ele>789.9</ele>
        <time>2022-07-16T08:41:18Z</time>
      </trkpt>
      <trkpt lat="44.87667" lon="5.75431">
        <ele>790</ele>
        <time>2022-07-16T08:41:19Z</time>
      </trkpt>
      <trkpt lat="44.87664" lon="5.75432">
        <ele>790.2</ele>
        <time>2022-07-16T08:41:20Z</time>
      </trkpt>
      <trkpt lat="44.87662" lon="5.75433">
        <ele>790.3</ele>
        <time>2022-07-16T08:41:21Z</time>
      </trkpt>
      <trkpt lat="44.87659" lon="5.75433">
        <ele>790.5</ele>
        <time>2022-07-16T08:41:22Z</time>
      </trkpt>
      <trkpt lat="44.87656" lon="5.75433">
        <ele>790.6</ele>
        <time>2022-07-16T08:41:23Z</time>
      </trkpt>
      <trkpt lat="44.87653" lon="5.75433">
        <ele>790.8</ele>
        <time>2022-07-16T08:41:24Z</time>
      </trkpt>
      <trkpt lat="44.87649" lon="5.75433">
        <ele>791</ele>
        <time>2022-07-16T08:41:25Z</time>
      </trkpt>
      <trkpt lat="44.87647" lon="5.75433">
        <ele>791</ele>
        <time>2022-07-16T08:41:26Z</time>
      </trkpt>
      <trkpt lat="44.87643" lon="5.75433">
        <ele>791.2</ele>
        <time>2022-07-16T08:41:27Z</time>
      </trkpt>
      <trkpt lat="44.87642" lon="5.75434">
        <ele>791.3</ele>
        <time>2022-07-16T08:41:28Z</time>
      </trkpt>
      <trkpt lat="44.87639" lon="5.75434">
        <ele>791.5</ele>
        <time>2022-07-16T08:41:29Z</time>
      </trkpt>
      <trkpt lat="44.87636" lon="5.75434">
        <ele>791.6</ele>
        <time>2022-07-16T08:41:30Z</time>
      </trkpt>
      <trkpt lat="44.87632" lon="5.75435">
        <ele>791.8</ele>
        <time>2022-07-16T08:41:31Z</time>
      </trkpt>
      <trkpt lat="44.87629" lon="5.75435">
        <ele>791.9</ele>
        <time>2022-07-16T08:41:32Z</time>
      </trkpt>
      <trkpt lat="44.87626" lon="5.75435">
        <ele>792.1</ele>
        <time>2022-07-16T08:41:33Z</time>
      </trkpt>
      <trkpt lat="44.87623" lon="5.75436">
        <ele>792.2</ele>
        <time>2022-07-16T08:41:34Z</time>
      </trkpt>
      <trkpt lat="44.87619" lon="5.75436">
        <ele>792.4</ele>
        <time>2022-07-16T08:41:35Z</time>
      </trkpt>
      <trkpt lat="44.87617" lon="5.75437">
        <ele>792.5</ele>
        <time>2022-07-16T08:41:36Z</time>
      </trkpt>
      <trkpt lat="44.87614" lon="5.75438">
        <ele>792.7</ele>
        <time>2022-07-16T08:41:37Z</time>
      </trkpt>
      <trkpt lat="44.87611" lon="5.75438">
        <ele>792.8</ele>
        <time>2022-07-16T08:41:38Z</time>
      </trkpt>
      <trkpt lat="44.87608" lon="5.75439">
        <ele>793</ele>
        <time>2022-07-16T08:41:39Z</time>
      </trkpt>
      <trkpt lat="44.87605" lon="5.75441">
        <ele>793.1</ele>
        <time>2022-07-16T08:41:40Z</time>
      </trkpt>
      <trkpt lat="44.87602" lon="5.75443">
        <ele>793.3</ele>
        <time>2022-07-16T08:41:41Z</time>
      </trkpt>
      <trkpt lat="44.87599" lon="5.75444">
        <ele>793.5</ele>
        <time>2022-07-16T08:41:42Z</time>
      </trkpt>
      <trkpt lat="44.87596" lon="5.75446">
        <ele>793.6</ele>
        <time>2022-07-16T08:41:43Z</time>
      </trkpt>
      <trkpt lat="44.87593" lon="5.75448">
        <ele>793.8</ele>
        <time>2022-07-16T08:41:44Z</time>
      </trkpt>
      <trkpt lat="44.8759" lon="5.7545">
        <ele>793.9</ele>
        <time>2022-07-16T08:41:45Z</time>
      </trkpt>
      <trkpt lat="44.87586" lon="5.75452">
        <ele>794.1</ele>
        <time>2022-07-16T08:41:46Z</time>
      </trkpt>
      <trkpt lat="44.87583" lon="5.75454">
        <ele>794.3</ele>
        <time>2022-07-16T08:41:47Z</time>
      </trkpt>
      <trkpt lat="44.87581" lon="5.75455">
        <ele>794.4</ele>
        <time>2022-07-16T08:41:48Z</time>
      </trkpt>
      <trkpt lat="44.87578" lon="5.75458">
        <ele>794.6</ele>
        <time>2022-07-16T08:41:49Z</time>
      </trkpt>
      <trkpt lat="44.87575" lon="5.7546">
        <ele>794.7</ele>
        <time>2022-07-16T08:41:50Z</time>
      </trkpt>
      <trkpt lat="44.87572" lon="5.75463">
        <ele>794.9</ele>
        <time>2022-07-16T08:41:51Z</time>
      </trkpt>
      <trkpt lat="44.8757" lon="5.75465">
        <ele>795.1</ele>
        <time>2022-07-16T08:41:52Z</time>
      </trkpt>
      <trkpt lat="44.87567" lon="5.75467">
        <ele>795.2</ele>
        <time>2022-07-16T08:41:53Z</time>
      </trkpt>
      <trkpt lat="44.87564" lon="5.75469">
        <ele>795.4</ele>
        <time>2022-07-16T08:41:54Z</time>
      </trkpt>
      <trkpt lat="44.87561" lon="5.75471">
        <ele>795.6</ele>
        <time>2022-07-16T08:41:55Z</time>
      </trkpt>
      <trkpt lat="44.87558" lon="5.75473">
        <ele>795.7</ele>
        <time>2022-07-16T08:41:56Z</time>
      </trkpt>
      <trkpt lat="44.87555" lon="5.75475">
        <ele>795.9</ele>
        <time>2022-07-16T08:41:57Z</time>
      </trkpt>
      <trkpt lat="44.87552" lon="5.75477">
        <ele>796</ele>
        <time>2022-07-16T08:41:58Z</time>
      </trkpt>
      <trkpt lat="44.8755" lon="5.75479">
        <ele>796.2</ele>
        <time>2022-07-16T08:41:59Z</time>
      </trkpt>
      <trkpt lat="44.87547" lon="5.75484">
        <ele>796.4</ele>
        <time>2022-07-16T08:42:00Z</time>
      </trkpt>
      <trkpt lat="44.87546" lon="5.75486">
        <ele>796.4</ele>
        <time>2022-07-16T08:42:01Z</time>
      </trkpt>
      <trkpt lat="44.87545" lon="5.7549">
        <ele>796.6</ele>
        <time>2022-07-16T08:42:02Z</time>
      </trkpt>
      <trkpt lat="44.87544" lon="5.75494">
        <ele>796.7</ele>
        <time>2022-07-16T08:42:03Z</time>
      </trkpt>
      <trkpt lat="44.87544" lon="5.75499">
        <ele>796.8</ele>
        <time>2022-07-16T08:42:04Z</time>
      </trkpt>
      <trkpt lat="44.87544" lon="5.75504">
        <ele>797</ele>
        <time>2022-07-16T08:42:05Z</time>
      </trkpt>
      <trkpt lat="44.87545" lon="5.75508">
        <ele>797.1</ele>
        <time>2022-07-16T08:42:06Z</time>
      </trkpt>
      <trkpt lat="44.87546" lon="5.75513">
        <ele>797.2</ele>
        <time>2022-07-16T08:42:07Z</time>
      </trkpt>
      <trkpt lat="44.87548" lon="5.75517">
        <ele>797.4</ele>
        <time>2022-07-16T08:42:08Z</time>
      </trkpt>
      <trkpt lat="44.87549" lon="5.75521">
        <ele>797.5</ele>
        <time>2022-07-16T08:42:09Z</time>
      </trkpt>
      <trkpt lat="44.87551" lon="5.75526">
        <ele>797.6</ele>
        <time>2022-07-16T08:42:10Z</time>
      </trkpt>
      <trkpt lat="44.87552" lon="5.7553">
        <ele>797.8</ele>
        <time>2022-07-16T08:42:11Z</time>
      </trkpt>
      <trkpt lat="44.87553" lon="5.75534">
        <ele>797.9</ele>
        <time>2022-07-16T08:42:12Z</time>
      </trkpt>
      <trkpt lat="44.87554" lon="5.75538">
        <ele>798</ele>
        <time>2022-07-16T08:42:13Z</time>
      </trkpt>
      <trkpt lat="44.87555" lon="5.75542">
        <ele>798.1</ele>
        <time>2022-07-16T08:42:14Z</time>
      </trkpt>
      <trkpt lat="44.87556" lon="5.75547">
        <ele>798.3</ele>
        <time>2022-07-16T08:42:15Z</time>
      </trkpt>
      <trkpt lat="44.87556" lon="5.75551">
        <ele>798.4</ele>
        <time>2022-07-16T08:42:16Z</time>
      </trkpt>
      <trkpt lat="44.87556" lon="5.75555">
        <ele>798.5</ele>
        <time>2022-07-16T08:42:17Z</time>
      </trkpt>
      <trkpt lat="44.87556" lon="5.7556">
        <ele>798.7</ele>
        <time>2022-07-16T08:42:18Z</time>
      </trkpt>
      <trkpt lat="44.87556" lon="5.75564">
        <ele>798.8</ele>
        <time>2022-07-16T08:42:19Z</time>
      </trkpt>
      <trkpt lat="44.87556" lon="5.75568">
        <ele>798.9</ele>
        <time>2022-07-16T08:42:20Z</time>
      </trkpt>
      <trkpt lat="44.87555" lon="5.75572">
        <ele>799</ele>
        <time>2022-07-16T08:42:21Z</time>
      </trkpt>
      <trkpt lat="44.87555" lon="5.75577">
        <ele>799.1</ele>
        <time>2022-07-16T08:42:22Z</time>
      </trkpt>
      <trkpt lat="44.87555" lon="5.75581">
        <ele>799.3</ele>
        <time>2022-07-16T08:42:23Z</time>
      </trkpt>
      <trkpt lat="44.87555" lon="5.75586">
        <ele>799.4</ele>
        <time>2022-07-16T08:42:24Z</time>
      </trkpt>
      <trkpt lat="44.87555" lon="5.75591">
        <ele>799.6</ele>
        <time>2022-07-16T08:42:25Z</time>
      </trkpt>
      <trkpt lat="44.87556" lon="5.75595">
        <ele>799.7</ele>
        <time>2022-07-16T08:42:26Z</time>
      </trkpt>
      <trkpt lat="44.87557" lon="5.756">
        <ele>799.8</ele>
        <time>2022-07-16T08:42:27Z</time>
      </trkpt>
      <trkpt lat="44.87557" lon="5.75605">
        <ele>800</ele>
        <time>2022-07-16T08:42:28Z</time>
      </trkpt>
      <trkpt lat="44.87558" lon="5.7561">
        <ele>800.1</ele>
        <time>2022-07-16T08:42:29Z</time>
      </trkpt>
      <trkpt lat="44.87559" lon="5.75614">
        <ele>800.3</ele>
        <time>2022-07-16T08:42:30Z</time>
      </trkpt>
      <trkpt lat="44.87561" lon="5.75619">
        <ele>800.5</ele>
        <time>2022-07-16T08:42:31Z</time>
      </trkpt>
      <trkpt lat="44.87562" lon="5.75623">
        <ele>800.6</ele>
        <time>2022-07-16T08:42:32Z</time>
      </trkpt>
      <trkpt lat="44.87564" lon="5.75628">
        <ele>800.8</ele>
        <time>2022-07-16T08:42:33Z</time>
      </trkpt>
      <trkpt lat="44.87566" lon="5.75632">
        <ele>800.9</ele>
        <time>2022-07-16T08:42:34Z</time>
      </trkpt>
      <trkpt lat="44.87567" lon="5.75637">
        <ele>801.1</ele>
        <time>2022-07-16T08:42:35Z</time>
      </trkpt>
      <trkpt lat="44.87569" lon="5.75641">
        <ele>801.3</ele>
        <time>2022-07-16T08:42:36Z</time>
      </trkpt>
      <trkpt lat="44.87571" lon="5.75645">
        <ele>801.4</ele>
        <time>2022-07-16T08:42:37Z</time>
      </trkpt>
      <trkpt lat="44.87572" lon="5.75649">
        <ele>801.6</ele>
        <time>2022-07-16T08:42:38Z</time>
      </trkpt>
      <trkpt lat="44.87573" lon="5.75654">
        <ele>801.7</ele>
        <time>2022-07-16T08:42:39Z</time>
      </trkpt>
      <trkpt lat="44.87574" lon="5.75658">
        <ele>801.9</ele>
        <time>2022-07-16T08:42:40Z</time>
      </trkpt>
      <trkpt lat="44.87576" lon="5.75664">
        <ele>802.1</ele>
        <time>2022-07-16T08:42:41Z</time>
      </trkpt>
      <trkpt lat="44.8758" lon="5.75675">
        <ele>802.5</ele>
        <time>2022-07-16T08:42:43Z</time>
      </trkpt>
      <trkpt lat="44.87582" lon="5.75682">
        <ele>802.8</ele>
        <time>2022-07-16T08:42:45Z</time>
      </trkpt>
      <trkpt lat="44.87585" lon="5.75688">
        <ele>803</ele>
        <time>2022-07-16T08:42:46Z</time>
      </trkpt>
      <trkpt lat="44.87585" lon="5.75691">
        <ele>803.1</ele>
        <time>2022-07-16T08:42:47Z</time>
      </trkpt>
      <trkpt lat="44.87587" lon="5.757">
        <ele>803.5</ele>
        <time>2022-07-16T08:42:49Z</time>
      </trkpt>
      <trkpt lat="44.87589" lon="5.75703">
        <ele>803.6</ele>
        <time>2022-07-16T08:42:50Z</time>
      </trkpt>
      <trkpt lat="44.87591" lon="5.75711">
        <ele>803.9</ele>
        <time>2022-07-16T08:42:52Z</time>
      </trkpt>
      <trkpt lat="44.87592" lon="5.75717">
        <ele>804.1</ele>
        <time>2022-07-16T08:42:53Z</time>
      </trkpt>
      <trkpt lat="44.87595" lon="5.75724">
        <ele>804.4</ele>
        <time>2022-07-16T08:42:55Z</time>
      </trkpt>
      <trkpt lat="44.87597" lon="5.7573">
        <ele>804.6</ele>
        <time>2022-07-16T08:42:57Z</time>
      </trkpt>
      <trkpt lat="44.87598" lon="5.75735">
        <ele>804.8</ele>
        <time>2022-07-16T08:42:58Z</time>
      </trkpt>
      <trkpt lat="44.87599" lon="5.75739">
        <ele>804.9</ele>
        <time>2022-07-16T08:42:59Z</time>
      </trkpt>
      <trkpt lat="44.87601" lon="5.75747">
        <ele>805.2</ele>
        <time>2022-07-16T08:43:01Z</time>
      </trkpt>
      <trkpt lat="44.87602" lon="5.7575">
        <ele>805.3</ele>
        <time>2022-07-16T08:43:02Z</time>
      </trkpt>
      <trkpt lat="44.87603" lon="5.75755">
        <ele>805.5</ele>
        <time>2022-07-16T08:43:03Z</time>
      </trkpt>
      <trkpt lat="44.87606" lon="5.75763">
        <ele>805.8</ele>
        <time>2022-07-16T08:43:05Z</time>
      </trkpt>
      <trkpt lat="44.87607" lon="5.75768">
        <ele>806</ele>
        <time>2022-07-16T08:43:06Z</time>
      </trkpt>
      <trkpt lat="44.87607" lon="5.75773">
        <ele>806.1</ele>
        <time>2022-07-16T08:43:07Z</time>
      </trkpt>
      <trkpt lat="44.87608" lon="5.75777">
        <ele>806.3</ele>
        <time>2022-07-16T08:43:08Z</time>
      </trkpt>
      <trkpt lat="44.8761" lon="5.75783">
        <ele>806.5</ele>
        <time>2022-07-16T08:43:10Z</time>
      </trkpt>
      <trkpt lat="44.87611" lon="5.75788">
        <ele>806.7</ele>
        <time>2022-07-16T08:43:11Z</time>
      </trkpt>
      <trkpt lat="44.87613" lon="5.75796">
        <ele>806.9</ele>
        <time>2022-07-16T08:43:14Z</time>
      </trkpt>
      <trkpt lat="44.87614" lon="5.758">
        <ele>807.1</ele>
        <time>2022-07-16T08:43:15Z</time>
      </trkpt>
      <trkpt lat="44.87616" lon="5.75805">
        <ele>807.3</ele>
        <time>2022-07-16T08:43:16Z</time>
      </trkpt>
      <trkpt lat="44.87617" lon="5.75807">
        <ele>807.3</ele>
        <time>2022-07-16T08:43:17Z</time>
      </trkpt>
      <trkpt lat="44.87618" lon="5.75811">
        <ele>807.5</ele>
        <time>2022-07-16T08:43:18Z</time>
      </trkpt>
      <trkpt lat="44.87619" lon="5.75815">
        <ele>807.6</ele>
        <time>2022-07-16T08:43:19Z</time>
      </trkpt>
      <trkpt lat="44.8762" lon="5.75818">
        <ele>807.7</ele>
        <time>2022-07-16T08:43:20Z</time>
      </trkpt>
      <trkpt lat="44.87622" lon="5.75822">
        <ele>807.9</ele>
        <time>2022-07-16T08:43:21Z</time>
      </trkpt>
      <trkpt lat="44.87624" lon="5.75827">
        <ele>808.1</ele>
        <time>2022-07-16T08:43:22Z</time>
      </trkpt>
      <trkpt lat="44.87624" lon="5.75829">
        <ele>808.2</ele>
        <time>2022-07-16T08:43:23Z</time>
      </trkpt>
      <trkpt lat="44.87626" lon="5.75834">
        <ele>808.4</ele>
        <time>2022-07-16T08:43:24Z</time>
      </trkpt>
      <trkpt lat="44.87627" lon="5.75835">
        <ele>808.4</ele>
        <time>2022-07-16T08:43:25Z</time>
      </trkpt>
      <trkpt lat="44.87629" lon="5.75839">
        <ele>808.6</ele>
        <time>2022-07-16T08:43:26Z</time>
      </trkpt>
      <trkpt lat="44.87631" lon="5.75842">
        <ele>808.8</ele>
        <time>2022-07-16T08:43:27Z</time>
      </trkpt>
      <trkpt lat="44.87632" lon="5.75844">
        <ele>808.8</ele>
        <time>2022-07-16T08:43:28Z</time>
      </trkpt>
      <trkpt lat="44.87635" lon="5.75848">
        <ele>809</ele>
        <time>2022-07-16T08:43:29Z</time>
      </trkpt>
      <trkpt lat="44.87636" lon="5.75849">
        <ele>809.1</ele>
        <time>2022-07-16T08:43:30Z</time>
      </trkpt>
      <trkpt lat="44.8764" lon="5.75852">
        <ele>809.3</ele>
        <time>2022-07-16T08:43:31Z</time>
      </trkpt>
      <trkpt lat="44.87641" lon="5.75854">
        <ele>809.4</ele>
        <time>2022-07-16T08:43:32Z</time>
      </trkpt>
      <trkpt lat="44.87644" lon="5.75857">
        <ele>809.6</ele>
        <time>2022-07-16T08:43:33Z</time>
      </trkpt>
      <trkpt lat="44.87645" lon="5.75858">
        <ele>809.7</ele>
        <time>2022-07-16T08:43:34Z</time>
      </trkpt>
      <trkpt lat="44.87648" lon="5.75861">
        <ele>809.8</ele>
        <time>2022-07-16T08:43:35Z</time>
      </trkpt>
      <trkpt lat="44.8765" lon="5.75863">
        <ele>810</ele>
        <time>2022-07-16T08:43:36Z</time>
      </trkpt>
      <trkpt lat="44.87654" lon="5.75866">
        <ele>810.2</ele>
        <time>2022-07-16T08:43:37Z</time>
      </trkpt>
      <trkpt lat="44.87655" lon="5.75867">
        <ele>810.2</ele>
        <time>2022-07-16T08:43:38Z</time>
      </trkpt>
      <trkpt lat="44.87659" lon="5.75869">
        <ele>810.5</ele>
        <time>2022-07-16T08:43:39Z</time>
      </trkpt>
      <trkpt lat="44.87661" lon="5.7587">
        <ele>810.6</ele>
        <time>2022-07-16T08:43:40Z</time>
      </trkpt>
      <trkpt lat="44.87664" lon="5.75873">
        <ele>810.8</ele>
        <time>2022-07-16T08:43:41Z</time>
      </trkpt>
      <trkpt lat="44.87666" lon="5.75874">
        <ele>810.8</ele>
        <time>2022-07-16T08:43:42Z</time>
      </trkpt>
      <trkpt lat="44.87669" lon="5.75877">
        <ele>811</ele>
        <time>2022-07-16T08:43:43Z</time>
      </trkpt>
      <trkpt lat="44.8767" lon="5.75879">
        <ele>811.1</ele>
        <time>2022-07-16T08:43:44Z</time>
      </trkpt>
      <trkpt lat="44.87673" lon="5.75882">
        <ele>811.3</ele>
        <time>2022-07-16T08:43:45Z</time>
      </trkpt>
      <trkpt lat="44.87674" lon="5.75883">
        <ele>811.3</ele>
        <time>2022-07-16T08:43:46Z</time>
      </trkpt>
      <trkpt lat="44.87676" lon="5.75886">
        <ele>811.4</ele>
        <time>2022-07-16T08:43:47Z</time>
      </trkpt>
      <trkpt lat="44.87679" lon="5.75888">
        <ele>811.6</ele>
        <time>2022-07-16T08:43:48Z</time>
      </trkpt>
      <trkpt lat="44.87681" lon="5.75891">
        <ele>811.7</ele>
        <time>2022-07-16T08:43:49Z</time>
      </trkpt>
      <trkpt lat="44.87682" lon="5.75893">
        <ele>811.8</ele>
        <time>2022-07-16T08:43:50Z</time>
      </trkpt>
      <trkpt lat="44.87684" lon="5.75896">
        <ele>811.9</ele>
        <time>2022-07-16T08:43:51Z</time>
      </trkpt>
      <trkpt lat="44.87686" lon="5.75898">
        <ele>812</ele>
        <time>2022-07-16T08:43:52Z</time>
      </trkpt>
      <trkpt lat="44.87688" lon="5.75901">
        <ele>812.2</ele>
        <time>2022-07-16T08:43:53Z</time>
      </trkpt>
      <trkpt lat="44.87691" lon="5.75904">
        <ele>812.3</ele>
        <time>2022-07-16T08:43:54Z</time>
      </trkpt>
      <trkpt lat="44.87693" lon="5.75908">
        <ele>812.4</ele>
        <time>2022-07-16T08:43:55Z</time>
      </trkpt>
      <trkpt lat="44.87697" lon="5.75911">
        <ele>812.6</ele>
        <time>2022-07-16T08:43:56Z</time>
      </trkpt>
      <trkpt lat="44.87698" lon="5.75913">
        <ele>812.7</ele>
        <time>2022-07-16T08:43:57Z</time>
      </trkpt>
      <trkpt lat="44.877" lon="5.75916">
        <ele>812.9</ele>
        <time>2022-07-16T08:43:58Z</time>
      </trkpt>
      <trkpt lat="44.87703" lon="5.7592">
        <ele>813</ele>
        <time>2022-07-16T08:43:59Z</time>
      </trkpt>
      <trkpt lat="44.87705" lon="5.75923">
        <ele>813.2</ele>
        <time>2022-07-16T08:44:00Z</time>
      </trkpt>
      <trkpt lat="44.87707" lon="5.75926">
        <ele>813.4</ele>
        <time>2022-07-16T08:44:01Z</time>
      </trkpt>
      <trkpt lat="44.8771" lon="5.7593">
        <ele>813.5</ele>
        <time>2022-07-16T08:44:02Z</time>
      </trkpt>
      <trkpt lat="44.87713" lon="5.75933">
        <ele>813.7</ele>
        <time>2022-07-16T08:44:03Z</time>
      </trkpt>
      <trkpt lat="44.87716" lon="5.75936">
        <ele>813.9</ele>
        <time>2022-07-16T08:44:04Z</time>
      </trkpt>
      <trkpt lat="44.87717" lon="5.75937">
        <ele>814</ele>
        <time>2022-07-16T08:44:05Z</time>
      </trkpt>
      <trkpt lat="44.87719" lon="5.7594">
        <ele>814.2</ele>
        <time>2022-07-16T08:44:06Z</time>
      </trkpt>
      <trkpt lat="44.87721" lon="5.75943">
        <ele>814.3</ele>
        <time>2022-07-16T08:44:07Z</time>
      </trkpt>
      <trkpt lat="44.87724" lon="5.75946">
        <ele>814.5</ele>
        <time>2022-07-16T08:44:08Z</time>
      </trkpt>
      <trkpt lat="44.87727" lon="5.75948">
        <ele>814.7</ele>
        <time>2022-07-16T08:44:09Z</time>
      </trkpt>
      <trkpt lat="44.87729" lon="5.75951">
        <ele>814.8</ele>
        <time>2022-07-16T08:44:10Z</time>
      </trkpt>
      <trkpt lat="44.87732" lon="5.75953">
        <ele>815</ele>
        <time>2022-07-16T08:44:11Z</time>
      </trkpt>
      <trkpt lat="44.87735" lon="5.75957">
        <ele>815.2</ele>
        <time>2022-07-16T08:44:12Z</time>
      </trkpt>
      <trkpt lat="44.87736" lon="5.75959">
        <ele>815.3</ele>
        <time>2022-07-16T08:44:13Z</time>
      </trkpt>
      <trkpt lat="44.87738" lon="5.75962">
        <ele>815.5</ele>
        <time>2022-07-16T08:44:14Z</time>
      </trkpt>
      <trkpt lat="44.8774" lon="5.75966">
        <ele>815.6</ele>
        <time>2022-07-16T08:44:15Z</time>
      </trkpt>
      <trkpt lat="44.87742" lon="5.75971">
        <ele>815.8</ele>
        <time>2022-07-16T08:44:16Z</time>
      </trkpt>
      <trkpt lat="44.87743" lon="5.75974">
        <ele>816</ele>
        <time>2022-07-16T08:44:17Z</time>
      </trkpt>
      <trkpt lat="44.87744" lon="5.75979">
        <ele>816.1</ele>
        <time>2022-07-16T08:44:18Z</time>
      </trkpt>
      <trkpt lat="44.87745" lon="5.75983">
        <ele>816.3</ele>
        <time>2022-07-16T08:44:19Z</time>
      </trkpt>
      <trkpt lat="44.87746" lon="5.75987">
        <ele>816.4</ele>
        <time>2022-07-16T08:44:20Z</time>
      </trkpt>
      <trkpt lat="44.87747" lon="5.75991">
        <ele>816.6</ele>
        <time>2022-07-16T08:44:21Z</time>
      </trkpt>
      <trkpt lat="44.87748" lon="5.75995">
        <ele>816.7</ele>
        <time>2022-07-16T08:44:22Z</time>
      </trkpt>
      <trkpt lat="44.87748" lon="5.76">
        <ele>816.9</ele>
        <time>2022-07-16T08:44:23Z</time>
      </trkpt>
      <trkpt lat="44.87749" lon="5.76005">
        <ele>817</ele>
        <time>2022-07-16T08:44:24Z</time>
      </trkpt>
      <trkpt lat="44.8775" lon="5.76007">
        <ele>817.1</ele>
        <time>2022-07-16T08:44:25Z</time>
      </trkpt>
      <trkpt lat="44.8775" lon="5.76011">
        <ele>817.3</ele>
        <time>2022-07-16T08:44:26Z</time>
      </trkpt>
      <trkpt lat="44.87751" lon="5.76015">
        <ele>817.4</ele>
        <time>2022-07-16T08:44:27Z</time>
      </trkpt>
      <trkpt lat="44.87751" lon="5.7602">
        <ele>817.6</ele>
        <time>2022-07-16T08:44:28Z</time>
      </trkpt>
      <trkpt lat="44.87752" lon="5.76024">
        <ele>817.7</ele>
        <time>2022-07-16T08:44:29Z</time>
      </trkpt>
      <trkpt lat="44.87752" lon="5.7603">
        <ele>817.9</ele>
        <time>2022-07-16T08:44:30Z</time>
      </trkpt>
      <trkpt lat="44.87752" lon="5.76032">
        <ele>818</ele>
        <time>2022-07-16T08:44:31Z</time>
      </trkpt>
      <trkpt lat="44.87753" lon="5.76036">
        <ele>818.1</ele>
        <time>2022-07-16T08:44:32Z</time>
      </trkpt>
      <trkpt lat="44.87753" lon="5.7604">
        <ele>818.3</ele>
        <time>2022-07-16T08:44:33Z</time>
      </trkpt>
      <trkpt lat="44.87754" lon="5.76045">
        <ele>818.5</ele>
        <time>2022-07-16T08:44:34Z</time>
      </trkpt>
      <trkpt lat="44.87754" lon="5.76047">
        <ele>818.6</ele>
        <time>2022-07-16T08:44:35Z</time>
      </trkpt>
      <trkpt lat="44.87755" lon="5.76053">
        <ele>818.7</ele>
        <time>2022-07-16T08:44:36Z</time>
      </trkpt>
      <trkpt lat="44.87755" lon="5.76055">
        <ele>818.8</ele>
        <time>2022-07-16T08:44:37Z</time>
      </trkpt>
      <trkpt lat="44.87756" lon="5.76058">
        <ele>818.9</ele>
        <time>2022-07-16T08:44:38Z</time>
      </trkpt>
      <trkpt lat="44.87756" lon="5.76063">
        <ele>819.1</ele>
        <time>2022-07-16T08:44:39Z</time>
      </trkpt>
      <trkpt lat="44.87757" lon="5.76065">
        <ele>819.2</ele>
        <time>2022-07-16T08:44:40Z</time>
      </trkpt>
      <trkpt lat="44.87758" lon="5.7607">
        <ele>819.3</ele>
        <time>2022-07-16T08:44:41Z</time>
      </trkpt>
      <trkpt lat="44.87758" lon="5.76071">
        <ele>819.4</ele>
        <time>2022-07-16T08:44:42Z</time>
      </trkpt>
      <trkpt lat="44.87759" lon="5.7608">
        <ele>819.6</ele>
        <time>2022-07-16T08:44:43Z</time>
      </trkpt>
      <trkpt lat="44.8776" lon="5.76082">
        <ele>819.7</ele>
        <time>2022-07-16T08:44:44Z</time>
      </trkpt>
      <trkpt lat="44.87761" lon="5.76088">
        <ele>819.9</ele>
        <time>2022-07-16T08:44:45Z</time>
      </trkpt>
      <trkpt lat="44.87763" lon="5.76095">
        <ele>820.1</ele>
        <time>2022-07-16T08:44:47Z</time>
      </trkpt>
      <trkpt lat="44.87765" lon="5.76101">
        <ele>820.3</ele>
        <time>2022-07-16T08:44:48Z</time>
      </trkpt>
      <trkpt lat="44.87767" lon="5.76105">
        <ele>820.4</ele>
        <time>2022-07-16T08:44:50Z</time>
      </trkpt>
      <trkpt lat="44.87769" lon="5.76114">
        <ele>820.7</ele>
        <time>2022-07-16T08:44:52Z</time>
      </trkpt>
      <trkpt lat="44.8777" lon="5.7612">
        <ele>820.9</ele>
        <time>2022-07-16T08:44:53Z</time>
      </trkpt>
      <trkpt lat="44.87773" lon="5.7613">
        <ele>821.3</ele>
        <time>2022-07-16T08:44:55Z</time>
      </trkpt>
      <trkpt lat="44.87774" lon="5.76134">
        <ele>821.4</ele>
        <time>2022-07-16T08:44:56Z</time>
      </trkpt>
      <trkpt lat="44.87775" lon="5.76141">
        <ele>821.7</ele>
        <time>2022-07-16T08:44:58Z</time>
      </trkpt>
      <trkpt lat="44.87776" lon="5.76145">
        <ele>821.8</ele>
        <time>2022-07-16T08:44:59Z</time>
      </trkpt>
      <trkpt lat="44.87778" lon="5.76154">
        <ele>822.1</ele>
        <time>2022-07-16T08:45:01Z</time>
      </trkpt>
      <trkpt lat="44.87779" lon="5.76163">
        <ele>822.5</ele>
        <time>2022-07-16T08:45:03Z</time>
      </trkpt>
      <trkpt lat="44.87781" lon="5.76172">
        <ele>822.8</ele>
        <time>2022-07-16T08:45:05Z</time>
      </trkpt>
      <trkpt lat="44.87781" lon="5.76177">
        <ele>823</ele>
        <time>2022-07-16T08:45:06Z</time>
      </trkpt>
      <trkpt lat="44.87781" lon="5.76184">
        <ele>823.3</ele>
        <time>2022-07-16T08:45:08Z</time>
      </trkpt>
      <trkpt lat="44.87782" lon="5.76188">
        <ele>823.4</ele>
        <time>2022-07-16T08:45:09Z</time>
      </trkpt>
      <trkpt lat="44.87782" lon="5.76198">
        <ele>823.8</ele>
        <time>2022-07-16T08:45:11Z</time>
      </trkpt>
      <trkpt lat="44.87782" lon="5.76205">
        <ele>824.1</ele>
        <time>2022-07-16T08:45:14Z</time>
      </trkpt>
      <trkpt lat="44.87782" lon="5.7621">
        <ele>824.3</ele>
        <time>2022-07-16T08:45:15Z</time>
      </trkpt>
      <trkpt lat="44.87782" lon="5.76214">
        <ele>824.4</ele>
        <time>2022-07-16T08:45:16Z</time>
      </trkpt>
      <trkpt lat="44.87782" lon="5.76218">
        <ele>824.6</ele>
        <time>2022-07-16T08:45:17Z</time>
      </trkpt>
      <trkpt lat="44.87782" lon="5.76223">
        <ele>824.7</ele>
        <time>2022-07-16T08:45:18Z</time>
      </trkpt>
      <trkpt lat="44.87782" lon="5.76228">
        <ele>824.9</ele>
        <time>2022-07-16T08:45:19Z</time>
      </trkpt>
      <trkpt lat="44.87781" lon="5.7623">
        <ele>824.9</ele>
        <time>2022-07-16T08:45:20Z</time>
      </trkpt>
      <trkpt lat="44.87781" lon="5.76234">
        <ele>825.1</ele>
        <time>2022-07-16T08:45:21Z</time>
      </trkpt>
      <trkpt lat="44.87781" lon="5.76238">
        <ele>825.2</ele>
        <time>2022-07-16T08:45:22Z</time>
      </trkpt>
      <trkpt lat="44.87781" lon="5.76242">
        <ele>825.3</ele>
        <time>2022-07-16T08:45:23Z</time>
      </trkpt>
      <trkpt lat="44.87781" lon="5.76246">
        <ele>825.5</ele>
        <time>2022-07-16T08:45:24Z</time>
      </trkpt>
      <trkpt lat="44.87781" lon="5.76251">
        <ele>825.6</ele>
        <time>2022-07-16T08:45:25Z</time>
      </trkpt>
      <trkpt lat="44.87782" lon="5.76255">
        <ele>825.8</ele>
        <time>2022-07-16T08:45:26Z</time>
      </trkpt>
      <trkpt lat="44.87782" lon="5.7626">
        <ele>825.9</ele>
        <time>2022-07-16T08:45:27Z</time>
      </trkpt>
      <trkpt lat="44.87782" lon="5.76264">
        <ele>826.1</ele>
        <time>2022-07-16T08:45:28Z</time>
      </trkpt>
      <trkpt lat="44.87783" lon="5.76269">
        <ele>826.3</ele>
        <time>2022-07-16T08:45:29Z</time>
      </trkpt>
      <trkpt lat="44.87783" lon="5.76273">
        <ele>826.4</ele>
        <time>2022-07-16T08:45:30Z</time>
      </trkpt>
      <trkpt lat="44.87784" lon="5.76278">
        <ele>826.6</ele>
        <time>2022-07-16T08:45:31Z</time>
      </trkpt>
      <trkpt lat="44.87785" lon="5.76282">
        <ele>826.8</ele>
        <time>2022-07-16T08:45:32Z</time>
      </trkpt>
      <trkpt lat="44.87786" lon="5.76286">
        <ele>826.9</ele>
        <time>2022-07-16T08:45:33Z</time>
      </trkpt>
      <trkpt lat="44.87788" lon="5.76292">
        <ele>827.2</ele>
        <time>2022-07-16T08:45:34Z</time>
      </trkpt>
      <trkpt lat="44.87788" lon="5.76294">
        <ele>827.2</ele>
        <time>2022-07-16T08:45:35Z</time>
      </trkpt>
      <trkpt lat="44.8779" lon="5.76298">
        <ele>827.4</ele>
        <time>2022-07-16T08:45:36Z</time>
      </trkpt>
      <trkpt lat="44.87791" lon="5.76302">
        <ele>827.6</ele>
        <time>2022-07-16T08:45:37Z</time>
      </trkpt>
      <trkpt lat="44.87793" lon="5.76306">
        <ele>827.7</ele>
        <time>2022-07-16T08:45:38Z</time>
      </trkpt>
      <trkpt lat="44.87794" lon="5.7631">
        <ele>827.9</ele>
        <time>2022-07-16T08:45:39Z</time>
      </trkpt>
      <trkpt lat="44.87796" lon="5.76313">
        <ele>828</ele>
        <time>2022-07-16T08:45:40Z</time>
      </trkpt>
      <trkpt lat="44.87797" lon="5.76317">
        <ele>828.2</ele>
        <time>2022-07-16T08:45:41Z</time>
      </trkpt>
      <trkpt lat="44.87799" lon="5.76321">
        <ele>828.3</ele>
        <time>2022-07-16T08:45:42Z</time>
      </trkpt>
      <trkpt lat="44.87802" lon="5.76325">
        <ele>828.5</ele>
        <time>2022-07-16T08:45:43Z</time>
      </trkpt>
      <trkpt lat="44.87802" lon="5.76327">
        <ele>828.6</ele>
        <time>2022-07-16T08:45:44Z</time>
      </trkpt>
      <trkpt lat="44.87804" lon="5.7633">
        <ele>828.8</ele>
        <time>2022-07-16T08:45:45Z</time>
      </trkpt>
      <trkpt lat="44.87806" lon="5.76333">
        <ele>828.9</ele>
        <time>2022-07-16T08:45:46Z</time>
      </trkpt>
      <trkpt lat="44.87808" lon="5.76337">
        <ele>829</ele>
        <time>2022-07-16T08:45:47Z</time>
      </trkpt>
      <trkpt lat="44.8781" lon="5.76341">
        <ele>829.2</ele>
        <time>2022-07-16T08:45:48Z</time>
      </trkpt>
      <trkpt lat="44.87812" lon="5.76343">
        <ele>829.3</ele>
        <time>2022-07-16T08:45:49Z</time>
      </trkpt>
      <trkpt lat="44.87814" lon="5.76346">
        <ele>829.5</ele>
        <time>2022-07-16T08:45:50Z</time>
      </trkpt>
      <trkpt lat="44.87816" lon="5.76349">
        <ele>829.6</ele>
        <time>2022-07-16T08:45:51Z</time>
      </trkpt>
      <trkpt lat="44.87818" lon="5.76353">
        <ele>829.8</ele>
        <time>2022-07-16T08:45:52Z</time>
      </trkpt>
      <trkpt lat="44.87821" lon="5.76356">
        <ele>829.9</ele>
        <time>2022-07-16T08:45:53Z</time>
      </trkpt>
      <trkpt lat="44.87823" lon="5.76359">
        <ele>830</ele>
        <time>2022-07-16T08:45:54Z</time>
      </trkpt>
      <trkpt lat="44.87825" lon="5.76362">
        <ele>830.2</ele>
        <time>2022-07-16T08:45:55Z</time>
      </trkpt>
      <trkpt lat="44.87828" lon="5.76365">
        <ele>830.3</ele>
        <time>2022-07-16T08:45:56Z</time>
      </trkpt>
      <trkpt lat="44.8783" lon="5.76368">
        <ele>830.5</ele>
        <time>2022-07-16T08:45:57Z</time>
      </trkpt>
      <trkpt lat="44.87832" lon="5.76371">
        <ele>830.6</ele>
        <time>2022-07-16T08:45:58Z</time>
      </trkpt>
      <trkpt lat="44.87835" lon="5.76374">
        <ele>830.8</ele>
        <time>2022-07-16T08:45:59Z</time>
      </trkpt>
      <trkpt lat="44.87837" lon="5.76378">
        <ele>831</ele>
        <time>2022-07-16T08:46:00Z</time>
      </trkpt>
      <trkpt lat="44.87839" lon="5.76381">
        <ele>831.1</ele>
        <time>2022-07-16T08:46:01Z</time>
      </trkpt>
      <trkpt lat="44.87841" lon="5.76384">
        <ele>831.3</ele>
        <time>2022-07-16T08:46:02Z</time>
      </trkpt>
      <trkpt lat="44.87844" lon="5.76388">
        <ele>831.5</ele>
        <time>2022-07-16T08:46:03Z</time>
      </trkpt>
      <trkpt lat="44.87846" lon="5.76391">
        <ele>831.6</ele>
        <time>2022-07-16T08:46:04Z</time>
      </trkpt>
      <trkpt lat="44.87849" lon="5.76394">
        <ele>831.8</ele>
        <time>2022-07-16T08:46:05Z</time>
      </trkpt>
      <trkpt lat="44.87851" lon="5.76398">
        <ele>832</ele>
        <time>2022-07-16T08:46:06Z</time>
      </trkpt>
      <trkpt lat="44.87853" lon="5.76401">
        <ele>832.2</ele>
        <time>2022-07-16T08:46:07Z</time>
      </trkpt>
      <trkpt lat="44.87856" lon="5.76404">
        <ele>832.3</ele>
        <time>2022-07-16T08:46:08Z</time>
      </trkpt>
      <trkpt lat="44.87858" lon="5.76408">
        <ele>832.5</ele>
        <time>2022-07-16T08:46:09Z</time>
      </trkpt>
      <trkpt lat="44.87861" lon="5.76411">
        <ele>832.7</ele>
        <time>2022-07-16T08:46:10Z</time>
      </trkpt>
      <trkpt lat="44.87863" lon="5.76414">
        <ele>832.9</ele>
        <time>2022-07-16T08:46:11Z</time>
      </trkpt>
      <trkpt lat="44.87866" lon="5.76418">
        <ele>833</ele>
        <time>2022-07-16T08:46:12Z</time>
      </trkpt>
      <trkpt lat="44.87869" lon="5.76421">
        <ele>833.2</ele>
        <time>2022-07-16T08:46:13Z</time>
      </trkpt>
      <trkpt lat="44.87871" lon="5.76424">
        <ele>833.4</ele>
        <time>2022-07-16T08:46:14Z</time>
      </trkpt>
      <trkpt lat="44.87874" lon="5.76427">
        <ele>833.5</ele>
        <time>2022-07-16T08:46:15Z</time>
      </trkpt>
      <trkpt lat="44.87876" lon="5.7643">
        <ele>833.7</ele>
        <time>2022-07-16T08:46:16Z</time>
      </trkpt>
      <trkpt lat="44.87879" lon="5.76434">
        <ele>833.8</ele>
        <time>2022-07-16T08:46:17Z</time>
      </trkpt>
      <trkpt lat="44.87882" lon="5.76437">
        <ele>834</ele>
        <time>2022-07-16T08:46:18Z</time>
      </trkpt>
      <trkpt lat="44.87884" lon="5.7644">
        <ele>834.1</ele>
        <time>2022-07-16T08:46:19Z</time>
      </trkpt>
      <trkpt lat="44.87887" lon="5.76443">
        <ele>834.2</ele>
        <time>2022-07-16T08:46:20Z</time>
      </trkpt>
      <trkpt lat="44.87889" lon="5.76446">
        <ele>834.4</ele>
        <time>2022-07-16T08:46:21Z</time>
      </trkpt>
      <trkpt lat="44.87892" lon="5.76449">
        <ele>834.5</ele>
        <time>2022-07-16T08:46:22Z</time>
      </trkpt>
      <trkpt lat="44.87894" lon="5.76452">
        <ele>834.6</ele>
        <time>2022-07-16T08:46:23Z</time>
      </trkpt>
      <trkpt lat="44.87897" lon="5.76455">
        <ele>834.8</ele>
        <time>2022-07-16T08:46:24Z</time>
      </trkpt>
      <trkpt lat="44.87899" lon="5.76458">
        <ele>834.9</ele>
        <time>2022-07-16T08:46:25Z</time>
      </trkpt>
      <trkpt lat="44.87902" lon="5.76461">
        <ele>835.1</ele>
        <time>2022-07-16T08:46:26Z</time>
      </trkpt>
      <trkpt lat="44.87905" lon="5.76465">
        <ele>835.3</ele>
        <time>2022-07-16T08:46:27Z</time>
      </trkpt>
      <trkpt lat="44.87908" lon="5.76468">
        <ele>835.5</ele>
        <time>2022-07-16T08:46:28Z</time>
      </trkpt>
      <trkpt lat="44.8791" lon="5.76471">
        <ele>835.7</ele>
        <time>2022-07-16T08:46:29Z</time>
      </trkpt>
      <trkpt lat="44.87913" lon="5.76474">
        <ele>835.9</ele>
        <time>2022-07-16T08:46:30Z</time>
      </trkpt>
      <trkpt lat="44.87916" lon="5.76477">
        <ele>836.1</ele>
        <time>2022-07-16T08:46:31Z</time>
      </trkpt>
      <trkpt lat="44.87918" lon="5.76481">
        <ele>836.3</ele>
        <time>2022-07-16T08:46:32Z</time>
      </trkpt>
      <trkpt lat="44.87921" lon="5.76483">
        <ele>836.4</ele>
        <time>2022-07-16T08:46:33Z</time>
      </trkpt>
      <trkpt lat="44.87923" lon="5.76486">
        <ele>836.6</ele>
        <time>2022-07-16T08:46:34Z</time>
      </trkpt>
      <trkpt lat="44.87926" lon="5.76489">
        <ele>836.8</ele>
        <time>2022-07-16T08:46:35Z</time>
      </trkpt>
      <trkpt lat="44.87928" lon="5.76492">
        <ele>837</ele>
        <time>2022-07-16T08:46:36Z</time>
      </trkpt>
      <trkpt lat="44.8793" lon="5.76495">
        <ele>837.1</ele>
        <time>2022-07-16T08:46:37Z</time>
      </trkpt>
      <trkpt lat="44.87933" lon="5.76498">
        <ele>837.3</ele>
        <time>2022-07-16T08:46:38Z</time>
      </trkpt>
      <trkpt lat="44.87935" lon="5.76501">
        <ele>837.4</ele>
        <time>2022-07-16T08:46:39Z</time>
      </trkpt>
      <trkpt lat="44.87937" lon="5.76503">
        <ele>837.6</ele>
        <time>2022-07-16T08:46:40Z</time>
      </trkpt>
      <trkpt lat="44.8794" lon="5.76505">
        <ele>837.7</ele>
        <time>2022-07-16T08:46:41Z</time>
      </trkpt>
      <trkpt lat="44.87942" lon="5.76508">
        <ele>837.8</ele>
        <time>2022-07-16T08:46:42Z</time>
      </trkpt>
      <trkpt lat="44.87945" lon="5.76511">
        <ele>838</ele>
        <time>2022-07-16T08:46:43Z</time>
      </trkpt>
      <trkpt lat="44.87948" lon="5.76513">
        <ele>838.1</ele>
        <time>2022-07-16T08:46:44Z</time>
      </trkpt>
      <trkpt lat="44.8795" lon="5.76516">
        <ele>838.2</ele>
        <time>2022-07-16T08:46:45Z</time>
      </trkpt>
      <trkpt lat="44.87953" lon="5.76519">
        <ele>838.3</ele>
        <time>2022-07-16T08:46:46Z</time>
      </trkpt>
      <trkpt lat="44.87955" lon="5.76522">
        <ele>838.4</ele>
        <time>2022-07-16T08:46:47Z</time>
      </trkpt>
      <trkpt lat="44.87957" lon="5.76525">
        <ele>838.6</ele>
        <time>2022-07-16T08:46:48Z</time>
      </trkpt>
      <trkpt lat="44.8796" lon="5.76527">
        <ele>838.7</ele>
        <time>2022-07-16T08:46:49Z</time>
      </trkpt>
      <trkpt lat="44.87962" lon="5.7653">
        <ele>838.8</ele>
        <time>2022-07-16T08:46:50Z</time>
      </trkpt>
      <trkpt lat="44.87965" lon="5.76533">
        <ele>838.9</ele>
        <time>2022-07-16T08:46:51Z</time>
      </trkpt>
      <trkpt lat="44.87967" lon="5.76536">
        <ele>839</ele>
        <time>2022-07-16T08:46:52Z</time>
      </trkpt>
      <trkpt lat="44.8797" lon="5.76538">
        <ele>839.2</ele>
        <time>2022-07-16T08:46:53Z</time>
      </trkpt>
      <trkpt lat="44.87972" lon="5.76541">
        <ele>839.3</ele>
        <time>2022-07-16T08:46:54Z</time>
      </trkpt>
      <trkpt lat="44.87975" lon="5.76543">
        <ele>839.4</ele>
        <time>2022-07-16T08:46:55Z</time>
      </trkpt>
      <trkpt lat="44.87977" lon="5.76546">
        <ele>839.5</ele>
        <time>2022-07-16T08:46:56Z</time>
      </trkpt>
      <trkpt lat="44.8798" lon="5.76548">
        <ele>839.7</ele>
        <time>2022-07-16T08:46:57Z</time>
      </trkpt>
      <trkpt lat="44.87982" lon="5.76551">
        <ele>839.8</ele>
        <time>2022-07-16T08:46:58Z</time>
      </trkpt>
      <trkpt lat="44.87985" lon="5.76553">
        <ele>839.9</ele>
        <time>2022-07-16T08:46:59Z</time>
      </trkpt>
      <trkpt lat="44.87988" lon="5.76556">
        <ele>840.1</ele>
        <time>2022-07-16T08:47:00Z</time>
      </trkpt>
      <trkpt lat="44.87991" lon="5.76558">
        <ele>840.2</ele>
        <time>2022-07-16T08:47:01Z</time>
      </trkpt>
      <trkpt lat="44.87995" lon="5.7656">
        <ele>840.4</ele>
        <time>2022-07-16T08:47:02Z</time>
      </trkpt>
      <trkpt lat="44.87996" lon="5.76561">
        <ele>840.4</ele>
        <time>2022-07-16T08:47:03Z</time>
      </trkpt>
      <trkpt lat="44.88" lon="5.76563">
        <ele>840.6</ele>
        <time>2022-07-16T08:47:04Z</time>
      </trkpt>
      <trkpt lat="44.88003" lon="5.76566">
        <ele>840.7</ele>
        <time>2022-07-16T08:47:05Z</time>
      </trkpt>
      <trkpt lat="44.88005" lon="5.76567">
        <ele>840.7</ele>
        <time>2022-07-16T08:47:06Z</time>
      </trkpt>
      <trkpt lat="44.88008" lon="5.76569">
        <ele>840.8</ele>
        <time>2022-07-16T08:47:07Z</time>
      </trkpt>
      <trkpt lat="44.88012" lon="5.76572">
        <ele>841</ele>
        <time>2022-07-16T08:47:08Z</time>
      </trkpt>
      <trkpt lat="44.88013" lon="5.76573">
        <ele>841</ele>
        <time>2022-07-16T08:47:09Z</time>
      </trkpt>
      <trkpt lat="44.88016" lon="5.76574">
        <ele>841.1</ele>
        <time>2022-07-16T08:47:10Z</time>
      </trkpt>
      <trkpt lat="44.8802" lon="5.76576">
        <ele>841.2</ele>
        <time>2022-07-16T08:47:11Z</time>
      </trkpt>
      <trkpt lat="44.88025" lon="5.76579">
        <ele>841.3</ele>
        <time>2022-07-16T08:47:12Z</time>
      </trkpt>
      <trkpt lat="44.88027" lon="5.7658">
        <ele>841.4</ele>
        <time>2022-07-16T08:47:13Z</time>
      </trkpt>
      <trkpt lat="44.8803" lon="5.76582">
        <ele>841.5</ele>
        <time>2022-07-16T08:47:14Z</time>
      </trkpt>
      <trkpt lat="44.88033" lon="5.76583">
        <ele>841.6</ele>
        <time>2022-07-16T08:47:15Z</time>
      </trkpt>
      <trkpt lat="44.88037" lon="5.76585">
        <ele>841.7</ele>
        <time>2022-07-16T08:47:16Z</time>
      </trkpt>
      <trkpt lat="44.8804" lon="5.76587">
        <ele>841.8</ele>
        <time>2022-07-16T08:47:17Z</time>
      </trkpt>
      <trkpt lat="44.88043" lon="5.76589">
        <ele>841.9</ele>
        <time>2022-07-16T08:47:18Z</time>
      </trkpt>
      <trkpt lat="44.88046" lon="5.76591">
        <ele>842.1</ele>
        <time>2022-07-16T08:47:19Z</time>
      </trkpt>
      <trkpt lat="44.8805" lon="5.76592">
        <ele>842.2</ele>
        <time>2022-07-16T08:47:20Z</time>
      </trkpt>
      <trkpt lat="44.88053" lon="5.76594">
        <ele>842.3</ele>
        <time>2022-07-16T08:47:21Z</time>
      </trkpt>
      <trkpt lat="44.88056" lon="5.76596">
        <ele>842.4</ele>
        <time>2022-07-16T08:47:22Z</time>
      </trkpt>
      <trkpt lat="44.88059" lon="5.76598">
        <ele>842.5</ele>
        <time>2022-07-16T08:47:23Z</time>
      </trkpt>
      <trkpt lat="44.88062" lon="5.766">
        <ele>842.7</ele>
        <time>2022-07-16T08:47:24Z</time>
      </trkpt>
      <trkpt lat="44.88066" lon="5.76602">
        <ele>842.8</ele>
        <time>2022-07-16T08:47:25Z</time>
      </trkpt>
      <trkpt lat="44.88069" lon="5.76605">
        <ele>843</ele>
        <time>2022-07-16T08:47:26Z</time>
      </trkpt>
      <trkpt lat="44.88072" lon="5.76607">
        <ele>843.1</ele>
        <time>2022-07-16T08:47:27Z</time>
      </trkpt>
      <trkpt lat="44.88075" lon="5.76609">
        <ele>843.2</ele>
        <time>2022-07-16T08:47:28Z</time>
      </trkpt>
      <trkpt lat="44.88079" lon="5.76611">
        <ele>843.3</ele>
        <time>2022-07-16T08:47:29Z</time>
      </trkpt>
      <trkpt lat="44.88082" lon="5.76613">
        <ele>843.4</ele>
        <time>2022-07-16T08:47:30Z</time>
      </trkpt>
      <trkpt lat="44.88086" lon="5.76615">
        <ele>843.6</ele>
        <time>2022-07-16T08:47:31Z</time>
      </trkpt>
      <trkpt lat="44.88089" lon="5.76617">
        <ele>843.7</ele>
        <time>2022-07-16T08:47:32Z</time>
      </trkpt>
      <trkpt lat="44.88093" lon="5.7662">
        <ele>843.8</ele>
        <time>2022-07-16T08:47:33Z</time>
      </trkpt>
      <trkpt lat="44.88096" lon="5.76622">
        <ele>843.9</ele>
        <time>2022-07-16T08:47:34Z</time>
      </trkpt>
      <trkpt lat="44.88099" lon="5.76624">
        <ele>844</ele>
        <time>2022-07-16T08:47:35Z</time>
      </trkpt>
      <trkpt lat="44.88103" lon="5.76626">
        <ele>844.1</ele>
        <time>2022-07-16T08:47:36Z</time>
      </trkpt>
      <trkpt lat="44.88107" lon="5.76629">
        <ele>844.3</ele>
        <time>2022-07-16T08:47:37Z</time>
      </trkpt>
      <trkpt lat="44.8811" lon="5.76631">
        <ele>844.4</ele>
        <time>2022-07-16T08:47:38Z</time>
      </trkpt>
      <trkpt lat="44.88114" lon="5.76634">
        <ele>844.5</ele>
        <time>2022-07-16T08:47:39Z</time>
      </trkpt>
      <trkpt lat="44.88118" lon="5.76636">
        <ele>844.7</ele>
        <time>2022-07-16T08:47:40Z</time>
      </trkpt>
      <trkpt lat="44.88121" lon="5.76637">
        <ele>844.8</ele>
        <time>2022-07-16T08:47:41Z</time>
      </trkpt>
      <trkpt lat="44.88125" lon="5.76639">
        <ele>845</ele>
        <time>2022-07-16T08:47:42Z</time>
      </trkpt>
      <trkpt lat="44.8813" lon="5.76641">
        <ele>845.2</ele>
        <time>2022-07-16T08:47:43Z</time>
      </trkpt>
      <trkpt lat="44.88134" lon="5.76643">
        <ele>845.3</ele>
        <time>2022-07-16T08:47:44Z</time>
      </trkpt>
      <trkpt lat="44.88138" lon="5.76644">
        <ele>845.5</ele>
        <time>2022-07-16T08:47:45Z</time>
      </trkpt>
      <trkpt lat="44.88142" lon="5.76646">
        <ele>845.6</ele>
        <time>2022-07-16T08:47:46Z</time>
      </trkpt>
      <trkpt lat="44.88146" lon="5.76647">
        <ele>845.8</ele>
        <time>2022-07-16T08:47:47Z</time>
      </trkpt>
      <trkpt lat="44.8815" lon="5.76648">
        <ele>845.9</ele>
        <time>2022-07-16T08:47:48Z</time>
      </trkpt>
      <trkpt lat="44.88154" lon="5.76649">
        <ele>846.1</ele>
        <time>2022-07-16T08:47:49Z</time>
      </trkpt>
      <trkpt lat="44.88158" lon="5.7665">
        <ele>846.2</ele>
        <time>2022-07-16T08:47:50Z</time>
      </trkpt>
      <trkpt lat="44.88162" lon="5.76651">
        <ele>846.4</ele>
        <time>2022-07-16T08:47:51Z</time>
      </trkpt>
      <trkpt lat="44.88165" lon="5.76651">
        <ele>846.5</ele>
        <time>2022-07-16T08:47:52Z</time>
      </trkpt>
      <trkpt lat="44.8817" lon="5.76651">
        <ele>846.7</ele>
        <time>2022-07-16T08:47:53Z</time>
      </trkpt>
      <trkpt lat="44.88174" lon="5.76651">
        <ele>846.8</ele>
        <time>2022-07-16T08:47:54Z</time>
      </trkpt>
      <trkpt lat="44.88177" lon="5.7665">
        <ele>846.9</ele>
        <time>2022-07-16T08:47:55Z</time>
      </trkpt>
      <trkpt lat="44.88181" lon="5.76649">
        <ele>847.1</ele>
        <time>2022-07-16T08:47:56Z</time>
      </trkpt>
      <trkpt lat="44.88185" lon="5.76647">
        <ele>847.2</ele>
        <time>2022-07-16T08:47:57Z</time>
      </trkpt>
      <trkpt lat="44.88189" lon="5.76644">
        <ele>847.4</ele>
        <time>2022-07-16T08:47:58Z</time>
      </trkpt>
      <trkpt lat="44.88192" lon="5.76641">
        <ele>847.5</ele>
        <time>2022-07-16T08:47:59Z</time>
      </trkpt>
      <trkpt lat="44.88195" lon="5.76638">
        <ele>847.6</ele>
        <time>2022-07-16T08:48:00Z</time>
      </trkpt>
      <trkpt lat="44.88198" lon="5.76633">
        <ele>847.8</ele>
        <time>2022-07-16T08:48:01Z</time>
      </trkpt>
      <trkpt lat="44.88201" lon="5.76629">
        <ele>847.9</ele>
        <time>2022-07-16T08:48:02Z</time>
      </trkpt>
      <trkpt lat="44.88204" lon="5.76623">
        <ele>848.1</ele>
        <time>2022-07-16T08:48:03Z</time>
      </trkpt>
      <trkpt lat="44.88206" lon="5.76618">
        <ele>848.2</ele>
        <time>2022-07-16T08:48:04Z</time>
      </trkpt>
      <trkpt lat="44.88208" lon="5.76612">
        <ele>848.3</ele>
        <time>2022-07-16T08:48:05Z</time>
      </trkpt>
      <trkpt lat="44.88211" lon="5.76607">
        <ele>848.5</ele>
        <time>2022-07-16T08:48:06Z</time>
      </trkpt>
      <trkpt lat="44.88214" lon="5.76602">
        <ele>848.6</ele>
        <time>2022-07-16T08:48:07Z</time>
      </trkpt>
      <trkpt lat="44.88216" lon="5.76597">
        <ele>848.7</ele>
        <time>2022-07-16T08:48:08Z</time>
      </trkpt>
      <trkpt lat="44.88219" lon="5.76591">
        <ele>848.8</ele>
        <time>2022-07-16T08:48:09Z</time>
      </trkpt>
      <trkpt lat="44.88222" lon="5.76586">
        <ele>848.9</ele>
        <time>2022-07-16T08:48:10Z</time>
      </trkpt>
      <trkpt lat="44.88225" lon="5.76582">
        <ele>848.9</ele>
        <time>2022-07-16T08:48:11Z</time>
      </trkpt>
      <trkpt lat="44.88228" lon="5.76577">
        <ele>849</ele>
        <time>2022-07-16T08:48:12Z</time>
      </trkpt>
      <trkpt lat="44.88231" lon="5.76573">
        <ele>849.1</ele>
        <time>2022-07-16T08:48:13Z</time>
      </trkpt>
      <trkpt lat="44.88235" lon="5.76569">
        <ele>849.1</ele>
        <time>2022-07-16T08:48:14Z</time>
      </trkpt>
      <trkpt lat="44.88239" lon="5.76566">
        <ele>849.2</ele>
        <time>2022-07-16T08:48:15Z</time>
      </trkpt>
      <trkpt lat="44.88242" lon="5.76564">
        <ele>849.2</ele>
        <time>2022-07-16T08:48:16Z</time>
      </trkpt>
      <trkpt lat="44.88246" lon="5.76562">
        <ele>849.3</ele>
        <time>2022-07-16T08:48:17Z</time>
      </trkpt>
      <trkpt lat="44.8825" lon="5.76558">
        <ele>849.3</ele>
        <time>2022-07-16T08:48:18Z</time>
      </trkpt>
      <trkpt lat="44.88254" lon="5.76554">
        <ele>849.4</ele>
        <time>2022-07-16T08:48:19Z</time>
      </trkpt>
      <trkpt lat="44.88259" lon="5.7655">
        <ele>849.4</ele>
        <time>2022-07-16T08:48:20Z</time>
      </trkpt>
      <trkpt lat="44.88263" lon="5.76546">
        <ele>849.4</ele>
        <time>2022-07-16T08:48:21Z</time>
      </trkpt>
      <trkpt lat="44.88267" lon="5.76542">
        <ele>849.4</ele>
        <time>2022-07-16T08:48:22Z</time>
      </trkpt>
      <trkpt lat="44.88271" lon="5.76538">
        <ele>849.4</ele>
        <time>2022-07-16T08:48:23Z</time>
      </trkpt>
      <trkpt lat="44.88276" lon="5.76535">
        <ele>849.5</ele>
        <time>2022-07-16T08:48:24Z</time>
      </trkpt>
      <trkpt lat="44.88281" lon="5.76532">
        <ele>849.5</ele>
        <time>2022-07-16T08:48:25Z</time>
      </trkpt>
      <trkpt lat="44.88285" lon="5.76528">
        <ele>849.5</ele>
        <time>2022-07-16T08:48:26Z</time>
      </trkpt>
      <trkpt lat="44.8829" lon="5.76525">
        <ele>849.5</ele>
        <time>2022-07-16T08:48:27Z</time>
      </trkpt>
      <trkpt lat="44.88295" lon="5.76521">
        <ele>849.6</ele>
        <time>2022-07-16T08:48:28Z</time>
      </trkpt>
      <trkpt lat="44.883" lon="5.76518">
        <ele>849.6</ele>
        <time>2022-07-16T08:48:29Z</time>
      </trkpt>
      <trkpt lat="44.88305" lon="5.76514">
        <ele>849.6</ele>
        <time>2022-07-16T08:48:30Z</time>
      </trkpt>
      <trkpt lat="44.8831" lon="5.76511">
        <ele>849.7</ele>
        <time>2022-07-16T08:48:31Z</time>
      </trkpt>
      <trkpt lat="44.88315" lon="5.76507">
        <ele>849.7</ele>
        <time>2022-07-16T08:48:32Z</time>
      </trkpt>
      <trkpt lat="44.88319" lon="5.76502">
        <ele>849.8</ele>
        <time>2022-07-16T08:48:33Z</time>
      </trkpt>
      <trkpt lat="44.88324" lon="5.76498">
        <ele>849.8</ele>
        <time>2022-07-16T08:48:34Z</time>
      </trkpt>
      <trkpt lat="44.88328" lon="5.76492">
        <ele>849.8</ele>
        <time>2022-07-16T08:48:35Z</time>
      </trkpt>
      <trkpt lat="44.88332" lon="5.76486">
        <ele>849.9</ele>
        <time>2022-07-16T08:48:36Z</time>
      </trkpt>
      <trkpt lat="44.88336" lon="5.76481">
        <ele>849.9</ele>
        <time>2022-07-16T08:48:37Z</time>
      </trkpt>
      <trkpt lat="44.88339" lon="5.76476">
        <ele>849.9</ele>
        <time>2022-07-16T08:48:38Z</time>
      </trkpt>
      <trkpt lat="44.88344" lon="5.76472">
        <ele>849.9</ele>
        <time>2022-07-16T08:48:39Z</time>
      </trkpt>
      <trkpt lat="44.88348" lon="5.76467">
        <ele>850</ele>
        <time>2022-07-16T08:48:40Z</time>
      </trkpt>
      <trkpt lat="44.88352" lon="5.76463">
        <ele>850</ele>
        <time>2022-07-16T08:48:41Z</time>
      </trkpt>
      <trkpt lat="44.88356" lon="5.76458">
        <ele>850</ele>
        <time>2022-07-16T08:48:42Z</time>
      </trkpt>
      <trkpt lat="44.8836" lon="5.76454">
        <ele>850</ele>
        <time>2022-07-16T08:48:43Z</time>
      </trkpt>
      <trkpt lat="44.88364" lon="5.7645">
        <ele>850.1</ele>
        <time>2022-07-16T08:48:44Z</time>
      </trkpt>
      <trkpt lat="44.88368" lon="5.76444">
        <ele>850.1</ele>
        <time>2022-07-16T08:48:45Z</time>
      </trkpt>
      <trkpt lat="44.88372" lon="5.76439">
        <ele>850.1</ele>
        <time>2022-07-16T08:48:46Z</time>
      </trkpt>
      <trkpt lat="44.88375" lon="5.76434">
        <ele>850.2</ele>
        <time>2022-07-16T08:48:47Z</time>
      </trkpt>
      <trkpt lat="44.88378" lon="5.76428">
        <ele>850.2</ele>
        <time>2022-07-16T08:48:48Z</time>
      </trkpt>
      <trkpt lat="44.88381" lon="5.76423">
        <ele>850.3</ele>
        <time>2022-07-16T08:48:49Z</time>
      </trkpt>
      <trkpt lat="44.88385" lon="5.76418">
        <ele>850.3</ele>
        <time>2022-07-16T08:48:50Z</time>
      </trkpt>
      <trkpt lat="44.88389" lon="5.76415">
        <ele>850.3</ele>
        <time>2022-07-16T08:48:51Z</time>
      </trkpt>
      <trkpt lat="44.88394" lon="5.76412">
        <ele>850.4</ele>
        <time>2022-07-16T08:48:52Z</time>
      </trkpt>
      <trkpt lat="44.88396" lon="5.76411">
        <ele>850.4</ele>
        <time>2022-07-16T08:48:53Z</time>
      </trkpt>
      <trkpt lat="44.88402" lon="5.7641">
        <ele>850.5</ele>
        <time>2022-07-16T08:48:54Z</time>
      </trkpt>
      <trkpt lat="44.88407" lon="5.76407">
        <ele>850.5</ele>
        <time>2022-07-16T08:48:55Z</time>
      </trkpt>
      <trkpt lat="44.88412" lon="5.76404">
        <ele>850.6</ele>
        <time>2022-07-16T08:48:56Z</time>
      </trkpt>
      <trkpt lat="44.88416" lon="5.764">
        <ele>850.6</ele>
        <time>2022-07-16T08:48:57Z</time>
      </trkpt>
      <trkpt lat="44.88419" lon="5.76397">
        <ele>850.6</ele>
        <time>2022-07-16T08:48:58Z</time>
      </trkpt>
      <trkpt lat="44.88424" lon="5.76392">
        <ele>850.6</ele>
        <time>2022-07-16T08:48:59Z</time>
      </trkpt>
      <trkpt lat="44.8843" lon="5.76388">
        <ele>850.6</ele>
        <time>2022-07-16T08:49:00Z</time>
      </trkpt>
      <trkpt lat="44.88435" lon="5.76387">
        <ele>850.6</ele>
        <time>2022-07-16T08:49:01Z</time>
      </trkpt>
      <trkpt lat="44.88439" lon="5.76386">
        <ele>850.6</ele>
        <time>2022-07-16T08:49:02Z</time>
      </trkpt>
      <trkpt lat="44.88446" lon="5.76384">
        <ele>850.7</ele>
        <time>2022-07-16T08:49:03Z</time>
      </trkpt>
      <trkpt lat="44.88453" lon="5.76382">
        <ele>850.7</ele>
        <time>2022-07-16T08:49:04Z</time>
      </trkpt>
      <trkpt lat="44.88458" lon="5.7638">
        <ele>850.7</ele>
        <time>2022-07-16T08:49:05Z</time>
      </trkpt>
      <trkpt lat="44.88463" lon="5.76378">
        <ele>850.6</ele>
        <time>2022-07-16T08:49:06Z</time>
      </trkpt>
      <trkpt lat="44.88468" lon="5.76374">
        <ele>850.6</ele>
        <time>2022-07-16T08:49:07Z</time>
      </trkpt>
      <trkpt lat="44.88473" lon="5.76371">
        <ele>850.6</ele>
        <time>2022-07-16T08:49:08Z</time>
      </trkpt>
      <trkpt lat="44.88478" lon="5.76367">
        <ele>850.6</ele>
        <time>2022-07-16T08:49:09Z</time>
      </trkpt>
      <trkpt lat="44.88483" lon="5.76362">
        <ele>850.6</ele>
        <time>2022-07-16T08:49:10Z</time>
      </trkpt>
      <trkpt lat="44.88487" lon="5.76358">
        <ele>850.6</ele>
        <time>2022-07-16T08:49:11Z</time>
      </trkpt>
      <trkpt lat="44.8849" lon="5.76354">
        <ele>850.6</ele>
        <time>2022-07-16T08:49:12Z</time>
      </trkpt>
      <trkpt lat="44.88494" lon="5.76349">
        <ele>850.6</ele>
        <time>2022-07-16T08:49:13Z</time>
      </trkpt>
      <trkpt lat="44.88497" lon="5.76344">
        <ele>850.6</ele>
        <time>2022-07-16T08:49:14Z</time>
      </trkpt>
      <trkpt lat="44.885" lon="5.76337">
        <ele>850.6</ele>
        <time>2022-07-16T08:49:15Z</time>
      </trkpt>
      <trkpt lat="44.88502" lon="5.76332">
        <ele>850.6</ele>
        <time>2022-07-16T08:49:16Z</time>
      </trkpt>
      <trkpt lat="44.88503" lon="5.76327">
        <ele>850.6</ele>
        <time>2022-07-16T08:49:17Z</time>
      </trkpt>
      <trkpt lat="44.88506" lon="5.76317">
        <ele>850.6</ele>
        <time>2022-07-16T08:49:18Z</time>
      </trkpt>
      <trkpt lat="44.88513" lon="5.76297">
        <ele>850.5</ele>
        <time>2022-07-16T08:49:21Z</time>
      </trkpt>
      <trkpt lat="44.88516" lon="5.76289">
        <ele>850.4</ele>
        <time>2022-07-16T08:49:22Z</time>
      </trkpt>
      <trkpt lat="44.88518" lon="5.7628">
        <ele>850.4</ele>
        <time>2022-07-16T08:49:23Z</time>
      </trkpt>
      <trkpt lat="44.88521" lon="5.76272">
        <ele>850.3</ele>
        <time>2022-07-16T08:49:24Z</time>
      </trkpt>
      <trkpt lat="44.88523" lon="5.76263">
        <ele>850.3</ele>
        <time>2022-07-16T08:49:25Z</time>
      </trkpt>
      <trkpt lat="44.88526" lon="5.76254">
        <ele>850.3</ele>
        <time>2022-07-16T08:49:26Z</time>
      </trkpt>
      <trkpt lat="44.8853" lon="5.76246">
        <ele>850.3</ele>
        <time>2022-07-16T08:49:27Z</time>
      </trkpt>
      <trkpt lat="44.88535" lon="5.76238">
        <ele>850.3</ele>
        <time>2022-07-16T08:49:28Z</time>
      </trkpt>
      <trkpt lat="44.8854" lon="5.76231">
        <ele>850.3</ele>
        <time>2022-07-16T08:49:29Z</time>
      </trkpt>
      <trkpt lat="44.88545" lon="5.76224">
        <ele>850.3</ele>
        <time>2022-07-16T08:49:30Z</time>
      </trkpt>
      <trkpt lat="44.8855" lon="5.76218">
        <ele>850.3</ele>
        <time>2022-07-16T08:49:31Z</time>
      </trkpt>
      <trkpt lat="44.88556" lon="5.76212">
        <ele>850.3</ele>
        <time>2022-07-16T08:49:32Z</time>
      </trkpt>
      <trkpt lat="44.88561" lon="5.76207">
        <ele>850.3</ele>
        <time>2022-07-16T08:49:33Z</time>
      </trkpt>
      <trkpt lat="44.88567" lon="5.76201">
        <ele>850.3</ele>
        <time>2022-07-16T08:49:34Z</time>
      </trkpt>
      <trkpt lat="44.88574" lon="5.76197">
        <ele>850.3</ele>
        <time>2022-07-16T08:49:35Z</time>
      </trkpt>
      <trkpt lat="44.8858" lon="5.76193">
        <ele>850.3</ele>
        <time>2022-07-16T08:49:36Z</time>
      </trkpt>
      <trkpt lat="44.88584" lon="5.76189">
        <ele>850.2</ele>
        <time>2022-07-16T08:49:37Z</time>
      </trkpt>
      <trkpt lat="44.88588" lon="5.76185">
        <ele>850.2</ele>
        <time>2022-07-16T08:49:38Z</time>
      </trkpt>
      <trkpt lat="44.88593" lon="5.76179">
        <ele>850.1</ele>
        <time>2022-07-16T08:49:39Z</time>
      </trkpt>
      <trkpt lat="44.88598" lon="5.76173">
        <ele>850.1</ele>
        <time>2022-07-16T08:49:40Z</time>
      </trkpt>
      <trkpt lat="44.88603" lon="5.76166">
        <ele>850</ele>
        <time>2022-07-16T08:49:41Z</time>
      </trkpt>
      <trkpt lat="44.88609" lon="5.7616">
        <ele>850</ele>
        <time>2022-07-16T08:49:42Z</time>
      </trkpt>
      <trkpt lat="44.88615" lon="5.76154">
        <ele>850</ele>
        <time>2022-07-16T08:49:43Z</time>
      </trkpt>
      <trkpt lat="44.88621" lon="5.7615">
        <ele>850</ele>
        <time>2022-07-16T08:49:44Z</time>
      </trkpt>
      <trkpt lat="44.88627" lon="5.76145">
        <ele>849.9</ele>
        <time>2022-07-16T08:49:45Z</time>
      </trkpt>
      <trkpt lat="44.88634" lon="5.76141">
        <ele>849.9</ele>
        <time>2022-07-16T08:49:46Z</time>
      </trkpt>
      <trkpt lat="44.8864" lon="5.76136">
        <ele>849.9</ele>
        <time>2022-07-16T08:49:47Z</time>
      </trkpt>
      <trkpt lat="44.88648" lon="5.76134">
        <ele>850</ele>
        <time>2022-07-16T08:49:48Z</time>
      </trkpt>
      <trkpt lat="44.88654" lon="5.76133">
        <ele>850</ele>
        <time>2022-07-16T08:49:49Z</time>
      </trkpt>
      <trkpt lat="44.88661" lon="5.76133">
        <ele>850.1</ele>
        <time>2022-07-16T08:49:50Z</time>
      </trkpt>
      <trkpt lat="44.88667" lon="5.76135">
        <ele>850.2</ele>
        <time>2022-07-16T08:49:51Z</time>
      </trkpt>
      <trkpt lat="44.88673" lon="5.7614">
        <ele>850.2</ele>
        <time>2022-07-16T08:49:52Z</time>
      </trkpt>
      <trkpt lat="44.88679" lon="5.76145">
        <ele>850.3</ele>
        <time>2022-07-16T08:49:53Z</time>
      </trkpt>
      <trkpt lat="44.88684" lon="5.76151">
        <ele>850.4</ele>
        <time>2022-07-16T08:49:54Z</time>
      </trkpt>
      <trkpt lat="44.88688" lon="5.76157">
        <ele>850.5</ele>
        <time>2022-07-16T08:49:55Z</time>
      </trkpt>
      <trkpt lat="44.88692" lon="5.76164">
        <ele>850.5</ele>
        <time>2022-07-16T08:49:56Z</time>
      </trkpt>
      <trkpt lat="44.88696" lon="5.7617">
        <ele>850.6</ele>
        <time>2022-07-16T08:49:57Z</time>
      </trkpt>
      <trkpt lat="44.887" lon="5.76176">
        <ele>850.6</ele>
        <time>2022-07-16T08:49:58Z</time>
      </trkpt>
      <trkpt lat="44.88705" lon="5.7618">
        <ele>850.7</ele>
        <time>2022-07-16T08:49:59Z</time>
      </trkpt>
      <trkpt lat="44.88711" lon="5.76184">
        <ele>850.6</ele>
        <time>2022-07-16T08:50:00Z</time>
      </trkpt>
      <trkpt lat="44.88717" lon="5.76186">
        <ele>850.6</ele>
        <time>2022-07-16T08:50:01Z</time>
      </trkpt>
      <trkpt lat="44.88723" lon="5.76186">
        <ele>850.5</ele>
        <time>2022-07-16T08:50:02Z</time>
      </trkpt>
      <trkpt lat="44.88729" lon="5.76186">
        <ele>850.5</ele>
        <time>2022-07-16T08:50:03Z</time>
      </trkpt>
      <trkpt lat="44.88735" lon="5.76185">
        <ele>850.4</ele>
        <time>2022-07-16T08:50:04Z</time>
      </trkpt>
      <trkpt lat="44.88741" lon="5.76182">
        <ele>850.2</ele>
        <time>2022-07-16T08:50:05Z</time>
      </trkpt>
      <trkpt lat="44.88748" lon="5.7618">
        <ele>850.1</ele>
        <time>2022-07-16T08:50:06Z</time>
      </trkpt>
      <trkpt lat="44.88755" lon="5.76177">
        <ele>850</ele>
        <time>2022-07-16T08:50:07Z</time>
      </trkpt>
      <trkpt lat="44.88762" lon="5.76175">
        <ele>849.8</ele>
        <time>2022-07-16T08:50:08Z</time>
      </trkpt>
      <trkpt lat="44.88769" lon="5.76173">
        <ele>849.6</ele>
        <time>2022-07-16T08:50:09Z</time>
      </trkpt>
      <trkpt lat="44.88776" lon="5.76171">
        <ele>849.4</ele>
        <time>2022-07-16T08:50:10Z</time>
      </trkpt>
      <trkpt lat="44.88783" lon="5.76166">
        <ele>849.2</ele>
        <time>2022-07-16T08:50:11Z</time>
      </trkpt>
      <trkpt lat="44.8879" lon="5.76163">
        <ele>849.1</ele>
        <time>2022-07-16T08:50:12Z</time>
      </trkpt>
      <trkpt lat="44.88797" lon="5.76161">
        <ele>848.9</ele>
        <time>2022-07-16T08:50:13Z</time>
      </trkpt>
      <trkpt lat="44.88804" lon="5.76159">
        <ele>848.7</ele>
        <time>2022-07-16T08:50:14Z</time>
      </trkpt>
      <trkpt lat="44.88811" lon="5.76159">
        <ele>848.6</ele>
        <time>2022-07-16T08:50:15Z</time>
      </trkpt>
      <trkpt lat="44.88818" lon="5.76161">
        <ele>848.4</ele>
        <time>2022-07-16T08:50:16Z</time>
      </trkpt>
      <trkpt lat="44.88825" lon="5.76163">
        <ele>848.2</ele>
        <time>2022-07-16T08:50:17Z</time>
      </trkpt>
      <trkpt lat="44.88832" lon="5.76165">
        <ele>848.1</ele>
        <time>2022-07-16T08:50:18Z</time>
      </trkpt>
      <trkpt lat="44.88839" lon="5.76168">
        <ele>848</ele>
        <time>2022-07-16T08:50:19Z</time>
      </trkpt>
      <trkpt lat="44.88846" lon="5.76171">
        <ele>847.8</ele>
        <time>2022-07-16T08:50:20Z</time>
      </trkpt>
      <trkpt lat="44.88853" lon="5.76173">
        <ele>847.7</ele>
        <time>2022-07-16T08:50:21Z</time>
      </trkpt>
      <trkpt lat="44.88861" lon="5.76176">
        <ele>847.6</ele>
        <time>2022-07-16T08:50:22Z</time>
      </trkpt>
      <trkpt lat="44.88868" lon="5.76179">
        <ele>847.6</ele>
        <time>2022-07-16T08:50:23Z</time>
      </trkpt>
      <trkpt lat="44.88875" lon="5.76183">
        <ele>847.6</ele>
        <time>2022-07-16T08:50:24Z</time>
      </trkpt>
      <trkpt lat="44.88882" lon="5.76189">
        <ele>847.6</ele>
        <time>2022-07-16T08:50:25Z</time>
      </trkpt>
      <trkpt lat="44.88887" lon="5.76196">
        <ele>847.7</ele>
        <time>2022-07-16T08:50:26Z</time>
      </trkpt>
      <trkpt lat="44.88892" lon="5.76206">
        <ele>847.8</ele>
        <time>2022-07-16T08:50:27Z</time>
      </trkpt>
      <trkpt lat="44.88894" lon="5.76217">
        <ele>847.9</ele>
        <time>2022-07-16T08:50:28Z</time>
      </trkpt>
      <trkpt lat="44.88895" lon="5.76227">
        <ele>848</ele>
        <time>2022-07-16T08:50:29Z</time>
      </trkpt>
      <trkpt lat="44.88894" lon="5.76236">
        <ele>848.1</ele>
        <time>2022-07-16T08:50:30Z</time>
      </trkpt>
      <trkpt lat="44.88893" lon="5.76244">
        <ele>848.3</ele>
        <time>2022-07-16T08:50:31Z</time>
      </trkpt>
      <trkpt lat="44.88891" lon="5.76253">
        <ele>848.4</ele>
        <time>2022-07-16T08:50:32Z</time>
      </trkpt>
      <trkpt lat="44.8889" lon="5.76261">
        <ele>848.5</ele>
        <time>2022-07-16T08:50:33Z</time>
      </trkpt>
      <trkpt lat="44.88889" lon="5.76269">
        <ele>848.7</ele>
        <time>2022-07-16T08:50:34Z</time>
      </trkpt>
      <trkpt lat="44.88888" lon="5.76276">
        <ele>848.9</ele>
        <time>2022-07-16T08:50:35Z</time>
      </trkpt>
      <trkpt lat="44.88887" lon="5.76284">
        <ele>849.1</ele>
        <time>2022-07-16T08:50:36Z</time>
      </trkpt>
      <trkpt lat="44.88886" lon="5.76292">
        <ele>849.2</ele>
        <time>2022-07-16T08:50:37Z</time>
      </trkpt>
      <trkpt lat="44.88887" lon="5.76299">
        <ele>849.4</ele>
        <time>2022-07-16T08:50:38Z</time>
      </trkpt>
      <trkpt lat="44.88888" lon="5.76307">
        <ele>849.5</ele>
        <time>2022-07-16T08:50:39Z</time>
      </trkpt>
      <trkpt lat="44.88889" lon="5.76314">
        <ele>849.7</ele>
        <time>2022-07-16T08:50:40Z</time>
      </trkpt>
      <trkpt lat="44.8889" lon="5.7632">
        <ele>849.8</ele>
        <time>2022-07-16T08:50:41Z</time>
      </trkpt>
      <trkpt lat="44.88893" lon="5.76326">
        <ele>849.9</ele>
        <time>2022-07-16T08:50:42Z</time>
      </trkpt>
      <trkpt lat="44.88896" lon="5.76332">
        <ele>850</ele>
        <time>2022-07-16T08:50:43Z</time>
      </trkpt>
      <trkpt lat="44.889" lon="5.76337">
        <ele>850.1</ele>
        <time>2022-07-16T08:50:44Z</time>
      </trkpt>
      <trkpt lat="44.88905" lon="5.76342">
        <ele>850.2</ele>
        <time>2022-07-16T08:50:45Z</time>
      </trkpt>
      <trkpt lat="44.88909" lon="5.76345">
        <ele>850.3</ele>
        <time>2022-07-16T08:50:46Z</time>
      </trkpt>
      <trkpt lat="44.88915" lon="5.76348">
        <ele>850.3</ele>
        <time>2022-07-16T08:50:47Z</time>
      </trkpt>
      <trkpt lat="44.8892" lon="5.76349">
        <ele>850.3</ele>
        <time>2022-07-16T08:50:48Z</time>
      </trkpt>
      <trkpt lat="44.88926" lon="5.7635">
        <ele>850.3</ele>
        <time>2022-07-16T08:50:49Z</time>
      </trkpt>
      <trkpt lat="44.88932" lon="5.7635">
        <ele>850.3</ele>
        <time>2022-07-16T08:50:50Z</time>
      </trkpt>
      <trkpt lat="44.88938" lon="5.76349">
        <ele>850.2</ele>
        <time>2022-07-16T08:50:51Z</time>
      </trkpt>
      <trkpt lat="44.88944" lon="5.76347">
        <ele>850.2</ele>
        <time>2022-07-16T08:50:52Z</time>
      </trkpt>
      <trkpt lat="44.8895" lon="5.76345">
        <ele>850.2</ele>
        <time>2022-07-16T08:50:53Z</time>
      </trkpt>
      <trkpt lat="44.88956" lon="5.76342">
        <ele>850.1</ele>
        <time>2022-07-16T08:50:54Z</time>
      </trkpt>
      <trkpt lat="44.88962" lon="5.76339">
        <ele>850.1</ele>
        <time>2022-07-16T08:50:55Z</time>
      </trkpt>
      <trkpt lat="44.88968" lon="5.76335">
        <ele>850.1</ele>
        <time>2022-07-16T08:50:56Z</time>
      </trkpt>
      <trkpt lat="44.88973" lon="5.76332">
        <ele>850.1</ele>
        <time>2022-07-16T08:50:57Z</time>
      </trkpt>
      <trkpt lat="44.88979" lon="5.76328">
        <ele>850.1</ele>
        <time>2022-07-16T08:50:58Z</time>
      </trkpt>
      <trkpt lat="44.88984" lon="5.76324">
        <ele>850.1</ele>
        <time>2022-07-16T08:50:59Z</time>
      </trkpt>
      <trkpt lat="44.88989" lon="5.7632">
        <ele>850.1</ele>
        <time>2022-07-16T08:51:00Z</time>
      </trkpt>
      <trkpt lat="44.88994" lon="5.76315">
        <ele>850.1</ele>
        <time>2022-07-16T08:51:01Z</time>
      </trkpt>
      <trkpt lat="44.88999" lon="5.7631">
        <ele>850.1</ele>
        <time>2022-07-16T08:51:02Z</time>
      </trkpt>
      <trkpt lat="44.89004" lon="5.76304">
        <ele>850.2</ele>
        <time>2022-07-16T08:51:03Z</time>
      </trkpt>
      <trkpt lat="44.89009" lon="5.76299">
        <ele>850.2</ele>
        <time>2022-07-16T08:51:04Z</time>
      </trkpt>
      <trkpt lat="44.89014" lon="5.76293">
        <ele>850.2</ele>
        <time>2022-07-16T08:51:05Z</time>
      </trkpt>
      <trkpt lat="44.89019" lon="5.76288">
        <ele>850.1</ele>
        <time>2022-07-16T08:51:06Z</time>
      </trkpt>
      <trkpt lat="44.89024" lon="5.76282">
        <ele>850.1</ele>
        <time>2022-07-16T08:51:07Z</time>
      </trkpt>
      <trkpt lat="44.89029" lon="5.76275">
        <ele>850</ele>
        <time>2022-07-16T08:51:08Z</time>
      </trkpt>
      <trkpt lat="44.89034" lon="5.76269">
        <ele>850</ele>
        <time>2022-07-16T08:51:09Z</time>
      </trkpt>
      <trkpt lat="44.89038" lon="5.76263">
        <ele>849.9</ele>
        <time>2022-07-16T08:51:10Z</time>
      </trkpt>
      <trkpt lat="44.89043" lon="5.76257">
        <ele>849.9</ele>
        <time>2022-07-16T08:51:11Z</time>
      </trkpt>
      <trkpt lat="44.89048" lon="5.7625">
        <ele>849.9</ele>
        <time>2022-07-16T08:51:12Z</time>
      </trkpt>
      <trkpt lat="44.89053" lon="5.76244">
        <ele>849.8</ele>
        <time>2022-07-16T08:51:13Z</time>
      </trkpt>
      <trkpt lat="44.89057" lon="5.76238">
        <ele>849.9</ele>
        <time>2022-07-16T08:51:14Z</time>
      </trkpt>
      <trkpt lat="44.89063" lon="5.76233">
        <ele>849.9</ele>
        <time>2022-07-16T08:51:15Z</time>
      </trkpt>
      <trkpt lat="44.89068" lon="5.76228">
        <ele>849.9</ele>
        <time>2022-07-16T08:51:16Z</time>
      </trkpt>
      <trkpt lat="44.89073" lon="5.76223">
        <ele>850</ele>
        <time>2022-07-16T08:51:17Z</time>
      </trkpt>
      <trkpt lat="44.89078" lon="5.76219">
        <ele>850.1</ele>
        <time>2022-07-16T08:51:18Z</time>
      </trkpt>
      <trkpt lat="44.89084" lon="5.76214">
        <ele>850.1</ele>
        <time>2022-07-16T08:51:19Z</time>
      </trkpt>
      <trkpt lat="44.89089" lon="5.7621">
        <ele>850.2</ele>
        <time>2022-07-16T08:51:20Z</time>
      </trkpt>
      <trkpt lat="44.89093" lon="5.76206">
        <ele>850.3</ele>
        <time>2022-07-16T08:51:21Z</time>
      </trkpt>
      <trkpt lat="44.89098" lon="5.76201">
        <ele>850.4</ele>
        <time>2022-07-16T08:51:22Z</time>
      </trkpt>
      <trkpt lat="44.89103" lon="5.76199">
        <ele>850.5</ele>
        <time>2022-07-16T08:51:23Z</time>
      </trkpt>
      <trkpt lat="44.89107" lon="5.76196">
        <ele>850.6</ele>
        <time>2022-07-16T08:51:24Z</time>
      </trkpt>
      <trkpt lat="44.89111" lon="5.76192">
        <ele>850.6</ele>
        <time>2022-07-16T08:51:25Z</time>
      </trkpt>
      <trkpt lat="44.89113" lon="5.76189">
        <ele>850.7</ele>
        <time>2022-07-16T08:51:26Z</time>
      </trkpt>
      <trkpt lat="44.89117" lon="5.76185">
        <ele>850.7</ele>
        <time>2022-07-16T08:51:27Z</time>
      </trkpt>
      <trkpt lat="44.89121" lon="5.76181">
        <ele>850.8</ele>
        <time>2022-07-16T08:51:28Z</time>
      </trkpt>
      <trkpt lat="44.89124" lon="5.76177">
        <ele>850.8</ele>
        <time>2022-07-16T08:51:29Z</time>
      </trkpt>
      <trkpt lat="44.89127" lon="5.76173">
        <ele>850.9</ele>
        <time>2022-07-16T08:51:30Z</time>
      </trkpt>
      <trkpt lat="44.89132" lon="5.76167">
        <ele>850.9</ele>
        <time>2022-07-16T08:51:31Z</time>
      </trkpt>
      <trkpt lat="44.89138" lon="5.76163">
        <ele>851</ele>
        <time>2022-07-16T08:51:32Z</time>
      </trkpt>
      <trkpt lat="44.89143" lon="5.76159">
        <ele>851</ele>
        <time>2022-07-16T08:51:33Z</time>
      </trkpt>
      <trkpt lat="44.89149" lon="5.76156">
        <ele>851.1</ele>
        <time>2022-07-16T08:51:34Z</time>
      </trkpt>
      <trkpt lat="44.89155" lon="5.76155">
        <ele>851.1</ele>
        <time>2022-07-16T08:51:35Z</time>
      </trkpt>
      <trkpt lat="44.8916" lon="5.76156">
        <ele>851.2</ele>
        <time>2022-07-16T08:51:36Z</time>
      </trkpt>
      <trkpt lat="44.89164" lon="5.76157">
        <ele>851.2</ele>
        <time>2022-07-16T08:51:37Z</time>
      </trkpt>
      <trkpt lat="44.89169" lon="5.76158">
        <ele>851.3</ele>
        <time>2022-07-16T08:51:38Z</time>
      </trkpt>
      <trkpt lat="44.89173" lon="5.7616">
        <ele>851.3</ele>
        <time>2022-07-16T08:51:39Z</time>
      </trkpt>
      <trkpt lat="44.89177" lon="5.76162">
        <ele>851.4</ele>
        <time>2022-07-16T08:51:40Z</time>
      </trkpt>
      <trkpt lat="44.89182" lon="5.76165">
        <ele>851.5</ele>
        <time>2022-07-16T08:51:41Z</time>
      </trkpt>
      <trkpt lat="44.89186" lon="5.76167">
        <ele>851.6</ele>
        <time>2022-07-16T08:51:42Z</time>
      </trkpt>
      <trkpt lat="44.89189" lon="5.76169">
        <ele>851.7</ele>
        <time>2022-07-16T08:51:43Z</time>
      </trkpt>
      <trkpt lat="44.89194" lon="5.76171">
        <ele>851.8</ele>
        <time>2022-07-16T08:51:44Z</time>
      </trkpt>
      <trkpt lat="44.89198" lon="5.76173">
        <ele>851.9</ele>
        <time>2022-07-16T08:51:45Z</time>
      </trkpt>
      <trkpt lat="44.89203" lon="5.76176">
        <ele>852</ele>
        <time>2022-07-16T08:51:46Z</time>
      </trkpt>
      <trkpt lat="44.89208" lon="5.76179">
        <ele>852</ele>
        <time>2022-07-16T08:51:47Z</time>
      </trkpt>
      <trkpt lat="44.8921" lon="5.76181">
        <ele>852.1</ele>
        <time>2022-07-16T08:51:48Z</time>
      </trkpt>
      <trkpt lat="44.89216" lon="5.76184">
        <ele>852.1</ele>
        <time>2022-07-16T08:51:49Z</time>
      </trkpt>
      <trkpt lat="44.8922" lon="5.76187">
        <ele>852.2</ele>
        <time>2022-07-16T08:51:50Z</time>
      </trkpt>
      <trkpt lat="44.89225" lon="5.7619">
        <ele>852.2</ele>
        <time>2022-07-16T08:51:51Z</time>
      </trkpt>
      <trkpt lat="44.89227" lon="5.76191">
        <ele>852.3</ele>
        <time>2022-07-16T08:51:52Z</time>
      </trkpt>
      <trkpt lat="44.89233" lon="5.76193">
        <ele>852.3</ele>
        <time>2022-07-16T08:51:53Z</time>
      </trkpt>
      <trkpt lat="44.89238" lon="5.76195">
        <ele>852.4</ele>
        <time>2022-07-16T08:51:54Z</time>
      </trkpt>
      <trkpt lat="44.89242" lon="5.76198">
        <ele>852.5</ele>
        <time>2022-07-16T08:51:55Z</time>
      </trkpt>
      <trkpt lat="44.89246" lon="5.762">
        <ele>852.6</ele>
        <time>2022-07-16T08:51:56Z</time>
      </trkpt>
      <trkpt lat="44.89248" lon="5.76202">
        <ele>852.6</ele>
        <time>2022-07-16T08:51:57Z</time>
      </trkpt>
      <trkpt lat="44.89254" lon="5.76205">
        <ele>852.7</ele>
        <time>2022-07-16T08:51:58Z</time>
      </trkpt>
      <trkpt lat="44.89259" lon="5.76208">
        <ele>852.8</ele>
        <time>2022-07-16T08:51:59Z</time>
      </trkpt>
      <trkpt lat="44.89262" lon="5.76209">
        <ele>852.8</ele>
        <time>2022-07-16T08:52:00Z</time>
      </trkpt>
      <trkpt lat="44.89268" lon="5.76212">
        <ele>852.9</ele>
        <time>2022-07-16T08:52:01Z</time>
      </trkpt>
      <trkpt lat="44.89274" lon="5.76214">
        <ele>853</ele>
        <time>2022-07-16T08:52:02Z</time>
      </trkpt>
      <trkpt lat="44.89277" lon="5.76215">
        <ele>853.1</ele>
        <time>2022-07-16T08:52:03Z</time>
      </trkpt>
      <trkpt lat="44.89281" lon="5.76218">
        <ele>853.1</ele>
        <time>2022-07-16T08:52:04Z</time>
      </trkpt>
      <trkpt lat="44.89285" lon="5.76221">
        <ele>853.2</ele>
        <time>2022-07-16T08:52:05Z</time>
      </trkpt>
      <trkpt lat="44.89288" lon="5.76225">
        <ele>853.3</ele>
        <time>2022-07-16T08:52:06Z</time>
      </trkpt>
      <trkpt lat="44.89291" lon="5.7623">
        <ele>853.3</ele>
        <time>2022-07-16T08:52:07Z</time>
      </trkpt>
      <trkpt lat="44.89293" lon="5.76235">
        <ele>853.2</ele>
        <time>2022-07-16T08:52:08Z</time>
      </trkpt>
      <trkpt lat="44.89296" lon="5.76238">
        <ele>853.2</ele>
        <time>2022-07-16T08:52:09Z</time>
      </trkpt>
      <trkpt lat="44.89299" lon="5.76239">
        <ele>853.5</ele>
        <time>2022-07-16T08:52:10Z</time>
      </trkpt>
      <trkpt lat="44.89302" lon="5.76241">
        <ele>853.7</ele>
        <time>2022-07-16T08:52:11Z</time>
      </trkpt>
      <trkpt lat="44.89306" lon="5.76241">
        <ele>853.9</ele>
        <time>2022-07-16T08:52:12Z</time>
      </trkpt>
      <trkpt lat="44.89308" lon="5.76241">
        <ele>854</ele>
        <time>2022-07-16T08:52:13Z</time>
      </trkpt>
      <trkpt lat="44.8931" lon="5.7624">
        <ele>854.1</ele>
        <time>2022-07-16T08:52:14Z</time>
      </trkpt>
      <trkpt lat="44.89311" lon="5.7624">
        <ele>854.2</ele>
        <time>2022-07-16T08:52:15Z</time>
      </trkpt>
      <trkpt lat="44.89313" lon="5.76243">
        <ele>854.4</ele>
        <time>2022-07-16T08:52:16Z</time>
      </trkpt>
      <trkpt lat="44.89314" lon="5.76244">
        <ele>854.4</ele>
        <time>2022-07-16T08:52:17Z</time>
      </trkpt>
      <trkpt lat="44.89315" lon="5.76248">
        <ele>854.6</ele>
        <time>2022-07-16T08:52:18Z</time>
      </trkpt>
      <trkpt lat="44.89315" lon="5.76249">
        <ele>854.6</ele>
        <time>2022-07-16T08:52:19Z</time>
      </trkpt>
      <trkpt lat="44.89316" lon="5.7625">
        <ele>854.7</ele>
        <time>2022-07-16T08:52:20Z</time>
      </trkpt>
      <trkpt lat="44.89316" lon="5.7625">
        <ele>854.7</ele>
        <time>2022-07-16T08:52:21Z</time>
      </trkpt>
      <trkpt lat="44.89316" lon="5.7625">
        <ele>854.7</ele>
        <time>2022-07-16T08:52:22Z</time>
      </trkpt>
      <trkpt lat="44.89316" lon="5.7625">
        <ele>854.7</ele>
        <time>2022-07-16T08:52:23Z</time>
      </trkpt>
      <trkpt lat="44.89317" lon="5.76251">
        <ele>854.6</ele>
        <time>2022-07-16T08:52:24Z</time>
      </trkpt>
      <trkpt lat="44.89317" lon="5.76251">
        <ele>854.6</ele>
        <time>2022-07-16T08:52:25Z</time>
      </trkpt>
      <trkpt lat="44.89317" lon="5.76252">
        <ele>854.6</ele>
        <time>2022-07-16T08:52:26Z</time>
      </trkpt>
      <trkpt lat="44.89317" lon="5.76253">
        <ele>854.6</ele>
        <time>2022-07-16T08:52:27Z</time>
      </trkpt>
      <trkpt lat="44.89317" lon="5.76253">
        <ele>854.5</ele>
        <time>2022-07-16T08:52:28Z</time>
      </trkpt>
      <trkpt lat="44.89317" lon="5.76252">
        <ele>854.5</ele>
        <time>2022-07-16T08:52:29Z</time>
      </trkpt>
      <trkpt lat="44.89317" lon="5.76252">
        <ele>854.5</ele>
        <time>2022-07-16T08:52:30Z</time>
      </trkpt>
      <trkpt lat="44.89317" lon="5.76252">
        <ele>854.5</ele>
        <time>2022-07-16T08:52:31Z</time>
      </trkpt>
      <trkpt lat="44.89317" lon="5.76252">
        <ele>854.5</ele>
        <time>2022-07-16T08:52:32Z</time>
      </trkpt>
      <trkpt lat="44.89317" lon="5.76252">
        <ele>854.5</ele>
        <time>2022-07-16T08:52:33Z</time>
      </trkpt>
      <trkpt lat="44.89316" lon="5.76252">
        <ele>854.5</ele>
        <time>2022-07-16T08:52:34Z</time>
      </trkpt>
      <trkpt lat="44.89316" lon="5.76252">
        <ele>854.5</ele>
        <time>2022-07-16T08:52:35Z</time>
      </trkpt>
      <trkpt lat="44.89316" lon="5.76251">
        <ele>854.5</ele>
        <time>2022-07-16T08:52:36Z</time>
      </trkpt>
      <trkpt lat="44.89316" lon="5.76251">
        <ele>854.5</ele>
        <time>2022-07-16T08:52:37Z</time>
      </trkpt>
      <trkpt lat="44.89316" lon="5.76251">
        <ele>854.5</ele>
        <time>2022-07-16T08:52:38Z</time>
      </trkpt>
      <trkpt lat="44.89316" lon="5.76251">
        <ele>854.5</ele>
        <time>2022-07-16T08:52:39Z</time>
      </trkpt>
      <trkpt lat="44.89316" lon="5.76251">
        <ele>854.5</ele>
        <time>2022-07-16T08:52:40Z</time>
      </trkpt>
      <trkpt lat="44.89316" lon="5.76251">
        <ele>854.5</ele>
        <time>2022-07-16T08:52:41Z</time>
      </trkpt>
      <trkpt lat="44.89316" lon="5.76251">
        <ele>854.5</ele>
        <time>2022-07-16T08:52:42Z</time>
      </trkpt>
      <trkpt lat="44.89316" lon="5.7625">
        <ele>854.4</ele>
        <time>2022-07-16T08:52:43Z</time>
      </trkpt>
      <trkpt lat="44.89316" lon="5.7625">
        <ele>854.4</ele>
        <time>2022-07-16T08:52:44Z</time>
      </trkpt>
      <trkpt lat="44.89316" lon="5.7625">
        <ele>854.4</ele>
        <time>2022-07-16T08:52:45Z</time>
      </trkpt>
      <trkpt lat="44.89315" lon="5.7625">
        <ele>854.4</ele>
        <time>2022-07-16T08:52:46Z</time>
      </trkpt>
      <trkpt lat="44.89315" lon="5.7625">
        <ele>854.4</ele>
        <time>2022-07-16T08:52:47Z</time>
      </trkpt>
      <trkpt lat="44.89315" lon="5.7625">
        <ele>854.4</ele>
        <time>2022-07-16T08:52:48Z</time>
      </trkpt>
      <trkpt lat="44.89315" lon="5.7625">
        <ele>854.4</ele>
        <time>2022-07-16T08:53:27Z</time>
      </trkpt>
      <trkpt lat="44.89315" lon="5.76249">
        <ele>854.4</ele>
        <time>2022-07-16T08:53:28Z</time>
      </trkpt>
      <trkpt lat="44.89315" lon="5.76249">
        <ele>854.4</ele>
        <time>2022-07-16T08:53:29Z</time>
      </trkpt>
      <trkpt lat="44.89315" lon="5.76249">
        <ele>854.4</ele>
        <time>2022-07-16T08:53:30Z</time>
      </trkpt>
      <trkpt lat="44.89315" lon="5.76249">
        <ele>854.4</ele>
        <time>2022-07-16T08:53:31Z</time>
      </trkpt>
      <trkpt lat="44.89315" lon="5.76249">
        <ele>854.4</ele>
        <time>2022-07-16T08:53:32Z</time>
      </trkpt>
      <trkpt lat="44.89315" lon="5.76249">
        <ele>854.4</ele>
        <time>2022-07-16T08:53:33Z</time>
      </trkpt>
      <trkpt lat="44.89315" lon="5.76249">
        <ele>854.4</ele>
        <time>2022-07-16T08:53:34Z</time>
      </trkpt>
      <trkpt lat="44.89314" lon="5.76248">
        <ele>854.3</ele>
        <time>2022-07-16T08:53:35Z</time>
      </trkpt>
      <trkpt lat="44.89314" lon="5.76248">
        <ele>854.3</ele>
        <time>2022-07-16T08:53:36Z</time>
      </trkpt>
      <trkpt lat="44.89314" lon="5.76248">
        <ele>854.3</ele>
        <time>2022-07-16T08:53:37Z</time>
      </trkpt>
      <trkpt lat="44.89314" lon="5.76248">
        <ele>854.3</ele>
        <time>2022-07-16T08:53:38Z</time>
      </trkpt>
      <trkpt lat="44.89314" lon="5.76248">
        <ele>854.3</ele>
        <time>2022-07-16T08:53:39Z</time>
      </trkpt>
      <trkpt lat="44.89314" lon="5.76248">
        <ele>854.3</ele>
        <time>2022-07-16T08:53:52Z</time>
      </trkpt>
      <trkpt lat="44.89314" lon="5.76248">
        <ele>854.3</ele>
        <time>2022-07-16T08:53:53Z</time>
      </trkpt>
      <trkpt lat="44.89314" lon="5.76247">
        <ele>854.3</ele>
        <time>2022-07-16T08:53:54Z</time>
      </trkpt>
      <trkpt lat="44.89314" lon="5.76247">
        <ele>854.3</ele>
        <time>2022-07-16T08:53:55Z</time>
      </trkpt>
      <trkpt lat="44.89314" lon="5.76247">
        <ele>854.3</ele>
        <time>2022-07-16T08:53:56Z</time>
      </trkpt>
      <trkpt lat="44.89314" lon="5.76247">
        <ele>854.3</ele>
        <time>2022-07-16T08:53:57Z</time>
      </trkpt>
      <trkpt lat="44.89314" lon="5.76247">
        <ele>854.3</ele>
        <time>2022-07-16T08:53:58Z</time>
      </trkpt>
      <trkpt lat="44.89313" lon="5.76247">
        <ele>854.3</ele>
        <time>2022-07-16T08:53:59Z</time>
      </trkpt>
      <trkpt lat="44.89313" lon="5.76247">
        <ele>854.3</ele>
        <time>2022-07-16T08:54:00Z</time>
      </trkpt>
      <trkpt lat="44.89313" lon="5.76246">
        <ele>854.2</ele>
        <time>2022-07-16T08:54:01Z</time>
      </trkpt>
      <trkpt lat="44.89313" lon="5.76246">
        <ele>854.2</ele>
        <time>2022-07-16T08:54:02Z</time>
      </trkpt>
      <trkpt lat="44.89313" lon="5.76246">
        <ele>854.2</ele>
        <time>2022-07-16T08:54:03Z</time>
      </trkpt>
      <trkpt lat="44.89313" lon="5.76246">
        <ele>854.2</ele>
        <time>2022-07-16T08:54:04Z</time>
      </trkpt>
      <trkpt lat="44.89313" lon="5.76246">
        <ele>854.2</ele>
        <time>2022-07-16T09:23:16Z</time>
      </trkpt>
      <trkpt lat="44.89313" lon="5.76246">
        <ele>854.2</ele>
        <time>2022-07-16T09:23:17Z</time>
      </trkpt>
      <trkpt lat="44.89313" lon="5.76246">
        <ele>854.2</ele>
        <time>2022-07-16T09:23:18Z</time>
      </trkpt>
      <trkpt lat="44.89311" lon="5.76242">
        <ele>854</ele>
        <time>2022-07-16T09:23:19Z</time>
      </trkpt>
      <trkpt lat="44.8931" lon="5.76241">
        <ele>854</ele>
        <time>2022-07-16T09:23:20Z</time>
      </trkpt>
      <trkpt lat="44.89308" lon="5.76239">
        <ele>853.9</ele>
        <time>2022-07-16T09:23:21Z</time>
      </trkpt>
      <trkpt lat="44.89307" lon="5.76238">
        <ele>853.8</ele>
        <time>2022-07-16T09:23:22Z</time>
      </trkpt>
      <trkpt lat="44.89303" lon="5.76238">
        <ele>853.6</ele>
        <time>2022-07-16T09:23:23Z</time>
      </trkpt>
      <trkpt lat="44.89303" lon="5.76238">
        <ele>853.6</ele>
        <time>2022-07-16T09:23:24Z</time>
      </trkpt>
      <trkpt lat="44.893" lon="5.7624">
        <ele>853.4</ele>
        <time>2022-07-16T09:23:25Z</time>
      </trkpt>
      <trkpt lat="44.89297" lon="5.76242">
        <ele>853.3</ele>
        <time>2022-07-16T09:23:26Z</time>
      </trkpt>
      <trkpt lat="44.89293" lon="5.76246">
        <ele>853</ele>
        <time>2022-07-16T09:23:27Z</time>
      </trkpt>
      <trkpt lat="44.89291" lon="5.76248">
        <ele>852.9</ele>
        <time>2022-07-16T09:23:28Z</time>
      </trkpt>
      <trkpt lat="44.89287" lon="5.76254">
        <ele>852.8</ele>
        <time>2022-07-16T09:23:29Z</time>
      </trkpt>
      <trkpt lat="44.89283" lon="5.7626">
        <ele>852.6</ele>
        <time>2022-07-16T09:23:30Z</time>
      </trkpt>
      <trkpt lat="44.89279" lon="5.76267">
        <ele>852.5</ele>
        <time>2022-07-16T09:23:31Z</time>
      </trkpt>
      <trkpt lat="44.89274" lon="5.76273">
        <ele>852.4</ele>
        <time>2022-07-16T09:23:32Z</time>
      </trkpt>
      <trkpt lat="44.8927" lon="5.76279">
        <ele>852.3</ele>
        <time>2022-07-16T09:23:33Z</time>
      </trkpt>
      <trkpt lat="44.89266" lon="5.76285">
        <ele>852.3</ele>
        <time>2022-07-16T09:23:34Z</time>
      </trkpt>
      <trkpt lat="44.89261" lon="5.76291">
        <ele>852.3</ele>
        <time>2022-07-16T09:23:35Z</time>
      </trkpt>
      <trkpt lat="44.89257" lon="5.76299">
        <ele>852.4</ele>
        <time>2022-07-16T09:23:36Z</time>
      </trkpt>
      <trkpt lat="44.89255" lon="5.76307">
        <ele>852.7</ele>
        <time>2022-07-16T09:23:37Z</time>
      </trkpt>
      <trkpt lat="44.89252" lon="5.76314">
        <ele>852.9</ele>
        <time>2022-07-16T09:23:38Z</time>
      </trkpt>
      <trkpt lat="44.89251" lon="5.76321">
        <ele>853.1</ele>
        <time>2022-07-16T09:23:39Z</time>
      </trkpt>
      <trkpt lat="44.8925" lon="5.76327">
        <ele>853.4</ele>
        <time>2022-07-16T09:23:40Z</time>
      </trkpt>
      <trkpt lat="44.89249" lon="5.76331">
        <ele>853.6</ele>
        <time>2022-07-16T09:23:41Z</time>
      </trkpt>
      <trkpt lat="44.89249" lon="5.76336">
        <ele>853.8</ele>
        <time>2022-07-16T09:23:42Z</time>
      </trkpt>
      <trkpt lat="44.89249" lon="5.76341">
        <ele>854</ele>
        <time>2022-07-16T09:23:43Z</time>
      </trkpt>
      <trkpt lat="44.89249" lon="5.76346">
        <ele>854.3</ele>
        <time>2022-07-16T09:23:44Z</time>
      </trkpt>
      <trkpt lat="44.89249" lon="5.76348">
        <ele>854.3</ele>
        <time>2022-07-16T09:23:45Z</time>
      </trkpt>
      <trkpt lat="44.8925" lon="5.76353">
        <ele>854.6</ele>
        <time>2022-07-16T09:23:46Z</time>
      </trkpt>
      <trkpt lat="44.8925" lon="5.76355">
        <ele>854.7</ele>
        <time>2022-07-16T09:23:47Z</time>
      </trkpt>
      <trkpt lat="44.8925" lon="5.76359">
        <ele>854.9</ele>
        <time>2022-07-16T09:23:48Z</time>
      </trkpt>
      <trkpt lat="44.89251" lon="5.76363">
        <ele>855.1</ele>
        <time>2022-07-16T09:23:49Z</time>
      </trkpt>
      <trkpt lat="44.89252" lon="5.76367">
        <ele>855.4</ele>
        <time>2022-07-16T09:23:50Z</time>
      </trkpt>
      <trkpt lat="44.89253" lon="5.76368">
        <ele>855.4</ele>
        <time>2022-07-16T09:23:51Z</time>
      </trkpt>
      <trkpt lat="44.89255" lon="5.76374">
        <ele>855.8</ele>
        <time>2022-07-16T09:23:52Z</time>
      </trkpt>
      <trkpt lat="44.89256" lon="5.76375">
        <ele>855.9</ele>
        <time>2022-07-16T09:23:53Z</time>
      </trkpt>
      <trkpt lat="44.89258" lon="5.76379">
        <ele>856.1</ele>
        <time>2022-07-16T09:23:54Z</time>
      </trkpt>
      <trkpt lat="44.89259" lon="5.76384">
        <ele>856.3</ele>
        <time>2022-07-16T09:23:55Z</time>
      </trkpt>
      <trkpt lat="44.8926" lon="5.76385">
        <ele>856.4</ele>
        <time>2022-07-16T09:23:56Z</time>
      </trkpt>
      <trkpt lat="44.89262" lon="5.76388">
        <ele>856.6</ele>
        <time>2022-07-16T09:23:57Z</time>
      </trkpt>
      <trkpt lat="44.89264" lon="5.76393">
        <ele>856.9</ele>
        <time>2022-07-16T09:23:58Z</time>
      </trkpt>
      <trkpt lat="44.89265" lon="5.76394">
        <ele>857</ele>
        <time>2022-07-16T09:23:59Z</time>
      </trkpt>
      <trkpt lat="44.89268" lon="5.76397">
        <ele>857.5</ele>
        <time>2022-07-16T09:24:00Z</time>
      </trkpt>
      <trkpt lat="44.89269" lon="5.76398">
        <ele>857.6</ele>
        <time>2022-07-16T09:24:01Z</time>
      </trkpt>
      <trkpt lat="44.89272" lon="5.76401">
        <ele>858</ele>
        <time>2022-07-16T09:24:02Z</time>
      </trkpt>
      <trkpt lat="44.89273" lon="5.76402">
        <ele>858.2</ele>
        <time>2022-07-16T09:24:03Z</time>
      </trkpt>
      <trkpt lat="44.89275" lon="5.76404">
        <ele>858.6</ele>
        <time>2022-07-16T09:24:04Z</time>
      </trkpt>
      <trkpt lat="44.89276" lon="5.76405">
        <ele>858.7</ele>
        <time>2022-07-16T09:24:05Z</time>
      </trkpt>
      <trkpt lat="44.89279" lon="5.76407">
        <ele>859.1</ele>
        <time>2022-07-16T09:24:06Z</time>
      </trkpt>
      <trkpt lat="44.8928" lon="5.76408">
        <ele>859.2</ele>
        <time>2022-07-16T09:24:07Z</time>
      </trkpt>
      <trkpt lat="44.89282" lon="5.76411">
        <ele>859.6</ele>
        <time>2022-07-16T09:24:08Z</time>
      </trkpt>
      <trkpt lat="44.89283" lon="5.76412">
        <ele>859.7</ele>
        <time>2022-07-16T09:24:09Z</time>
      </trkpt>
      <trkpt lat="44.89285" lon="5.76415">
        <ele>860</ele>
        <time>2022-07-16T09:24:10Z</time>
      </trkpt>
      <trkpt lat="44.89286" lon="5.76416">
        <ele>860.1</ele>
        <time>2022-07-16T09:24:11Z</time>
      </trkpt>
      <trkpt lat="44.89289" lon="5.76419">
        <ele>860.5</ele>
        <time>2022-07-16T09:24:12Z</time>
      </trkpt>
      <trkpt lat="44.8929" lon="5.7642">
        <ele>860.6</ele>
        <time>2022-07-16T09:24:13Z</time>
      </trkpt>
      <trkpt lat="44.89292" lon="5.76423">
        <ele>860.7</ele>
        <time>2022-07-16T09:24:14Z</time>
      </trkpt>
      <trkpt lat="44.89294" lon="5.76427">
        <ele>860.8</ele>
        <time>2022-07-16T09:24:15Z</time>
      </trkpt>
      <trkpt lat="44.89295" lon="5.76428">
        <ele>860.9</ele>
        <time>2022-07-16T09:24:16Z</time>
      </trkpt>
      <trkpt lat="44.89297" lon="5.76433">
        <ele>861</ele>
        <time>2022-07-16T09:24:17Z</time>
      </trkpt>
      <trkpt lat="44.89299" lon="5.7644">
        <ele>861.1</ele>
        <time>2022-07-16T09:24:18Z</time>
      </trkpt>
      <trkpt lat="44.893" lon="5.76445">
        <ele>861.2</ele>
        <time>2022-07-16T09:24:20Z</time>
      </trkpt>
      <trkpt lat="44.89301" lon="5.76446">
        <ele>861.2</ele>
        <time>2022-07-16T09:24:21Z</time>
      </trkpt>
      <trkpt lat="44.893" lon="5.7645">
        <ele>861.3</ele>
        <time>2022-07-16T09:24:23Z</time>
      </trkpt>
      <trkpt lat="44.89303" lon="5.76462">
        <ele>861.4</ele>
        <time>2022-07-16T09:24:26Z</time>
      </trkpt>
      <trkpt lat="44.89303" lon="5.76467">
        <ele>861.5</ele>
        <time>2022-07-16T09:24:27Z</time>
      </trkpt>
      <trkpt lat="44.89302" lon="5.7647">
        <ele>861.5</ele>
        <time>2022-07-16T09:24:28Z</time>
      </trkpt>
      <trkpt lat="44.89305" lon="5.76474">
        <ele>861.5</ele>
        <time>2022-07-16T09:24:30Z</time>
      </trkpt>
      <trkpt lat="44.89307" lon="5.76478">
        <ele>861.5</ele>
        <time>2022-07-16T09:24:31Z</time>
      </trkpt>
      <trkpt lat="44.89309" lon="5.76485">
        <ele>861.5</ele>
        <time>2022-07-16T09:24:33Z</time>
      </trkpt>
      <trkpt lat="44.89311" lon="5.76494">
        <ele>861.5</ele>
        <time>2022-07-16T09:24:35Z</time>
      </trkpt>
      <trkpt lat="44.89313" lon="5.76501">
        <ele>861.5</ele>
        <time>2022-07-16T09:24:36Z</time>
      </trkpt>
      <trkpt lat="44.89316" lon="5.7651">
        <ele>861.4</ele>
        <time>2022-07-16T09:24:38Z</time>
      </trkpt>
      <trkpt lat="44.89317" lon="5.76518">
        <ele>861.4</ele>
        <time>2022-07-16T09:24:39Z</time>
      </trkpt>
      <trkpt lat="44.89319" lon="5.76523">
        <ele>861.4</ele>
        <time>2022-07-16T09:24:40Z</time>
      </trkpt>
      <trkpt lat="44.89319" lon="5.76531">
        <ele>861.4</ele>
        <time>2022-07-16T09:24:42Z</time>
      </trkpt>
      <trkpt lat="44.89319" lon="5.76539">
        <ele>861.3</ele>
        <time>2022-07-16T09:24:43Z</time>
      </trkpt>
      <trkpt lat="44.89319" lon="5.76543">
        <ele>861.3</ele>
        <time>2022-07-16T09:24:44Z</time>
      </trkpt>
      <trkpt lat="44.89317" lon="5.76555">
        <ele>861.3</ele>
        <time>2022-07-16T09:24:45Z</time>
      </trkpt>
      <trkpt lat="44.89317" lon="5.76561">
        <ele>861.3</ele>
        <time>2022-07-16T09:24:47Z</time>
      </trkpt>
      <trkpt lat="44.89318" lon="5.76567">
        <ele>861.3</ele>
        <time>2022-07-16T09:24:48Z</time>
      </trkpt>
      <trkpt lat="44.8932" lon="5.76579">
        <ele>861.3</ele>
        <time>2022-07-16T09:24:49Z</time>
      </trkpt>
      <trkpt lat="44.89321" lon="5.76587">
        <ele>861.3</ele>
        <time>2022-07-16T09:24:50Z</time>
      </trkpt>
      <trkpt lat="44.89322" lon="5.76596">
        <ele>861.2</ele>
        <time>2022-07-16T09:24:53Z</time>
      </trkpt>
      <trkpt lat="44.89322" lon="5.76602">
        <ele>861.2</ele>
        <time>2022-07-16T09:24:54Z</time>
      </trkpt>
      <trkpt lat="44.89321" lon="5.76609">
        <ele>861.2</ele>
        <time>2022-07-16T09:24:55Z</time>
      </trkpt>
      <trkpt lat="44.8932" lon="5.76616">
        <ele>861.2</ele>
        <time>2022-07-16T09:24:56Z</time>
      </trkpt>
      <trkpt lat="44.89319" lon="5.76623">
        <ele>861.1</ele>
        <time>2022-07-16T09:24:57Z</time>
      </trkpt>
      <trkpt lat="44.89318" lon="5.7663">
        <ele>861.1</ele>
        <time>2022-07-16T09:24:58Z</time>
      </trkpt>
      <trkpt lat="44.89317" lon="5.76637">
        <ele>861.1</ele>
        <time>2022-07-16T09:24:59Z</time>
      </trkpt>
      <trkpt lat="44.89317" lon="5.76644">
        <ele>861.1</ele>
        <time>2022-07-16T09:25:00Z</time>
      </trkpt>
      <trkpt lat="44.89315" lon="5.7665">
        <ele>861.1</ele>
        <time>2022-07-16T09:25:01Z</time>
      </trkpt>
      <trkpt lat="44.89314" lon="5.76658">
        <ele>861.1</ele>
        <time>2022-07-16T09:25:02Z</time>
      </trkpt>
      <trkpt lat="44.89313" lon="5.76666">
        <ele>861</ele>
        <time>2022-07-16T09:25:03Z</time>
      </trkpt>
      <trkpt lat="44.89313" lon="5.76675">
        <ele>861</ele>
        <time>2022-07-16T09:25:04Z</time>
      </trkpt>
      <trkpt lat="44.89315" lon="5.76682">
        <ele>860.9</ele>
        <time>2022-07-16T09:25:05Z</time>
      </trkpt>
      <trkpt lat="44.89318" lon="5.76687">
        <ele>860.9</ele>
        <time>2022-07-16T09:25:06Z</time>
      </trkpt>
      <trkpt lat="44.89321" lon="5.76693">
        <ele>860.8</ele>
        <time>2022-07-16T09:25:07Z</time>
      </trkpt>
      <trkpt lat="44.89323" lon="5.767">
        <ele>860.7</ele>
        <time>2022-07-16T09:25:08Z</time>
      </trkpt>
      <trkpt lat="44.89325" lon="5.76708">
        <ele>860.7</ele>
        <time>2022-07-16T09:25:09Z</time>
      </trkpt>
      <trkpt lat="44.89327" lon="5.76715">
        <ele>860.6</ele>
        <time>2022-07-16T09:25:10Z</time>
      </trkpt>
      <trkpt lat="44.89329" lon="5.76723">
        <ele>860.6</ele>
        <time>2022-07-16T09:25:11Z</time>
      </trkpt>
      <trkpt lat="44.89332" lon="5.76731">
        <ele>860.5</ele>
        <time>2022-07-16T09:25:12Z</time>
      </trkpt>
      <trkpt lat="44.89335" lon="5.76738">
        <ele>860.4</ele>
        <time>2022-07-16T09:25:13Z</time>
      </trkpt>
      <trkpt lat="44.89337" lon="5.76745">
        <ele>860.4</ele>
        <time>2022-07-16T09:25:14Z</time>
      </trkpt>
      <trkpt lat="44.8934" lon="5.76752">
        <ele>860.4</ele>
        <time>2022-07-16T09:25:15Z</time>
      </trkpt>
      <trkpt lat="44.89343" lon="5.76758">
        <ele>860.4</ele>
        <time>2022-07-16T09:25:16Z</time>
      </trkpt>
      <trkpt lat="44.89348" lon="5.76764">
        <ele>860.4</ele>
        <time>2022-07-16T09:25:17Z</time>
      </trkpt>
      <trkpt lat="44.89352" lon="5.76769">
        <ele>860.4</ele>
        <time>2022-07-16T09:25:18Z</time>
      </trkpt>
      <trkpt lat="44.89356" lon="5.76773">
        <ele>860.5</ele>
        <time>2022-07-16T09:25:19Z</time>
      </trkpt>
      <trkpt lat="44.8936" lon="5.76777">
        <ele>860.5</ele>
        <time>2022-07-16T09:25:20Z</time>
      </trkpt>
      <trkpt lat="44.89364" lon="5.76781">
        <ele>860.6</ele>
        <time>2022-07-16T09:25:21Z</time>
      </trkpt>
      <trkpt lat="44.89368" lon="5.76786">
        <ele>860.7</ele>
        <time>2022-07-16T09:25:22Z</time>
      </trkpt>
      <trkpt lat="44.89372" lon="5.7679">
        <ele>860.7</ele>
        <time>2022-07-16T09:25:23Z</time>
      </trkpt>
      <trkpt lat="44.89377" lon="5.76793">
        <ele>860.8</ele>
        <time>2022-07-16T09:25:24Z</time>
      </trkpt>
      <trkpt lat="44.89381" lon="5.76796">
        <ele>860.9</ele>
        <time>2022-07-16T09:25:25Z</time>
      </trkpt>
      <trkpt lat="44.89385" lon="5.76798">
        <ele>861</ele>
        <time>2022-07-16T09:25:26Z</time>
      </trkpt>
      <trkpt lat="44.8939" lon="5.76801">
        <ele>861.1</ele>
        <time>2022-07-16T09:25:27Z</time>
      </trkpt>
      <trkpt lat="44.89395" lon="5.76804">
        <ele>861.1</ele>
        <time>2022-07-16T09:25:28Z</time>
      </trkpt>
      <trkpt lat="44.89398" lon="5.76807">
        <ele>861.2</ele>
        <time>2022-07-16T09:25:29Z</time>
      </trkpt>
      <trkpt lat="44.89402" lon="5.7681">
        <ele>861.3</ele>
        <time>2022-07-16T09:25:30Z</time>
      </trkpt>
      <trkpt lat="44.89406" lon="5.76813">
        <ele>861.3</ele>
        <time>2022-07-16T09:25:31Z</time>
      </trkpt>
      <trkpt lat="44.8941" lon="5.76816">
        <ele>861.4</ele>
        <time>2022-07-16T09:25:32Z</time>
      </trkpt>
      <trkpt lat="44.89416" lon="5.7682">
        <ele>861.5</ele>
        <time>2022-07-16T09:25:33Z</time>
      </trkpt>
      <trkpt lat="44.8942" lon="5.76823">
        <ele>861.6</ele>
        <time>2022-07-16T09:25:34Z</time>
      </trkpt>
      <trkpt lat="44.89424" lon="5.76826">
        <ele>861.7</ele>
        <time>2022-07-16T09:25:35Z</time>
      </trkpt>
      <trkpt lat="44.89429" lon="5.76829">
        <ele>861.8</ele>
        <time>2022-07-16T09:25:36Z</time>
      </trkpt>
      <trkpt lat="44.89433" lon="5.76832">
        <ele>862</ele>
        <time>2022-07-16T09:25:37Z</time>
      </trkpt>
      <trkpt lat="44.89437" lon="5.76835">
        <ele>862.1</ele>
        <time>2022-07-16T09:25:38Z</time>
      </trkpt>
      <trkpt lat="44.89441" lon="5.76837">
        <ele>862.2</ele>
        <time>2022-07-16T09:25:39Z</time>
      </trkpt>
      <trkpt lat="44.89446" lon="5.76839">
        <ele>862.4</ele>
        <time>2022-07-16T09:25:40Z</time>
      </trkpt>
      <trkpt lat="44.89448" lon="5.7684">
        <ele>862.4</ele>
        <time>2022-07-16T09:25:41Z</time>
      </trkpt>
      <trkpt lat="44.89452" lon="5.76843">
        <ele>862.5</ele>
        <time>2022-07-16T09:25:42Z</time>
      </trkpt>
      <trkpt lat="44.89457" lon="5.76845">
        <ele>862.6</ele>
        <time>2022-07-16T09:25:43Z</time>
      </trkpt>
      <trkpt lat="44.8946" lon="5.76848">
        <ele>862.7</ele>
        <time>2022-07-16T09:25:44Z</time>
      </trkpt>
      <trkpt lat="44.89467" lon="5.76852">
        <ele>862.9</ele>
        <time>2022-07-16T09:25:45Z</time>
      </trkpt>
      <trkpt lat="44.89473" lon="5.76858">
        <ele>863.1</ele>
        <time>2022-07-16T09:25:47Z</time>
      </trkpt>
      <trkpt lat="44.89477" lon="5.7686">
        <ele>863.2</ele>
        <time>2022-07-16T09:25:48Z</time>
      </trkpt>
      <trkpt lat="44.89481" lon="5.76862">
        <ele>863.3</ele>
        <time>2022-07-16T09:25:49Z</time>
      </trkpt>
      <trkpt lat="44.89485" lon="5.76865">
        <ele>863.4</ele>
        <time>2022-07-16T09:25:50Z</time>
      </trkpt>
      <trkpt lat="44.89489" lon="5.76868">
        <ele>863.5</ele>
        <time>2022-07-16T09:25:51Z</time>
      </trkpt>
      <trkpt lat="44.895" lon="5.76876">
        <ele>863.8</ele>
        <time>2022-07-16T09:25:52Z</time>
      </trkpt>
      <trkpt lat="44.89499" lon="5.76877">
        <ele>863.8</ele>
        <time>2022-07-16T09:25:54Z</time>
      </trkpt>
      <trkpt lat="44.89519" lon="5.76887">
        <ele>864.3</ele>
        <time>2022-07-16T09:25:57Z</time>
      </trkpt>
      <trkpt lat="44.89523" lon="5.76887">
        <ele>864.4</ele>
        <time>2022-07-16T09:25:59Z</time>
      </trkpt>
      <trkpt lat="44.89529" lon="5.76893">
        <ele>864.5</ele>
        <time>2022-07-16T09:26:01Z</time>
      </trkpt>
      <trkpt lat="44.89538" lon="5.76901">
        <ele>864.6</ele>
        <time>2022-07-16T09:26:02Z</time>
      </trkpt>
      <trkpt lat="44.89541" lon="5.76907">
        <ele>864.6</ele>
        <time>2022-07-16T09:26:03Z</time>
      </trkpt>
      <trkpt lat="44.89544" lon="5.76909">
        <ele>864.6</ele>
        <time>2022-07-16T09:26:04Z</time>
      </trkpt>
      <trkpt lat="44.8955" lon="5.76918">
        <ele>864.5</ele>
        <time>2022-07-16T09:26:07Z</time>
      </trkpt>
      <trkpt lat="44.89554" lon="5.76923">
        <ele>864.4</ele>
        <time>2022-07-16T09:26:08Z</time>
      </trkpt>
      <trkpt lat="44.89557" lon="5.76928">
        <ele>864.3</ele>
        <time>2022-07-16T09:26:09Z</time>
      </trkpt>
      <trkpt lat="44.8956" lon="5.76934">
        <ele>864.2</ele>
        <time>2022-07-16T09:26:10Z</time>
      </trkpt>
      <trkpt lat="44.89563" lon="5.76941">
        <ele>864</ele>
        <time>2022-07-16T09:26:11Z</time>
      </trkpt>
      <trkpt lat="44.89567" lon="5.76947">
        <ele>863.9</ele>
        <time>2022-07-16T09:26:12Z</time>
      </trkpt>
      <trkpt lat="44.8957" lon="5.76954">
        <ele>863.7</ele>
        <time>2022-07-16T09:26:13Z</time>
      </trkpt>
      <trkpt lat="44.89573" lon="5.76962">
        <ele>863.5</ele>
        <time>2022-07-16T09:26:14Z</time>
      </trkpt>
      <trkpt lat="44.89577" lon="5.7697">
        <ele>863.3</ele>
        <time>2022-07-16T09:26:15Z</time>
      </trkpt>
      <trkpt lat="44.8958" lon="5.76977">
        <ele>863.1</ele>
        <time>2022-07-16T09:26:16Z</time>
      </trkpt>
      <trkpt lat="44.89584" lon="5.76985">
        <ele>862.9</ele>
        <time>2022-07-16T09:26:17Z</time>
      </trkpt>
      <trkpt lat="44.89589" lon="5.76992">
        <ele>862.7</ele>
        <time>2022-07-16T09:26:18Z</time>
      </trkpt>
      <trkpt lat="44.89594" lon="5.76999">
        <ele>862.4</ele>
        <time>2022-07-16T09:26:19Z</time>
      </trkpt>
      <trkpt lat="44.89599" lon="5.77006">
        <ele>862.2</ele>
        <time>2022-07-16T09:26:20Z</time>
      </trkpt>
      <trkpt lat="44.89604" lon="5.77012">
        <ele>862</ele>
        <time>2022-07-16T09:26:21Z</time>
      </trkpt>
      <trkpt lat="44.8961" lon="5.7702">
        <ele>861.8</ele>
        <time>2022-07-16T09:26:22Z</time>
      </trkpt>
      <trkpt lat="44.89615" lon="5.77027">
        <ele>861.6</ele>
        <time>2022-07-16T09:26:23Z</time>
      </trkpt>
      <trkpt lat="44.89621" lon="5.77034">
        <ele>861.4</ele>
        <time>2022-07-16T09:26:24Z</time>
      </trkpt>
      <trkpt lat="44.89627" lon="5.77041">
        <ele>861.2</ele>
        <time>2022-07-16T09:26:25Z</time>
      </trkpt>
      <trkpt lat="44.89634" lon="5.77047">
        <ele>861</ele>
        <time>2022-07-16T09:26:26Z</time>
      </trkpt>
      <trkpt lat="44.8964" lon="5.77052">
        <ele>860.9</ele>
        <time>2022-07-16T09:26:27Z</time>
      </trkpt>
      <trkpt lat="44.89647" lon="5.77058">
        <ele>860.7</ele>
        <time>2022-07-16T09:26:28Z</time>
      </trkpt>
      <trkpt lat="44.89653" lon="5.77064">
        <ele>860.5</ele>
        <time>2022-07-16T09:26:29Z</time>
      </trkpt>
      <trkpt lat="44.89659" lon="5.77069">
        <ele>860.3</ele>
        <time>2022-07-16T09:26:30Z</time>
      </trkpt>
      <trkpt lat="44.89665" lon="5.77075">
        <ele>860.1</ele>
        <time>2022-07-16T09:26:31Z</time>
      </trkpt>
      <trkpt lat="44.89671" lon="5.77081">
        <ele>860</ele>
        <time>2022-07-16T09:26:32Z</time>
      </trkpt>
      <trkpt lat="44.89677" lon="5.77087">
        <ele>859.8</ele>
        <time>2022-07-16T09:26:33Z</time>
      </trkpt>
      <trkpt lat="44.89684" lon="5.77092">
        <ele>859.6</ele>
        <time>2022-07-16T09:26:34Z</time>
      </trkpt>
      <trkpt lat="44.89691" lon="5.77099">
        <ele>859.5</ele>
        <time>2022-07-16T09:26:35Z</time>
      </trkpt>
      <trkpt lat="44.89698" lon="5.77104">
        <ele>859.3</ele>
        <time>2022-07-16T09:26:36Z</time>
      </trkpt>
      <trkpt lat="44.89704" lon="5.7711">
        <ele>859.2</ele>
        <time>2022-07-16T09:26:37Z</time>
      </trkpt>
      <trkpt lat="44.8971" lon="5.77116">
        <ele>859.1</ele>
        <time>2022-07-16T09:26:38Z</time>
      </trkpt>
      <trkpt lat="44.89716" lon="5.77122">
        <ele>859</ele>
        <time>2022-07-16T09:26:39Z</time>
      </trkpt>
      <trkpt lat="44.89723" lon="5.77128">
        <ele>858.9</ele>
        <time>2022-07-16T09:26:40Z</time>
      </trkpt>
      <trkpt lat="44.89729" lon="5.77134">
        <ele>858.7</ele>
        <time>2022-07-16T09:26:41Z</time>
      </trkpt>
      <trkpt lat="44.89735" lon="5.7714">
        <ele>858.6</ele>
        <time>2022-07-16T09:26:42Z</time>
      </trkpt>
      <trkpt lat="44.89742" lon="5.77145">
        <ele>858.5</ele>
        <time>2022-07-16T09:26:43Z</time>
      </trkpt>
      <trkpt lat="44.89748" lon="5.7715">
        <ele>858.5</ele>
        <time>2022-07-16T09:26:44Z</time>
      </trkpt>
      <trkpt lat="44.89755" lon="5.77154">
        <ele>858.4</ele>
        <time>2022-07-16T09:26:45Z</time>
      </trkpt>
      <trkpt lat="44.89762" lon="5.77157">
        <ele>858.3</ele>
        <time>2022-07-16T09:26:46Z</time>
      </trkpt>
      <trkpt lat="44.89768" lon="5.77159">
        <ele>858.3</ele>
        <time>2022-07-16T09:26:47Z</time>
      </trkpt>
      <trkpt lat="44.89775" lon="5.77159">
        <ele>858.2</ele>
        <time>2022-07-16T09:26:48Z</time>
      </trkpt>
      <trkpt lat="44.89782" lon="5.7716">
        <ele>858.2</ele>
        <time>2022-07-16T09:26:49Z</time>
      </trkpt>
      <trkpt lat="44.89789" lon="5.77161">
        <ele>858.1</ele>
        <time>2022-07-16T09:26:50Z</time>
      </trkpt>
      <trkpt lat="44.89796" lon="5.77161">
        <ele>858.1</ele>
        <time>2022-07-16T09:26:51Z</time>
      </trkpt>
      <trkpt lat="44.89803" lon="5.77161">
        <ele>858</ele>
        <time>2022-07-16T09:26:52Z</time>
      </trkpt>
      <trkpt lat="44.89809" lon="5.77162">
        <ele>858</ele>
        <time>2022-07-16T09:26:53Z</time>
      </trkpt>
      <trkpt lat="44.89816" lon="5.77163">
        <ele>858</ele>
        <time>2022-07-16T09:26:54Z</time>
      </trkpt>
      <trkpt lat="44.89823" lon="5.77163">
        <ele>858</ele>
        <time>2022-07-16T09:26:55Z</time>
      </trkpt>
      <trkpt lat="44.89829" lon="5.77163">
        <ele>858</ele>
        <time>2022-07-16T09:26:56Z</time>
      </trkpt>
      <trkpt lat="44.89834" lon="5.77163">
        <ele>858</ele>
        <time>2022-07-16T09:26:57Z</time>
      </trkpt>
      <trkpt lat="44.89841" lon="5.77164">
        <ele>858</ele>
        <time>2022-07-16T09:26:58Z</time>
      </trkpt>
      <trkpt lat="44.89846" lon="5.77165">
        <ele>858</ele>
        <time>2022-07-16T09:26:59Z</time>
      </trkpt>
      <trkpt lat="44.89852" lon="5.77166">
        <ele>858</ele>
        <time>2022-07-16T09:27:00Z</time>
      </trkpt>
      <trkpt lat="44.89859" lon="5.77167">
        <ele>858</ele>
        <time>2022-07-16T09:27:01Z</time>
      </trkpt>
      <trkpt lat="44.89865" lon="5.77168">
        <ele>858</ele>
        <time>2022-07-16T09:27:02Z</time>
      </trkpt>
      <trkpt lat="44.89873" lon="5.77169">
        <ele>858.1</ele>
        <time>2022-07-16T09:27:03Z</time>
      </trkpt>
      <trkpt lat="44.8988" lon="5.77169">
        <ele>858.2</ele>
        <time>2022-07-16T09:27:04Z</time>
      </trkpt>
      <trkpt lat="44.89886" lon="5.77169">
        <ele>858.2</ele>
        <time>2022-07-16T09:27:05Z</time>
      </trkpt>
      <trkpt lat="44.89892" lon="5.77169">
        <ele>858.3</ele>
        <time>2022-07-16T09:27:06Z</time>
      </trkpt>
      <trkpt lat="44.89898" lon="5.7717">
        <ele>858.4</ele>
        <time>2022-07-16T09:27:07Z</time>
      </trkpt>
      <trkpt lat="44.89905" lon="5.77172">
        <ele>858.6</ele>
        <time>2022-07-16T09:27:08Z</time>
      </trkpt>
      <trkpt lat="44.89909" lon="5.77174">
        <ele>858.6</ele>
        <time>2022-07-16T09:27:09Z</time>
      </trkpt>
      <trkpt lat="44.89914" lon="5.77177">
        <ele>858.7</ele>
        <time>2022-07-16T09:27:10Z</time>
      </trkpt>
      <trkpt lat="44.8992" lon="5.7718">
        <ele>858.8</ele>
        <time>2022-07-16T09:27:11Z</time>
      </trkpt>
      <trkpt lat="44.89925" lon="5.77183">
        <ele>858.8</ele>
        <time>2022-07-16T09:27:12Z</time>
      </trkpt>
      <trkpt lat="44.89929" lon="5.77187">
        <ele>858.9</ele>
        <time>2022-07-16T09:27:13Z</time>
      </trkpt>
      <trkpt lat="44.89934" lon="5.77191">
        <ele>859</ele>
        <time>2022-07-16T09:27:14Z</time>
      </trkpt>
      <trkpt lat="44.89939" lon="5.77195">
        <ele>859.1</ele>
        <time>2022-07-16T09:27:15Z</time>
      </trkpt>
      <trkpt lat="44.89943" lon="5.77199">
        <ele>859.1</ele>
        <time>2022-07-16T09:27:16Z</time>
      </trkpt>
      <trkpt lat="44.89947" lon="5.77203">
        <ele>859.2</ele>
        <time>2022-07-16T09:27:17Z</time>
      </trkpt>
      <trkpt lat="44.8995" lon="5.77205">
        <ele>859.3</ele>
        <time>2022-07-16T09:27:18Z</time>
      </trkpt>
      <trkpt lat="44.89954" lon="5.77209">
        <ele>859.4</ele>
        <time>2022-07-16T09:27:19Z</time>
      </trkpt>
      <trkpt lat="44.89957" lon="5.77212">
        <ele>859.4</ele>
        <time>2022-07-16T09:27:20Z</time>
      </trkpt>
      <trkpt lat="44.89961" lon="5.77215">
        <ele>859.5</ele>
        <time>2022-07-16T09:27:21Z</time>
      </trkpt>
      <trkpt lat="44.89964" lon="5.77218">
        <ele>859.6</ele>
        <time>2022-07-16T09:27:22Z</time>
      </trkpt>
      <trkpt lat="44.89973" lon="5.77221">
        <ele>859.8</ele>
        <time>2022-07-16T09:27:23Z</time>
      </trkpt>
      <trkpt lat="44.89975" lon="5.77217">
        <ele>859.8</ele>
        <time>2022-07-16T09:27:24Z</time>
      </trkpt>
      <trkpt lat="44.89983" lon="5.77223">
        <ele>860</ele>
        <time>2022-07-16T09:27:26Z</time>
      </trkpt>
      <trkpt lat="44.89987" lon="5.77237">
        <ele>860</ele>
        <time>2022-07-16T09:27:27Z</time>
      </trkpt>
      <trkpt lat="44.89995" lon="5.77254">
        <ele>860</ele>
        <time>2022-07-16T09:27:31Z</time>
      </trkpt>
      <trkpt lat="44.89998" lon="5.77259">
        <ele>860</ele>
        <time>2022-07-16T09:27:32Z</time>
      </trkpt>
      <trkpt lat="44.90001" lon="5.77264">
        <ele>860</ele>
        <time>2022-07-16T09:27:33Z</time>
      </trkpt>
      <trkpt lat="44.90004" lon="5.77269">
        <ele>860</ele>
        <time>2022-07-16T09:27:34Z</time>
      </trkpt>
      <trkpt lat="44.90007" lon="5.77274">
        <ele>860</ele>
        <time>2022-07-16T09:27:35Z</time>
      </trkpt>
      <trkpt lat="44.9001" lon="5.7728">
        <ele>860</ele>
        <time>2022-07-16T09:27:36Z</time>
      </trkpt>
      <trkpt lat="44.90013" lon="5.77285">
        <ele>860</ele>
        <time>2022-07-16T09:27:37Z</time>
      </trkpt>
      <trkpt lat="44.90016" lon="5.77291">
        <ele>860</ele>
        <time>2022-07-16T09:27:38Z</time>
      </trkpt>
      <trkpt lat="44.90019" lon="5.77297">
        <ele>859.9</ele>
        <time>2022-07-16T09:27:39Z</time>
      </trkpt>
      <trkpt lat="44.90022" lon="5.77303">
        <ele>859.9</ele>
        <time>2022-07-16T09:27:40Z</time>
      </trkpt>
      <trkpt lat="44.90026" lon="5.7731">
        <ele>859.9</ele>
        <time>2022-07-16T09:27:41Z</time>
      </trkpt>
      <trkpt lat="44.90029" lon="5.77316">
        <ele>859.8</ele>
        <time>2022-07-16T09:27:42Z</time>
      </trkpt>
      <trkpt lat="44.90032" lon="5.77323">
        <ele>859.8</ele>
        <time>2022-07-16T09:27:43Z</time>
      </trkpt>
      <trkpt lat="44.90034" lon="5.7733">
        <ele>859.8</ele>
        <time>2022-07-16T09:27:44Z</time>
      </trkpt>
      <trkpt lat="44.90037" lon="5.77336">
        <ele>859.8</ele>
        <time>2022-07-16T09:27:45Z</time>
      </trkpt>
      <trkpt lat="44.90039" lon="5.77343">
        <ele>859.8</ele>
        <time>2022-07-16T09:27:46Z</time>
      </trkpt>
      <trkpt lat="44.90041" lon="5.7735">
        <ele>859.8</ele>
        <time>2022-07-16T09:27:47Z</time>
      </trkpt>
      <trkpt lat="44.90044" lon="5.77356">
        <ele>859.8</ele>
        <time>2022-07-16T09:27:48Z</time>
      </trkpt>
      <trkpt lat="44.90046" lon="5.77362">
        <ele>859.8</ele>
        <time>2022-07-16T09:27:49Z</time>
      </trkpt>
      <trkpt lat="44.90049" lon="5.77369">
        <ele>859.8</ele>
        <time>2022-07-16T09:27:50Z</time>
      </trkpt>
      <trkpt lat="44.90052" lon="5.77376">
        <ele>859.8</ele>
        <time>2022-07-16T09:27:51Z</time>
      </trkpt>
      <trkpt lat="44.90055" lon="5.77383">
        <ele>859.8</ele>
        <time>2022-07-16T09:27:52Z</time>
      </trkpt>
      <trkpt lat="44.90058" lon="5.77389">
        <ele>859.7</ele>
        <time>2022-07-16T09:27:53Z</time>
      </trkpt>
      <trkpt lat="44.9006" lon="5.77396">
        <ele>859.7</ele>
        <time>2022-07-16T09:27:54Z</time>
      </trkpt>
      <trkpt lat="44.90062" lon="5.77403">
        <ele>859.7</ele>
        <time>2022-07-16T09:27:55Z</time>
      </trkpt>
      <trkpt lat="44.90064" lon="5.7741">
        <ele>859.7</ele>
        <time>2022-07-16T09:27:56Z</time>
      </trkpt>
      <trkpt lat="44.90066" lon="5.77417">
        <ele>859.6</ele>
        <time>2022-07-16T09:27:57Z</time>
      </trkpt>
      <trkpt lat="44.90067" lon="5.77425">
        <ele>859.6</ele>
        <time>2022-07-16T09:27:58Z</time>
      </trkpt>
      <trkpt lat="44.90069" lon="5.77432">
        <ele>859.6</ele>
        <time>2022-07-16T09:27:59Z</time>
      </trkpt>
      <trkpt lat="44.90071" lon="5.7744">
        <ele>859.6</ele>
        <time>2022-07-16T09:28:00Z</time>
      </trkpt>
      <trkpt lat="44.90073" lon="5.77448">
        <ele>859.6</ele>
        <time>2022-07-16T09:28:01Z</time>
      </trkpt>
      <trkpt lat="44.90075" lon="5.77455">
        <ele>859.5</ele>
        <time>2022-07-16T09:28:02Z</time>
      </trkpt>
      <trkpt lat="44.90076" lon="5.77463">
        <ele>859.5</ele>
        <time>2022-07-16T09:28:03Z</time>
      </trkpt>
      <trkpt lat="44.90078" lon="5.77471">
        <ele>859.5</ele>
        <time>2022-07-16T09:28:04Z</time>
      </trkpt>
      <trkpt lat="44.9008" lon="5.77478">
        <ele>859.4</ele>
        <time>2022-07-16T09:28:05Z</time>
      </trkpt>
      <trkpt lat="44.90082" lon="5.77485">
        <ele>859.4</ele>
        <time>2022-07-16T09:28:06Z</time>
      </trkpt>
      <trkpt lat="44.90084" lon="5.77493">
        <ele>859.4</ele>
        <time>2022-07-16T09:28:07Z</time>
      </trkpt>
      <trkpt lat="44.90086" lon="5.77501">
        <ele>859.4</ele>
        <time>2022-07-16T09:28:08Z</time>
      </trkpt>
      <trkpt lat="44.90088" lon="5.77508">
        <ele>859.4</ele>
        <time>2022-07-16T09:28:09Z</time>
      </trkpt>
      <trkpt lat="44.9009" lon="5.77516">
        <ele>859.3</ele>
        <time>2022-07-16T09:28:10Z</time>
      </trkpt>
      <trkpt lat="44.90092" lon="5.77524">
        <ele>859.3</ele>
        <time>2022-07-16T09:28:11Z</time>
      </trkpt>
      <trkpt lat="44.90094" lon="5.77532">
        <ele>859.3</ele>
        <time>2022-07-16T09:28:12Z</time>
      </trkpt>
      <trkpt lat="44.90096" lon="5.7754">
        <ele>859.4</ele>
        <time>2022-07-16T09:28:13Z</time>
      </trkpt>
      <trkpt lat="44.90098" lon="5.77548">
        <ele>859.4</ele>
        <time>2022-07-16T09:28:14Z</time>
      </trkpt>
      <trkpt lat="44.901" lon="5.77556">
        <ele>859.4</ele>
        <time>2022-07-16T09:28:15Z</time>
      </trkpt>
      <trkpt lat="44.90101" lon="5.77563">
        <ele>859.5</ele>
        <time>2022-07-16T09:28:16Z</time>
      </trkpt>
      <trkpt lat="44.90103" lon="5.7757">
        <ele>859.5</ele>
        <time>2022-07-16T09:28:17Z</time>
      </trkpt>
      <trkpt lat="44.90105" lon="5.77576">
        <ele>859.5</ele>
        <time>2022-07-16T09:28:18Z</time>
      </trkpt>
      <trkpt lat="44.90106" lon="5.77583">
        <ele>859.6</ele>
        <time>2022-07-16T09:28:19Z</time>
      </trkpt>
      <trkpt lat="44.90108" lon="5.77589">
        <ele>859.6</ele>
        <time>2022-07-16T09:28:20Z</time>
      </trkpt>
      <trkpt lat="44.90109" lon="5.77596">
        <ele>859.7</ele>
        <time>2022-07-16T09:28:21Z</time>
      </trkpt>
      <trkpt lat="44.9011" lon="5.77602">
        <ele>859.7</ele>
        <time>2022-07-16T09:28:22Z</time>
      </trkpt>
      <trkpt lat="44.9011" lon="5.7761">
        <ele>859.8</ele>
        <time>2022-07-16T09:28:23Z</time>
      </trkpt>
      <trkpt lat="44.9011" lon="5.77617">
        <ele>859.9</ele>
        <time>2022-07-16T09:28:24Z</time>
      </trkpt>
      <trkpt lat="44.9011" lon="5.77625">
        <ele>860</ele>
        <time>2022-07-16T09:28:25Z</time>
      </trkpt>
      <trkpt lat="44.9011" lon="5.77633">
        <ele>860.2</ele>
        <time>2022-07-16T09:28:26Z</time>
      </trkpt>
      <trkpt lat="44.9011" lon="5.7764">
        <ele>860.3</ele>
        <time>2022-07-16T09:28:27Z</time>
      </trkpt>
      <trkpt lat="44.9011" lon="5.77648">
        <ele>860.4</ele>
        <time>2022-07-16T09:28:28Z</time>
      </trkpt>
      <trkpt lat="44.9011" lon="5.77655">
        <ele>860.6</ele>
        <time>2022-07-16T09:28:29Z</time>
      </trkpt>
      <trkpt lat="44.9011" lon="5.77662">
        <ele>860.7</ele>
        <time>2022-07-16T09:28:30Z</time>
      </trkpt>
      <trkpt lat="44.90109" lon="5.77666">
        <ele>860.8</ele>
        <time>2022-07-16T09:28:31Z</time>
      </trkpt>
      <trkpt lat="44.90108" lon="5.77672">
        <ele>860.9</ele>
        <time>2022-07-16T09:28:32Z</time>
      </trkpt>
      <trkpt lat="44.90107" lon="5.77679">
        <ele>861.1</ele>
        <time>2022-07-16T09:28:33Z</time>
      </trkpt>
      <trkpt lat="44.90106" lon="5.77684">
        <ele>861.2</ele>
        <time>2022-07-16T09:28:34Z</time>
      </trkpt>
      <trkpt lat="44.90105" lon="5.77689">
        <ele>861.3</ele>
        <time>2022-07-16T09:28:35Z</time>
      </trkpt>
      <trkpt lat="44.90102" lon="5.77703">
        <ele>861.7</ele>
        <time>2022-07-16T09:28:36Z</time>
      </trkpt>
      <trkpt lat="44.901" lon="5.77707">
        <ele>861.8</ele>
        <time>2022-07-16T09:28:37Z</time>
      </trkpt>
      <trkpt lat="44.90098" lon="5.7771">
        <ele>861.9</ele>
        <time>2022-07-16T09:28:38Z</time>
      </trkpt>
      <trkpt lat="44.90096" lon="5.77718">
        <ele>862.1</ele>
        <time>2022-07-16T09:28:39Z</time>
      </trkpt>
      <trkpt lat="44.90092" lon="5.77728">
        <ele>862.4</ele>
        <time>2022-07-16T09:28:41Z</time>
      </trkpt>
      <trkpt lat="44.9009" lon="5.77735">
        <ele>862.6</ele>
        <time>2022-07-16T09:28:42Z</time>
      </trkpt>
      <trkpt lat="44.90088" lon="5.77743">
        <ele>862.8</ele>
        <time>2022-07-16T09:28:44Z</time>
      </trkpt>
      <trkpt lat="44.90086" lon="5.77747">
        <ele>862.9</ele>
        <time>2022-07-16T09:28:45Z</time>
      </trkpt>
      <trkpt lat="44.90081" lon="5.77757">
        <ele>863.2</ele>
        <time>2022-07-16T09:28:48Z</time>
      </trkpt>
      <trkpt lat="44.9008" lon="5.77761">
        <ele>863.4</ele>
        <time>2022-07-16T09:28:49Z</time>
      </trkpt>
      <trkpt lat="44.90076" lon="5.7777">
        <ele>863.7</ele>
        <time>2022-07-16T09:28:50Z</time>
      </trkpt>
      <trkpt lat="44.90074" lon="5.77772">
        <ele>863.7</ele>
        <time>2022-07-16T09:28:51Z</time>
      </trkpt>
      <trkpt lat="44.90072" lon="5.7778">
        <ele>864</ele>
        <time>2022-07-16T09:28:52Z</time>
      </trkpt>
      <trkpt lat="44.90069" lon="5.77787">
        <ele>864.2</ele>
        <time>2022-07-16T09:28:55Z</time>
      </trkpt>
      <trkpt lat="44.90067" lon="5.7779">
        <ele>864.3</ele>
        <time>2022-07-16T09:28:56Z</time>
      </trkpt>
      <trkpt lat="44.90063" lon="5.77797">
        <ele>864.5</ele>
        <time>2022-07-16T09:28:57Z</time>
      </trkpt>
      <trkpt lat="44.90059" lon="5.77804">
        <ele>864.7</ele>
        <time>2022-07-16T09:29:00Z</time>
      </trkpt>
      <trkpt lat="44.90056" lon="5.77809">
        <ele>864.9</ele>
        <time>2022-07-16T09:29:01Z</time>
      </trkpt>
      <trkpt lat="44.90051" lon="5.77819">
        <ele>865.2</ele>
        <time>2022-07-16T09:29:04Z</time>
      </trkpt>
      <trkpt lat="44.90049" lon="5.77823">
        <ele>865.3</ele>
        <time>2022-07-16T09:29:05Z</time>
      </trkpt>
      <trkpt lat="44.90046" lon="5.77829">
        <ele>865.5</ele>
        <time>2022-07-16T09:29:06Z</time>
      </trkpt>
      <trkpt lat="44.90044" lon="5.77834">
        <ele>865.7</ele>
        <time>2022-07-16T09:29:07Z</time>
      </trkpt>
      <trkpt lat="44.90041" lon="5.7784">
        <ele>865.9</ele>
        <time>2022-07-16T09:29:08Z</time>
      </trkpt>
      <trkpt lat="44.90037" lon="5.77846">
        <ele>866.1</ele>
        <time>2022-07-16T09:29:10Z</time>
      </trkpt>
      <trkpt lat="44.90034" lon="5.77849">
        <ele>866.2</ele>
        <time>2022-07-16T09:29:11Z</time>
      </trkpt>
      <trkpt lat="44.90032" lon="5.77854">
        <ele>866.3</ele>
        <time>2022-07-16T09:29:12Z</time>
      </trkpt>
      <trkpt lat="44.90026" lon="5.77866">
        <ele>866.7</ele>
        <time>2022-07-16T09:29:15Z</time>
      </trkpt>
      <trkpt lat="44.90023" lon="5.77872">
        <ele>866.9</ele>
        <time>2022-07-16T09:29:16Z</time>
      </trkpt>
      <trkpt lat="44.90021" lon="5.77878">
        <ele>867.1</ele>
        <time>2022-07-16T09:29:18Z</time>
      </trkpt>
      <trkpt lat="44.90018" lon="5.77884">
        <ele>867.3</ele>
        <time>2022-07-16T09:29:19Z</time>
      </trkpt>
      <trkpt lat="44.90013" lon="5.77894">
        <ele>867.6</ele>
        <time>2022-07-16T09:29:22Z</time>
      </trkpt>
      <trkpt lat="44.90011" lon="5.77898">
        <ele>867.8</ele>
        <time>2022-07-16T09:29:23Z</time>
      </trkpt>
      <trkpt lat="44.90009" lon="5.77903">
        <ele>867.9</ele>
        <time>2022-07-16T09:29:24Z</time>
      </trkpt>
      <trkpt lat="44.90003" lon="5.77919">
        <ele>868.5</ele>
        <time>2022-07-16T09:29:27Z</time>
      </trkpt>
      <trkpt lat="44.89999" lon="5.77931">
        <ele>868.8</ele>
        <time>2022-07-16T09:29:30Z</time>
      </trkpt>
      <trkpt lat="44.89996" lon="5.77937">
        <ele>869</ele>
        <time>2022-07-16T09:29:31Z</time>
      </trkpt>
      <trkpt lat="44.89991" lon="5.77948">
        <ele>869.2</ele>
        <time>2022-07-16T09:29:34Z</time>
      </trkpt>
      <trkpt lat="44.8999" lon="5.77952">
        <ele>869.2</ele>
        <time>2022-07-16T09:29:35Z</time>
      </trkpt>
      <trkpt lat="44.89988" lon="5.77956">
        <ele>869.3</ele>
        <time>2022-07-16T09:29:36Z</time>
      </trkpt>
      <trkpt lat="44.89985" lon="5.77964">
        <ele>869.4</ele>
        <time>2022-07-16T09:29:37Z</time>
      </trkpt>
      <trkpt lat="44.89981" lon="5.77978">
        <ele>869.3</ele>
        <time>2022-07-16T09:29:40Z</time>
      </trkpt>
      <trkpt lat="44.8998" lon="5.77988">
        <ele>869.2</ele>
        <time>2022-07-16T09:29:42Z</time>
      </trkpt>
      <trkpt lat="44.8998" lon="5.77996">
        <ele>869.1</ele>
        <time>2022-07-16T09:29:43Z</time>
      </trkpt>
      <trkpt lat="44.89982" lon="5.78">
        <ele>869</ele>
        <time>2022-07-16T09:29:44Z</time>
      </trkpt>
      <trkpt lat="44.89985" lon="5.78006">
        <ele>868.8</ele>
        <time>2022-07-16T09:29:45Z</time>
      </trkpt>
      <trkpt lat="44.89989" lon="5.78011">
        <ele>868.6</ele>
        <time>2022-07-16T09:29:46Z</time>
      </trkpt>
      <trkpt lat="44.89993" lon="5.78017">
        <ele>868.4</ele>
        <time>2022-07-16T09:29:47Z</time>
      </trkpt>
      <trkpt lat="44.89997" lon="5.78023">
        <ele>868.2</ele>
        <time>2022-07-16T09:29:48Z</time>
      </trkpt>
      <trkpt lat="44.90003" lon="5.78028">
        <ele>868</ele>
        <time>2022-07-16T09:29:49Z</time>
      </trkpt>
      <trkpt lat="44.90009" lon="5.78032">
        <ele>867.8</ele>
        <time>2022-07-16T09:29:50Z</time>
      </trkpt>
      <trkpt lat="44.90014" lon="5.78035">
        <ele>867.6</ele>
        <time>2022-07-16T09:29:51Z</time>
      </trkpt>
      <trkpt lat="44.9002" lon="5.78038">
        <ele>867.4</ele>
        <time>2022-07-16T09:29:52Z</time>
      </trkpt>
      <trkpt lat="44.90026" lon="5.78042">
        <ele>867.3</ele>
        <time>2022-07-16T09:29:53Z</time>
      </trkpt>
      <trkpt lat="44.90032" lon="5.78045">
        <ele>867.2</ele>
        <time>2022-07-16T09:29:54Z</time>
      </trkpt>
      <trkpt lat="44.90038" lon="5.7805">
        <ele>867.1</ele>
        <time>2022-07-16T09:29:55Z</time>
      </trkpt>
      <trkpt lat="44.90044" lon="5.78055">
        <ele>867</ele>
        <time>2022-07-16T09:29:56Z</time>
      </trkpt>
      <trkpt lat="44.90049" lon="5.78061">
        <ele>867</ele>
        <time>2022-07-16T09:29:57Z</time>
      </trkpt>
      <trkpt lat="44.90053" lon="5.78067">
        <ele>867</ele>
        <time>2022-07-16T09:29:58Z</time>
      </trkpt>
      <trkpt lat="44.90056" lon="5.78074">
        <ele>867</ele>
        <time>2022-07-16T09:29:59Z</time>
      </trkpt>
      <trkpt lat="44.90059" lon="5.7808">
        <ele>867</ele>
        <time>2022-07-16T09:30:00Z</time>
      </trkpt>
      <trkpt lat="44.90062" lon="5.78087">
        <ele>867</ele>
        <time>2022-07-16T09:30:01Z</time>
      </trkpt>
      <trkpt lat="44.90065" lon="5.78093">
        <ele>867</ele>
        <time>2022-07-16T09:30:02Z</time>
      </trkpt>
      <trkpt lat="44.90068" lon="5.78099">
        <ele>867</ele>
        <time>2022-07-16T09:30:03Z</time>
      </trkpt>
      <trkpt lat="44.9007" lon="5.78104">
        <ele>867.1</ele>
        <time>2022-07-16T09:30:04Z</time>
      </trkpt>
      <trkpt lat="44.90072" lon="5.78109">
        <ele>867.1</ele>
        <time>2022-07-16T09:30:05Z</time>
      </trkpt>
      <trkpt lat="44.90073" lon="5.78112">
        <ele>867.2</ele>
        <time>2022-07-16T09:30:06Z</time>
      </trkpt>
      <trkpt lat="44.90076" lon="5.78117">
        <ele>867.2</ele>
        <time>2022-07-16T09:30:07Z</time>
      </trkpt>
      <trkpt lat="44.90077" lon="5.78122">
        <ele>867.3</ele>
        <time>2022-07-16T09:30:08Z</time>
      </trkpt>
      <trkpt lat="44.90079" lon="5.78127">
        <ele>867.4</ele>
        <time>2022-07-16T09:30:09Z</time>
      </trkpt>
      <trkpt lat="44.90082" lon="5.78134">
        <ele>867.5</ele>
        <time>2022-07-16T09:30:10Z</time>
      </trkpt>
      <trkpt lat="44.90084" lon="5.78139">
        <ele>867.6</ele>
        <time>2022-07-16T09:30:11Z</time>
      </trkpt>
      <trkpt lat="44.90086" lon="5.78143">
        <ele>867.7</ele>
        <time>2022-07-16T09:30:12Z</time>
      </trkpt>
      <trkpt lat="44.9009" lon="5.7816">
        <ele>868.2</ele>
        <time>2022-07-16T09:30:15Z</time>
      </trkpt>
      <trkpt lat="44.9009" lon="5.78164">
        <ele>868.3</ele>
        <time>2022-07-16T09:30:16Z</time>
      </trkpt>
      <trkpt lat="44.90089" lon="5.78176">
        <ele>868.6</ele>
        <time>2022-07-16T09:30:18Z</time>
      </trkpt>
      <trkpt lat="44.90089" lon="5.78182">
        <ele>868.7</ele>
        <time>2022-07-16T09:30:19Z</time>
      </trkpt>
      <trkpt lat="44.90089" lon="5.78198">
        <ele>869.1</ele>
        <time>2022-07-16T09:30:22Z</time>
      </trkpt>
      <trkpt lat="44.90091" lon="5.78206">
        <ele>869.3</ele>
        <time>2022-07-16T09:30:23Z</time>
      </trkpt>
      <trkpt lat="44.90096" lon="5.78211">
        <ele>869.4</ele>
        <time>2022-07-16T09:30:24Z</time>
      </trkpt>
      <trkpt lat="44.90099" lon="5.78212">
        <ele>869.6</ele>
        <time>2022-07-16T09:30:25Z</time>
      </trkpt>
      <trkpt lat="44.90103" lon="5.78214">
        <ele>869.8</ele>
        <time>2022-07-16T09:30:27Z</time>
      </trkpt>
      <trkpt lat="44.9011" lon="5.78227">
        <ele>870.2</ele>
        <time>2022-07-16T09:30:30Z</time>
      </trkpt>
      <trkpt lat="44.90111" lon="5.78234">
        <ele>870.4</ele>
        <time>2022-07-16T09:30:31Z</time>
      </trkpt>
      <trkpt lat="44.90114" lon="5.78243">
        <ele>870.7</ele>
        <time>2022-07-16T09:30:33Z</time>
      </trkpt>
      <trkpt lat="44.90117" lon="5.7825">
        <ele>870.9</ele>
        <time>2022-07-16T09:30:34Z</time>
      </trkpt>
      <trkpt lat="44.90118" lon="5.78256">
        <ele>871</ele>
        <time>2022-07-16T09:30:36Z</time>
      </trkpt>
      <trkpt lat="44.9012" lon="5.78262">
        <ele>871.2</ele>
        <time>2022-07-16T09:30:37Z</time>
      </trkpt>
      <trkpt lat="44.9012" lon="5.78265">
        <ele>871.3</ele>
        <time>2022-07-16T09:30:38Z</time>
      </trkpt>
      <trkpt lat="44.90121" lon="5.78267">
        <ele>871.3</ele>
        <time>2022-07-16T09:30:39Z</time>
      </trkpt>
      <trkpt lat="44.90117" lon="5.78273">
        <ele>871.4</ele>
        <time>2022-07-16T09:30:41Z</time>
      </trkpt>
      <trkpt lat="44.90113" lon="5.78277">
        <ele>871.5</ele>
        <time>2022-07-16T09:30:42Z</time>
      </trkpt>
      <trkpt lat="44.90109" lon="5.78284">
        <ele>871.5</ele>
        <time>2022-07-16T09:30:44Z</time>
      </trkpt>
      <trkpt lat="44.90106" lon="5.78288">
        <ele>871.4</ele>
        <time>2022-07-16T09:30:46Z</time>
      </trkpt>
      <trkpt lat="44.90103" lon="5.78292">
        <ele>871.3</ele>
        <time>2022-07-16T09:30:47Z</time>
      </trkpt>
      <trkpt lat="44.901" lon="5.78295">
        <ele>871.3</ele>
        <time>2022-07-16T09:30:48Z</time>
      </trkpt>
      <trkpt lat="44.90098" lon="5.78302">
        <ele>871.1</ele>
        <time>2022-07-16T09:30:49Z</time>
      </trkpt>
      <trkpt lat="44.90094" lon="5.7831">
        <ele>871</ele>
        <time>2022-07-16T09:30:50Z</time>
      </trkpt>
      <trkpt lat="44.90091" lon="5.78317">
        <ele>870.8</ele>
        <time>2022-07-16T09:30:51Z</time>
      </trkpt>
      <trkpt lat="44.90087" lon="5.78322">
        <ele>870.7</ele>
        <time>2022-07-16T09:30:52Z</time>
      </trkpt>
      <trkpt lat="44.90084" lon="5.78327">
        <ele>870.6</ele>
        <time>2022-07-16T09:30:53Z</time>
      </trkpt>
      <trkpt lat="44.90081" lon="5.78332">
        <ele>870.5</ele>
        <time>2022-07-16T09:30:54Z</time>
      </trkpt>
      <trkpt lat="44.90078" lon="5.78338">
        <ele>870.4</ele>
        <time>2022-07-16T09:30:55Z</time>
      </trkpt>
      <trkpt lat="44.90074" lon="5.78344">
        <ele>870.3</ele>
        <time>2022-07-16T09:30:56Z</time>
      </trkpt>
      <trkpt lat="44.90071" lon="5.7835">
        <ele>870.3</ele>
        <time>2022-07-16T09:30:57Z</time>
      </trkpt>
      <trkpt lat="44.90067" lon="5.78356">
        <ele>870.2</ele>
        <time>2022-07-16T09:30:58Z</time>
      </trkpt>
      <trkpt lat="44.90064" lon="5.7836">
        <ele>870.2</ele>
        <time>2022-07-16T09:30:59Z</time>
      </trkpt>
      <trkpt lat="44.9006" lon="5.78366">
        <ele>870.1</ele>
        <time>2022-07-16T09:31:00Z</time>
      </trkpt>
      <trkpt lat="44.90057" lon="5.78372">
        <ele>870.1</ele>
        <time>2022-07-16T09:31:01Z</time>
      </trkpt>
      <trkpt lat="44.90054" lon="5.78378">
        <ele>870</ele>
        <time>2022-07-16T09:31:02Z</time>
      </trkpt>
      <trkpt lat="44.9005" lon="5.78385">
        <ele>870</ele>
        <time>2022-07-16T09:31:03Z</time>
      </trkpt>
      <trkpt lat="44.90047" lon="5.78391">
        <ele>870</ele>
        <time>2022-07-16T09:31:04Z</time>
      </trkpt>
      <trkpt lat="44.90044" lon="5.78397">
        <ele>870</ele>
        <time>2022-07-16T09:31:05Z</time>
      </trkpt>
      <trkpt lat="44.90041" lon="5.78402">
        <ele>870</ele>
        <time>2022-07-16T09:31:06Z</time>
      </trkpt>
      <trkpt lat="44.90037" lon="5.78408">
        <ele>870</ele>
        <time>2022-07-16T09:31:07Z</time>
      </trkpt>
      <trkpt lat="44.90033" lon="5.78414">
        <ele>870</ele>
        <time>2022-07-16T09:31:08Z</time>
      </trkpt>
      <trkpt lat="44.90029" lon="5.7842">
        <ele>870.1</ele>
        <time>2022-07-16T09:31:09Z</time>
      </trkpt>
      <trkpt lat="44.90026" lon="5.78426">
        <ele>870.1</ele>
        <time>2022-07-16T09:31:10Z</time>
      </trkpt>
      <trkpt lat="44.90024" lon="5.78431">
        <ele>870.2</ele>
        <time>2022-07-16T09:31:11Z</time>
      </trkpt>
      <trkpt lat="44.90021" lon="5.78436">
        <ele>870.2</ele>
        <time>2022-07-16T09:31:12Z</time>
      </trkpt>
      <trkpt lat="44.9002" lon="5.78442">
        <ele>870.3</ele>
        <time>2022-07-16T09:31:13Z</time>
      </trkpt>
      <trkpt lat="44.90021" lon="5.7845">
        <ele>870.3</ele>
        <time>2022-07-16T09:31:14Z</time>
      </trkpt>
      <trkpt lat="44.90024" lon="5.78456">
        <ele>870.4</ele>
        <time>2022-07-16T09:31:15Z</time>
      </trkpt>
      <trkpt lat="44.90027" lon="5.78462">
        <ele>870.4</ele>
        <time>2022-07-16T09:31:16Z</time>
      </trkpt>
      <trkpt lat="44.90031" lon="5.78466">
        <ele>870.4</ele>
        <time>2022-07-16T09:31:17Z</time>
      </trkpt>
      <trkpt lat="44.90036" lon="5.7847">
        <ele>870.5</ele>
        <time>2022-07-16T09:31:18Z</time>
      </trkpt>
      <trkpt lat="44.90041" lon="5.78471">
        <ele>870.6</ele>
        <time>2022-07-16T09:31:19Z</time>
      </trkpt>
      <trkpt lat="44.90045" lon="5.78474">
        <ele>870.7</ele>
        <time>2022-07-16T09:31:20Z</time>
      </trkpt>
      <trkpt lat="44.9005" lon="5.78477">
        <ele>870.8</ele>
        <time>2022-07-16T09:31:21Z</time>
      </trkpt>
      <trkpt lat="44.90054" lon="5.78479">
        <ele>870.9</ele>
        <time>2022-07-16T09:31:22Z</time>
      </trkpt>
      <trkpt lat="44.90059" lon="5.78482">
        <ele>870.9</ele>
        <time>2022-07-16T09:31:23Z</time>
      </trkpt>
      <trkpt lat="44.90063" lon="5.78484">
        <ele>871</ele>
        <time>2022-07-16T09:31:24Z</time>
      </trkpt>
      <trkpt lat="44.90067" lon="5.78487">
        <ele>871.1</ele>
        <time>2022-07-16T09:31:25Z</time>
      </trkpt>
      <trkpt lat="44.90071" lon="5.78489">
        <ele>871.2</ele>
        <time>2022-07-16T09:31:26Z</time>
      </trkpt>
      <trkpt lat="44.90076" lon="5.78492">
        <ele>871.4</ele>
        <time>2022-07-16T09:31:27Z</time>
      </trkpt>
      <trkpt lat="44.90082" lon="5.78494">
        <ele>871.5</ele>
        <time>2022-07-16T09:31:28Z</time>
      </trkpt>
      <trkpt lat="44.90087" lon="5.78496">
        <ele>871.6</ele>
        <time>2022-07-16T09:31:29Z</time>
      </trkpt>
      <trkpt lat="44.90092" lon="5.78498">
        <ele>871.6</ele>
        <time>2022-07-16T09:31:30Z</time>
      </trkpt>
      <trkpt lat="44.90096" lon="5.785">
        <ele>871.7</ele>
        <time>2022-07-16T09:31:31Z</time>
      </trkpt>
      <trkpt lat="44.901" lon="5.78503">
        <ele>871.7</ele>
        <time>2022-07-16T09:31:32Z</time>
      </trkpt>
      <trkpt lat="44.90104" lon="5.78506">
        <ele>871.7</ele>
        <time>2022-07-16T09:31:33Z</time>
      </trkpt>
      <trkpt lat="44.90109" lon="5.78508">
        <ele>871.8</ele>
        <time>2022-07-16T09:31:34Z</time>
      </trkpt>
      <trkpt lat="44.90113" lon="5.7851">
        <ele>871.8</ele>
        <time>2022-07-16T09:31:35Z</time>
      </trkpt>
      <trkpt lat="44.90117" lon="5.78513">
        <ele>871.8</ele>
        <time>2022-07-16T09:31:36Z</time>
      </trkpt>
      <trkpt lat="44.9012" lon="5.78515">
        <ele>871.9</ele>
        <time>2022-07-16T09:31:37Z</time>
      </trkpt>
      <trkpt lat="44.90125" lon="5.78518">
        <ele>871.9</ele>
        <time>2022-07-16T09:31:38Z</time>
      </trkpt>
      <trkpt lat="44.90129" lon="5.7852">
        <ele>871.9</ele>
        <time>2022-07-16T09:31:39Z</time>
      </trkpt>
      <trkpt lat="44.90134" lon="5.78522">
        <ele>871.9</ele>
        <time>2022-07-16T09:31:40Z</time>
      </trkpt>
      <trkpt lat="44.90138" lon="5.78524">
        <ele>871.9</ele>
        <time>2022-07-16T09:31:41Z</time>
      </trkpt>
      <trkpt lat="44.90143" lon="5.78526">
        <ele>871.9</ele>
        <time>2022-07-16T09:31:42Z</time>
      </trkpt>
      <trkpt lat="44.90149" lon="5.78528">
        <ele>871.9</ele>
        <time>2022-07-16T09:31:43Z</time>
      </trkpt>
      <trkpt lat="44.90154" lon="5.78531">
        <ele>871.9</ele>
        <time>2022-07-16T09:31:44Z</time>
      </trkpt>
      <trkpt lat="44.90159" lon="5.78533">
        <ele>871.9</ele>
        <time>2022-07-16T09:31:45Z</time>
      </trkpt>
      <trkpt lat="44.90163" lon="5.78537">
        <ele>871.9</ele>
        <time>2022-07-16T09:31:46Z</time>
      </trkpt>
      <trkpt lat="44.90167" lon="5.7854">
        <ele>871.9</ele>
        <time>2022-07-16T09:31:47Z</time>
      </trkpt>
      <trkpt lat="44.90172" lon="5.78543">
        <ele>871.9</ele>
        <time>2022-07-16T09:31:48Z</time>
      </trkpt>
      <trkpt lat="44.90176" lon="5.78546">
        <ele>871.8</ele>
        <time>2022-07-16T09:31:49Z</time>
      </trkpt>
      <trkpt lat="44.90181" lon="5.78549">
        <ele>871.8</ele>
        <time>2022-07-16T09:31:50Z</time>
      </trkpt>
      <trkpt lat="44.90185" lon="5.78551">
        <ele>871.8</ele>
        <time>2022-07-16T09:31:51Z</time>
      </trkpt>
      <trkpt lat="44.90191" lon="5.78554">
        <ele>871.7</ele>
        <time>2022-07-16T09:31:52Z</time>
      </trkpt>
      <trkpt lat="44.90195" lon="5.78556">
        <ele>871.7</ele>
        <time>2022-07-16T09:31:53Z</time>
      </trkpt>
      <trkpt lat="44.902" lon="5.78559">
        <ele>871.7</ele>
        <time>2022-07-16T09:31:54Z</time>
      </trkpt>
      <trkpt lat="44.90205" lon="5.78561">
        <ele>871.7</ele>
        <time>2022-07-16T09:31:55Z</time>
      </trkpt>
      <trkpt lat="44.90211" lon="5.78564">
        <ele>871.6</ele>
        <time>2022-07-16T09:31:56Z</time>
      </trkpt>
      <trkpt lat="44.90216" lon="5.78567">
        <ele>871.6</ele>
        <time>2022-07-16T09:31:57Z</time>
      </trkpt>
      <trkpt lat="44.90221" lon="5.78569">
        <ele>871.5</ele>
        <time>2022-07-16T09:31:58Z</time>
      </trkpt>
      <trkpt lat="44.90227" lon="5.78572">
        <ele>871.5</ele>
        <time>2022-07-16T09:31:59Z</time>
      </trkpt>
      <trkpt lat="44.90233" lon="5.78575">
        <ele>871.4</ele>
        <time>2022-07-16T09:32:00Z</time>
      </trkpt>
      <trkpt lat="44.90238" lon="5.78577">
        <ele>871.4</ele>
        <time>2022-07-16T09:32:01Z</time>
      </trkpt>
      <trkpt lat="44.90244" lon="5.78579">
        <ele>871.3</ele>
        <time>2022-07-16T09:32:02Z</time>
      </trkpt>
      <trkpt lat="44.90248" lon="5.7858">
        <ele>871.2</ele>
        <time>2022-07-16T09:32:03Z</time>
      </trkpt>
      <trkpt lat="44.90252" lon="5.78583">
        <ele>871.2</ele>
        <time>2022-07-16T09:32:04Z</time>
      </trkpt>
      <trkpt lat="44.90256" lon="5.78586">
        <ele>871.1</ele>
        <time>2022-07-16T09:32:05Z</time>
      </trkpt>
      <trkpt lat="44.9026" lon="5.78588">
        <ele>871.1</ele>
        <time>2022-07-16T09:32:06Z</time>
      </trkpt>
      <trkpt lat="44.90264" lon="5.78591">
        <ele>871.1</ele>
        <time>2022-07-16T09:32:07Z</time>
      </trkpt>
      <trkpt lat="44.90269" lon="5.78593">
        <ele>871.1</ele>
        <time>2022-07-16T09:32:08Z</time>
      </trkpt>
      <trkpt lat="44.90274" lon="5.78597">
        <ele>871</ele>
        <time>2022-07-16T09:32:09Z</time>
      </trkpt>
      <trkpt lat="44.90279" lon="5.786">
        <ele>871</ele>
        <time>2022-07-16T09:32:10Z</time>
      </trkpt>
      <trkpt lat="44.90284" lon="5.78605">
        <ele>870.8</ele>
        <time>2022-07-16T09:32:11Z</time>
      </trkpt>
      <trkpt lat="44.90289" lon="5.7861">
        <ele>870.6</ele>
        <time>2022-07-16T09:32:12Z</time>
      </trkpt>
      <trkpt lat="44.90294" lon="5.78613">
        <ele>870.6</ele>
        <time>2022-07-16T09:32:13Z</time>
      </trkpt>
      <trkpt lat="44.90299" lon="5.78614">
        <ele>870.7</ele>
        <time>2022-07-16T09:32:14Z</time>
      </trkpt>
      <trkpt lat="44.90303" lon="5.78615">
        <ele>870.8</ele>
        <time>2022-07-16T09:32:15Z</time>
      </trkpt>
      <trkpt lat="44.90308" lon="5.78615">
        <ele>870.9</ele>
        <time>2022-07-16T09:32:16Z</time>
      </trkpt>
      <trkpt lat="44.9031" lon="5.78616">
        <ele>870.9</ele>
        <time>2022-07-16T09:32:17Z</time>
      </trkpt>
      <trkpt lat="44.90316" lon="5.78619">
        <ele>870.9</ele>
        <time>2022-07-16T09:32:18Z</time>
      </trkpt>
      <trkpt lat="44.9032" lon="5.78623">
        <ele>871</ele>
        <time>2022-07-16T09:32:19Z</time>
      </trkpt>
      <trkpt lat="44.90325" lon="5.78625">
        <ele>871</ele>
        <time>2022-07-16T09:32:20Z</time>
      </trkpt>
      <trkpt lat="44.90329" lon="5.78628">
        <ele>871</ele>
        <time>2022-07-16T09:32:21Z</time>
      </trkpt>
      <trkpt lat="44.90334" lon="5.78631">
        <ele>871</ele>
        <time>2022-07-16T09:32:22Z</time>
      </trkpt>
      <trkpt lat="44.90338" lon="5.78634">
        <ele>871.1</ele>
        <time>2022-07-16T09:32:23Z</time>
      </trkpt>
      <trkpt lat="44.90342" lon="5.78636">
        <ele>871.1</ele>
        <time>2022-07-16T09:32:24Z</time>
      </trkpt>
      <trkpt lat="44.90351" lon="5.78641">
        <ele>871.2</ele>
        <time>2022-07-16T09:32:25Z</time>
      </trkpt>
      <trkpt lat="44.90355" lon="5.78643">
        <ele>871.2</ele>
        <time>2022-07-16T09:32:27Z</time>
      </trkpt>
      <trkpt lat="44.90369" lon="5.78652">
        <ele>871.4</ele>
        <time>2022-07-16T09:32:30Z</time>
      </trkpt>
      <trkpt lat="44.90373" lon="5.78655">
        <ele>871.4</ele>
        <time>2022-07-16T09:32:31Z</time>
      </trkpt>
      <trkpt lat="44.90378" lon="5.78657">
        <ele>871.5</ele>
        <time>2022-07-16T09:32:32Z</time>
      </trkpt>
      <trkpt lat="44.90382" lon="5.7866">
        <ele>871.5</ele>
        <time>2022-07-16T09:32:33Z</time>
      </trkpt>
      <trkpt lat="44.90387" lon="5.78662">
        <ele>871.6</ele>
        <time>2022-07-16T09:32:34Z</time>
      </trkpt>
      <trkpt lat="44.90391" lon="5.78662">
        <ele>871.6</ele>
        <time>2022-07-16T09:32:35Z</time>
      </trkpt>
      <trkpt lat="44.90396" lon="5.78663">
        <ele>871.7</ele>
        <time>2022-07-16T09:32:36Z</time>
      </trkpt>
      <trkpt lat="44.904" lon="5.78666">
        <ele>871.7</ele>
        <time>2022-07-16T09:32:37Z</time>
      </trkpt>
      <trkpt lat="44.90405" lon="5.78668">
        <ele>871.8</ele>
        <time>2022-07-16T09:32:38Z</time>
      </trkpt>
      <trkpt lat="44.90412" lon="5.78672">
        <ele>871.8</ele>
        <time>2022-07-16T09:32:39Z</time>
      </trkpt>
      <trkpt lat="44.90416" lon="5.78676">
        <ele>871.8</ele>
        <time>2022-07-16T09:32:40Z</time>
      </trkpt>
      <trkpt lat="44.90421" lon="5.78679">
        <ele>871.9</ele>
        <time>2022-07-16T09:32:41Z</time>
      </trkpt>
      <trkpt lat="44.90425" lon="5.78681">
        <ele>871.9</ele>
        <time>2022-07-16T09:32:42Z</time>
      </trkpt>
      <trkpt lat="44.9043" lon="5.78683">
        <ele>872</ele>
        <time>2022-07-16T09:32:43Z</time>
      </trkpt>
      <trkpt lat="44.90435" lon="5.78685">
        <ele>872</ele>
        <time>2022-07-16T09:32:44Z</time>
      </trkpt>
      <trkpt lat="44.90439" lon="5.78687">
        <ele>872.1</ele>
        <time>2022-07-16T09:32:45Z</time>
      </trkpt>
      <trkpt lat="44.90442" lon="5.78687">
        <ele>872.1</ele>
        <time>2022-07-16T09:32:46Z</time>
      </trkpt>
      <trkpt lat="44.90446" lon="5.78689">
        <ele>872.1</ele>
        <time>2022-07-16T09:32:47Z</time>
      </trkpt>
      <trkpt lat="44.9045" lon="5.78691">
        <ele>872.1</ele>
        <time>2022-07-16T09:32:48Z</time>
      </trkpt>
      <trkpt lat="44.90455" lon="5.78693">
        <ele>872.2</ele>
        <time>2022-07-16T09:32:49Z</time>
      </trkpt>
      <trkpt lat="44.90459" lon="5.78696">
        <ele>872.2</ele>
        <time>2022-07-16T09:32:50Z</time>
      </trkpt>
      <trkpt lat="44.90464" lon="5.78699">
        <ele>872.2</ele>
        <time>2022-07-16T09:32:51Z</time>
      </trkpt>
      <trkpt lat="44.90469" lon="5.78702">
        <ele>872.3</ele>
        <time>2022-07-16T09:32:52Z</time>
      </trkpt>
      <trkpt lat="44.90474" lon="5.78704">
        <ele>872.3</ele>
        <time>2022-07-16T09:32:53Z</time>
      </trkpt>
      <trkpt lat="44.90479" lon="5.78706">
        <ele>872.4</ele>
        <time>2022-07-16T09:32:54Z</time>
      </trkpt>
      <trkpt lat="44.90484" lon="5.78707">
        <ele>872.4</ele>
        <time>2022-07-16T09:32:55Z</time>
      </trkpt>
      <trkpt lat="44.9049" lon="5.7871">
        <ele>872.5</ele>
        <time>2022-07-16T09:32:56Z</time>
      </trkpt>
      <trkpt lat="44.90494" lon="5.78712">
        <ele>872.5</ele>
        <time>2022-07-16T09:32:57Z</time>
      </trkpt>
      <trkpt lat="44.90499" lon="5.78715">
        <ele>872.5</ele>
        <time>2022-07-16T09:32:58Z</time>
      </trkpt>
      <trkpt lat="44.90504" lon="5.78717">
        <ele>872.6</ele>
        <time>2022-07-16T09:32:59Z</time>
      </trkpt>
      <trkpt lat="44.90509" lon="5.78719">
        <ele>872.6</ele>
        <time>2022-07-16T09:33:00Z</time>
      </trkpt>
      <trkpt lat="44.90513" lon="5.78721">
        <ele>872.7</ele>
        <time>2022-07-16T09:33:01Z</time>
      </trkpt>
      <trkpt lat="44.90516" lon="5.78722">
        <ele>872.7</ele>
        <time>2022-07-16T09:33:02Z</time>
      </trkpt>
      <trkpt lat="44.90519" lon="5.78723">
        <ele>872.7</ele>
        <time>2022-07-16T09:33:03Z</time>
      </trkpt>
      <trkpt lat="44.90521" lon="5.78724">
        <ele>872.7</ele>
        <time>2022-07-16T09:33:04Z</time>
      </trkpt>
      <trkpt lat="44.90522" lon="5.78725">
        <ele>872.7</ele>
        <time>2022-07-16T09:33:05Z</time>
      </trkpt>
      <trkpt lat="44.90523" lon="5.78726">
        <ele>872.7</ele>
        <time>2022-07-16T09:33:06Z</time>
      </trkpt>
      <trkpt lat="44.90524" lon="5.78727">
        <ele>872.7</ele>
        <time>2022-07-16T09:33:07Z</time>
      </trkpt>
      <trkpt lat="44.90524" lon="5.78725">
        <ele>872.7</ele>
        <time>2022-07-16T09:33:08Z</time>
      </trkpt>
      <trkpt lat="44.90525" lon="5.78725">
        <ele>872.7</ele>
        <time>2022-07-16T09:33:09Z</time>
      </trkpt>
      <trkpt lat="44.90523" lon="5.78725">
        <ele>872.7</ele>
        <time>2022-07-16T09:33:10Z</time>
      </trkpt>
      <trkpt lat="44.90525" lon="5.78726">
        <ele>872.7</ele>
        <time>2022-07-16T09:33:12Z</time>
      </trkpt>
      <trkpt lat="44.90529" lon="5.78728">
        <ele>872.7</ele>
        <time>2022-07-16T09:33:14Z</time>
      </trkpt>
      <trkpt lat="44.90531" lon="5.78728">
        <ele>872.7</ele>
        <time>2022-07-16T09:33:15Z</time>
      </trkpt>
      <trkpt lat="44.90533" lon="5.7873">
        <ele>872.7</ele>
        <time>2022-07-16T09:33:18Z</time>
      </trkpt>
      <trkpt lat="44.90534" lon="5.7873">
        <ele>872.7</ele>
        <time>2022-07-16T09:33:19Z</time>
      </trkpt>
      <trkpt lat="44.90534" lon="5.7873">
        <ele>872.7</ele>
        <time>2022-07-16T09:33:20Z</time>
      </trkpt>
      <trkpt lat="44.90534" lon="5.7873">
        <ele>872.7</ele>
        <time>2022-07-16T09:33:21Z</time>
      </trkpt>
      <trkpt lat="44.90534" lon="5.7873">
        <ele>872.7</ele>
        <time>2022-07-16T09:33:22Z</time>
      </trkpt>
      <trkpt lat="44.90534" lon="5.78731">
        <ele>872.7</ele>
        <time>2022-07-16T09:33:23Z</time>
      </trkpt>
      <trkpt lat="44.90535" lon="5.78731">
        <ele>872.7</ele>
        <time>2022-07-16T09:33:24Z</time>
      </trkpt>
      <trkpt lat="44.90537" lon="5.78731">
        <ele>872.7</ele>
        <time>2022-07-16T09:33:25Z</time>
      </trkpt>
      <trkpt lat="44.90537" lon="5.78731">
        <ele>872.7</ele>
        <time>2022-07-16T09:33:25Z</time>
      </trkpt>
      <trkpt lat="44.90541" lon="5.78732">
        <ele>872.7</ele>
        <time>2022-07-16T09:33:27Z</time>
      </trkpt>
      <trkpt lat="44.90544" lon="5.78738">
        <ele>872.7</ele>
        <time>2022-07-16T09:33:28Z</time>
      </trkpt>
      <trkpt lat="44.90546" lon="5.78741">
        <ele>872.7</ele>
        <time>2022-07-16T09:33:29Z</time>
      </trkpt>
      <trkpt lat="44.90549" lon="5.78745">
        <ele>872.7</ele>
        <time>2022-07-16T09:33:30Z</time>
      </trkpt>
      <trkpt lat="44.90551" lon="5.78743">
        <ele>872.7</ele>
        <time>2022-07-16T09:33:33Z</time>
      </trkpt>
      <trkpt lat="44.90553" lon="5.78744">
        <ele>872.7</ele>
        <time>2022-07-16T09:33:34Z</time>
      </trkpt>
      <trkpt lat="44.90555" lon="5.78745">
        <ele>872.7</ele>
        <time>2022-07-16T09:33:36Z</time>
      </trkpt>
      <trkpt lat="44.90556" lon="5.78746">
        <ele>872.8</ele>
        <time>2022-07-16T09:33:37Z</time>
      </trkpt>
      <trkpt lat="44.90558" lon="5.78747">
        <ele>872.8</ele>
        <time>2022-07-16T09:33:38Z</time>
      </trkpt>
      <trkpt lat="44.90562" lon="5.7875">
        <ele>872.8</ele>
        <time>2022-07-16T09:33:39Z</time>
      </trkpt>
      <trkpt lat="44.90567" lon="5.78754">
        <ele>872.9</ele>
        <time>2022-07-16T09:33:41Z</time>
      </trkpt>
      <trkpt lat="44.90571" lon="5.78753">
        <ele>873</ele>
        <time>2022-07-16T09:33:42Z</time>
      </trkpt>
      <trkpt lat="44.90575" lon="5.78753">
        <ele>873</ele>
        <time>2022-07-16T09:33:43Z</time>
      </trkpt>
      <trkpt lat="44.90578" lon="5.78755">
        <ele>873</ele>
        <time>2022-07-16T09:33:44Z</time>
      </trkpt>
      <trkpt lat="44.90581" lon="5.78758">
        <ele>873.1</ele>
        <time>2022-07-16T09:33:45Z</time>
      </trkpt>
      <trkpt lat="44.90582" lon="5.78758">
        <ele>873.1</ele>
        <time>2022-07-16T09:33:46Z</time>
      </trkpt>
      <trkpt lat="44.90589" lon="5.78761">
        <ele>873.1</ele>
        <time>2022-07-16T09:33:48Z</time>
      </trkpt>
      <trkpt lat="44.90595" lon="5.78763">
        <ele>873.2</ele>
        <time>2022-07-16T09:33:50Z</time>
      </trkpt>
      <trkpt lat="44.90599" lon="5.78765">
        <ele>873.3</ele>
        <time>2022-07-16T09:33:51Z</time>
      </trkpt>
      <trkpt lat="44.90605" lon="5.78768">
        <ele>873.3</ele>
        <time>2022-07-16T09:33:53Z</time>
      </trkpt>
      <trkpt lat="44.90611" lon="5.7877">
        <ele>873.4</ele>
        <time>2022-07-16T09:33:55Z</time>
      </trkpt>
      <trkpt lat="44.90615" lon="5.78771">
        <ele>873.5</ele>
        <time>2022-07-16T09:33:56Z</time>
      </trkpt>
      <trkpt lat="44.9062" lon="5.78772">
        <ele>873.6</ele>
        <time>2022-07-16T09:33:57Z</time>
      </trkpt>
      <trkpt lat="44.90624" lon="5.78773">
        <ele>873.6</ele>
        <time>2022-07-16T09:33:58Z</time>
      </trkpt>
      <trkpt lat="44.90629" lon="5.78775">
        <ele>873.7</ele>
        <time>2022-07-16T09:33:59Z</time>
      </trkpt>
      <trkpt lat="44.90641" lon="5.78771">
        <ele>874.2</ele>
        <time>2022-07-16T09:34:02Z</time>
      </trkpt>
      <trkpt lat="44.90645" lon="5.7877">
        <ele>874.1</ele>
        <time>2022-07-16T09:34:03Z</time>
      </trkpt>
      <trkpt lat="44.90648" lon="5.7877">
        <ele>874.1</ele>
        <time>2022-07-16T09:34:04Z</time>
      </trkpt>
      <trkpt lat="44.90647" lon="5.78773">
        <ele>874.1</ele>
        <time>2022-07-16T09:34:05Z</time>
      </trkpt>
      <trkpt lat="44.90645" lon="5.78789">
        <ele>874</ele>
        <time>2022-07-16T09:34:07Z</time>
      </trkpt>
      <trkpt lat="44.9065" lon="5.78798">
        <ele>874</ele>
        <time>2022-07-16T09:34:08Z</time>
      </trkpt>
      <trkpt lat="44.90658" lon="5.78816">
        <ele>874</ele>
        <time>2022-07-16T09:34:09Z</time>
      </trkpt>
      <trkpt lat="44.9066" lon="5.78832">
        <ele>874</ele>
        <time>2022-07-16T09:34:11Z</time>
      </trkpt>
      <trkpt lat="44.90665" lon="5.78841">
        <ele>873.9</ele>
        <time>2022-07-16T09:34:14Z</time>
      </trkpt>
      <trkpt lat="44.90668" lon="5.78848">
        <ele>873.9</ele>
        <time>2022-07-16T09:34:15Z</time>
      </trkpt>
      <trkpt lat="44.90671" lon="5.78855">
        <ele>873.9</ele>
        <time>2022-07-16T09:34:16Z</time>
      </trkpt>
      <trkpt lat="44.90674" lon="5.78861">
        <ele>873.9</ele>
        <time>2022-07-16T09:34:17Z</time>
      </trkpt>
      <trkpt lat="44.90677" lon="5.78867">
        <ele>873.9</ele>
        <time>2022-07-16T09:34:18Z</time>
      </trkpt>
      <trkpt lat="44.9068" lon="5.78873">
        <ele>873.9</ele>
        <time>2022-07-16T09:34:19Z</time>
      </trkpt>
      <trkpt lat="44.90684" lon="5.78879">
        <ele>873.9</ele>
        <time>2022-07-16T09:34:20Z</time>
      </trkpt>
      <trkpt lat="44.90688" lon="5.78885">
        <ele>873.9</ele>
        <time>2022-07-16T09:34:21Z</time>
      </trkpt>
      <trkpt lat="44.90692" lon="5.78891">
        <ele>873.9</ele>
        <time>2022-07-16T09:34:22Z</time>
      </trkpt>
      <trkpt lat="44.90696" lon="5.78896">
        <ele>873.9</ele>
        <time>2022-07-16T09:34:23Z</time>
      </trkpt>
      <trkpt lat="44.90699" lon="5.78901">
        <ele>873.9</ele>
        <time>2022-07-16T09:34:24Z</time>
      </trkpt>
      <trkpt lat="44.90703" lon="5.78906">
        <ele>874</ele>
        <time>2022-07-16T09:34:25Z</time>
      </trkpt>
      <trkpt lat="44.90707" lon="5.78911">
        <ele>874</ele>
        <time>2022-07-16T09:34:26Z</time>
      </trkpt>
      <trkpt lat="44.90711" lon="5.78916">
        <ele>874</ele>
        <time>2022-07-16T09:34:27Z</time>
      </trkpt>
      <trkpt lat="44.90714" lon="5.78921">
        <ele>874</ele>
        <time>2022-07-16T09:34:28Z</time>
      </trkpt>
      <trkpt lat="44.90717" lon="5.78926">
        <ele>874.1</ele>
        <time>2022-07-16T09:34:29Z</time>
      </trkpt>
      <trkpt lat="44.9072" lon="5.78931">
        <ele>874.1</ele>
        <time>2022-07-16T09:34:30Z</time>
      </trkpt>
      <trkpt lat="44.90724" lon="5.78936">
        <ele>874.1</ele>
        <time>2022-07-16T09:34:31Z</time>
      </trkpt>
      <trkpt lat="44.90728" lon="5.7894">
        <ele>874.1</ele>
        <time>2022-07-16T09:34:32Z</time>
      </trkpt>
      <trkpt lat="44.90731" lon="5.78945">
        <ele>874.2</ele>
        <time>2022-07-16T09:34:33Z</time>
      </trkpt>
      <trkpt lat="44.90734" lon="5.7895">
        <ele>874.2</ele>
        <time>2022-07-16T09:34:34Z</time>
      </trkpt>
      <trkpt lat="44.90738" lon="5.78955">
        <ele>874.2</ele>
        <time>2022-07-16T09:34:35Z</time>
      </trkpt>
      <trkpt lat="44.90741" lon="5.7896">
        <ele>874.2</ele>
        <time>2022-07-16T09:34:36Z</time>
      </trkpt>
      <trkpt lat="44.90744" lon="5.78965">
        <ele>874.2</ele>
        <time>2022-07-16T09:34:37Z</time>
      </trkpt>
      <trkpt lat="44.90747" lon="5.78971">
        <ele>874.2</ele>
        <time>2022-07-16T09:34:38Z</time>
      </trkpt>
      <trkpt lat="44.90749" lon="5.78976">
        <ele>874.2</ele>
        <time>2022-07-16T09:34:39Z</time>
      </trkpt>
      <trkpt lat="44.90752" lon="5.78981">
        <ele>874.2</ele>
        <time>2022-07-16T09:34:40Z</time>
      </trkpt>
      <trkpt lat="44.90756" lon="5.78986">
        <ele>874.2</ele>
        <time>2022-07-16T09:34:41Z</time>
      </trkpt>
      <trkpt lat="44.90759" lon="5.78991">
        <ele>874.2</ele>
        <time>2022-07-16T09:34:42Z</time>
      </trkpt>
      <trkpt lat="44.90763" lon="5.78995">
        <ele>874.2</ele>
        <time>2022-07-16T09:34:43Z</time>
      </trkpt>
      <trkpt lat="44.90766" lon="5.79">
        <ele>874.2</ele>
        <time>2022-07-16T09:34:44Z</time>
      </trkpt>
      <trkpt lat="44.90769" lon="5.79004">
        <ele>874.2</ele>
        <time>2022-07-16T09:34:45Z</time>
      </trkpt>
      <trkpt lat="44.90772" lon="5.7901">
        <ele>874.3</ele>
        <time>2022-07-16T09:34:46Z</time>
      </trkpt>
      <trkpt lat="44.90776" lon="5.79014">
        <ele>874.3</ele>
        <time>2022-07-16T09:34:47Z</time>
      </trkpt>
      <trkpt lat="44.90778" lon="5.7902">
        <ele>874.2</ele>
        <time>2022-07-16T09:34:48Z</time>
      </trkpt>
      <trkpt lat="44.90781" lon="5.79025">
        <ele>874.2</ele>
        <time>2022-07-16T09:34:49Z</time>
      </trkpt>
      <trkpt lat="44.90783" lon="5.79029">
        <ele>874.2</ele>
        <time>2022-07-16T09:34:50Z</time>
      </trkpt>
      <trkpt lat="44.90786" lon="5.79034">
        <ele>874.2</ele>
        <time>2022-07-16T09:34:51Z</time>
      </trkpt>
      <trkpt lat="44.9079" lon="5.79041">
        <ele>874.2</ele>
        <time>2022-07-16T09:34:52Z</time>
      </trkpt>
      <trkpt lat="44.90792" lon="5.79044">
        <ele>874.2</ele>
        <time>2022-07-16T09:34:53Z</time>
      </trkpt>
      <trkpt lat="44.90795" lon="5.7905">
        <ele>874.2</ele>
        <time>2022-07-16T09:34:54Z</time>
      </trkpt>
      <trkpt lat="44.90799" lon="5.79055">
        <ele>874.2</ele>
        <time>2022-07-16T09:34:55Z</time>
      </trkpt>
      <trkpt lat="44.90802" lon="5.7906">
        <ele>874.2</ele>
        <time>2022-07-16T09:34:56Z</time>
      </trkpt>
      <trkpt lat="44.90805" lon="5.79064">
        <ele>874.2</ele>
        <time>2022-07-16T09:34:57Z</time>
      </trkpt>
      <trkpt lat="44.90809" lon="5.7907">
        <ele>874.2</ele>
        <time>2022-07-16T09:34:58Z</time>
      </trkpt>
      <trkpt lat="44.90812" lon="5.79075">
        <ele>874.2</ele>
        <time>2022-07-16T09:34:59Z</time>
      </trkpt>
      <trkpt lat="44.90816" lon="5.7908">
        <ele>874.2</ele>
        <time>2022-07-16T09:35:00Z</time>
      </trkpt>
      <trkpt lat="44.90819" lon="5.79085">
        <ele>874.1</ele>
        <time>2022-07-16T09:35:01Z</time>
      </trkpt>
      <trkpt lat="44.90823" lon="5.79091">
        <ele>874.1</ele>
        <time>2022-07-16T09:35:02Z</time>
      </trkpt>
      <trkpt lat="44.90827" lon="5.79097">
        <ele>874.1</ele>
        <time>2022-07-16T09:35:03Z</time>
      </trkpt>
      <trkpt lat="44.90831" lon="5.79103">
        <ele>874</ele>
        <time>2022-07-16T09:35:04Z</time>
      </trkpt>
      <trkpt lat="44.90835" lon="5.79108">
        <ele>874</ele>
        <time>2022-07-16T09:35:05Z</time>
      </trkpt>
      <trkpt lat="44.90838" lon="5.79112">
        <ele>874</ele>
        <time>2022-07-16T09:35:06Z</time>
      </trkpt>
      <trkpt lat="44.9084" lon="5.79115">
        <ele>874</ele>
        <time>2022-07-16T09:35:07Z</time>
      </trkpt>
      <trkpt lat="44.90842" lon="5.79118">
        <ele>874</ele>
        <time>2022-07-16T09:35:08Z</time>
      </trkpt>
      <trkpt lat="44.90848" lon="5.79127">
        <ele>873.9</ele>
        <time>2022-07-16T09:35:09Z</time>
      </trkpt>
      <trkpt lat="44.90853" lon="5.79135">
        <ele>873.9</ele>
        <time>2022-07-16T09:35:10Z</time>
      </trkpt>
      <trkpt lat="44.90858" lon="5.79142">
        <ele>873.8</ele>
        <time>2022-07-16T09:35:11Z</time>
      </trkpt>
      <trkpt lat="44.90862" lon="5.79148">
        <ele>873.7</ele>
        <time>2022-07-16T09:35:12Z</time>
      </trkpt>
      <trkpt lat="44.90867" lon="5.79154">
        <ele>873.7</ele>
        <time>2022-07-16T09:35:13Z</time>
      </trkpt>
      <trkpt lat="44.90871" lon="5.7916">
        <ele>873.6</ele>
        <time>2022-07-16T09:35:14Z</time>
      </trkpt>
      <trkpt lat="44.90876" lon="5.79165">
        <ele>873.5</ele>
        <time>2022-07-16T09:35:15Z</time>
      </trkpt>
      <trkpt lat="44.9088" lon="5.79172">
        <ele>873.5</ele>
        <time>2022-07-16T09:35:16Z</time>
      </trkpt>
      <trkpt lat="44.90884" lon="5.79178">
        <ele>873.4</ele>
        <time>2022-07-16T09:35:17Z</time>
      </trkpt>
      <trkpt lat="44.90888" lon="5.79185">
        <ele>873.3</ele>
        <time>2022-07-16T09:35:18Z</time>
      </trkpt>
      <trkpt lat="44.90892" lon="5.79191">
        <ele>873.3</ele>
        <time>2022-07-16T09:35:19Z</time>
      </trkpt>
      <trkpt lat="44.90896" lon="5.79198">
        <ele>873.2</ele>
        <time>2022-07-16T09:35:20Z</time>
      </trkpt>
      <trkpt lat="44.90901" lon="5.79204">
        <ele>873.1</ele>
        <time>2022-07-16T09:35:21Z</time>
      </trkpt>
      <trkpt lat="44.90904" lon="5.79212">
        <ele>873</ele>
        <time>2022-07-16T09:35:22Z</time>
      </trkpt>
      <trkpt lat="44.90908" lon="5.79218">
        <ele>873</ele>
        <time>2022-07-16T09:35:23Z</time>
      </trkpt>
      <trkpt lat="44.90912" lon="5.79224">
        <ele>872.9</ele>
        <time>2022-07-16T09:35:24Z</time>
      </trkpt>
      <trkpt lat="44.90916" lon="5.79231">
        <ele>872.9</ele>
        <time>2022-07-16T09:35:25Z</time>
      </trkpt>
      <trkpt lat="44.9092" lon="5.79238">
        <ele>872.8</ele>
        <time>2022-07-16T09:35:26Z</time>
      </trkpt>
      <trkpt lat="44.90924" lon="5.79244">
        <ele>872.8</ele>
        <time>2022-07-16T09:35:27Z</time>
      </trkpt>
      <trkpt lat="44.90928" lon="5.79251">
        <ele>872.7</ele>
        <time>2022-07-16T09:35:28Z</time>
      </trkpt>
      <trkpt lat="44.90933" lon="5.79257">
        <ele>872.7</ele>
        <time>2022-07-16T09:35:29Z</time>
      </trkpt>
      <trkpt lat="44.90937" lon="5.79264">
        <ele>872.6</ele>
        <time>2022-07-16T09:35:30Z</time>
      </trkpt>
      <trkpt lat="44.9094" lon="5.7927">
        <ele>872.5</ele>
        <time>2022-07-16T09:35:31Z</time>
      </trkpt>
      <trkpt lat="44.90943" lon="5.79277">
        <ele>872.5</ele>
        <time>2022-07-16T09:35:32Z</time>
      </trkpt>
      <trkpt lat="44.90946" lon="5.79284">
        <ele>872.4</ele>
        <time>2022-07-16T09:35:33Z</time>
      </trkpt>
      <trkpt lat="44.9095" lon="5.7929">
        <ele>872.3</ele>
        <time>2022-07-16T09:35:34Z</time>
      </trkpt>
      <trkpt lat="44.90954" lon="5.79296">
        <ele>872.2</ele>
        <time>2022-07-16T09:35:35Z</time>
      </trkpt>
      <trkpt lat="44.90958" lon="5.79302">
        <ele>872.2</ele>
        <time>2022-07-16T09:35:36Z</time>
      </trkpt>
      <trkpt lat="44.90962" lon="5.79308">
        <ele>872.1</ele>
        <time>2022-07-16T09:35:37Z</time>
      </trkpt>
      <trkpt lat="44.90966" lon="5.79315">
        <ele>872</ele>
        <time>2022-07-16T09:35:38Z</time>
      </trkpt>
      <trkpt lat="44.90969" lon="5.79321">
        <ele>871.9</ele>
        <time>2022-07-16T09:35:39Z</time>
      </trkpt>
      <trkpt lat="44.90972" lon="5.79327">
        <ele>871.9</ele>
        <time>2022-07-16T09:35:40Z</time>
      </trkpt>
      <trkpt lat="44.90977" lon="5.79333">
        <ele>871.8</ele>
        <time>2022-07-16T09:35:41Z</time>
      </trkpt>
      <trkpt lat="44.90981" lon="5.79339">
        <ele>871.7</ele>
        <time>2022-07-16T09:35:42Z</time>
      </trkpt>
      <trkpt lat="44.90987" lon="5.79347">
        <ele>871.6</ele>
        <time>2022-07-16T09:35:43Z</time>
      </trkpt>
      <trkpt lat="44.90991" lon="5.79353">
        <ele>871.5</ele>
        <time>2022-07-16T09:35:44Z</time>
      </trkpt>
      <trkpt lat="44.90994" lon="5.7936">
        <ele>871.5</ele>
        <time>2022-07-16T09:35:45Z</time>
      </trkpt>
      <trkpt lat="44.90998" lon="5.79367">
        <ele>871.4</ele>
        <time>2022-07-16T09:35:46Z</time>
      </trkpt>
      <trkpt lat="44.91003" lon="5.79373">
        <ele>871.4</ele>
        <time>2022-07-16T09:35:47Z</time>
      </trkpt>
      <trkpt lat="44.91007" lon="5.79379">
        <ele>871.3</ele>
        <time>2022-07-16T09:35:48Z</time>
      </trkpt>
      <trkpt lat="44.9101" lon="5.79383">
        <ele>871.2</ele>
        <time>2022-07-16T09:35:49Z</time>
      </trkpt>
      <trkpt lat="44.91013" lon="5.7939">
        <ele>871.2</ele>
        <time>2022-07-16T09:35:50Z</time>
      </trkpt>
      <trkpt lat="44.91017" lon="5.79396">
        <ele>871.1</ele>
        <time>2022-07-16T09:35:51Z</time>
      </trkpt>
      <trkpt lat="44.9102" lon="5.79402">
        <ele>871</ele>
        <time>2022-07-16T09:35:52Z</time>
      </trkpt>
      <trkpt lat="44.91025" lon="5.79408">
        <ele>871</ele>
        <time>2022-07-16T09:35:53Z</time>
      </trkpt>
      <trkpt lat="44.91029" lon="5.79413">
        <ele>870.9</ele>
        <time>2022-07-16T09:35:54Z</time>
      </trkpt>
      <trkpt lat="44.91034" lon="5.79419">
        <ele>870.8</ele>
        <time>2022-07-16T09:35:55Z</time>
      </trkpt>
      <trkpt lat="44.91038" lon="5.79425">
        <ele>870.7</ele>
        <time>2022-07-16T09:35:56Z</time>
      </trkpt>
      <trkpt lat="44.91042" lon="5.79431">
        <ele>870.6</ele>
        <time>2022-07-16T09:35:57Z</time>
      </trkpt>
      <trkpt lat="44.91046" lon="5.79437">
        <ele>870.6</ele>
        <time>2022-07-16T09:35:58Z</time>
      </trkpt>
      <trkpt lat="44.91049" lon="5.79442">
        <ele>870.5</ele>
        <time>2022-07-16T09:35:59Z</time>
      </trkpt>
      <trkpt lat="44.91054" lon="5.79449">
        <ele>870.4</ele>
        <time>2022-07-16T09:36:00Z</time>
      </trkpt>
      <trkpt lat="44.91058" lon="5.79455">
        <ele>870.4</ele>
        <time>2022-07-16T09:36:01Z</time>
      </trkpt>
      <trkpt lat="44.91062" lon="5.79462">
        <ele>870.3</ele>
        <time>2022-07-16T09:36:02Z</time>
      </trkpt>
      <trkpt lat="44.91066" lon="5.79468">
        <ele>870.3</ele>
        <time>2022-07-16T09:36:03Z</time>
      </trkpt>
      <trkpt lat="44.9107" lon="5.79473">
        <ele>870.2</ele>
        <time>2022-07-16T09:36:04Z</time>
      </trkpt>
      <trkpt lat="44.91074" lon="5.7948">
        <ele>870.1</ele>
        <time>2022-07-16T09:36:05Z</time>
      </trkpt>
      <trkpt lat="44.91079" lon="5.79486">
        <ele>870</ele>
        <time>2022-07-16T09:36:06Z</time>
      </trkpt>
      <trkpt lat="44.91083" lon="5.79492">
        <ele>870</ele>
        <time>2022-07-16T09:36:07Z</time>
      </trkpt>
      <trkpt lat="44.91087" lon="5.79499">
        <ele>869.9</ele>
        <time>2022-07-16T09:36:08Z</time>
      </trkpt>
      <trkpt lat="44.91091" lon="5.79504">
        <ele>869.8</ele>
        <time>2022-07-16T09:36:09Z</time>
      </trkpt>
      <trkpt lat="44.91094" lon="5.7951">
        <ele>869.8</ele>
        <time>2022-07-16T09:36:10Z</time>
      </trkpt>
      <trkpt lat="44.91098" lon="5.79515">
        <ele>869.7</ele>
        <time>2022-07-16T09:36:11Z</time>
      </trkpt>
      <trkpt lat="44.91102" lon="5.79521">
        <ele>869.7</ele>
        <time>2022-07-16T09:36:12Z</time>
      </trkpt>
      <trkpt lat="44.91107" lon="5.79528">
        <ele>869.6</ele>
        <time>2022-07-16T09:36:13Z</time>
      </trkpt>
      <trkpt lat="44.91111" lon="5.79534">
        <ele>869.6</ele>
        <time>2022-07-16T09:36:14Z</time>
      </trkpt>
      <trkpt lat="44.91115" lon="5.79541">
        <ele>869.5</ele>
        <time>2022-07-16T09:36:15Z</time>
      </trkpt>
      <trkpt lat="44.91118" lon="5.79546">
        <ele>869.4</ele>
        <time>2022-07-16T09:36:16Z</time>
      </trkpt>
      <trkpt lat="44.91122" lon="5.79552">
        <ele>869.4</ele>
        <time>2022-07-16T09:36:17Z</time>
      </trkpt>
      <trkpt lat="44.91126" lon="5.79559">
        <ele>869.3</ele>
        <time>2022-07-16T09:36:18Z</time>
      </trkpt>
      <trkpt lat="44.9113" lon="5.79565">
        <ele>869.2</ele>
        <time>2022-07-16T09:36:19Z</time>
      </trkpt>
      <trkpt lat="44.91133" lon="5.79571">
        <ele>869.2</ele>
        <time>2022-07-16T09:36:20Z</time>
      </trkpt>
      <trkpt lat="44.91138" lon="5.79577">
        <ele>869.1</ele>
        <time>2022-07-16T09:36:21Z</time>
      </trkpt>
      <trkpt lat="44.91142" lon="5.79584">
        <ele>869</ele>
        <time>2022-07-16T09:36:22Z</time>
      </trkpt>
      <trkpt lat="44.91147" lon="5.79589">
        <ele>868.9</ele>
        <time>2022-07-16T09:36:23Z</time>
      </trkpt>
      <trkpt lat="44.91151" lon="5.79595">
        <ele>868.9</ele>
        <time>2022-07-16T09:36:24Z</time>
      </trkpt>
      <trkpt lat="44.91155" lon="5.79602">
        <ele>868.8</ele>
        <time>2022-07-16T09:36:25Z</time>
      </trkpt>
      <trkpt lat="44.91159" lon="5.79609">
        <ele>868.7</ele>
        <time>2022-07-16T09:36:26Z</time>
      </trkpt>
      <trkpt lat="44.91163" lon="5.79616">
        <ele>868.6</ele>
        <time>2022-07-16T09:36:27Z</time>
      </trkpt>
      <trkpt lat="44.91167" lon="5.79623">
        <ele>868.6</ele>
        <time>2022-07-16T09:36:28Z</time>
      </trkpt>
      <trkpt lat="44.91172" lon="5.7963">
        <ele>868.5</ele>
        <time>2022-07-16T09:36:29Z</time>
      </trkpt>
      <trkpt lat="44.91176" lon="5.79637">
        <ele>868.5</ele>
        <time>2022-07-16T09:36:30Z</time>
      </trkpt>
      <trkpt lat="44.91181" lon="5.79645">
        <ele>868.4</ele>
        <time>2022-07-16T09:36:31Z</time>
      </trkpt>
      <trkpt lat="44.91185" lon="5.79651">
        <ele>868.4</ele>
        <time>2022-07-16T09:36:32Z</time>
      </trkpt>
      <trkpt lat="44.9119" lon="5.79658">
        <ele>868.3</ele>
        <time>2022-07-16T09:36:33Z</time>
      </trkpt>
      <trkpt lat="44.91194" lon="5.79664">
        <ele>868.3</ele>
        <time>2022-07-16T09:36:34Z</time>
      </trkpt>
      <trkpt lat="44.91198" lon="5.7967">
        <ele>868.2</ele>
        <time>2022-07-16T09:36:35Z</time>
      </trkpt>
      <trkpt lat="44.91202" lon="5.79677">
        <ele>868.1</ele>
        <time>2022-07-16T09:36:36Z</time>
      </trkpt>
      <trkpt lat="44.91206" lon="5.79683">
        <ele>868</ele>
        <time>2022-07-16T09:36:37Z</time>
      </trkpt>
      <trkpt lat="44.9121" lon="5.79689">
        <ele>868</ele>
        <time>2022-07-16T09:36:38Z</time>
      </trkpt>
      <trkpt lat="44.91214" lon="5.79696">
        <ele>867.9</ele>
        <time>2022-07-16T09:36:39Z</time>
      </trkpt>
      <trkpt lat="44.91218" lon="5.79703">
        <ele>867.8</ele>
        <time>2022-07-16T09:36:40Z</time>
      </trkpt>
      <trkpt lat="44.91223" lon="5.79709">
        <ele>867.8</ele>
        <time>2022-07-16T09:36:41Z</time>
      </trkpt>
      <trkpt lat="44.91227" lon="5.79717">
        <ele>867.7</ele>
        <time>2022-07-16T09:36:42Z</time>
      </trkpt>
      <trkpt lat="44.91231" lon="5.79724">
        <ele>867.6</ele>
        <time>2022-07-16T09:36:43Z</time>
      </trkpt>
      <trkpt lat="44.91235" lon="5.79732">
        <ele>867.6</ele>
        <time>2022-07-16T09:36:44Z</time>
      </trkpt>
      <trkpt lat="44.9124" lon="5.79738">
        <ele>867.5</ele>
        <time>2022-07-16T09:36:45Z</time>
      </trkpt>
      <trkpt lat="44.91244" lon="5.79745">
        <ele>867.5</ele>
        <time>2022-07-16T09:36:46Z</time>
      </trkpt>
      <trkpt lat="44.91248" lon="5.79752">
        <ele>867.4</ele>
        <time>2022-07-16T09:36:47Z</time>
      </trkpt>
      <trkpt lat="44.91252" lon="5.7976">
        <ele>867.4</ele>
        <time>2022-07-16T09:36:48Z</time>
      </trkpt>
      <trkpt lat="44.91257" lon="5.79767">
        <ele>867.3</ele>
        <time>2022-07-16T09:36:49Z</time>
      </trkpt>
      <trkpt lat="44.91261" lon="5.79773">
        <ele>867.3</ele>
        <time>2022-07-16T09:36:50Z</time>
      </trkpt>
      <trkpt lat="44.91265" lon="5.79779">
        <ele>867.2</ele>
        <time>2022-07-16T09:36:51Z</time>
      </trkpt>
      <trkpt lat="44.9127" lon="5.79785">
        <ele>867.2</ele>
        <time>2022-07-16T09:36:52Z</time>
      </trkpt>
      <trkpt lat="44.91274" lon="5.79791">
        <ele>867.2</ele>
        <time>2022-07-16T09:36:53Z</time>
      </trkpt>
      <trkpt lat="44.91278" lon="5.79797">
        <ele>867.1</ele>
        <time>2022-07-16T09:36:54Z</time>
      </trkpt>
      <trkpt lat="44.91282" lon="5.79803">
        <ele>867.1</ele>
        <time>2022-07-16T09:36:55Z</time>
      </trkpt>
      <trkpt lat="44.91286" lon="5.7981">
        <ele>867.1</ele>
        <time>2022-07-16T09:36:56Z</time>
      </trkpt>
      <trkpt lat="44.91289" lon="5.79816">
        <ele>867</ele>
        <time>2022-07-16T09:36:57Z</time>
      </trkpt>
      <trkpt lat="44.91293" lon="5.79823">
        <ele>867</ele>
        <time>2022-07-16T09:36:58Z</time>
      </trkpt>
      <trkpt lat="44.91297" lon="5.79829">
        <ele>867</ele>
        <time>2022-07-16T09:36:59Z</time>
      </trkpt>
      <trkpt lat="44.91301" lon="5.79835">
        <ele>866.9</ele>
        <time>2022-07-16T09:37:00Z</time>
      </trkpt>
      <trkpt lat="44.91306" lon="5.79841">
        <ele>866.9</ele>
        <time>2022-07-16T09:37:01Z</time>
      </trkpt>
      <trkpt lat="44.9131" lon="5.79847">
        <ele>866.9</ele>
        <time>2022-07-16T09:37:02Z</time>
      </trkpt>
      <trkpt lat="44.91314" lon="5.79854">
        <ele>866.9</ele>
        <time>2022-07-16T09:37:03Z</time>
      </trkpt>
      <trkpt lat="44.91319" lon="5.79857">
        <ele>866.9</ele>
        <time>2022-07-16T09:37:04Z</time>
      </trkpt>
      <trkpt lat="44.91321" lon="5.7986">
        <ele>866.8</ele>
        <time>2022-07-16T09:37:05Z</time>
      </trkpt>
      <trkpt lat="44.91326" lon="5.79868">
        <ele>866.8</ele>
        <time>2022-07-16T09:37:06Z</time>
      </trkpt>
      <trkpt lat="44.91329" lon="5.79876">
        <ele>866.8</ele>
        <time>2022-07-16T09:37:07Z</time>
      </trkpt>
      <trkpt lat="44.91333" lon="5.79884">
        <ele>866.7</ele>
        <time>2022-07-16T09:37:08Z</time>
      </trkpt>
      <trkpt lat="44.91336" lon="5.7989">
        <ele>866.7</ele>
        <time>2022-07-16T09:37:09Z</time>
      </trkpt>
      <trkpt lat="44.9134" lon="5.79896">
        <ele>866.6</ele>
        <time>2022-07-16T09:37:10Z</time>
      </trkpt>
      <trkpt lat="44.91344" lon="5.79902">
        <ele>866.5</ele>
        <time>2022-07-16T09:37:11Z</time>
      </trkpt>
      <trkpt lat="44.91347" lon="5.79908">
        <ele>866.5</ele>
        <time>2022-07-16T09:37:12Z</time>
      </trkpt>
      <trkpt lat="44.91351" lon="5.79913">
        <ele>866.4</ele>
        <time>2022-07-16T09:37:13Z</time>
      </trkpt>
      <trkpt lat="44.91354" lon="5.79919">
        <ele>866.3</ele>
        <time>2022-07-16T09:37:14Z</time>
      </trkpt>
      <trkpt lat="44.91357" lon="5.79925">
        <ele>866.2</ele>
        <time>2022-07-16T09:37:15Z</time>
      </trkpt>
      <trkpt lat="44.91361" lon="5.79931">
        <ele>866.2</ele>
        <time>2022-07-16T09:37:16Z</time>
      </trkpt>
      <trkpt lat="44.91364" lon="5.79937">
        <ele>866.1</ele>
        <time>2022-07-16T09:37:17Z</time>
      </trkpt>
      <trkpt lat="44.91368" lon="5.79943">
        <ele>866</ele>
        <time>2022-07-16T09:37:18Z</time>
      </trkpt>
      <trkpt lat="44.91371" lon="5.79949">
        <ele>866</ele>
        <time>2022-07-16T09:37:19Z</time>
      </trkpt>
      <trkpt lat="44.91373" lon="5.79955">
        <ele>865.9</ele>
        <time>2022-07-16T09:37:20Z</time>
      </trkpt>
      <trkpt lat="44.91376" lon="5.79962">
        <ele>865.8</ele>
        <time>2022-07-16T09:37:21Z</time>
      </trkpt>
      <trkpt lat="44.91379" lon="5.79969">
        <ele>865.8</ele>
        <time>2022-07-16T09:37:22Z</time>
      </trkpt>
      <trkpt lat="44.91382" lon="5.79976">
        <ele>865.7</ele>
        <time>2022-07-16T09:37:23Z</time>
      </trkpt>
      <trkpt lat="44.91385" lon="5.79983">
        <ele>865.6</ele>
        <time>2022-07-16T09:37:24Z</time>
      </trkpt>
      <trkpt lat="44.91389" lon="5.79989">
        <ele>865.3</ele>
        <time>2022-07-16T09:37:25Z</time>
      </trkpt>
      <trkpt lat="44.91393" lon="5.79996">
        <ele>865</ele>
        <time>2022-07-16T09:37:26Z</time>
      </trkpt>
      <trkpt lat="44.91397" lon="5.80002">
        <ele>864.7</ele>
        <time>2022-07-16T09:37:27Z</time>
      </trkpt>
      <trkpt lat="44.91402" lon="5.80009">
        <ele>864.3</ele>
        <time>2022-07-16T09:37:28Z</time>
      </trkpt>
      <trkpt lat="44.91406" lon="5.80015">
        <ele>864.1</ele>
        <time>2022-07-16T09:37:29Z</time>
      </trkpt>
      <trkpt lat="44.91412" lon="5.80021">
        <ele>863.7</ele>
        <time>2022-07-16T09:37:30Z</time>
      </trkpt>
      <trkpt lat="44.91418" lon="5.80027">
        <ele>863.5</ele>
        <time>2022-07-16T09:37:31Z</time>
      </trkpt>
      <trkpt lat="44.91424" lon="5.80033">
        <ele>863.3</ele>
        <time>2022-07-16T09:37:32Z</time>
      </trkpt>
      <trkpt lat="44.91429" lon="5.8004">
        <ele>863.1</ele>
        <time>2022-07-16T09:37:33Z</time>
      </trkpt>
      <trkpt lat="44.91434" lon="5.80046">
        <ele>862.9</ele>
        <time>2022-07-16T09:37:34Z</time>
      </trkpt>
      <trkpt lat="44.9144" lon="5.80052">
        <ele>862.7</ele>
        <time>2022-07-16T09:37:35Z</time>
      </trkpt>
      <trkpt lat="44.91446" lon="5.80059">
        <ele>862.5</ele>
        <time>2022-07-16T09:37:36Z</time>
      </trkpt>
      <trkpt lat="44.91452" lon="5.80065">
        <ele>862.4</ele>
        <time>2022-07-16T09:37:37Z</time>
      </trkpt>
      <trkpt lat="44.91457" lon="5.80071">
        <ele>862.3</ele>
        <time>2022-07-16T09:37:38Z</time>
      </trkpt>
      <trkpt lat="44.91463" lon="5.80078">
        <ele>862.1</ele>
        <time>2022-07-16T09:37:39Z</time>
      </trkpt>
      <trkpt lat="44.91469" lon="5.80085">
        <ele>862</ele>
        <time>2022-07-16T09:37:40Z</time>
      </trkpt>
      <trkpt lat="44.91475" lon="5.80091">
        <ele>861.8</ele>
        <time>2022-07-16T09:37:41Z</time>
      </trkpt>
      <trkpt lat="44.9148" lon="5.80098">
        <ele>861.7</ele>
        <time>2022-07-16T09:37:42Z</time>
      </trkpt>
      <trkpt lat="44.91486" lon="5.80104">
        <ele>861.6</ele>
        <time>2022-07-16T09:37:43Z</time>
      </trkpt>
      <trkpt lat="44.9149" lon="5.80109">
        <ele>861.4</ele>
        <time>2022-07-16T09:37:44Z</time>
      </trkpt>
      <trkpt lat="44.91496" lon="5.80116">
        <ele>861.3</ele>
        <time>2022-07-16T09:37:45Z</time>
      </trkpt>
      <trkpt lat="44.91502" lon="5.80123">
        <ele>861.2</ele>
        <time>2022-07-16T09:37:46Z</time>
      </trkpt>
      <trkpt lat="44.91507" lon="5.8013">
        <ele>861.1</ele>
        <time>2022-07-16T09:37:47Z</time>
      </trkpt>
      <trkpt lat="44.91511" lon="5.80138">
        <ele>861</ele>
        <time>2022-07-16T09:37:48Z</time>
      </trkpt>
      <trkpt lat="44.91515" lon="5.80147">
        <ele>860.9</ele>
        <time>2022-07-16T09:37:49Z</time>
      </trkpt>
      <trkpt lat="44.91519" lon="5.80156">
        <ele>860.8</ele>
        <time>2022-07-16T09:37:50Z</time>
      </trkpt>
      <trkpt lat="44.91522" lon="5.80165">
        <ele>860.8</ele>
        <time>2022-07-16T09:37:51Z</time>
      </trkpt>
      <trkpt lat="44.91525" lon="5.80174">
        <ele>860.7</ele>
        <time>2022-07-16T09:37:52Z</time>
      </trkpt>
      <trkpt lat="44.91528" lon="5.80183">
        <ele>860.7</ele>
        <time>2022-07-16T09:37:53Z</time>
      </trkpt>
      <trkpt lat="44.9153" lon="5.80193">
        <ele>860.6</ele>
        <time>2022-07-16T09:37:54Z</time>
      </trkpt>
      <trkpt lat="44.91532" lon="5.80202">
        <ele>860.6</ele>
        <time>2022-07-16T09:37:55Z</time>
      </trkpt>
      <trkpt lat="44.91534" lon="5.80212">
        <ele>860.6</ele>
        <time>2022-07-16T09:37:56Z</time>
      </trkpt>
      <trkpt lat="44.91536" lon="5.80222">
        <ele>860.6</ele>
        <time>2022-07-16T09:37:57Z</time>
      </trkpt>
      <trkpt lat="44.91538" lon="5.80232">
        <ele>860.6</ele>
        <time>2022-07-16T09:37:58Z</time>
      </trkpt>
      <trkpt lat="44.91539" lon="5.8024">
        <ele>860.6</ele>
        <time>2022-07-16T09:37:59Z</time>
      </trkpt>
      <trkpt lat="44.91541" lon="5.8025">
        <ele>860.6</ele>
        <time>2022-07-16T09:38:00Z</time>
      </trkpt>
      <trkpt lat="44.91543" lon="5.8026">
        <ele>860.5</ele>
        <time>2022-07-16T09:38:01Z</time>
      </trkpt>
      <trkpt lat="44.91545" lon="5.8027">
        <ele>860.5</ele>
        <time>2022-07-16T09:38:02Z</time>
      </trkpt>
      <trkpt lat="44.91547" lon="5.8028">
        <ele>860.4</ele>
        <time>2022-07-16T09:38:03Z</time>
      </trkpt>
      <trkpt lat="44.91549" lon="5.8029">
        <ele>860.4</ele>
        <time>2022-07-16T09:38:04Z</time>
      </trkpt>
      <trkpt lat="44.91551" lon="5.803">
        <ele>860.3</ele>
        <time>2022-07-16T09:38:05Z</time>
      </trkpt>
      <trkpt lat="44.91553" lon="5.8031">
        <ele>860.3</ele>
        <time>2022-07-16T09:38:06Z</time>
      </trkpt>
      <trkpt lat="44.91555" lon="5.80321">
        <ele>860.3</ele>
        <time>2022-07-16T09:38:07Z</time>
      </trkpt>
      <trkpt lat="44.91556" lon="5.80331">
        <ele>860.3</ele>
        <time>2022-07-16T09:38:08Z</time>
      </trkpt>
      <trkpt lat="44.91558" lon="5.80341">
        <ele>860.3</ele>
        <time>2022-07-16T09:38:09Z</time>
      </trkpt>
      <trkpt lat="44.91559" lon="5.8035">
        <ele>860.3</ele>
        <time>2022-07-16T09:38:10Z</time>
      </trkpt>
      <trkpt lat="44.91561" lon="5.8036">
        <ele>860.3</ele>
        <time>2022-07-16T09:38:11Z</time>
      </trkpt>
      <trkpt lat="44.91562" lon="5.80369">
        <ele>860.3</ele>
        <time>2022-07-16T09:38:12Z</time>
      </trkpt>
      <trkpt lat="44.91564" lon="5.80378">
        <ele>860.3</ele>
        <time>2022-07-16T09:38:13Z</time>
      </trkpt>
      <trkpt lat="44.91565" lon="5.80388">
        <ele>860.2</ele>
        <time>2022-07-16T09:38:14Z</time>
      </trkpt>
      <trkpt lat="44.91567" lon="5.80397">
        <ele>860.2</ele>
        <time>2022-07-16T09:38:15Z</time>
      </trkpt>
      <trkpt lat="44.91569" lon="5.80405">
        <ele>860.2</ele>
        <time>2022-07-16T09:38:16Z</time>
      </trkpt>
      <trkpt lat="44.91571" lon="5.80414">
        <ele>860.2</ele>
        <time>2022-07-16T09:38:17Z</time>
      </trkpt>
      <trkpt lat="44.91573" lon="5.80423">
        <ele>860.2</ele>
        <time>2022-07-16T09:38:18Z</time>
      </trkpt>
      <trkpt lat="44.91574" lon="5.80433">
        <ele>860.2</ele>
        <time>2022-07-16T09:38:19Z</time>
      </trkpt>
      <trkpt lat="44.91576" lon="5.80442">
        <ele>860.2</ele>
        <time>2022-07-16T09:38:20Z</time>
      </trkpt>
      <trkpt lat="44.91578" lon="5.8045">
        <ele>860.2</ele>
        <time>2022-07-16T09:38:21Z</time>
      </trkpt>
      <trkpt lat="44.9158" lon="5.80459">
        <ele>860.1</ele>
        <time>2022-07-16T09:38:22Z</time>
      </trkpt>
      <trkpt lat="44.91582" lon="5.80469">
        <ele>860.1</ele>
        <time>2022-07-16T09:38:23Z</time>
      </trkpt>
      <trkpt lat="44.91585" lon="5.80478">
        <ele>860</ele>
        <time>2022-07-16T09:38:24Z</time>
      </trkpt>
      <trkpt lat="44.91587" lon="5.80487">
        <ele>860</ele>
        <time>2022-07-16T09:38:25Z</time>
      </trkpt>
      <trkpt lat="44.9159" lon="5.80497">
        <ele>859.9</ele>
        <time>2022-07-16T09:38:26Z</time>
      </trkpt>
      <trkpt lat="44.91593" lon="5.80506">
        <ele>859.8</ele>
        <time>2022-07-16T09:38:27Z</time>
      </trkpt>
      <trkpt lat="44.91597" lon="5.80516">
        <ele>859.8</ele>
        <time>2022-07-16T09:38:28Z</time>
      </trkpt>
      <trkpt lat="44.916" lon="5.80525">
        <ele>859.6</ele>
        <time>2022-07-16T09:38:29Z</time>
      </trkpt>
      <trkpt lat="44.91605" lon="5.80535">
        <ele>859.5</ele>
        <time>2022-07-16T09:38:30Z</time>
      </trkpt>
      <trkpt lat="44.91609" lon="5.80544">
        <ele>859.3</ele>
        <time>2022-07-16T09:38:31Z</time>
      </trkpt>
      <trkpt lat="44.91612" lon="5.80554">
        <ele>859.2</ele>
        <time>2022-07-16T09:38:32Z</time>
      </trkpt>
      <trkpt lat="44.91616" lon="5.80564">
        <ele>859</ele>
        <time>2022-07-16T09:38:33Z</time>
      </trkpt>
      <trkpt lat="44.91619" lon="5.80573">
        <ele>858.8</ele>
        <time>2022-07-16T09:38:34Z</time>
      </trkpt>
      <trkpt lat="44.91624" lon="5.80583">
        <ele>858.6</ele>
        <time>2022-07-16T09:38:35Z</time>
      </trkpt>
      <trkpt lat="44.91628" lon="5.80592">
        <ele>858.4</ele>
        <time>2022-07-16T09:38:36Z</time>
      </trkpt>
      <trkpt lat="44.91632" lon="5.80603">
        <ele>858.1</ele>
        <time>2022-07-16T09:38:37Z</time>
      </trkpt>
      <trkpt lat="44.91636" lon="5.80612">
        <ele>857.9</ele>
        <time>2022-07-16T09:38:38Z</time>
      </trkpt>
      <trkpt lat="44.91641" lon="5.80621">
        <ele>857.8</ele>
        <time>2022-07-16T09:38:39Z</time>
      </trkpt>
      <trkpt lat="44.91646" lon="5.80631">
        <ele>857.5</ele>
        <time>2022-07-16T09:38:40Z</time>
      </trkpt>
      <trkpt lat="44.91651" lon="5.80639">
        <ele>857.2</ele>
        <time>2022-07-16T09:38:41Z</time>
      </trkpt>
      <trkpt lat="44.91657" lon="5.80646">
        <ele>856.9</ele>
        <time>2022-07-16T09:38:42Z</time>
      </trkpt>
      <trkpt lat="44.91663" lon="5.80653">
        <ele>856.6</ele>
        <time>2022-07-16T09:38:43Z</time>
      </trkpt>
      <trkpt lat="44.9167" lon="5.80659">
        <ele>856.3</ele>
        <time>2022-07-16T09:38:44Z</time>
      </trkpt>
      <trkpt lat="44.91677" lon="5.80665">
        <ele>855.9</ele>
        <time>2022-07-16T09:38:45Z</time>
      </trkpt>
      <trkpt lat="44.91685" lon="5.80669">
        <ele>855.6</ele>
        <time>2022-07-16T09:38:46Z</time>
      </trkpt>
      <trkpt lat="44.91692" lon="5.80673">
        <ele>855.2</ele>
        <time>2022-07-16T09:38:47Z</time>
      </trkpt>
      <trkpt lat="44.917" lon="5.80676">
        <ele>854.9</ele>
        <time>2022-07-16T09:38:48Z</time>
      </trkpt>
      <trkpt lat="44.91708" lon="5.80679">
        <ele>854.6</ele>
        <time>2022-07-16T09:38:49Z</time>
      </trkpt>
      <trkpt lat="44.91715" lon="5.80682">
        <ele>854.3</ele>
        <time>2022-07-16T09:38:50Z</time>
      </trkpt>
      <trkpt lat="44.91723" lon="5.80684">
        <ele>854.1</ele>
        <time>2022-07-16T09:38:51Z</time>
      </trkpt>
      <trkpt lat="44.9173" lon="5.80685">
        <ele>853.8</ele>
        <time>2022-07-16T09:38:52Z</time>
      </trkpt>
      <trkpt lat="44.91738" lon="5.80687">
        <ele>853.5</ele>
        <time>2022-07-16T09:38:53Z</time>
      </trkpt>
      <trkpt lat="44.91747" lon="5.80689">
        <ele>853.1</ele>
        <time>2022-07-16T09:38:54Z</time>
      </trkpt>
      <trkpt lat="44.91756" lon="5.80691">
        <ele>852.8</ele>
        <time>2022-07-16T09:38:55Z</time>
      </trkpt>
      <trkpt lat="44.91765" lon="5.80692">
        <ele>852.5</ele>
        <time>2022-07-16T09:38:56Z</time>
      </trkpt>
      <trkpt lat="44.91771" lon="5.80692">
        <ele>852.2</ele>
        <time>2022-07-16T09:38:57Z</time>
      </trkpt>
      <trkpt lat="44.91778" lon="5.80694">
        <ele>852</ele>
        <time>2022-07-16T09:38:58Z</time>
      </trkpt>
      <trkpt lat="44.91786" lon="5.80695">
        <ele>851.7</ele>
        <time>2022-07-16T09:38:59Z</time>
      </trkpt>
      <trkpt lat="44.91795" lon="5.80697">
        <ele>851.4</ele>
        <time>2022-07-16T09:39:00Z</time>
      </trkpt>
      <trkpt lat="44.91804" lon="5.80699">
        <ele>851.1</ele>
        <time>2022-07-16T09:39:01Z</time>
      </trkpt>
      <trkpt lat="44.91813" lon="5.807">
        <ele>850.8</ele>
        <time>2022-07-16T09:39:02Z</time>
      </trkpt>
      <trkpt lat="44.91822" lon="5.80703">
        <ele>850.4</ele>
        <time>2022-07-16T09:39:03Z</time>
      </trkpt>
      <trkpt lat="44.91831" lon="5.80706">
        <ele>850.1</ele>
        <time>2022-07-16T09:39:04Z</time>
      </trkpt>
      <trkpt lat="44.91839" lon="5.8071">
        <ele>850</ele>
        <time>2022-07-16T09:39:05Z</time>
      </trkpt>
      <trkpt lat="44.91847" lon="5.80714">
        <ele>849.8</ele>
        <time>2022-07-16T09:39:06Z</time>
      </trkpt>
      <trkpt lat="44.91855" lon="5.80718">
        <ele>849.7</ele>
        <time>2022-07-16T09:39:07Z</time>
      </trkpt>
      <trkpt lat="44.91863" lon="5.80724">
        <ele>849.6</ele>
        <time>2022-07-16T09:39:08Z</time>
      </trkpt>
      <trkpt lat="44.9187" lon="5.80729">
        <ele>849.4</ele>
        <time>2022-07-16T09:39:09Z</time>
      </trkpt>
      <trkpt lat="44.91878" lon="5.80733">
        <ele>849.3</ele>
        <time>2022-07-16T09:39:10Z</time>
      </trkpt>
      <trkpt lat="44.91886" lon="5.80738">
        <ele>849.2</ele>
        <time>2022-07-16T09:39:11Z</time>
      </trkpt>
      <trkpt lat="44.91893" lon="5.80743">
        <ele>849</ele>
        <time>2022-07-16T09:39:12Z</time>
      </trkpt>
      <trkpt lat="44.919" lon="5.80749">
        <ele>848.9</ele>
        <time>2022-07-16T09:39:13Z</time>
      </trkpt>
      <trkpt lat="44.91907" lon="5.80754">
        <ele>848.8</ele>
        <time>2022-07-16T09:39:14Z</time>
      </trkpt>
      <trkpt lat="44.91914" lon="5.80759">
        <ele>848.7</ele>
        <time>2022-07-16T09:39:15Z</time>
      </trkpt>
      <trkpt lat="44.91922" lon="5.80762">
        <ele>848.6</ele>
        <time>2022-07-16T09:39:16Z</time>
      </trkpt>
      <trkpt lat="44.91929" lon="5.80765">
        <ele>848.5</ele>
        <time>2022-07-16T09:39:17Z</time>
      </trkpt>
      <trkpt lat="44.91937" lon="5.80769">
        <ele>848.4</ele>
        <time>2022-07-16T09:39:18Z</time>
      </trkpt>
      <trkpt lat="44.91944" lon="5.80774">
        <ele>848.3</ele>
        <time>2022-07-16T09:39:19Z</time>
      </trkpt>
      <trkpt lat="44.91952" lon="5.80778">
        <ele>848.2</ele>
        <time>2022-07-16T09:39:20Z</time>
      </trkpt>
      <trkpt lat="44.91959" lon="5.80784">
        <ele>848.1</ele>
        <time>2022-07-16T09:39:21Z</time>
      </trkpt>
      <trkpt lat="44.91967" lon="5.80788">
        <ele>848.1</ele>
        <time>2022-07-16T09:39:22Z</time>
      </trkpt>
      <trkpt lat="44.91974" lon="5.80793">
        <ele>848</ele>
        <time>2022-07-16T09:39:23Z</time>
      </trkpt>
      <trkpt lat="44.91982" lon="5.80797">
        <ele>847.8</ele>
        <time>2022-07-16T09:39:24Z</time>
      </trkpt>
      <trkpt lat="44.91989" lon="5.80801">
        <ele>847.5</ele>
        <time>2022-07-16T09:39:25Z</time>
      </trkpt>
      <trkpt lat="44.91997" lon="5.80804">
        <ele>847.2</ele>
        <time>2022-07-16T09:39:26Z</time>
      </trkpt>
      <trkpt lat="44.92004" lon="5.80806">
        <ele>846.9</ele>
        <time>2022-07-16T09:39:27Z</time>
      </trkpt>
      <trkpt lat="44.92011" lon="5.80808">
        <ele>846.5</ele>
        <time>2022-07-16T09:39:28Z</time>
      </trkpt>
      <trkpt lat="44.92019" lon="5.8081">
        <ele>846.2</ele>
        <time>2022-07-16T09:39:29Z</time>
      </trkpt>
      <trkpt lat="44.92027" lon="5.80811">
        <ele>845.9</ele>
        <time>2022-07-16T09:39:30Z</time>
      </trkpt>
      <trkpt lat="44.92035" lon="5.80811">
        <ele>845.6</ele>
        <time>2022-07-16T09:39:31Z</time>
      </trkpt>
      <trkpt lat="44.92043" lon="5.80812">
        <ele>845.3</ele>
        <time>2022-07-16T09:39:32Z</time>
      </trkpt>
      <trkpt lat="44.92051" lon="5.80813">
        <ele>844.9</ele>
        <time>2022-07-16T09:39:33Z</time>
      </trkpt>
      <trkpt lat="44.9206" lon="5.80814">
        <ele>844.6</ele>
        <time>2022-07-16T09:39:34Z</time>
      </trkpt>
      <trkpt lat="44.92069" lon="5.80816">
        <ele>844.4</ele>
        <time>2022-07-16T09:39:35Z</time>
      </trkpt>
      <trkpt lat="44.92077" lon="5.80818">
        <ele>844.3</ele>
        <time>2022-07-16T09:39:36Z</time>
      </trkpt>
      <trkpt lat="44.92085" lon="5.8082">
        <ele>844.1</ele>
        <time>2022-07-16T09:39:37Z</time>
      </trkpt>
      <trkpt lat="44.92093" lon="5.80822">
        <ele>843.9</ele>
        <time>2022-07-16T09:39:38Z</time>
      </trkpt>
      <trkpt lat="44.92101" lon="5.80824">
        <ele>843.7</ele>
        <time>2022-07-16T09:39:39Z</time>
      </trkpt>
      <trkpt lat="44.92109" lon="5.80826">
        <ele>843.5</ele>
        <time>2022-07-16T09:39:40Z</time>
      </trkpt>
      <trkpt lat="44.92116" lon="5.80828">
        <ele>843.4</ele>
        <time>2022-07-16T09:39:41Z</time>
      </trkpt>
      <trkpt lat="44.92123" lon="5.8083">
        <ele>843.2</ele>
        <time>2022-07-16T09:39:42Z</time>
      </trkpt>
      <trkpt lat="44.9213" lon="5.80832">
        <ele>843</ele>
        <time>2022-07-16T09:39:43Z</time>
      </trkpt>
      <trkpt lat="44.92138" lon="5.80833">
        <ele>842.8</ele>
        <time>2022-07-16T09:39:44Z</time>
      </trkpt>
      <trkpt lat="44.92146" lon="5.80834">
        <ele>842.6</ele>
        <time>2022-07-16T09:39:45Z</time>
      </trkpt>
      <trkpt lat="44.92154" lon="5.80837">
        <ele>842.4</ele>
        <time>2022-07-16T09:39:46Z</time>
      </trkpt>
      <trkpt lat="44.92163" lon="5.80838">
        <ele>842.2</ele>
        <time>2022-07-16T09:39:47Z</time>
      </trkpt>
      <trkpt lat="44.9217" lon="5.8084">
        <ele>842</ele>
        <time>2022-07-16T09:39:48Z</time>
      </trkpt>
      <trkpt lat="44.92178" lon="5.80841">
        <ele>841.8</ele>
        <time>2022-07-16T09:39:49Z</time>
      </trkpt>
      <trkpt lat="44.92187" lon="5.80843">
        <ele>841.6</ele>
        <time>2022-07-16T09:39:50Z</time>
      </trkpt>
      <trkpt lat="44.92194" lon="5.80844">
        <ele>841.4</ele>
        <time>2022-07-16T09:39:51Z</time>
      </trkpt>
      <trkpt lat="44.92201" lon="5.80845">
        <ele>841.3</ele>
        <time>2022-07-16T09:39:52Z</time>
      </trkpt>
      <trkpt lat="44.92209" lon="5.80848">
        <ele>841.1</ele>
        <time>2022-07-16T09:39:53Z</time>
      </trkpt>
      <trkpt lat="44.92217" lon="5.80853">
        <ele>841</ele>
        <time>2022-07-16T09:39:54Z</time>
      </trkpt>
      <trkpt lat="44.92223" lon="5.80861">
        <ele>840.9</ele>
        <time>2022-07-16T09:39:55Z</time>
      </trkpt>
      <trkpt lat="44.92229" lon="5.80869">
        <ele>840.8</ele>
        <time>2022-07-16T09:39:56Z</time>
      </trkpt>
      <trkpt lat="44.92233" lon="5.80879">
        <ele>840.6</ele>
        <time>2022-07-16T09:39:57Z</time>
      </trkpt>
      <trkpt lat="44.92236" lon="5.8089">
        <ele>840.5</ele>
        <time>2022-07-16T09:39:58Z</time>
      </trkpt>
      <trkpt lat="44.92232" lon="5.80902">
        <ele>840.2</ele>
        <time>2022-07-16T09:39:59Z</time>
      </trkpt>
      <trkpt lat="44.92228" lon="5.80913">
        <ele>840</ele>
        <time>2022-07-16T09:40:00Z</time>
      </trkpt>
      <trkpt lat="44.92223" lon="5.80921">
        <ele>839.7</ele>
        <time>2022-07-16T09:40:01Z</time>
      </trkpt>
      <trkpt lat="44.92216" lon="5.80928">
        <ele>839.5</ele>
        <time>2022-07-16T09:40:02Z</time>
      </trkpt>
      <trkpt lat="44.92208" lon="5.80933">
        <ele>839.2</ele>
        <time>2022-07-16T09:40:03Z</time>
      </trkpt>
      <trkpt lat="44.922" lon="5.80938">
        <ele>839</ele>
        <time>2022-07-16T09:40:04Z</time>
      </trkpt>
      <trkpt lat="44.92192" lon="5.80943">
        <ele>838.7</ele>
        <time>2022-07-16T09:40:05Z</time>
      </trkpt>
      <trkpt lat="44.92183" lon="5.80948">
        <ele>838.6</ele>
        <time>2022-07-16T09:40:06Z</time>
      </trkpt>
      <trkpt lat="44.92175" lon="5.80952">
        <ele>838.4</ele>
        <time>2022-07-16T09:40:07Z</time>
      </trkpt>
      <trkpt lat="44.92168" lon="5.80957">
        <ele>838.3</ele>
        <time>2022-07-16T09:40:08Z</time>
      </trkpt>
      <trkpt lat="44.92159" lon="5.80961">
        <ele>838.2</ele>
        <time>2022-07-16T09:40:09Z</time>
      </trkpt>
      <trkpt lat="44.92152" lon="5.80967">
        <ele>838.1</ele>
        <time>2022-07-16T09:40:10Z</time>
      </trkpt>
      <trkpt lat="44.92145" lon="5.80972">
        <ele>838.1</ele>
        <time>2022-07-16T09:40:11Z</time>
      </trkpt>
      <trkpt lat="44.92138" lon="5.80978">
        <ele>838.2</ele>
        <time>2022-07-16T09:40:12Z</time>
      </trkpt>
      <trkpt lat="44.9213" lon="5.80984">
        <ele>838.2</ele>
        <time>2022-07-16T09:40:13Z</time>
      </trkpt>
      <trkpt lat="44.92123" lon="5.80988">
        <ele>838.2</ele>
        <time>2022-07-16T09:40:14Z</time>
      </trkpt>
      <trkpt lat="44.92116" lon="5.80993">
        <ele>838.2</ele>
        <time>2022-07-16T09:40:15Z</time>
      </trkpt>
      <trkpt lat="44.92109" lon="5.80998">
        <ele>838.1</ele>
        <time>2022-07-16T09:40:16Z</time>
      </trkpt>
      <trkpt lat="44.92103" lon="5.81003">
        <ele>838.1</ele>
        <time>2022-07-16T09:40:17Z</time>
      </trkpt>
      <trkpt lat="44.92096" lon="5.81008">
        <ele>838.1</ele>
        <time>2022-07-16T09:40:18Z</time>
      </trkpt>
      <trkpt lat="44.92089" lon="5.81012">
        <ele>838.1</ele>
        <time>2022-07-16T09:40:19Z</time>
      </trkpt>
      <trkpt lat="44.92081" lon="5.81017">
        <ele>838.2</ele>
        <time>2022-07-16T09:40:20Z</time>
      </trkpt>
      <trkpt lat="44.92074" lon="5.81022">
        <ele>838.2</ele>
        <time>2022-07-16T09:40:21Z</time>
      </trkpt>
      <trkpt lat="44.92067" lon="5.81027">
        <ele>838.3</ele>
        <time>2022-07-16T09:40:22Z</time>
      </trkpt>
      <trkpt lat="44.92061" lon="5.81032">
        <ele>838.4</ele>
        <time>2022-07-16T09:40:23Z</time>
      </trkpt>
      <trkpt lat="44.92054" lon="5.81036">
        <ele>838.4</ele>
        <time>2022-07-16T09:40:24Z</time>
      </trkpt>
      <trkpt lat="44.92047" lon="5.81039">
        <ele>838.5</ele>
        <time>2022-07-16T09:40:25Z</time>
      </trkpt>
      <trkpt lat="44.9204" lon="5.81044">
        <ele>838.6</ele>
        <time>2022-07-16T09:40:26Z</time>
      </trkpt>
      <trkpt lat="44.92032" lon="5.81049">
        <ele>838.7</ele>
        <time>2022-07-16T09:40:27Z</time>
      </trkpt>
      <trkpt lat="44.92026" lon="5.81054">
        <ele>838.8</ele>
        <time>2022-07-16T09:40:28Z</time>
      </trkpt>
      <trkpt lat="44.92019" lon="5.81058">
        <ele>838.9</ele>
        <time>2022-07-16T09:40:29Z</time>
      </trkpt>
      <trkpt lat="44.92012" lon="5.81063">
        <ele>839</ele>
        <time>2022-07-16T09:40:30Z</time>
      </trkpt>
      <trkpt lat="44.92006" lon="5.81068">
        <ele>839.1</ele>
        <time>2022-07-16T09:40:31Z</time>
      </trkpt>
      <trkpt lat="44.91999" lon="5.81073">
        <ele>839.1</ele>
        <time>2022-07-16T09:40:32Z</time>
      </trkpt>
      <trkpt lat="44.91993" lon="5.81079">
        <ele>839.2</ele>
        <time>2022-07-16T09:40:33Z</time>
      </trkpt>
      <trkpt lat="44.91987" lon="5.81084">
        <ele>839.3</ele>
        <time>2022-07-16T09:40:34Z</time>
      </trkpt>
      <trkpt lat="44.9198" lon="5.81088">
        <ele>839.3</ele>
        <time>2022-07-16T09:40:35Z</time>
      </trkpt>
      <trkpt lat="44.91973" lon="5.81091">
        <ele>839.4</ele>
        <time>2022-07-16T09:40:36Z</time>
      </trkpt>
      <trkpt lat="44.91967" lon="5.81094">
        <ele>839.4</ele>
        <time>2022-07-16T09:40:37Z</time>
      </trkpt>
      <trkpt lat="44.9196" lon="5.81096">
        <ele>839.5</ele>
        <time>2022-07-16T09:40:38Z</time>
      </trkpt>
      <trkpt lat="44.91953" lon="5.81098">
        <ele>839.5</ele>
        <time>2022-07-16T09:40:39Z</time>
      </trkpt>
      <trkpt lat="44.91946" lon="5.81099">
        <ele>839.6</ele>
        <time>2022-07-16T09:40:40Z</time>
      </trkpt>
      <trkpt lat="44.91939" lon="5.81101">
        <ele>839.6</ele>
        <time>2022-07-16T09:40:41Z</time>
      </trkpt>
      <trkpt lat="44.91931" lon="5.81102">
        <ele>839.7</ele>
        <time>2022-07-16T09:40:42Z</time>
      </trkpt>
      <trkpt lat="44.91924" lon="5.81103">
        <ele>839.8</ele>
        <time>2022-07-16T09:40:43Z</time>
      </trkpt>
      <trkpt lat="44.91917" lon="5.81104">
        <ele>839.8</ele>
        <time>2022-07-16T09:40:44Z</time>
      </trkpt>
      <trkpt lat="44.9191" lon="5.81105">
        <ele>839.9</ele>
        <time>2022-07-16T09:40:45Z</time>
      </trkpt>
      <trkpt lat="44.91903" lon="5.81106">
        <ele>839.9</ele>
        <time>2022-07-16T09:40:46Z</time>
      </trkpt>
      <trkpt lat="44.91897" lon="5.81106">
        <ele>840</ele>
        <time>2022-07-16T09:40:47Z</time>
      </trkpt>
      <trkpt lat="44.91891" lon="5.81107">
        <ele>840.1</ele>
        <time>2022-07-16T09:40:48Z</time>
      </trkpt>
      <trkpt lat="44.91885" lon="5.81109">
        <ele>840.2</ele>
        <time>2022-07-16T09:40:49Z</time>
      </trkpt>
      <trkpt lat="44.91879" lon="5.8111">
        <ele>840.2</ele>
        <time>2022-07-16T09:40:50Z</time>
      </trkpt>
      <trkpt lat="44.91873" lon="5.81111">
        <ele>840.3</ele>
        <time>2022-07-16T09:40:51Z</time>
      </trkpt>
      <trkpt lat="44.91866" lon="5.81113">
        <ele>840.3</ele>
        <time>2022-07-16T09:40:52Z</time>
      </trkpt>
      <trkpt lat="44.9186" lon="5.81113">
        <ele>840.4</ele>
        <time>2022-07-16T09:40:53Z</time>
      </trkpt>
      <trkpt lat="44.91855" lon="5.81114">
        <ele>840.5</ele>
        <time>2022-07-16T09:40:54Z</time>
      </trkpt>
      <trkpt lat="44.91849" lon="5.81115">
        <ele>840.5</ele>
        <time>2022-07-16T09:40:55Z</time>
      </trkpt>
      <trkpt lat="44.91843" lon="5.81115">
        <ele>840.6</ele>
        <time>2022-07-16T09:40:56Z</time>
      </trkpt>
      <trkpt lat="44.91837" lon="5.81115">
        <ele>840.7</ele>
        <time>2022-07-16T09:40:57Z</time>
      </trkpt>
      <trkpt lat="44.91831" lon="5.81114">
        <ele>840.7</ele>
        <time>2022-07-16T09:40:58Z</time>
      </trkpt>
      <trkpt lat="44.91826" lon="5.81113">
        <ele>840.8</ele>
        <time>2022-07-16T09:40:59Z</time>
      </trkpt>
      <trkpt lat="44.9182" lon="5.81112">
        <ele>840.9</ele>
        <time>2022-07-16T09:41:00Z</time>
      </trkpt>
      <trkpt lat="44.91815" lon="5.81112">
        <ele>841</ele>
        <time>2022-07-16T09:41:01Z</time>
      </trkpt>
      <trkpt lat="44.91808" lon="5.81112">
        <ele>841</ele>
        <time>2022-07-16T09:41:02Z</time>
      </trkpt>
      <trkpt lat="44.91802" lon="5.81113">
        <ele>841.1</ele>
        <time>2022-07-16T09:41:03Z</time>
      </trkpt>
      <trkpt lat="44.91797" lon="5.81114">
        <ele>841.2</ele>
        <time>2022-07-16T09:41:04Z</time>
      </trkpt>
      <trkpt lat="44.91791" lon="5.81116">
        <ele>841.4</ele>
        <time>2022-07-16T09:41:05Z</time>
      </trkpt>
      <trkpt lat="44.91785" lon="5.81118">
        <ele>841.5</ele>
        <time>2022-07-16T09:41:06Z</time>
      </trkpt>
      <trkpt lat="44.91779" lon="5.8112">
        <ele>841.6</ele>
        <time>2022-07-16T09:41:07Z</time>
      </trkpt>
      <trkpt lat="44.91773" lon="5.81122">
        <ele>841.7</ele>
        <time>2022-07-16T09:41:08Z</time>
      </trkpt>
      <trkpt lat="44.91767" lon="5.81124">
        <ele>841.7</ele>
        <time>2022-07-16T09:41:09Z</time>
      </trkpt>
      <trkpt lat="44.91761" lon="5.81126">
        <ele>841.8</ele>
        <time>2022-07-16T09:41:10Z</time>
      </trkpt>
      <trkpt lat="44.91755" lon="5.81128">
        <ele>841.8</ele>
        <time>2022-07-16T09:41:11Z</time>
      </trkpt>
      <trkpt lat="44.91749" lon="5.8113">
        <ele>841.8</ele>
        <time>2022-07-16T09:41:12Z</time>
      </trkpt>
      <trkpt lat="44.91744" lon="5.81133">
        <ele>841.7</ele>
        <time>2022-07-16T09:41:13Z</time>
      </trkpt>
      <trkpt lat="44.91739" lon="5.81137">
        <ele>841.7</ele>
        <time>2022-07-16T09:41:14Z</time>
      </trkpt>
      <trkpt lat="44.91734" lon="5.81141">
        <ele>841.6</ele>
        <time>2022-07-16T09:41:15Z</time>
      </trkpt>
      <trkpt lat="44.91729" lon="5.81147">
        <ele>841.5</ele>
        <time>2022-07-16T09:41:16Z</time>
      </trkpt>
      <trkpt lat="44.91723" lon="5.81152">
        <ele>841.4</ele>
        <time>2022-07-16T09:41:17Z</time>
      </trkpt>
      <trkpt lat="44.91717" lon="5.81159">
        <ele>841.3</ele>
        <time>2022-07-16T09:41:18Z</time>
      </trkpt>
      <trkpt lat="44.91712" lon="5.81165">
        <ele>841.2</ele>
        <time>2022-07-16T09:41:19Z</time>
      </trkpt>
      <trkpt lat="44.91706" lon="5.81171">
        <ele>841.1</ele>
        <time>2022-07-16T09:41:20Z</time>
      </trkpt>
      <trkpt lat="44.91701" lon="5.81178">
        <ele>841</ele>
        <time>2022-07-16T09:41:21Z</time>
      </trkpt>
      <trkpt lat="44.91696" lon="5.81185">
        <ele>840.9</ele>
        <time>2022-07-16T09:41:22Z</time>
      </trkpt>
      <trkpt lat="44.9169" lon="5.81192">
        <ele>840.7</ele>
        <time>2022-07-16T09:41:23Z</time>
      </trkpt>
      <trkpt lat="44.91685" lon="5.81199">
        <ele>840.6</ele>
        <time>2022-07-16T09:41:24Z</time>
      </trkpt>
      <trkpt lat="44.9168" lon="5.81207">
        <ele>840.4</ele>
        <time>2022-07-16T09:41:25Z</time>
      </trkpt>
      <trkpt lat="44.91675" lon="5.81214">
        <ele>840.2</ele>
        <time>2022-07-16T09:41:26Z</time>
      </trkpt>
      <trkpt lat="44.91669" lon="5.81222">
        <ele>840.1</ele>
        <time>2022-07-16T09:41:27Z</time>
      </trkpt>
      <trkpt lat="44.91664" lon="5.8123">
        <ele>839.9</ele>
        <time>2022-07-16T09:41:28Z</time>
      </trkpt>
      <trkpt lat="44.91659" lon="5.81239">
        <ele>839.7</ele>
        <time>2022-07-16T09:41:29Z</time>
      </trkpt>
      <trkpt lat="44.91653" lon="5.81248">
        <ele>839.5</ele>
        <time>2022-07-16T09:41:30Z</time>
      </trkpt>
      <trkpt lat="44.91648" lon="5.81256">
        <ele>839.4</ele>
        <time>2022-07-16T09:41:31Z</time>
      </trkpt>
      <trkpt lat="44.91643" lon="5.81264">
        <ele>839.3</ele>
        <time>2022-07-16T09:41:32Z</time>
      </trkpt>
      <trkpt lat="44.91637" lon="5.81273">
        <ele>839.1</ele>
        <time>2022-07-16T09:41:33Z</time>
      </trkpt>
      <trkpt lat="44.91631" lon="5.81282">
        <ele>839</ele>
        <time>2022-07-16T09:41:34Z</time>
      </trkpt>
      <trkpt lat="44.91626" lon="5.8129">
        <ele>838.9</ele>
        <time>2022-07-16T09:41:35Z</time>
      </trkpt>
      <trkpt lat="44.91619" lon="5.81298">
        <ele>838.8</ele>
        <time>2022-07-16T09:41:36Z</time>
      </trkpt>
      <trkpt lat="44.91614" lon="5.81306">
        <ele>838.7</ele>
        <time>2022-07-16T09:41:37Z</time>
      </trkpt>
      <trkpt lat="44.91608" lon="5.81314">
        <ele>838.7</ele>
        <time>2022-07-16T09:41:38Z</time>
      </trkpt>
      <trkpt lat="44.91602" lon="5.81321">
        <ele>838.7</ele>
        <time>2022-07-16T09:41:39Z</time>
      </trkpt>
      <trkpt lat="44.91595" lon="5.81329">
        <ele>838.6</ele>
        <time>2022-07-16T09:41:40Z</time>
      </trkpt>
      <trkpt lat="44.91587" lon="5.81337">
        <ele>838.5</ele>
        <time>2022-07-16T09:41:41Z</time>
      </trkpt>
      <trkpt lat="44.91579" lon="5.81345">
        <ele>838.4</ele>
        <time>2022-07-16T09:41:42Z</time>
      </trkpt>
      <trkpt lat="44.91572" lon="5.81352">
        <ele>838.3</ele>
        <time>2022-07-16T09:41:43Z</time>
      </trkpt>
      <trkpt lat="44.91565" lon="5.81359">
        <ele>838.2</ele>
        <time>2022-07-16T09:41:44Z</time>
      </trkpt>
      <trkpt lat="44.91559" lon="5.81366">
        <ele>838.1</ele>
        <time>2022-07-16T09:41:45Z</time>
      </trkpt>
      <trkpt lat="44.91552" lon="5.81373">
        <ele>838.1</ele>
        <time>2022-07-16T09:41:46Z</time>
      </trkpt>
      <trkpt lat="44.91545" lon="5.81381">
        <ele>838</ele>
        <time>2022-07-16T09:41:47Z</time>
      </trkpt>
      <trkpt lat="44.91539" lon="5.8139">
        <ele>837.9</ele>
        <time>2022-07-16T09:41:48Z</time>
      </trkpt>
      <trkpt lat="44.91533" lon="5.81399">
        <ele>837.8</ele>
        <time>2022-07-16T09:41:49Z</time>
      </trkpt>
      <trkpt lat="44.91528" lon="5.81409">
        <ele>837.8</ele>
        <time>2022-07-16T09:41:50Z</time>
      </trkpt>
      <trkpt lat="44.91523" lon="5.81418">
        <ele>837.7</ele>
        <time>2022-07-16T09:41:51Z</time>
      </trkpt>
      <trkpt lat="44.91519" lon="5.81428">
        <ele>837.7</ele>
        <time>2022-07-16T09:41:52Z</time>
      </trkpt>
      <trkpt lat="44.91515" lon="5.81438">
        <ele>837.6</ele>
        <time>2022-07-16T09:41:53Z</time>
      </trkpt>
      <trkpt lat="44.91511" lon="5.81449">
        <ele>837.5</ele>
        <time>2022-07-16T09:41:54Z</time>
      </trkpt>
      <trkpt lat="44.91507" lon="5.8146">
        <ele>837.4</ele>
        <time>2022-07-16T09:41:55Z</time>
      </trkpt>
      <trkpt lat="44.91503" lon="5.81471">
        <ele>837.3</ele>
        <time>2022-07-16T09:41:56Z</time>
      </trkpt>
      <trkpt lat="44.91499" lon="5.81482">
        <ele>837.2</ele>
        <time>2022-07-16T09:41:57Z</time>
      </trkpt>
      <trkpt lat="44.91494" lon="5.81493">
        <ele>837.1</ele>
        <time>2022-07-16T09:41:58Z</time>
      </trkpt>
      <trkpt lat="44.91489" lon="5.81504">
        <ele>837</ele>
        <time>2022-07-16T09:41:59Z</time>
      </trkpt>
      <trkpt lat="44.91484" lon="5.81516">
        <ele>837</ele>
        <time>2022-07-16T09:42:00Z</time>
      </trkpt>
      <trkpt lat="44.9148" lon="5.81526">
        <ele>837</ele>
        <time>2022-07-16T09:42:01Z</time>
      </trkpt>
      <trkpt lat="44.91475" lon="5.81537">
        <ele>837</ele>
        <time>2022-07-16T09:42:02Z</time>
      </trkpt>
      <trkpt lat="44.9147" lon="5.81547">
        <ele>837</ele>
        <time>2022-07-16T09:42:03Z</time>
      </trkpt>
      <trkpt lat="44.91464" lon="5.81557">
        <ele>837</ele>
        <time>2022-07-16T09:42:04Z</time>
      </trkpt>
      <trkpt lat="44.91458" lon="5.81566">
        <ele>837</ele>
        <time>2022-07-16T09:42:05Z</time>
      </trkpt>
      <trkpt lat="44.91452" lon="5.81576">
        <ele>837</ele>
        <time>2022-07-16T09:42:06Z</time>
      </trkpt>
      <trkpt lat="44.91447" lon="5.81585">
        <ele>837</ele>
        <time>2022-07-16T09:42:07Z</time>
      </trkpt>
      <trkpt lat="44.91442" lon="5.81595">
        <ele>837</ele>
        <time>2022-07-16T09:42:08Z</time>
      </trkpt>
      <trkpt lat="44.91436" lon="5.81605">
        <ele>837</ele>
        <time>2022-07-16T09:42:09Z</time>
      </trkpt>
      <trkpt lat="44.91431" lon="5.81615">
        <ele>837</ele>
        <time>2022-07-16T09:42:10Z</time>
      </trkpt>
      <trkpt lat="44.91427" lon="5.81625">
        <ele>837</ele>
        <time>2022-07-16T09:42:11Z</time>
      </trkpt>
      <trkpt lat="44.91422" lon="5.81635">
        <ele>837</ele>
        <time>2022-07-16T09:42:12Z</time>
      </trkpt>
      <trkpt lat="44.91417" lon="5.81645">
        <ele>837</ele>
        <time>2022-07-16T09:42:13Z</time>
      </trkpt>
      <trkpt lat="44.91411" lon="5.81654">
        <ele>837</ele>
        <time>2022-07-16T09:42:14Z</time>
      </trkpt>
      <trkpt lat="44.91405" lon="5.81663">
        <ele>836.9</ele>
        <time>2022-07-16T09:42:15Z</time>
      </trkpt>
      <trkpt lat="44.91398" lon="5.81671">
        <ele>836.9</ele>
        <time>2022-07-16T09:42:16Z</time>
      </trkpt>
      <trkpt lat="44.91392" lon="5.81678">
        <ele>836.8</ele>
        <time>2022-07-16T09:42:17Z</time>
      </trkpt>
      <trkpt lat="44.91385" lon="5.81685">
        <ele>836.7</ele>
        <time>2022-07-16T09:42:18Z</time>
      </trkpt>
      <trkpt lat="44.91378" lon="5.81692">
        <ele>836.5</ele>
        <time>2022-07-16T09:42:19Z</time>
      </trkpt>
      <trkpt lat="44.91371" lon="5.81698">
        <ele>836.3</ele>
        <time>2022-07-16T09:42:20Z</time>
      </trkpt>
      <trkpt lat="44.91363" lon="5.81704">
        <ele>836.1</ele>
        <time>2022-07-16T09:42:21Z</time>
      </trkpt>
      <trkpt lat="44.91356" lon="5.81711">
        <ele>835.9</ele>
        <time>2022-07-16T09:42:22Z</time>
      </trkpt>
      <trkpt lat="44.91349" lon="5.81718">
        <ele>835.6</ele>
        <time>2022-07-16T09:42:23Z</time>
      </trkpt>
      <trkpt lat="44.91341" lon="5.81725">
        <ele>835.2</ele>
        <time>2022-07-16T09:42:24Z</time>
      </trkpt>
      <trkpt lat="44.91333" lon="5.81732">
        <ele>834.8</ele>
        <time>2022-07-16T09:42:25Z</time>
      </trkpt>
      <trkpt lat="44.91325" lon="5.81739">
        <ele>834.4</ele>
        <time>2022-07-16T09:42:26Z</time>
      </trkpt>
      <trkpt lat="44.91318" lon="5.81747">
        <ele>834</ele>
        <time>2022-07-16T09:42:27Z</time>
      </trkpt>
      <trkpt lat="44.91311" lon="5.81754">
        <ele>833.5</ele>
        <time>2022-07-16T09:42:28Z</time>
      </trkpt>
      <trkpt lat="44.91306" lon="5.81765">
        <ele>833</ele>
        <time>2022-07-16T09:42:29Z</time>
      </trkpt>
      <trkpt lat="44.91303" lon="5.81777">
        <ele>832.4</ele>
        <time>2022-07-16T09:42:30Z</time>
      </trkpt>
      <trkpt lat="44.91301" lon="5.81791">
        <ele>831.6</ele>
        <time>2022-07-16T09:42:31Z</time>
      </trkpt>
      <trkpt lat="44.91302" lon="5.81805">
        <ele>830.8</ele>
        <time>2022-07-16T09:42:32Z</time>
      </trkpt>
      <trkpt lat="44.91306" lon="5.81819">
        <ele>829.8</ele>
        <time>2022-07-16T09:42:33Z</time>
      </trkpt>
      <trkpt lat="44.91312" lon="5.81832">
        <ele>828.9</ele>
        <time>2022-07-16T09:42:34Z</time>
      </trkpt>
      <trkpt lat="44.9132" lon="5.81842">
        <ele>828</ele>
        <time>2022-07-16T09:42:35Z</time>
      </trkpt>
      <trkpt lat="44.9133" lon="5.81849">
        <ele>827.2</ele>
        <time>2022-07-16T09:42:36Z</time>
      </trkpt>
      <trkpt lat="44.91341" lon="5.81854">
        <ele>826.4</ele>
        <time>2022-07-16T09:42:37Z</time>
      </trkpt>
      <trkpt lat="44.91352" lon="5.81856">
        <ele>825.7</ele>
        <time>2022-07-16T09:42:38Z</time>
      </trkpt>
      <trkpt lat="44.91363" lon="5.81857">
        <ele>825</ele>
        <time>2022-07-16T09:42:39Z</time>
      </trkpt>
      <trkpt lat="44.91375" lon="5.81857">
        <ele>824.2</ele>
        <time>2022-07-16T09:42:40Z</time>
      </trkpt>
      <trkpt lat="44.91387" lon="5.81858">
        <ele>823.5</ele>
        <time>2022-07-16T09:42:41Z</time>
      </trkpt>
      <trkpt lat="44.91398" lon="5.8186">
        <ele>822.8</ele>
        <time>2022-07-16T09:42:42Z</time>
      </trkpt>
      <trkpt lat="44.91409" lon="5.81863">
        <ele>822.1</ele>
        <time>2022-07-16T09:42:43Z</time>
      </trkpt>
      <trkpt lat="44.91421" lon="5.81867">
        <ele>821.5</ele>
        <time>2022-07-16T09:42:44Z</time>
      </trkpt>
      <trkpt lat="44.91432" lon="5.81871">
        <ele>820.8</ele>
        <time>2022-07-16T09:42:45Z</time>
      </trkpt>
      <trkpt lat="44.91444" lon="5.81876">
        <ele>820.2</ele>
        <time>2022-07-16T09:42:46Z</time>
      </trkpt>
      <trkpt lat="44.91455" lon="5.81884">
        <ele>819.6</ele>
        <time>2022-07-16T09:42:47Z</time>
      </trkpt>
      <trkpt lat="44.91465" lon="5.81894">
        <ele>819</ele>
        <time>2022-07-16T09:42:48Z</time>
      </trkpt>
      <trkpt lat="44.91474" lon="5.81906">
        <ele>818.4</ele>
        <time>2022-07-16T09:42:49Z</time>
      </trkpt>
      <trkpt lat="44.91482" lon="5.81918">
        <ele>817.8</ele>
        <time>2022-07-16T09:42:50Z</time>
      </trkpt>
      <trkpt lat="44.9149" lon="5.8193">
        <ele>817.3</ele>
        <time>2022-07-16T09:42:51Z</time>
      </trkpt>
      <trkpt lat="44.91497" lon="5.81943">
        <ele>816.9</ele>
        <time>2022-07-16T09:42:52Z</time>
      </trkpt>
      <trkpt lat="44.91505" lon="5.81955">
        <ele>816.4</ele>
        <time>2022-07-16T09:42:53Z</time>
      </trkpt>
      <trkpt lat="44.91512" lon="5.81968">
        <ele>815.9</ele>
        <time>2022-07-16T09:42:54Z</time>
      </trkpt>
      <trkpt lat="44.91519" lon="5.8198">
        <ele>815.4</ele>
        <time>2022-07-16T09:42:55Z</time>
      </trkpt>
      <trkpt lat="44.91525" lon="5.81994">
        <ele>814.9</ele>
        <time>2022-07-16T09:42:56Z</time>
      </trkpt>
      <trkpt lat="44.9153" lon="5.82008">
        <ele>814.5</ele>
        <time>2022-07-16T09:42:57Z</time>
      </trkpt>
      <trkpt lat="44.91535" lon="5.82022">
        <ele>814.2</ele>
        <time>2022-07-16T09:42:58Z</time>
      </trkpt>
      <trkpt lat="44.91539" lon="5.82036">
        <ele>813.8</ele>
        <time>2022-07-16T09:42:59Z</time>
      </trkpt>
      <trkpt lat="44.91543" lon="5.8205">
        <ele>813.4</ele>
        <time>2022-07-16T09:43:00Z</time>
      </trkpt>
      <trkpt lat="44.91548" lon="5.82063">
        <ele>813</ele>
        <time>2022-07-16T09:43:01Z</time>
      </trkpt>
      <trkpt lat="44.91552" lon="5.82077">
        <ele>812.7</ele>
        <time>2022-07-16T09:43:02Z</time>
      </trkpt>
      <trkpt lat="44.91556" lon="5.8209">
        <ele>812.3</ele>
        <time>2022-07-16T09:43:03Z</time>
      </trkpt>
      <trkpt lat="44.91561" lon="5.82103">
        <ele>812</ele>
        <time>2022-07-16T09:43:04Z</time>
      </trkpt>
      <trkpt lat="44.91564" lon="5.82116">
        <ele>811.7</ele>
        <time>2022-07-16T09:43:05Z</time>
      </trkpt>
      <trkpt lat="44.91566" lon="5.8213">
        <ele>811.3</ele>
        <time>2022-07-16T09:43:06Z</time>
      </trkpt>
      <trkpt lat="44.91567" lon="5.82144">
        <ele>811.1</ele>
        <time>2022-07-16T09:43:07Z</time>
      </trkpt>
      <trkpt lat="44.91568" lon="5.82158">
        <ele>810.8</ele>
        <time>2022-07-16T09:43:08Z</time>
      </trkpt>
      <trkpt lat="44.91568" lon="5.82172">
        <ele>810.6</ele>
        <time>2022-07-16T09:43:09Z</time>
      </trkpt>
      <trkpt lat="44.9157" lon="5.82186">
        <ele>810.4</ele>
        <time>2022-07-16T09:43:10Z</time>
      </trkpt>
      <trkpt lat="44.91572" lon="5.822">
        <ele>810.2</ele>
        <time>2022-07-16T09:43:11Z</time>
      </trkpt>
      <trkpt lat="44.91575" lon="5.82213">
        <ele>810.1</ele>
        <time>2022-07-16T09:43:12Z</time>
      </trkpt>
      <trkpt lat="44.91578" lon="5.82226">
        <ele>810</ele>
        <time>2022-07-16T09:43:13Z</time>
      </trkpt>
      <trkpt lat="44.91583" lon="5.82237">
        <ele>810</ele>
        <time>2022-07-16T09:43:14Z</time>
      </trkpt>
      <trkpt lat="44.91587" lon="5.82249">
        <ele>809.9</ele>
        <time>2022-07-16T09:43:15Z</time>
      </trkpt>
      <trkpt lat="44.91592" lon="5.8226">
        <ele>809.9</ele>
        <time>2022-07-16T09:43:16Z</time>
      </trkpt>
      <trkpt lat="44.91597" lon="5.82271">
        <ele>810</ele>
        <time>2022-07-16T09:43:17Z</time>
      </trkpt>
      <trkpt lat="44.91602" lon="5.82282">
        <ele>810</ele>
        <time>2022-07-16T09:43:18Z</time>
      </trkpt>
      <trkpt lat="44.91605" lon="5.82293">
        <ele>810</ele>
        <time>2022-07-16T09:43:19Z</time>
      </trkpt>
      <trkpt lat="44.91609" lon="5.82304">
        <ele>810</ele>
        <time>2022-07-16T09:43:20Z</time>
      </trkpt>
      <trkpt lat="44.91614" lon="5.82314">
        <ele>810.1</ele>
        <time>2022-07-16T09:43:21Z</time>
      </trkpt>
      <trkpt lat="44.9162" lon="5.82322">
        <ele>810.1</ele>
        <time>2022-07-16T09:43:22Z</time>
      </trkpt>
      <trkpt lat="44.91623" lon="5.82331">
        <ele>810.1</ele>
        <time>2022-07-16T09:43:23Z</time>
      </trkpt>
      <trkpt lat="44.91622" lon="5.82341">
        <ele>809.9</ele>
        <time>2022-07-16T09:43:24Z</time>
      </trkpt>
      <trkpt lat="44.91618" lon="5.82349">
        <ele>809.6</ele>
        <time>2022-07-16T09:43:25Z</time>
      </trkpt>
      <trkpt lat="44.91613" lon="5.82355">
        <ele>809.1</ele>
        <time>2022-07-16T09:43:26Z</time>
      </trkpt>
      <trkpt lat="44.91608" lon="5.8235">
        <ele>808.7</ele>
        <time>2022-07-16T09:43:27Z</time>
      </trkpt>
      <trkpt lat="44.91604" lon="5.82339">
        <ele>807.9</ele>
        <time>2022-07-16T09:43:28Z</time>
      </trkpt>
      <trkpt lat="44.91599" lon="5.82326">
        <ele>807.1</ele>
        <time>2022-07-16T09:43:29Z</time>
      </trkpt>
      <trkpt lat="44.91595" lon="5.82313">
        <ele>806.3</ele>
        <time>2022-07-16T09:43:30Z</time>
      </trkpt>
      <trkpt lat="44.9159" lon="5.82301">
        <ele>805.6</ele>
        <time>2022-07-16T09:43:31Z</time>
      </trkpt>
      <trkpt lat="44.91584" lon="5.82289">
        <ele>804.9</ele>
        <time>2022-07-16T09:43:32Z</time>
      </trkpt>
      <trkpt lat="44.91578" lon="5.82278">
        <ele>804.2</ele>
        <time>2022-07-16T09:43:33Z</time>
      </trkpt>
      <trkpt lat="44.9157" lon="5.82266">
        <ele>803.5</ele>
        <time>2022-07-16T09:43:34Z</time>
      </trkpt>
      <trkpt lat="44.91565" lon="5.82254">
        <ele>802.8</ele>
        <time>2022-07-16T09:43:35Z</time>
      </trkpt>
      <trkpt lat="44.9156" lon="5.82242">
        <ele>802.2</ele>
        <time>2022-07-16T09:43:36Z</time>
      </trkpt>
      <trkpt lat="44.91554" lon="5.82229">
        <ele>801.5</ele>
        <time>2022-07-16T09:43:37Z</time>
      </trkpt>
      <trkpt lat="44.91548" lon="5.82216">
        <ele>800.8</ele>
        <time>2022-07-16T09:43:38Z</time>
      </trkpt>
      <trkpt lat="44.91541" lon="5.82203">
        <ele>800.1</ele>
        <time>2022-07-16T09:43:39Z</time>
      </trkpt>
      <trkpt lat="44.91535" lon="5.82191">
        <ele>799.5</ele>
        <time>2022-07-16T09:43:40Z</time>
      </trkpt>
      <trkpt lat="44.91528" lon="5.82179">
        <ele>798.9</ele>
        <time>2022-07-16T09:43:41Z</time>
      </trkpt>
      <trkpt lat="44.91522" lon="5.82166">
        <ele>798.2</ele>
        <time>2022-07-16T09:43:42Z</time>
      </trkpt>
      <trkpt lat="44.91515" lon="5.82155">
        <ele>797.8</ele>
        <time>2022-07-16T09:43:43Z</time>
      </trkpt>
      <trkpt lat="44.91508" lon="5.82144">
        <ele>797.4</ele>
        <time>2022-07-16T09:43:44Z</time>
      </trkpt>
      <trkpt lat="44.91501" lon="5.82133">
        <ele>797</ele>
        <time>2022-07-16T09:43:45Z</time>
      </trkpt>
      <trkpt lat="44.91495" lon="5.82122">
        <ele>796.7</ele>
        <time>2022-07-16T09:43:46Z</time>
      </trkpt>
      <trkpt lat="44.91488" lon="5.82112">
        <ele>796.3</ele>
        <time>2022-07-16T09:43:47Z</time>
      </trkpt>
      <trkpt lat="44.91481" lon="5.82101">
        <ele>796</ele>
        <time>2022-07-16T09:43:48Z</time>
      </trkpt>
      <trkpt lat="44.91474" lon="5.8209">
        <ele>795.6</ele>
        <time>2022-07-16T09:43:49Z</time>
      </trkpt>
      <trkpt lat="44.91467" lon="5.82078">
        <ele>795.2</ele>
        <time>2022-07-16T09:43:50Z</time>
      </trkpt>
      <trkpt lat="44.9146" lon="5.82067">
        <ele>794.8</ele>
        <time>2022-07-16T09:43:51Z</time>
      </trkpt>
      <trkpt lat="44.91454" lon="5.82056">
        <ele>794.4</ele>
        <time>2022-07-16T09:43:52Z</time>
      </trkpt>
      <trkpt lat="44.91447" lon="5.82045">
        <ele>794</ele>
        <time>2022-07-16T09:43:53Z</time>
      </trkpt>
      <trkpt lat="44.91441" lon="5.82034">
        <ele>793.6</ele>
        <time>2022-07-16T09:43:54Z</time>
      </trkpt>
      <trkpt lat="44.91433" lon="5.82025">
        <ele>793.2</ele>
        <time>2022-07-16T09:43:55Z</time>
      </trkpt>
      <trkpt lat="44.91424" lon="5.82018">
        <ele>792.8</ele>
        <time>2022-07-16T09:43:56Z</time>
      </trkpt>
      <trkpt lat="44.91416" lon="5.82012">
        <ele>792.4</ele>
        <time>2022-07-16T09:43:57Z</time>
      </trkpt>
      <trkpt lat="44.91406" lon="5.82007">
        <ele>792</ele>
        <time>2022-07-16T09:43:58Z</time>
      </trkpt>
      <trkpt lat="44.91397" lon="5.82002">
        <ele>791.6</ele>
        <time>2022-07-16T09:43:59Z</time>
      </trkpt>
      <trkpt lat="44.91388" lon="5.81997">
        <ele>791.3</ele>
        <time>2022-07-16T09:44:00Z</time>
      </trkpt>
      <trkpt lat="44.91379" lon="5.81991">
        <ele>791</ele>
        <time>2022-07-16T09:44:01Z</time>
      </trkpt>
      <trkpt lat="44.91371" lon="5.81984">
        <ele>790.8</ele>
        <time>2022-07-16T09:44:02Z</time>
      </trkpt>
      <trkpt lat="44.91364" lon="5.81976">
        <ele>790.6</ele>
        <time>2022-07-16T09:44:03Z</time>
      </trkpt>
      <trkpt lat="44.91356" lon="5.81968">
        <ele>790.5</ele>
        <time>2022-07-16T09:44:04Z</time>
      </trkpt>
      <trkpt lat="44.91347" lon="5.81962">
        <ele>790.3</ele>
        <time>2022-07-16T09:44:05Z</time>
      </trkpt>
      <trkpt lat="44.91339" lon="5.81963">
        <ele>790.1</ele>
        <time>2022-07-16T09:44:06Z</time>
      </trkpt>
      <trkpt lat="44.91333" lon="5.81971">
        <ele>789.7</ele>
        <time>2022-07-16T09:44:07Z</time>
      </trkpt>
      <trkpt lat="44.91332" lon="5.81983">
        <ele>789</ele>
        <time>2022-07-16T09:44:08Z</time>
      </trkpt>
      <trkpt lat="44.91335" lon="5.81994">
        <ele>788.2</ele>
        <time>2022-07-16T09:44:09Z</time>
      </trkpt>
      <trkpt lat="44.91341" lon="5.82003">
        <ele>787.4</ele>
        <time>2022-07-16T09:44:10Z</time>
      </trkpt>
      <trkpt lat="44.91347" lon="5.82011">
        <ele>786.7</ele>
        <time>2022-07-16T09:44:11Z</time>
      </trkpt>
      <trkpt lat="44.91353" lon="5.82019">
        <ele>786.1</ele>
        <time>2022-07-16T09:44:12Z</time>
      </trkpt>
      <trkpt lat="44.91359" lon="5.82029">
        <ele>785.5</ele>
        <time>2022-07-16T09:44:13Z</time>
      </trkpt>
      <trkpt lat="44.91366" lon="5.82039">
        <ele>785.2</ele>
        <time>2022-07-16T09:44:14Z</time>
      </trkpt>
      <trkpt lat="44.91372" lon="5.82049">
        <ele>785</ele>
        <time>2022-07-16T09:44:15Z</time>
      </trkpt>
      <trkpt lat="44.91379" lon="5.82059">
        <ele>784.9</ele>
        <time>2022-07-16T09:44:16Z</time>
      </trkpt>
      <trkpt lat="44.91384" lon="5.82071">
        <ele>784.7</ele>
        <time>2022-07-16T09:44:17Z</time>
      </trkpt>
      <trkpt lat="44.9139" lon="5.82083">
        <ele>784.6</ele>
        <time>2022-07-16T09:44:18Z</time>
      </trkpt>
      <trkpt lat="44.91395" lon="5.82094">
        <ele>784.4</ele>
        <time>2022-07-16T09:44:19Z</time>
      </trkpt>
      <trkpt lat="44.91399" lon="5.82107">
        <ele>784.3</ele>
        <time>2022-07-16T09:44:20Z</time>
      </trkpt>
      <trkpt lat="44.91404" lon="5.82119">
        <ele>784.2</ele>
        <time>2022-07-16T09:44:21Z</time>
      </trkpt>
      <trkpt lat="44.91409" lon="5.82132">
        <ele>783.7</ele>
        <time>2022-07-16T09:44:22Z</time>
      </trkpt>
      <trkpt lat="44.91414" lon="5.82144">
        <ele>782.9</ele>
        <time>2022-07-16T09:44:23Z</time>
      </trkpt>
      <trkpt lat="44.91418" lon="5.82157">
        <ele>782</ele>
        <time>2022-07-16T09:44:24Z</time>
      </trkpt>
      <trkpt lat="44.91421" lon="5.82171">
        <ele>782.1</ele>
        <time>2022-07-16T09:44:25Z</time>
      </trkpt>
      <trkpt lat="44.91424" lon="5.82185">
        <ele>780.8</ele>
        <time>2022-07-16T09:44:26Z</time>
      </trkpt>
      <trkpt lat="44.91428" lon="5.82199">
        <ele>779.5</ele>
        <time>2022-07-16T09:44:27Z</time>
      </trkpt>
      <trkpt lat="44.91431" lon="5.82213">
        <ele>778.2</ele>
        <time>2022-07-16T09:44:28Z</time>
      </trkpt>
      <trkpt lat="44.91435" lon="5.82227">
        <ele>777</ele>
        <time>2022-07-16T09:44:29Z</time>
      </trkpt>
      <trkpt lat="44.91439" lon="5.82241">
        <ele>776.4</ele>
        <time>2022-07-16T09:44:30Z</time>
      </trkpt>
      <trkpt lat="44.91442" lon="5.82255">
        <ele>775.7</ele>
        <time>2022-07-16T09:44:31Z</time>
      </trkpt>
      <trkpt lat="44.91445" lon="5.8227">
        <ele>775</ele>
        <time>2022-07-16T09:44:32Z</time>
      </trkpt>
      <trkpt lat="44.91448" lon="5.82285">
        <ele>774.2</ele>
        <time>2022-07-16T09:44:33Z</time>
      </trkpt>
      <trkpt lat="44.91452" lon="5.823">
        <ele>773.5</ele>
        <time>2022-07-16T09:44:34Z</time>
      </trkpt>
      <trkpt lat="44.91455" lon="5.82315">
        <ele>772.7</ele>
        <time>2022-07-16T09:44:35Z</time>
      </trkpt>
      <trkpt lat="44.91459" lon="5.82331">
        <ele>772</ele>
        <time>2022-07-16T09:44:36Z</time>
      </trkpt>
      <trkpt lat="44.91462" lon="5.82346">
        <ele>771.2</ele>
        <time>2022-07-16T09:44:37Z</time>
      </trkpt>
      <trkpt lat="44.91466" lon="5.82362">
        <ele>770.4</ele>
        <time>2022-07-16T09:44:38Z</time>
      </trkpt>
      <trkpt lat="44.91469" lon="5.82378">
        <ele>769.7</ele>
        <time>2022-07-16T09:44:39Z</time>
      </trkpt>
      <trkpt lat="44.9147" lon="5.82394">
        <ele>768.9</ele>
        <time>2022-07-16T09:44:40Z</time>
      </trkpt>
      <trkpt lat="44.91471" lon="5.8241">
        <ele>768.1</ele>
        <time>2022-07-16T09:44:41Z</time>
      </trkpt>
      <trkpt lat="44.91471" lon="5.82426">
        <ele>767.3</ele>
        <time>2022-07-16T09:44:42Z</time>
      </trkpt>
      <trkpt lat="44.91469" lon="5.82443">
        <ele>766.4</ele>
        <time>2022-07-16T09:44:43Z</time>
      </trkpt>
      <trkpt lat="44.91467" lon="5.8246">
        <ele>765.5</ele>
        <time>2022-07-16T09:44:44Z</time>
      </trkpt>
      <trkpt lat="44.91463" lon="5.82476">
        <ele>764.7</ele>
        <time>2022-07-16T09:44:45Z</time>
      </trkpt>
      <trkpt lat="44.9146" lon="5.82493">
        <ele>763.9</ele>
        <time>2022-07-16T09:44:46Z</time>
      </trkpt>
      <trkpt lat="44.91457" lon="5.82508">
        <ele>763.1</ele>
        <time>2022-07-16T09:44:47Z</time>
      </trkpt>
      <trkpt lat="44.91454" lon="5.82525">
        <ele>762.3</ele>
        <time>2022-07-16T09:44:48Z</time>
      </trkpt>
      <trkpt lat="44.91451" lon="5.82541">
        <ele>761.6</ele>
        <time>2022-07-16T09:44:49Z</time>
      </trkpt>
      <trkpt lat="44.91448" lon="5.82558">
        <ele>760.8</ele>
        <time>2022-07-16T09:44:50Z</time>
      </trkpt>
      <trkpt lat="44.91444" lon="5.82574">
        <ele>760.2</ele>
        <time>2022-07-16T09:44:51Z</time>
      </trkpt>
      <trkpt lat="44.91441" lon="5.8259">
        <ele>759.6</ele>
        <time>2022-07-16T09:44:52Z</time>
      </trkpt>
      <trkpt lat="44.91439" lon="5.82606">
        <ele>759.1</ele>
        <time>2022-07-16T09:44:53Z</time>
      </trkpt>
      <trkpt lat="44.91437" lon="5.82623">
        <ele>758.6</ele>
        <time>2022-07-16T09:44:54Z</time>
      </trkpt>
      <trkpt lat="44.91436" lon="5.82639">
        <ele>758.1</ele>
        <time>2022-07-16T09:44:55Z</time>
      </trkpt>
      <trkpt lat="44.91436" lon="5.82654">
        <ele>757.7</ele>
        <time>2022-07-16T09:44:56Z</time>
      </trkpt>
      <trkpt lat="44.91437" lon="5.8267">
        <ele>757.3</ele>
        <time>2022-07-16T09:44:57Z</time>
      </trkpt>
      <trkpt lat="44.91439" lon="5.82684">
        <ele>756.9</ele>
        <time>2022-07-16T09:44:58Z</time>
      </trkpt>
      <trkpt lat="44.91441" lon="5.82698">
        <ele>756.6</ele>
        <time>2022-07-16T09:44:59Z</time>
      </trkpt>
      <trkpt lat="44.91445" lon="5.82712">
        <ele>756.3</ele>
        <time>2022-07-16T09:45:00Z</time>
      </trkpt>
      <trkpt lat="44.9145" lon="5.82725">
        <ele>756</ele>
        <time>2022-07-16T09:45:01Z</time>
      </trkpt>
      <trkpt lat="44.91456" lon="5.82737">
        <ele>755.7</ele>
        <time>2022-07-16T09:45:02Z</time>
      </trkpt>
      <trkpt lat="44.91461" lon="5.82749">
        <ele>755.3</ele>
        <time>2022-07-16T09:45:03Z</time>
      </trkpt>
      <trkpt lat="44.91464" lon="5.82762">
        <ele>754.9</ele>
        <time>2022-07-16T09:45:04Z</time>
      </trkpt>
      <trkpt lat="44.91466" lon="5.82778">
        <ele>754.4</ele>
        <time>2022-07-16T09:45:05Z</time>
      </trkpt>
      <trkpt lat="44.91465" lon="5.82793">
        <ele>754</ele>
        <time>2022-07-16T09:45:06Z</time>
      </trkpt>
      <trkpt lat="44.91463" lon="5.82808">
        <ele>753.6</ele>
        <time>2022-07-16T09:45:07Z</time>
      </trkpt>
      <trkpt lat="44.9146" lon="5.82823">
        <ele>753.2</ele>
        <time>2022-07-16T09:45:08Z</time>
      </trkpt>
      <trkpt lat="44.91456" lon="5.82838">
        <ele>753</ele>
        <time>2022-07-16T09:45:09Z</time>
      </trkpt>
      <trkpt lat="44.9145" lon="5.8285">
        <ele>752.8</ele>
        <time>2022-07-16T09:45:10Z</time>
      </trkpt>
      <trkpt lat="44.91443" lon="5.82862">
        <ele>752.7</ele>
        <time>2022-07-16T09:45:11Z</time>
      </trkpt>
      <trkpt lat="44.91436" lon="5.82873">
        <ele>752.6</ele>
        <time>2022-07-16T09:45:12Z</time>
      </trkpt>
      <trkpt lat="44.91428" lon="5.82883">
        <ele>752.5</ele>
        <time>2022-07-16T09:45:13Z</time>
      </trkpt>
      <trkpt lat="44.91421" lon="5.82892">
        <ele>752.4</ele>
        <time>2022-07-16T09:45:14Z</time>
      </trkpt>
      <trkpt lat="44.91415" lon="5.82902">
        <ele>752.3</ele>
        <time>2022-07-16T09:45:15Z</time>
      </trkpt>
      <trkpt lat="44.91408" lon="5.82912">
        <ele>752.3</ele>
        <time>2022-07-16T09:45:16Z</time>
      </trkpt>
      <trkpt lat="44.91401" lon="5.8292">
        <ele>752.2</ele>
        <time>2022-07-16T09:45:17Z</time>
      </trkpt>
      <trkpt lat="44.91395" lon="5.8293">
        <ele>752.1</ele>
        <time>2022-07-16T09:45:18Z</time>
      </trkpt>
      <trkpt lat="44.91389" lon="5.82939">
        <ele>752.1</ele>
        <time>2022-07-16T09:45:19Z</time>
      </trkpt>
      <trkpt lat="44.91383" lon="5.82949">
        <ele>752</ele>
        <time>2022-07-16T09:45:20Z</time>
      </trkpt>
      <trkpt lat="44.91377" lon="5.82959">
        <ele>752</ele>
        <time>2022-07-16T09:45:21Z</time>
      </trkpt>
      <trkpt lat="44.9137" lon="5.82967">
        <ele>751.9</ele>
        <time>2022-07-16T09:45:22Z</time>
      </trkpt>
      <trkpt lat="44.91363" lon="5.82975">
        <ele>751.9</ele>
        <time>2022-07-16T09:45:23Z</time>
      </trkpt>
      <trkpt lat="44.91355" lon="5.82982">
        <ele>751.9</ele>
        <time>2022-07-16T09:45:24Z</time>
      </trkpt>
      <trkpt lat="44.91347" lon="5.82988">
        <ele>751.9</ele>
        <time>2022-07-16T09:45:25Z</time>
      </trkpt>
      <trkpt lat="44.91339" lon="5.82993">
        <ele>751.9</ele>
        <time>2022-07-16T09:45:26Z</time>
      </trkpt>
      <trkpt lat="44.9133" lon="5.82995">
        <ele>751.9</ele>
        <time>2022-07-16T09:45:27Z</time>
      </trkpt>
      <trkpt lat="44.91321" lon="5.82997">
        <ele>751.9</ele>
        <time>2022-07-16T09:45:28Z</time>
      </trkpt>
      <trkpt lat="44.91312" lon="5.82997">
        <ele>752</ele>
        <time>2022-07-16T09:45:29Z</time>
      </trkpt>
      <trkpt lat="44.91303" lon="5.82997">
        <ele>752</ele>
        <time>2022-07-16T09:45:30Z</time>
      </trkpt>
      <trkpt lat="44.91295" lon="5.82997">
        <ele>752.1</ele>
        <time>2022-07-16T09:45:31Z</time>
      </trkpt>
      <trkpt lat="44.91286" lon="5.82996">
        <ele>752.1</ele>
        <time>2022-07-16T09:45:32Z</time>
      </trkpt>
      <trkpt lat="44.91277" lon="5.82995">
        <ele>752</ele>
        <time>2022-07-16T09:45:33Z</time>
      </trkpt>
      <trkpt lat="44.91269" lon="5.82995">
        <ele>752</ele>
        <time>2022-07-16T09:45:34Z</time>
      </trkpt>
      <trkpt lat="44.9126" lon="5.82995">
        <ele>752</ele>
        <time>2022-07-16T09:45:35Z</time>
      </trkpt>
      <trkpt lat="44.91252" lon="5.82996">
        <ele>752</ele>
        <time>2022-07-16T09:45:36Z</time>
      </trkpt>
      <trkpt lat="44.91245" lon="5.82998">
        <ele>752.1</ele>
        <time>2022-07-16T09:45:37Z</time>
      </trkpt>
      <trkpt lat="44.91237" lon="5.83">
        <ele>752.3</ele>
        <time>2022-07-16T09:45:38Z</time>
      </trkpt>
      <trkpt lat="44.9123" lon="5.83002">
        <ele>752.4</ele>
        <time>2022-07-16T09:45:39Z</time>
      </trkpt>
      <trkpt lat="44.91225" lon="5.83006">
        <ele>752.5</ele>
        <time>2022-07-16T09:45:40Z</time>
      </trkpt>
      <trkpt lat="44.91219" lon="5.83009">
        <ele>752.6</ele>
        <time>2022-07-16T09:45:41Z</time>
      </trkpt>
      <trkpt lat="44.91214" lon="5.83012">
        <ele>752.7</ele>
        <time>2022-07-16T09:45:42Z</time>
      </trkpt>
      <trkpt lat="44.9121" lon="5.83015">
        <ele>753.1</ele>
        <time>2022-07-16T09:45:43Z</time>
      </trkpt>
      <trkpt lat="44.91205" lon="5.83018">
        <ele>753.4</ele>
        <time>2022-07-16T09:45:44Z</time>
      </trkpt>
      <trkpt lat="44.91201" lon="5.83019">
        <ele>753.7</ele>
        <time>2022-07-16T09:45:45Z</time>
      </trkpt>
      <trkpt lat="44.91197" lon="5.8302">
        <ele>753.9</ele>
        <time>2022-07-16T09:45:46Z</time>
      </trkpt>
      <trkpt lat="44.91193" lon="5.83021">
        <ele>754.3</ele>
        <time>2022-07-16T09:45:47Z</time>
      </trkpt>
      <trkpt lat="44.91191" lon="5.83022">
        <ele>754.4</ele>
        <time>2022-07-16T09:45:48Z</time>
      </trkpt>
      <trkpt lat="44.91187" lon="5.83024">
        <ele>754.8</ele>
        <time>2022-07-16T09:45:49Z</time>
      </trkpt>
      <trkpt lat="44.91182" lon="5.83026">
        <ele>755.2</ele>
        <time>2022-07-16T09:45:50Z</time>
      </trkpt>
      <trkpt lat="44.91178" lon="5.83028">
        <ele>755.5</ele>
        <time>2022-07-16T09:45:51Z</time>
      </trkpt>
      <trkpt lat="44.91175" lon="5.8303">
        <ele>755.8</ele>
        <time>2022-07-16T09:45:52Z</time>
      </trkpt>
      <trkpt lat="44.91171" lon="5.83031">
        <ele>756.1</ele>
        <time>2022-07-16T09:45:53Z</time>
      </trkpt>
      <trkpt lat="44.91167" lon="5.83033">
        <ele>756.4</ele>
        <time>2022-07-16T09:45:54Z</time>
      </trkpt>
      <trkpt lat="44.91165" lon="5.83034">
        <ele>756.7</ele>
        <time>2022-07-16T09:45:55Z</time>
      </trkpt>
      <trkpt lat="44.91161" lon="5.83036">
        <ele>757</ele>
        <time>2022-07-16T09:45:56Z</time>
      </trkpt>
      <trkpt lat="44.91157" lon="5.83038">
        <ele>757.3</ele>
        <time>2022-07-16T09:45:57Z</time>
      </trkpt>
      <trkpt lat="44.91156" lon="5.83038">
        <ele>757.5</ele>
        <time>2022-07-16T09:45:58Z</time>
      </trkpt>
      <trkpt lat="44.91153" lon="5.83039">
        <ele>757.8</ele>
        <time>2022-07-16T09:45:59Z</time>
      </trkpt>
      <trkpt lat="44.91149" lon="5.8304">
        <ele>758</ele>
        <time>2022-07-16T09:46:00Z</time>
      </trkpt>
      <trkpt lat="44.91146" lon="5.83041">
        <ele>758.3</ele>
        <time>2022-07-16T09:46:01Z</time>
      </trkpt>
      <trkpt lat="44.91142" lon="5.83042">
        <ele>758.6</ele>
        <time>2022-07-16T09:46:02Z</time>
      </trkpt>
      <trkpt lat="44.91138" lon="5.83042">
        <ele>758.9</ele>
        <time>2022-07-16T09:46:03Z</time>
      </trkpt>
      <trkpt lat="44.91134" lon="5.83043">
        <ele>759.2</ele>
        <time>2022-07-16T09:46:04Z</time>
      </trkpt>
      <trkpt lat="44.9113" lon="5.83044">
        <ele>759.5</ele>
        <time>2022-07-16T09:46:05Z</time>
      </trkpt>
      <trkpt lat="44.91127" lon="5.83045">
        <ele>759.7</ele>
        <time>2022-07-16T09:46:06Z</time>
      </trkpt>
      <trkpt lat="44.91123" lon="5.83046">
        <ele>760</ele>
        <time>2022-07-16T09:46:07Z</time>
      </trkpt>
      <trkpt lat="44.9112" lon="5.83046">
        <ele>760.1</ele>
        <time>2022-07-16T09:46:08Z</time>
      </trkpt>
      <trkpt lat="44.91116" lon="5.83048">
        <ele>760.4</ele>
        <time>2022-07-16T09:46:09Z</time>
      </trkpt>
      <trkpt lat="44.91113" lon="5.83049">
        <ele>760.6</ele>
        <time>2022-07-16T09:46:10Z</time>
      </trkpt>
      <trkpt lat="44.91109" lon="5.8305">
        <ele>760.8</ele>
        <time>2022-07-16T09:46:11Z</time>
      </trkpt>
      <trkpt lat="44.91105" lon="5.83052">
        <ele>761.1</ele>
        <time>2022-07-16T09:46:12Z</time>
      </trkpt>
      <trkpt lat="44.91103" lon="5.83053">
        <ele>761.2</ele>
        <time>2022-07-16T09:46:13Z</time>
      </trkpt>
      <trkpt lat="44.91099" lon="5.83054">
        <ele>761.4</ele>
        <time>2022-07-16T09:46:14Z</time>
      </trkpt>
      <trkpt lat="44.91097" lon="5.83054">
        <ele>761.5</ele>
        <time>2022-07-16T09:46:15Z</time>
      </trkpt>
      <trkpt lat="44.91094" lon="5.83056">
        <ele>761.8</ele>
        <time>2022-07-16T09:46:16Z</time>
      </trkpt>
      <trkpt lat="44.9109" lon="5.83057">
        <ele>762</ele>
        <time>2022-07-16T09:46:17Z</time>
      </trkpt>
      <trkpt lat="44.91088" lon="5.83057">
        <ele>762.1</ele>
        <time>2022-07-16T09:46:18Z</time>
      </trkpt>
      <trkpt lat="44.91085" lon="5.83058">
        <ele>762.3</ele>
        <time>2022-07-16T09:46:19Z</time>
      </trkpt>
      <trkpt lat="44.91081" lon="5.83059">
        <ele>762.6</ele>
        <time>2022-07-16T09:46:20Z</time>
      </trkpt>
      <trkpt lat="44.91078" lon="5.8306">
        <ele>762.8</ele>
        <time>2022-07-16T09:46:21Z</time>
      </trkpt>
      <trkpt lat="44.91071" lon="5.83062">
        <ele>763.2</ele>
        <time>2022-07-16T09:46:22Z</time>
      </trkpt>
      <trkpt lat="44.91064" lon="5.83063">
        <ele>763.7</ele>
        <time>2022-07-16T09:46:24Z</time>
      </trkpt>
      <trkpt lat="44.9106" lon="5.83064">
        <ele>764</ele>
        <time>2022-07-16T09:46:25Z</time>
      </trkpt>
      <trkpt lat="44.91056" lon="5.83065">
        <ele>764.3</ele>
        <time>2022-07-16T09:46:28Z</time>
      </trkpt>
      <trkpt lat="44.91051" lon="5.83065">
        <ele>764.6</ele>
        <time>2022-07-16T09:46:29Z</time>
      </trkpt>
      <trkpt lat="44.91041" lon="5.83065">
        <ele>765.4</ele>
        <time>2022-07-16T09:46:32Z</time>
      </trkpt>
      <trkpt lat="44.91034" lon="5.83065">
        <ele>765.8</ele>
        <time>2022-07-16T09:46:34Z</time>
      </trkpt>
      <trkpt lat="44.91026" lon="5.83065">
        <ele>766.3</ele>
        <time>2022-07-16T09:46:37Z</time>
      </trkpt>
      <trkpt lat="44.9102" lon="5.83062">
        <ele>766.8</ele>
        <time>2022-07-16T09:46:39Z</time>
      </trkpt>
      <trkpt lat="44.91014" lon="5.83061">
        <ele>767.2</ele>
        <time>2022-07-16T09:46:42Z</time>
      </trkpt>
      <trkpt lat="44.91012" lon="5.8306">
        <ele>767.3</ele>
        <time>2022-07-16T09:46:43Z</time>
      </trkpt>
      <trkpt lat="44.9101" lon="5.83059">
        <ele>767.4</ele>
        <time>2022-07-16T09:46:44Z</time>
      </trkpt>
      <trkpt lat="44.91007" lon="5.83057">
        <ele>767.7</ele>
        <time>2022-07-16T09:46:45Z</time>
      </trkpt>
      <trkpt lat="44.91005" lon="5.83056">
        <ele>767.8</ele>
        <time>2022-07-16T09:46:46Z</time>
      </trkpt>
      <trkpt lat="44.91001" lon="5.83055">
        <ele>768</ele>
        <time>2022-07-16T09:46:47Z</time>
      </trkpt>
      <trkpt lat="44.91" lon="5.83054">
        <ele>768.1</ele>
        <time>2022-07-16T09:46:48Z</time>
      </trkpt>
      <trkpt lat="44.90998" lon="5.83053">
        <ele>768.3</ele>
        <time>2022-07-16T09:46:49Z</time>
      </trkpt>
      <trkpt lat="44.90994" lon="5.83051">
        <ele>768.6</ele>
        <time>2022-07-16T09:46:50Z</time>
      </trkpt>
      <trkpt lat="44.90987" lon="5.83048">
        <ele>769</ele>
        <time>2022-07-16T09:46:53Z</time>
      </trkpt>
      <trkpt lat="44.90984" lon="5.83046">
        <ele>769.2</ele>
        <time>2022-07-16T09:46:54Z</time>
      </trkpt>
      <trkpt lat="44.90979" lon="5.83043">
        <ele>769.5</ele>
        <time>2022-07-16T09:46:55Z</time>
      </trkpt>
      <trkpt lat="44.90971" lon="5.83039">
        <ele>770</ele>
        <time>2022-07-16T09:46:58Z</time>
      </trkpt>
      <trkpt lat="44.90966" lon="5.83036">
        <ele>770.4</ele>
        <time>2022-07-16T09:47:00Z</time>
      </trkpt>
      <trkpt lat="44.90959" lon="5.83032">
        <ele>770.8</ele>
        <time>2022-07-16T09:47:03Z</time>
      </trkpt>
      <trkpt lat="44.90957" lon="5.83031">
        <ele>770.9</ele>
        <time>2022-07-16T09:47:04Z</time>
      </trkpt>
      <trkpt lat="44.90955" lon="5.83028">
        <ele>771.1</ele>
        <time>2022-07-16T09:47:05Z</time>
      </trkpt>
      <trkpt lat="44.90952" lon="5.83026">
        <ele>771.3</ele>
        <time>2022-07-16T09:47:06Z</time>
      </trkpt>
      <trkpt lat="44.9095" lon="5.83025">
        <ele>771.4</ele>
        <time>2022-07-16T09:47:07Z</time>
      </trkpt>
      <trkpt lat="44.90946" lon="5.83022">
        <ele>771.6</ele>
        <time>2022-07-16T09:47:08Z</time>
      </trkpt>
      <trkpt lat="44.90945" lon="5.83021">
        <ele>771.7</ele>
        <time>2022-07-16T09:47:09Z</time>
      </trkpt>
      <trkpt lat="44.90942" lon="5.83019">
        <ele>771.9</ele>
        <time>2022-07-16T09:47:10Z</time>
      </trkpt>
      <trkpt lat="44.90938" lon="5.83016">
        <ele>772.1</ele>
        <time>2022-07-16T09:47:11Z</time>
      </trkpt>
      <trkpt lat="44.90937" lon="5.83015">
        <ele>772.2</ele>
        <time>2022-07-16T09:47:12Z</time>
      </trkpt>
      <trkpt lat="44.90934" lon="5.83013">
        <ele>772.4</ele>
        <time>2022-07-16T09:47:13Z</time>
      </trkpt>
      <trkpt lat="44.9093" lon="5.83011">
        <ele>772.6</ele>
        <time>2022-07-16T09:47:14Z</time>
      </trkpt>
      <trkpt lat="44.90923" lon="5.83007">
        <ele>773.1</ele>
        <time>2022-07-16T09:47:17Z</time>
      </trkpt>
      <trkpt lat="44.9092" lon="5.83004">
        <ele>773.3</ele>
        <time>2022-07-16T09:47:18Z</time>
      </trkpt>
      <trkpt lat="44.90919" lon="5.83003">
        <ele>773.4</ele>
        <time>2022-07-16T09:47:19Z</time>
      </trkpt>
      <trkpt lat="44.90916" lon="5.83002">
        <ele>773.5</ele>
        <time>2022-07-16T09:47:20Z</time>
      </trkpt>
      <trkpt lat="44.90913" lon="5.83">
        <ele>773.7</ele>
        <time>2022-07-16T09:47:21Z</time>
      </trkpt>
      <trkpt lat="44.90909" lon="5.82998">
        <ele>773.9</ele>
        <time>2022-07-16T09:47:23Z</time>
      </trkpt>
      <trkpt lat="44.90907" lon="5.82996">
        <ele>774.1</ele>
        <time>2022-07-16T09:47:24Z</time>
      </trkpt>
      <trkpt lat="44.90903" lon="5.82994">
        <ele>774.3</ele>
        <time>2022-07-16T09:47:25Z</time>
      </trkpt>
      <trkpt lat="44.90902" lon="5.82993">
        <ele>774.4</ele>
        <time>2022-07-16T09:47:26Z</time>
      </trkpt>
      <trkpt lat="44.90899" lon="5.82991">
        <ele>774.6</ele>
        <time>2022-07-16T09:47:27Z</time>
      </trkpt>
      <trkpt lat="44.90896" lon="5.8299">
        <ele>774.7</ele>
        <time>2022-07-16T09:47:28Z</time>
      </trkpt>
      <trkpt lat="44.90893" lon="5.82988">
        <ele>774.9</ele>
        <time>2022-07-16T09:47:29Z</time>
      </trkpt>
      <trkpt lat="44.9089" lon="5.82986">
        <ele>775.1</ele>
        <time>2022-07-16T09:47:30Z</time>
      </trkpt>
      <trkpt lat="44.90888" lon="5.82985">
        <ele>775.2</ele>
        <time>2022-07-16T09:47:31Z</time>
      </trkpt>
      <trkpt lat="44.90885" lon="5.82983">
        <ele>775.4</ele>
        <time>2022-07-16T09:47:32Z</time>
      </trkpt>
      <trkpt lat="44.90882" lon="5.82981">
        <ele>775.6</ele>
        <time>2022-07-16T09:47:33Z</time>
      </trkpt>
      <trkpt lat="44.90874" lon="5.82979">
        <ele>776.1</ele>
        <time>2022-07-16T09:47:34Z</time>
      </trkpt>
      <trkpt lat="44.90869" lon="5.82973">
        <ele>776.6</ele>
        <time>2022-07-16T09:47:37Z</time>
      </trkpt>
      <trkpt lat="44.90867" lon="5.82972">
        <ele>776.7</ele>
        <time>2022-07-16T09:47:38Z</time>
      </trkpt>
      <trkpt lat="44.90866" lon="5.82971">
        <ele>776.8</ele>
        <time>2022-07-16T09:47:39Z</time>
      </trkpt>
      <trkpt lat="44.9086" lon="5.82966">
        <ele>777.3</ele>
        <time>2022-07-16T09:47:41Z</time>
      </trkpt>
      <trkpt lat="44.90856" lon="5.82963">
        <ele>777.6</ele>
        <time>2022-07-16T09:47:42Z</time>
      </trkpt>
      <trkpt lat="44.90852" lon="5.82959">
        <ele>777.9</ele>
        <time>2022-07-16T09:47:44Z</time>
      </trkpt>
      <trkpt lat="44.9085" lon="5.82957">
        <ele>778.1</ele>
        <time>2022-07-16T09:47:45Z</time>
      </trkpt>
      <trkpt lat="44.90847" lon="5.82954">
        <ele>778.4</ele>
        <time>2022-07-16T09:47:46Z</time>
      </trkpt>
      <trkpt lat="44.90843" lon="5.82949">
        <ele>778.7</ele>
        <time>2022-07-16T09:47:48Z</time>
      </trkpt>
      <trkpt lat="44.90841" lon="5.82946">
        <ele>779</ele>
        <time>2022-07-16T09:47:49Z</time>
      </trkpt>
      <trkpt lat="44.90839" lon="5.82943">
        <ele>779.2</ele>
        <time>2022-07-16T09:47:50Z</time>
      </trkpt>
      <trkpt lat="44.90837" lon="5.82941">
        <ele>779.4</ele>
        <time>2022-07-16T09:47:51Z</time>
      </trkpt>
      <trkpt lat="44.90835" lon="5.82938">
        <ele>779.6</ele>
        <time>2022-07-16T09:47:52Z</time>
      </trkpt>
      <trkpt lat="44.90831" lon="5.82932">
        <ele>780</ele>
        <time>2022-07-16T09:47:54Z</time>
      </trkpt>
      <trkpt lat="44.90829" lon="5.82929">
        <ele>780.2</ele>
        <time>2022-07-16T09:47:55Z</time>
      </trkpt>
      <trkpt lat="44.90827" lon="5.82926">
        <ele>780.4</ele>
        <time>2022-07-16T09:47:56Z</time>
      </trkpt>
      <trkpt lat="44.90826" lon="5.82923">
        <ele>780.6</ele>
        <time>2022-07-16T09:47:57Z</time>
      </trkpt>
      <trkpt lat="44.90824" lon="5.82919">
        <ele>780.8</ele>
        <time>2022-07-16T09:47:58Z</time>
      </trkpt>
      <trkpt lat="44.90823" lon="5.82916">
        <ele>781</ele>
        <time>2022-07-16T09:47:59Z</time>
      </trkpt>
      <trkpt lat="44.90821" lon="5.82911">
        <ele>781.2</ele>
        <time>2022-07-16T09:48:00Z</time>
      </trkpt>
      <trkpt lat="44.9082" lon="5.82909">
        <ele>781.3</ele>
        <time>2022-07-16T09:48:01Z</time>
      </trkpt>
      <trkpt lat="44.90817" lon="5.82902">
        <ele>781.6</ele>
        <time>2022-07-16T09:48:02Z</time>
      </trkpt>
      <trkpt lat="44.90816" lon="5.82898">
        <ele>781.8</ele>
        <time>2022-07-16T09:48:03Z</time>
      </trkpt>
      <trkpt lat="44.90812" lon="5.82887">
        <ele>782.4</ele>
        <time>2022-07-16T09:48:06Z</time>
      </trkpt>
      <trkpt lat="44.9081" lon="5.8288">
        <ele>782.7</ele>
        <time>2022-07-16T09:48:07Z</time>
      </trkpt>
      <trkpt lat="44.90808" lon="5.8287">
        <ele>783.2</ele>
        <time>2022-07-16T09:48:10Z</time>
      </trkpt>
      <trkpt lat="44.90805" lon="5.82862">
        <ele>783.6</ele>
        <time>2022-07-16T09:48:13Z</time>
      </trkpt>
      <trkpt lat="44.90805" lon="5.82857">
        <ele>783.8</ele>
        <time>2022-07-16T09:48:14Z</time>
      </trkpt>
      <trkpt lat="44.90805" lon="5.82855">
        <ele>783.9</ele>
        <time>2022-07-16T09:48:15Z</time>
      </trkpt>
      <trkpt lat="44.90803" lon="5.8285">
        <ele>784.1</ele>
        <time>2022-07-16T09:48:16Z</time>
      </trkpt>
      <trkpt lat="44.90803" lon="5.82849">
        <ele>784.2</ele>
        <time>2022-07-16T09:48:17Z</time>
      </trkpt>
      <trkpt lat="44.90802" lon="5.82844">
        <ele>784.4</ele>
        <time>2022-07-16T09:48:18Z</time>
      </trkpt>
      <trkpt lat="44.908" lon="5.82834">
        <ele>784.9</ele>
        <time>2022-07-16T09:48:21Z</time>
      </trkpt>
      <trkpt lat="44.90798" lon="5.82829">
        <ele>785.1</ele>
        <time>2022-07-16T09:48:22Z</time>
      </trkpt>
      <trkpt lat="44.90796" lon="5.8282">
        <ele>785.5</ele>
        <time>2022-07-16T09:48:25Z</time>
      </trkpt>
      <trkpt lat="44.90792" lon="5.82813">
        <ele>785.9</ele>
        <time>2022-07-16T09:48:26Z</time>
      </trkpt>
      <trkpt lat="44.90789" lon="5.82806">
        <ele>786.3</ele>
        <time>2022-07-16T09:48:28Z</time>
      </trkpt>
      <trkpt lat="44.90786" lon="5.828">
        <ele>786.6</ele>
        <time>2022-07-16T09:48:30Z</time>
      </trkpt>
      <trkpt lat="44.9078" lon="5.82794">
        <ele>787.1</ele>
        <time>2022-07-16T09:48:32Z</time>
      </trkpt>
      <trkpt lat="44.90774" lon="5.8279">
        <ele>787.5</ele>
        <time>2022-07-16T09:48:34Z</time>
      </trkpt>
      <trkpt lat="44.90769" lon="5.82785">
        <ele>787.8</ele>
        <time>2022-07-16T09:48:37Z</time>
      </trkpt>
      <trkpt lat="44.90762" lon="5.82781">
        <ele>788.2</ele>
        <time>2022-07-16T09:48:40Z</time>
      </trkpt>
      <trkpt lat="44.90757" lon="5.82778">
        <ele>788.4</ele>
        <time>2022-07-16T09:48:41Z</time>
      </trkpt>
      <trkpt lat="44.90747" lon="5.82773">
        <ele>788.8</ele>
        <time>2022-07-16T09:48:44Z</time>
      </trkpt>
      <trkpt lat="44.90741" lon="5.82773">
        <ele>789</ele>
        <time>2022-07-16T09:48:47Z</time>
      </trkpt>
      <trkpt lat="44.90736" lon="5.82773">
        <ele>789.1</ele>
        <time>2022-07-16T09:48:48Z</time>
      </trkpt>
      <trkpt lat="44.90725" lon="5.82776">
        <ele>789.2</ele>
        <time>2022-07-16T09:48:51Z</time>
      </trkpt>
      <trkpt lat="44.90715" lon="5.8278">
        <ele>789.2</ele>
        <time>2022-07-16T09:48:53Z</time>
      </trkpt>
      <trkpt lat="44.90706" lon="5.82786">
        <ele>789.2</ele>
        <time>2022-07-16T09:48:56Z</time>
      </trkpt>
      <trkpt lat="44.90702" lon="5.82789">
        <ele>789.1</ele>
        <time>2022-07-16T09:48:57Z</time>
      </trkpt>
      <trkpt lat="44.90698" lon="5.82793">
        <ele>789.1</ele>
        <time>2022-07-16T09:48:58Z</time>
      </trkpt>
      <trkpt lat="44.90695" lon="5.82797">
        <ele>789</ele>
        <time>2022-07-16T09:48:59Z</time>
      </trkpt>
      <trkpt lat="44.90691" lon="5.82801">
        <ele>789</ele>
        <time>2022-07-16T09:49:00Z</time>
      </trkpt>
      <trkpt lat="44.90687" lon="5.82806">
        <ele>788.9</ele>
        <time>2022-07-16T09:49:01Z</time>
      </trkpt>
      <trkpt lat="44.90684" lon="5.82811">
        <ele>788.8</ele>
        <time>2022-07-16T09:49:02Z</time>
      </trkpt>
      <trkpt lat="44.90681" lon="5.82817">
        <ele>788.7</ele>
        <time>2022-07-16T09:49:03Z</time>
      </trkpt>
      <trkpt lat="44.90677" lon="5.82824">
        <ele>788.6</ele>
        <time>2022-07-16T09:49:04Z</time>
      </trkpt>
      <trkpt lat="44.90674" lon="5.82831">
        <ele>788.5</ele>
        <time>2022-07-16T09:49:05Z</time>
      </trkpt>
      <trkpt lat="44.90671" lon="5.82837">
        <ele>788.3</ele>
        <time>2022-07-16T09:49:06Z</time>
      </trkpt>
      <trkpt lat="44.90667" lon="5.82845">
        <ele>788.1</ele>
        <time>2022-07-16T09:49:07Z</time>
      </trkpt>
      <trkpt lat="44.90663" lon="5.82852">
        <ele>787.9</ele>
        <time>2022-07-16T09:49:08Z</time>
      </trkpt>
      <trkpt lat="44.9066" lon="5.82859">
        <ele>787.7</ele>
        <time>2022-07-16T09:49:09Z</time>
      </trkpt>
      <trkpt lat="44.90656" lon="5.82867">
        <ele>787.4</ele>
        <time>2022-07-16T09:49:10Z</time>
      </trkpt>
      <trkpt lat="44.90651" lon="5.82876">
        <ele>787</ele>
        <time>2022-07-16T09:49:11Z</time>
      </trkpt>
      <trkpt lat="44.90646" lon="5.82884">
        <ele>786.7</ele>
        <time>2022-07-16T09:49:12Z</time>
      </trkpt>
      <trkpt lat="44.90642" lon="5.82892">
        <ele>786.2</ele>
        <time>2022-07-16T09:49:13Z</time>
      </trkpt>
      <trkpt lat="44.90637" lon="5.82901">
        <ele>785.8</ele>
        <time>2022-07-16T09:49:14Z</time>
      </trkpt>
      <trkpt lat="44.90632" lon="5.8291">
        <ele>785.3</ele>
        <time>2022-07-16T09:49:15Z</time>
      </trkpt>
      <trkpt lat="44.90626" lon="5.8292">
        <ele>784.8</ele>
        <time>2022-07-16T09:49:16Z</time>
      </trkpt>
      <trkpt lat="44.90621" lon="5.82929">
        <ele>784.2</ele>
        <time>2022-07-16T09:49:17Z</time>
      </trkpt>
      <trkpt lat="44.90615" lon="5.82938">
        <ele>783.7</ele>
        <time>2022-07-16T09:49:18Z</time>
      </trkpt>
      <trkpt lat="44.90608" lon="5.82947">
        <ele>783</ele>
        <time>2022-07-16T09:49:19Z</time>
      </trkpt>
      <trkpt lat="44.90602" lon="5.82957">
        <ele>782.3</ele>
        <time>2022-07-16T09:49:20Z</time>
      </trkpt>
      <trkpt lat="44.90594" lon="5.82966">
        <ele>781.6</ele>
        <time>2022-07-16T09:49:21Z</time>
      </trkpt>
      <trkpt lat="44.90587" lon="5.82976">
        <ele>780.8</ele>
        <time>2022-07-16T09:49:22Z</time>
      </trkpt>
      <trkpt lat="44.9058" lon="5.82986">
        <ele>780</ele>
        <time>2022-07-16T09:49:23Z</time>
      </trkpt>
      <trkpt lat="44.90572" lon="5.82997">
        <ele>779.2</ele>
        <time>2022-07-16T09:49:24Z</time>
      </trkpt>
      <trkpt lat="44.90565" lon="5.83007">
        <ele>778.3</ele>
        <time>2022-07-16T09:49:25Z</time>
      </trkpt>
      <trkpt lat="44.90556" lon="5.83018">
        <ele>777.4</ele>
        <time>2022-07-16T09:49:26Z</time>
      </trkpt>
      <trkpt lat="44.90548" lon="5.83029">
        <ele>776.5</ele>
        <time>2022-07-16T09:49:27Z</time>
      </trkpt>
      <trkpt lat="44.9054" lon="5.8304">
        <ele>775.7</ele>
        <time>2022-07-16T09:49:28Z</time>
      </trkpt>
      <trkpt lat="44.90532" lon="5.83052">
        <ele>774.8</ele>
        <time>2022-07-16T09:49:29Z</time>
      </trkpt>
      <trkpt lat="44.90523" lon="5.83063">
        <ele>773.9</ele>
        <time>2022-07-16T09:49:30Z</time>
      </trkpt>
      <trkpt lat="44.90514" lon="5.83074">
        <ele>772.9</ele>
        <time>2022-07-16T09:49:31Z</time>
      </trkpt>
      <trkpt lat="44.90505" lon="5.83085">
        <ele>771.9</ele>
        <time>2022-07-16T09:49:32Z</time>
      </trkpt>
      <trkpt lat="44.90495" lon="5.83096">
        <ele>771</ele>
        <time>2022-07-16T09:49:33Z</time>
      </trkpt>
      <trkpt lat="44.90484" lon="5.83105">
        <ele>770</ele>
        <time>2022-07-16T09:49:34Z</time>
      </trkpt>
      <trkpt lat="44.90473" lon="5.83113">
        <ele>769.2</ele>
        <time>2022-07-16T09:49:35Z</time>
      </trkpt>
      <trkpt lat="44.90462" lon="5.83122">
        <ele>768.3</ele>
        <time>2022-07-16T09:49:36Z</time>
      </trkpt>
      <trkpt lat="44.9045" lon="5.8313">
        <ele>767.4</ele>
        <time>2022-07-16T09:49:37Z</time>
      </trkpt>
      <trkpt lat="44.9044" lon="5.8314">
        <ele>766.5</ele>
        <time>2022-07-16T09:49:38Z</time>
      </trkpt>
      <trkpt lat="44.9043" lon="5.83152">
        <ele>765.6</ele>
        <time>2022-07-16T09:49:39Z</time>
      </trkpt>
      <trkpt lat="44.90423" lon="5.83166">
        <ele>764.6</ele>
        <time>2022-07-16T09:49:40Z</time>
      </trkpt>
      <trkpt lat="44.90416" lon="5.83182">
        <ele>763.5</ele>
        <time>2022-07-16T09:49:41Z</time>
      </trkpt>
      <trkpt lat="44.90411" lon="5.83198">
        <ele>762.6</ele>
        <time>2022-07-16T09:49:42Z</time>
      </trkpt>
      <trkpt lat="44.90407" lon="5.83216">
        <ele>761.6</ele>
        <time>2022-07-16T09:49:43Z</time>
      </trkpt>
      <trkpt lat="44.90404" lon="5.83234">
        <ele>760.6</ele>
        <time>2022-07-16T09:49:44Z</time>
      </trkpt>
      <trkpt lat="44.90401" lon="5.83252">
        <ele>759.6</ele>
        <time>2022-07-16T09:49:45Z</time>
      </trkpt>
      <trkpt lat="44.90398" lon="5.8327">
        <ele>758.7</ele>
        <time>2022-07-16T09:49:46Z</time>
      </trkpt>
      <trkpt lat="44.90393" lon="5.83289">
        <ele>757.8</ele>
        <time>2022-07-16T09:49:47Z</time>
      </trkpt>
      <trkpt lat="44.90389" lon="5.83307">
        <ele>757</ele>
        <time>2022-07-16T09:49:48Z</time>
      </trkpt>
      <trkpt lat="44.90382" lon="5.83324">
        <ele>756.1</ele>
        <time>2022-07-16T09:49:49Z</time>
      </trkpt>
      <trkpt lat="44.90374" lon="5.83339">
        <ele>755.3</ele>
        <time>2022-07-16T09:49:50Z</time>
      </trkpt>
      <trkpt lat="44.90364" lon="5.83353">
        <ele>754.5</ele>
        <time>2022-07-16T09:49:51Z</time>
      </trkpt>
      <trkpt lat="44.90354" lon="5.83365">
        <ele>753.6</ele>
        <time>2022-07-16T09:49:52Z</time>
      </trkpt>
      <trkpt lat="44.90343" lon="5.83377">
        <ele>752.8</ele>
        <time>2022-07-16T09:49:53Z</time>
      </trkpt>
      <trkpt lat="44.90332" lon="5.8339">
        <ele>752</ele>
        <time>2022-07-16T09:49:54Z</time>
      </trkpt>
      <trkpt lat="44.90321" lon="5.83404">
        <ele>751.3</ele>
        <time>2022-07-16T09:49:55Z</time>
      </trkpt>
      <trkpt lat="44.90312" lon="5.83419">
        <ele>750.7</ele>
        <time>2022-07-16T09:49:56Z</time>
      </trkpt>
      <trkpt lat="44.90306" lon="5.83436">
        <ele>750.5</ele>
        <time>2022-07-16T09:49:57Z</time>
      </trkpt>
      <trkpt lat="44.90302" lon="5.83454">
        <ele>750.4</ele>
        <time>2022-07-16T09:49:58Z</time>
      </trkpt>
      <trkpt lat="44.90301" lon="5.83473">
        <ele>750.4</ele>
        <time>2022-07-16T09:49:59Z</time>
      </trkpt>
      <trkpt lat="44.90303" lon="5.83491">
        <ele>750.4</ele>
        <time>2022-07-16T09:50:00Z</time>
      </trkpt>
      <trkpt lat="44.90305" lon="5.83509">
        <ele>750.5</ele>
        <time>2022-07-16T09:50:01Z</time>
      </trkpt>
      <trkpt lat="44.90307" lon="5.83527">
        <ele>750.6</ele>
        <time>2022-07-16T09:50:02Z</time>
      </trkpt>
      <trkpt lat="44.9031" lon="5.83544">
        <ele>750.7</ele>
        <time>2022-07-16T09:50:03Z</time>
      </trkpt>
      <trkpt lat="44.90312" lon="5.83561">
        <ele>750.8</ele>
        <time>2022-07-16T09:50:04Z</time>
      </trkpt>
      <trkpt lat="44.90313" lon="5.83578">
        <ele>750.9</ele>
        <time>2022-07-16T09:50:05Z</time>
      </trkpt>
      <trkpt lat="44.90313" lon="5.83594">
        <ele>750.9</ele>
        <time>2022-07-16T09:50:06Z</time>
      </trkpt>
      <trkpt lat="44.90312" lon="5.8361">
        <ele>750.9</ele>
        <time>2022-07-16T09:50:07Z</time>
      </trkpt>
      <trkpt lat="44.90311" lon="5.83626">
        <ele>750.9</ele>
        <time>2022-07-16T09:50:08Z</time>
      </trkpt>
      <trkpt lat="44.90309" lon="5.83641">
        <ele>750.9</ele>
        <time>2022-07-16T09:50:09Z</time>
      </trkpt>
      <trkpt lat="44.90306" lon="5.83656">
        <ele>750.7</ele>
        <time>2022-07-16T09:50:10Z</time>
      </trkpt>
      <trkpt lat="44.90303" lon="5.8367">
        <ele>750.5</ele>
        <time>2022-07-16T09:50:11Z</time>
      </trkpt>
      <trkpt lat="44.90299" lon="5.83683">
        <ele>750.3</ele>
        <time>2022-07-16T09:50:12Z</time>
      </trkpt>
      <trkpt lat="44.90296" lon="5.83696">
        <ele>750</ele>
        <time>2022-07-16T09:50:13Z</time>
      </trkpt>
      <trkpt lat="44.90293" lon="5.83709">
        <ele>749.6</ele>
        <time>2022-07-16T09:50:14Z</time>
      </trkpt>
      <trkpt lat="44.90288" lon="5.83723">
        <ele>749.1</ele>
        <time>2022-07-16T09:50:15Z</time>
      </trkpt>
      <trkpt lat="44.90284" lon="5.83736">
        <ele>748.6</ele>
        <time>2022-07-16T09:50:16Z</time>
      </trkpt>
      <trkpt lat="44.90279" lon="5.8375">
        <ele>748.1</ele>
        <time>2022-07-16T09:50:17Z</time>
      </trkpt>
      <trkpt lat="44.90275" lon="5.83763">
        <ele>747.6</ele>
        <time>2022-07-16T09:50:18Z</time>
      </trkpt>
      <trkpt lat="44.9027" lon="5.83776">
        <ele>747.1</ele>
        <time>2022-07-16T09:50:19Z</time>
      </trkpt>
      <trkpt lat="44.90264" lon="5.8379">
        <ele>746.6</ele>
        <time>2022-07-16T09:50:20Z</time>
      </trkpt>
      <trkpt lat="44.9026" lon="5.83803">
        <ele>746.1</ele>
        <time>2022-07-16T09:50:21Z</time>
      </trkpt>
      <trkpt lat="44.90256" lon="5.83817">
        <ele>745.6</ele>
        <time>2022-07-16T09:50:22Z</time>
      </trkpt>
      <trkpt lat="44.90251" lon="5.83831">
        <ele>745.1</ele>
        <time>2022-07-16T09:50:23Z</time>
      </trkpt>
      <trkpt lat="44.90247" lon="5.83845">
        <ele>744.7</ele>
        <time>2022-07-16T09:50:24Z</time>
      </trkpt>
      <trkpt lat="44.90242" lon="5.83859">
        <ele>744.2</ele>
        <time>2022-07-16T09:50:25Z</time>
      </trkpt>
      <trkpt lat="44.90238" lon="5.83873">
        <ele>743.9</ele>
        <time>2022-07-16T09:50:26Z</time>
      </trkpt>
      <trkpt lat="44.90235" lon="5.83888">
        <ele>743.5</ele>
        <time>2022-07-16T09:50:27Z</time>
      </trkpt>
      <trkpt lat="44.90231" lon="5.83902">
        <ele>743.2</ele>
        <time>2022-07-16T09:50:28Z</time>
      </trkpt>
      <trkpt lat="44.90227" lon="5.83916">
        <ele>742.8</ele>
        <time>2022-07-16T09:50:29Z</time>
      </trkpt>
      <trkpt lat="44.90223" lon="5.8393">
        <ele>742.4</ele>
        <time>2022-07-16T09:50:30Z</time>
      </trkpt>
      <trkpt lat="44.90218" lon="5.83944">
        <ele>742</ele>
        <time>2022-07-16T09:50:31Z</time>
      </trkpt>
      <trkpt lat="44.90214" lon="5.83958">
        <ele>741.6</ele>
        <time>2022-07-16T09:50:32Z</time>
      </trkpt>
      <trkpt lat="44.9021" lon="5.83972">
        <ele>741.3</ele>
        <time>2022-07-16T09:50:33Z</time>
      </trkpt>
      <trkpt lat="44.90206" lon="5.83985">
        <ele>741</ele>
        <time>2022-07-16T09:50:34Z</time>
      </trkpt>
      <trkpt lat="44.90202" lon="5.83999">
        <ele>740.9</ele>
        <time>2022-07-16T09:50:35Z</time>
      </trkpt>
      <trkpt lat="44.90198" lon="5.84012">
        <ele>740.8</ele>
        <time>2022-07-16T09:50:36Z</time>
      </trkpt>
      <trkpt lat="44.90194" lon="5.84026">
        <ele>740.8</ele>
        <time>2022-07-16T09:50:37Z</time>
      </trkpt>
      <trkpt lat="44.90189" lon="5.84039">
        <ele>740.5</ele>
        <time>2022-07-16T09:50:38Z</time>
      </trkpt>
      <trkpt lat="44.90185" lon="5.84052">
        <ele>740.2</ele>
        <time>2022-07-16T09:50:39Z</time>
      </trkpt>
      <trkpt lat="44.90182" lon="5.84065">
        <ele>739.9</ele>
        <time>2022-07-16T09:50:40Z</time>
      </trkpt>
      <trkpt lat="44.90178" lon="5.84077">
        <ele>739.7</ele>
        <time>2022-07-16T09:50:41Z</time>
      </trkpt>
      <trkpt lat="44.90174" lon="5.8409">
        <ele>739.4</ele>
        <time>2022-07-16T09:50:42Z</time>
      </trkpt>
      <trkpt lat="44.9017" lon="5.84102">
        <ele>739.2</ele>
        <time>2022-07-16T09:50:43Z</time>
      </trkpt>
      <trkpt lat="44.90167" lon="5.84114">
        <ele>738.9</ele>
        <time>2022-07-16T09:50:44Z</time>
      </trkpt>
      <trkpt lat="44.90164" lon="5.84127">
        <ele>738.6</ele>
        <time>2022-07-16T09:50:45Z</time>
      </trkpt>
      <trkpt lat="44.90163" lon="5.8414">
        <ele>738.3</ele>
        <time>2022-07-16T09:50:46Z</time>
      </trkpt>
      <trkpt lat="44.90163" lon="5.84154">
        <ele>738</ele>
        <time>2022-07-16T09:50:47Z</time>
      </trkpt>
      <trkpt lat="44.90163" lon="5.84167">
        <ele>737.7</ele>
        <time>2022-07-16T09:50:48Z</time>
      </trkpt>
      <trkpt lat="44.90165" lon="5.84181">
        <ele>737.4</ele>
        <time>2022-07-16T09:50:49Z</time>
      </trkpt>
      <trkpt lat="44.90167" lon="5.84194">
        <ele>737.1</ele>
        <time>2022-07-16T09:50:50Z</time>
      </trkpt>
      <trkpt lat="44.90172" lon="5.84207">
        <ele>736.7</ele>
        <time>2022-07-16T09:50:51Z</time>
      </trkpt>
      <trkpt lat="44.90175" lon="5.84219">
        <ele>736.3</ele>
        <time>2022-07-16T09:50:52Z</time>
      </trkpt>
      <trkpt lat="44.90179" lon="5.84232">
        <ele>736</ele>
        <time>2022-07-16T09:50:53Z</time>
      </trkpt>
      <trkpt lat="44.90183" lon="5.84245">
        <ele>735.6</ele>
        <time>2022-07-16T09:50:54Z</time>
      </trkpt>
      <trkpt lat="44.90186" lon="5.84258">
        <ele>735.2</ele>
        <time>2022-07-16T09:50:55Z</time>
      </trkpt>
      <trkpt lat="44.9019" lon="5.84271">
        <ele>734.8</ele>
        <time>2022-07-16T09:50:56Z</time>
      </trkpt>
      <trkpt lat="44.90193" lon="5.84284">
        <ele>734.5</ele>
        <time>2022-07-16T09:50:57Z</time>
      </trkpt>
      <trkpt lat="44.90196" lon="5.84297">
        <ele>734.2</ele>
        <time>2022-07-16T09:50:58Z</time>
      </trkpt>
      <trkpt lat="44.90199" lon="5.84309">
        <ele>733.9</ele>
        <time>2022-07-16T09:50:59Z</time>
      </trkpt>
      <trkpt lat="44.90203" lon="5.84322">
        <ele>733.7</ele>
        <time>2022-07-16T09:51:00Z</time>
      </trkpt>
      <trkpt lat="44.90206" lon="5.84334">
        <ele>733.4</ele>
        <time>2022-07-16T09:51:01Z</time>
      </trkpt>
      <trkpt lat="44.90209" lon="5.84347">
        <ele>733.1</ele>
        <time>2022-07-16T09:51:02Z</time>
      </trkpt>
      <trkpt lat="44.90212" lon="5.8436">
        <ele>732.9</ele>
        <time>2022-07-16T09:51:03Z</time>
      </trkpt>
      <trkpt lat="44.90214" lon="5.84374">
        <ele>732.7</ele>
        <time>2022-07-16T09:51:04Z</time>
      </trkpt>
      <trkpt lat="44.90216" lon="5.84387">
        <ele>732.4</ele>
        <time>2022-07-16T09:51:05Z</time>
      </trkpt>
      <trkpt lat="44.90217" lon="5.844">
        <ele>732.1</ele>
        <time>2022-07-16T09:51:06Z</time>
      </trkpt>
      <trkpt lat="44.90218" lon="5.84414">
        <ele>731.8</ele>
        <time>2022-07-16T09:51:07Z</time>
      </trkpt>
      <trkpt lat="44.90219" lon="5.84427">
        <ele>731.5</ele>
        <time>2022-07-16T09:51:08Z</time>
      </trkpt>
      <trkpt lat="44.90219" lon="5.84441">
        <ele>731.2</ele>
        <time>2022-07-16T09:51:09Z</time>
      </trkpt>
      <trkpt lat="44.90219" lon="5.84455">
        <ele>731</ele>
        <time>2022-07-16T09:51:10Z</time>
      </trkpt>
      <trkpt lat="44.90216" lon="5.84467">
        <ele>730.7</ele>
        <time>2022-07-16T09:51:11Z</time>
      </trkpt>
      <trkpt lat="44.90213" lon="5.8448">
        <ele>730.4</ele>
        <time>2022-07-16T09:51:12Z</time>
      </trkpt>
      <trkpt lat="44.90208" lon="5.84493">
        <ele>730.1</ele>
        <time>2022-07-16T09:51:13Z</time>
      </trkpt>
      <trkpt lat="44.90202" lon="5.84504">
        <ele>729.6</ele>
        <time>2022-07-16T09:51:14Z</time>
      </trkpt>
      <trkpt lat="44.90194" lon="5.84514">
        <ele>729.2</ele>
        <time>2022-07-16T09:51:15Z</time>
      </trkpt>
      <trkpt lat="44.90186" lon="5.84522">
        <ele>728.9</ele>
        <time>2022-07-16T09:51:16Z</time>
      </trkpt>
      <trkpt lat="44.90177" lon="5.84529">
        <ele>728.6</ele>
        <time>2022-07-16T09:51:17Z</time>
      </trkpt>
      <trkpt lat="44.90167" lon="5.84535">
        <ele>728.3</ele>
        <time>2022-07-16T09:51:18Z</time>
      </trkpt>
      <trkpt lat="44.90158" lon="5.8454">
        <ele>728.1</ele>
        <time>2022-07-16T09:51:19Z</time>
      </trkpt>
      <trkpt lat="44.90149" lon="5.84543">
        <ele>728</ele>
        <time>2022-07-16T09:51:20Z</time>
      </trkpt>
      <trkpt lat="44.9014" lon="5.84546">
        <ele>727.8</ele>
        <time>2022-07-16T09:51:21Z</time>
      </trkpt>
      <trkpt lat="44.90132" lon="5.8455">
        <ele>727.7</ele>
        <time>2022-07-16T09:51:22Z</time>
      </trkpt>
      <trkpt lat="44.90122" lon="5.84554">
        <ele>727.5</ele>
        <time>2022-07-16T09:51:23Z</time>
      </trkpt>
      <trkpt lat="44.90113" lon="5.84559">
        <ele>727.3</ele>
        <time>2022-07-16T09:51:24Z</time>
      </trkpt>
      <trkpt lat="44.90105" lon="5.84565">
        <ele>727.2</ele>
        <time>2022-07-16T09:51:25Z</time>
      </trkpt>
      <trkpt lat="44.90098" lon="5.84572">
        <ele>726.9</ele>
        <time>2022-07-16T09:51:26Z</time>
      </trkpt>
      <trkpt lat="44.90092" lon="5.84581">
        <ele>726.7</ele>
        <time>2022-07-16T09:51:27Z</time>
      </trkpt>
      <trkpt lat="44.90086" lon="5.84591">
        <ele>726.4</ele>
        <time>2022-07-16T09:51:28Z</time>
      </trkpt>
      <trkpt lat="44.90081" lon="5.84601">
        <ele>726.1</ele>
        <time>2022-07-16T09:51:29Z</time>
      </trkpt>
      <trkpt lat="44.90075" lon="5.84612">
        <ele>725.9</ele>
        <time>2022-07-16T09:51:30Z</time>
      </trkpt>
      <trkpt lat="44.90069" lon="5.84621">
        <ele>725.6</ele>
        <time>2022-07-16T09:51:31Z</time>
      </trkpt>
      <trkpt lat="44.90062" lon="5.8463">
        <ele>725.3</ele>
        <time>2022-07-16T09:51:32Z</time>
      </trkpt>
      <trkpt lat="44.90055" lon="5.84639">
        <ele>725.1</ele>
        <time>2022-07-16T09:51:33Z</time>
      </trkpt>
      <trkpt lat="44.90047" lon="5.84646">
        <ele>724.8</ele>
        <time>2022-07-16T09:51:34Z</time>
      </trkpt>
      <trkpt lat="44.90039" lon="5.84652">
        <ele>724.5</ele>
        <time>2022-07-16T09:51:35Z</time>
      </trkpt>
      <trkpt lat="44.9003" lon="5.84657">
        <ele>724.3</ele>
        <time>2022-07-16T09:51:36Z</time>
      </trkpt>
      <trkpt lat="44.90021" lon="5.8466">
        <ele>724</ele>
        <time>2022-07-16T09:51:37Z</time>
      </trkpt>
      <trkpt lat="44.90012" lon="5.84663">
        <ele>723.8</ele>
        <time>2022-07-16T09:51:38Z</time>
      </trkpt>
      <trkpt lat="44.90003" lon="5.84665">
        <ele>723.5</ele>
        <time>2022-07-16T09:51:39Z</time>
      </trkpt>
      <trkpt lat="44.89994" lon="5.84666">
        <ele>723.3</ele>
        <time>2022-07-16T09:51:40Z</time>
      </trkpt>
      <trkpt lat="44.89985" lon="5.84666">
        <ele>723</ele>
        <time>2022-07-16T09:51:41Z</time>
      </trkpt>
      <trkpt lat="44.89976" lon="5.84664">
        <ele>722.7</ele>
        <time>2022-07-16T09:51:42Z</time>
      </trkpt>
      <trkpt lat="44.89968" lon="5.84663">
        <ele>722.5</ele>
        <time>2022-07-16T09:51:43Z</time>
      </trkpt>
      <trkpt lat="44.89958" lon="5.8466">
        <ele>722.2</ele>
        <time>2022-07-16T09:51:44Z</time>
      </trkpt>
      <trkpt lat="44.8995" lon="5.84659">
        <ele>721.9</ele>
        <time>2022-07-16T09:51:45Z</time>
      </trkpt>
      <trkpt lat="44.89941" lon="5.84657">
        <ele>721.6</ele>
        <time>2022-07-16T09:51:46Z</time>
      </trkpt>
      <trkpt lat="44.89932" lon="5.84656">
        <ele>721.4</ele>
        <time>2022-07-16T09:51:47Z</time>
      </trkpt>
      <trkpt lat="44.89923" lon="5.84655">
        <ele>721.1</ele>
        <time>2022-07-16T09:51:48Z</time>
      </trkpt>
      <trkpt lat="44.89913" lon="5.84656">
        <ele>720.9</ele>
        <time>2022-07-16T09:51:49Z</time>
      </trkpt>
      <trkpt lat="44.89904" lon="5.84658">
        <ele>720.6</ele>
        <time>2022-07-16T09:51:50Z</time>
      </trkpt>
      <trkpt lat="44.89896" lon="5.84662">
        <ele>720.4</ele>
        <time>2022-07-16T09:51:51Z</time>
      </trkpt>
      <trkpt lat="44.89887" lon="5.84668">
        <ele>720.1</ele>
        <time>2022-07-16T09:51:52Z</time>
      </trkpt>
      <trkpt lat="44.89879" lon="5.84674">
        <ele>719.9</ele>
        <time>2022-07-16T09:51:53Z</time>
      </trkpt>
      <trkpt lat="44.89871" lon="5.84681">
        <ele>719.6</ele>
        <time>2022-07-16T09:51:54Z</time>
      </trkpt>
      <trkpt lat="44.89864" lon="5.8469">
        <ele>719.4</ele>
        <time>2022-07-16T09:51:55Z</time>
      </trkpt>
      <trkpt lat="44.89857" lon="5.84699">
        <ele>719.2</ele>
        <time>2022-07-16T09:51:56Z</time>
      </trkpt>
      <trkpt lat="44.89851" lon="5.84709">
        <ele>719</ele>
        <time>2022-07-16T09:51:57Z</time>
      </trkpt>
      <trkpt lat="44.89847" lon="5.8472">
        <ele>718.7</ele>
        <time>2022-07-16T09:51:58Z</time>
      </trkpt>
      <trkpt lat="44.89842" lon="5.84732">
        <ele>718.5</ele>
        <time>2022-07-16T09:51:59Z</time>
      </trkpt>
      <trkpt lat="44.89838" lon="5.84744">
        <ele>718.2</ele>
        <time>2022-07-16T09:52:00Z</time>
      </trkpt>
      <trkpt lat="44.89834" lon="5.84755">
        <ele>718</ele>
        <time>2022-07-16T09:52:01Z</time>
      </trkpt>
      <trkpt lat="44.89831" lon="5.84767">
        <ele>717.7</ele>
        <time>2022-07-16T09:52:02Z</time>
      </trkpt>
      <trkpt lat="44.89827" lon="5.8478">
        <ele>717.5</ele>
        <time>2022-07-16T09:52:03Z</time>
      </trkpt>
      <trkpt lat="44.89823" lon="5.84791">
        <ele>717.3</ele>
        <time>2022-07-16T09:52:04Z</time>
      </trkpt>
      <trkpt lat="44.89819" lon="5.84803">
        <ele>717</ele>
        <time>2022-07-16T09:52:05Z</time>
      </trkpt>
      <trkpt lat="44.89815" lon="5.84815">
        <ele>716.8</ele>
        <time>2022-07-16T09:52:06Z</time>
      </trkpt>
      <trkpt lat="44.89811" lon="5.84827">
        <ele>716.5</ele>
        <time>2022-07-16T09:52:07Z</time>
      </trkpt>
      <trkpt lat="44.89807" lon="5.84839">
        <ele>716.3</ele>
        <time>2022-07-16T09:52:08Z</time>
      </trkpt>
      <trkpt lat="44.89803" lon="5.84851">
        <ele>716.1</ele>
        <time>2022-07-16T09:52:09Z</time>
      </trkpt>
      <trkpt lat="44.89799" lon="5.84863">
        <ele>715.9</ele>
        <time>2022-07-16T09:52:10Z</time>
      </trkpt>
      <trkpt lat="44.89796" lon="5.84875">
        <ele>715.8</ele>
        <time>2022-07-16T09:52:11Z</time>
      </trkpt>
      <trkpt lat="44.89792" lon="5.84886">
        <ele>715.6</ele>
        <time>2022-07-16T09:52:12Z</time>
      </trkpt>
      <trkpt lat="44.89789" lon="5.84898">
        <ele>715.3</ele>
        <time>2022-07-16T09:52:13Z</time>
      </trkpt>
      <trkpt lat="44.89785" lon="5.84909">
        <ele>715.1</ele>
        <time>2022-07-16T09:52:14Z</time>
      </trkpt>
      <trkpt lat="44.89781" lon="5.8492">
        <ele>714.9</ele>
        <time>2022-07-16T09:52:15Z</time>
      </trkpt>
      <trkpt lat="44.89778" lon="5.84931">
        <ele>714.7</ele>
        <time>2022-07-16T09:52:16Z</time>
      </trkpt>
      <trkpt lat="44.89774" lon="5.84942">
        <ele>714.4</ele>
        <time>2022-07-16T09:52:17Z</time>
      </trkpt>
      <trkpt lat="44.89769" lon="5.84952">
        <ele>714.2</ele>
        <time>2022-07-16T09:52:18Z</time>
      </trkpt>
      <trkpt lat="44.89765" lon="5.84962">
        <ele>714</ele>
        <time>2022-07-16T09:52:19Z</time>
      </trkpt>
      <trkpt lat="44.89759" lon="5.84972">
        <ele>713.8</ele>
        <time>2022-07-16T09:52:20Z</time>
      </trkpt>
      <trkpt lat="44.89753" lon="5.84981">
        <ele>713.6</ele>
        <time>2022-07-16T09:52:21Z</time>
      </trkpt>
      <trkpt lat="44.89746" lon="5.84989">
        <ele>713.3</ele>
        <time>2022-07-16T09:52:22Z</time>
      </trkpt>
      <trkpt lat="44.89739" lon="5.84995">
        <ele>713.1</ele>
        <time>2022-07-16T09:52:23Z</time>
      </trkpt>
      <trkpt lat="44.89732" lon="5.85001">
        <ele>712.9</ele>
        <time>2022-07-16T09:52:24Z</time>
      </trkpt>
      <trkpt lat="44.89724" lon="5.85007">
        <ele>712.7</ele>
        <time>2022-07-16T09:52:25Z</time>
      </trkpt>
      <trkpt lat="44.89717" lon="5.85013">
        <ele>712.6</ele>
        <time>2022-07-16T09:52:26Z</time>
      </trkpt>
      <trkpt lat="44.8971" lon="5.8502">
        <ele>712.5</ele>
        <time>2022-07-16T09:52:27Z</time>
      </trkpt>
      <trkpt lat="44.89704" lon="5.85027">
        <ele>712.4</ele>
        <time>2022-07-16T09:52:28Z</time>
      </trkpt>
      <trkpt lat="44.89697" lon="5.85035">
        <ele>712.3</ele>
        <time>2022-07-16T09:52:29Z</time>
      </trkpt>
      <trkpt lat="44.89691" lon="5.85044">
        <ele>712.1</ele>
        <time>2022-07-16T09:52:30Z</time>
      </trkpt>
      <trkpt lat="44.89685" lon="5.85054">
        <ele>711.9</ele>
        <time>2022-07-16T09:52:31Z</time>
      </trkpt>
      <trkpt lat="44.89681" lon="5.85064">
        <ele>711.7</ele>
        <time>2022-07-16T09:52:32Z</time>
      </trkpt>
      <trkpt lat="44.89676" lon="5.85075">
        <ele>711.5</ele>
        <time>2022-07-16T09:52:33Z</time>
      </trkpt>
      <trkpt lat="44.89672" lon="5.85086">
        <ele>711.3</ele>
        <time>2022-07-16T09:52:34Z</time>
      </trkpt>
      <trkpt lat="44.89669" lon="5.85097">
        <ele>711.1</ele>
        <time>2022-07-16T09:52:35Z</time>
      </trkpt>
      <trkpt lat="44.89666" lon="5.85108">
        <ele>710.9</ele>
        <time>2022-07-16T09:52:36Z</time>
      </trkpt>
      <trkpt lat="44.89662" lon="5.85121">
        <ele>710.8</ele>
        <time>2022-07-16T09:52:37Z</time>
      </trkpt>
      <trkpt lat="44.89658" lon="5.85132">
        <ele>710.7</ele>
        <time>2022-07-16T09:52:38Z</time>
      </trkpt>
      <trkpt lat="44.89655" lon="5.85144">
        <ele>710.5</ele>
        <time>2022-07-16T09:52:39Z</time>
      </trkpt>
      <trkpt lat="44.89651" lon="5.85155">
        <ele>710.4</ele>
        <time>2022-07-16T09:52:40Z</time>
      </trkpt>
      <trkpt lat="44.89647" lon="5.85167">
        <ele>710.2</ele>
        <time>2022-07-16T09:52:41Z</time>
      </trkpt>
      <trkpt lat="44.89643" lon="5.85178">
        <ele>710</ele>
        <time>2022-07-16T09:52:42Z</time>
      </trkpt>
      <trkpt lat="44.89639" lon="5.8519">
        <ele>709.8</ele>
        <time>2022-07-16T09:52:43Z</time>
      </trkpt>
      <trkpt lat="44.89636" lon="5.85201">
        <ele>709.5</ele>
        <time>2022-07-16T09:52:44Z</time>
      </trkpt>
      <trkpt lat="44.89632" lon="5.85214">
        <ele>709.2</ele>
        <time>2022-07-16T09:52:45Z</time>
      </trkpt>
      <trkpt lat="44.89629" lon="5.85226">
        <ele>708.8</ele>
        <time>2022-07-16T09:52:46Z</time>
      </trkpt>
      <trkpt lat="44.89628" lon="5.85237">
        <ele>708.5</ele>
        <time>2022-07-16T09:52:47Z</time>
      </trkpt>
      <trkpt lat="44.89626" lon="5.8525">
        <ele>708</ele>
        <time>2022-07-16T09:52:48Z</time>
      </trkpt>
      <trkpt lat="44.89624" lon="5.85264">
        <ele>707.6</ele>
        <time>2022-07-16T09:52:49Z</time>
      </trkpt>
      <trkpt lat="44.89623" lon="5.85279">
        <ele>707.1</ele>
        <time>2022-07-16T09:52:50Z</time>
      </trkpt>
      <trkpt lat="44.89621" lon="5.85294">
        <ele>706.6</ele>
        <time>2022-07-16T09:52:51Z</time>
      </trkpt>
      <trkpt lat="44.8962" lon="5.85309">
        <ele>706</ele>
        <time>2022-07-16T09:52:52Z</time>
      </trkpt>
      <trkpt lat="44.8962" lon="5.85325">
        <ele>705.5</ele>
        <time>2022-07-16T09:52:53Z</time>
      </trkpt>
      <trkpt lat="44.89618" lon="5.8534">
        <ele>705</ele>
        <time>2022-07-16T09:52:54Z</time>
      </trkpt>
      <trkpt lat="44.89617" lon="5.85355">
        <ele>704.5</ele>
        <time>2022-07-16T09:52:55Z</time>
      </trkpt>
      <trkpt lat="44.89616" lon="5.85371">
        <ele>703.9</ele>
        <time>2022-07-16T09:52:56Z</time>
      </trkpt>
      <trkpt lat="44.89615" lon="5.85386">
        <ele>703.3</ele>
        <time>2022-07-16T09:52:57Z</time>
      </trkpt>
      <trkpt lat="44.89615" lon="5.85402">
        <ele>702.7</ele>
        <time>2022-07-16T09:52:58Z</time>
      </trkpt>
      <trkpt lat="44.89616" lon="5.85417">
        <ele>702.1</ele>
        <time>2022-07-16T09:52:59Z</time>
      </trkpt>
      <trkpt lat="44.89619" lon="5.85432">
        <ele>701.5</ele>
        <time>2022-07-16T09:53:00Z</time>
      </trkpt>
      <trkpt lat="44.89623" lon="5.85446">
        <ele>700.9</ele>
        <time>2022-07-16T09:53:01Z</time>
      </trkpt>
      <trkpt lat="44.89626" lon="5.85461">
        <ele>700.4</ele>
        <time>2022-07-16T09:53:02Z</time>
      </trkpt>
      <trkpt lat="44.8963" lon="5.85476">
        <ele>699.9</ele>
        <time>2022-07-16T09:53:03Z</time>
      </trkpt>
      <trkpt lat="44.89632" lon="5.85491">
        <ele>699.5</ele>
        <time>2022-07-16T09:53:04Z</time>
      </trkpt>
      <trkpt lat="44.89634" lon="5.85506">
        <ele>699.2</ele>
        <time>2022-07-16T09:53:05Z</time>
      </trkpt>
      <trkpt lat="44.89634" lon="5.85521">
        <ele>699</ele>
        <time>2022-07-16T09:53:06Z</time>
      </trkpt>
      <trkpt lat="44.89634" lon="5.85536">
        <ele>698.9</ele>
        <time>2022-07-16T09:53:07Z</time>
      </trkpt>
      <trkpt lat="44.89632" lon="5.8555">
        <ele>698.9</ele>
        <time>2022-07-16T09:53:08Z</time>
      </trkpt>
      <trkpt lat="44.89631" lon="5.85563">
        <ele>698.9</ele>
        <time>2022-07-16T09:53:09Z</time>
      </trkpt>
      <trkpt lat="44.89631" lon="5.85575">
        <ele>698.9</ele>
        <time>2022-07-16T09:53:10Z</time>
      </trkpt>
      <trkpt lat="44.8963" lon="5.85586">
        <ele>699</ele>
        <time>2022-07-16T09:53:11Z</time>
      </trkpt>
      <trkpt lat="44.89629" lon="5.85598">
        <ele>699</ele>
        <time>2022-07-16T09:53:12Z</time>
      </trkpt>
      <trkpt lat="44.89628" lon="5.85609">
        <ele>699.1</ele>
        <time>2022-07-16T09:53:13Z</time>
      </trkpt>
      <trkpt lat="44.89627" lon="5.8562">
        <ele>699.2</ele>
        <time>2022-07-16T09:53:14Z</time>
      </trkpt>
      <trkpt lat="44.89628" lon="5.85631">
        <ele>699.2</ele>
        <time>2022-07-16T09:53:15Z</time>
      </trkpt>
      <trkpt lat="44.89628" lon="5.85641">
        <ele>699.3</ele>
        <time>2022-07-16T09:53:16Z</time>
      </trkpt>
      <trkpt lat="44.8963" lon="5.85652">
        <ele>699.3</ele>
        <time>2022-07-16T09:53:17Z</time>
      </trkpt>
      <trkpt lat="44.89632" lon="5.85662">
        <ele>699.4</ele>
        <time>2022-07-16T09:53:18Z</time>
      </trkpt>
      <trkpt lat="44.89634" lon="5.85672">
        <ele>699.3</ele>
        <time>2022-07-16T09:53:19Z</time>
      </trkpt>
      <trkpt lat="44.89638" lon="5.85682">
        <ele>699.3</ele>
        <time>2022-07-16T09:53:20Z</time>
      </trkpt>
      <trkpt lat="44.89642" lon="5.85691">
        <ele>699.2</ele>
        <time>2022-07-16T09:53:21Z</time>
      </trkpt>
      <trkpt lat="44.89647" lon="5.85699">
        <ele>699.2</ele>
        <time>2022-07-16T09:53:22Z</time>
      </trkpt>
      <trkpt lat="44.89653" lon="5.85706">
        <ele>699.2</ele>
        <time>2022-07-16T09:53:23Z</time>
      </trkpt>
      <trkpt lat="44.89659" lon="5.85711">
        <ele>699.2</ele>
        <time>2022-07-16T09:53:24Z</time>
      </trkpt>
      <trkpt lat="44.89666" lon="5.85716">
        <ele>699.1</ele>
        <time>2022-07-16T09:53:25Z</time>
      </trkpt>
      <trkpt lat="44.89673" lon="5.8572">
        <ele>699.1</ele>
        <time>2022-07-16T09:53:26Z</time>
      </trkpt>
      <trkpt lat="44.89681" lon="5.85723">
        <ele>699.1</ele>
        <time>2022-07-16T09:53:27Z</time>
      </trkpt>
      <trkpt lat="44.89687" lon="5.85728">
        <ele>699</ele>
        <time>2022-07-16T09:53:28Z</time>
      </trkpt>
      <trkpt lat="44.89694" lon="5.85732">
        <ele>699</ele>
        <time>2022-07-16T09:53:29Z</time>
      </trkpt>
      <trkpt lat="44.89701" lon="5.85737">
        <ele>699</ele>
        <time>2022-07-16T09:53:30Z</time>
      </trkpt>
      <trkpt lat="44.89708" lon="5.85743">
        <ele>698.9</ele>
        <time>2022-07-16T09:53:31Z</time>
      </trkpt>
      <trkpt lat="44.89715" lon="5.85749">
        <ele>698.8</ele>
        <time>2022-07-16T09:53:32Z</time>
      </trkpt>
      <trkpt lat="44.89722" lon="5.85755">
        <ele>698.6</ele>
        <time>2022-07-16T09:53:33Z</time>
      </trkpt>
      <trkpt lat="44.89728" lon="5.85762">
        <ele>698.5</ele>
        <time>2022-07-16T09:53:34Z</time>
      </trkpt>
      <trkpt lat="44.89734" lon="5.85769">
        <ele>698.4</ele>
        <time>2022-07-16T09:53:35Z</time>
      </trkpt>
      <trkpt lat="44.89739" lon="5.85777">
        <ele>698.2</ele>
        <time>2022-07-16T09:53:36Z</time>
      </trkpt>
      <trkpt lat="44.89745" lon="5.85785">
        <ele>698.1</ele>
        <time>2022-07-16T09:53:37Z</time>
      </trkpt>
      <trkpt lat="44.89751" lon="5.85794">
        <ele>698</ele>
        <time>2022-07-16T09:53:38Z</time>
      </trkpt>
      <trkpt lat="44.89756" lon="5.85803">
        <ele>697.8</ele>
        <time>2022-07-16T09:53:39Z</time>
      </trkpt>
      <trkpt lat="44.89761" lon="5.85813">
        <ele>697.6</ele>
        <time>2022-07-16T09:53:40Z</time>
      </trkpt>
      <trkpt lat="44.89765" lon="5.85823">
        <ele>697.5</ele>
        <time>2022-07-16T09:53:41Z</time>
      </trkpt>
      <trkpt lat="44.89768" lon="5.85834">
        <ele>697.3</ele>
        <time>2022-07-16T09:53:42Z</time>
      </trkpt>
      <trkpt lat="44.89772" lon="5.85845">
        <ele>697.1</ele>
        <time>2022-07-16T09:53:43Z</time>
      </trkpt>
      <trkpt lat="44.89776" lon="5.85855">
        <ele>696.9</ele>
        <time>2022-07-16T09:53:44Z</time>
      </trkpt>
      <trkpt lat="44.8978" lon="5.85865">
        <ele>696.7</ele>
        <time>2022-07-16T09:53:45Z</time>
      </trkpt>
      <trkpt lat="44.89783" lon="5.85875">
        <ele>696.5</ele>
        <time>2022-07-16T09:53:46Z</time>
      </trkpt>
      <trkpt lat="44.89787" lon="5.85885">
        <ele>696.4</ele>
        <time>2022-07-16T09:53:47Z</time>
      </trkpt>
      <trkpt lat="44.89791" lon="5.85895">
        <ele>696.2</ele>
        <time>2022-07-16T09:53:48Z</time>
      </trkpt>
      <trkpt lat="44.89795" lon="5.85906">
        <ele>696.1</ele>
        <time>2022-07-16T09:53:49Z</time>
      </trkpt>
      <trkpt lat="44.89798" lon="5.85916">
        <ele>695.9</ele>
        <time>2022-07-16T09:53:50Z</time>
      </trkpt>
      <trkpt lat="44.89802" lon="5.85927">
        <ele>695.8</ele>
        <time>2022-07-16T09:53:51Z</time>
      </trkpt>
      <trkpt lat="44.89806" lon="5.85937">
        <ele>695.6</ele>
        <time>2022-07-16T09:53:52Z</time>
      </trkpt>
      <trkpt lat="44.8981" lon="5.85947">
        <ele>695.5</ele>
        <time>2022-07-16T09:53:53Z</time>
      </trkpt>
      <trkpt lat="44.89813" lon="5.85957">
        <ele>695.3</ele>
        <time>2022-07-16T09:53:54Z</time>
      </trkpt>
      <trkpt lat="44.89817" lon="5.85968">
        <ele>695.1</ele>
        <time>2022-07-16T09:53:55Z</time>
      </trkpt>
      <trkpt lat="44.89821" lon="5.85978">
        <ele>694.9</ele>
        <time>2022-07-16T09:53:56Z</time>
      </trkpt>
      <trkpt lat="44.89825" lon="5.85988">
        <ele>694.7</ele>
        <time>2022-07-16T09:53:57Z</time>
      </trkpt>
      <trkpt lat="44.89829" lon="5.85998">
        <ele>694.5</ele>
        <time>2022-07-16T09:53:58Z</time>
      </trkpt>
      <trkpt lat="44.89832" lon="5.86009">
        <ele>694.4</ele>
        <time>2022-07-16T09:53:59Z</time>
      </trkpt>
      <trkpt lat="44.89836" lon="5.8602">
        <ele>694.2</ele>
        <time>2022-07-16T09:54:00Z</time>
      </trkpt>
      <trkpt lat="44.89839" lon="5.8603">
        <ele>694.1</ele>
        <time>2022-07-16T09:54:01Z</time>
      </trkpt>
      <trkpt lat="44.89843" lon="5.86039">
        <ele>693.9</ele>
        <time>2022-07-16T09:54:02Z</time>
      </trkpt>
      <trkpt lat="44.89847" lon="5.86049">
        <ele>693.8</ele>
        <time>2022-07-16T09:54:03Z</time>
      </trkpt>
      <trkpt lat="44.89851" lon="5.86058">
        <ele>693.7</ele>
        <time>2022-07-16T09:54:04Z</time>
      </trkpt>
      <trkpt lat="44.89856" lon="5.86067">
        <ele>693.5</ele>
        <time>2022-07-16T09:54:05Z</time>
      </trkpt>
      <trkpt lat="44.8986" lon="5.86077">
        <ele>693.3</ele>
        <time>2022-07-16T09:54:06Z</time>
      </trkpt>
      <trkpt lat="44.89865" lon="5.86086">
        <ele>693.1</ele>
        <time>2022-07-16T09:54:07Z</time>
      </trkpt>
      <trkpt lat="44.89871" lon="5.86094">
        <ele>692.9</ele>
        <time>2022-07-16T09:54:08Z</time>
      </trkpt>
      <trkpt lat="44.89876" lon="5.86103">
        <ele>692.7</ele>
        <time>2022-07-16T09:54:09Z</time>
      </trkpt>
      <trkpt lat="44.89882" lon="5.86112">
        <ele>692.5</ele>
        <time>2022-07-16T09:54:10Z</time>
      </trkpt>
      <trkpt lat="44.89887" lon="5.86122">
        <ele>692.3</ele>
        <time>2022-07-16T09:54:11Z</time>
      </trkpt>
      <trkpt lat="44.89893" lon="5.86131">
        <ele>692.1</ele>
        <time>2022-07-16T09:54:12Z</time>
      </trkpt>
      <trkpt lat="44.89898" lon="5.86141">
        <ele>691.9</ele>
        <time>2022-07-16T09:54:13Z</time>
      </trkpt>
      <trkpt lat="44.89903" lon="5.8615">
        <ele>691.8</ele>
        <time>2022-07-16T09:54:14Z</time>
      </trkpt>
      <trkpt lat="44.89908" lon="5.86159">
        <ele>691.6</ele>
        <time>2022-07-16T09:54:15Z</time>
      </trkpt>
      <trkpt lat="44.89912" lon="5.86168">
        <ele>691.4</ele>
        <time>2022-07-16T09:54:16Z</time>
      </trkpt>
      <trkpt lat="44.89916" lon="5.86178">
        <ele>691.3</ele>
        <time>2022-07-16T09:54:17Z</time>
      </trkpt>
      <trkpt lat="44.89921" lon="5.86188">
        <ele>691.1</ele>
        <time>2022-07-16T09:54:18Z</time>
      </trkpt>
      <trkpt lat="44.89925" lon="5.86199">
        <ele>690.9</ele>
        <time>2022-07-16T09:54:19Z</time>
      </trkpt>
      <trkpt lat="44.89929" lon="5.86209">
        <ele>690.7</ele>
        <time>2022-07-16T09:54:20Z</time>
      </trkpt>
      <trkpt lat="44.89934" lon="5.86219">
        <ele>690.5</ele>
        <time>2022-07-16T09:54:21Z</time>
      </trkpt>
      <trkpt lat="44.89937" lon="5.86229">
        <ele>690.3</ele>
        <time>2022-07-16T09:54:22Z</time>
      </trkpt>
      <trkpt lat="44.8994" lon="5.8624">
        <ele>690.2</ele>
        <time>2022-07-16T09:54:23Z</time>
      </trkpt>
      <trkpt lat="44.89943" lon="5.86252">
        <ele>690.1</ele>
        <time>2022-07-16T09:54:24Z</time>
      </trkpt>
      <trkpt lat="44.89945" lon="5.86263">
        <ele>689.9</ele>
        <time>2022-07-16T09:54:25Z</time>
      </trkpt>
      <trkpt lat="44.89947" lon="5.86275">
        <ele>689.8</ele>
        <time>2022-07-16T09:54:26Z</time>
      </trkpt>
      <trkpt lat="44.89949" lon="5.86287">
        <ele>689.7</ele>
        <time>2022-07-16T09:54:27Z</time>
      </trkpt>
      <trkpt lat="44.8995" lon="5.86298">
        <ele>689.5</ele>
        <time>2022-07-16T09:54:28Z</time>
      </trkpt>
      <trkpt lat="44.89952" lon="5.86309">
        <ele>689.4</ele>
        <time>2022-07-16T09:54:29Z</time>
      </trkpt>
      <trkpt lat="44.89953" lon="5.86321">
        <ele>689.2</ele>
        <time>2022-07-16T09:54:30Z</time>
      </trkpt>
      <trkpt lat="44.89954" lon="5.86332">
        <ele>688.9</ele>
        <time>2022-07-16T09:54:31Z</time>
      </trkpt>
      <trkpt lat="44.89955" lon="5.86343">
        <ele>688.7</ele>
        <time>2022-07-16T09:54:32Z</time>
      </trkpt>
      <trkpt lat="44.89956" lon="5.86355">
        <ele>688.5</ele>
        <time>2022-07-16T09:54:33Z</time>
      </trkpt>
      <trkpt lat="44.89956" lon="5.86366">
        <ele>688.3</ele>
        <time>2022-07-16T09:54:34Z</time>
      </trkpt>
      <trkpt lat="44.89955" lon="5.86378">
        <ele>688.1</ele>
        <time>2022-07-16T09:54:35Z</time>
      </trkpt>
      <trkpt lat="44.89953" lon="5.86389">
        <ele>687.9</ele>
        <time>2022-07-16T09:54:36Z</time>
      </trkpt>
      <trkpt lat="44.8995" lon="5.864">
        <ele>687.7</ele>
        <time>2022-07-16T09:54:37Z</time>
      </trkpt>
      <trkpt lat="44.89947" lon="5.8641">
        <ele>687.5</ele>
        <time>2022-07-16T09:54:38Z</time>
      </trkpt>
      <trkpt lat="44.89942" lon="5.86419">
        <ele>687.4</ele>
        <time>2022-07-16T09:54:39Z</time>
      </trkpt>
      <trkpt lat="44.89938" lon="5.86429">
        <ele>687.2</ele>
        <time>2022-07-16T09:54:40Z</time>
      </trkpt>
      <trkpt lat="44.89933" lon="5.86438">
        <ele>687.1</ele>
        <time>2022-07-16T09:54:41Z</time>
      </trkpt>
      <trkpt lat="44.89928" lon="5.86449">
        <ele>686.9</ele>
        <time>2022-07-16T09:54:42Z</time>
      </trkpt>
      <trkpt lat="44.89922" lon="5.86459">
        <ele>686.8</ele>
        <time>2022-07-16T09:54:43Z</time>
      </trkpt>
      <trkpt lat="44.89916" lon="5.86467">
        <ele>686.6</ele>
        <time>2022-07-16T09:54:44Z</time>
      </trkpt>
      <trkpt lat="44.8991" lon="5.86474">
        <ele>686.4</ele>
        <time>2022-07-16T09:54:45Z</time>
      </trkpt>
      <trkpt lat="44.89902" lon="5.8648">
        <ele>686.2</ele>
        <time>2022-07-16T09:54:46Z</time>
      </trkpt>
      <trkpt lat="44.89893" lon="5.86484">
        <ele>686</ele>
        <time>2022-07-16T09:54:47Z</time>
      </trkpt>
      <trkpt lat="44.89885" lon="5.86489">
        <ele>685.7</ele>
        <time>2022-07-16T09:54:48Z</time>
      </trkpt>
      <trkpt lat="44.89877" lon="5.86493">
        <ele>685.5</ele>
        <time>2022-07-16T09:54:49Z</time>
      </trkpt>
      <trkpt lat="44.8987" lon="5.86499">
        <ele>685.3</ele>
        <time>2022-07-16T09:54:50Z</time>
      </trkpt>
      <trkpt lat="44.89862" lon="5.86504">
        <ele>685.1</ele>
        <time>2022-07-16T09:54:51Z</time>
      </trkpt>
      <trkpt lat="44.89854" lon="5.86509">
        <ele>684.9</ele>
        <time>2022-07-16T09:54:52Z</time>
      </trkpt>
      <trkpt lat="44.89847" lon="5.86515">
        <ele>684.7</ele>
        <time>2022-07-16T09:54:53Z</time>
      </trkpt>
      <trkpt lat="44.8984" lon="5.86521">
        <ele>684.5</ele>
        <time>2022-07-16T09:54:54Z</time>
      </trkpt>
      <trkpt lat="44.89833" lon="5.86527">
        <ele>684.3</ele>
        <time>2022-07-16T09:54:55Z</time>
      </trkpt>
      <trkpt lat="44.89827" lon="5.86535">
        <ele>684</ele>
        <time>2022-07-16T09:54:56Z</time>
      </trkpt>
      <trkpt lat="44.8982" lon="5.86544">
        <ele>683.8</ele>
        <time>2022-07-16T09:54:57Z</time>
      </trkpt>
      <trkpt lat="44.89814" lon="5.86553">
        <ele>683.6</ele>
        <time>2022-07-16T09:54:58Z</time>
      </trkpt>
      <trkpt lat="44.89808" lon="5.86562">
        <ele>683.4</ele>
        <time>2022-07-16T09:54:59Z</time>
      </trkpt>
      <trkpt lat="44.89802" lon="5.86571">
        <ele>683.3</ele>
        <time>2022-07-16T09:55:00Z</time>
      </trkpt>
      <trkpt lat="44.89796" lon="5.86579">
        <ele>683.1</ele>
        <time>2022-07-16T09:55:01Z</time>
      </trkpt>
      <trkpt lat="44.8979" lon="5.86588">
        <ele>682.9</ele>
        <time>2022-07-16T09:55:02Z</time>
      </trkpt>
      <trkpt lat="44.89784" lon="5.86597">
        <ele>682.7</ele>
        <time>2022-07-16T09:55:03Z</time>
      </trkpt>
      <trkpt lat="44.89778" lon="5.86607">
        <ele>682.5</ele>
        <time>2022-07-16T09:55:04Z</time>
      </trkpt>
      <trkpt lat="44.89772" lon="5.86615">
        <ele>682.3</ele>
        <time>2022-07-16T09:55:05Z</time>
      </trkpt>
      <trkpt lat="44.89766" lon="5.86624">
        <ele>682.2</ele>
        <time>2022-07-16T09:55:06Z</time>
      </trkpt>
      <trkpt lat="44.8976" lon="5.86633">
        <ele>682</ele>
        <time>2022-07-16T09:55:07Z</time>
      </trkpt>
      <trkpt lat="44.89753" lon="5.86642">
        <ele>681.8</ele>
        <time>2022-07-16T09:55:08Z</time>
      </trkpt>
      <trkpt lat="44.89746" lon="5.86651">
        <ele>681.6</ele>
        <time>2022-07-16T09:55:09Z</time>
      </trkpt>
      <trkpt lat="44.89738" lon="5.86659">
        <ele>681.5</ele>
        <time>2022-07-16T09:55:10Z</time>
      </trkpt>
      <trkpt lat="44.89731" lon="5.86668">
        <ele>681.4</ele>
        <time>2022-07-16T09:55:11Z</time>
      </trkpt>
      <trkpt lat="44.89724" lon="5.86676">
        <ele>681.3</ele>
        <time>2022-07-16T09:55:12Z</time>
      </trkpt>
      <trkpt lat="44.89717" lon="5.86685">
        <ele>681.1</ele>
        <time>2022-07-16T09:55:13Z</time>
      </trkpt>
      <trkpt lat="44.8971" lon="5.86692">
        <ele>681</ele>
        <time>2022-07-16T09:55:14Z</time>
      </trkpt>
      <trkpt lat="44.89703" lon="5.86701">
        <ele>680.9</ele>
        <time>2022-07-16T09:55:15Z</time>
      </trkpt>
      <trkpt lat="44.89695" lon="5.86709">
        <ele>680.8</ele>
        <time>2022-07-16T09:55:16Z</time>
      </trkpt>
      <trkpt lat="44.89687" lon="5.86718">
        <ele>680.6</ele>
        <time>2022-07-16T09:55:17Z</time>
      </trkpt>
      <trkpt lat="44.8968" lon="5.86726">
        <ele>680.5</ele>
        <time>2022-07-16T09:55:18Z</time>
      </trkpt>
      <trkpt lat="44.89672" lon="5.86733">
        <ele>680.4</ele>
        <time>2022-07-16T09:55:19Z</time>
      </trkpt>
      <trkpt lat="44.89666" lon="5.86741">
        <ele>680.3</ele>
        <time>2022-07-16T09:55:20Z</time>
      </trkpt>
      <trkpt lat="44.89659" lon="5.86751">
        <ele>680</ele>
        <time>2022-07-16T09:55:21Z</time>
      </trkpt>
      <trkpt lat="44.89652" lon="5.86761">
        <ele>679.7</ele>
        <time>2022-07-16T09:55:22Z</time>
      </trkpt>
      <trkpt lat="44.89645" lon="5.86772">
        <ele>679.4</ele>
        <time>2022-07-16T09:55:23Z</time>
      </trkpt>
      <trkpt lat="44.89637" lon="5.86782">
        <ele>679</ele>
        <time>2022-07-16T09:55:24Z</time>
      </trkpt>
      <trkpt lat="44.89631" lon="5.86793">
        <ele>678.8</ele>
        <time>2022-07-16T09:55:25Z</time>
      </trkpt>
      <trkpt lat="44.89623" lon="5.86803">
        <ele>678.5</ele>
        <time>2022-07-16T09:55:26Z</time>
      </trkpt>
      <trkpt lat="44.89616" lon="5.86811">
        <ele>678.2</ele>
        <time>2022-07-16T09:55:27Z</time>
      </trkpt>
      <trkpt lat="44.89608" lon="5.8682">
        <ele>677.8</ele>
        <time>2022-07-16T09:55:28Z</time>
      </trkpt>
      <trkpt lat="44.89599" lon="5.86828">
        <ele>677.5</ele>
        <time>2022-07-16T09:55:29Z</time>
      </trkpt>
      <trkpt lat="44.89591" lon="5.86836">
        <ele>677.3</ele>
        <time>2022-07-16T09:55:30Z</time>
      </trkpt>
      <trkpt lat="44.89583" lon="5.86844">
        <ele>677.1</ele>
        <time>2022-07-16T09:55:31Z</time>
      </trkpt>
      <trkpt lat="44.89574" lon="5.8685">
        <ele>676.9</ele>
        <time>2022-07-16T09:55:32Z</time>
      </trkpt>
      <trkpt lat="44.89566" lon="5.86856">
        <ele>676.8</ele>
        <time>2022-07-16T09:55:33Z</time>
      </trkpt>
      <trkpt lat="44.89557" lon="5.86862">
        <ele>676.6</ele>
        <time>2022-07-16T09:55:34Z</time>
      </trkpt>
      <trkpt lat="44.89549" lon="5.86868">
        <ele>676.5</ele>
        <time>2022-07-16T09:55:35Z</time>
      </trkpt>
      <trkpt lat="44.8954" lon="5.86873">
        <ele>676.5</ele>
        <time>2022-07-16T09:55:36Z</time>
      </trkpt>
      <trkpt lat="44.89531" lon="5.86879">
        <ele>676.5</ele>
        <time>2022-07-16T09:55:37Z</time>
      </trkpt>
      <trkpt lat="44.89522" lon="5.86883">
        <ele>676.5</ele>
        <time>2022-07-16T09:55:38Z</time>
      </trkpt>
      <trkpt lat="44.89514" lon="5.86887">
        <ele>676.6</ele>
        <time>2022-07-16T09:55:39Z</time>
      </trkpt>
      <trkpt lat="44.89506" lon="5.86891">
        <ele>676.7</ele>
        <time>2022-07-16T09:55:40Z</time>
      </trkpt>
      <trkpt lat="44.89498" lon="5.86895">
        <ele>676.9</ele>
        <time>2022-07-16T09:55:41Z</time>
      </trkpt>
      <trkpt lat="44.89491" lon="5.869">
        <ele>677</ele>
        <time>2022-07-16T09:55:42Z</time>
      </trkpt>
      <trkpt lat="44.89484" lon="5.86905">
        <ele>677.2</ele>
        <time>2022-07-16T09:55:43Z</time>
      </trkpt>
      <trkpt lat="44.89477" lon="5.86912">
        <ele>677.3</ele>
        <time>2022-07-16T09:55:44Z</time>
      </trkpt>
      <trkpt lat="44.8947" lon="5.86919">
        <ele>677.5</ele>
        <time>2022-07-16T09:55:45Z</time>
      </trkpt>
      <trkpt lat="44.89463" lon="5.86926">
        <ele>677.5</ele>
        <time>2022-07-16T09:55:46Z</time>
      </trkpt>
      <trkpt lat="44.89458" lon="5.86934">
        <ele>677.5</ele>
        <time>2022-07-16T09:55:47Z</time>
      </trkpt>
      <trkpt lat="44.89453" lon="5.86942">
        <ele>677.6</ele>
        <time>2022-07-16T09:55:48Z</time>
      </trkpt>
      <trkpt lat="44.89449" lon="5.8695">
        <ele>677.7</ele>
        <time>2022-07-16T09:55:49Z</time>
      </trkpt>
      <trkpt lat="44.89444" lon="5.86958">
        <ele>677.8</ele>
        <time>2022-07-16T09:55:50Z</time>
      </trkpt>
      <trkpt lat="44.8944" lon="5.86967">
        <ele>677.9</ele>
        <time>2022-07-16T09:55:51Z</time>
      </trkpt>
      <trkpt lat="44.89435" lon="5.86975">
        <ele>678.1</ele>
        <time>2022-07-16T09:55:52Z</time>
      </trkpt>
      <trkpt lat="44.89431" lon="5.86982">
        <ele>678.2</ele>
        <time>2022-07-16T09:55:53Z</time>
      </trkpt>
      <trkpt lat="44.89427" lon="5.8699">
        <ele>678.4</ele>
        <time>2022-07-16T09:55:54Z</time>
      </trkpt>
      <trkpt lat="44.89422" lon="5.86997">
        <ele>678.6</ele>
        <time>2022-07-16T09:55:55Z</time>
      </trkpt>
      <trkpt lat="44.89417" lon="5.87003">
        <ele>678.7</ele>
        <time>2022-07-16T09:55:56Z</time>
      </trkpt>
      <trkpt lat="44.89413" lon="5.87009">
        <ele>678.9</ele>
        <time>2022-07-16T09:55:57Z</time>
      </trkpt>
      <trkpt lat="44.89407" lon="5.87016">
        <ele>679.1</ele>
        <time>2022-07-16T09:55:58Z</time>
      </trkpt>
      <trkpt lat="44.89403" lon="5.87022">
        <ele>679.3</ele>
        <time>2022-07-16T09:55:59Z</time>
      </trkpt>
      <trkpt lat="44.89398" lon="5.87027">
        <ele>679.5</ele>
        <time>2022-07-16T09:56:00Z</time>
      </trkpt>
      <trkpt lat="44.89393" lon="5.87031">
        <ele>679.7</ele>
        <time>2022-07-16T09:56:01Z</time>
      </trkpt>
      <trkpt lat="44.89389" lon="5.87034">
        <ele>679.9</ele>
        <time>2022-07-16T09:56:02Z</time>
      </trkpt>
      <trkpt lat="44.89384" lon="5.87038">
        <ele>680.1</ele>
        <time>2022-07-16T09:56:03Z</time>
      </trkpt>
      <trkpt lat="44.89379" lon="5.87042">
        <ele>680.3</ele>
        <time>2022-07-16T09:56:04Z</time>
      </trkpt>
      <trkpt lat="44.89374" lon="5.87046">
        <ele>680.5</ele>
        <time>2022-07-16T09:56:05Z</time>
      </trkpt>
      <trkpt lat="44.89369" lon="5.8705">
        <ele>680.7</ele>
        <time>2022-07-16T09:56:06Z</time>
      </trkpt>
      <trkpt lat="44.89364" lon="5.87054">
        <ele>680.9</ele>
        <time>2022-07-16T09:56:07Z</time>
      </trkpt>
      <trkpt lat="44.89359" lon="5.87059">
        <ele>681.1</ele>
        <time>2022-07-16T09:56:08Z</time>
      </trkpt>
      <trkpt lat="44.89355" lon="5.87062">
        <ele>681.3</ele>
        <time>2022-07-16T09:56:09Z</time>
      </trkpt>
      <trkpt lat="44.89351" lon="5.87066">
        <ele>681.5</ele>
        <time>2022-07-16T09:56:10Z</time>
      </trkpt>
      <trkpt lat="44.89347" lon="5.8707">
        <ele>681.7</ele>
        <time>2022-07-16T09:56:11Z</time>
      </trkpt>
      <trkpt lat="44.89344" lon="5.87075">
        <ele>681.9</ele>
        <time>2022-07-16T09:56:12Z</time>
      </trkpt>
      <trkpt lat="44.8934" lon="5.87079">
        <ele>682.1</ele>
        <time>2022-07-16T09:56:13Z</time>
      </trkpt>
      <trkpt lat="44.89337" lon="5.87083">
        <ele>682.3</ele>
        <time>2022-07-16T09:56:14Z</time>
      </trkpt>
      <trkpt lat="44.89334" lon="5.87089">
        <ele>682.5</ele>
        <time>2022-07-16T09:56:15Z</time>
      </trkpt>
      <trkpt lat="44.89331" lon="5.87094">
        <ele>682.6</ele>
        <time>2022-07-16T09:56:16Z</time>
      </trkpt>
      <trkpt lat="44.89329" lon="5.87099">
        <ele>682.8</ele>
        <time>2022-07-16T09:56:17Z</time>
      </trkpt>
      <trkpt lat="44.89327" lon="5.87104">
        <ele>683</ele>
        <time>2022-07-16T09:56:18Z</time>
      </trkpt>
      <trkpt lat="44.89325" lon="5.87107">
        <ele>683.1</ele>
        <time>2022-07-16T09:56:19Z</time>
      </trkpt>
      <trkpt lat="44.89323" lon="5.87113">
        <ele>683.3</ele>
        <time>2022-07-16T09:56:20Z</time>
      </trkpt>
      <trkpt lat="44.8932" lon="5.87119">
        <ele>683.6</ele>
        <time>2022-07-16T09:56:21Z</time>
      </trkpt>
      <trkpt lat="44.89317" lon="5.87127">
        <ele>683.8</ele>
        <time>2022-07-16T09:56:22Z</time>
      </trkpt>
      <trkpt lat="44.89315" lon="5.87134">
        <ele>684.1</ele>
        <time>2022-07-16T09:56:23Z</time>
      </trkpt>
      <trkpt lat="44.89311" lon="5.87148">
        <ele>684.5</ele>
        <time>2022-07-16T09:56:24Z</time>
      </trkpt>
      <trkpt lat="44.89304" lon="5.87149">
        <ele>684.8</ele>
        <time>2022-07-16T09:56:25Z</time>
      </trkpt>
      <trkpt lat="44.89306" lon="5.87159">
        <ele>685.2</ele>
        <time>2022-07-16T09:56:27Z</time>
      </trkpt>
      <trkpt lat="44.89306" lon="5.87167">
        <ele>685.4</ele>
        <time>2022-07-16T09:56:28Z</time>
      </trkpt>
      <trkpt lat="44.89303" lon="5.87177">
        <ele>685.7</ele>
        <time>2022-07-16T09:56:30Z</time>
      </trkpt>
      <trkpt lat="44.89301" lon="5.87182">
        <ele>685.9</ele>
        <time>2022-07-16T09:56:31Z</time>
      </trkpt>
      <trkpt lat="44.89298" lon="5.87192">
        <ele>686.2</ele>
        <time>2022-07-16T09:56:33Z</time>
      </trkpt>
      <trkpt lat="44.89295" lon="5.87202">
        <ele>686.5</ele>
        <time>2022-07-16T09:56:35Z</time>
      </trkpt>
      <trkpt lat="44.89291" lon="5.87212">
        <ele>686.8</ele>
        <time>2022-07-16T09:56:36Z</time>
      </trkpt>
      <trkpt lat="44.89289" lon="5.87217">
        <ele>686.9</ele>
        <time>2022-07-16T09:56:38Z</time>
      </trkpt>
      <trkpt lat="44.89288" lon="5.87223">
        <ele>687.1</ele>
        <time>2022-07-16T09:56:39Z</time>
      </trkpt>
      <trkpt lat="44.89286" lon="5.87229">
        <ele>687.2</ele>
        <time>2022-07-16T09:56:40Z</time>
      </trkpt>
      <trkpt lat="44.89284" lon="5.87237">
        <ele>687.4</ele>
        <time>2022-07-16T09:56:41Z</time>
      </trkpt>
      <trkpt lat="44.89283" lon="5.87242">
        <ele>687.6</ele>
        <time>2022-07-16T09:56:42Z</time>
      </trkpt>
      <trkpt lat="44.8928" lon="5.87248">
        <ele>687.7</ele>
        <time>2022-07-16T09:56:44Z</time>
      </trkpt>
      <trkpt lat="44.89277" lon="5.87255">
        <ele>687.9</ele>
        <time>2022-07-16T09:56:46Z</time>
      </trkpt>
      <trkpt lat="44.89274" lon="5.87263">
        <ele>688</ele>
        <time>2022-07-16T09:56:47Z</time>
      </trkpt>
      <trkpt lat="44.89274" lon="5.87269">
        <ele>688.1</ele>
        <time>2022-07-16T09:56:48Z</time>
      </trkpt>
      <trkpt lat="44.89271" lon="5.87279">
        <ele>688.3</ele>
        <time>2022-07-16T09:56:50Z</time>
      </trkpt>
      <trkpt lat="44.89269" lon="5.87286">
        <ele>688.3</ele>
        <time>2022-07-16T09:56:51Z</time>
      </trkpt>
      <trkpt lat="44.89267" lon="5.87292">
        <ele>688.4</ele>
        <time>2022-07-16T09:56:52Z</time>
      </trkpt>
      <trkpt lat="44.89263" lon="5.87302">
        <ele>688.5</ele>
        <time>2022-07-16T09:56:54Z</time>
      </trkpt>
      <trkpt lat="44.8926" lon="5.87313">
        <ele>688.7</ele>
        <time>2022-07-16T09:56:56Z</time>
      </trkpt>
      <trkpt lat="44.89257" lon="5.8732">
        <ele>688.8</ele>
        <time>2022-07-16T09:56:57Z</time>
      </trkpt>
      <trkpt lat="44.89256" lon="5.87325">
        <ele>688.8</ele>
        <time>2022-07-16T09:56:58Z</time>
      </trkpt>
      <trkpt lat="44.89254" lon="5.8733">
        <ele>688.9</ele>
        <time>2022-07-16T09:56:59Z</time>
      </trkpt>
      <trkpt lat="44.89251" lon="5.87335">
        <ele>688.9</ele>
        <time>2022-07-16T09:57:00Z</time>
      </trkpt>
      <trkpt lat="44.89248" lon="5.87341">
        <ele>689</ele>
        <time>2022-07-16T09:57:01Z</time>
      </trkpt>
      <trkpt lat="44.89243" lon="5.8735">
        <ele>689.1</ele>
        <time>2022-07-16T09:57:02Z</time>
      </trkpt>
      <trkpt lat="44.89235" lon="5.87357">
        <ele>689.3</ele>
        <time>2022-07-16T09:57:04Z</time>
      </trkpt>
      <trkpt lat="44.89231" lon="5.87366">
        <ele>689.3</ele>
        <time>2022-07-16T09:57:07Z</time>
      </trkpt>
      <trkpt lat="44.89227" lon="5.87371">
        <ele>689.4</ele>
        <time>2022-07-16T09:57:08Z</time>
      </trkpt>
      <trkpt lat="44.89224" lon="5.87375">
        <ele>689.4</ele>
        <time>2022-07-16T09:57:09Z</time>
      </trkpt>
      <trkpt lat="44.89221" lon="5.8738">
        <ele>689.5</ele>
        <time>2022-07-16T09:57:10Z</time>
      </trkpt>
      <trkpt lat="44.89218" lon="5.87386">
        <ele>689.6</ele>
        <time>2022-07-16T09:57:11Z</time>
      </trkpt>
      <trkpt lat="44.89214" lon="5.8739">
        <ele>689.6</ele>
        <time>2022-07-16T09:57:12Z</time>
      </trkpt>
      <trkpt lat="44.8921" lon="5.87395">
        <ele>689.7</ele>
        <time>2022-07-16T09:57:13Z</time>
      </trkpt>
      <trkpt lat="44.89206" lon="5.874">
        <ele>689.8</ele>
        <time>2022-07-16T09:57:14Z</time>
      </trkpt>
      <trkpt lat="44.89202" lon="5.87404">
        <ele>689.8</ele>
        <time>2022-07-16T09:57:15Z</time>
      </trkpt>
      <trkpt lat="44.89197" lon="5.87409">
        <ele>689.9</ele>
        <time>2022-07-16T09:57:16Z</time>
      </trkpt>
      <trkpt lat="44.89193" lon="5.87414">
        <ele>689.9</ele>
        <time>2022-07-16T09:57:17Z</time>
      </trkpt>
      <trkpt lat="44.89189" lon="5.87419">
        <ele>690</ele>
        <time>2022-07-16T09:57:18Z</time>
      </trkpt>
      <trkpt lat="44.89185" lon="5.87423">
        <ele>690</ele>
        <time>2022-07-16T09:57:19Z</time>
      </trkpt>
      <trkpt lat="44.8918" lon="5.87428">
        <ele>690.1</ele>
        <time>2022-07-16T09:57:20Z</time>
      </trkpt>
      <trkpt lat="44.89176" lon="5.87433">
        <ele>690.2</ele>
        <time>2022-07-16T09:57:21Z</time>
      </trkpt>
      <trkpt lat="44.89171" lon="5.87438">
        <ele>690.2</ele>
        <time>2022-07-16T09:57:22Z</time>
      </trkpt>
      <trkpt lat="44.89167" lon="5.87444">
        <ele>690.3</ele>
        <time>2022-07-16T09:57:23Z</time>
      </trkpt>
      <trkpt lat="44.89163" lon="5.8745">
        <ele>690.4</ele>
        <time>2022-07-16T09:57:24Z</time>
      </trkpt>
      <trkpt lat="44.89159" lon="5.87455">
        <ele>690.5</ele>
        <time>2022-07-16T09:57:25Z</time>
      </trkpt>
      <trkpt lat="44.89155" lon="5.8746">
        <ele>690.5</ele>
        <time>2022-07-16T09:57:26Z</time>
      </trkpt>
      <trkpt lat="44.89153" lon="5.87465">
        <ele>690.6</ele>
        <time>2022-07-16T09:57:27Z</time>
      </trkpt>
      <trkpt lat="44.8915" lon="5.87472">
        <ele>690.6</ele>
        <time>2022-07-16T09:57:28Z</time>
      </trkpt>
      <trkpt lat="44.89147" lon="5.8748">
        <ele>690.7</ele>
        <time>2022-07-16T09:57:29Z</time>
      </trkpt>
      <trkpt lat="44.89145" lon="5.87488">
        <ele>690.8</ele>
        <time>2022-07-16T09:57:30Z</time>
      </trkpt>
      <trkpt lat="44.89144" lon="5.87497">
        <ele>690.9</ele>
        <time>2022-07-16T09:57:31Z</time>
      </trkpt>
      <trkpt lat="44.89143" lon="5.87506">
        <ele>690.9</ele>
        <time>2022-07-16T09:57:32Z</time>
      </trkpt>
      <trkpt lat="44.89142" lon="5.87515">
        <ele>691</ele>
        <time>2022-07-16T09:57:33Z</time>
      </trkpt>
      <trkpt lat="44.89142" lon="5.87524">
        <ele>691.1</ele>
        <time>2022-07-16T09:57:34Z</time>
      </trkpt>
      <trkpt lat="44.89142" lon="5.87533">
        <ele>691.2</ele>
        <time>2022-07-16T09:57:35Z</time>
      </trkpt>
      <trkpt lat="44.89142" lon="5.87542">
        <ele>691.3</ele>
        <time>2022-07-16T09:57:36Z</time>
      </trkpt>
      <trkpt lat="44.89143" lon="5.8755">
        <ele>691.4</ele>
        <time>2022-07-16T09:57:37Z</time>
      </trkpt>
      <trkpt lat="44.89143" lon="5.87559">
        <ele>691.5</ele>
        <time>2022-07-16T09:57:38Z</time>
      </trkpt>
      <trkpt lat="44.89143" lon="5.87567">
        <ele>691.6</ele>
        <time>2022-07-16T09:57:39Z</time>
      </trkpt>
      <trkpt lat="44.89144" lon="5.87575">
        <ele>691.7</ele>
        <time>2022-07-16T09:57:40Z</time>
      </trkpt>
      <trkpt lat="44.89144" lon="5.87584">
        <ele>691.7</ele>
        <time>2022-07-16T09:57:41Z</time>
      </trkpt>
      <trkpt lat="44.89145" lon="5.87592">
        <ele>691.8</ele>
        <time>2022-07-16T09:57:42Z</time>
      </trkpt>
      <trkpt lat="44.89145" lon="5.876">
        <ele>691.9</ele>
        <time>2022-07-16T09:57:43Z</time>
      </trkpt>
      <trkpt lat="44.89145" lon="5.87608">
        <ele>692.1</ele>
        <time>2022-07-16T09:57:44Z</time>
      </trkpt>
      <trkpt lat="44.89146" lon="5.87616">
        <ele>692.2</ele>
        <time>2022-07-16T09:57:45Z</time>
      </trkpt>
      <trkpt lat="44.89146" lon="5.87624">
        <ele>692.3</ele>
        <time>2022-07-16T09:57:46Z</time>
      </trkpt>
      <trkpt lat="44.89147" lon="5.87632">
        <ele>692.5</ele>
        <time>2022-07-16T09:57:47Z</time>
      </trkpt>
      <trkpt lat="44.89147" lon="5.87639">
        <ele>692.6</ele>
        <time>2022-07-16T09:57:48Z</time>
      </trkpt>
      <trkpt lat="44.89148" lon="5.87647">
        <ele>692.8</ele>
        <time>2022-07-16T09:57:49Z</time>
      </trkpt>
      <trkpt lat="44.89149" lon="5.87655">
        <ele>693</ele>
        <time>2022-07-16T09:57:50Z</time>
      </trkpt>
      <trkpt lat="44.8915" lon="5.87663">
        <ele>693.1</ele>
        <time>2022-07-16T09:57:51Z</time>
      </trkpt>
      <trkpt lat="44.89151" lon="5.8767">
        <ele>693.3</ele>
        <time>2022-07-16T09:57:52Z</time>
      </trkpt>
      <trkpt lat="44.89152" lon="5.87678">
        <ele>693.5</ele>
        <time>2022-07-16T09:57:53Z</time>
      </trkpt>
      <trkpt lat="44.89153" lon="5.87685">
        <ele>693.6</ele>
        <time>2022-07-16T09:57:54Z</time>
      </trkpt>
      <trkpt lat="44.89154" lon="5.87693">
        <ele>693.8</ele>
        <time>2022-07-16T09:57:55Z</time>
      </trkpt>
      <trkpt lat="44.89155" lon="5.87701">
        <ele>694</ele>
        <time>2022-07-16T09:57:56Z</time>
      </trkpt>
      <trkpt lat="44.89156" lon="5.87707">
        <ele>694.2</ele>
        <time>2022-07-16T09:57:57Z</time>
      </trkpt>
      <trkpt lat="44.89157" lon="5.87714">
        <ele>694.3</ele>
        <time>2022-07-16T09:57:58Z</time>
      </trkpt>
      <trkpt lat="44.89158" lon="5.87722">
        <ele>694.5</ele>
        <time>2022-07-16T09:57:59Z</time>
      </trkpt>
      <trkpt lat="44.8916" lon="5.87729">
        <ele>694.7</ele>
        <time>2022-07-16T09:58:00Z</time>
      </trkpt>
      <trkpt lat="44.89162" lon="5.87736">
        <ele>694.9</ele>
        <time>2022-07-16T09:58:01Z</time>
      </trkpt>
      <trkpt lat="44.89164" lon="5.87743">
        <ele>695.1</ele>
        <time>2022-07-16T09:58:02Z</time>
      </trkpt>
      <trkpt lat="44.89165" lon="5.8775">
        <ele>695.2</ele>
        <time>2022-07-16T09:58:03Z</time>
      </trkpt>
      <trkpt lat="44.89167" lon="5.87756">
        <ele>695.3</ele>
        <time>2022-07-16T09:58:04Z</time>
      </trkpt>
      <trkpt lat="44.89168" lon="5.87764">
        <ele>695.5</ele>
        <time>2022-07-16T09:58:05Z</time>
      </trkpt>
      <trkpt lat="44.89169" lon="5.87771">
        <ele>695.6</ele>
        <time>2022-07-16T09:58:06Z</time>
      </trkpt>
      <trkpt lat="44.8917" lon="5.87777">
        <ele>695.7</ele>
        <time>2022-07-16T09:58:07Z</time>
      </trkpt>
      <trkpt lat="44.89172" lon="5.87784">
        <ele>695.9</ele>
        <time>2022-07-16T09:58:08Z</time>
      </trkpt>
      <trkpt lat="44.89174" lon="5.87791">
        <ele>696</ele>
        <time>2022-07-16T09:58:09Z</time>
      </trkpt>
      <trkpt lat="44.89175" lon="5.87798">
        <ele>696.1</ele>
        <time>2022-07-16T09:58:10Z</time>
      </trkpt>
      <trkpt lat="44.89176" lon="5.87805">
        <ele>696.2</ele>
        <time>2022-07-16T09:58:11Z</time>
      </trkpt>
      <trkpt lat="44.89177" lon="5.87812">
        <ele>696.3</ele>
        <time>2022-07-16T09:58:12Z</time>
      </trkpt>
      <trkpt lat="44.89178" lon="5.87819">
        <ele>696.4</ele>
        <time>2022-07-16T09:58:13Z</time>
      </trkpt>
      <trkpt lat="44.89179" lon="5.87826">
        <ele>696.5</ele>
        <time>2022-07-16T09:58:14Z</time>
      </trkpt>
      <trkpt lat="44.8918" lon="5.87834">
        <ele>696.6</ele>
        <time>2022-07-16T09:58:15Z</time>
      </trkpt>
      <trkpt lat="44.89181" lon="5.87841">
        <ele>696.6</ele>
        <time>2022-07-16T09:58:16Z</time>
      </trkpt>
      <trkpt lat="44.89182" lon="5.87849">
        <ele>696.7</ele>
        <time>2022-07-16T09:58:17Z</time>
      </trkpt>
      <trkpt lat="44.89182" lon="5.87856">
        <ele>696.7</ele>
        <time>2022-07-16T09:58:18Z</time>
      </trkpt>
      <trkpt lat="44.89183" lon="5.87864">
        <ele>696.7</ele>
        <time>2022-07-16T09:58:19Z</time>
      </trkpt>
      <trkpt lat="44.89183" lon="5.87872">
        <ele>696.8</ele>
        <time>2022-07-16T09:58:20Z</time>
      </trkpt>
      <trkpt lat="44.89184" lon="5.8788">
        <ele>696.8</ele>
        <time>2022-07-16T09:58:21Z</time>
      </trkpt>
      <trkpt lat="44.89184" lon="5.87888">
        <ele>696.8</ele>
        <time>2022-07-16T09:58:22Z</time>
      </trkpt>
      <trkpt lat="44.89184" lon="5.87896">
        <ele>696.8</ele>
        <time>2022-07-16T09:58:23Z</time>
      </trkpt>
      <trkpt lat="44.89185" lon="5.87904">
        <ele>696.8</ele>
        <time>2022-07-16T09:58:24Z</time>
      </trkpt>
      <trkpt lat="44.89185" lon="5.87912">
        <ele>696.8</ele>
        <time>2022-07-16T09:58:25Z</time>
      </trkpt>
      <trkpt lat="44.89186" lon="5.8792">
        <ele>696.8</ele>
        <time>2022-07-16T09:58:26Z</time>
      </trkpt>
      <trkpt lat="44.89186" lon="5.87928">
        <ele>696.7</ele>
        <time>2022-07-16T09:58:27Z</time>
      </trkpt>
      <trkpt lat="44.89187" lon="5.87936">
        <ele>696.7</ele>
        <time>2022-07-16T09:58:28Z</time>
      </trkpt>
      <trkpt lat="44.89187" lon="5.87944">
        <ele>696.8</ele>
        <time>2022-07-16T09:58:29Z</time>
      </trkpt>
      <trkpt lat="44.89187" lon="5.87951">
        <ele>696.8</ele>
        <time>2022-07-16T09:58:30Z</time>
      </trkpt>
      <trkpt lat="44.89187" lon="5.87959">
        <ele>696.8</ele>
        <time>2022-07-16T09:58:31Z</time>
      </trkpt>
      <trkpt lat="44.89187" lon="5.87967">
        <ele>696.9</ele>
        <time>2022-07-16T09:58:32Z</time>
      </trkpt>
      <trkpt lat="44.89187" lon="5.87975">
        <ele>697</ele>
        <time>2022-07-16T09:58:33Z</time>
      </trkpt>
      <trkpt lat="44.89187" lon="5.87983">
        <ele>697.1</ele>
        <time>2022-07-16T09:58:34Z</time>
      </trkpt>
      <trkpt lat="44.89187" lon="5.87991">
        <ele>697.3</ele>
        <time>2022-07-16T09:58:35Z</time>
      </trkpt>
      <trkpt lat="44.89187" lon="5.87998">
        <ele>697.4</ele>
        <time>2022-07-16T09:58:36Z</time>
      </trkpt>
      <trkpt lat="44.89187" lon="5.88006">
        <ele>697.6</ele>
        <time>2022-07-16T09:58:37Z</time>
      </trkpt>
      <trkpt lat="44.89187" lon="5.88013">
        <ele>697.8</ele>
        <time>2022-07-16T09:58:38Z</time>
      </trkpt>
      <trkpt lat="44.89187" lon="5.8802">
        <ele>698</ele>
        <time>2022-07-16T09:58:39Z</time>
      </trkpt>
      <trkpt lat="44.89187" lon="5.88027">
        <ele>698.1</ele>
        <time>2022-07-16T09:58:40Z</time>
      </trkpt>
      <trkpt lat="44.89187" lon="5.88033">
        <ele>698.3</ele>
        <time>2022-07-16T09:58:41Z</time>
      </trkpt>
      <trkpt lat="44.89186" lon="5.8804">
        <ele>698.5</ele>
        <time>2022-07-16T09:58:42Z</time>
      </trkpt>
      <trkpt lat="44.89186" lon="5.88046">
        <ele>698.7</ele>
        <time>2022-07-16T09:58:43Z</time>
      </trkpt>
      <trkpt lat="44.89186" lon="5.88051">
        <ele>698.9</ele>
        <time>2022-07-16T09:58:44Z</time>
      </trkpt>
      <trkpt lat="44.89186" lon="5.88057">
        <ele>699.2</ele>
        <time>2022-07-16T09:58:45Z</time>
      </trkpt>
      <trkpt lat="44.89185" lon="5.88063">
        <ele>699.4</ele>
        <time>2022-07-16T09:58:46Z</time>
      </trkpt>
      <trkpt lat="44.89185" lon="5.88069">
        <ele>699.6</ele>
        <time>2022-07-16T09:58:47Z</time>
      </trkpt>
      <trkpt lat="44.89184" lon="5.88074">
        <ele>699.8</ele>
        <time>2022-07-16T09:58:48Z</time>
      </trkpt>
      <trkpt lat="44.89185" lon="5.88085">
        <ele>700.2</ele>
        <time>2022-07-16T09:58:49Z</time>
      </trkpt>
      <trkpt lat="44.89186" lon="5.88086">
        <ele>700.4</ele>
        <time>2022-07-16T09:58:50Z</time>
      </trkpt>
      <trkpt lat="44.8918" lon="5.88108">
        <ele>701.4</ele>
        <time>2022-07-16T09:58:53Z</time>
      </trkpt>
      <trkpt lat="44.89179" lon="5.88126">
        <ele>702.2</ele>
        <time>2022-07-16T09:58:56Z</time>
      </trkpt>
      <trkpt lat="44.89176" lon="5.88138">
        <ele>702.8</ele>
        <time>2022-07-16T09:58:58Z</time>
      </trkpt>
      <trkpt lat="44.89175" lon="5.88149">
        <ele>703.4</ele>
        <time>2022-07-16T09:58:59Z</time>
      </trkpt>
      <trkpt lat="44.89175" lon="5.88155">
        <ele>703.7</ele>
        <time>2022-07-16T09:59:01Z</time>
      </trkpt>
      <trkpt lat="44.89175" lon="5.88166">
        <ele>704.3</ele>
        <time>2022-07-16T09:59:02Z</time>
      </trkpt>
      <trkpt lat="44.89175" lon="5.88171">
        <ele>704.5</ele>
        <time>2022-07-16T09:59:04Z</time>
      </trkpt>
      <trkpt lat="44.89174" lon="5.88177">
        <ele>704.9</ele>
        <time>2022-07-16T09:59:05Z</time>
      </trkpt>
      <trkpt lat="44.89174" lon="5.88188">
        <ele>705.5</ele>
        <time>2022-07-16T09:59:06Z</time>
      </trkpt>
      <trkpt lat="44.89174" lon="5.88193">
        <ele>705.8</ele>
        <time>2022-07-16T09:59:08Z</time>
      </trkpt>
      <trkpt lat="44.89175" lon="5.88195">
        <ele>705.9</ele>
        <time>2022-07-16T09:59:09Z</time>
      </trkpt>
      <trkpt lat="44.89175" lon="5.88203">
        <ele>706.4</ele>
        <time>2022-07-16T09:59:11Z</time>
      </trkpt>
      <trkpt lat="44.89176" lon="5.88208">
        <ele>706.7</ele>
        <time>2022-07-16T09:59:12Z</time>
      </trkpt>
      <trkpt lat="44.89177" lon="5.88212">
        <ele>707</ele>
        <time>2022-07-16T09:59:13Z</time>
      </trkpt>
      <trkpt lat="44.89178" lon="5.88216">
        <ele>707.2</ele>
        <time>2022-07-16T09:59:14Z</time>
      </trkpt>
      <trkpt lat="44.89179" lon="5.88224">
        <ele>707.7</ele>
        <time>2022-07-16T09:59:16Z</time>
      </trkpt>
      <trkpt lat="44.89181" lon="5.88235">
        <ele>708.4</ele>
        <time>2022-07-16T09:59:19Z</time>
      </trkpt>
      <trkpt lat="44.89183" lon="5.8824">
        <ele>708.7</ele>
        <time>2022-07-16T09:59:20Z</time>
      </trkpt>
      <trkpt lat="44.89183" lon="5.88241">
        <ele>708.8</ele>
        <time>2022-07-16T09:59:21Z</time>
      </trkpt>
      <trkpt lat="44.89185" lon="5.88247">
        <ele>709.1</ele>
        <time>2022-07-16T09:59:22Z</time>
      </trkpt>
      <trkpt lat="44.89188" lon="5.88252">
        <ele>709.5</ele>
        <time>2022-07-16T09:59:24Z</time>
      </trkpt>
      <trkpt lat="44.89193" lon="5.8826">
        <ele>710</ele>
        <time>2022-07-16T09:59:26Z</time>
      </trkpt>
      <trkpt lat="44.89196" lon="5.88264">
        <ele>710.3</ele>
        <time>2022-07-16T09:59:27Z</time>
      </trkpt>
      <trkpt lat="44.89199" lon="5.88268">
        <ele>710.7</ele>
        <time>2022-07-16T09:59:29Z</time>
      </trkpt>
      <trkpt lat="44.89205" lon="5.88274">
        <ele>711.3</ele>
        <time>2022-07-16T09:59:31Z</time>
      </trkpt>
      <trkpt lat="44.89208" lon="5.88278">
        <ele>711.6</ele>
        <time>2022-07-16T09:59:32Z</time>
      </trkpt>
      <trkpt lat="44.89209" lon="5.88279">
        <ele>711.7</ele>
        <time>2022-07-16T09:59:33Z</time>
      </trkpt>
      <trkpt lat="44.89213" lon="5.88285">
        <ele>712.2</ele>
        <time>2022-07-16T09:59:35Z</time>
      </trkpt>
      <trkpt lat="44.89218" lon="5.88289">
        <ele>712.6</ele>
        <time>2022-07-16T09:59:37Z</time>
      </trkpt>
      <trkpt lat="44.8922" lon="5.88293">
        <ele>712.8</ele>
        <time>2022-07-16T09:59:38Z</time>
      </trkpt>
      <trkpt lat="44.89224" lon="5.88298">
        <ele>713.2</ele>
        <time>2022-07-16T09:59:39Z</time>
      </trkpt>
      <trkpt lat="44.89226" lon="5.88301">
        <ele>713.5</ele>
        <time>2022-07-16T09:59:41Z</time>
      </trkpt>
      <trkpt lat="44.89229" lon="5.88305">
        <ele>713.7</ele>
        <time>2022-07-16T09:59:43Z</time>
      </trkpt>
      <trkpt lat="44.89233" lon="5.88309">
        <ele>714.1</ele>
        <time>2022-07-16T09:59:45Z</time>
      </trkpt>
      <trkpt lat="44.89235" lon="5.88312">
        <ele>714.3</ele>
        <time>2022-07-16T09:59:46Z</time>
      </trkpt>
      <trkpt lat="44.89238" lon="5.88315">
        <ele>714.5</ele>
        <time>2022-07-16T09:59:47Z</time>
      </trkpt>
      <trkpt lat="44.89241" lon="5.88318">
        <ele>714.8</ele>
        <time>2022-07-16T09:59:48Z</time>
      </trkpt>
      <trkpt lat="44.89244" lon="5.88323">
        <ele>715</ele>
        <time>2022-07-16T09:59:49Z</time>
      </trkpt>
      <trkpt lat="44.89245" lon="5.88326">
        <ele>715.2</ele>
        <time>2022-07-16T09:59:50Z</time>
      </trkpt>
      <trkpt lat="44.89249" lon="5.88331">
        <ele>715.5</ele>
        <time>2022-07-16T09:59:52Z</time>
      </trkpt>
      <trkpt lat="44.89255" lon="5.88338">
        <ele>715.8</ele>
        <time>2022-07-16T09:59:54Z</time>
      </trkpt>
      <trkpt lat="44.89259" lon="5.88346">
        <ele>716.2</ele>
        <time>2022-07-16T09:59:56Z</time>
      </trkpt>
      <trkpt lat="44.89261" lon="5.88351">
        <ele>716.4</ele>
        <time>2022-07-16T09:59:57Z</time>
      </trkpt>
      <trkpt lat="44.89264" lon="5.88354">
        <ele>716.5</ele>
        <time>2022-07-16T09:59:58Z</time>
      </trkpt>
      <trkpt lat="44.89266" lon="5.88359">
        <ele>716.7</ele>
        <time>2022-07-16T09:59:59Z</time>
      </trkpt>
      <trkpt lat="44.8927" lon="5.88371">
        <ele>717.1</ele>
        <time>2022-07-16T10:00:01Z</time>
      </trkpt>
      <trkpt lat="44.89271" lon="5.88376">
        <ele>717.3</ele>
        <time>2022-07-16T10:00:02Z</time>
      </trkpt>
      <trkpt lat="44.89275" lon="5.88388">
        <ele>717.7</ele>
        <time>2022-07-16T10:00:04Z</time>
      </trkpt>
      <trkpt lat="44.89277" lon="5.88394">
        <ele>717.9</ele>
        <time>2022-07-16T10:00:05Z</time>
      </trkpt>
      <trkpt lat="44.89279" lon="5.88405">
        <ele>718.3</ele>
        <time>2022-07-16T10:00:07Z</time>
      </trkpt>
      <trkpt lat="44.89281" lon="5.88412">
        <ele>718.6</ele>
        <time>2022-07-16T10:00:08Z</time>
      </trkpt>
      <trkpt lat="44.89282" lon="5.88418">
        <ele>718.9</ele>
        <time>2022-07-16T10:00:09Z</time>
      </trkpt>
      <trkpt lat="44.89283" lon="5.88424">
        <ele>719.1</ele>
        <time>2022-07-16T10:00:10Z</time>
      </trkpt>
      <trkpt lat="44.89284" lon="5.88429">
        <ele>719.4</ele>
        <time>2022-07-16T10:00:11Z</time>
      </trkpt>
      <trkpt lat="44.89286" lon="5.88436">
        <ele>719.7</ele>
        <time>2022-07-16T10:00:12Z</time>
      </trkpt>
      <trkpt lat="44.89287" lon="5.88443">
        <ele>720</ele>
        <time>2022-07-16T10:00:13Z</time>
      </trkpt>
      <trkpt lat="44.89288" lon="5.88449">
        <ele>720.3</ele>
        <time>2022-07-16T10:00:15Z</time>
      </trkpt>
      <trkpt lat="44.89289" lon="5.88461">
        <ele>720.9</ele>
        <time>2022-07-16T10:00:17Z</time>
      </trkpt>
      <trkpt lat="44.8929" lon="5.88468">
        <ele>721.2</ele>
        <time>2022-07-16T10:00:18Z</time>
      </trkpt>
      <trkpt lat="44.89291" lon="5.88473">
        <ele>721.5</ele>
        <time>2022-07-16T10:00:19Z</time>
      </trkpt>
      <trkpt lat="44.89292" lon="5.88479">
        <ele>721.7</ele>
        <time>2022-07-16T10:00:20Z</time>
      </trkpt>
      <trkpt lat="44.89295" lon="5.88493">
        <ele>722.4</ele>
        <time>2022-07-16T10:00:22Z</time>
      </trkpt>
      <trkpt lat="44.89298" lon="5.88498">
        <ele>722.7</ele>
        <time>2022-07-16T10:00:24Z</time>
      </trkpt>
      <trkpt lat="44.89301" lon="5.88505">
        <ele>723.1</ele>
        <time>2022-07-16T10:00:25Z</time>
      </trkpt>
      <trkpt lat="44.89303" lon="5.88511">
        <ele>723.4</ele>
        <time>2022-07-16T10:00:27Z</time>
      </trkpt>
      <trkpt lat="44.89305" lon="5.88517">
        <ele>723.8</ele>
        <time>2022-07-16T10:00:28Z</time>
      </trkpt>
      <trkpt lat="44.89307" lon="5.8852">
        <ele>724</ele>
        <time>2022-07-16T10:00:29Z</time>
      </trkpt>
      <trkpt lat="44.89308" lon="5.88524">
        <ele>724.2</ele>
        <time>2022-07-16T10:00:30Z</time>
      </trkpt>
      <trkpt lat="44.8931" lon="5.8853">
        <ele>724.5</ele>
        <time>2022-07-16T10:00:31Z</time>
      </trkpt>
      <trkpt lat="44.89311" lon="5.88532">
        <ele>724.6</ele>
        <time>2022-07-16T10:00:32Z</time>
      </trkpt>
      <trkpt lat="44.89312" lon="5.88537">
        <ele>724.9</ele>
        <time>2022-07-16T10:00:34Z</time>
      </trkpt>
      <trkpt lat="44.89314" lon="5.88541">
        <ele>725.1</ele>
        <time>2022-07-16T10:00:35Z</time>
      </trkpt>
      <trkpt lat="44.89317" lon="5.88547">
        <ele>725.4</ele>
        <time>2022-07-16T10:00:36Z</time>
      </trkpt>
      <trkpt lat="44.89319" lon="5.88553">
        <ele>725.7</ele>
        <time>2022-07-16T10:00:37Z</time>
      </trkpt>
      <trkpt lat="44.8932" lon="5.88556">
        <ele>725.9</ele>
        <time>2022-07-16T10:00:38Z</time>
      </trkpt>
      <trkpt lat="44.89322" lon="5.8856">
        <ele>726.1</ele>
        <time>2022-07-16T10:00:40Z</time>
      </trkpt>
      <trkpt lat="44.89323" lon="5.88564">
        <ele>726.3</ele>
        <time>2022-07-16T10:00:41Z</time>
      </trkpt>
      <trkpt lat="44.89325" lon="5.88567">
        <ele>726.5</ele>
        <time>2022-07-16T10:00:42Z</time>
      </trkpt>
      <trkpt lat="44.89328" lon="5.88575">
        <ele>727</ele>
        <time>2022-07-16T10:00:44Z</time>
      </trkpt>
      <trkpt lat="44.8933" lon="5.88581">
        <ele>727.3</ele>
        <time>2022-07-16T10:00:45Z</time>
      </trkpt>
      <trkpt lat="44.89331" lon="5.88584">
        <ele>727.4</ele>
        <time>2022-07-16T10:00:46Z</time>
      </trkpt>
      <trkpt lat="44.89334" lon="5.8859">
        <ele>727.8</ele>
        <time>2022-07-16T10:00:48Z</time>
      </trkpt>
      <trkpt lat="44.89336" lon="5.88596">
        <ele>728.1</ele>
        <time>2022-07-16T10:00:50Z</time>
      </trkpt>
      <trkpt lat="44.89338" lon="5.886">
        <ele>728.4</ele>
        <time>2022-07-16T10:00:51Z</time>
      </trkpt>
      <trkpt lat="44.89341" lon="5.88607">
        <ele>728.9</ele>
        <time>2022-07-16T10:00:53Z</time>
      </trkpt>
      <trkpt lat="44.89343" lon="5.88613">
        <ele>729.2</ele>
        <time>2022-07-16T10:00:54Z</time>
      </trkpt>
      <trkpt lat="44.89344" lon="5.88615">
        <ele>729.3</ele>
        <time>2022-07-16T10:00:55Z</time>
      </trkpt>
      <trkpt lat="44.89345" lon="5.88619">
        <ele>729.5</ele>
        <time>2022-07-16T10:00:56Z</time>
      </trkpt>
      <trkpt lat="44.89347" lon="5.88626">
        <ele>729.9</ele>
        <time>2022-07-16T10:00:58Z</time>
      </trkpt>
      <trkpt lat="44.8935" lon="5.8863">
        <ele>730.2</ele>
        <time>2022-07-16T10:00:59Z</time>
      </trkpt>
      <trkpt lat="44.89351" lon="5.88634">
        <ele>730.4</ele>
        <time>2022-07-16T10:01:00Z</time>
      </trkpt>
      <trkpt lat="44.89353" lon="5.88641">
        <ele>730.8</ele>
        <time>2022-07-16T10:01:02Z</time>
      </trkpt>
      <trkpt lat="44.89355" lon="5.88646">
        <ele>731.1</ele>
        <time>2022-07-16T10:01:03Z</time>
      </trkpt>
      <trkpt lat="44.89355" lon="5.88648">
        <ele>731.1</ele>
        <time>2022-07-16T10:01:04Z</time>
      </trkpt>
      <trkpt lat="44.89357" lon="5.88651">
        <ele>731.4</ele>
        <time>2022-07-16T10:01:05Z</time>
      </trkpt>
      <trkpt lat="44.89359" lon="5.88655">
        <ele>731.6</ele>
        <time>2022-07-16T10:01:06Z</time>
      </trkpt>
      <trkpt lat="44.89361" lon="5.88661">
        <ele>731.9</ele>
        <time>2022-07-16T10:01:08Z</time>
      </trkpt>
      <trkpt lat="44.89363" lon="5.88669">
        <ele>732.3</ele>
        <time>2022-07-16T10:01:10Z</time>
      </trkpt>
      <trkpt lat="44.89365" lon="5.88673">
        <ele>732.6</ele>
        <time>2022-07-16T10:01:11Z</time>
      </trkpt>
      <trkpt lat="44.89367" lon="5.88682">
        <ele>733</ele>
        <time>2022-07-16T10:01:14Z</time>
      </trkpt>
      <trkpt lat="44.89369" lon="5.88686">
        <ele>733.2</ele>
        <time>2022-07-16T10:01:15Z</time>
      </trkpt>
      <trkpt lat="44.89371" lon="5.88692">
        <ele>733.5</ele>
        <time>2022-07-16T10:01:16Z</time>
      </trkpt>
      <trkpt lat="44.89372" lon="5.88695">
        <ele>733.7</ele>
        <time>2022-07-16T10:01:17Z</time>
      </trkpt>
      <trkpt lat="44.89375" lon="5.88701">
        <ele>734</ele>
        <time>2022-07-16T10:01:19Z</time>
      </trkpt>
      <trkpt lat="44.89378" lon="5.88708">
        <ele>734.4</ele>
        <time>2022-07-16T10:01:20Z</time>
      </trkpt>
      <trkpt lat="44.89379" lon="5.88712">
        <ele>734.5</ele>
        <time>2022-07-16T10:01:21Z</time>
      </trkpt>
      <trkpt lat="44.8938" lon="5.88716">
        <ele>734.7</ele>
        <time>2022-07-16T10:01:23Z</time>
      </trkpt>
      <trkpt lat="44.89382" lon="5.88721">
        <ele>735</ele>
        <time>2022-07-16T10:01:24Z</time>
      </trkpt>
      <trkpt lat="44.89384" lon="5.88725">
        <ele>735.2</ele>
        <time>2022-07-16T10:01:25Z</time>
      </trkpt>
      <trkpt lat="44.89387" lon="5.8873">
        <ele>735.5</ele>
        <time>2022-07-16T10:01:27Z</time>
      </trkpt>
      <trkpt lat="44.89389" lon="5.88733">
        <ele>735.7</ele>
        <time>2022-07-16T10:01:28Z</time>
      </trkpt>
      <trkpt lat="44.89392" lon="5.8874">
        <ele>736</ele>
        <time>2022-07-16T10:01:29Z</time>
      </trkpt>
      <trkpt lat="44.89394" lon="5.88744">
        <ele>736.3</ele>
        <time>2022-07-16T10:01:31Z</time>
      </trkpt>
      <trkpt lat="44.89396" lon="5.88748">
        <ele>736.4</ele>
        <time>2022-07-16T10:01:32Z</time>
      </trkpt>
      <trkpt lat="44.89397" lon="5.88752">
        <ele>736.6</ele>
        <time>2022-07-16T10:01:33Z</time>
      </trkpt>
      <trkpt lat="44.89399" lon="5.88756">
        <ele>736.8</ele>
        <time>2022-07-16T10:01:34Z</time>
      </trkpt>
      <trkpt lat="44.89403" lon="5.88762">
        <ele>737.2</ele>
        <time>2022-07-16T10:01:36Z</time>
      </trkpt>
      <trkpt lat="44.89406" lon="5.8877">
        <ele>737.6</ele>
        <time>2022-07-16T10:01:38Z</time>
      </trkpt>
      <trkpt lat="44.89408" lon="5.88774">
        <ele>737.8</ele>
        <time>2022-07-16T10:01:39Z</time>
      </trkpt>
      <trkpt lat="44.89409" lon="5.88777">
        <ele>738</ele>
        <time>2022-07-16T10:01:40Z</time>
      </trkpt>
      <trkpt lat="44.89412" lon="5.88782">
        <ele>738.2</ele>
        <time>2022-07-16T10:01:42Z</time>
      </trkpt>
      <trkpt lat="44.89416" lon="5.88791">
        <ele>738.7</ele>
        <time>2022-07-16T10:01:44Z</time>
      </trkpt>
      <trkpt lat="44.89418" lon="5.88797">
        <ele>739</ele>
        <time>2022-07-16T10:01:45Z</time>
      </trkpt>
      <trkpt lat="44.89419" lon="5.888">
        <ele>739.1</ele>
        <time>2022-07-16T10:01:46Z</time>
      </trkpt>
      <trkpt lat="44.89421" lon="5.88803">
        <ele>739.3</ele>
        <time>2022-07-16T10:01:47Z</time>
      </trkpt>
      <trkpt lat="44.89425" lon="5.88813">
        <ele>739.9</ele>
        <time>2022-07-16T10:01:50Z</time>
      </trkpt>
      <trkpt lat="44.89428" lon="5.88818">
        <ele>740.1</ele>
        <time>2022-07-16T10:01:51Z</time>
      </trkpt>
      <trkpt lat="44.8943" lon="5.88823">
        <ele>740.4</ele>
        <time>2022-07-16T10:01:52Z</time>
      </trkpt>
      <trkpt lat="44.89431" lon="5.88826">
        <ele>740.6</ele>
        <time>2022-07-16T10:01:53Z</time>
      </trkpt>
      <trkpt lat="44.89434" lon="5.88832">
        <ele>740.9</ele>
        <time>2022-07-16T10:01:55Z</time>
      </trkpt>
      <trkpt lat="44.89436" lon="5.88835">
        <ele>741.1</ele>
        <time>2022-07-16T10:01:56Z</time>
      </trkpt>
      <trkpt lat="44.89437" lon="5.88839">
        <ele>741.3</ele>
        <time>2022-07-16T10:01:57Z</time>
      </trkpt>
      <trkpt lat="44.8944" lon="5.88847">
        <ele>741.7</ele>
        <time>2022-07-16T10:01:59Z</time>
      </trkpt>
      <trkpt lat="44.89441" lon="5.88851">
        <ele>742</ele>
        <time>2022-07-16T10:02:00Z</time>
      </trkpt>
      <trkpt lat="44.89443" lon="5.88856">
        <ele>742.2</ele>
        <time>2022-07-16T10:02:01Z</time>
      </trkpt>
      <trkpt lat="44.89444" lon="5.88858">
        <ele>742.3</ele>
        <time>2022-07-16T10:02:02Z</time>
      </trkpt>
      <trkpt lat="44.89447" lon="5.88864">
        <ele>742.7</ele>
        <time>2022-07-16T10:02:04Z</time>
      </trkpt>
      <trkpt lat="44.89449" lon="5.88869">
        <ele>743</ele>
        <time>2022-07-16T10:02:05Z</time>
      </trkpt>
      <trkpt lat="44.8945" lon="5.88871">
        <ele>743.1</ele>
        <time>2022-07-16T10:02:06Z</time>
      </trkpt>
      <trkpt lat="44.89453" lon="5.88878">
        <ele>743.5</ele>
        <time>2022-07-16T10:02:07Z</time>
      </trkpt>
      <trkpt lat="44.89454" lon="5.88881">
        <ele>743.7</ele>
        <time>2022-07-16T10:02:08Z</time>
      </trkpt>
      <trkpt lat="44.89456" lon="5.88888">
        <ele>744.1</ele>
        <time>2022-07-16T10:02:10Z</time>
      </trkpt>
      <trkpt lat="44.89457" lon="5.8889">
        <ele>744.2</ele>
        <time>2022-07-16T10:02:11Z</time>
      </trkpt>
      <trkpt lat="44.89458" lon="5.88893">
        <ele>744.3</ele>
        <time>2022-07-16T10:02:12Z</time>
      </trkpt>
      <trkpt lat="44.8946" lon="5.88896">
        <ele>744.5</ele>
        <time>2022-07-16T10:02:13Z</time>
      </trkpt>
      <trkpt lat="44.89462" lon="5.88899">
        <ele>744.7</ele>
        <time>2022-07-16T10:02:14Z</time>
      </trkpt>
      <trkpt lat="44.89464" lon="5.88906">
        <ele>745.1</ele>
        <time>2022-07-16T10:02:15Z</time>
      </trkpt>
      <trkpt lat="44.89466" lon="5.88912">
        <ele>745.4</ele>
        <time>2022-07-16T10:02:17Z</time>
      </trkpt>
      <trkpt lat="44.89467" lon="5.88914">
        <ele>745.5</ele>
        <time>2022-07-16T10:02:18Z</time>
      </trkpt>
      <trkpt lat="44.89468" lon="5.88916">
        <ele>745.6</ele>
        <time>2022-07-16T10:02:19Z</time>
      </trkpt>
      <trkpt lat="44.8947" lon="5.88922">
        <ele>746</ele>
        <time>2022-07-16T10:02:20Z</time>
      </trkpt>
      <trkpt lat="44.89473" lon="5.88927">
        <ele>746.3</ele>
        <time>2022-07-16T10:02:22Z</time>
      </trkpt>
      <trkpt lat="44.89474" lon="5.88931">
        <ele>746.5</ele>
        <time>2022-07-16T10:02:23Z</time>
      </trkpt>
      <trkpt lat="44.89477" lon="5.88938">
        <ele>746.9</ele>
        <time>2022-07-16T10:02:24Z</time>
      </trkpt>
      <trkpt lat="44.89478" lon="5.88942">
        <ele>747.1</ele>
        <time>2022-07-16T10:02:26Z</time>
      </trkpt>
      <trkpt lat="44.89481" lon="5.88945">
        <ele>747.4</ele>
        <time>2022-07-16T10:02:27Z</time>
      </trkpt>
      <trkpt lat="44.89481" lon="5.88946">
        <ele>747.4</ele>
        <time>2022-07-16T10:02:28Z</time>
      </trkpt>
      <trkpt lat="44.89482" lon="5.88949">
        <ele>747.6</ele>
        <time>2022-07-16T10:02:29Z</time>
      </trkpt>
      <trkpt lat="44.89484" lon="5.88952">
        <ele>747.8</ele>
        <time>2022-07-16T10:02:30Z</time>
      </trkpt>
      <trkpt lat="44.89486" lon="5.88957">
        <ele>748.1</ele>
        <time>2022-07-16T10:02:31Z</time>
      </trkpt>
      <trkpt lat="44.89489" lon="5.88962">
        <ele>748.5</ele>
        <time>2022-07-16T10:02:33Z</time>
      </trkpt>
      <trkpt lat="44.89491" lon="5.88967">
        <ele>748.7</ele>
        <time>2022-07-16T10:02:34Z</time>
      </trkpt>
      <trkpt lat="44.89493" lon="5.88975">
        <ele>749.2</ele>
        <time>2022-07-16T10:02:36Z</time>
      </trkpt>
      <trkpt lat="44.89495" lon="5.88981">
        <ele>749.5</ele>
        <time>2022-07-16T10:02:38Z</time>
      </trkpt>
      <trkpt lat="44.89498" lon="5.88985">
        <ele>749.8</ele>
        <time>2022-07-16T10:02:39Z</time>
      </trkpt>
      <trkpt lat="44.89499" lon="5.88987">
        <ele>749.9</ele>
        <time>2022-07-16T10:02:40Z</time>
      </trkpt>
      <trkpt lat="44.89502" lon="5.88994">
        <ele>750.4</ele>
        <time>2022-07-16T10:02:42Z</time>
      </trkpt>
      <trkpt lat="44.89505" lon="5.88998">
        <ele>750.7</ele>
        <time>2022-07-16T10:02:43Z</time>
      </trkpt>
      <trkpt lat="44.89507" lon="5.89004">
        <ele>751</ele>
        <time>2022-07-16T10:02:44Z</time>
      </trkpt>
      <trkpt lat="44.89508" lon="5.89007">
        <ele>751.2</ele>
        <time>2022-07-16T10:02:45Z</time>
      </trkpt>
      <trkpt lat="44.8951" lon="5.89011">
        <ele>751.5</ele>
        <time>2022-07-16T10:02:47Z</time>
      </trkpt>
      <trkpt lat="44.89512" lon="5.89015">
        <ele>751.7</ele>
        <time>2022-07-16T10:02:48Z</time>
      </trkpt>
      <trkpt lat="44.89514" lon="5.89021">
        <ele>752.1</ele>
        <time>2022-07-16T10:02:49Z</time>
      </trkpt>
      <trkpt lat="44.89516" lon="5.89023">
        <ele>752.3</ele>
        <time>2022-07-16T10:02:50Z</time>
      </trkpt>
      <trkpt lat="44.89517" lon="5.89027">
        <ele>752.5</ele>
        <time>2022-07-16T10:02:52Z</time>
      </trkpt>
      <trkpt lat="44.89519" lon="5.89031">
        <ele>752.8</ele>
        <time>2022-07-16T10:02:53Z</time>
      </trkpt>
      <trkpt lat="44.89521" lon="5.89035">
        <ele>753.1</ele>
        <time>2022-07-16T10:02:54Z</time>
      </trkpt>
      <trkpt lat="44.89522" lon="5.89037">
        <ele>753.2</ele>
        <time>2022-07-16T10:02:55Z</time>
      </trkpt>
      <trkpt lat="44.89524" lon="5.89043">
        <ele>753.5</ele>
        <time>2022-07-16T10:02:56Z</time>
      </trkpt>
      <trkpt lat="44.89526" lon="5.89047">
        <ele>753.7</ele>
        <time>2022-07-16T10:02:57Z</time>
      </trkpt>
      <trkpt lat="44.89529" lon="5.89052">
        <ele>754.1</ele>
        <time>2022-07-16T10:02:59Z</time>
      </trkpt>
      <trkpt lat="44.8953" lon="5.89054">
        <ele>754.2</ele>
        <time>2022-07-16T10:03:00Z</time>
      </trkpt>
      <trkpt lat="44.89531" lon="5.89057">
        <ele>754.3</ele>
        <time>2022-07-16T10:03:01Z</time>
      </trkpt>
      <trkpt lat="44.89532" lon="5.89061">
        <ele>754.6</ele>
        <time>2022-07-16T10:03:02Z</time>
      </trkpt>
      <trkpt lat="44.89534" lon="5.89065">
        <ele>754.8</ele>
        <time>2022-07-16T10:03:03Z</time>
      </trkpt>
      <trkpt lat="44.89536" lon="5.89071">
        <ele>755.1</ele>
        <time>2022-07-16T10:03:05Z</time>
      </trkpt>
      <trkpt lat="44.89537" lon="5.89077">
        <ele>755.4</ele>
        <time>2022-07-16T10:03:07Z</time>
      </trkpt>
      <trkpt lat="44.89539" lon="5.89082">
        <ele>755.7</ele>
        <time>2022-07-16T10:03:08Z</time>
      </trkpt>
      <trkpt lat="44.8954" lon="5.89084">
        <ele>755.8</ele>
        <time>2022-07-16T10:03:09Z</time>
      </trkpt>
      <trkpt lat="44.89543" lon="5.89093">
        <ele>756.4</ele>
        <time>2022-07-16T10:03:11Z</time>
      </trkpt>
      <trkpt lat="44.89545" lon="5.89098">
        <ele>756.6</ele>
        <time>2022-07-16T10:03:13Z</time>
      </trkpt>
      <trkpt lat="44.89546" lon="5.89102">
        <ele>756.9</ele>
        <time>2022-07-16T10:03:14Z</time>
      </trkpt>
      <trkpt lat="44.89547" lon="5.89104">
        <ele>757</ele>
        <time>2022-07-16T10:03:15Z</time>
      </trkpt>
      <trkpt lat="44.8955" lon="5.89114">
        <ele>757.5</ele>
        <time>2022-07-16T10:03:18Z</time>
      </trkpt>
      <trkpt lat="44.89552" lon="5.89118">
        <ele>757.8</ele>
        <time>2022-07-16T10:03:19Z</time>
      </trkpt>
      <trkpt lat="44.89554" lon="5.89124">
        <ele>758.1</ele>
        <time>2022-07-16T10:03:21Z</time>
      </trkpt>
      <trkpt lat="44.89557" lon="5.8913">
        <ele>758.5</ele>
        <time>2022-07-16T10:03:23Z</time>
      </trkpt>
      <trkpt lat="44.8956" lon="5.89134">
        <ele>758.7</ele>
        <time>2022-07-16T10:03:24Z</time>
      </trkpt>
      <trkpt lat="44.89563" lon="5.89138">
        <ele>759</ele>
        <time>2022-07-16T10:03:26Z</time>
      </trkpt>
      <trkpt lat="44.89564" lon="5.89142">
        <ele>759.2</ele>
        <time>2022-07-16T10:03:27Z</time>
      </trkpt>
      <trkpt lat="44.89568" lon="5.8915">
        <ele>759.8</ele>
        <time>2022-07-16T10:03:30Z</time>
      </trkpt>
      <trkpt lat="44.8957" lon="5.89154">
        <ele>760</ele>
        <time>2022-07-16T10:03:31Z</time>
      </trkpt>
      <trkpt lat="44.89571" lon="5.89158">
        <ele>760.2</ele>
        <time>2022-07-16T10:03:32Z</time>
      </trkpt>
      <trkpt lat="44.89572" lon="5.89161">
        <ele>760.4</ele>
        <time>2022-07-16T10:03:33Z</time>
      </trkpt>
      <trkpt lat="44.89574" lon="5.89166">
        <ele>760.7</ele>
        <time>2022-07-16T10:03:35Z</time>
      </trkpt>
      <trkpt lat="44.89575" lon="5.89171">
        <ele>761</ele>
        <time>2022-07-16T10:03:36Z</time>
      </trkpt>
      <trkpt lat="44.89575" lon="5.89173">
        <ele>761.1</ele>
        <time>2022-07-16T10:03:37Z</time>
      </trkpt>
      <trkpt lat="44.89578" lon="5.8918">
        <ele>761.6</ele>
        <time>2022-07-16T10:03:39Z</time>
      </trkpt>
      <trkpt lat="44.8958" lon="5.89183">
        <ele>761.8</ele>
        <time>2022-07-16T10:03:40Z</time>
      </trkpt>
      <trkpt lat="44.89582" lon="5.89188">
        <ele>762.1</ele>
        <time>2022-07-16T10:03:42Z</time>
      </trkpt>
      <trkpt lat="44.89585" lon="5.89193">
        <ele>762.5</ele>
        <time>2022-07-16T10:03:44Z</time>
      </trkpt>
      <trkpt lat="44.89587" lon="5.89201">
        <ele>763</ele>
        <time>2022-07-16T10:03:46Z</time>
      </trkpt>
      <trkpt lat="44.89589" lon="5.89207">
        <ele>763.4</ele>
        <time>2022-07-16T10:03:48Z</time>
      </trkpt>
      <trkpt lat="44.89591" lon="5.89211">
        <ele>763.7</ele>
        <time>2022-07-16T10:03:49Z</time>
      </trkpt>
      <trkpt lat="44.89592" lon="5.89213">
        <ele>763.8</ele>
        <time>2022-07-16T10:03:50Z</time>
      </trkpt>
      <trkpt lat="44.89594" lon="5.89219">
        <ele>764.2</ele>
        <time>2022-07-16T10:03:51Z</time>
      </trkpt>
      <trkpt lat="44.89596" lon="5.89223">
        <ele>764.5</ele>
        <time>2022-07-16T10:03:52Z</time>
      </trkpt>
      <trkpt lat="44.89599" lon="5.89229">
        <ele>764.9</ele>
        <time>2022-07-16T10:03:54Z</time>
      </trkpt>
      <trkpt lat="44.896" lon="5.89232">
        <ele>765.1</ele>
        <time>2022-07-16T10:03:55Z</time>
      </trkpt>
      <trkpt lat="44.89601" lon="5.89235">
        <ele>765.2</ele>
        <time>2022-07-16T10:03:56Z</time>
      </trkpt>
      <trkpt lat="44.89602" lon="5.89238">
        <ele>765.5</ele>
        <time>2022-07-16T10:03:58Z</time>
      </trkpt>
      <trkpt lat="44.89603" lon="5.89242">
        <ele>765.7</ele>
        <time>2022-07-16T10:03:59Z</time>
      </trkpt>
      <trkpt lat="44.89606" lon="5.89249">
        <ele>766.2</ele>
        <time>2022-07-16T10:04:01Z</time>
      </trkpt>
      <trkpt lat="44.89606" lon="5.89253">
        <ele>766.4</ele>
        <time>2022-07-16T10:04:02Z</time>
      </trkpt>
      <trkpt lat="44.89607" lon="5.89258">
        <ele>766.7</ele>
        <time>2022-07-16T10:04:03Z</time>
      </trkpt>
      <trkpt lat="44.89609" lon="5.89261">
        <ele>766.9</ele>
        <time>2022-07-16T10:04:05Z</time>
      </trkpt>
      <trkpt lat="44.89611" lon="5.89265">
        <ele>767.2</ele>
        <time>2022-07-16T10:04:06Z</time>
      </trkpt>
      <trkpt lat="44.89612" lon="5.89271">
        <ele>767.6</ele>
        <time>2022-07-16T10:04:07Z</time>
      </trkpt>
      <trkpt lat="44.89613" lon="5.89277">
        <ele>767.9</ele>
        <time>2022-07-16T10:04:09Z</time>
      </trkpt>
      <trkpt lat="44.89614" lon="5.89278">
        <ele>768</ele>
        <time>2022-07-16T10:04:10Z</time>
      </trkpt>
      <trkpt lat="44.89615" lon="5.8928">
        <ele>768.2</ele>
        <time>2022-07-16T10:04:11Z</time>
      </trkpt>
      <trkpt lat="44.89616" lon="5.89284">
        <ele>768.4</ele>
        <time>2022-07-16T10:04:12Z</time>
      </trkpt>
      <trkpt lat="44.89617" lon="5.89289">
        <ele>768.7</ele>
        <time>2022-07-16T10:04:13Z</time>
      </trkpt>
      <trkpt lat="44.89618" lon="5.89292">
        <ele>768.9</ele>
        <time>2022-07-16T10:04:14Z</time>
      </trkpt>
      <trkpt lat="44.8962" lon="5.89297">
        <ele>769.2</ele>
        <time>2022-07-16T10:04:16Z</time>
      </trkpt>
      <trkpt lat="44.89622" lon="5.89306">
        <ele>769.8</ele>
        <time>2022-07-16T10:04:19Z</time>
      </trkpt>
      <trkpt lat="44.89623" lon="5.89313">
        <ele>770.2</ele>
        <time>2022-07-16T10:04:21Z</time>
      </trkpt>
      <trkpt lat="44.89625" lon="5.89317">
        <ele>770.5</ele>
        <time>2022-07-16T10:04:22Z</time>
      </trkpt>
      <trkpt lat="44.89628" lon="5.89325">
        <ele>771</ele>
        <time>2022-07-16T10:04:25Z</time>
      </trkpt>
      <trkpt lat="44.8963" lon="5.89332">
        <ele>771.4</ele>
        <time>2022-07-16T10:04:27Z</time>
      </trkpt>
      <trkpt lat="44.89631" lon="5.89337">
        <ele>771.7</ele>
        <time>2022-07-16T10:04:28Z</time>
      </trkpt>
      <trkpt lat="44.89633" lon="5.89341">
        <ele>771.7</ele>
        <time>2022-07-16T10:04:29Z</time>
      </trkpt>
      <trkpt lat="44.89634" lon="5.89343">
        <ele>771.7</ele>
        <time>2022-07-16T10:04:30Z</time>
      </trkpt>
      <trkpt lat="44.89636" lon="5.89349">
        <ele>772</ele>
        <time>2022-07-16T10:04:32Z</time>
      </trkpt>
      <trkpt lat="44.89637" lon="5.89352">
        <ele>772.2</ele>
        <time>2022-07-16T10:04:33Z</time>
      </trkpt>
      <trkpt lat="44.89638" lon="5.89359">
        <ele>772.5</ele>
        <time>2022-07-16T10:04:35Z</time>
      </trkpt>
      <trkpt lat="44.89639" lon="5.8936">
        <ele>772.6</ele>
        <time>2022-07-16T10:04:36Z</time>
      </trkpt>
      <trkpt lat="44.89642" lon="5.89367">
        <ele>772.9</ele>
        <time>2022-07-16T10:04:38Z</time>
      </trkpt>
      <trkpt lat="44.89643" lon="5.89371">
        <ele>773.1</ele>
        <time>2022-07-16T10:04:39Z</time>
      </trkpt>
      <trkpt lat="44.89643" lon="5.89372">
        <ele>773.2</ele>
        <time>2022-07-16T10:04:40Z</time>
      </trkpt>
      <trkpt lat="44.89645" lon="5.89378">
        <ele>773.4</ele>
        <time>2022-07-16T10:04:41Z</time>
      </trkpt>
      <trkpt lat="44.89646" lon="5.89381">
        <ele>773.6</ele>
        <time>2022-07-16T10:04:42Z</time>
      </trkpt>
      <trkpt lat="44.89647" lon="5.89386">
        <ele>773.8</ele>
        <time>2022-07-16T10:04:44Z</time>
      </trkpt>
      <trkpt lat="44.89648" lon="5.89389">
        <ele>774</ele>
        <time>2022-07-16T10:04:45Z</time>
      </trkpt>
      <trkpt lat="44.89649" lon="5.89395">
        <ele>774.3</ele>
        <time>2022-07-16T10:04:47Z</time>
      </trkpt>
      <trkpt lat="44.89649" lon="5.89401">
        <ele>774.5</ele>
        <time>2022-07-16T10:04:48Z</time>
      </trkpt>
      <trkpt lat="44.89649" lon="5.89404">
        <ele>774.7</ele>
        <time>2022-07-16T10:04:49Z</time>
      </trkpt>
      <trkpt lat="44.89652" lon="5.89409">
        <ele>775</ele>
        <time>2022-07-16T10:04:51Z</time>
      </trkpt>
      <trkpt lat="44.89652" lon="5.89412">
        <ele>775.1</ele>
        <time>2022-07-16T10:04:52Z</time>
      </trkpt>
      <trkpt lat="44.89653" lon="5.89414">
        <ele>775.2</ele>
        <time>2022-07-16T10:04:53Z</time>
      </trkpt>
      <trkpt lat="44.89654" lon="5.89423">
        <ele>775.6</ele>
        <time>2022-07-16T10:04:55Z</time>
      </trkpt>
      <trkpt lat="44.89655" lon="5.89425">
        <ele>775.7</ele>
        <time>2022-07-16T10:04:56Z</time>
      </trkpt>
      <trkpt lat="44.89655" lon="5.8943">
        <ele>775.9</ele>
        <time>2022-07-16T10:04:58Z</time>
      </trkpt>
      <trkpt lat="44.89656" lon="5.89434">
        <ele>776.1</ele>
        <time>2022-07-16T10:04:59Z</time>
      </trkpt>
      <trkpt lat="44.89657" lon="5.89439">
        <ele>776.4</ele>
        <time>2022-07-16T10:05:00Z</time>
      </trkpt>
      <trkpt lat="44.89658" lon="5.89441">
        <ele>776.4</ele>
        <time>2022-07-16T10:05:01Z</time>
      </trkpt>
      <trkpt lat="44.89659" lon="5.89448">
        <ele>776.8</ele>
        <time>2022-07-16T10:05:03Z</time>
      </trkpt>
      <trkpt lat="44.8966" lon="5.89452">
        <ele>777</ele>
        <time>2022-07-16T10:05:04Z</time>
      </trkpt>
      <trkpt lat="44.8966" lon="5.89454">
        <ele>777</ele>
        <time>2022-07-16T10:05:05Z</time>
      </trkpt>
      <trkpt lat="44.89662" lon="5.89459">
        <ele>777.2</ele>
        <time>2022-07-16T10:05:06Z</time>
      </trkpt>
      <trkpt lat="44.89663" lon="5.89461">
        <ele>777.4</ele>
        <time>2022-07-16T10:05:07Z</time>
      </trkpt>
      <trkpt lat="44.89665" lon="5.89464">
        <ele>777.6</ele>
        <time>2022-07-16T10:05:09Z</time>
      </trkpt>
      <trkpt lat="44.89667" lon="5.89468">
        <ele>777.9</ele>
        <time>2022-07-16T10:05:10Z</time>
      </trkpt>
      <trkpt lat="44.89668" lon="5.89474">
        <ele>778.2</ele>
        <time>2022-07-16T10:05:11Z</time>
      </trkpt>
      <trkpt lat="44.89671" lon="5.89481">
        <ele>778.7</ele>
        <time>2022-07-16T10:05:14Z</time>
      </trkpt>
      <trkpt lat="44.89674" lon="5.89489">
        <ele>779.1</ele>
        <time>2022-07-16T10:05:17Z</time>
      </trkpt>
      <trkpt lat="44.89676" lon="5.89495">
        <ele>779.5</ele>
        <time>2022-07-16T10:05:19Z</time>
      </trkpt>
      <trkpt lat="44.89679" lon="5.895">
        <ele>779.8</ele>
        <time>2022-07-16T10:05:21Z</time>
      </trkpt>
      <trkpt lat="44.89682" lon="5.89508">
        <ele>780.2</ele>
        <time>2022-07-16T10:05:23Z</time>
      </trkpt>
      <trkpt lat="44.89688" lon="5.89514">
        <ele>780.6</ele>
        <time>2022-07-16T10:05:26Z</time>
      </trkpt>
      <trkpt lat="44.89692" lon="5.8952">
        <ele>780.9</ele>
        <time>2022-07-16T10:05:27Z</time>
      </trkpt>
      <trkpt lat="44.89693" lon="5.89522">
        <ele>781</ele>
        <time>2022-07-16T10:05:28Z</time>
      </trkpt>
      <trkpt lat="44.89696" lon="5.89526">
        <ele>781.1</ele>
        <time>2022-07-16T10:05:29Z</time>
      </trkpt>
      <trkpt lat="44.89699" lon="5.89529">
        <ele>781.3</ele>
        <time>2022-07-16T10:05:30Z</time>
      </trkpt>
      <trkpt lat="44.89703" lon="5.89535">
        <ele>781.6</ele>
        <time>2022-07-16T10:05:32Z</time>
      </trkpt>
      <trkpt lat="44.89706" lon="5.89539">
        <ele>781.8</ele>
        <time>2022-07-16T10:05:33Z</time>
      </trkpt>
      <trkpt lat="44.89712" lon="5.89545">
        <ele>782.1</ele>
        <time>2022-07-16T10:05:36Z</time>
      </trkpt>
      <trkpt lat="44.89715" lon="5.89548">
        <ele>782.3</ele>
        <time>2022-07-16T10:05:37Z</time>
      </trkpt>
      <trkpt lat="44.89717" lon="5.89551">
        <ele>782.4</ele>
        <time>2022-07-16T10:05:38Z</time>
      </trkpt>
      <trkpt lat="44.8972" lon="5.89554">
        <ele>782.6</ele>
        <time>2022-07-16T10:05:39Z</time>
      </trkpt>
      <trkpt lat="44.89722" lon="5.89557">
        <ele>782.7</ele>
        <time>2022-07-16T10:05:40Z</time>
      </trkpt>
      <trkpt lat="44.89725" lon="5.89562">
        <ele>782.9</ele>
        <time>2022-07-16T10:05:41Z</time>
      </trkpt>
      <trkpt lat="44.89732" lon="5.89571">
        <ele>783.4</ele>
        <time>2022-07-16T10:05:44Z</time>
      </trkpt>
      <trkpt lat="44.89735" lon="5.89574">
        <ele>783.6</ele>
        <time>2022-07-16T10:05:45Z</time>
      </trkpt>
      <trkpt lat="44.89741" lon="5.89582">
        <ele>784</ele>
        <time>2022-07-16T10:05:48Z</time>
      </trkpt>
      <trkpt lat="44.89743" lon="5.89584">
        <ele>784.1</ele>
        <time>2022-07-16T10:05:49Z</time>
      </trkpt>
      <trkpt lat="44.89746" lon="5.89587">
        <ele>784.3</ele>
        <time>2022-07-16T10:05:50Z</time>
      </trkpt>
      <trkpt lat="44.8975" lon="5.89591">
        <ele>784.5</ele>
        <time>2022-07-16T10:05:51Z</time>
      </trkpt>
      <trkpt lat="44.89753" lon="5.89598">
        <ele>784.8</ele>
        <time>2022-07-16T10:05:53Z</time>
      </trkpt>
      <trkpt lat="44.89756" lon="5.89601">
        <ele>785</ele>
        <time>2022-07-16T10:05:54Z</time>
      </trkpt>
      <trkpt lat="44.8976" lon="5.89605">
        <ele>785.3</ele>
        <time>2022-07-16T10:05:55Z</time>
      </trkpt>
      <trkpt lat="44.89764" lon="5.89612">
        <ele>785.6</ele>
        <time>2022-07-16T10:05:57Z</time>
      </trkpt>
      <trkpt lat="44.89768" lon="5.89616">
        <ele>785.9</ele>
        <time>2022-07-16T10:05:58Z</time>
      </trkpt>
      <trkpt lat="44.89771" lon="5.8962">
        <ele>786.1</ele>
        <time>2022-07-16T10:06:00Z</time>
      </trkpt>
      <trkpt lat="44.89775" lon="5.89627">
        <ele>786.2</ele>
        <time>2022-07-16T10:06:02Z</time>
      </trkpt>
      <trkpt lat="44.89778" lon="5.89632">
        <ele>786.4</ele>
        <time>2022-07-16T10:06:03Z</time>
      </trkpt>
      <trkpt lat="44.89782" lon="5.89639">
        <ele>786.5</ele>
        <time>2022-07-16T10:06:06Z</time>
      </trkpt>
      <trkpt lat="44.89784" lon="5.89643">
        <ele>786.6</ele>
        <time>2022-07-16T10:06:07Z</time>
      </trkpt>
      <trkpt lat="44.89792" lon="5.89658">
        <ele>787</ele>
        <time>2022-07-16T10:06:10Z</time>
      </trkpt>
      <trkpt lat="44.89794" lon="5.89663">
        <ele>787.1</ele>
        <time>2022-07-16T10:06:12Z</time>
      </trkpt>
      <trkpt lat="44.89796" lon="5.89669">
        <ele>787.2</ele>
        <time>2022-07-16T10:06:13Z</time>
      </trkpt>
      <trkpt lat="44.89798" lon="5.89673">
        <ele>787.3</ele>
        <time>2022-07-16T10:06:14Z</time>
      </trkpt>
      <trkpt lat="44.89801" lon="5.8968">
        <ele>787.4</ele>
        <time>2022-07-16T10:06:15Z</time>
      </trkpt>
      <trkpt lat="44.89802" lon="5.89684">
        <ele>787.5</ele>
        <time>2022-07-16T10:06:17Z</time>
      </trkpt>
      <trkpt lat="44.89805" lon="5.89691">
        <ele>787.7</ele>
        <time>2022-07-16T10:06:19Z</time>
      </trkpt>
      <trkpt lat="44.89806" lon="5.89695">
        <ele>787.8</ele>
        <time>2022-07-16T10:06:20Z</time>
      </trkpt>
      <trkpt lat="44.89808" lon="5.89699">
        <ele>788</ele>
        <time>2022-07-16T10:06:21Z</time>
      </trkpt>
      <trkpt lat="44.89812" lon="5.89706">
        <ele>788.2</ele>
        <time>2022-07-16T10:06:22Z</time>
      </trkpt>
      <trkpt lat="44.89815" lon="5.89715">
        <ele>788.4</ele>
        <time>2022-07-16T10:06:24Z</time>
      </trkpt>
      <trkpt lat="44.89818" lon="5.89722">
        <ele>788.6</ele>
        <time>2022-07-16T10:06:25Z</time>
      </trkpt>
      <trkpt lat="44.89821" lon="5.8973">
        <ele>788.8</ele>
        <time>2022-07-16T10:06:27Z</time>
      </trkpt>
      <trkpt lat="44.89826" lon="5.8974">
        <ele>789</ele>
        <time>2022-07-16T10:06:28Z</time>
      </trkpt>
      <trkpt lat="44.89827" lon="5.89747">
        <ele>789.2</ele>
        <time>2022-07-16T10:06:30Z</time>
      </trkpt>
      <trkpt lat="44.89827" lon="5.89753">
        <ele>789.3</ele>
        <time>2022-07-16T10:06:31Z</time>
      </trkpt>
      <trkpt lat="44.89833" lon="5.8977">
        <ele>789.6</ele>
        <time>2022-07-16T10:06:34Z</time>
      </trkpt>
      <trkpt lat="44.89835" lon="5.89776">
        <ele>789.7</ele>
        <time>2022-07-16T10:06:35Z</time>
      </trkpt>
      <trkpt lat="44.89838" lon="5.89783">
        <ele>789.9</ele>
        <time>2022-07-16T10:06:36Z</time>
      </trkpt>
      <trkpt lat="44.8984" lon="5.89792">
        <ele>790.1</ele>
        <time>2022-07-16T10:06:37Z</time>
      </trkpt>
      <trkpt lat="44.89843" lon="5.898">
        <ele>790.2</ele>
        <time>2022-07-16T10:06:39Z</time>
      </trkpt>
      <trkpt lat="44.89845" lon="5.89805">
        <ele>790.3</ele>
        <time>2022-07-16T10:06:40Z</time>
      </trkpt>
      <trkpt lat="44.8985" lon="5.89818">
        <ele>790.6</ele>
        <time>2022-07-16T10:06:43Z</time>
      </trkpt>
      <trkpt lat="44.89856" lon="5.89834">
        <ele>790.8</ele>
        <time>2022-07-16T10:06:46Z</time>
      </trkpt>
      <trkpt lat="44.89859" lon="5.89841">
        <ele>791</ele>
        <time>2022-07-16T10:06:47Z</time>
      </trkpt>
      <trkpt lat="44.89861" lon="5.89848">
        <ele>791.1</ele>
        <time>2022-07-16T10:06:48Z</time>
      </trkpt>
      <trkpt lat="44.89865" lon="5.89859">
        <ele>791.3</ele>
        <time>2022-07-16T10:06:50Z</time>
      </trkpt>
      <trkpt lat="44.89869" lon="5.89871">
        <ele>791.5</ele>
        <time>2022-07-16T10:06:53Z</time>
      </trkpt>
      <trkpt lat="44.89871" lon="5.89877">
        <ele>791.6</ele>
        <time>2022-07-16T10:06:54Z</time>
      </trkpt>
      <trkpt lat="44.89873" lon="5.89884">
        <ele>791.7</ele>
        <time>2022-07-16T10:06:55Z</time>
      </trkpt>
      <trkpt lat="44.89875" lon="5.89891">
        <ele>791.8</ele>
        <time>2022-07-16T10:06:56Z</time>
      </trkpt>
      <trkpt lat="44.89876" lon="5.89898">
        <ele>791.9</ele>
        <time>2022-07-16T10:06:57Z</time>
      </trkpt>
      <trkpt lat="44.89878" lon="5.89906">
        <ele>792</ele>
        <time>2022-07-16T10:06:58Z</time>
      </trkpt>
      <trkpt lat="44.89881" lon="5.89913">
        <ele>792</ele>
        <time>2022-07-16T10:06:59Z</time>
      </trkpt>
      <trkpt lat="44.89884" lon="5.8992">
        <ele>792.1</ele>
        <time>2022-07-16T10:07:00Z</time>
      </trkpt>
      <trkpt lat="44.89887" lon="5.89927">
        <ele>792.2</ele>
        <time>2022-07-16T10:07:01Z</time>
      </trkpt>
      <trkpt lat="44.8989" lon="5.89935">
        <ele>792.3</ele>
        <time>2022-07-16T10:07:02Z</time>
      </trkpt>
      <trkpt lat="44.89893" lon="5.89941">
        <ele>792.4</ele>
        <time>2022-07-16T10:07:03Z</time>
      </trkpt>
      <trkpt lat="44.89896" lon="5.89949">
        <ele>792.5</ele>
        <time>2022-07-16T10:07:04Z</time>
      </trkpt>
      <trkpt lat="44.89898" lon="5.89956">
        <ele>792.6</ele>
        <time>2022-07-16T10:07:05Z</time>
      </trkpt>
      <trkpt lat="44.89901" lon="5.89964">
        <ele>792.7</ele>
        <time>2022-07-16T10:07:06Z</time>
      </trkpt>
      <trkpt lat="44.89903" lon="5.89971">
        <ele>792.8</ele>
        <time>2022-07-16T10:07:07Z</time>
      </trkpt>
      <trkpt lat="44.89905" lon="5.89978">
        <ele>792.9</ele>
        <time>2022-07-16T10:07:08Z</time>
      </trkpt>
      <trkpt lat="44.89908" lon="5.89984">
        <ele>792.9</ele>
        <time>2022-07-16T10:07:09Z</time>
      </trkpt>
      <trkpt lat="44.8991" lon="5.89992">
        <ele>793</ele>
        <time>2022-07-16T10:07:10Z</time>
      </trkpt>
      <trkpt lat="44.89913" lon="5.89999">
        <ele>793.1</ele>
        <time>2022-07-16T10:07:11Z</time>
      </trkpt>
      <trkpt lat="44.89916" lon="5.90007">
        <ele>793.2</ele>
        <time>2022-07-16T10:07:12Z</time>
      </trkpt>
      <trkpt lat="44.89918" lon="5.90013">
        <ele>793.3</ele>
        <time>2022-07-16T10:07:13Z</time>
      </trkpt>
      <trkpt lat="44.89921" lon="5.9002">
        <ele>793.3</ele>
        <time>2022-07-16T10:07:14Z</time>
      </trkpt>
      <trkpt lat="44.89923" lon="5.90027">
        <ele>793.4</ele>
        <time>2022-07-16T10:07:15Z</time>
      </trkpt>
      <trkpt lat="44.89926" lon="5.90034">
        <ele>793.4</ele>
        <time>2022-07-16T10:07:16Z</time>
      </trkpt>
      <trkpt lat="44.89928" lon="5.90041">
        <ele>793.4</ele>
        <time>2022-07-16T10:07:17Z</time>
      </trkpt>
      <trkpt lat="44.89931" lon="5.90047">
        <ele>793.4</ele>
        <time>2022-07-16T10:07:18Z</time>
      </trkpt>
      <trkpt lat="44.89933" lon="5.90055">
        <ele>793.4</ele>
        <time>2022-07-16T10:07:19Z</time>
      </trkpt>
      <trkpt lat="44.89935" lon="5.90061">
        <ele>793.4</ele>
        <time>2022-07-16T10:07:20Z</time>
      </trkpt>
      <trkpt lat="44.89937" lon="5.90069">
        <ele>793.4</ele>
        <time>2022-07-16T10:07:21Z</time>
      </trkpt>
      <trkpt lat="44.89939" lon="5.90077">
        <ele>793.4</ele>
        <time>2022-07-16T10:07:22Z</time>
      </trkpt>
      <trkpt lat="44.8994" lon="5.90085">
        <ele>793.4</ele>
        <time>2022-07-16T10:07:23Z</time>
      </trkpt>
      <trkpt lat="44.89941" lon="5.90094">
        <ele>793.2</ele>
        <time>2022-07-16T10:07:24Z</time>
      </trkpt>
      <trkpt lat="44.89941" lon="5.90102">
        <ele>793.1</ele>
        <time>2022-07-16T10:07:25Z</time>
      </trkpt>
      <trkpt lat="44.89941" lon="5.90111">
        <ele>793</ele>
        <time>2022-07-16T10:07:26Z</time>
      </trkpt>
      <trkpt lat="44.89942" lon="5.90121">
        <ele>792.8</ele>
        <time>2022-07-16T10:07:27Z</time>
      </trkpt>
      <trkpt lat="44.89942" lon="5.9013">
        <ele>792.6</ele>
        <time>2022-07-16T10:07:28Z</time>
      </trkpt>
      <trkpt lat="44.89942" lon="5.9014">
        <ele>792.5</ele>
        <time>2022-07-16T10:07:29Z</time>
      </trkpt>
      <trkpt lat="44.89942" lon="5.90151">
        <ele>792.4</ele>
        <time>2022-07-16T10:07:30Z</time>
      </trkpt>
      <trkpt lat="44.89941" lon="5.90161">
        <ele>792.2</ele>
        <time>2022-07-16T10:07:31Z</time>
      </trkpt>
      <trkpt lat="44.8994" lon="5.90171">
        <ele>792.1</ele>
        <time>2022-07-16T10:07:32Z</time>
      </trkpt>
      <trkpt lat="44.8994" lon="5.90181">
        <ele>792.1</ele>
        <time>2022-07-16T10:07:33Z</time>
      </trkpt>
      <trkpt lat="44.89939" lon="5.90191">
        <ele>792.1</ele>
        <time>2022-07-16T10:07:34Z</time>
      </trkpt>
      <trkpt lat="44.89939" lon="5.90201">
        <ele>792.1</ele>
        <time>2022-07-16T10:07:35Z</time>
      </trkpt>
      <trkpt lat="44.8994" lon="5.9021">
        <ele>792.1</ele>
        <time>2022-07-16T10:07:36Z</time>
      </trkpt>
      <trkpt lat="44.8994" lon="5.9022">
        <ele>792.1</ele>
        <time>2022-07-16T10:07:37Z</time>
      </trkpt>
      <trkpt lat="44.8994" lon="5.9023">
        <ele>792.2</ele>
        <time>2022-07-16T10:07:38Z</time>
      </trkpt>
      <trkpt lat="44.8994" lon="5.90239">
        <ele>792.3</ele>
        <time>2022-07-16T10:07:39Z</time>
      </trkpt>
      <trkpt lat="44.89941" lon="5.90249">
        <ele>792.4</ele>
        <time>2022-07-16T10:07:40Z</time>
      </trkpt>
      <trkpt lat="44.89942" lon="5.90257">
        <ele>792.5</ele>
        <time>2022-07-16T10:07:41Z</time>
      </trkpt>
      <trkpt lat="44.89943" lon="5.90265">
        <ele>792.6</ele>
        <time>2022-07-16T10:07:42Z</time>
      </trkpt>
      <trkpt lat="44.89944" lon="5.90274">
        <ele>792.7</ele>
        <time>2022-07-16T10:07:43Z</time>
      </trkpt>
      <trkpt lat="44.89947" lon="5.90281">
        <ele>792.8</ele>
        <time>2022-07-16T10:07:44Z</time>
      </trkpt>
      <trkpt lat="44.89948" lon="5.90288">
        <ele>793</ele>
        <time>2022-07-16T10:07:45Z</time>
      </trkpt>
      <trkpt lat="44.89951" lon="5.90295">
        <ele>793.1</ele>
        <time>2022-07-16T10:07:46Z</time>
      </trkpt>
      <trkpt lat="44.89954" lon="5.90301">
        <ele>793.3</ele>
        <time>2022-07-16T10:07:47Z</time>
      </trkpt>
      <trkpt lat="44.89956" lon="5.90307">
        <ele>793.5</ele>
        <time>2022-07-16T10:07:48Z</time>
      </trkpt>
      <trkpt lat="44.89958" lon="5.90313">
        <ele>793.7</ele>
        <time>2022-07-16T10:07:49Z</time>
      </trkpt>
      <trkpt lat="44.89961" lon="5.90319">
        <ele>793.9</ele>
        <time>2022-07-16T10:07:50Z</time>
      </trkpt>
      <trkpt lat="44.89964" lon="5.90324">
        <ele>794</ele>
        <time>2022-07-16T10:07:51Z</time>
      </trkpt>
      <trkpt lat="44.89966" lon="5.90329">
        <ele>794.2</ele>
        <time>2022-07-16T10:07:52Z</time>
      </trkpt>
      <trkpt lat="44.89967" lon="5.90332">
        <ele>794.2</ele>
        <time>2022-07-16T10:07:53Z</time>
      </trkpt>
      <trkpt lat="44.89968" lon="5.90338">
        <ele>794.4</ele>
        <time>2022-07-16T10:07:54Z</time>
      </trkpt>
      <trkpt lat="44.89968" lon="5.90346">
        <ele>794.5</ele>
        <time>2022-07-16T10:07:55Z</time>
      </trkpt>
      <trkpt lat="44.89969" lon="5.90351">
        <ele>794.7</ele>
        <time>2022-07-16T10:07:56Z</time>
      </trkpt>
      <trkpt lat="44.89972" lon="5.90361">
        <ele>794.8</ele>
        <time>2022-07-16T10:07:57Z</time>
      </trkpt>
      <trkpt lat="44.89977" lon="5.90366">
        <ele>795</ele>
        <time>2022-07-16T10:07:58Z</time>
      </trkpt>
      <trkpt lat="44.89981" lon="5.90373">
        <ele>795.1</ele>
        <time>2022-07-16T10:07:59Z</time>
      </trkpt>
      <trkpt lat="44.89983" lon="5.90381">
        <ele>795.2</ele>
        <time>2022-07-16T10:08:00Z</time>
      </trkpt>
      <trkpt lat="44.89985" lon="5.90389">
        <ele>795.4</ele>
        <time>2022-07-16T10:08:01Z</time>
      </trkpt>
      <trkpt lat="44.89987" lon="5.90397">
        <ele>795.5</ele>
        <time>2022-07-16T10:08:02Z</time>
      </trkpt>
      <trkpt lat="44.89989" lon="5.90405">
        <ele>795.7</ele>
        <time>2022-07-16T10:08:03Z</time>
      </trkpt>
      <trkpt lat="44.8999" lon="5.90412">
        <ele>795.8</ele>
        <time>2022-07-16T10:08:04Z</time>
      </trkpt>
      <trkpt lat="44.89992" lon="5.9042">
        <ele>796</ele>
        <time>2022-07-16T10:08:05Z</time>
      </trkpt>
      <trkpt lat="44.89993" lon="5.90427">
        <ele>796.2</ele>
        <time>2022-07-16T10:08:06Z</time>
      </trkpt>
      <trkpt lat="44.89995" lon="5.90435">
        <ele>796.4</ele>
        <time>2022-07-16T10:08:07Z</time>
      </trkpt>
      <trkpt lat="44.89997" lon="5.90442">
        <ele>796.5</ele>
        <time>2022-07-16T10:08:08Z</time>
      </trkpt>
      <trkpt lat="44.89999" lon="5.90448">
        <ele>796.7</ele>
        <time>2022-07-16T10:08:09Z</time>
      </trkpt>
      <trkpt lat="44.90001" lon="5.90454">
        <ele>796.8</ele>
        <time>2022-07-16T10:08:10Z</time>
      </trkpt>
      <trkpt lat="44.90002" lon="5.90461">
        <ele>796.9</ele>
        <time>2022-07-16T10:08:11Z</time>
      </trkpt>
      <trkpt lat="44.90003" lon="5.90469">
        <ele>797</ele>
        <time>2022-07-16T10:08:12Z</time>
      </trkpt>
      <trkpt lat="44.90005" lon="5.90475">
        <ele>797.1</ele>
        <time>2022-07-16T10:08:13Z</time>
      </trkpt>
      <trkpt lat="44.90006" lon="5.90481">
        <ele>797.1</ele>
        <time>2022-07-16T10:08:14Z</time>
      </trkpt>
      <trkpt lat="44.90007" lon="5.90489">
        <ele>797.1</ele>
        <time>2022-07-16T10:08:15Z</time>
      </trkpt>
      <trkpt lat="44.90009" lon="5.90495">
        <ele>797</ele>
        <time>2022-07-16T10:08:16Z</time>
      </trkpt>
      <trkpt lat="44.9001" lon="5.90501">
        <ele>796.9</ele>
        <time>2022-07-16T10:08:17Z</time>
      </trkpt>
      <trkpt lat="44.90011" lon="5.90508">
        <ele>796.8</ele>
        <time>2022-07-16T10:08:18Z</time>
      </trkpt>
      <trkpt lat="44.90011" lon="5.90512">
        <ele>796.7</ele>
        <time>2022-07-16T10:08:19Z</time>
      </trkpt>
      <trkpt lat="44.90013" lon="5.9052">
        <ele>796.6</ele>
        <time>2022-07-16T10:08:20Z</time>
      </trkpt>
      <trkpt lat="44.90014" lon="5.90527">
        <ele>796.4</ele>
        <time>2022-07-16T10:08:21Z</time>
      </trkpt>
      <trkpt lat="44.90014" lon="5.90531">
        <ele>796.4</ele>
        <time>2022-07-16T10:08:22Z</time>
      </trkpt>
      <trkpt lat="44.90019" lon="5.90544">
        <ele>796.1</ele>
        <time>2022-07-16T10:08:23Z</time>
      </trkpt>
      <trkpt lat="44.90023" lon="5.90545">
        <ele>796.1</ele>
        <time>2022-07-16T10:08:24Z</time>
      </trkpt>
      <trkpt lat="44.90023" lon="5.90555">
        <ele>795.8</ele>
        <time>2022-07-16T10:08:25Z</time>
      </trkpt>
      <trkpt lat="44.90027" lon="5.90573">
        <ele>795.4</ele>
        <time>2022-07-16T10:08:28Z</time>
      </trkpt>
      <trkpt lat="44.90028" lon="5.9058">
        <ele>795.2</ele>
        <time>2022-07-16T10:08:29Z</time>
      </trkpt>
      <trkpt lat="44.90029" lon="5.90588">
        <ele>794.9</ele>
        <time>2022-07-16T10:08:30Z</time>
      </trkpt>
      <trkpt lat="44.9003" lon="5.90595">
        <ele>794.7</ele>
        <time>2022-07-16T10:08:31Z</time>
      </trkpt>
      <trkpt lat="44.9003" lon="5.90602">
        <ele>794.6</ele>
        <time>2022-07-16T10:08:32Z</time>
      </trkpt>
      <trkpt lat="44.90029" lon="5.90611">
        <ele>794.4</ele>
        <time>2022-07-16T10:08:33Z</time>
      </trkpt>
      <trkpt lat="44.90028" lon="5.90619">
        <ele>794.2</ele>
        <time>2022-07-16T10:08:34Z</time>
      </trkpt>
      <trkpt lat="44.90028" lon="5.90628">
        <ele>794.1</ele>
        <time>2022-07-16T10:08:35Z</time>
      </trkpt>
      <trkpt lat="44.90028" lon="5.90637">
        <ele>793.9</ele>
        <time>2022-07-16T10:08:36Z</time>
      </trkpt>
      <trkpt lat="44.90027" lon="5.90646">
        <ele>793.8</ele>
        <time>2022-07-16T10:08:37Z</time>
      </trkpt>
      <trkpt lat="44.90026" lon="5.90654">
        <ele>793.6</ele>
        <time>2022-07-16T10:08:38Z</time>
      </trkpt>
      <trkpt lat="44.90025" lon="5.90663">
        <ele>793.3</ele>
        <time>2022-07-16T10:08:39Z</time>
      </trkpt>
      <trkpt lat="44.90025" lon="5.90674">
        <ele>793.1</ele>
        <time>2022-07-16T10:08:40Z</time>
      </trkpt>
      <trkpt lat="44.90025" lon="5.90683">
        <ele>793</ele>
        <time>2022-07-16T10:08:41Z</time>
      </trkpt>
      <trkpt lat="44.90024" lon="5.90693">
        <ele>792.8</ele>
        <time>2022-07-16T10:08:42Z</time>
      </trkpt>
      <trkpt lat="44.90024" lon="5.90703">
        <ele>792.7</ele>
        <time>2022-07-16T10:08:43Z</time>
      </trkpt>
      <trkpt lat="44.90023" lon="5.90712">
        <ele>792.6</ele>
        <time>2022-07-16T10:08:44Z</time>
      </trkpt>
      <trkpt lat="44.90023" lon="5.90722">
        <ele>792.5</ele>
        <time>2022-07-16T10:08:45Z</time>
      </trkpt>
      <trkpt lat="44.90023" lon="5.90733">
        <ele>792.4</ele>
        <time>2022-07-16T10:08:46Z</time>
      </trkpt>
      <trkpt lat="44.90023" lon="5.90742">
        <ele>792.3</ele>
        <time>2022-07-16T10:08:47Z</time>
      </trkpt>
      <trkpt lat="44.90023" lon="5.90751">
        <ele>792.3</ele>
        <time>2022-07-16T10:08:48Z</time>
      </trkpt>
      <trkpt lat="44.90024" lon="5.9076">
        <ele>792.2</ele>
        <time>2022-07-16T10:08:49Z</time>
      </trkpt>
      <trkpt lat="44.90024" lon="5.90768">
        <ele>792.2</ele>
        <time>2022-07-16T10:08:50Z</time>
      </trkpt>
      <trkpt lat="44.90022" lon="5.90774">
        <ele>792.1</ele>
        <time>2022-07-16T10:08:51Z</time>
      </trkpt>
      <trkpt lat="44.9002" lon="5.90777">
        <ele>792.1</ele>
        <time>2022-07-16T10:08:52Z</time>
      </trkpt>
      <trkpt lat="44.90017" lon="5.9078">
        <ele>792.1</ele>
        <time>2022-07-16T10:08:53Z</time>
      </trkpt>
      <trkpt lat="44.90016" lon="5.90782">
        <ele>792.1</ele>
        <time>2022-07-16T10:08:54Z</time>
      </trkpt>
      <trkpt lat="44.90015" lon="5.90787">
        <ele>792.1</ele>
        <time>2022-07-16T10:08:55Z</time>
      </trkpt>
      <trkpt lat="44.90016" lon="5.90791">
        <ele>792</ele>
        <time>2022-07-16T10:08:56Z</time>
      </trkpt>
      <trkpt lat="44.90016" lon="5.90794">
        <ele>792</ele>
        <time>2022-07-16T10:08:57Z</time>
      </trkpt>
      <trkpt lat="44.90017" lon="5.90798">
        <ele>792</ele>
        <time>2022-07-16T10:08:58Z</time>
      </trkpt>
      <trkpt lat="44.90016" lon="5.90797">
        <ele>792</ele>
        <time>2022-07-16T10:09:00Z</time>
      </trkpt>
      <trkpt lat="44.90016" lon="5.90797">
        <ele>792</ele>
        <time>2022-07-16T10:09:01Z</time>
      </trkpt>
      <trkpt lat="44.90015" lon="5.90797">
        <ele>792</ele>
        <time>2022-07-16T10:09:02Z</time>
      </trkpt>
      <trkpt lat="44.90015" lon="5.90797">
        <ele>792</ele>
        <time>2022-07-16T10:09:03Z</time>
      </trkpt>
      <trkpt lat="44.90015" lon="5.90797">
        <ele>792</ele>
        <time>2022-07-16T10:09:04Z</time>
      </trkpt>
      <trkpt lat="44.90014" lon="5.90797">
        <ele>792</ele>
        <time>2022-07-16T10:09:05Z</time>
      </trkpt>
      <trkpt lat="44.90014" lon="5.90797">
        <ele>792</ele>
        <time>2022-07-16T10:09:06Z</time>
      </trkpt>
      <trkpt lat="44.90013" lon="5.90798">
        <ele>792</ele>
        <time>2022-07-16T10:09:07Z</time>
      </trkpt>
      <trkpt lat="44.90013" lon="5.90798">
        <ele>792</ele>
        <time>2022-07-16T10:09:10Z</time>
      </trkpt>
      <trkpt lat="44.90012" lon="5.90798">
        <ele>792</ele>
        <time>2022-07-16T10:09:11Z</time>
      </trkpt>
      <trkpt lat="44.90012" lon="5.90798">
        <ele>792</ele>
        <time>2022-07-16T10:09:12Z</time>
      </trkpt>
      <trkpt lat="44.90011" lon="5.90798">
        <ele>792</ele>
        <time>2022-07-16T10:09:13Z</time>
      </trkpt>
      <trkpt lat="44.90011" lon="5.90798">
        <ele>792</ele>
        <time>2022-07-16T10:09:14Z</time>
      </trkpt>
      <trkpt lat="44.9001" lon="5.90798">
        <ele>792</ele>
        <time>2022-07-16T10:09:15Z</time>
      </trkpt>
      <trkpt lat="44.9001" lon="5.90798">
        <ele>792</ele>
        <time>2022-07-16T10:09:16Z</time>
      </trkpt>
      <trkpt lat="44.9001" lon="5.90798">
        <ele>792</ele>
        <time>2022-07-16T10:09:17Z</time>
      </trkpt>
      <trkpt lat="44.90009" lon="5.90798">
        <ele>792</ele>
        <time>2022-07-16T10:09:57Z</time>
      </trkpt>
      <trkpt lat="44.90009" lon="5.90798">
        <ele>792</ele>
        <time>2022-07-16T10:09:58Z</time>
      </trkpt>
      <trkpt lat="44.90008" lon="5.90798">
        <ele>792</ele>
        <time>2022-07-16T10:09:59Z</time>
      </trkpt>
      <trkpt lat="44.90006" lon="5.90799">
        <ele>792</ele>
        <time>2022-07-16T10:10:00Z</time>
      </trkpt>
      <trkpt lat="44.90005" lon="5.908">
        <ele>792</ele>
        <time>2022-07-16T10:10:01Z</time>
      </trkpt>
      <trkpt lat="44.90004" lon="5.908">
        <ele>792</ele>
        <time>2022-07-16T10:10:02Z</time>
      </trkpt>
      <trkpt lat="44.90005" lon="5.90799">
        <ele>792</ele>
        <time>2022-07-16T10:10:03Z</time>
      </trkpt>
      <trkpt lat="44.90005" lon="5.90799">
        <ele>792</ele>
        <time>2022-07-16T10:10:04Z</time>
      </trkpt>
      <trkpt lat="44.90005" lon="5.90799">
        <ele>792</ele>
        <time>2022-07-16T10:10:05Z</time>
      </trkpt>
      <trkpt lat="44.90006" lon="5.90799">
        <ele>792</ele>
        <time>2022-07-16T10:10:06Z</time>
      </trkpt>
      <trkpt lat="44.90006" lon="5.90799">
        <ele>792</ele>
        <time>2022-07-16T10:10:07Z</time>
      </trkpt>
      <trkpt lat="44.90006" lon="5.90798">
        <ele>792</ele>
        <time>2022-07-16T10:10:08Z</time>
      </trkpt>
      <trkpt lat="44.90006" lon="5.90798">
        <ele>792</ele>
        <time>2022-07-16T10:10:09Z</time>
      </trkpt>
      <trkpt lat="44.90006" lon="5.90798">
        <ele>792</ele>
        <time>2022-07-16T10:10:10Z</time>
      </trkpt>
      <trkpt lat="44.90006" lon="5.90798">
        <ele>792</ele>
        <time>2022-07-16T10:10:11Z</time>
      </trkpt>
      <trkpt lat="44.90006" lon="5.90798">
        <ele>792</ele>
        <time>2022-07-16T10:10:12Z</time>
      </trkpt>
      <trkpt lat="44.90006" lon="5.90798">
        <ele>792</ele>
        <time>2022-07-16T10:10:13Z</time>
      </trkpt>
      <trkpt lat="44.90006" lon="5.90798">
        <ele>792</ele>
        <time>2022-07-16T10:10:14Z</time>
      </trkpt>
    </trkseg>
  </trk>
</gpx>